<?xml version="1.0" encoding="UTF-8"?>
<gpx version="1.1" creator="https://www.youtrack.es" xsi:schemaLocation="http://www.topografix.com/GPX/1/1 http://www.topografix.com/GPX/1/1/gpx.xsd http://www.garmin.com/xmlschemas/GpxExtensions/v3 http://www.garmin.com/xmlschemas/GpxExtensionsv3.xsd http://www.garmin.com/xmlschemas/TrackPointExtension/v1 http://www.garmin.com/xmlschemas/TrackPointExtensionv1.xsd" xmlns:gpxtpx="http://www.garmin.com/xmlschemas/TrackPointExtension/v1" xmlns:gpxx="http://www.garmin.com/xmlschemas/GpxExtensions/v3" xmlns:xsi="http://www.w3.org/2001/XMLSchema-instance">
  <metadata>
    <author>
      <name>Ferran Monteagudo</name>
      <email id="ferranmonba" domain="gmail.com"/>
    </author>
    <link href="https://www.youtrack.es">
      <text>YouTrack.es</text>
    </link>
    <time>2026-05-08T04:29:37Z</time>
  </metadata>
  <trk>
    <src>https://www.youtrack.es</src>
    <link href="https://www.youtrack.es/ruta/27379-cafe-a-la-rusa">
      <text>YouTrack.es</text>
    </link>
    <trkseg>
      <trkpt lat="41.40921" lon="2.17404">
        <ele>63.6</ele>
        <time>2021-11-13 07:49:17</time>
      </trkpt>
      <trkpt lat="41.4093" lon="2.17413">
        <ele>63.2</ele>
        <time>2021-11-13 07:49:18</time>
      </trkpt>
      <trkpt lat="41.40934" lon="2.17418">
        <ele>62.8</ele>
        <time>2021-11-13 07:49:19</time>
      </trkpt>
      <trkpt lat="41.40942" lon="2.17438">
        <ele>62.6</ele>
        <time>2021-11-13 07:49:20</time>
      </trkpt>
      <trkpt lat="41.40941" lon="2.17443">
        <ele>62.8</ele>
        <time>2021-11-13 07:49:21</time>
      </trkpt>
      <trkpt lat="41.40944" lon="2.17437">
        <ele>62.8</ele>
        <time>2021-11-13 07:49:22</time>
      </trkpt>
      <trkpt lat="41.4095" lon="2.17437">
        <ele>62.6</ele>
        <time>2021-11-13 07:49:23</time>
      </trkpt>
      <trkpt lat="41.40956" lon="2.17442">
        <ele>62.4</ele>
        <time>2021-11-13 07:49:24</time>
      </trkpt>
      <trkpt lat="41.40963" lon="2.17449">
        <ele>62.2</ele>
        <time>2021-11-13 07:49:25</time>
      </trkpt>
      <trkpt lat="41.4097" lon="2.17458">
        <ele>62.6</ele>
        <time>2021-11-13 07:49:29</time>
      </trkpt>
      <trkpt lat="41.40977" lon="2.17468">
        <ele>62.6</ele>
        <time>2021-11-13 07:49:30</time>
      </trkpt>
      <trkpt lat="41.40983" lon="2.17477">
        <ele>62.8</ele>
        <time>2021-11-13 07:49:31</time>
      </trkpt>
      <trkpt lat="41.40989" lon="2.17486">
        <ele>63</ele>
        <time>2021-11-13 07:49:32</time>
      </trkpt>
      <trkpt lat="41.40996" lon="2.17495">
        <ele>62.8</ele>
        <time>2021-11-13 07:49:33</time>
      </trkpt>
      <trkpt lat="41.41002" lon="2.17503">
        <ele>62.6</ele>
        <time>2021-11-13 07:49:34</time>
      </trkpt>
      <trkpt lat="41.41009" lon="2.17511">
        <ele>62.6</ele>
        <time>2021-11-13 07:49:35</time>
      </trkpt>
      <trkpt lat="41.41015" lon="2.1752">
        <ele>62.6</ele>
        <time>2021-11-13 07:49:36</time>
      </trkpt>
      <trkpt lat="41.4102" lon="2.17527">
        <ele>62.6</ele>
        <time>2021-11-13 07:49:37</time>
      </trkpt>
      <trkpt lat="41.41026" lon="2.17532">
        <ele>62.6</ele>
        <time>2021-11-13 07:49:38</time>
      </trkpt>
      <trkpt lat="41.41032" lon="2.17538">
        <ele>62.6</ele>
        <time>2021-11-13 07:49:39</time>
      </trkpt>
      <trkpt lat="41.41038" lon="2.17545">
        <ele>62.6</ele>
        <time>2021-11-13 07:49:40</time>
      </trkpt>
      <trkpt lat="41.41044" lon="2.17553">
        <ele>62.6</ele>
        <time>2021-11-13 07:49:41</time>
      </trkpt>
      <trkpt lat="41.4105" lon="2.17563">
        <ele>62.6</ele>
        <time>2021-11-13 07:49:42</time>
      </trkpt>
      <trkpt lat="41.41057" lon="2.17574">
        <ele>62.6</ele>
        <time>2021-11-13 07:49:43</time>
      </trkpt>
      <trkpt lat="41.41064" lon="2.17584">
        <ele>62.6</ele>
        <time>2021-11-13 07:49:44</time>
      </trkpt>
      <trkpt lat="41.41072" lon="2.17592">
        <ele>62.6</ele>
        <time>2021-11-13 07:49:45</time>
      </trkpt>
      <trkpt lat="41.4108" lon="2.17601">
        <ele>62.8</ele>
        <time>2021-11-13 07:49:46</time>
      </trkpt>
      <trkpt lat="41.41088" lon="2.1761">
        <ele>62.4</ele>
        <time>2021-11-13 07:49:47</time>
      </trkpt>
      <trkpt lat="41.41096" lon="2.17621">
        <ele>62.4</ele>
        <time>2021-11-13 07:49:48</time>
      </trkpt>
      <trkpt lat="41.41105" lon="2.17633">
        <ele>62.4</ele>
        <time>2021-11-13 07:49:49</time>
      </trkpt>
      <trkpt lat="41.41116" lon="2.17646">
        <ele>62.2</ele>
        <time>2021-11-13 07:49:50</time>
      </trkpt>
      <trkpt lat="41.41125" lon="2.17655">
        <ele>62.2</ele>
        <time>2021-11-13 07:49:51</time>
      </trkpt>
      <trkpt lat="41.41128" lon="2.17661">
        <ele>62.2</ele>
        <time>2021-11-13 07:49:52</time>
      </trkpt>
      <trkpt lat="41.41133" lon="2.17664">
        <ele>62.2</ele>
        <time>2021-11-13 07:49:53</time>
      </trkpt>
      <trkpt lat="41.41138" lon="2.17671">
        <ele>62.2</ele>
        <time>2021-11-13 07:49:54</time>
      </trkpt>
      <trkpt lat="41.41147" lon="2.17681">
        <ele>62.2</ele>
        <time>2021-11-13 07:49:55</time>
      </trkpt>
      <trkpt lat="41.41153" lon="2.17689">
        <ele>62</ele>
        <time>2021-11-13 07:49:56</time>
      </trkpt>
      <trkpt lat="41.41161" lon="2.17699">
        <ele>62</ele>
        <time>2021-11-13 07:49:57</time>
      </trkpt>
      <trkpt lat="41.4117" lon="2.17708">
        <ele>62</ele>
        <time>2021-11-13 07:49:58</time>
      </trkpt>
      <trkpt lat="41.41181" lon="2.1772">
        <ele>62</ele>
        <time>2021-11-13 07:49:59</time>
      </trkpt>
      <trkpt lat="41.4119" lon="2.17733">
        <ele>62</ele>
        <time>2021-11-13 07:50:00</time>
      </trkpt>
      <trkpt lat="41.412" lon="2.17746">
        <ele>62</ele>
        <time>2021-11-13 07:50:01</time>
      </trkpt>
      <trkpt lat="41.41206" lon="2.17759">
        <ele>62</ele>
        <time>2021-11-13 07:50:02</time>
      </trkpt>
      <trkpt lat="41.41216" lon="2.17771">
        <ele>62</ele>
        <time>2021-11-13 07:50:03</time>
      </trkpt>
      <trkpt lat="41.41224" lon="2.17775">
        <ele>62</ele>
        <time>2021-11-13 07:50:04</time>
      </trkpt>
      <trkpt lat="41.41231" lon="2.17784">
        <ele>62</ele>
        <time>2021-11-13 07:50:05</time>
      </trkpt>
      <trkpt lat="41.41239" lon="2.17794">
        <ele>62</ele>
        <time>2021-11-13 07:50:06</time>
      </trkpt>
      <trkpt lat="41.41248" lon="2.17805">
        <ele>62</ele>
        <time>2021-11-13 07:50:07</time>
      </trkpt>
      <trkpt lat="41.41258" lon="2.17816">
        <ele>62</ele>
        <time>2021-11-13 07:50:08</time>
      </trkpt>
      <trkpt lat="41.41267" lon="2.17827">
        <ele>61.8</ele>
        <time>2021-11-13 07:50:09</time>
      </trkpt>
      <trkpt lat="41.41275" lon="2.17836">
        <ele>61.8</ele>
        <time>2021-11-13 07:50:10</time>
      </trkpt>
      <trkpt lat="41.41284" lon="2.17846">
        <ele>61.6</ele>
        <time>2021-11-13 07:50:11</time>
      </trkpt>
      <trkpt lat="41.4129" lon="2.17854">
        <ele>61.4</ele>
        <time>2021-11-13 07:50:12</time>
      </trkpt>
      <trkpt lat="41.41292" lon="2.17859">
        <ele>61.4</ele>
        <time>2021-11-13 07:50:13</time>
      </trkpt>
      <trkpt lat="41.41294" lon="2.17861">
        <ele>61.4</ele>
        <time>2021-11-13 07:50:14</time>
      </trkpt>
      <trkpt lat="41.41297" lon="2.17863">
        <ele>61.4</ele>
        <time>2021-11-13 07:50:15</time>
      </trkpt>
      <trkpt lat="41.41297" lon="2.17863">
        <ele>61.4</ele>
        <time>2021-11-13 07:50:16</time>
      </trkpt>
      <trkpt lat="41.41299" lon="2.17866">
        <ele>61.4</ele>
        <time>2021-11-13 07:50:17</time>
      </trkpt>
      <trkpt lat="41.413" lon="2.17867">
        <ele>61.4</ele>
        <time>2021-11-13 07:50:18</time>
      </trkpt>
      <trkpt lat="41.41303" lon="2.17868">
        <ele>61.4</ele>
        <time>2021-11-13 07:50:19</time>
      </trkpt>
      <trkpt lat="41.41303" lon="2.17869">
        <ele>61.4</ele>
        <time>2021-11-13 07:50:20</time>
      </trkpt>
      <trkpt lat="41.41304" lon="2.17871">
        <ele>61.4</ele>
        <time>2021-11-13 07:50:21</time>
      </trkpt>
      <trkpt lat="41.41304" lon="2.17872">
        <ele>61.4</ele>
        <time>2021-11-13 07:50:22</time>
      </trkpt>
      <trkpt lat="41.41304" lon="2.17874">
        <ele>61.4</ele>
        <time>2021-11-13 07:50:23</time>
      </trkpt>
      <trkpt lat="41.41304" lon="2.17874">
        <ele>61.4</ele>
        <time>2021-11-13 07:50:24</time>
      </trkpt>
      <trkpt lat="41.41305" lon="2.17879">
        <ele>61.4</ele>
        <time>2021-11-13 07:50:25</time>
      </trkpt>
      <trkpt lat="41.41308" lon="2.17885">
        <ele>61.2</ele>
        <time>2021-11-13 07:50:26</time>
      </trkpt>
      <trkpt lat="41.41312" lon="2.17892">
        <ele>61.2</ele>
        <time>2021-11-13 07:50:27</time>
      </trkpt>
      <trkpt lat="41.41318" lon="2.17901">
        <ele>61</ele>
        <time>2021-11-13 07:50:28</time>
      </trkpt>
      <trkpt lat="41.41324" lon="2.17907">
        <ele>60.8</ele>
        <time>2021-11-13 07:50:29</time>
      </trkpt>
      <trkpt lat="41.4133" lon="2.17915">
        <ele>60.6</ele>
        <time>2021-11-13 07:50:30</time>
      </trkpt>
      <trkpt lat="41.41336" lon="2.17921">
        <ele>60.6</ele>
        <time>2021-11-13 07:50:31</time>
      </trkpt>
      <trkpt lat="41.41344" lon="2.1793">
        <ele>60.4</ele>
        <time>2021-11-13 07:50:32</time>
      </trkpt>
      <trkpt lat="41.41352" lon="2.17939">
        <ele>60.2</ele>
        <time>2021-11-13 07:50:33</time>
      </trkpt>
      <trkpt lat="41.41357" lon="2.17943">
        <ele>60</ele>
        <time>2021-11-13 07:50:34</time>
      </trkpt>
      <trkpt lat="41.41368" lon="2.17952">
        <ele>59.8</ele>
        <time>2021-11-13 07:50:35</time>
      </trkpt>
      <trkpt lat="41.4139" lon="2.17965">
        <ele>59.8</ele>
        <time>2021-11-13 07:50:36</time>
      </trkpt>
      <trkpt lat="41.41399" lon="2.17973">
        <ele>59.8</ele>
        <time>2021-11-13 07:50:37</time>
      </trkpt>
      <trkpt lat="41.41407" lon="2.17982">
        <ele>59.6</ele>
        <time>2021-11-13 07:50:38</time>
      </trkpt>
      <trkpt lat="41.41414" lon="2.17993">
        <ele>59.6</ele>
        <time>2021-11-13 07:50:39</time>
      </trkpt>
      <trkpt lat="41.41418" lon="2.18">
        <ele>59.4</ele>
        <time>2021-11-13 07:50:40</time>
      </trkpt>
      <trkpt lat="41.41421" lon="2.18008">
        <ele>59.2</ele>
        <time>2021-11-13 07:50:41</time>
      </trkpt>
      <trkpt lat="41.41422" lon="2.18014">
        <ele>59</ele>
        <time>2021-11-13 07:50:42</time>
      </trkpt>
      <trkpt lat="41.41425" lon="2.18022">
        <ele>58.8</ele>
        <time>2021-11-13 07:50:43</time>
      </trkpt>
      <trkpt lat="41.41429" lon="2.1803">
        <ele>58.8</ele>
        <time>2021-11-13 07:50:44</time>
      </trkpt>
      <trkpt lat="41.41432" lon="2.18037">
        <ele>58.6</ele>
        <time>2021-11-13 07:50:45</time>
      </trkpt>
      <trkpt lat="41.41436" lon="2.18042">
        <ele>58.2</ele>
        <time>2021-11-13 07:50:46</time>
      </trkpt>
      <trkpt lat="41.4144" lon="2.18048">
        <ele>58</ele>
        <time>2021-11-13 07:50:47</time>
      </trkpt>
      <trkpt lat="41.41442" lon="2.18053">
        <ele>57.6</ele>
        <time>2021-11-13 07:50:48</time>
      </trkpt>
      <trkpt lat="41.41445" lon="2.18057">
        <ele>57.4</ele>
        <time>2021-11-13 07:50:49</time>
      </trkpt>
      <trkpt lat="41.41447" lon="2.1806">
        <ele>57.2</ele>
        <time>2021-11-13 07:50:50</time>
      </trkpt>
      <trkpt lat="41.41448" lon="2.18063">
        <ele>57</ele>
        <time>2021-11-13 07:50:51</time>
      </trkpt>
      <trkpt lat="41.41451" lon="2.18066">
        <ele>57</ele>
        <time>2021-11-13 07:50:52</time>
      </trkpt>
      <trkpt lat="41.41454" lon="2.18069">
        <ele>56.6</ele>
        <time>2021-11-13 07:50:53</time>
      </trkpt>
      <trkpt lat="41.41458" lon="2.18066">
        <ele>56.6</ele>
        <time>2021-11-13 07:50:54</time>
      </trkpt>
      <trkpt lat="41.41463" lon="2.1806">
        <ele>56.4</ele>
        <time>2021-11-13 07:50:55</time>
      </trkpt>
      <trkpt lat="41.41467" lon="2.18056">
        <ele>56.2</ele>
        <time>2021-11-13 07:50:56</time>
      </trkpt>
      <trkpt lat="41.41471" lon="2.18055">
        <ele>56.2</ele>
        <time>2021-11-13 07:50:57</time>
      </trkpt>
      <trkpt lat="41.41475" lon="2.18053">
        <ele>56.2</ele>
        <time>2021-11-13 07:50:58</time>
      </trkpt>
      <trkpt lat="41.4148" lon="2.18051">
        <ele>56.2</ele>
        <time>2021-11-13 07:50:59</time>
      </trkpt>
      <trkpt lat="41.41488" lon="2.18053">
        <ele>56.2</ele>
        <time>2021-11-13 07:51:00</time>
      </trkpt>
      <trkpt lat="41.41495" lon="2.18054">
        <ele>56.2</ele>
        <time>2021-11-13 07:51:01</time>
      </trkpt>
      <trkpt lat="41.41503" lon="2.18054">
        <ele>56.2</ele>
        <time>2021-11-13 07:51:02</time>
      </trkpt>
      <trkpt lat="41.41512" lon="2.18053">
        <ele>56.2</ele>
        <time>2021-11-13 07:51:03</time>
      </trkpt>
      <trkpt lat="41.41519" lon="2.18053">
        <ele>56.2</ele>
        <time>2021-11-13 07:51:04</time>
      </trkpt>
      <trkpt lat="41.41526" lon="2.18052">
        <ele>56.2</ele>
        <time>2021-11-13 07:51:05</time>
      </trkpt>
      <trkpt lat="41.41533" lon="2.18051">
        <ele>56.2</ele>
        <time>2021-11-13 07:51:06</time>
      </trkpt>
      <trkpt lat="41.4154" lon="2.1805">
        <ele>56.2</ele>
        <time>2021-11-13 07:51:07</time>
      </trkpt>
      <trkpt lat="41.41546" lon="2.18051">
        <ele>56.2</ele>
        <time>2021-11-13 07:51:08</time>
      </trkpt>
      <trkpt lat="41.41553" lon="2.1805">
        <ele>56.2</ele>
        <time>2021-11-13 07:51:09</time>
      </trkpt>
      <trkpt lat="41.41559" lon="2.1805">
        <ele>56.2</ele>
        <time>2021-11-13 07:51:10</time>
      </trkpt>
      <trkpt lat="41.41566" lon="2.18049">
        <ele>56.2</ele>
        <time>2021-11-13 07:51:11</time>
      </trkpt>
      <trkpt lat="41.41573" lon="2.18048">
        <ele>56.4</ele>
        <time>2021-11-13 07:51:12</time>
      </trkpt>
      <trkpt lat="41.41579" lon="2.18048">
        <ele>56.4</ele>
        <time>2021-11-13 07:51:13</time>
      </trkpt>
      <trkpt lat="41.41585" lon="2.18048">
        <ele>56.4</ele>
        <time>2021-11-13 07:51:14</time>
      </trkpt>
      <trkpt lat="41.41591" lon="2.18049">
        <ele>56.6</ele>
        <time>2021-11-13 07:51:15</time>
      </trkpt>
      <trkpt lat="41.41597" lon="2.1805">
        <ele>56.8</ele>
        <time>2021-11-13 07:51:16</time>
      </trkpt>
      <trkpt lat="41.41603" lon="2.18051">
        <ele>56.8</ele>
        <time>2021-11-13 07:51:17</time>
      </trkpt>
      <trkpt lat="41.41609" lon="2.1805">
        <ele>57.2</ele>
        <time>2021-11-13 07:51:18</time>
      </trkpt>
      <trkpt lat="41.41616" lon="2.18048">
        <ele>57.4</ele>
        <time>2021-11-13 07:51:19</time>
      </trkpt>
      <trkpt lat="41.41616" lon="2.18048">
        <ele>57.6</ele>
        <time>2021-11-13 07:51:20</time>
      </trkpt>
      <trkpt lat="41.4163" lon="2.18046">
        <ele>57.8</ele>
        <time>2021-11-13 07:51:21</time>
      </trkpt>
      <trkpt lat="41.41636" lon="2.18046">
        <ele>58</ele>
        <time>2021-11-13 07:51:22</time>
      </trkpt>
      <trkpt lat="41.41642" lon="2.18045">
        <ele>58</ele>
        <time>2021-11-13 07:51:23</time>
      </trkpt>
      <trkpt lat="41.41642" lon="2.18045">
        <ele>58.2</ele>
        <time>2021-11-13 07:51:24</time>
      </trkpt>
      <trkpt lat="41.41657" lon="2.18046">
        <ele>58.6</ele>
        <time>2021-11-13 07:51:25</time>
      </trkpt>
      <trkpt lat="41.41665" lon="2.18047">
        <ele>58.8</ele>
        <time>2021-11-13 07:51:26</time>
      </trkpt>
      <trkpt lat="41.4167" lon="2.18048">
        <ele>58.8</ele>
        <time>2021-11-13 07:51:27</time>
      </trkpt>
      <trkpt lat="41.41675" lon="2.18049">
        <ele>58.8</ele>
        <time>2021-11-13 07:51:28</time>
      </trkpt>
      <trkpt lat="41.41681" lon="2.18051">
        <ele>59.2</ele>
        <time>2021-11-13 07:51:29</time>
      </trkpt>
      <trkpt lat="41.41688" lon="2.18051">
        <ele>59.2</ele>
        <time>2021-11-13 07:51:30</time>
      </trkpt>
      <trkpt lat="41.41694" lon="2.18051">
        <ele>59.2</ele>
        <time>2021-11-13 07:51:31</time>
      </trkpt>
      <trkpt lat="41.41694" lon="2.18051">
        <ele>59.4</ele>
        <time>2021-11-13 07:51:32</time>
      </trkpt>
      <trkpt lat="41.41707" lon="2.18051">
        <ele>59.4</ele>
        <time>2021-11-13 07:51:33</time>
      </trkpt>
      <trkpt lat="41.41714" lon="2.18051">
        <ele>59.4</ele>
        <time>2021-11-13 07:51:34</time>
      </trkpt>
      <trkpt lat="41.41721" lon="2.18051">
        <ele>59.4</ele>
        <time>2021-11-13 07:51:35</time>
      </trkpt>
      <trkpt lat="41.41728" lon="2.18052">
        <ele>59.6</ele>
        <time>2021-11-13 07:51:36</time>
      </trkpt>
      <trkpt lat="41.41735" lon="2.18052">
        <ele>59.6</ele>
        <time>2021-11-13 07:51:37</time>
      </trkpt>
      <trkpt lat="41.41742" lon="2.18052">
        <ele>59.6</ele>
        <time>2021-11-13 07:51:38</time>
      </trkpt>
      <trkpt lat="41.41742" lon="2.18052">
        <ele>59.6</ele>
        <time>2021-11-13 07:51:39</time>
      </trkpt>
      <trkpt lat="41.41756" lon="2.18054">
        <ele>59.8</ele>
        <time>2021-11-13 07:51:40</time>
      </trkpt>
      <trkpt lat="41.41763" lon="2.18055">
        <ele>59.8</ele>
        <time>2021-11-13 07:51:41</time>
      </trkpt>
      <trkpt lat="41.4177" lon="2.18056">
        <ele>59.8</ele>
        <time>2021-11-13 07:51:42</time>
      </trkpt>
      <trkpt lat="41.41778" lon="2.18058">
        <ele>59.8</ele>
        <time>2021-11-13 07:51:43</time>
      </trkpt>
      <trkpt lat="41.41785" lon="2.18059">
        <ele>59.8</ele>
        <time>2021-11-13 07:51:44</time>
      </trkpt>
      <trkpt lat="41.41792" lon="2.1806">
        <ele>59.8</ele>
        <time>2021-11-13 07:51:45</time>
      </trkpt>
      <trkpt lat="41.41799" lon="2.18061">
        <ele>59.8</ele>
        <time>2021-11-13 07:51:46</time>
      </trkpt>
      <trkpt lat="41.41807" lon="2.18063">
        <ele>60</ele>
        <time>2021-11-13 07:51:47</time>
      </trkpt>
      <trkpt lat="41.41815" lon="2.18064">
        <ele>60</ele>
        <time>2021-11-13 07:51:48</time>
      </trkpt>
      <trkpt lat="41.41823" lon="2.18065">
        <ele>60</ele>
        <time>2021-11-13 07:51:49</time>
      </trkpt>
      <trkpt lat="41.41831" lon="2.18067">
        <ele>60</ele>
        <time>2021-11-13 07:51:50</time>
      </trkpt>
      <trkpt lat="41.41839" lon="2.18068">
        <ele>60</ele>
        <time>2021-11-13 07:51:51</time>
      </trkpt>
      <trkpt lat="41.41847" lon="2.18069">
        <ele>59.8</ele>
        <time>2021-11-13 07:51:52</time>
      </trkpt>
      <trkpt lat="41.41854" lon="2.18071">
        <ele>59.8</ele>
        <time>2021-11-13 07:51:53</time>
      </trkpt>
      <trkpt lat="41.41863" lon="2.18073">
        <ele>59.8</ele>
        <time>2021-11-13 07:51:54</time>
      </trkpt>
      <trkpt lat="41.41871" lon="2.18075">
        <ele>59.8</ele>
        <time>2021-11-13 07:51:55</time>
      </trkpt>
      <trkpt lat="41.41879" lon="2.18077">
        <ele>59.6</ele>
        <time>2021-11-13 07:51:56</time>
      </trkpt>
      <trkpt lat="41.41887" lon="2.18078">
        <ele>59.6</ele>
        <time>2021-11-13 07:51:57</time>
      </trkpt>
      <trkpt lat="41.41894" lon="2.1808">
        <ele>59.6</ele>
        <time>2021-11-13 07:51:58</time>
      </trkpt>
      <trkpt lat="41.41902" lon="2.18082">
        <ele>59.6</ele>
        <time>2021-11-13 07:51:59</time>
      </trkpt>
      <trkpt lat="41.4191" lon="2.18085">
        <ele>59.6</ele>
        <time>2021-11-13 07:52:00</time>
      </trkpt>
      <trkpt lat="41.4191" lon="2.18085">
        <ele>59.4</ele>
        <time>2021-11-13 07:52:01</time>
      </trkpt>
      <trkpt lat="41.41925" lon="2.18088">
        <ele>59.4</ele>
        <time>2021-11-13 07:52:06</time>
      </trkpt>
      <trkpt lat="41.41933" lon="2.18091">
        <ele>59.4</ele>
        <time>2021-11-13 07:52:07</time>
      </trkpt>
      <trkpt lat="41.4194" lon="2.18095">
        <ele>59.4</ele>
        <time>2021-11-13 07:52:08</time>
      </trkpt>
      <trkpt lat="41.41946" lon="2.18102">
        <ele>59</ele>
        <time>2021-11-13 07:52:09</time>
      </trkpt>
      <trkpt lat="41.41953" lon="2.18109">
        <ele>59</ele>
        <time>2021-11-13 07:52:10</time>
      </trkpt>
      <trkpt lat="41.41959" lon="2.18116">
        <ele>58.8</ele>
        <time>2021-11-13 07:52:11</time>
      </trkpt>
      <trkpt lat="41.41965" lon="2.18125">
        <ele>58.8</ele>
        <time>2021-11-13 07:52:12</time>
      </trkpt>
      <trkpt lat="41.41971" lon="2.18133">
        <ele>58.8</ele>
        <time>2021-11-13 07:52:13</time>
      </trkpt>
      <trkpt lat="41.41977" lon="2.18141">
        <ele>58.6</ele>
        <time>2021-11-13 07:52:14</time>
      </trkpt>
      <trkpt lat="41.41983" lon="2.18148">
        <ele>58.6</ele>
        <time>2021-11-13 07:52:15</time>
      </trkpt>
      <trkpt lat="41.41988" lon="2.18157">
        <ele>58.4</ele>
        <time>2021-11-13 07:52:16</time>
      </trkpt>
      <trkpt lat="41.41994" lon="2.18166">
        <ele>58.2</ele>
        <time>2021-11-13 07:52:17</time>
      </trkpt>
      <trkpt lat="41.42" lon="2.18175">
        <ele>58</ele>
        <time>2021-11-13 07:52:18</time>
      </trkpt>
      <trkpt lat="41.42007" lon="2.18184">
        <ele>57.6</ele>
        <time>2021-11-13 07:52:19</time>
      </trkpt>
      <trkpt lat="41.42013" lon="2.18192">
        <ele>57.4</ele>
        <time>2021-11-13 07:52:20</time>
      </trkpt>
      <trkpt lat="41.42019" lon="2.182">
        <ele>57.2</ele>
        <time>2021-11-13 07:52:21</time>
      </trkpt>
      <trkpt lat="41.42024" lon="2.18208">
        <ele>57</ele>
        <time>2021-11-13 07:52:22</time>
      </trkpt>
      <trkpt lat="41.42029" lon="2.18214">
        <ele>56.8</ele>
        <time>2021-11-13 07:52:23</time>
      </trkpt>
      <trkpt lat="41.42034" lon="2.18218">
        <ele>56.6</ele>
        <time>2021-11-13 07:52:24</time>
      </trkpt>
      <trkpt lat="41.42037" lon="2.18223">
        <ele>56.4</ele>
        <time>2021-11-13 07:52:25</time>
      </trkpt>
      <trkpt lat="41.42041" lon="2.18227">
        <ele>56</ele>
        <time>2021-11-13 07:52:26</time>
      </trkpt>
      <trkpt lat="41.42045" lon="2.18232">
        <ele>56</ele>
        <time>2021-11-13 07:52:27</time>
      </trkpt>
      <trkpt lat="41.4205" lon="2.18238">
        <ele>55.8</ele>
        <time>2021-11-13 07:52:28</time>
      </trkpt>
      <trkpt lat="41.42056" lon="2.18246">
        <ele>55.8</ele>
        <time>2021-11-13 07:52:29</time>
      </trkpt>
      <trkpt lat="41.42056" lon="2.18246">
        <ele>55.6</ele>
        <time>2021-11-13 07:52:30</time>
      </trkpt>
      <trkpt lat="41.42067" lon="2.18263">
        <ele>55.4</ele>
        <time>2021-11-13 07:52:31</time>
      </trkpt>
      <trkpt lat="41.42073" lon="2.18272">
        <ele>55</ele>
        <time>2021-11-13 07:52:32</time>
      </trkpt>
      <trkpt lat="41.42078" lon="2.1828">
        <ele>55</ele>
        <time>2021-11-13 07:52:33</time>
      </trkpt>
      <trkpt lat="41.42083" lon="2.18288">
        <ele>54.4</ele>
        <time>2021-11-13 07:52:34</time>
      </trkpt>
      <trkpt lat="41.42089" lon="2.18297">
        <ele>53.6</ele>
        <time>2021-11-13 07:52:35</time>
      </trkpt>
      <trkpt lat="41.42095" lon="2.18306">
        <ele>53.4</ele>
        <time>2021-11-13 07:52:36</time>
      </trkpt>
      <trkpt lat="41.42101" lon="2.18314">
        <ele>53</ele>
        <time>2021-11-13 07:52:37</time>
      </trkpt>
      <trkpt lat="41.42107" lon="2.18323">
        <ele>53</ele>
        <time>2021-11-13 07:52:38</time>
      </trkpt>
      <trkpt lat="41.42114" lon="2.18331">
        <ele>52.8</ele>
        <time>2021-11-13 07:52:39</time>
      </trkpt>
      <trkpt lat="41.4212" lon="2.1834">
        <ele>52.8</ele>
        <time>2021-11-13 07:52:40</time>
      </trkpt>
      <trkpt lat="41.42127" lon="2.18349">
        <ele>52.6</ele>
        <time>2021-11-13 07:52:41</time>
      </trkpt>
      <trkpt lat="41.42134" lon="2.18358">
        <ele>52.4</ele>
        <time>2021-11-13 07:52:42</time>
      </trkpt>
      <trkpt lat="41.42141" lon="2.18367">
        <ele>52</ele>
        <time>2021-11-13 07:52:43</time>
      </trkpt>
      <trkpt lat="41.42147" lon="2.18376">
        <ele>51.8</ele>
        <time>2021-11-13 07:52:44</time>
      </trkpt>
      <trkpt lat="41.42154" lon="2.18385">
        <ele>51.6</ele>
        <time>2021-11-13 07:52:45</time>
      </trkpt>
      <trkpt lat="41.4216" lon="2.18393">
        <ele>51.4</ele>
        <time>2021-11-13 07:52:46</time>
      </trkpt>
      <trkpt lat="41.42167" lon="2.18401">
        <ele>51.4</ele>
        <time>2021-11-13 07:52:47</time>
      </trkpt>
      <trkpt lat="41.42173" lon="2.18409">
        <ele>51</ele>
        <time>2021-11-13 07:52:48</time>
      </trkpt>
      <trkpt lat="41.42179" lon="2.18417">
        <ele>50.8</ele>
        <time>2021-11-13 07:52:49</time>
      </trkpt>
      <trkpt lat="41.42184" lon="2.18425">
        <ele>50.4</ele>
        <time>2021-11-13 07:52:50</time>
      </trkpt>
      <trkpt lat="41.42189" lon="2.18433">
        <ele>50.2</ele>
        <time>2021-11-13 07:52:51</time>
      </trkpt>
      <trkpt lat="41.42195" lon="2.1844">
        <ele>50.2</ele>
        <time>2021-11-13 07:52:52</time>
      </trkpt>
      <trkpt lat="41.42201" lon="2.18448">
        <ele>50</ele>
        <time>2021-11-13 07:52:53</time>
      </trkpt>
      <trkpt lat="41.42206" lon="2.18454">
        <ele>49.8</ele>
        <time>2021-11-13 07:52:54</time>
      </trkpt>
      <trkpt lat="41.42211" lon="2.18459">
        <ele>49.8</ele>
        <time>2021-11-13 07:52:55</time>
      </trkpt>
      <trkpt lat="41.42216" lon="2.18465">
        <ele>49.6</ele>
        <time>2021-11-13 07:52:56</time>
      </trkpt>
      <trkpt lat="41.42222" lon="2.18469">
        <ele>49.4</ele>
        <time>2021-11-13 07:52:57</time>
      </trkpt>
      <trkpt lat="41.42228" lon="2.18473">
        <ele>49.4</ele>
        <time>2021-11-13 07:52:58</time>
      </trkpt>
      <trkpt lat="41.42233" lon="2.18478">
        <ele>49</ele>
        <time>2021-11-13 07:52:59</time>
      </trkpt>
      <trkpt lat="41.42238" lon="2.18484">
        <ele>48.8</ele>
        <time>2021-11-13 07:53:00</time>
      </trkpt>
      <trkpt lat="41.42243" lon="2.18489">
        <ele>48.8</ele>
        <time>2021-11-13 07:53:01</time>
      </trkpt>
      <trkpt lat="41.42248" lon="2.18495">
        <ele>48.6</ele>
        <time>2021-11-13 07:53:02</time>
      </trkpt>
      <trkpt lat="41.42253" lon="2.18502">
        <ele>48.6</ele>
        <time>2021-11-13 07:53:03</time>
      </trkpt>
      <trkpt lat="41.42258" lon="2.18508">
        <ele>48.4</ele>
        <time>2021-11-13 07:53:04</time>
      </trkpt>
      <trkpt lat="41.42264" lon="2.18515">
        <ele>48.4</ele>
        <time>2021-11-13 07:53:05</time>
      </trkpt>
      <trkpt lat="41.42269" lon="2.18522">
        <ele>48.2</ele>
        <time>2021-11-13 07:53:06</time>
      </trkpt>
      <trkpt lat="41.42274" lon="2.1853">
        <ele>48.2</ele>
        <time>2021-11-13 07:53:07</time>
      </trkpt>
      <trkpt lat="41.4228" lon="2.18537">
        <ele>48</ele>
        <time>2021-11-13 07:53:08</time>
      </trkpt>
      <trkpt lat="41.42286" lon="2.18544">
        <ele>47.8</ele>
        <time>2021-11-13 07:53:09</time>
      </trkpt>
      <trkpt lat="41.42291" lon="2.18551">
        <ele>47.6</ele>
        <time>2021-11-13 07:53:10</time>
      </trkpt>
      <trkpt lat="41.42297" lon="2.18556">
        <ele>47.4</ele>
        <time>2021-11-13 07:53:11</time>
      </trkpt>
      <trkpt lat="41.42305" lon="2.18559">
        <ele>47.2</ele>
        <time>2021-11-13 07:53:12</time>
      </trkpt>
      <trkpt lat="41.42313" lon="2.18561">
        <ele>46.8</ele>
        <time>2021-11-13 07:53:13</time>
      </trkpt>
      <trkpt lat="41.42321" lon="2.18563">
        <ele>46.8</ele>
        <time>2021-11-13 07:53:14</time>
      </trkpt>
      <trkpt lat="41.42329" lon="2.18564">
        <ele>46.6</ele>
        <time>2021-11-13 07:53:15</time>
      </trkpt>
      <trkpt lat="41.42336" lon="2.18566">
        <ele>46.6</ele>
        <time>2021-11-13 07:53:16</time>
      </trkpt>
      <trkpt lat="41.42344" lon="2.18568">
        <ele>46.6</ele>
        <time>2021-11-13 07:53:17</time>
      </trkpt>
      <trkpt lat="41.42352" lon="2.1857">
        <ele>46.4</ele>
        <time>2021-11-13 07:53:18</time>
      </trkpt>
      <trkpt lat="41.4236" lon="2.18573">
        <ele>46.4</ele>
        <time>2021-11-13 07:53:19</time>
      </trkpt>
      <trkpt lat="41.42368" lon="2.18575">
        <ele>46.2</ele>
        <time>2021-11-13 07:53:20</time>
      </trkpt>
      <trkpt lat="41.42377" lon="2.18577">
        <ele>46.2</ele>
        <time>2021-11-13 07:53:21</time>
      </trkpt>
      <trkpt lat="41.42385" lon="2.18579">
        <ele>46.2</ele>
        <time>2021-11-13 07:53:22</time>
      </trkpt>
      <trkpt lat="41.42393" lon="2.1858">
        <ele>46.2</ele>
        <time>2021-11-13 07:53:23</time>
      </trkpt>
      <trkpt lat="41.42402" lon="2.18582">
        <ele>46.2</ele>
        <time>2021-11-13 07:53:24</time>
      </trkpt>
      <trkpt lat="41.4241" lon="2.18584">
        <ele>46.2</ele>
        <time>2021-11-13 07:53:25</time>
      </trkpt>
      <trkpt lat="41.4241" lon="2.18584">
        <ele>46.2</ele>
        <time>2021-11-13 07:53:26</time>
      </trkpt>
      <trkpt lat="41.42426" lon="2.18588">
        <ele>46.2</ele>
        <time>2021-11-13 07:53:27</time>
      </trkpt>
      <trkpt lat="41.42434" lon="2.1859">
        <ele>46.2</ele>
        <time>2021-11-13 07:53:28</time>
      </trkpt>
      <trkpt lat="41.42441" lon="2.18592">
        <ele>46.2</ele>
        <time>2021-11-13 07:53:29</time>
      </trkpt>
      <trkpt lat="41.42447" lon="2.18595">
        <ele>46.2</ele>
        <time>2021-11-13 07:53:30</time>
      </trkpt>
      <trkpt lat="41.42454" lon="2.18598">
        <ele>46.4</ele>
        <time>2021-11-13 07:53:31</time>
      </trkpt>
      <trkpt lat="41.42459" lon="2.18602">
        <ele>46.4</ele>
        <time>2021-11-13 07:53:32</time>
      </trkpt>
      <trkpt lat="41.42459" lon="2.18602">
        <ele>46.6</ele>
        <time>2021-11-13 07:53:33</time>
      </trkpt>
      <trkpt lat="41.42468" lon="2.18613">
        <ele>46.8</ele>
        <time>2021-11-13 07:53:34</time>
      </trkpt>
      <trkpt lat="41.42472" lon="2.1862">
        <ele>46.8</ele>
        <time>2021-11-13 07:53:35</time>
      </trkpt>
      <trkpt lat="41.42475" lon="2.18626">
        <ele>47</ele>
        <time>2021-11-13 07:53:36</time>
      </trkpt>
      <trkpt lat="41.42478" lon="2.18633">
        <ele>47.2</ele>
        <time>2021-11-13 07:53:37</time>
      </trkpt>
      <trkpt lat="41.42481" lon="2.18639">
        <ele>47.4</ele>
        <time>2021-11-13 07:53:38</time>
      </trkpt>
      <trkpt lat="41.42484" lon="2.18646">
        <ele>47.6</ele>
        <time>2021-11-13 07:53:39</time>
      </trkpt>
      <trkpt lat="41.42484" lon="2.18646">
        <ele>47.6</ele>
        <time>2021-11-13 07:53:40</time>
      </trkpt>
      <trkpt lat="41.42495" lon="2.18656">
        <ele>47.8</ele>
        <time>2021-11-13 07:53:41</time>
      </trkpt>
      <trkpt lat="41.42501" lon="2.18657">
        <ele>47.8</ele>
        <time>2021-11-13 07:53:42</time>
      </trkpt>
      <trkpt lat="41.42507" lon="2.18657">
        <ele>48</ele>
        <time>2021-11-13 07:53:43</time>
      </trkpt>
      <trkpt lat="41.42512" lon="2.18655">
        <ele>48</ele>
        <time>2021-11-13 07:53:44</time>
      </trkpt>
      <trkpt lat="41.42517" lon="2.18653">
        <ele>48</ele>
        <time>2021-11-13 07:53:45</time>
      </trkpt>
      <trkpt lat="41.42522" lon="2.1865">
        <ele>48.2</ele>
        <time>2021-11-13 07:53:46</time>
      </trkpt>
      <trkpt lat="41.42527" lon="2.18647">
        <ele>48.2</ele>
        <time>2021-11-13 07:53:47</time>
      </trkpt>
      <trkpt lat="41.42531" lon="2.18645">
        <ele>48.2</ele>
        <time>2021-11-13 07:53:48</time>
      </trkpt>
      <trkpt lat="41.42535" lon="2.18642">
        <ele>48.2</ele>
        <time>2021-11-13 07:53:49</time>
      </trkpt>
      <trkpt lat="41.42539" lon="2.1864">
        <ele>48.4</ele>
        <time>2021-11-13 07:53:50</time>
      </trkpt>
      <trkpt lat="41.42543" lon="2.18638">
        <ele>48.4</ele>
        <time>2021-11-13 07:53:51</time>
      </trkpt>
      <trkpt lat="41.42545" lon="2.18637">
        <ele>48.4</ele>
        <time>2021-11-13 07:53:52</time>
      </trkpt>
      <trkpt lat="41.42547" lon="2.18636">
        <ele>48.6</ele>
        <time>2021-11-13 07:53:53</time>
      </trkpt>
      <trkpt lat="41.42549" lon="2.18635">
        <ele>48.6</ele>
        <time>2021-11-13 07:53:54</time>
      </trkpt>
      <trkpt lat="41.42549" lon="2.18634">
        <ele>48.6</ele>
        <time>2021-11-13 07:53:55</time>
      </trkpt>
      <trkpt lat="41.42549" lon="2.18634">
        <ele>48.6</ele>
        <time>2021-11-13 07:53:56</time>
      </trkpt>
      <trkpt lat="41.42549" lon="2.18634">
        <ele>48.6</ele>
        <time>2021-11-13 07:53:57</time>
      </trkpt>
      <trkpt lat="41.42553" lon="2.18633">
        <ele>49</ele>
        <time>2021-11-13 07:53:58</time>
      </trkpt>
      <trkpt lat="41.42556" lon="2.18631">
        <ele>48.8</ele>
        <time>2021-11-13 07:53:59</time>
      </trkpt>
      <trkpt lat="41.4256" lon="2.18629">
        <ele>48.6</ele>
        <time>2021-11-13 07:54:00</time>
      </trkpt>
      <trkpt lat="41.42565" lon="2.18627">
        <ele>48.8</ele>
        <time>2021-11-13 07:54:01</time>
      </trkpt>
      <trkpt lat="41.42576" lon="2.18621">
        <ele>48.8</ele>
        <time>2021-11-13 07:54:02</time>
      </trkpt>
      <trkpt lat="41.42576" lon="2.18621">
        <ele>48.6</ele>
        <time>2021-11-13 07:54:03</time>
      </trkpt>
      <trkpt lat="41.42583" lon="2.18616">
        <ele>48.6</ele>
        <time>2021-11-13 07:54:04</time>
      </trkpt>
      <trkpt lat="41.42589" lon="2.18611">
        <ele>48.6</ele>
        <time>2021-11-13 07:54:05</time>
      </trkpt>
      <trkpt lat="41.42597" lon="2.18607">
        <ele>48.6</ele>
        <time>2021-11-13 07:54:06</time>
      </trkpt>
      <trkpt lat="41.42612" lon="2.18597">
        <ele>48.4</ele>
        <time>2021-11-13 07:54:21</time>
      </trkpt>
      <trkpt lat="41.42612" lon="2.18597">
        <ele>48.4</ele>
        <time>2021-11-13 07:54:22</time>
      </trkpt>
      <trkpt lat="41.42626" lon="2.18588">
        <ele>48.4</ele>
        <time>2021-11-13 07:54:23</time>
      </trkpt>
      <trkpt lat="41.42634" lon="2.18583">
        <ele>48.4</ele>
        <time>2021-11-13 07:54:24</time>
      </trkpt>
      <trkpt lat="41.42641" lon="2.18577">
        <ele>48.4</ele>
        <time>2021-11-13 07:54:25</time>
      </trkpt>
      <trkpt lat="41.42649" lon="2.18572">
        <ele>48.4</ele>
        <time>2021-11-13 07:54:26</time>
      </trkpt>
      <trkpt lat="41.42657" lon="2.18567">
        <ele>48.4</ele>
        <time>2021-11-13 07:54:27</time>
      </trkpt>
      <trkpt lat="41.42664" lon="2.18561">
        <ele>48.4</ele>
        <time>2021-11-13 07:54:28</time>
      </trkpt>
      <trkpt lat="41.42671" lon="2.18556">
        <ele>48.6</ele>
        <time>2021-11-13 07:54:29</time>
      </trkpt>
      <trkpt lat="41.42678" lon="2.18551">
        <ele>48.8</ele>
        <time>2021-11-13 07:54:30</time>
      </trkpt>
      <trkpt lat="41.42678" lon="2.18551">
        <ele>48.8</ele>
        <time>2021-11-13 07:54:31</time>
      </trkpt>
      <trkpt lat="41.42692" lon="2.18541">
        <ele>49</ele>
        <time>2021-11-13 07:54:32</time>
      </trkpt>
      <trkpt lat="41.42699" lon="2.18535">
        <ele>49.4</ele>
        <time>2021-11-13 07:54:33</time>
      </trkpt>
      <trkpt lat="41.42706" lon="2.18531">
        <ele>49.4</ele>
        <time>2021-11-13 07:54:34</time>
      </trkpt>
      <trkpt lat="41.42713" lon="2.18526">
        <ele>49.6</ele>
        <time>2021-11-13 07:54:35</time>
      </trkpt>
      <trkpt lat="41.42719" lon="2.18521">
        <ele>49.8</ele>
        <time>2021-11-13 07:54:36</time>
      </trkpt>
      <trkpt lat="41.42726" lon="2.18516">
        <ele>50</ele>
        <time>2021-11-13 07:54:37</time>
      </trkpt>
      <trkpt lat="41.42732" lon="2.18511">
        <ele>50</ele>
        <time>2021-11-13 07:54:38</time>
      </trkpt>
      <trkpt lat="41.42739" lon="2.18507">
        <ele>50.4</ele>
        <time>2021-11-13 07:54:39</time>
      </trkpt>
      <trkpt lat="41.42746" lon="2.18502">
        <ele>50.6</ele>
        <time>2021-11-13 07:54:40</time>
      </trkpt>
      <trkpt lat="41.42752" lon="2.18497">
        <ele>50.6</ele>
        <time>2021-11-13 07:54:41</time>
      </trkpt>
      <trkpt lat="41.42759" lon="2.18493">
        <ele>50.8</ele>
        <time>2021-11-13 07:54:42</time>
      </trkpt>
      <trkpt lat="41.42766" lon="2.18488">
        <ele>50.8</ele>
        <time>2021-11-13 07:54:43</time>
      </trkpt>
      <trkpt lat="41.42773" lon="2.18484">
        <ele>50.8</ele>
        <time>2021-11-13 07:54:44</time>
      </trkpt>
      <trkpt lat="41.42773" lon="2.18484">
        <ele>50.8</ele>
        <time>2021-11-13 07:54:45</time>
      </trkpt>
      <trkpt lat="41.42787" lon="2.18475">
        <ele>50.8</ele>
        <time>2021-11-13 07:54:46</time>
      </trkpt>
      <trkpt lat="41.42794" lon="2.1847">
        <ele>51</ele>
        <time>2021-11-13 07:54:47</time>
      </trkpt>
      <trkpt lat="41.42801" lon="2.18466">
        <ele>51.2</ele>
        <time>2021-11-13 07:54:48</time>
      </trkpt>
      <trkpt lat="41.42801" lon="2.18466">
        <ele>51.2</ele>
        <time>2021-11-13 07:54:49</time>
      </trkpt>
      <trkpt lat="41.42813" lon="2.18458">
        <ele>51.2</ele>
        <time>2021-11-13 07:54:50</time>
      </trkpt>
      <trkpt lat="41.42819" lon="2.18454">
        <ele>51.2</ele>
        <time>2021-11-13 07:54:51</time>
      </trkpt>
      <trkpt lat="41.42825" lon="2.1845">
        <ele>51.2</ele>
        <time>2021-11-13 07:54:52</time>
      </trkpt>
      <trkpt lat="41.4283" lon="2.18447">
        <ele>51.4</ele>
        <time>2021-11-13 07:54:53</time>
      </trkpt>
      <trkpt lat="41.4283" lon="2.18447">
        <ele>51.4</ele>
        <time>2021-11-13 07:54:54</time>
      </trkpt>
      <trkpt lat="41.42833" lon="2.18444">
        <ele>51.4</ele>
        <time>2021-11-13 07:54:55</time>
      </trkpt>
      <trkpt lat="41.42836" lon="2.18442">
        <ele>51.4</ele>
        <time>2021-11-13 07:54:56</time>
      </trkpt>
      <trkpt lat="41.4284" lon="2.1844">
        <ele>51.4</ele>
        <time>2021-11-13 07:54:57</time>
      </trkpt>
      <trkpt lat="41.42841" lon="2.18439">
        <ele>51.8</ele>
        <time>2021-11-13 07:54:58</time>
      </trkpt>
      <trkpt lat="41.42841" lon="2.18439">
        <ele>51.8</ele>
        <time>2021-11-13 07:54:59</time>
      </trkpt>
      <trkpt lat="41.42841" lon="2.18439">
        <ele>51.8</ele>
        <time>2021-11-13 07:55:00</time>
      </trkpt>
      <trkpt lat="41.42841" lon="2.18439">
        <ele>51.8</ele>
        <time>2021-11-13 07:55:01</time>
      </trkpt>
      <trkpt lat="41.42843" lon="2.18438">
        <ele>51.4</ele>
        <time>2021-11-13 07:55:02</time>
      </trkpt>
      <trkpt lat="41.42846" lon="2.18436">
        <ele>51.4</ele>
        <time>2021-11-13 07:55:03</time>
      </trkpt>
      <trkpt lat="41.4285" lon="2.18434">
        <ele>51.4</ele>
        <time>2021-11-13 07:55:04</time>
      </trkpt>
      <trkpt lat="41.42855" lon="2.18431">
        <ele>51.4</ele>
        <time>2021-11-13 07:55:05</time>
      </trkpt>
      <trkpt lat="41.4286" lon="2.18428">
        <ele>51.2</ele>
        <time>2021-11-13 07:55:06</time>
      </trkpt>
      <trkpt lat="41.4286" lon="2.18428">
        <ele>51.2</ele>
        <time>2021-11-13 07:55:07</time>
      </trkpt>
      <trkpt lat="41.42871" lon="2.18421">
        <ele>51.2</ele>
        <time>2021-11-13 07:55:08</time>
      </trkpt>
      <trkpt lat="41.42877" lon="2.18418">
        <ele>51.2</ele>
        <time>2021-11-13 07:55:09</time>
      </trkpt>
      <trkpt lat="41.42884" lon="2.18414">
        <ele>51.2</ele>
        <time>2021-11-13 07:55:10</time>
      </trkpt>
      <trkpt lat="41.4289" lon="2.1841">
        <ele>51.2</ele>
        <time>2021-11-13 07:55:56</time>
      </trkpt>
      <trkpt lat="41.42896" lon="2.18406">
        <ele>51.2</ele>
        <time>2021-11-13 07:55:57</time>
      </trkpt>
      <trkpt lat="41.42902" lon="2.18401">
        <ele>51.2</ele>
        <time>2021-11-13 07:55:58</time>
      </trkpt>
      <trkpt lat="41.42909" lon="2.18397">
        <ele>51.2</ele>
        <time>2021-11-13 07:55:59</time>
      </trkpt>
      <trkpt lat="41.42916" lon="2.18392">
        <ele>51.2</ele>
        <time>2021-11-13 07:56:00</time>
      </trkpt>
      <trkpt lat="41.42923" lon="2.18388">
        <ele>51.2</ele>
        <time>2021-11-13 07:56:01</time>
      </trkpt>
      <trkpt lat="41.42929" lon="2.18383">
        <ele>51.2</ele>
        <time>2021-11-13 07:56:02</time>
      </trkpt>
      <trkpt lat="41.42936" lon="2.18378">
        <ele>51.2</ele>
        <time>2021-11-13 07:56:03</time>
      </trkpt>
      <trkpt lat="41.42943" lon="2.18373">
        <ele>51.2</ele>
        <time>2021-11-13 07:56:04</time>
      </trkpt>
      <trkpt lat="41.4295" lon="2.18369">
        <ele>51.2</ele>
        <time>2021-11-13 07:56:05</time>
      </trkpt>
      <trkpt lat="41.42957" lon="2.18365">
        <ele>51.2</ele>
        <time>2021-11-13 07:56:06</time>
      </trkpt>
      <trkpt lat="41.42964" lon="2.18361">
        <ele>51.2</ele>
        <time>2021-11-13 07:56:07</time>
      </trkpt>
      <trkpt lat="41.4297" lon="2.18356">
        <ele>51</ele>
        <time>2021-11-13 07:56:08</time>
      </trkpt>
      <trkpt lat="41.42977" lon="2.18351">
        <ele>51</ele>
        <time>2021-11-13 07:56:09</time>
      </trkpt>
      <trkpt lat="41.42984" lon="2.18346">
        <ele>51</ele>
        <time>2021-11-13 07:56:10</time>
      </trkpt>
      <trkpt lat="41.4299" lon="2.18342">
        <ele>51</ele>
        <time>2021-11-13 07:56:11</time>
      </trkpt>
      <trkpt lat="41.42997" lon="2.18338">
        <ele>51</ele>
        <time>2021-11-13 07:56:12</time>
      </trkpt>
      <trkpt lat="41.43004" lon="2.18333">
        <ele>51</ele>
        <time>2021-11-13 07:56:13</time>
      </trkpt>
      <trkpt lat="41.4301" lon="2.18329">
        <ele>51</ele>
        <time>2021-11-13 07:56:14</time>
      </trkpt>
      <trkpt lat="41.43016" lon="2.18324">
        <ele>51</ele>
        <time>2021-11-13 07:56:15</time>
      </trkpt>
      <trkpt lat="41.43022" lon="2.1832">
        <ele>51</ele>
        <time>2021-11-13 07:56:16</time>
      </trkpt>
      <trkpt lat="41.43028" lon="2.18316">
        <ele>51</ele>
        <time>2021-11-13 07:56:17</time>
      </trkpt>
      <trkpt lat="41.43032" lon="2.18314">
        <ele>51</ele>
        <time>2021-11-13 07:56:18</time>
      </trkpt>
      <trkpt lat="41.43036" lon="2.18314">
        <ele>51</ele>
        <time>2021-11-13 07:56:19</time>
      </trkpt>
      <trkpt lat="41.4304" lon="2.18315">
        <ele>51.2</ele>
        <time>2021-11-13 07:56:20</time>
      </trkpt>
      <trkpt lat="41.43044" lon="2.18316">
        <ele>51.2</ele>
        <time>2021-11-13 07:56:21</time>
      </trkpt>
      <trkpt lat="41.43048" lon="2.18318">
        <ele>51.4</ele>
        <time>2021-11-13 07:56:22</time>
      </trkpt>
      <trkpt lat="41.43051" lon="2.18319">
        <ele>51.4</ele>
        <time>2021-11-13 07:56:23</time>
      </trkpt>
      <trkpt lat="41.43055" lon="2.18321">
        <ele>51.4</ele>
        <time>2021-11-13 07:56:24</time>
      </trkpt>
      <trkpt lat="41.43058" lon="2.18323">
        <ele>51.4</ele>
        <time>2021-11-13 07:56:25</time>
      </trkpt>
      <trkpt lat="41.43061" lon="2.18324">
        <ele>51.6</ele>
        <time>2021-11-13 07:56:26</time>
      </trkpt>
      <trkpt lat="41.43062" lon="2.18325">
        <ele>51.6</ele>
        <time>2021-11-13 07:56:27</time>
      </trkpt>
      <trkpt lat="41.43062" lon="2.18326">
        <ele>51.6</ele>
        <time>2021-11-13 07:56:28</time>
      </trkpt>
      <trkpt lat="41.43062" lon="2.18326">
        <ele>51.6</ele>
        <time>2021-11-13 07:56:29</time>
      </trkpt>
      <trkpt lat="41.43062" lon="2.18326">
        <ele>51.6</ele>
        <time>2021-11-13 07:56:30</time>
      </trkpt>
      <trkpt lat="41.43062" lon="2.18326">
        <ele>51.6</ele>
        <time>2021-11-13 07:56:31</time>
      </trkpt>
      <trkpt lat="41.43063" lon="2.18324">
        <ele>50</ele>
        <time>2021-11-13 07:56:32</time>
      </trkpt>
      <trkpt lat="41.43064" lon="2.18323">
        <ele>50</ele>
        <time>2021-11-13 07:56:33</time>
      </trkpt>
      <trkpt lat="41.43066" lon="2.18321">
        <ele>50</ele>
        <time>2021-11-13 07:56:34</time>
      </trkpt>
      <trkpt lat="41.43069" lon="2.18317">
        <ele>50</ele>
        <time>2021-11-13 07:56:35</time>
      </trkpt>
      <trkpt lat="41.43072" lon="2.18313">
        <ele>50</ele>
        <time>2021-11-13 07:56:36</time>
      </trkpt>
      <trkpt lat="41.43074" lon="2.18308">
        <ele>50</ele>
        <time>2021-11-13 07:56:37</time>
      </trkpt>
      <trkpt lat="41.43076" lon="2.18304">
        <ele>50</ele>
        <time>2021-11-13 07:56:38</time>
      </trkpt>
      <trkpt lat="41.43077" lon="2.183">
        <ele>50</ele>
        <time>2021-11-13 07:56:39</time>
      </trkpt>
      <trkpt lat="41.43079" lon="2.18296">
        <ele>50</ele>
        <time>2021-11-13 07:56:40</time>
      </trkpt>
      <trkpt lat="41.4308" lon="2.18293">
        <ele>50</ele>
        <time>2021-11-13 08:04:49</time>
      </trkpt>
      <trkpt lat="41.43082" lon="2.18291">
        <ele>50.4</ele>
        <time>2021-11-13 08:04:50</time>
      </trkpt>
      <trkpt lat="41.43084" lon="2.18289">
        <ele>50.4</ele>
        <time>2021-11-13 08:04:51</time>
      </trkpt>
      <trkpt lat="41.43085" lon="2.18288">
        <ele>50.4</ele>
        <time>2021-11-13 08:04:52</time>
      </trkpt>
      <trkpt lat="41.43086" lon="2.18288">
        <ele>50.4</ele>
        <time>2021-11-13 08:04:53</time>
      </trkpt>
      <trkpt lat="41.43086" lon="2.18288">
        <ele>50.6</ele>
        <time>2021-11-13 08:04:54</time>
      </trkpt>
      <trkpt lat="41.43095" lon="2.18282">
        <ele>51.2</ele>
        <time>2021-11-13 08:04:55</time>
      </trkpt>
      <trkpt lat="41.43097" lon="2.18281">
        <ele>51.2</ele>
        <time>2021-11-13 08:04:56</time>
      </trkpt>
      <trkpt lat="41.43099" lon="2.18281">
        <ele>51.2</ele>
        <time>2021-11-13 08:04:57</time>
      </trkpt>
      <trkpt lat="41.43103" lon="2.1828">
        <ele>51.2</ele>
        <time>2021-11-13 08:04:58</time>
      </trkpt>
      <trkpt lat="41.43107" lon="2.1828">
        <ele>51.2</ele>
        <time>2021-11-13 08:04:59</time>
      </trkpt>
      <trkpt lat="41.43112" lon="2.18278">
        <ele>51.2</ele>
        <time>2021-11-13 08:05:00</time>
      </trkpt>
      <trkpt lat="41.43117" lon="2.18278">
        <ele>51.2</ele>
        <time>2021-11-13 08:05:01</time>
      </trkpt>
      <trkpt lat="41.43122" lon="2.18278">
        <ele>51.2</ele>
        <time>2021-11-13 08:05:02</time>
      </trkpt>
      <trkpt lat="41.43126" lon="2.18278">
        <ele>51.2</ele>
        <time>2021-11-13 08:05:03</time>
      </trkpt>
      <trkpt lat="41.43131" lon="2.18278">
        <ele>51.2</ele>
        <time>2021-11-13 08:05:18</time>
      </trkpt>
      <trkpt lat="41.43135" lon="2.18279">
        <ele>51.2</ele>
        <time>2021-11-13 08:05:19</time>
      </trkpt>
      <trkpt lat="41.43141" lon="2.18279">
        <ele>51.2</ele>
        <time>2021-11-13 08:05:20</time>
      </trkpt>
      <trkpt lat="41.43146" lon="2.1828">
        <ele>51.2</ele>
        <time>2021-11-13 08:05:21</time>
      </trkpt>
      <trkpt lat="41.4315" lon="2.18281">
        <ele>51.2</ele>
        <time>2021-11-13 08:05:22</time>
      </trkpt>
      <trkpt lat="41.43155" lon="2.18282">
        <ele>51.2</ele>
        <time>2021-11-13 08:05:23</time>
      </trkpt>
      <trkpt lat="41.4316" lon="2.18283">
        <ele>51.2</ele>
        <time>2021-11-13 08:05:24</time>
      </trkpt>
      <trkpt lat="41.43164" lon="2.18284">
        <ele>51.2</ele>
        <time>2021-11-13 08:05:25</time>
      </trkpt>
      <trkpt lat="41.43171" lon="2.18286">
        <ele>51.2</ele>
        <time>2021-11-13 08:05:26</time>
      </trkpt>
      <trkpt lat="41.43176" lon="2.18288">
        <ele>51.2</ele>
        <time>2021-11-13 08:05:27</time>
      </trkpt>
      <trkpt lat="41.43181" lon="2.1829">
        <ele>51.2</ele>
        <time>2021-11-13 08:05:28</time>
      </trkpt>
      <trkpt lat="41.43187" lon="2.18292">
        <ele>51.2</ele>
        <time>2021-11-13 08:05:29</time>
      </trkpt>
      <trkpt lat="41.43192" lon="2.18294">
        <ele>51.2</ele>
        <time>2021-11-13 08:05:30</time>
      </trkpt>
      <trkpt lat="41.43198" lon="2.18296">
        <ele>51.2</ele>
        <time>2021-11-13 08:05:31</time>
      </trkpt>
      <trkpt lat="41.43204" lon="2.18298">
        <ele>51.4</ele>
        <time>2021-11-13 08:05:32</time>
      </trkpt>
      <trkpt lat="41.4321" lon="2.183">
        <ele>51.4</ele>
        <time>2021-11-13 08:05:33</time>
      </trkpt>
      <trkpt lat="41.43215" lon="2.18302">
        <ele>51.4</ele>
        <time>2021-11-13 08:05:34</time>
      </trkpt>
      <trkpt lat="41.43221" lon="2.18304">
        <ele>51.6</ele>
        <time>2021-11-13 08:05:35</time>
      </trkpt>
      <trkpt lat="41.43227" lon="2.18306">
        <ele>51.6</ele>
        <time>2021-11-13 08:05:36</time>
      </trkpt>
      <trkpt lat="41.43233" lon="2.18308">
        <ele>51.6</ele>
        <time>2021-11-13 08:05:37</time>
      </trkpt>
      <trkpt lat="41.43237" lon="2.1831">
        <ele>51.8</ele>
        <time>2021-11-13 08:05:38</time>
      </trkpt>
      <trkpt lat="41.43243" lon="2.18312">
        <ele>51.8</ele>
        <time>2021-11-13 08:05:39</time>
      </trkpt>
      <trkpt lat="41.43249" lon="2.18315">
        <ele>51.8</ele>
        <time>2021-11-13 08:05:40</time>
      </trkpt>
      <trkpt lat="41.43255" lon="2.18317">
        <ele>51.8</ele>
        <time>2021-11-13 08:05:41</time>
      </trkpt>
      <trkpt lat="41.43261" lon="2.18319">
        <ele>52</ele>
        <time>2021-11-13 08:05:42</time>
      </trkpt>
      <trkpt lat="41.43268" lon="2.18321">
        <ele>52</ele>
        <time>2021-11-13 08:05:43</time>
      </trkpt>
      <trkpt lat="41.43274" lon="2.18324">
        <ele>52</ele>
        <time>2021-11-13 08:05:44</time>
      </trkpt>
      <trkpt lat="41.4328" lon="2.18326">
        <ele>52</ele>
        <time>2021-11-13 08:05:45</time>
      </trkpt>
      <trkpt lat="41.43287" lon="2.18328">
        <ele>52</ele>
        <time>2021-11-13 08:05:46</time>
      </trkpt>
      <trkpt lat="41.43293" lon="2.1833">
        <ele>52</ele>
        <time>2021-11-13 08:05:47</time>
      </trkpt>
      <trkpt lat="41.433" lon="2.18333">
        <ele>52.2</ele>
        <time>2021-11-13 08:05:48</time>
      </trkpt>
      <trkpt lat="41.43307" lon="2.18335">
        <ele>52.4</ele>
        <time>2021-11-13 08:05:49</time>
      </trkpt>
      <trkpt lat="41.43313" lon="2.18337">
        <ele>52.4</ele>
        <time>2021-11-13 08:05:50</time>
      </trkpt>
      <trkpt lat="41.4332" lon="2.1834">
        <ele>52.4</ele>
        <time>2021-11-13 08:05:51</time>
      </trkpt>
      <trkpt lat="41.43326" lon="2.18342">
        <ele>52.4</ele>
        <time>2021-11-13 08:05:52</time>
      </trkpt>
      <trkpt lat="41.43333" lon="2.18344">
        <ele>52.4</ele>
        <time>2021-11-13 08:05:53</time>
      </trkpt>
      <trkpt lat="41.43339" lon="2.18346">
        <ele>52.4</ele>
        <time>2021-11-13 08:05:54</time>
      </trkpt>
      <trkpt lat="41.43346" lon="2.18349">
        <ele>52.4</ele>
        <time>2021-11-13 08:05:55</time>
      </trkpt>
      <trkpt lat="41.43351" lon="2.1835">
        <ele>52.4</ele>
        <time>2021-11-13 08:05:56</time>
      </trkpt>
      <trkpt lat="41.43358" lon="2.18353">
        <ele>52.4</ele>
        <time>2021-11-13 08:05:57</time>
      </trkpt>
      <trkpt lat="41.43365" lon="2.18355">
        <ele>52.4</ele>
        <time>2021-11-13 08:05:58</time>
      </trkpt>
      <trkpt lat="41.43372" lon="2.18358">
        <ele>52.4</ele>
        <time>2021-11-13 08:05:59</time>
      </trkpt>
      <trkpt lat="41.43378" lon="2.1836">
        <ele>52.4</ele>
        <time>2021-11-13 08:06:00</time>
      </trkpt>
      <trkpt lat="41.43385" lon="2.18362">
        <ele>52.4</ele>
        <time>2021-11-13 08:06:01</time>
      </trkpt>
      <trkpt lat="41.43392" lon="2.18364">
        <ele>52.6</ele>
        <time>2021-11-13 08:06:02</time>
      </trkpt>
      <trkpt lat="41.43398" lon="2.18366">
        <ele>52.4</ele>
        <time>2021-11-13 08:06:03</time>
      </trkpt>
      <trkpt lat="41.43404" lon="2.18369">
        <ele>52.4</ele>
        <time>2021-11-13 08:06:04</time>
      </trkpt>
      <trkpt lat="41.43411" lon="2.18371">
        <ele>52.4</ele>
        <time>2021-11-13 08:06:05</time>
      </trkpt>
      <trkpt lat="41.43417" lon="2.18373">
        <ele>52.6</ele>
        <time>2021-11-13 08:06:06</time>
      </trkpt>
      <trkpt lat="41.43424" lon="2.18375">
        <ele>52.6</ele>
        <time>2021-11-13 08:06:07</time>
      </trkpt>
      <trkpt lat="41.43432" lon="2.18378">
        <ele>52.6</ele>
        <time>2021-11-13 08:06:08</time>
      </trkpt>
      <trkpt lat="41.43439" lon="2.1838">
        <ele>52.6</ele>
        <time>2021-11-13 08:06:09</time>
      </trkpt>
      <trkpt lat="41.43445" lon="2.18383">
        <ele>52.6</ele>
        <time>2021-11-13 08:06:10</time>
      </trkpt>
      <trkpt lat="41.43452" lon="2.18385">
        <ele>52.6</ele>
        <time>2021-11-13 08:06:11</time>
      </trkpt>
      <trkpt lat="41.43459" lon="2.18388">
        <ele>52.6</ele>
        <time>2021-11-13 08:06:12</time>
      </trkpt>
      <trkpt lat="41.43465" lon="2.1839">
        <ele>52.4</ele>
        <time>2021-11-13 08:06:13</time>
      </trkpt>
      <trkpt lat="41.43472" lon="2.18392">
        <ele>52.4</ele>
        <time>2021-11-13 08:06:14</time>
      </trkpt>
      <trkpt lat="41.43478" lon="2.18394">
        <ele>52.6</ele>
        <time>2021-11-13 08:06:15</time>
      </trkpt>
      <trkpt lat="41.43485" lon="2.18396">
        <ele>52.6</ele>
        <time>2021-11-13 08:06:16</time>
      </trkpt>
      <trkpt lat="41.43491" lon="2.18397">
        <ele>52.6</ele>
        <time>2021-11-13 08:06:17</time>
      </trkpt>
      <trkpt lat="41.43497" lon="2.184">
        <ele>52.6</ele>
        <time>2021-11-13 08:06:18</time>
      </trkpt>
      <trkpt lat="41.43504" lon="2.18402">
        <ele>52.6</ele>
        <time>2021-11-13 08:06:19</time>
      </trkpt>
      <trkpt lat="41.4351" lon="2.18404">
        <ele>52.6</ele>
        <time>2021-11-13 08:06:20</time>
      </trkpt>
      <trkpt lat="41.43517" lon="2.18406">
        <ele>52.6</ele>
        <time>2021-11-13 08:06:21</time>
      </trkpt>
      <trkpt lat="41.43524" lon="2.18408">
        <ele>52.6</ele>
        <time>2021-11-13 08:06:22</time>
      </trkpt>
      <trkpt lat="41.4353" lon="2.1841">
        <ele>52.6</ele>
        <time>2021-11-13 08:06:23</time>
      </trkpt>
      <trkpt lat="41.43537" lon="2.18413">
        <ele>52.6</ele>
        <time>2021-11-13 08:06:24</time>
      </trkpt>
      <trkpt lat="41.43543" lon="2.18415">
        <ele>52.6</ele>
        <time>2021-11-13 08:06:25</time>
      </trkpt>
      <trkpt lat="41.43549" lon="2.18417">
        <ele>52.6</ele>
        <time>2021-11-13 08:06:26</time>
      </trkpt>
      <trkpt lat="41.43556" lon="2.18419">
        <ele>52.6</ele>
        <time>2021-11-13 08:06:27</time>
      </trkpt>
      <trkpt lat="41.43562" lon="2.18422">
        <ele>52.8</ele>
        <time>2021-11-13 08:06:28</time>
      </trkpt>
      <trkpt lat="41.43569" lon="2.18423">
        <ele>52.8</ele>
        <time>2021-11-13 08:06:29</time>
      </trkpt>
      <trkpt lat="41.43575" lon="2.18425">
        <ele>52.8</ele>
        <time>2021-11-13 08:06:30</time>
      </trkpt>
      <trkpt lat="41.43582" lon="2.18427">
        <ele>52.8</ele>
        <time>2021-11-13 08:06:31</time>
      </trkpt>
      <trkpt lat="41.43588" lon="2.1843">
        <ele>52.8</ele>
        <time>2021-11-13 08:06:32</time>
      </trkpt>
      <trkpt lat="41.43593" lon="2.18432">
        <ele>53</ele>
        <time>2021-11-13 08:06:33</time>
      </trkpt>
      <trkpt lat="41.43601" lon="2.18434">
        <ele>53.2</ele>
        <time>2021-11-13 08:06:34</time>
      </trkpt>
      <trkpt lat="41.43606" lon="2.18436">
        <ele>53.2</ele>
        <time>2021-11-13 08:06:35</time>
      </trkpt>
      <trkpt lat="41.43612" lon="2.18438">
        <ele>53.2</ele>
        <time>2021-11-13 08:06:36</time>
      </trkpt>
      <trkpt lat="41.43618" lon="2.1844">
        <ele>53.2</ele>
        <time>2021-11-13 08:06:37</time>
      </trkpt>
      <trkpt lat="41.43624" lon="2.18442">
        <ele>53.2</ele>
        <time>2021-11-13 08:06:38</time>
      </trkpt>
      <trkpt lat="41.4363" lon="2.18445">
        <ele>53.4</ele>
        <time>2021-11-13 08:06:39</time>
      </trkpt>
      <trkpt lat="41.43637" lon="2.18447">
        <ele>53.4</ele>
        <time>2021-11-13 08:06:40</time>
      </trkpt>
      <trkpt lat="41.43643" lon="2.18449">
        <ele>53.4</ele>
        <time>2021-11-13 08:06:41</time>
      </trkpt>
      <trkpt lat="41.43649" lon="2.18452">
        <ele>53.4</ele>
        <time>2021-11-13 08:06:42</time>
      </trkpt>
      <trkpt lat="41.43655" lon="2.18454">
        <ele>53.4</ele>
        <time>2021-11-13 08:06:43</time>
      </trkpt>
      <trkpt lat="41.43662" lon="2.18456">
        <ele>53.4</ele>
        <time>2021-11-13 08:06:44</time>
      </trkpt>
      <trkpt lat="41.43669" lon="2.18458">
        <ele>53.6</ele>
        <time>2021-11-13 08:06:45</time>
      </trkpt>
      <trkpt lat="41.43675" lon="2.1846">
        <ele>53.6</ele>
        <time>2021-11-13 08:06:46</time>
      </trkpt>
      <trkpt lat="41.4368" lon="2.18461">
        <ele>53.8</ele>
        <time>2021-11-13 08:06:47</time>
      </trkpt>
      <trkpt lat="41.43686" lon="2.18464">
        <ele>53.8</ele>
        <time>2021-11-13 08:06:48</time>
      </trkpt>
      <trkpt lat="41.43692" lon="2.18466">
        <ele>53.8</ele>
        <time>2021-11-13 08:06:49</time>
      </trkpt>
      <trkpt lat="41.43699" lon="2.18468">
        <ele>54</ele>
        <time>2021-11-13 08:06:50</time>
      </trkpt>
      <trkpt lat="41.43704" lon="2.1847">
        <ele>54</ele>
        <time>2021-11-13 08:06:51</time>
      </trkpt>
      <trkpt lat="41.4371" lon="2.18472">
        <ele>54.2</ele>
        <time>2021-11-13 08:06:52</time>
      </trkpt>
      <trkpt lat="41.43716" lon="2.18474">
        <ele>54.2</ele>
        <time>2021-11-13 08:06:53</time>
      </trkpt>
      <trkpt lat="41.43721" lon="2.18476">
        <ele>54.4</ele>
        <time>2021-11-13 08:06:54</time>
      </trkpt>
      <trkpt lat="41.43728" lon="2.18478">
        <ele>54.4</ele>
        <time>2021-11-13 08:06:55</time>
      </trkpt>
      <trkpt lat="41.43734" lon="2.1848">
        <ele>54.6</ele>
        <time>2021-11-13 08:06:56</time>
      </trkpt>
      <trkpt lat="41.4374" lon="2.18482">
        <ele>54.8</ele>
        <time>2021-11-13 08:06:57</time>
      </trkpt>
      <trkpt lat="41.43745" lon="2.18484">
        <ele>54.8</ele>
        <time>2021-11-13 08:06:58</time>
      </trkpt>
      <trkpt lat="41.43751" lon="2.18486">
        <ele>55.2</ele>
        <time>2021-11-13 08:06:59</time>
      </trkpt>
      <trkpt lat="41.43757" lon="2.18488">
        <ele>55.4</ele>
        <time>2021-11-13 08:07:00</time>
      </trkpt>
      <trkpt lat="41.43763" lon="2.1849">
        <ele>55.4</ele>
        <time>2021-11-13 08:07:01</time>
      </trkpt>
      <trkpt lat="41.4377" lon="2.18492">
        <ele>55.6</ele>
        <time>2021-11-13 08:07:02</time>
      </trkpt>
      <trkpt lat="41.43776" lon="2.18494">
        <ele>55.8</ele>
        <time>2021-11-13 08:07:03</time>
      </trkpt>
      <trkpt lat="41.43781" lon="2.18495">
        <ele>55.8</ele>
        <time>2021-11-13 08:07:04</time>
      </trkpt>
      <trkpt lat="41.43786" lon="2.18496">
        <ele>56</ele>
        <time>2021-11-13 08:07:05</time>
      </trkpt>
      <trkpt lat="41.43793" lon="2.18499">
        <ele>56</ele>
        <time>2021-11-13 08:07:06</time>
      </trkpt>
      <trkpt lat="41.43799" lon="2.185">
        <ele>56.4</ele>
        <time>2021-11-13 08:07:07</time>
      </trkpt>
      <trkpt lat="41.43805" lon="2.18502">
        <ele>56.4</ele>
        <time>2021-11-13 08:07:08</time>
      </trkpt>
      <trkpt lat="41.4381" lon="2.18503">
        <ele>56.6</ele>
        <time>2021-11-13 08:07:09</time>
      </trkpt>
      <trkpt lat="41.43816" lon="2.18505">
        <ele>56.6</ele>
        <time>2021-11-13 08:07:10</time>
      </trkpt>
      <trkpt lat="41.43822" lon="2.18507">
        <ele>56.8</ele>
        <time>2021-11-13 08:07:11</time>
      </trkpt>
      <trkpt lat="41.43829" lon="2.1851">
        <ele>56.8</ele>
        <time>2021-11-13 08:07:12</time>
      </trkpt>
      <trkpt lat="41.43835" lon="2.18512">
        <ele>56.8</ele>
        <time>2021-11-13 08:07:13</time>
      </trkpt>
      <trkpt lat="41.4384" lon="2.18513">
        <ele>57</ele>
        <time>2021-11-13 08:07:14</time>
      </trkpt>
      <trkpt lat="41.43846" lon="2.18515">
        <ele>57.2</ele>
        <time>2021-11-13 08:07:15</time>
      </trkpt>
      <trkpt lat="41.43852" lon="2.18518">
        <ele>57.2</ele>
        <time>2021-11-13 08:07:16</time>
      </trkpt>
      <trkpt lat="41.43858" lon="2.1852">
        <ele>57.2</ele>
        <time>2021-11-13 08:07:17</time>
      </trkpt>
      <trkpt lat="41.43865" lon="2.18523">
        <ele>57.4</ele>
        <time>2021-11-13 08:07:18</time>
      </trkpt>
      <trkpt lat="41.4387" lon="2.18524">
        <ele>57.6</ele>
        <time>2021-11-13 08:07:19</time>
      </trkpt>
      <trkpt lat="41.43875" lon="2.18526">
        <ele>57.6</ele>
        <time>2021-11-13 08:07:20</time>
      </trkpt>
      <trkpt lat="41.43881" lon="2.18528">
        <ele>57.6</ele>
        <time>2021-11-13 08:07:21</time>
      </trkpt>
      <trkpt lat="41.43887" lon="2.18531">
        <ele>57.8</ele>
        <time>2021-11-13 08:07:22</time>
      </trkpt>
      <trkpt lat="41.43893" lon="2.18533">
        <ele>57.8</ele>
        <time>2021-11-13 08:07:23</time>
      </trkpt>
      <trkpt lat="41.43899" lon="2.18535">
        <ele>58</ele>
        <time>2021-11-13 08:07:24</time>
      </trkpt>
      <trkpt lat="41.43905" lon="2.18537">
        <ele>58</ele>
        <time>2021-11-13 08:07:25</time>
      </trkpt>
      <trkpt lat="41.43911" lon="2.18539">
        <ele>58</ele>
        <time>2021-11-13 08:07:26</time>
      </trkpt>
      <trkpt lat="41.43917" lon="2.18541">
        <ele>58.2</ele>
        <time>2021-11-13 08:07:27</time>
      </trkpt>
      <trkpt lat="41.43924" lon="2.18543">
        <ele>58.2</ele>
        <time>2021-11-13 08:07:28</time>
      </trkpt>
      <trkpt lat="41.4393" lon="2.18545">
        <ele>58.2</ele>
        <time>2021-11-13 08:07:29</time>
      </trkpt>
      <trkpt lat="41.43936" lon="2.18547">
        <ele>58.2</ele>
        <time>2021-11-13 08:07:30</time>
      </trkpt>
      <trkpt lat="41.43942" lon="2.18549">
        <ele>58.4</ele>
        <time>2021-11-13 08:07:31</time>
      </trkpt>
      <trkpt lat="41.43948" lon="2.18551">
        <ele>58.4</ele>
        <time>2021-11-13 08:07:32</time>
      </trkpt>
      <trkpt lat="41.43956" lon="2.18554">
        <ele>58.4</ele>
        <time>2021-11-13 08:07:33</time>
      </trkpt>
      <trkpt lat="41.43962" lon="2.18556">
        <ele>58.4</ele>
        <time>2021-11-13 08:07:34</time>
      </trkpt>
      <trkpt lat="41.43967" lon="2.18558">
        <ele>58.6</ele>
        <time>2021-11-13 08:07:35</time>
      </trkpt>
      <trkpt lat="41.43973" lon="2.1856">
        <ele>58.6</ele>
        <time>2021-11-13 08:07:36</time>
      </trkpt>
      <trkpt lat="41.4398" lon="2.18562">
        <ele>58.6</ele>
        <time>2021-11-13 08:07:37</time>
      </trkpt>
      <trkpt lat="41.43986" lon="2.18564">
        <ele>58.6</ele>
        <time>2021-11-13 08:07:38</time>
      </trkpt>
      <trkpt lat="41.43993" lon="2.18566">
        <ele>58.6</ele>
        <time>2021-11-13 08:07:39</time>
      </trkpt>
      <trkpt lat="41.43999" lon="2.18569">
        <ele>59</ele>
        <time>2021-11-13 08:07:40</time>
      </trkpt>
      <trkpt lat="41.44006" lon="2.18571">
        <ele>59</ele>
        <time>2021-11-13 08:07:41</time>
      </trkpt>
      <trkpt lat="41.44012" lon="2.18573">
        <ele>59</ele>
        <time>2021-11-13 08:07:42</time>
      </trkpt>
      <trkpt lat="41.4402" lon="2.18576">
        <ele>59</ele>
        <time>2021-11-13 08:07:43</time>
      </trkpt>
      <trkpt lat="41.44027" lon="2.18578">
        <ele>59</ele>
        <time>2021-11-13 08:07:44</time>
      </trkpt>
      <trkpt lat="41.44032" lon="2.1858">
        <ele>59</ele>
        <time>2021-11-13 08:07:45</time>
      </trkpt>
      <trkpt lat="41.44039" lon="2.18582">
        <ele>59</ele>
        <time>2021-11-13 08:07:46</time>
      </trkpt>
      <trkpt lat="41.44046" lon="2.18584">
        <ele>59</ele>
        <time>2021-11-13 08:07:47</time>
      </trkpt>
      <trkpt lat="41.44053" lon="2.18586">
        <ele>58.8</ele>
        <time>2021-11-13 08:07:48</time>
      </trkpt>
      <trkpt lat="41.44061" lon="2.18589">
        <ele>58.8</ele>
        <time>2021-11-13 08:07:49</time>
      </trkpt>
      <trkpt lat="41.44069" lon="2.18591">
        <ele>58.8</ele>
        <time>2021-11-13 08:07:50</time>
      </trkpt>
      <trkpt lat="41.44075" lon="2.18593">
        <ele>58.8</ele>
        <time>2021-11-13 08:07:51</time>
      </trkpt>
      <trkpt lat="41.44082" lon="2.18595">
        <ele>58.8</ele>
        <time>2021-11-13 08:07:52</time>
      </trkpt>
      <trkpt lat="41.44089" lon="2.18598">
        <ele>58.6</ele>
        <time>2021-11-13 08:07:53</time>
      </trkpt>
      <trkpt lat="41.44098" lon="2.186">
        <ele>58.6</ele>
        <time>2021-11-13 08:07:54</time>
      </trkpt>
      <trkpt lat="41.44104" lon="2.18602">
        <ele>58.6</ele>
        <time>2021-11-13 08:07:55</time>
      </trkpt>
      <trkpt lat="41.44111" lon="2.18604">
        <ele>58.6</ele>
        <time>2021-11-13 08:07:56</time>
      </trkpt>
      <trkpt lat="41.44118" lon="2.18606">
        <ele>58.2</ele>
        <time>2021-11-13 08:07:57</time>
      </trkpt>
      <trkpt lat="41.44126" lon="2.18608">
        <ele>58.2</ele>
        <time>2021-11-13 08:07:58</time>
      </trkpt>
      <trkpt lat="41.44133" lon="2.18611">
        <ele>58</ele>
        <time>2021-11-13 08:07:59</time>
      </trkpt>
      <trkpt lat="41.44141" lon="2.18613">
        <ele>57.8</ele>
        <time>2021-11-13 08:08:00</time>
      </trkpt>
      <trkpt lat="41.44148" lon="2.18616">
        <ele>57.8</ele>
        <time>2021-11-13 08:08:01</time>
      </trkpt>
      <trkpt lat="41.44156" lon="2.18619">
        <ele>57.6</ele>
        <time>2021-11-13 08:08:02</time>
      </trkpt>
      <trkpt lat="41.44164" lon="2.18622">
        <ele>57.6</ele>
        <time>2021-11-13 08:08:03</time>
      </trkpt>
      <trkpt lat="41.44172" lon="2.18624">
        <ele>57.4</ele>
        <time>2021-11-13 08:08:04</time>
      </trkpt>
      <trkpt lat="41.4418" lon="2.18626">
        <ele>57.2</ele>
        <time>2021-11-13 08:08:05</time>
      </trkpt>
      <trkpt lat="41.44189" lon="2.18629">
        <ele>57.2</ele>
        <time>2021-11-13 08:08:06</time>
      </trkpt>
      <trkpt lat="41.44197" lon="2.18632">
        <ele>57</ele>
        <time>2021-11-13 08:08:07</time>
      </trkpt>
      <trkpt lat="41.44204" lon="2.18633">
        <ele>57</ele>
        <time>2021-11-13 08:08:08</time>
      </trkpt>
      <trkpt lat="41.44212" lon="2.18636">
        <ele>56.8</ele>
        <time>2021-11-13 08:08:09</time>
      </trkpt>
      <trkpt lat="41.44221" lon="2.18638">
        <ele>56.8</ele>
        <time>2021-11-13 08:08:10</time>
      </trkpt>
      <trkpt lat="41.44229" lon="2.1864">
        <ele>56.6</ele>
        <time>2021-11-13 08:08:11</time>
      </trkpt>
      <trkpt lat="41.44237" lon="2.18642">
        <ele>56.4</ele>
        <time>2021-11-13 08:08:12</time>
      </trkpt>
      <trkpt lat="41.44243" lon="2.18644">
        <ele>56.2</ele>
        <time>2021-11-13 08:08:13</time>
      </trkpt>
      <trkpt lat="41.44251" lon="2.18646">
        <ele>56.2</ele>
        <time>2021-11-13 08:08:14</time>
      </trkpt>
      <trkpt lat="41.4426" lon="2.18648">
        <ele>56</ele>
        <time>2021-11-13 08:08:15</time>
      </trkpt>
      <trkpt lat="41.44268" lon="2.1865">
        <ele>55.8</ele>
        <time>2021-11-13 08:08:16</time>
      </trkpt>
      <trkpt lat="41.44274" lon="2.18652">
        <ele>55.6</ele>
        <time>2021-11-13 08:08:17</time>
      </trkpt>
      <trkpt lat="41.44281" lon="2.18654">
        <ele>55.6</ele>
        <time>2021-11-13 08:08:18</time>
      </trkpt>
      <trkpt lat="41.44289" lon="2.18656">
        <ele>55.6</ele>
        <time>2021-11-13 08:08:19</time>
      </trkpt>
      <trkpt lat="41.44296" lon="2.18658">
        <ele>55.6</ele>
        <time>2021-11-13 08:08:20</time>
      </trkpt>
      <trkpt lat="41.44305" lon="2.18661">
        <ele>55.6</ele>
        <time>2021-11-13 08:08:21</time>
      </trkpt>
      <trkpt lat="41.44312" lon="2.18663">
        <ele>55.4</ele>
        <time>2021-11-13 08:08:22</time>
      </trkpt>
      <trkpt lat="41.44318" lon="2.18664">
        <ele>55.4</ele>
        <time>2021-11-13 08:08:23</time>
      </trkpt>
      <trkpt lat="41.44325" lon="2.18667">
        <ele>55.2</ele>
        <time>2021-11-13 08:08:24</time>
      </trkpt>
      <trkpt lat="41.44334" lon="2.1867">
        <ele>55.2</ele>
        <time>2021-11-13 08:08:25</time>
      </trkpt>
      <trkpt lat="41.44342" lon="2.18672">
        <ele>55.2</ele>
        <time>2021-11-13 08:08:26</time>
      </trkpt>
      <trkpt lat="41.44349" lon="2.18674">
        <ele>55.2</ele>
        <time>2021-11-13 08:08:27</time>
      </trkpt>
      <trkpt lat="41.44357" lon="2.18677">
        <ele>55.4</ele>
        <time>2021-11-13 08:08:28</time>
      </trkpt>
      <trkpt lat="41.44363" lon="2.18679">
        <ele>55.4</ele>
        <time>2021-11-13 08:08:29</time>
      </trkpt>
      <trkpt lat="41.44371" lon="2.18681">
        <ele>55.4</ele>
        <time>2021-11-13 08:08:30</time>
      </trkpt>
      <trkpt lat="41.4438" lon="2.18684">
        <ele>55.4</ele>
        <time>2021-11-13 08:08:31</time>
      </trkpt>
      <trkpt lat="41.44388" lon="2.18686">
        <ele>55.2</ele>
        <time>2021-11-13 08:08:32</time>
      </trkpt>
      <trkpt lat="41.44395" lon="2.18689">
        <ele>55.2</ele>
        <time>2021-11-13 08:08:33</time>
      </trkpt>
      <trkpt lat="41.44401" lon="2.18691">
        <ele>55.2</ele>
        <time>2021-11-13 08:08:34</time>
      </trkpt>
      <trkpt lat="41.44409" lon="2.18693">
        <ele>55.2</ele>
        <time>2021-11-13 08:08:35</time>
      </trkpt>
      <trkpt lat="41.44416" lon="2.18695">
        <ele>55</ele>
        <time>2021-11-13 08:08:36</time>
      </trkpt>
      <trkpt lat="41.44424" lon="2.18698">
        <ele>55</ele>
        <time>2021-11-13 08:08:37</time>
      </trkpt>
      <trkpt lat="41.44431" lon="2.187">
        <ele>55</ele>
        <time>2021-11-13 08:08:38</time>
      </trkpt>
      <trkpt lat="41.44439" lon="2.18702">
        <ele>55</ele>
        <time>2021-11-13 08:08:39</time>
      </trkpt>
      <trkpt lat="41.44446" lon="2.18704">
        <ele>55</ele>
        <time>2021-11-13 08:08:40</time>
      </trkpt>
      <trkpt lat="41.44453" lon="2.18706">
        <ele>55</ele>
        <time>2021-11-13 08:08:41</time>
      </trkpt>
      <trkpt lat="41.44461" lon="2.18709">
        <ele>55</ele>
        <time>2021-11-13 08:08:42</time>
      </trkpt>
      <trkpt lat="41.44467" lon="2.1871">
        <ele>55</ele>
        <time>2021-11-13 08:08:43</time>
      </trkpt>
      <trkpt lat="41.44475" lon="2.18713">
        <ele>55.2</ele>
        <time>2021-11-13 08:08:44</time>
      </trkpt>
      <trkpt lat="41.44482" lon="2.18715">
        <ele>55.2</ele>
        <time>2021-11-13 08:08:45</time>
      </trkpt>
      <trkpt lat="41.44487" lon="2.18717">
        <ele>55.2</ele>
        <time>2021-11-13 08:08:46</time>
      </trkpt>
      <trkpt lat="41.44493" lon="2.18719">
        <ele>55.2</ele>
        <time>2021-11-13 08:08:47</time>
      </trkpt>
      <trkpt lat="41.445" lon="2.18721">
        <ele>55.2</ele>
        <time>2021-11-13 08:08:48</time>
      </trkpt>
      <trkpt lat="41.44506" lon="2.18723">
        <ele>55.2</ele>
        <time>2021-11-13 08:08:49</time>
      </trkpt>
      <trkpt lat="41.44512" lon="2.18725">
        <ele>55.4</ele>
        <time>2021-11-13 08:08:50</time>
      </trkpt>
      <trkpt lat="41.44518" lon="2.18727">
        <ele>55.8</ele>
        <time>2021-11-13 08:08:51</time>
      </trkpt>
      <trkpt lat="41.44524" lon="2.18729">
        <ele>55.8</ele>
        <time>2021-11-13 08:08:52</time>
      </trkpt>
      <trkpt lat="41.4453" lon="2.18731">
        <ele>56</ele>
        <time>2021-11-13 08:08:53</time>
      </trkpt>
      <trkpt lat="41.44536" lon="2.18733">
        <ele>56.2</ele>
        <time>2021-11-13 08:08:54</time>
      </trkpt>
      <trkpt lat="41.44542" lon="2.18735">
        <ele>56.4</ele>
        <time>2021-11-13 08:08:55</time>
      </trkpt>
      <trkpt lat="41.44548" lon="2.18736">
        <ele>56.6</ele>
        <time>2021-11-13 08:08:56</time>
      </trkpt>
      <trkpt lat="41.44554" lon="2.18738">
        <ele>56.8</ele>
        <time>2021-11-13 08:08:57</time>
      </trkpt>
      <trkpt lat="41.44559" lon="2.1874">
        <ele>57</ele>
        <time>2021-11-13 08:08:58</time>
      </trkpt>
      <trkpt lat="41.44565" lon="2.18742">
        <ele>57.2</ele>
        <time>2021-11-13 08:08:59</time>
      </trkpt>
      <trkpt lat="41.44571" lon="2.18744">
        <ele>57.2</ele>
        <time>2021-11-13 08:09:00</time>
      </trkpt>
      <trkpt lat="41.44576" lon="2.18746">
        <ele>57.6</ele>
        <time>2021-11-13 08:09:01</time>
      </trkpt>
      <trkpt lat="41.44582" lon="2.18748">
        <ele>57.8</ele>
        <time>2021-11-13 08:09:02</time>
      </trkpt>
      <trkpt lat="41.44588" lon="2.1875">
        <ele>58</ele>
        <time>2021-11-13 08:09:03</time>
      </trkpt>
      <trkpt lat="41.44593" lon="2.18751">
        <ele>58.2</ele>
        <time>2021-11-13 08:09:04</time>
      </trkpt>
      <trkpt lat="41.44599" lon="2.18753">
        <ele>58.2</ele>
        <time>2021-11-13 08:09:05</time>
      </trkpt>
      <trkpt lat="41.44604" lon="2.18755">
        <ele>58.6</ele>
        <time>2021-11-13 08:09:06</time>
      </trkpt>
      <trkpt lat="41.4461" lon="2.18757">
        <ele>58.6</ele>
        <time>2021-11-13 08:09:07</time>
      </trkpt>
      <trkpt lat="41.44616" lon="2.18759">
        <ele>59</ele>
        <time>2021-11-13 08:09:08</time>
      </trkpt>
      <trkpt lat="41.44623" lon="2.18761">
        <ele>59</ele>
        <time>2021-11-13 08:09:09</time>
      </trkpt>
      <trkpt lat="41.44629" lon="2.18763">
        <ele>59.4</ele>
        <time>2021-11-13 08:09:10</time>
      </trkpt>
      <trkpt lat="41.44634" lon="2.18764">
        <ele>59.4</ele>
        <time>2021-11-13 08:09:11</time>
      </trkpt>
      <trkpt lat="41.4464" lon="2.18766">
        <ele>59.6</ele>
        <time>2021-11-13 08:09:12</time>
      </trkpt>
      <trkpt lat="41.44645" lon="2.18768">
        <ele>59.8</ele>
        <time>2021-11-13 08:09:13</time>
      </trkpt>
      <trkpt lat="41.44652" lon="2.1877">
        <ele>60.2</ele>
        <time>2021-11-13 08:09:14</time>
      </trkpt>
      <trkpt lat="41.44658" lon="2.18772">
        <ele>60.2</ele>
        <time>2021-11-13 08:09:15</time>
      </trkpt>
      <trkpt lat="41.44664" lon="2.18774">
        <ele>60.4</ele>
        <time>2021-11-13 08:09:16</time>
      </trkpt>
      <trkpt lat="41.44669" lon="2.18776">
        <ele>60.4</ele>
        <time>2021-11-13 08:09:17</time>
      </trkpt>
      <trkpt lat="41.44675" lon="2.18778">
        <ele>60.6</ele>
        <time>2021-11-13 08:09:18</time>
      </trkpt>
      <trkpt lat="41.44682" lon="2.1878">
        <ele>60.8</ele>
        <time>2021-11-13 08:09:19</time>
      </trkpt>
      <trkpt lat="41.44688" lon="2.18782">
        <ele>60.8</ele>
        <time>2021-11-13 08:09:20</time>
      </trkpt>
      <trkpt lat="41.44694" lon="2.18784">
        <ele>61</ele>
        <time>2021-11-13 08:09:21</time>
      </trkpt>
      <trkpt lat="41.44699" lon="2.18786">
        <ele>61</ele>
        <time>2021-11-13 08:09:22</time>
      </trkpt>
      <trkpt lat="41.44705" lon="2.18788">
        <ele>61</ele>
        <time>2021-11-13 08:09:23</time>
      </trkpt>
      <trkpt lat="41.44711" lon="2.1879">
        <ele>61.2</ele>
        <time>2021-11-13 08:09:24</time>
      </trkpt>
      <trkpt lat="41.44718" lon="2.18792">
        <ele>61.2</ele>
        <time>2021-11-13 08:09:25</time>
      </trkpt>
      <trkpt lat="41.44725" lon="2.18795">
        <ele>61.4</ele>
        <time>2021-11-13 08:09:26</time>
      </trkpt>
      <trkpt lat="41.44732" lon="2.18797">
        <ele>61.6</ele>
        <time>2021-11-13 08:09:27</time>
      </trkpt>
      <trkpt lat="41.44737" lon="2.18799">
        <ele>61.6</ele>
        <time>2021-11-13 08:09:28</time>
      </trkpt>
      <trkpt lat="41.44744" lon="2.18801">
        <ele>61.6</ele>
        <time>2021-11-13 08:09:29</time>
      </trkpt>
      <trkpt lat="41.44752" lon="2.18804">
        <ele>61.4</ele>
        <time>2021-11-13 08:09:30</time>
      </trkpt>
      <trkpt lat="41.44758" lon="2.18806">
        <ele>61.4</ele>
        <time>2021-11-13 08:09:31</time>
      </trkpt>
      <trkpt lat="41.44765" lon="2.18809">
        <ele>61.4</ele>
        <time>2021-11-13 08:09:32</time>
      </trkpt>
      <trkpt lat="41.4477" lon="2.1881">
        <ele>61.2</ele>
        <time>2021-11-13 08:09:33</time>
      </trkpt>
      <trkpt lat="41.44777" lon="2.18812">
        <ele>61.2</ele>
        <time>2021-11-13 08:09:34</time>
      </trkpt>
      <trkpt lat="41.44786" lon="2.18815">
        <ele>61.2</ele>
        <time>2021-11-13 08:09:35</time>
      </trkpt>
      <trkpt lat="41.44793" lon="2.18818">
        <ele>61.2</ele>
        <time>2021-11-13 08:09:36</time>
      </trkpt>
      <trkpt lat="41.448" lon="2.1882">
        <ele>61</ele>
        <time>2021-11-13 08:09:37</time>
      </trkpt>
      <trkpt lat="41.44806" lon="2.18823">
        <ele>61</ele>
        <time>2021-11-13 08:09:38</time>
      </trkpt>
      <trkpt lat="41.44814" lon="2.18825">
        <ele>60.8</ele>
        <time>2021-11-13 08:09:39</time>
      </trkpt>
      <trkpt lat="41.44821" lon="2.18828">
        <ele>60.6</ele>
        <time>2021-11-13 08:09:40</time>
      </trkpt>
      <trkpt lat="41.44831" lon="2.18831">
        <ele>60.6</ele>
        <time>2021-11-13 08:09:41</time>
      </trkpt>
      <trkpt lat="41.44839" lon="2.18834">
        <ele>60.2</ele>
        <time>2021-11-13 08:09:42</time>
      </trkpt>
      <trkpt lat="41.44845" lon="2.18836">
        <ele>60</ele>
        <time>2021-11-13 08:09:43</time>
      </trkpt>
      <trkpt lat="41.44854" lon="2.18839">
        <ele>60</ele>
        <time>2021-11-13 08:09:44</time>
      </trkpt>
      <trkpt lat="41.44862" lon="2.18841">
        <ele>59.8</ele>
        <time>2021-11-13 08:09:45</time>
      </trkpt>
      <trkpt lat="41.44872" lon="2.18844">
        <ele>59.2</ele>
        <time>2021-11-13 08:09:46</time>
      </trkpt>
      <trkpt lat="41.4488" lon="2.18847">
        <ele>59.2</ele>
        <time>2021-11-13 08:09:47</time>
      </trkpt>
      <trkpt lat="41.44888" lon="2.1885">
        <ele>59</ele>
        <time>2021-11-13 08:09:48</time>
      </trkpt>
      <trkpt lat="41.44895" lon="2.18853">
        <ele>58.8</ele>
        <time>2021-11-13 08:09:49</time>
      </trkpt>
      <trkpt lat="41.44903" lon="2.18855">
        <ele>58.6</ele>
        <time>2021-11-13 08:09:50</time>
      </trkpt>
      <trkpt lat="41.44913" lon="2.18859">
        <ele>58.2</ele>
        <time>2021-11-13 08:09:51</time>
      </trkpt>
      <trkpt lat="41.44921" lon="2.18861">
        <ele>58</ele>
        <time>2021-11-13 08:09:52</time>
      </trkpt>
      <trkpt lat="41.44929" lon="2.18864">
        <ele>57.6</ele>
        <time>2021-11-13 08:09:53</time>
      </trkpt>
      <trkpt lat="41.44937" lon="2.18867">
        <ele>57.6</ele>
        <time>2021-11-13 08:09:54</time>
      </trkpt>
      <trkpt lat="41.44937" lon="2.18867">
        <ele>57.4</ele>
        <time>2021-11-13 08:09:55</time>
      </trkpt>
      <trkpt lat="41.44951" lon="2.18872">
        <ele>57</ele>
        <time>2021-11-13 08:09:56</time>
      </trkpt>
      <trkpt lat="41.4496" lon="2.18874">
        <ele>57</ele>
        <time>2021-11-13 08:09:57</time>
      </trkpt>
      <trkpt lat="41.44967" lon="2.18877">
        <ele>56.8</ele>
        <time>2021-11-13 08:09:58</time>
      </trkpt>
      <trkpt lat="41.44974" lon="2.18879">
        <ele>56.8</ele>
        <time>2021-11-13 08:09:59</time>
      </trkpt>
      <trkpt lat="41.4498" lon="2.18882">
        <ele>56.6</ele>
        <time>2021-11-13 08:10:00</time>
      </trkpt>
      <trkpt lat="41.44987" lon="2.18884">
        <ele>56.6</ele>
        <time>2021-11-13 08:10:01</time>
      </trkpt>
      <trkpt lat="41.44995" lon="2.18887">
        <ele>56.6</ele>
        <time>2021-11-13 08:10:02</time>
      </trkpt>
      <trkpt lat="41.45002" lon="2.18889">
        <ele>56.6</ele>
        <time>2021-11-13 08:10:03</time>
      </trkpt>
      <trkpt lat="41.45008" lon="2.1889">
        <ele>56.6</ele>
        <time>2021-11-13 08:10:04</time>
      </trkpt>
      <trkpt lat="41.45015" lon="2.18892">
        <ele>56.6</ele>
        <time>2021-11-13 08:10:05</time>
      </trkpt>
      <trkpt lat="41.45022" lon="2.18894">
        <ele>56.6</ele>
        <time>2021-11-13 08:10:06</time>
      </trkpt>
      <trkpt lat="41.4503" lon="2.18895">
        <ele>56.6</ele>
        <time>2021-11-13 08:10:07</time>
      </trkpt>
      <trkpt lat="41.45037" lon="2.18896">
        <ele>56.6</ele>
        <time>2021-11-13 08:10:08</time>
      </trkpt>
      <trkpt lat="41.45044" lon="2.18897">
        <ele>56.6</ele>
        <time>2021-11-13 08:10:09</time>
      </trkpt>
      <trkpt lat="41.45051" lon="2.18898">
        <ele>56.6</ele>
        <time>2021-11-13 08:10:10</time>
      </trkpt>
      <trkpt lat="41.45056" lon="2.18899">
        <ele>56.6</ele>
        <time>2021-11-13 08:10:11</time>
      </trkpt>
      <trkpt lat="41.45063" lon="2.189">
        <ele>56.6</ele>
        <time>2021-11-13 08:10:12</time>
      </trkpt>
      <trkpt lat="41.45071" lon="2.18901">
        <ele>56.8</ele>
        <time>2021-11-13 08:10:13</time>
      </trkpt>
      <trkpt lat="41.45078" lon="2.18902">
        <ele>57</ele>
        <time>2021-11-13 08:10:14</time>
      </trkpt>
      <trkpt lat="41.45085" lon="2.18902">
        <ele>57</ele>
        <time>2021-11-13 08:10:15</time>
      </trkpt>
      <trkpt lat="41.45091" lon="2.18903">
        <ele>57.2</ele>
        <time>2021-11-13 08:10:16</time>
      </trkpt>
      <trkpt lat="41.45097" lon="2.18903">
        <ele>57.2</ele>
        <time>2021-11-13 08:10:17</time>
      </trkpt>
      <trkpt lat="41.45106" lon="2.18904">
        <ele>57.2</ele>
        <time>2021-11-13 08:10:18</time>
      </trkpt>
      <trkpt lat="41.45113" lon="2.18905">
        <ele>57.2</ele>
        <time>2021-11-13 08:10:19</time>
      </trkpt>
      <trkpt lat="41.45119" lon="2.18906">
        <ele>57.4</ele>
        <time>2021-11-13 08:10:20</time>
      </trkpt>
      <trkpt lat="41.45126" lon="2.18906">
        <ele>57.4</ele>
        <time>2021-11-13 08:10:21</time>
      </trkpt>
      <trkpt lat="41.45133" lon="2.18907">
        <ele>57.4</ele>
        <time>2021-11-13 08:10:22</time>
      </trkpt>
      <trkpt lat="41.45139" lon="2.18907">
        <ele>57.4</ele>
        <time>2021-11-13 08:10:23</time>
      </trkpt>
      <trkpt lat="41.45147" lon="2.18907">
        <ele>57.4</ele>
        <time>2021-11-13 08:10:24</time>
      </trkpt>
      <trkpt lat="41.45153" lon="2.18908">
        <ele>57.4</ele>
        <time>2021-11-13 08:10:25</time>
      </trkpt>
      <trkpt lat="41.4516" lon="2.18908">
        <ele>57.6</ele>
        <time>2021-11-13 08:10:26</time>
      </trkpt>
      <trkpt lat="41.45165" lon="2.18908">
        <ele>57.6</ele>
        <time>2021-11-13 08:10:27</time>
      </trkpt>
      <trkpt lat="41.45172" lon="2.18909">
        <ele>57.6</ele>
        <time>2021-11-13 08:10:28</time>
      </trkpt>
      <trkpt lat="41.4518" lon="2.18909">
        <ele>57.6</ele>
        <time>2021-11-13 08:10:29</time>
      </trkpt>
      <trkpt lat="41.45187" lon="2.18909">
        <ele>57.6</ele>
        <time>2021-11-13 08:10:30</time>
      </trkpt>
      <trkpt lat="41.45194" lon="2.1891">
        <ele>57.6</ele>
        <time>2021-11-13 08:10:31</time>
      </trkpt>
      <trkpt lat="41.45199" lon="2.1891">
        <ele>57.4</ele>
        <time>2021-11-13 08:10:32</time>
      </trkpt>
      <trkpt lat="41.45206" lon="2.1891">
        <ele>57.4</ele>
        <time>2021-11-13 08:10:33</time>
      </trkpt>
      <trkpt lat="41.45215" lon="2.1891">
        <ele>57.4</ele>
        <time>2021-11-13 08:10:34</time>
      </trkpt>
      <trkpt lat="41.45223" lon="2.1891">
        <ele>57.4</ele>
        <time>2021-11-13 08:10:35</time>
      </trkpt>
      <trkpt lat="41.4523" lon="2.1891">
        <ele>57.4</ele>
        <time>2021-11-13 08:10:36</time>
      </trkpt>
      <trkpt lat="41.45236" lon="2.1891">
        <ele>57.2</ele>
        <time>2021-11-13 08:10:37</time>
      </trkpt>
      <trkpt lat="41.45244" lon="2.1891">
        <ele>57.2</ele>
        <time>2021-11-13 08:10:38</time>
      </trkpt>
      <trkpt lat="41.45251" lon="2.1891">
        <ele>57</ele>
        <time>2021-11-13 08:10:39</time>
      </trkpt>
      <trkpt lat="41.45261" lon="2.1891">
        <ele>57</ele>
        <time>2021-11-13 08:10:40</time>
      </trkpt>
      <trkpt lat="41.45269" lon="2.1891">
        <ele>56.8</ele>
        <time>2021-11-13 08:10:41</time>
      </trkpt>
      <trkpt lat="41.45277" lon="2.1891">
        <ele>56.8</ele>
        <time>2021-11-13 08:10:42</time>
      </trkpt>
      <trkpt lat="41.45285" lon="2.1891">
        <ele>56.8</ele>
        <time>2021-11-13 08:10:43</time>
      </trkpt>
      <trkpt lat="41.45292" lon="2.1891">
        <ele>56.6</ele>
        <time>2021-11-13 08:10:44</time>
      </trkpt>
      <trkpt lat="41.45302" lon="2.1891">
        <ele>56.6</ele>
        <time>2021-11-13 08:10:45</time>
      </trkpt>
      <trkpt lat="41.4531" lon="2.1891">
        <ele>56.6</ele>
        <time>2021-11-13 08:10:46</time>
      </trkpt>
      <trkpt lat="41.45318" lon="2.18909">
        <ele>56.2</ele>
        <time>2021-11-13 08:10:47</time>
      </trkpt>
      <trkpt lat="41.45326" lon="2.18909">
        <ele>55.8</ele>
        <time>2021-11-13 08:10:48</time>
      </trkpt>
      <trkpt lat="41.45333" lon="2.18909">
        <ele>55.8</ele>
        <time>2021-11-13 08:10:49</time>
      </trkpt>
      <trkpt lat="41.45341" lon="2.18909">
        <ele>55.4</ele>
        <time>2021-11-13 08:10:50</time>
      </trkpt>
      <trkpt lat="41.45351" lon="2.18908">
        <ele>55.4</ele>
        <time>2021-11-13 08:10:51</time>
      </trkpt>
      <trkpt lat="41.4536" lon="2.18907">
        <ele>55</ele>
        <time>2021-11-13 08:10:52</time>
      </trkpt>
      <trkpt lat="41.45368" lon="2.18907">
        <ele>55</ele>
        <time>2021-11-13 08:10:53</time>
      </trkpt>
      <trkpt lat="41.45377" lon="2.18906">
        <ele>54.6</ele>
        <time>2021-11-13 08:10:54</time>
      </trkpt>
      <trkpt lat="41.45385" lon="2.18904">
        <ele>54.4</ele>
        <time>2021-11-13 08:10:55</time>
      </trkpt>
      <trkpt lat="41.45394" lon="2.18904">
        <ele>54.2</ele>
        <time>2021-11-13 08:10:56</time>
      </trkpt>
      <trkpt lat="41.45402" lon="2.18903">
        <ele>53.8</ele>
        <time>2021-11-13 08:10:57</time>
      </trkpt>
      <trkpt lat="41.45411" lon="2.18902">
        <ele>53.4</ele>
        <time>2021-11-13 08:10:58</time>
      </trkpt>
      <trkpt lat="41.45418" lon="2.18901">
        <ele>53</ele>
        <time>2021-11-13 08:10:59</time>
      </trkpt>
      <trkpt lat="41.45427" lon="2.189">
        <ele>53</ele>
        <time>2021-11-13 08:11:00</time>
      </trkpt>
      <trkpt lat="41.45437" lon="2.18899">
        <ele>52.6</ele>
        <time>2021-11-13 08:11:01</time>
      </trkpt>
      <trkpt lat="41.45446" lon="2.18899">
        <ele>52.4</ele>
        <time>2021-11-13 08:11:02</time>
      </trkpt>
      <trkpt lat="41.45454" lon="2.18898">
        <ele>52</ele>
        <time>2021-11-13 08:11:03</time>
      </trkpt>
      <trkpt lat="41.45461" lon="2.18897">
        <ele>51.6</ele>
        <time>2021-11-13 08:11:04</time>
      </trkpt>
      <trkpt lat="41.45472" lon="2.18896">
        <ele>51.2</ele>
        <time>2021-11-13 08:11:05</time>
      </trkpt>
      <trkpt lat="41.45479" lon="2.18896">
        <ele>51</ele>
        <time>2021-11-13 08:11:06</time>
      </trkpt>
      <trkpt lat="41.45488" lon="2.18895">
        <ele>50.8</ele>
        <time>2021-11-13 08:11:07</time>
      </trkpt>
      <trkpt lat="41.45499" lon="2.18895">
        <ele>50.6</ele>
        <time>2021-11-13 08:11:08</time>
      </trkpt>
      <trkpt lat="41.45509" lon="2.18894">
        <ele>50.4</ele>
        <time>2021-11-13 08:11:09</time>
      </trkpt>
      <trkpt lat="41.45517" lon="2.18894">
        <ele>50.2</ele>
        <time>2021-11-13 08:11:10</time>
      </trkpt>
      <trkpt lat="41.4553" lon="2.18893">
        <ele>50</ele>
        <time>2021-11-13 08:11:11</time>
      </trkpt>
      <trkpt lat="41.4554" lon="2.18892">
        <ele>49.4</ele>
        <time>2021-11-13 08:11:12</time>
      </trkpt>
      <trkpt lat="41.4555" lon="2.18891">
        <ele>49</ele>
        <time>2021-11-13 08:11:13</time>
      </trkpt>
      <trkpt lat="41.45561" lon="2.1889">
        <ele>48.8</ele>
        <time>2021-11-13 08:11:14</time>
      </trkpt>
      <trkpt lat="41.45571" lon="2.18888">
        <ele>48.2</ele>
        <time>2021-11-13 08:11:15</time>
      </trkpt>
      <trkpt lat="41.45581" lon="2.18886">
        <ele>48</ele>
        <time>2021-11-13 08:11:16</time>
      </trkpt>
      <trkpt lat="41.45591" lon="2.18885">
        <ele>47.2</ele>
        <time>2021-11-13 08:11:17</time>
      </trkpt>
      <trkpt lat="41.45602" lon="2.18884">
        <ele>46.8</ele>
        <time>2021-11-13 08:11:18</time>
      </trkpt>
      <trkpt lat="41.45612" lon="2.18882">
        <ele>46</ele>
        <time>2021-11-13 08:11:19</time>
      </trkpt>
      <trkpt lat="41.45621" lon="2.18881">
        <ele>45.6</ele>
        <time>2021-11-13 08:11:20</time>
      </trkpt>
      <trkpt lat="41.45633" lon="2.18879">
        <ele>44.6</ele>
        <time>2021-11-13 08:11:21</time>
      </trkpt>
      <trkpt lat="41.45643" lon="2.18877">
        <ele>43.6</ele>
        <time>2021-11-13 08:11:22</time>
      </trkpt>
      <trkpt lat="41.45653" lon="2.18874">
        <ele>43.2</ele>
        <time>2021-11-13 08:11:23</time>
      </trkpt>
      <trkpt lat="41.45661" lon="2.1887">
        <ele>42.2</ele>
        <time>2021-11-13 08:11:24</time>
      </trkpt>
      <trkpt lat="41.45672" lon="2.18864">
        <ele>42</ele>
        <time>2021-11-13 08:11:25</time>
      </trkpt>
      <trkpt lat="41.45682" lon="2.18858">
        <ele>40.8</ele>
        <time>2021-11-13 08:11:26</time>
      </trkpt>
      <trkpt lat="41.4569" lon="2.18852">
        <ele>40.4</ele>
        <time>2021-11-13 08:11:27</time>
      </trkpt>
      <trkpt lat="41.45699" lon="2.18845">
        <ele>39.6</ele>
        <time>2021-11-13 08:11:28</time>
      </trkpt>
      <trkpt lat="41.45707" lon="2.18838">
        <ele>39.4</ele>
        <time>2021-11-13 08:11:29</time>
      </trkpt>
      <trkpt lat="41.45714" lon="2.18831">
        <ele>39.2</ele>
        <time>2021-11-13 08:11:30</time>
      </trkpt>
      <trkpt lat="41.4572" lon="2.18826">
        <ele>38.8</ele>
        <time>2021-11-13 08:11:31</time>
      </trkpt>
      <trkpt lat="41.45728" lon="2.18818">
        <ele>38.6</ele>
        <time>2021-11-13 08:11:32</time>
      </trkpt>
      <trkpt lat="41.45736" lon="2.18809">
        <ele>38.2</ele>
        <time>2021-11-13 08:11:33</time>
      </trkpt>
      <trkpt lat="41.45742" lon="2.18801">
        <ele>38</ele>
        <time>2021-11-13 08:11:34</time>
      </trkpt>
      <trkpt lat="41.45748" lon="2.18793">
        <ele>37.8</ele>
        <time>2021-11-13 08:11:35</time>
      </trkpt>
      <trkpt lat="41.45754" lon="2.18785">
        <ele>37.8</ele>
        <time>2021-11-13 08:11:36</time>
      </trkpt>
      <trkpt lat="41.45759" lon="2.18778">
        <ele>37.6</ele>
        <time>2021-11-13 08:11:37</time>
      </trkpt>
      <trkpt lat="41.45766" lon="2.18769">
        <ele>37.6</ele>
        <time>2021-11-13 08:11:38</time>
      </trkpt>
      <trkpt lat="41.45771" lon="2.18761">
        <ele>37.6</ele>
        <time>2021-11-13 08:11:39</time>
      </trkpt>
      <trkpt lat="41.45777" lon="2.18753">
        <ele>37.4</ele>
        <time>2021-11-13 08:11:40</time>
      </trkpt>
      <trkpt lat="41.45782" lon="2.18745">
        <ele>37.4</ele>
        <time>2021-11-13 08:11:41</time>
      </trkpt>
      <trkpt lat="41.45786" lon="2.18739">
        <ele>37.4</ele>
        <time>2021-11-13 08:11:42</time>
      </trkpt>
      <trkpt lat="41.45791" lon="2.18731">
        <ele>37.4</ele>
        <time>2021-11-13 08:11:43</time>
      </trkpt>
      <trkpt lat="41.45798" lon="2.18722">
        <ele>37.4</ele>
        <time>2021-11-13 08:11:44</time>
      </trkpt>
      <trkpt lat="41.45803" lon="2.18715">
        <ele>37.4</ele>
        <time>2021-11-13 08:11:45</time>
      </trkpt>
      <trkpt lat="41.45808" lon="2.18708">
        <ele>37.4</ele>
        <time>2021-11-13 08:11:46</time>
      </trkpt>
      <trkpt lat="41.45812" lon="2.18702">
        <ele>37.4</ele>
        <time>2021-11-13 08:11:47</time>
      </trkpt>
      <trkpt lat="41.45816" lon="2.18695">
        <ele>37.4</ele>
        <time>2021-11-13 08:11:48</time>
      </trkpt>
      <trkpt lat="41.45821" lon="2.18687">
        <ele>37.4</ele>
        <time>2021-11-13 08:11:49</time>
      </trkpt>
      <trkpt lat="41.45827" lon="2.18679">
        <ele>37.4</ele>
        <time>2021-11-13 08:11:50</time>
      </trkpt>
      <trkpt lat="41.45831" lon="2.18672">
        <ele>37.4</ele>
        <time>2021-11-13 08:11:51</time>
      </trkpt>
      <trkpt lat="41.45835" lon="2.18666">
        <ele>37.4</ele>
        <time>2021-11-13 08:11:52</time>
      </trkpt>
      <trkpt lat="41.4584" lon="2.18658">
        <ele>37.4</ele>
        <time>2021-11-13 08:11:53</time>
      </trkpt>
      <trkpt lat="41.45844" lon="2.18651">
        <ele>37.4</ele>
        <time>2021-11-13 08:11:54</time>
      </trkpt>
      <trkpt lat="41.45847" lon="2.18646">
        <ele>37.4</ele>
        <time>2021-11-13 08:11:55</time>
      </trkpt>
      <trkpt lat="41.45852" lon="2.18639">
        <ele>37.6</ele>
        <time>2021-11-13 08:11:56</time>
      </trkpt>
      <trkpt lat="41.45856" lon="2.18632">
        <ele>37.4</ele>
        <time>2021-11-13 08:11:57</time>
      </trkpt>
      <trkpt lat="41.4586" lon="2.18626">
        <ele>37.8</ele>
        <time>2021-11-13 08:11:58</time>
      </trkpt>
      <trkpt lat="41.45865" lon="2.18618">
        <ele>37.4</ele>
        <time>2021-11-13 08:11:59</time>
      </trkpt>
      <trkpt lat="41.4587" lon="2.18612">
        <ele>37.4</ele>
        <time>2021-11-13 08:12:00</time>
      </trkpt>
      <trkpt lat="41.45874" lon="2.18605">
        <ele>37.6</ele>
        <time>2021-11-13 08:12:01</time>
      </trkpt>
      <trkpt lat="41.45877" lon="2.186">
        <ele>37.8</ele>
        <time>2021-11-13 08:12:02</time>
      </trkpt>
      <trkpt lat="41.45881" lon="2.18594">
        <ele>37.8</ele>
        <time>2021-11-13 08:12:03</time>
      </trkpt>
      <trkpt lat="41.45886" lon="2.18586">
        <ele>37.8</ele>
        <time>2021-11-13 08:12:04</time>
      </trkpt>
      <trkpt lat="41.4589" lon="2.1858">
        <ele>37.8</ele>
        <time>2021-11-13 08:12:05</time>
      </trkpt>
      <trkpt lat="41.45894" lon="2.18573">
        <ele>38</ele>
        <time>2021-11-13 08:12:06</time>
      </trkpt>
      <trkpt lat="41.45897" lon="2.18569">
        <ele>38.2</ele>
        <time>2021-11-13 08:12:07</time>
      </trkpt>
      <trkpt lat="41.45902" lon="2.18561">
        <ele>38.4</ele>
        <time>2021-11-13 08:12:08</time>
      </trkpt>
      <trkpt lat="41.45905" lon="2.18556">
        <ele>38.4</ele>
        <time>2021-11-13 08:12:09</time>
      </trkpt>
      <trkpt lat="41.4591" lon="2.18549">
        <ele>38.4</ele>
        <time>2021-11-13 08:12:10</time>
      </trkpt>
      <trkpt lat="41.45914" lon="2.18542">
        <ele>38.6</ele>
        <time>2021-11-13 08:12:11</time>
      </trkpt>
      <trkpt lat="41.45917" lon="2.18537">
        <ele>38.6</ele>
        <time>2021-11-13 08:12:12</time>
      </trkpt>
      <trkpt lat="41.45921" lon="2.18531">
        <ele>38.8</ele>
        <time>2021-11-13 08:12:13</time>
      </trkpt>
      <trkpt lat="41.45926" lon="2.18523">
        <ele>39</ele>
        <time>2021-11-13 08:12:14</time>
      </trkpt>
      <trkpt lat="41.45929" lon="2.18517">
        <ele>39</ele>
        <time>2021-11-13 08:12:15</time>
      </trkpt>
      <trkpt lat="41.45933" lon="2.18511">
        <ele>39.2</ele>
        <time>2021-11-13 08:12:16</time>
      </trkpt>
      <trkpt lat="41.45937" lon="2.18505">
        <ele>39.4</ele>
        <time>2021-11-13 08:12:17</time>
      </trkpt>
      <trkpt lat="41.4594" lon="2.185">
        <ele>39.4</ele>
        <time>2021-11-13 08:12:18</time>
      </trkpt>
      <trkpt lat="41.45945" lon="2.18493">
        <ele>39.6</ele>
        <time>2021-11-13 08:12:19</time>
      </trkpt>
      <trkpt lat="41.45949" lon="2.18488">
        <ele>39.6</ele>
        <time>2021-11-13 08:12:20</time>
      </trkpt>
      <trkpt lat="41.45953" lon="2.18482">
        <ele>39.8</ele>
        <time>2021-11-13 08:12:21</time>
      </trkpt>
      <trkpt lat="41.45956" lon="2.18476">
        <ele>39.8</ele>
        <time>2021-11-13 08:12:22</time>
      </trkpt>
      <trkpt lat="41.4596" lon="2.18471">
        <ele>40</ele>
        <time>2021-11-13 08:12:23</time>
      </trkpt>
      <trkpt lat="41.45964" lon="2.18466">
        <ele>40.2</ele>
        <time>2021-11-13 08:12:24</time>
      </trkpt>
      <trkpt lat="41.45968" lon="2.18459">
        <ele>40.4</ele>
        <time>2021-11-13 08:12:25</time>
      </trkpt>
      <trkpt lat="41.45972" lon="2.18454">
        <ele>40.4</ele>
        <time>2021-11-13 08:12:26</time>
      </trkpt>
      <trkpt lat="41.45976" lon="2.18448">
        <ele>40.6</ele>
        <time>2021-11-13 08:12:27</time>
      </trkpt>
      <trkpt lat="41.4598" lon="2.18443">
        <ele>40.6</ele>
        <time>2021-11-13 08:12:28</time>
      </trkpt>
      <trkpt lat="41.45983" lon="2.18438">
        <ele>40.8</ele>
        <time>2021-11-13 08:12:29</time>
      </trkpt>
      <trkpt lat="41.45987" lon="2.18433">
        <ele>41</ele>
        <time>2021-11-13 08:12:30</time>
      </trkpt>
      <trkpt lat="41.4599" lon="2.18428">
        <ele>41.2</ele>
        <time>2021-11-13 08:12:31</time>
      </trkpt>
      <trkpt lat="41.45995" lon="2.18422">
        <ele>41.6</ele>
        <time>2021-11-13 08:12:32</time>
      </trkpt>
      <trkpt lat="41.45998" lon="2.18417">
        <ele>41.6</ele>
        <time>2021-11-13 08:12:33</time>
      </trkpt>
      <trkpt lat="41.46001" lon="2.18414">
        <ele>42</ele>
        <time>2021-11-13 08:12:34</time>
      </trkpt>
      <trkpt lat="41.46005" lon="2.18409">
        <ele>42</ele>
        <time>2021-11-13 08:12:35</time>
      </trkpt>
      <trkpt lat="41.46009" lon="2.18403">
        <ele>42.2</ele>
        <time>2021-11-13 08:12:36</time>
      </trkpt>
      <trkpt lat="41.46013" lon="2.18399">
        <ele>42.4</ele>
        <time>2021-11-13 08:12:37</time>
      </trkpt>
      <trkpt lat="41.46017" lon="2.18393">
        <ele>42.4</ele>
        <time>2021-11-13 08:12:38</time>
      </trkpt>
      <trkpt lat="41.46021" lon="2.18389">
        <ele>42.4</ele>
        <time>2021-11-13 08:12:39</time>
      </trkpt>
      <trkpt lat="41.46025" lon="2.18384">
        <ele>42.4</ele>
        <time>2021-11-13 08:12:40</time>
      </trkpt>
      <trkpt lat="41.46029" lon="2.1838">
        <ele>42.8</ele>
        <time>2021-11-13 08:12:41</time>
      </trkpt>
      <trkpt lat="41.46033" lon="2.18374">
        <ele>42.8</ele>
        <time>2021-11-13 08:12:42</time>
      </trkpt>
      <trkpt lat="41.46037" lon="2.1837">
        <ele>43</ele>
        <time>2021-11-13 08:12:43</time>
      </trkpt>
      <trkpt lat="41.46041" lon="2.18365">
        <ele>43</ele>
        <time>2021-11-13 08:12:44</time>
      </trkpt>
      <trkpt lat="41.46045" lon="2.18361">
        <ele>43.4</ele>
        <time>2021-11-13 08:12:45</time>
      </trkpt>
      <trkpt lat="41.46048" lon="2.18357">
        <ele>43.8</ele>
        <time>2021-11-13 08:12:46</time>
      </trkpt>
      <trkpt lat="41.46052" lon="2.18353">
        <ele>43.8</ele>
        <time>2021-11-13 08:12:47</time>
      </trkpt>
      <trkpt lat="41.46056" lon="2.18348">
        <ele>44.2</ele>
        <time>2021-11-13 08:12:48</time>
      </trkpt>
      <trkpt lat="41.4606" lon="2.18344">
        <ele>44.4</ele>
        <time>2021-11-13 08:12:49</time>
      </trkpt>
      <trkpt lat="41.46064" lon="2.1834">
        <ele>44.4</ele>
        <time>2021-11-13 08:12:50</time>
      </trkpt>
      <trkpt lat="41.46066" lon="2.18336">
        <ele>44.6</ele>
        <time>2021-11-13 08:12:51</time>
      </trkpt>
      <trkpt lat="41.4607" lon="2.18331">
        <ele>45</ele>
        <time>2021-11-13 08:12:52</time>
      </trkpt>
      <trkpt lat="41.46074" lon="2.18327">
        <ele>45.2</ele>
        <time>2021-11-13 08:12:53</time>
      </trkpt>
      <trkpt lat="41.46078" lon="2.18324">
        <ele>45.4</ele>
        <time>2021-11-13 08:12:54</time>
      </trkpt>
      <trkpt lat="41.46081" lon="2.18322">
        <ele>45.4</ele>
        <time>2021-11-13 08:12:55</time>
      </trkpt>
      <trkpt lat="41.46085" lon="2.18319">
        <ele>45.6</ele>
        <time>2021-11-13 08:12:56</time>
      </trkpt>
      <trkpt lat="41.46088" lon="2.18316">
        <ele>45.8</ele>
        <time>2021-11-13 08:12:57</time>
      </trkpt>
      <trkpt lat="41.46092" lon="2.18312">
        <ele>46</ele>
        <time>2021-11-13 08:12:58</time>
      </trkpt>
      <trkpt lat="41.46097" lon="2.18307">
        <ele>46.2</ele>
        <time>2021-11-13 08:12:59</time>
      </trkpt>
      <trkpt lat="41.46101" lon="2.18303">
        <ele>46.2</ele>
        <time>2021-11-13 08:13:00</time>
      </trkpt>
      <trkpt lat="41.46104" lon="2.183">
        <ele>46.4</ele>
        <time>2021-11-13 08:13:01</time>
      </trkpt>
      <trkpt lat="41.46108" lon="2.18296">
        <ele>46.4</ele>
        <time>2021-11-13 08:13:02</time>
      </trkpt>
      <trkpt lat="41.46113" lon="2.18291">
        <ele>46.6</ele>
        <time>2021-11-13 08:13:03</time>
      </trkpt>
      <trkpt lat="41.46117" lon="2.18287">
        <ele>46.6</ele>
        <time>2021-11-13 08:13:04</time>
      </trkpt>
      <trkpt lat="41.46122" lon="2.18282">
        <ele>46.8</ele>
        <time>2021-11-13 08:13:05</time>
      </trkpt>
      <trkpt lat="41.46125" lon="2.18279">
        <ele>47</ele>
        <time>2021-11-13 08:13:06</time>
      </trkpt>
      <trkpt lat="41.4613" lon="2.18275">
        <ele>47</ele>
        <time>2021-11-13 08:13:07</time>
      </trkpt>
      <trkpt lat="41.46135" lon="2.1827">
        <ele>47.2</ele>
        <time>2021-11-13 08:13:08</time>
      </trkpt>
      <trkpt lat="41.46139" lon="2.18266">
        <ele>47.2</ele>
        <time>2021-11-13 08:13:09</time>
      </trkpt>
      <trkpt lat="41.46144" lon="2.18262">
        <ele>47.4</ele>
        <time>2021-11-13 08:13:10</time>
      </trkpt>
      <trkpt lat="41.46148" lon="2.18258">
        <ele>47.4</ele>
        <time>2021-11-13 08:13:11</time>
      </trkpt>
      <trkpt lat="41.46152" lon="2.18254">
        <ele>47.6</ele>
        <time>2021-11-13 08:13:12</time>
      </trkpt>
      <trkpt lat="41.46157" lon="2.18249">
        <ele>47.6</ele>
        <time>2021-11-13 08:13:13</time>
      </trkpt>
      <trkpt lat="41.46163" lon="2.18244">
        <ele>47.8</ele>
        <time>2021-11-13 08:13:14</time>
      </trkpt>
      <trkpt lat="41.46167" lon="2.18241">
        <ele>47.8</ele>
        <time>2021-11-13 08:13:15</time>
      </trkpt>
      <trkpt lat="41.46172" lon="2.18236">
        <ele>48</ele>
        <time>2021-11-13 08:13:16</time>
      </trkpt>
      <trkpt lat="41.46177" lon="2.18232">
        <ele>48</ele>
        <time>2021-11-13 08:13:17</time>
      </trkpt>
      <trkpt lat="41.46181" lon="2.18229">
        <ele>48.2</ele>
        <time>2021-11-13 08:13:18</time>
      </trkpt>
      <trkpt lat="41.46187" lon="2.18224">
        <ele>48.2</ele>
        <time>2021-11-13 08:13:19</time>
      </trkpt>
      <trkpt lat="41.46192" lon="2.18221">
        <ele>48.4</ele>
        <time>2021-11-13 08:13:20</time>
      </trkpt>
      <trkpt lat="41.46197" lon="2.18217">
        <ele>48.4</ele>
        <time>2021-11-13 08:13:21</time>
      </trkpt>
      <trkpt lat="41.462" lon="2.18213">
        <ele>48.4</ele>
        <time>2021-11-13 08:13:22</time>
      </trkpt>
      <trkpt lat="41.46205" lon="2.1821">
        <ele>48.4</ele>
        <time>2021-11-13 08:13:23</time>
      </trkpt>
      <trkpt lat="41.46211" lon="2.18205">
        <ele>48.4</ele>
        <time>2021-11-13 08:13:24</time>
      </trkpt>
      <trkpt lat="41.46216" lon="2.182">
        <ele>48.6</ele>
        <time>2021-11-13 08:13:25</time>
      </trkpt>
      <trkpt lat="41.46221" lon="2.18196">
        <ele>48.6</ele>
        <time>2021-11-13 08:13:26</time>
      </trkpt>
      <trkpt lat="41.46225" lon="2.18192">
        <ele>48.6</ele>
        <time>2021-11-13 08:13:27</time>
      </trkpt>
      <trkpt lat="41.4623" lon="2.18188">
        <ele>48.6</ele>
        <time>2021-11-13 08:13:28</time>
      </trkpt>
      <trkpt lat="41.46236" lon="2.18184">
        <ele>48.6</ele>
        <time>2021-11-13 08:13:29</time>
      </trkpt>
      <trkpt lat="41.46242" lon="2.18178">
        <ele>48.6</ele>
        <time>2021-11-13 08:13:30</time>
      </trkpt>
      <trkpt lat="41.46247" lon="2.18174">
        <ele>48.8</ele>
        <time>2021-11-13 08:13:31</time>
      </trkpt>
      <trkpt lat="41.46252" lon="2.1817">
        <ele>49</ele>
        <time>2021-11-13 08:13:32</time>
      </trkpt>
      <trkpt lat="41.46258" lon="2.18165">
        <ele>49</ele>
        <time>2021-11-13 08:13:33</time>
      </trkpt>
      <trkpt lat="41.46262" lon="2.18162">
        <ele>49</ele>
        <time>2021-11-13 08:13:34</time>
      </trkpt>
      <trkpt lat="41.46267" lon="2.18157">
        <ele>49</ele>
        <time>2021-11-13 08:13:35</time>
      </trkpt>
      <trkpt lat="41.46274" lon="2.18151">
        <ele>49</ele>
        <time>2021-11-13 08:13:36</time>
      </trkpt>
      <trkpt lat="41.46279" lon="2.18146">
        <ele>49</ele>
        <time>2021-11-13 08:13:37</time>
      </trkpt>
      <trkpt lat="41.46284" lon="2.18143">
        <ele>49</ele>
        <time>2021-11-13 08:13:38</time>
      </trkpt>
      <trkpt lat="41.46289" lon="2.18138">
        <ele>49</ele>
        <time>2021-11-13 08:13:39</time>
      </trkpt>
      <trkpt lat="41.46295" lon="2.18133">
        <ele>49</ele>
        <time>2021-11-13 08:13:40</time>
      </trkpt>
      <trkpt lat="41.46302" lon="2.18128">
        <ele>49</ele>
        <time>2021-11-13 08:13:41</time>
      </trkpt>
      <trkpt lat="41.46308" lon="2.18123">
        <ele>48.8</ele>
        <time>2021-11-13 08:13:42</time>
      </trkpt>
      <trkpt lat="41.46313" lon="2.18118">
        <ele>48.8</ele>
        <time>2021-11-13 08:13:43</time>
      </trkpt>
      <trkpt lat="41.46318" lon="2.18115">
        <ele>48.6</ele>
        <time>2021-11-13 08:13:44</time>
      </trkpt>
      <trkpt lat="41.46324" lon="2.18109">
        <ele>48.6</ele>
        <time>2021-11-13 08:13:45</time>
      </trkpt>
      <trkpt lat="41.4633" lon="2.18105">
        <ele>48.6</ele>
        <time>2021-11-13 08:13:46</time>
      </trkpt>
      <trkpt lat="41.46335" lon="2.181">
        <ele>48.6</ele>
        <time>2021-11-13 08:13:47</time>
      </trkpt>
      <trkpt lat="41.46341" lon="2.18095">
        <ele>48.6</ele>
        <time>2021-11-13 08:13:48</time>
      </trkpt>
      <trkpt lat="41.46346" lon="2.18091">
        <ele>48.6</ele>
        <time>2021-11-13 08:13:49</time>
      </trkpt>
      <trkpt lat="41.46353" lon="2.18085">
        <ele>48.6</ele>
        <time>2021-11-13 08:13:50</time>
      </trkpt>
      <trkpt lat="41.46359" lon="2.18081">
        <ele>48.4</ele>
        <time>2021-11-13 08:13:51</time>
      </trkpt>
      <trkpt lat="41.46364" lon="2.18076">
        <ele>48.4</ele>
        <time>2021-11-13 08:13:52</time>
      </trkpt>
      <trkpt lat="41.4637" lon="2.18072">
        <ele>48.4</ele>
        <time>2021-11-13 08:13:53</time>
      </trkpt>
      <trkpt lat="41.46376" lon="2.18067">
        <ele>48.4</ele>
        <time>2021-11-13 08:13:54</time>
      </trkpt>
      <trkpt lat="41.46381" lon="2.18064">
        <ele>48.4</ele>
        <time>2021-11-13 08:13:55</time>
      </trkpt>
      <trkpt lat="41.46387" lon="2.1806">
        <ele>48.6</ele>
        <time>2021-11-13 08:13:56</time>
      </trkpt>
      <trkpt lat="41.46394" lon="2.18055">
        <ele>48.6</ele>
        <time>2021-11-13 08:13:57</time>
      </trkpt>
      <trkpt lat="41.46399" lon="2.18051">
        <ele>48.6</ele>
        <time>2021-11-13 08:13:58</time>
      </trkpt>
      <trkpt lat="41.46405" lon="2.18047">
        <ele>48.6</ele>
        <time>2021-11-13 08:13:59</time>
      </trkpt>
      <trkpt lat="41.4641" lon="2.18042">
        <ele>48.6</ele>
        <time>2021-11-13 08:14:00</time>
      </trkpt>
      <trkpt lat="41.46415" lon="2.18039">
        <ele>48.6</ele>
        <time>2021-11-13 08:14:01</time>
      </trkpt>
      <trkpt lat="41.46421" lon="2.18034">
        <ele>48.8</ele>
        <time>2021-11-13 08:14:02</time>
      </trkpt>
      <trkpt lat="41.46427" lon="2.1803">
        <ele>49</ele>
        <time>2021-11-13 08:14:03</time>
      </trkpt>
      <trkpt lat="41.46432" lon="2.18026">
        <ele>49</ele>
        <time>2021-11-13 08:14:04</time>
      </trkpt>
      <trkpt lat="41.46437" lon="2.18022">
        <ele>49.2</ele>
        <time>2021-11-13 08:14:05</time>
      </trkpt>
      <trkpt lat="41.46442" lon="2.18017">
        <ele>49.2</ele>
        <time>2021-11-13 08:14:06</time>
      </trkpt>
      <trkpt lat="41.46447" lon="2.18013">
        <ele>49.4</ele>
        <time>2021-11-13 08:14:07</time>
      </trkpt>
      <trkpt lat="41.46452" lon="2.1801">
        <ele>49.4</ele>
        <time>2021-11-13 08:14:08</time>
      </trkpt>
      <trkpt lat="41.46457" lon="2.18006">
        <ele>49.8</ele>
        <time>2021-11-13 08:14:09</time>
      </trkpt>
      <trkpt lat="41.46462" lon="2.18003">
        <ele>49.8</ele>
        <time>2021-11-13 08:14:10</time>
      </trkpt>
      <trkpt lat="41.46467" lon="2.17999">
        <ele>50.4</ele>
        <time>2021-11-13 08:14:11</time>
      </trkpt>
      <trkpt lat="41.46472" lon="2.17995">
        <ele>50.6</ele>
        <time>2021-11-13 08:14:12</time>
      </trkpt>
      <trkpt lat="41.46477" lon="2.17992">
        <ele>50.8</ele>
        <time>2021-11-13 08:14:13</time>
      </trkpt>
      <trkpt lat="41.46482" lon="2.17989">
        <ele>51</ele>
        <time>2021-11-13 08:14:14</time>
      </trkpt>
      <trkpt lat="41.46487" lon="2.17985">
        <ele>51.2</ele>
        <time>2021-11-13 08:14:15</time>
      </trkpt>
      <trkpt lat="41.46492" lon="2.17982">
        <ele>51.4</ele>
        <time>2021-11-13 08:14:16</time>
      </trkpt>
      <trkpt lat="41.46496" lon="2.17979">
        <ele>51.6</ele>
        <time>2021-11-13 08:14:17</time>
      </trkpt>
      <trkpt lat="41.46502" lon="2.17975">
        <ele>52</ele>
        <time>2021-11-13 08:14:18</time>
      </trkpt>
      <trkpt lat="41.46507" lon="2.17971">
        <ele>52.2</ele>
        <time>2021-11-13 08:14:19</time>
      </trkpt>
      <trkpt lat="41.46511" lon="2.17967">
        <ele>52.8</ele>
        <time>2021-11-13 08:14:20</time>
      </trkpt>
      <trkpt lat="41.46516" lon="2.17963">
        <ele>53.2</ele>
        <time>2021-11-13 08:14:21</time>
      </trkpt>
      <trkpt lat="41.4652" lon="2.1796">
        <ele>53.6</ele>
        <time>2021-11-13 08:14:22</time>
      </trkpt>
      <trkpt lat="41.46526" lon="2.17956">
        <ele>54.2</ele>
        <time>2021-11-13 08:14:23</time>
      </trkpt>
      <trkpt lat="41.4653" lon="2.17953">
        <ele>54.2</ele>
        <time>2021-11-13 08:14:24</time>
      </trkpt>
      <trkpt lat="41.46535" lon="2.17949">
        <ele>54.6</ele>
        <time>2021-11-13 08:14:25</time>
      </trkpt>
      <trkpt lat="41.46539" lon="2.17946">
        <ele>54.8</ele>
        <time>2021-11-13 08:14:26</time>
      </trkpt>
      <trkpt lat="41.46543" lon="2.17943">
        <ele>55.2</ele>
        <time>2021-11-13 08:14:27</time>
      </trkpt>
      <trkpt lat="41.46548" lon="2.17938">
        <ele>55.6</ele>
        <time>2021-11-13 08:14:28</time>
      </trkpt>
      <trkpt lat="41.46553" lon="2.17935">
        <ele>56</ele>
        <time>2021-11-13 08:14:29</time>
      </trkpt>
      <trkpt lat="41.46558" lon="2.17931">
        <ele>56.2</ele>
        <time>2021-11-13 08:14:30</time>
      </trkpt>
      <trkpt lat="41.46563" lon="2.17927">
        <ele>56.4</ele>
        <time>2021-11-13 08:14:31</time>
      </trkpt>
      <trkpt lat="41.46568" lon="2.17923">
        <ele>56.6</ele>
        <time>2021-11-13 08:14:32</time>
      </trkpt>
      <trkpt lat="41.46572" lon="2.1792">
        <ele>56.8</ele>
        <time>2021-11-13 08:14:33</time>
      </trkpt>
      <trkpt lat="41.46578" lon="2.17915">
        <ele>57</ele>
        <time>2021-11-13 08:14:34</time>
      </trkpt>
      <trkpt lat="41.46583" lon="2.17911">
        <ele>57</ele>
        <time>2021-11-13 08:14:35</time>
      </trkpt>
      <trkpt lat="41.46588" lon="2.17907">
        <ele>57.2</ele>
        <time>2021-11-13 08:14:36</time>
      </trkpt>
      <trkpt lat="41.46593" lon="2.17903">
        <ele>57.2</ele>
        <time>2021-11-13 08:14:37</time>
      </trkpt>
      <trkpt lat="41.46598" lon="2.17899">
        <ele>57.2</ele>
        <time>2021-11-13 08:14:38</time>
      </trkpt>
      <trkpt lat="41.46602" lon="2.17896">
        <ele>57.4</ele>
        <time>2021-11-13 08:14:39</time>
      </trkpt>
      <trkpt lat="41.46608" lon="2.17892">
        <ele>57.6</ele>
        <time>2021-11-13 08:14:40</time>
      </trkpt>
      <trkpt lat="41.46613" lon="2.17887">
        <ele>57.6</ele>
        <time>2021-11-13 08:14:41</time>
      </trkpt>
      <trkpt lat="41.46618" lon="2.17883">
        <ele>57.8</ele>
        <time>2021-11-13 08:14:42</time>
      </trkpt>
      <trkpt lat="41.46623" lon="2.1788">
        <ele>57.8</ele>
        <time>2021-11-13 08:14:43</time>
      </trkpt>
      <trkpt lat="41.46628" lon="2.17876">
        <ele>57.8</ele>
        <time>2021-11-13 08:14:44</time>
      </trkpt>
      <trkpt lat="41.46633" lon="2.17872">
        <ele>57.8</ele>
        <time>2021-11-13 08:14:45</time>
      </trkpt>
      <trkpt lat="41.46638" lon="2.17869">
        <ele>57.8</ele>
        <time>2021-11-13 08:14:46</time>
      </trkpt>
      <trkpt lat="41.46643" lon="2.17866">
        <ele>58.2</ele>
        <time>2021-11-13 08:14:47</time>
      </trkpt>
      <trkpt lat="41.46648" lon="2.17865">
        <ele>58.2</ele>
        <time>2021-11-13 08:14:48</time>
      </trkpt>
      <trkpt lat="41.46653" lon="2.17865">
        <ele>58.4</ele>
        <time>2021-11-13 08:14:49</time>
      </trkpt>
      <trkpt lat="41.46659" lon="2.17866">
        <ele>58.4</ele>
        <time>2021-11-13 08:14:50</time>
      </trkpt>
      <trkpt lat="41.46663" lon="2.17869">
        <ele>58.6</ele>
        <time>2021-11-13 08:14:51</time>
      </trkpt>
      <trkpt lat="41.46667" lon="2.17874">
        <ele>58.6</ele>
        <time>2021-11-13 08:14:52</time>
      </trkpt>
      <trkpt lat="41.4667" lon="2.1788">
        <ele>58.6</ele>
        <time>2021-11-13 08:14:53</time>
      </trkpt>
      <trkpt lat="41.46671" lon="2.17887">
        <ele>58.8</ele>
        <time>2021-11-13 08:14:54</time>
      </trkpt>
      <trkpt lat="41.46674" lon="2.17893">
        <ele>58.8</ele>
        <time>2021-11-13 08:14:55</time>
      </trkpt>
      <trkpt lat="41.46677" lon="2.17898">
        <ele>58.8</ele>
        <time>2021-11-13 08:14:56</time>
      </trkpt>
      <trkpt lat="41.46682" lon="2.17901">
        <ele>59</ele>
        <time>2021-11-13 08:14:57</time>
      </trkpt>
      <trkpt lat="41.46688" lon="2.17902">
        <ele>59</ele>
        <time>2021-11-13 08:14:58</time>
      </trkpt>
      <trkpt lat="41.46693" lon="2.179">
        <ele>59</ele>
        <time>2021-11-13 08:14:59</time>
      </trkpt>
      <trkpt lat="41.46698" lon="2.17898">
        <ele>59.2</ele>
        <time>2021-11-13 08:15:00</time>
      </trkpt>
      <trkpt lat="41.46703" lon="2.17895">
        <ele>59.2</ele>
        <time>2021-11-13 08:15:01</time>
      </trkpt>
      <trkpt lat="41.46709" lon="2.17892">
        <ele>59.2</ele>
        <time>2021-11-13 08:15:02</time>
      </trkpt>
      <trkpt lat="41.46715" lon="2.17889">
        <ele>59.2</ele>
        <time>2021-11-13 08:15:03</time>
      </trkpt>
      <trkpt lat="41.46721" lon="2.17887">
        <ele>59</ele>
        <time>2021-11-13 08:15:04</time>
      </trkpt>
      <trkpt lat="41.46727" lon="2.17885">
        <ele>59</ele>
        <time>2021-11-13 08:15:05</time>
      </trkpt>
      <trkpt lat="41.46734" lon="2.17884">
        <ele>59</ele>
        <time>2021-11-13 08:15:06</time>
      </trkpt>
      <trkpt lat="41.4674" lon="2.17883">
        <ele>59</ele>
        <time>2021-11-13 08:15:07</time>
      </trkpt>
      <trkpt lat="41.46747" lon="2.17882">
        <ele>58.8</ele>
        <time>2021-11-13 08:15:08</time>
      </trkpt>
      <trkpt lat="41.46754" lon="2.17882">
        <ele>58.8</ele>
        <time>2021-11-13 08:15:09</time>
      </trkpt>
      <trkpt lat="41.4676" lon="2.17882">
        <ele>58.8</ele>
        <time>2021-11-13 08:15:10</time>
      </trkpt>
      <trkpt lat="41.46767" lon="2.17882">
        <ele>58.8</ele>
        <time>2021-11-13 08:15:11</time>
      </trkpt>
      <trkpt lat="41.46774" lon="2.17883">
        <ele>58.6</ele>
        <time>2021-11-13 08:15:12</time>
      </trkpt>
      <trkpt lat="41.46781" lon="2.17883">
        <ele>58.4</ele>
        <time>2021-11-13 08:15:13</time>
      </trkpt>
      <trkpt lat="41.46787" lon="2.17884">
        <ele>58.4</ele>
        <time>2021-11-13 08:15:14</time>
      </trkpt>
      <trkpt lat="41.46793" lon="2.17885">
        <ele>58.2</ele>
        <time>2021-11-13 08:15:15</time>
      </trkpt>
      <trkpt lat="41.46801" lon="2.17886">
        <ele>58.2</ele>
        <time>2021-11-13 08:15:16</time>
      </trkpt>
      <trkpt lat="41.46806" lon="2.17888">
        <ele>58</ele>
        <time>2021-11-13 08:15:17</time>
      </trkpt>
      <trkpt lat="41.46813" lon="2.1789">
        <ele>57.8</ele>
        <time>2021-11-13 08:15:18</time>
      </trkpt>
      <trkpt lat="41.4682" lon="2.17892">
        <ele>57.8</ele>
        <time>2021-11-13 08:15:19</time>
      </trkpt>
      <trkpt lat="41.46827" lon="2.17894">
        <ele>57.8</ele>
        <time>2021-11-13 08:15:20</time>
      </trkpt>
      <trkpt lat="41.46833" lon="2.17897">
        <ele>57.8</ele>
        <time>2021-11-13 08:15:21</time>
      </trkpt>
      <trkpt lat="41.46839" lon="2.17899">
        <ele>57.6</ele>
        <time>2021-11-13 08:15:22</time>
      </trkpt>
      <trkpt lat="41.46846" lon="2.17903">
        <ele>57.6</ele>
        <time>2021-11-13 08:15:23</time>
      </trkpt>
      <trkpt lat="41.46852" lon="2.17908">
        <ele>57.6</ele>
        <time>2021-11-13 08:15:24</time>
      </trkpt>
      <trkpt lat="41.46858" lon="2.17915">
        <ele>57.6</ele>
        <time>2021-11-13 08:15:25</time>
      </trkpt>
      <trkpt lat="41.46862" lon="2.17923">
        <ele>57.4</ele>
        <time>2021-11-13 08:15:26</time>
      </trkpt>
      <trkpt lat="41.46865" lon="2.17932">
        <ele>57.4</ele>
        <time>2021-11-13 08:15:27</time>
      </trkpt>
      <trkpt lat="41.46867" lon="2.17942">
        <ele>57.4</ele>
        <time>2021-11-13 08:15:28</time>
      </trkpt>
      <trkpt lat="41.46869" lon="2.17953">
        <ele>57.2</ele>
        <time>2021-11-13 08:15:29</time>
      </trkpt>
      <trkpt lat="41.46871" lon="2.17963">
        <ele>57</ele>
        <time>2021-11-13 08:15:30</time>
      </trkpt>
      <trkpt lat="41.46873" lon="2.17974">
        <ele>56.8</ele>
        <time>2021-11-13 08:15:31</time>
      </trkpt>
      <trkpt lat="41.46875" lon="2.17985">
        <ele>56.6</ele>
        <time>2021-11-13 08:15:32</time>
      </trkpt>
      <trkpt lat="41.46878" lon="2.17997">
        <ele>56.2</ele>
        <time>2021-11-13 08:15:33</time>
      </trkpt>
      <trkpt lat="41.46881" lon="2.18009">
        <ele>56</ele>
        <time>2021-11-13 08:15:34</time>
      </trkpt>
      <trkpt lat="41.46883" lon="2.18021">
        <ele>55.4</ele>
        <time>2021-11-13 08:15:35</time>
      </trkpt>
      <trkpt lat="41.46886" lon="2.18032">
        <ele>55.2</ele>
        <time>2021-11-13 08:15:36</time>
      </trkpt>
      <trkpt lat="41.46891" lon="2.18043">
        <ele>54.6</ele>
        <time>2021-11-13 08:15:37</time>
      </trkpt>
      <trkpt lat="41.46896" lon="2.18052">
        <ele>53.4</ele>
        <time>2021-11-13 08:15:38</time>
      </trkpt>
      <trkpt lat="41.46902" lon="2.18061">
        <ele>53</ele>
        <time>2021-11-13 08:15:39</time>
      </trkpt>
      <trkpt lat="41.46909" lon="2.18068">
        <ele>52.6</ele>
        <time>2021-11-13 08:15:40</time>
      </trkpt>
      <trkpt lat="41.46917" lon="2.18073">
        <ele>52.2</ele>
        <time>2021-11-13 08:15:41</time>
      </trkpt>
      <trkpt lat="41.46925" lon="2.18078">
        <ele>51.8</ele>
        <time>2021-11-13 08:15:42</time>
      </trkpt>
      <trkpt lat="41.46934" lon="2.18082">
        <ele>51.2</ele>
        <time>2021-11-13 08:15:43</time>
      </trkpt>
      <trkpt lat="41.46942" lon="2.18086">
        <ele>50.6</ele>
        <time>2021-11-13 08:15:44</time>
      </trkpt>
      <trkpt lat="41.46951" lon="2.18089">
        <ele>50.4</ele>
        <time>2021-11-13 08:15:45</time>
      </trkpt>
      <trkpt lat="41.4696" lon="2.18093">
        <ele>49.8</ele>
        <time>2021-11-13 08:15:46</time>
      </trkpt>
      <trkpt lat="41.46969" lon="2.18098">
        <ele>48.8</ele>
        <time>2021-11-13 08:15:47</time>
      </trkpt>
      <trkpt lat="41.46976" lon="2.18104">
        <ele>48.4</ele>
        <time>2021-11-13 08:15:48</time>
      </trkpt>
      <trkpt lat="41.46983" lon="2.18112">
        <ele>47.6</ele>
        <time>2021-11-13 08:15:49</time>
      </trkpt>
      <trkpt lat="41.4699" lon="2.1812">
        <ele>47.2</ele>
        <time>2021-11-13 08:15:50</time>
      </trkpt>
      <trkpt lat="41.46996" lon="2.18129">
        <ele>46.6</ele>
        <time>2021-11-13 08:15:51</time>
      </trkpt>
      <trkpt lat="41.47003" lon="2.18137">
        <ele>46.4</ele>
        <time>2021-11-13 08:15:52</time>
      </trkpt>
      <trkpt lat="41.4701" lon="2.18145">
        <ele>46.2</ele>
        <time>2021-11-13 08:15:53</time>
      </trkpt>
      <trkpt lat="41.47017" lon="2.18154">
        <ele>46</ele>
        <time>2021-11-13 08:15:54</time>
      </trkpt>
      <trkpt lat="41.47024" lon="2.18162">
        <ele>45.8</ele>
        <time>2021-11-13 08:15:55</time>
      </trkpt>
      <trkpt lat="41.47031" lon="2.18171">
        <ele>45.2</ele>
        <time>2021-11-13 08:15:56</time>
      </trkpt>
      <trkpt lat="41.47038" lon="2.1818">
        <ele>44.8</ele>
        <time>2021-11-13 08:15:57</time>
      </trkpt>
      <trkpt lat="41.47045" lon="2.18188">
        <ele>44.4</ele>
        <time>2021-11-13 08:15:58</time>
      </trkpt>
      <trkpt lat="41.47052" lon="2.18197">
        <ele>44.2</ele>
        <time>2021-11-13 08:15:59</time>
      </trkpt>
      <trkpt lat="41.47059" lon="2.18206">
        <ele>43.6</ele>
        <time>2021-11-13 08:16:00</time>
      </trkpt>
      <trkpt lat="41.47066" lon="2.18214">
        <ele>43.6</ele>
        <time>2021-11-13 08:16:01</time>
      </trkpt>
      <trkpt lat="41.47073" lon="2.18222">
        <ele>43.2</ele>
        <time>2021-11-13 08:16:02</time>
      </trkpt>
      <trkpt lat="41.4708" lon="2.1823">
        <ele>43</ele>
        <time>2021-11-13 08:16:03</time>
      </trkpt>
      <trkpt lat="41.47086" lon="2.18238">
        <ele>42.4</ele>
        <time>2021-11-13 08:16:04</time>
      </trkpt>
      <trkpt lat="41.47093" lon="2.18246">
        <ele>42.2</ele>
        <time>2021-11-13 08:16:05</time>
      </trkpt>
      <trkpt lat="41.47099" lon="2.18253">
        <ele>42</ele>
        <time>2021-11-13 08:16:06</time>
      </trkpt>
      <trkpt lat="41.47104" lon="2.18261">
        <ele>41.8</ele>
        <time>2021-11-13 08:16:07</time>
      </trkpt>
      <trkpt lat="41.4711" lon="2.18268">
        <ele>41.6</ele>
        <time>2021-11-13 08:16:08</time>
      </trkpt>
      <trkpt lat="41.47116" lon="2.18275">
        <ele>41.6</ele>
        <time>2021-11-13 08:16:09</time>
      </trkpt>
      <trkpt lat="41.47122" lon="2.18283">
        <ele>41.4</ele>
        <time>2021-11-13 08:16:10</time>
      </trkpt>
      <trkpt lat="41.47129" lon="2.1829">
        <ele>41.4</ele>
        <time>2021-11-13 08:16:11</time>
      </trkpt>
      <trkpt lat="41.47135" lon="2.18298">
        <ele>41.4</ele>
        <time>2021-11-13 08:16:12</time>
      </trkpt>
      <trkpt lat="41.47141" lon="2.18305">
        <ele>41.4</ele>
        <time>2021-11-13 08:16:13</time>
      </trkpt>
      <trkpt lat="41.47147" lon="2.18313">
        <ele>41.2</ele>
        <time>2021-11-13 08:16:14</time>
      </trkpt>
      <trkpt lat="41.47153" lon="2.1832">
        <ele>41.2</ele>
        <time>2021-11-13 08:16:15</time>
      </trkpt>
      <trkpt lat="41.47158" lon="2.18327">
        <ele>41.2</ele>
        <time>2021-11-13 08:16:16</time>
      </trkpt>
      <trkpt lat="41.47164" lon="2.18334">
        <ele>41.2</ele>
        <time>2021-11-13 08:16:17</time>
      </trkpt>
      <trkpt lat="41.4717" lon="2.18341">
        <ele>41.2</ele>
        <time>2021-11-13 08:16:18</time>
      </trkpt>
      <trkpt lat="41.47175" lon="2.18347">
        <ele>41.2</ele>
        <time>2021-11-13 08:16:19</time>
      </trkpt>
      <trkpt lat="41.4718" lon="2.18354">
        <ele>41.2</ele>
        <time>2021-11-13 08:16:20</time>
      </trkpt>
      <trkpt lat="41.47185" lon="2.1836">
        <ele>41.2</ele>
        <time>2021-11-13 08:16:21</time>
      </trkpt>
      <trkpt lat="41.4719" lon="2.18365">
        <ele>41.4</ele>
        <time>2021-11-13 08:16:22</time>
      </trkpt>
      <trkpt lat="41.47195" lon="2.18371">
        <ele>41.4</ele>
        <time>2021-11-13 08:16:23</time>
      </trkpt>
      <trkpt lat="41.472" lon="2.18377">
        <ele>41.6</ele>
        <time>2021-11-13 08:16:24</time>
      </trkpt>
      <trkpt lat="41.47205" lon="2.18383">
        <ele>41.8</ele>
        <time>2021-11-13 08:16:25</time>
      </trkpt>
      <trkpt lat="41.47211" lon="2.18389">
        <ele>42</ele>
        <time>2021-11-13 08:16:26</time>
      </trkpt>
      <trkpt lat="41.47216" lon="2.18395">
        <ele>42.2</ele>
        <time>2021-11-13 08:16:27</time>
      </trkpt>
      <trkpt lat="41.47222" lon="2.184">
        <ele>42.4</ele>
        <time>2021-11-13 08:16:28</time>
      </trkpt>
      <trkpt lat="41.47227" lon="2.18406">
        <ele>42.6</ele>
        <time>2021-11-13 08:16:29</time>
      </trkpt>
      <trkpt lat="41.47233" lon="2.18412">
        <ele>42.6</ele>
        <time>2021-11-13 08:16:30</time>
      </trkpt>
      <trkpt lat="41.47239" lon="2.18418">
        <ele>42.8</ele>
        <time>2021-11-13 08:16:31</time>
      </trkpt>
      <trkpt lat="41.47246" lon="2.18424">
        <ele>42.8</ele>
        <time>2021-11-13 08:16:32</time>
      </trkpt>
      <trkpt lat="41.47252" lon="2.1843">
        <ele>42.8</ele>
        <time>2021-11-13 08:16:33</time>
      </trkpt>
      <trkpt lat="41.47258" lon="2.18437">
        <ele>42.8</ele>
        <time>2021-11-13 08:16:34</time>
      </trkpt>
      <trkpt lat="41.47265" lon="2.18443">
        <ele>42.8</ele>
        <time>2021-11-13 08:16:35</time>
      </trkpt>
      <trkpt lat="41.4727" lon="2.18448">
        <ele>42.8</ele>
        <time>2021-11-13 08:16:36</time>
      </trkpt>
      <trkpt lat="41.47277" lon="2.18455">
        <ele>42.6</ele>
        <time>2021-11-13 08:16:37</time>
      </trkpt>
      <trkpt lat="41.47284" lon="2.18461">
        <ele>42.6</ele>
        <time>2021-11-13 08:16:38</time>
      </trkpt>
      <trkpt lat="41.4729" lon="2.18467">
        <ele>42.4</ele>
        <time>2021-11-13 08:16:39</time>
      </trkpt>
      <trkpt lat="41.47296" lon="2.18474">
        <ele>42.4</ele>
        <time>2021-11-13 08:16:40</time>
      </trkpt>
      <trkpt lat="41.47302" lon="2.18481">
        <ele>42.4</ele>
        <time>2021-11-13 08:16:41</time>
      </trkpt>
      <trkpt lat="41.47308" lon="2.18488">
        <ele>42.4</ele>
        <time>2021-11-13 08:16:42</time>
      </trkpt>
      <trkpt lat="41.47313" lon="2.18493">
        <ele>42.2</ele>
        <time>2021-11-13 08:16:43</time>
      </trkpt>
      <trkpt lat="41.47319" lon="2.18501">
        <ele>42.2</ele>
        <time>2021-11-13 08:16:44</time>
      </trkpt>
      <trkpt lat="41.47325" lon="2.18507">
        <ele>42.2</ele>
        <time>2021-11-13 08:16:45</time>
      </trkpt>
      <trkpt lat="41.4733" lon="2.18513">
        <ele>42.2</ele>
        <time>2021-11-13 08:16:46</time>
      </trkpt>
      <trkpt lat="41.47334" lon="2.18518">
        <ele>42.2</ele>
        <time>2021-11-13 08:16:47</time>
      </trkpt>
      <trkpt lat="41.4734" lon="2.18524">
        <ele>42.2</ele>
        <time>2021-11-13 08:16:48</time>
      </trkpt>
      <trkpt lat="41.47345" lon="2.18529">
        <ele>42.2</ele>
        <time>2021-11-13 08:16:49</time>
      </trkpt>
      <trkpt lat="41.4735" lon="2.18534">
        <ele>42.2</ele>
        <time>2021-11-13 08:16:50</time>
      </trkpt>
      <trkpt lat="41.47355" lon="2.18539">
        <ele>42.2</ele>
        <time>2021-11-13 08:16:51</time>
      </trkpt>
      <trkpt lat="41.4736" lon="2.18543">
        <ele>42.4</ele>
        <time>2021-11-13 08:16:52</time>
      </trkpt>
      <trkpt lat="41.47365" lon="2.18546">
        <ele>42.4</ele>
        <time>2021-11-13 08:16:53</time>
      </trkpt>
      <trkpt lat="41.47371" lon="2.18551">
        <ele>42.8</ele>
        <time>2021-11-13 08:16:54</time>
      </trkpt>
      <trkpt lat="41.47375" lon="2.18555">
        <ele>43</ele>
        <time>2021-11-13 08:16:55</time>
      </trkpt>
      <trkpt lat="41.4738" lon="2.18559">
        <ele>43.2</ele>
        <time>2021-11-13 08:16:56</time>
      </trkpt>
      <trkpt lat="41.47385" lon="2.18562">
        <ele>43.6</ele>
        <time>2021-11-13 08:16:57</time>
      </trkpt>
      <trkpt lat="41.47391" lon="2.18565">
        <ele>43.8</ele>
        <time>2021-11-13 08:16:58</time>
      </trkpt>
      <trkpt lat="41.47396" lon="2.18568">
        <ele>44.2</ele>
        <time>2021-11-13 08:16:59</time>
      </trkpt>
      <trkpt lat="41.47401" lon="2.18571">
        <ele>44.2</ele>
        <time>2021-11-13 08:17:00</time>
      </trkpt>
      <trkpt lat="41.47407" lon="2.18574">
        <ele>44.8</ele>
        <time>2021-11-13 08:17:01</time>
      </trkpt>
      <trkpt lat="41.47411" lon="2.18578">
        <ele>45</ele>
        <time>2021-11-13 08:17:02</time>
      </trkpt>
      <trkpt lat="41.47414" lon="2.18584">
        <ele>45.4</ele>
        <time>2021-11-13 08:17:03</time>
      </trkpt>
      <trkpt lat="41.47416" lon="2.18591">
        <ele>45.6</ele>
        <time>2021-11-13 08:17:04</time>
      </trkpt>
      <trkpt lat="41.47416" lon="2.18597">
        <ele>46</ele>
        <time>2021-11-13 08:17:05</time>
      </trkpt>
      <trkpt lat="41.47416" lon="2.18605">
        <ele>46.4</ele>
        <time>2021-11-13 08:17:06</time>
      </trkpt>
      <trkpt lat="41.47415" lon="2.18612">
        <ele>46.6</ele>
        <time>2021-11-13 08:17:07</time>
      </trkpt>
      <trkpt lat="41.47414" lon="2.1862">
        <ele>46.8</ele>
        <time>2021-11-13 08:17:08</time>
      </trkpt>
      <trkpt lat="41.47414" lon="2.18625">
        <ele>47</ele>
        <time>2021-11-13 08:17:09</time>
      </trkpt>
      <trkpt lat="41.47413" lon="2.18634">
        <ele>47.4</ele>
        <time>2021-11-13 08:17:10</time>
      </trkpt>
      <trkpt lat="41.47413" lon="2.18642">
        <ele>47.6</ele>
        <time>2021-11-13 08:17:11</time>
      </trkpt>
      <trkpt lat="41.47412" lon="2.18649">
        <ele>48</ele>
        <time>2021-11-13 08:17:12</time>
      </trkpt>
      <trkpt lat="41.47413" lon="2.18657">
        <ele>48</ele>
        <time>2021-11-13 08:17:13</time>
      </trkpt>
      <trkpt lat="41.47413" lon="2.18665">
        <ele>48.4</ele>
        <time>2021-11-13 08:17:14</time>
      </trkpt>
      <trkpt lat="41.47413" lon="2.18673">
        <ele>48.4</ele>
        <time>2021-11-13 08:17:15</time>
      </trkpt>
      <trkpt lat="41.47413" lon="2.18682">
        <ele>48.6</ele>
        <time>2021-11-13 08:17:16</time>
      </trkpt>
      <trkpt lat="41.47413" lon="2.18691">
        <ele>48.6</ele>
        <time>2021-11-13 08:17:17</time>
      </trkpt>
      <trkpt lat="41.47414" lon="2.187">
        <ele>48.8</ele>
        <time>2021-11-13 08:17:18</time>
      </trkpt>
      <trkpt lat="41.47414" lon="2.18708">
        <ele>48.8</ele>
        <time>2021-11-13 08:17:19</time>
      </trkpt>
      <trkpt lat="41.47415" lon="2.1872">
        <ele>48.6</ele>
        <time>2021-11-13 08:17:20</time>
      </trkpt>
      <trkpt lat="41.47415" lon="2.18731">
        <ele>48.6</ele>
        <time>2021-11-13 08:17:21</time>
      </trkpt>
      <trkpt lat="41.47416" lon="2.18742">
        <ele>48.6</ele>
        <time>2021-11-13 08:17:22</time>
      </trkpt>
      <trkpt lat="41.47418" lon="2.18753">
        <ele>48.4</ele>
        <time>2021-11-13 08:17:23</time>
      </trkpt>
      <trkpt lat="41.47421" lon="2.18765">
        <ele>48.2</ele>
        <time>2021-11-13 08:17:24</time>
      </trkpt>
      <trkpt lat="41.47424" lon="2.18774">
        <ele>47.8</ele>
        <time>2021-11-13 08:17:25</time>
      </trkpt>
      <trkpt lat="41.47429" lon="2.18788">
        <ele>47.4</ele>
        <time>2021-11-13 08:17:26</time>
      </trkpt>
      <trkpt lat="41.47435" lon="2.18799">
        <ele>47.2</ele>
        <time>2021-11-13 08:17:27</time>
      </trkpt>
      <trkpt lat="41.47441" lon="2.1881">
        <ele>46.6</ele>
        <time>2021-11-13 08:17:28</time>
      </trkpt>
      <trkpt lat="41.47448" lon="2.1882">
        <ele>46.2</ele>
        <time>2021-11-13 08:17:29</time>
      </trkpt>
      <trkpt lat="41.47455" lon="2.1883">
        <ele>45.2</ele>
        <time>2021-11-13 08:17:30</time>
      </trkpt>
      <trkpt lat="41.47463" lon="2.18839">
        <ele>45</ele>
        <time>2021-11-13 08:17:31</time>
      </trkpt>
      <trkpt lat="41.47472" lon="2.18846">
        <ele>44</ele>
        <time>2021-11-13 08:17:32</time>
      </trkpt>
      <trkpt lat="41.47482" lon="2.18852">
        <ele>43.4</ele>
        <time>2021-11-13 08:17:33</time>
      </trkpt>
      <trkpt lat="41.47491" lon="2.18858">
        <ele>43.2</ele>
        <time>2021-11-13 08:17:34</time>
      </trkpt>
      <trkpt lat="41.475" lon="2.18862">
        <ele>42.4</ele>
        <time>2021-11-13 08:17:35</time>
      </trkpt>
      <trkpt lat="41.47509" lon="2.18865">
        <ele>42</ele>
        <time>2021-11-13 08:17:36</time>
      </trkpt>
      <trkpt lat="41.47517" lon="2.18869">
        <ele>41</ele>
        <time>2021-11-13 08:17:37</time>
      </trkpt>
      <trkpt lat="41.47525" lon="2.18871">
        <ele>40.6</ele>
        <time>2021-11-13 08:17:38</time>
      </trkpt>
      <trkpt lat="41.47533" lon="2.18874">
        <ele>40.2</ele>
        <time>2021-11-13 08:17:39</time>
      </trkpt>
      <trkpt lat="41.47541" lon="2.18876">
        <ele>39.8</ele>
        <time>2021-11-13 08:17:40</time>
      </trkpt>
      <trkpt lat="41.47549" lon="2.18878">
        <ele>39.6</ele>
        <time>2021-11-13 08:17:41</time>
      </trkpt>
      <trkpt lat="41.47556" lon="2.18879">
        <ele>39.4</ele>
        <time>2021-11-13 08:17:42</time>
      </trkpt>
      <trkpt lat="41.47563" lon="2.18881">
        <ele>39.2</ele>
        <time>2021-11-13 08:17:43</time>
      </trkpt>
      <trkpt lat="41.47571" lon="2.18883">
        <ele>39</ele>
        <time>2021-11-13 08:17:44</time>
      </trkpt>
      <trkpt lat="41.47577" lon="2.18884">
        <ele>39</ele>
        <time>2021-11-13 08:17:45</time>
      </trkpt>
      <trkpt lat="41.47584" lon="2.18886">
        <ele>39</ele>
        <time>2021-11-13 08:17:46</time>
      </trkpt>
      <trkpt lat="41.47591" lon="2.18887">
        <ele>38.8</ele>
        <time>2021-11-13 08:17:47</time>
      </trkpt>
      <trkpt lat="41.47598" lon="2.18888">
        <ele>38.8</ele>
        <time>2021-11-13 08:17:48</time>
      </trkpt>
      <trkpt lat="41.47605" lon="2.1889">
        <ele>38.8</ele>
        <time>2021-11-13 08:17:49</time>
      </trkpt>
      <trkpt lat="41.47612" lon="2.18891">
        <ele>38.8</ele>
        <time>2021-11-13 08:17:50</time>
      </trkpt>
      <trkpt lat="41.47618" lon="2.18893">
        <ele>38.8</ele>
        <time>2021-11-13 08:17:51</time>
      </trkpt>
      <trkpt lat="41.47624" lon="2.18894">
        <ele>38.8</ele>
        <time>2021-11-13 08:17:52</time>
      </trkpt>
      <trkpt lat="41.47632" lon="2.18896">
        <ele>38.8</ele>
        <time>2021-11-13 08:17:53</time>
      </trkpt>
      <trkpt lat="41.47639" lon="2.18898">
        <ele>38.6</ele>
        <time>2021-11-13 08:17:54</time>
      </trkpt>
      <trkpt lat="41.47646" lon="2.18899">
        <ele>38.6</ele>
        <time>2021-11-13 08:17:55</time>
      </trkpt>
      <trkpt lat="41.47653" lon="2.18901">
        <ele>38.6</ele>
        <time>2021-11-13 08:17:56</time>
      </trkpt>
      <trkpt lat="41.4766" lon="2.18902">
        <ele>38.6</ele>
        <time>2021-11-13 08:17:57</time>
      </trkpt>
      <trkpt lat="41.47667" lon="2.18904">
        <ele>38.8</ele>
        <time>2021-11-13 08:17:58</time>
      </trkpt>
      <trkpt lat="41.47674" lon="2.18905">
        <ele>38.8</ele>
        <time>2021-11-13 08:17:59</time>
      </trkpt>
      <trkpt lat="41.47681" lon="2.18907">
        <ele>38.8</ele>
        <time>2021-11-13 08:18:00</time>
      </trkpt>
      <trkpt lat="41.47688" lon="2.18908">
        <ele>38.8</ele>
        <time>2021-11-13 08:18:01</time>
      </trkpt>
      <trkpt lat="41.47694" lon="2.18909">
        <ele>38.8</ele>
        <time>2021-11-13 08:18:02</time>
      </trkpt>
      <trkpt lat="41.47701" lon="2.18911">
        <ele>38.8</ele>
        <time>2021-11-13 08:18:03</time>
      </trkpt>
      <trkpt lat="41.47708" lon="2.18913">
        <ele>38.8</ele>
        <time>2021-11-13 08:18:04</time>
      </trkpt>
      <trkpt lat="41.47715" lon="2.18915">
        <ele>38.8</ele>
        <time>2021-11-13 08:18:05</time>
      </trkpt>
      <trkpt lat="41.47722" lon="2.18916">
        <ele>38.8</ele>
        <time>2021-11-13 08:18:06</time>
      </trkpt>
      <trkpt lat="41.47729" lon="2.18918">
        <ele>38.8</ele>
        <time>2021-11-13 08:18:07</time>
      </trkpt>
      <trkpt lat="41.47736" lon="2.1892">
        <ele>38.8</ele>
        <time>2021-11-13 08:18:08</time>
      </trkpt>
      <trkpt lat="41.47743" lon="2.18921">
        <ele>38.8</ele>
        <time>2021-11-13 08:18:09</time>
      </trkpt>
      <trkpt lat="41.4775" lon="2.18923">
        <ele>38.8</ele>
        <time>2021-11-13 08:18:10</time>
      </trkpt>
      <trkpt lat="41.47757" lon="2.18924">
        <ele>38.8</ele>
        <time>2021-11-13 08:18:11</time>
      </trkpt>
      <trkpt lat="41.47764" lon="2.18926">
        <ele>38.8</ele>
        <time>2021-11-13 08:18:12</time>
      </trkpt>
      <trkpt lat="41.47771" lon="2.18927">
        <ele>38.8</ele>
        <time>2021-11-13 08:18:13</time>
      </trkpt>
      <trkpt lat="41.47778" lon="2.18928">
        <ele>38.8</ele>
        <time>2021-11-13 08:18:14</time>
      </trkpt>
      <trkpt lat="41.47785" lon="2.1893">
        <ele>39</ele>
        <time>2021-11-13 08:18:15</time>
      </trkpt>
      <trkpt lat="41.47792" lon="2.18931">
        <ele>39</ele>
        <time>2021-11-13 08:18:16</time>
      </trkpt>
      <trkpt lat="41.47799" lon="2.18933">
        <ele>38.8</ele>
        <time>2021-11-13 08:18:17</time>
      </trkpt>
      <trkpt lat="41.47806" lon="2.18934">
        <ele>39.2</ele>
        <time>2021-11-13 08:18:18</time>
      </trkpt>
      <trkpt lat="41.47813" lon="2.18936">
        <ele>39.2</ele>
        <time>2021-11-13 08:18:19</time>
      </trkpt>
      <trkpt lat="41.4782" lon="2.18938">
        <ele>39.2</ele>
        <time>2021-11-13 08:18:20</time>
      </trkpt>
      <trkpt lat="41.47827" lon="2.18939">
        <ele>39.2</ele>
        <time>2021-11-13 08:18:21</time>
      </trkpt>
      <trkpt lat="41.47834" lon="2.1894">
        <ele>39.2</ele>
        <time>2021-11-13 08:18:22</time>
      </trkpt>
      <trkpt lat="41.47841" lon="2.18942">
        <ele>39.2</ele>
        <time>2021-11-13 08:18:23</time>
      </trkpt>
      <trkpt lat="41.47848" lon="2.18943">
        <ele>39.4</ele>
        <time>2021-11-13 08:18:24</time>
      </trkpt>
      <trkpt lat="41.47856" lon="2.18945">
        <ele>39.4</ele>
        <time>2021-11-13 08:18:25</time>
      </trkpt>
      <trkpt lat="41.47863" lon="2.18946">
        <ele>39.4</ele>
        <time>2021-11-13 08:18:26</time>
      </trkpt>
      <trkpt lat="41.4787" lon="2.18948">
        <ele>39.4</ele>
        <time>2021-11-13 08:18:27</time>
      </trkpt>
      <trkpt lat="41.47877" lon="2.1895">
        <ele>39.4</ele>
        <time>2021-11-13 08:18:28</time>
      </trkpt>
      <trkpt lat="41.47884" lon="2.18952">
        <ele>39.4</ele>
        <time>2021-11-13 08:18:29</time>
      </trkpt>
      <trkpt lat="41.47891" lon="2.18954">
        <ele>39.4</ele>
        <time>2021-11-13 08:18:30</time>
      </trkpt>
      <trkpt lat="41.47898" lon="2.18956">
        <ele>39.4</ele>
        <time>2021-11-13 08:18:31</time>
      </trkpt>
      <trkpt lat="41.47905" lon="2.18958">
        <ele>39.4</ele>
        <time>2021-11-13 08:18:32</time>
      </trkpt>
      <trkpt lat="41.47912" lon="2.18961">
        <ele>39.4</ele>
        <time>2021-11-13 08:18:33</time>
      </trkpt>
      <trkpt lat="41.47919" lon="2.18963">
        <ele>39.6</ele>
        <time>2021-11-13 08:18:34</time>
      </trkpt>
      <trkpt lat="41.47927" lon="2.18965">
        <ele>39.6</ele>
        <time>2021-11-13 08:18:35</time>
      </trkpt>
      <trkpt lat="41.47934" lon="2.18967">
        <ele>39.6</ele>
        <time>2021-11-13 08:18:36</time>
      </trkpt>
      <trkpt lat="41.47941" lon="2.18969">
        <ele>39.6</ele>
        <time>2021-11-13 08:18:37</time>
      </trkpt>
      <trkpt lat="41.47948" lon="2.18971">
        <ele>39.6</ele>
        <time>2021-11-13 08:18:38</time>
      </trkpt>
      <trkpt lat="41.47955" lon="2.18972">
        <ele>39.6</ele>
        <time>2021-11-13 08:18:39</time>
      </trkpt>
      <trkpt lat="41.47962" lon="2.18974">
        <ele>39.6</ele>
        <time>2021-11-13 08:18:40</time>
      </trkpt>
      <trkpt lat="41.47969" lon="2.18976">
        <ele>39.8</ele>
        <time>2021-11-13 08:18:41</time>
      </trkpt>
      <trkpt lat="41.47976" lon="2.18978">
        <ele>39.8</ele>
        <time>2021-11-13 08:18:42</time>
      </trkpt>
      <trkpt lat="41.47983" lon="2.1898">
        <ele>39.8</ele>
        <time>2021-11-13 08:18:43</time>
      </trkpt>
      <trkpt lat="41.4799" lon="2.18981">
        <ele>39.8</ele>
        <time>2021-11-13 08:18:44</time>
      </trkpt>
      <trkpt lat="41.47998" lon="2.18983">
        <ele>39.8</ele>
        <time>2021-11-13 08:18:45</time>
      </trkpt>
      <trkpt lat="41.48005" lon="2.18985">
        <ele>39.8</ele>
        <time>2021-11-13 08:18:46</time>
      </trkpt>
      <trkpt lat="41.48012" lon="2.18987">
        <ele>39.8</ele>
        <time>2021-11-13 08:18:47</time>
      </trkpt>
      <trkpt lat="41.48019" lon="2.18989">
        <ele>39.8</ele>
        <time>2021-11-13 08:18:48</time>
      </trkpt>
      <trkpt lat="41.48025" lon="2.18991">
        <ele>39.8</ele>
        <time>2021-11-13 08:18:49</time>
      </trkpt>
      <trkpt lat="41.48032" lon="2.18992">
        <ele>39.8</ele>
        <time>2021-11-13 08:18:50</time>
      </trkpt>
      <trkpt lat="41.48039" lon="2.18994">
        <ele>39.8</ele>
        <time>2021-11-13 08:18:51</time>
      </trkpt>
      <trkpt lat="41.48046" lon="2.18996">
        <ele>40</ele>
        <time>2021-11-13 08:18:52</time>
      </trkpt>
      <trkpt lat="41.48052" lon="2.18997">
        <ele>40</ele>
        <time>2021-11-13 08:18:53</time>
      </trkpt>
      <trkpt lat="41.48059" lon="2.18998">
        <ele>40.2</ele>
        <time>2021-11-13 08:18:54</time>
      </trkpt>
      <trkpt lat="41.48066" lon="2.18999">
        <ele>40.2</ele>
        <time>2021-11-13 08:18:55</time>
      </trkpt>
      <trkpt lat="41.48072" lon="2.19001">
        <ele>40.4</ele>
        <time>2021-11-13 08:18:56</time>
      </trkpt>
      <trkpt lat="41.48079" lon="2.19002">
        <ele>40.4</ele>
        <time>2021-11-13 08:18:57</time>
      </trkpt>
      <trkpt lat="41.48085" lon="2.19003">
        <ele>40.4</ele>
        <time>2021-11-13 08:18:58</time>
      </trkpt>
      <trkpt lat="41.48092" lon="2.19005">
        <ele>40.4</ele>
        <time>2021-11-13 08:18:59</time>
      </trkpt>
      <trkpt lat="41.48099" lon="2.19006">
        <ele>40.4</ele>
        <time>2021-11-13 08:19:00</time>
      </trkpt>
      <trkpt lat="41.48106" lon="2.19008">
        <ele>40.2</ele>
        <time>2021-11-13 08:19:01</time>
      </trkpt>
      <trkpt lat="41.48113" lon="2.19009">
        <ele>40.2</ele>
        <time>2021-11-13 08:19:02</time>
      </trkpt>
      <trkpt lat="41.4812" lon="2.19011">
        <ele>40.2</ele>
        <time>2021-11-13 08:19:03</time>
      </trkpt>
      <trkpt lat="41.48127" lon="2.19013">
        <ele>40.2</ele>
        <time>2021-11-13 08:19:04</time>
      </trkpt>
      <trkpt lat="41.48134" lon="2.19015">
        <ele>40.2</ele>
        <time>2021-11-13 08:19:05</time>
      </trkpt>
      <trkpt lat="41.48141" lon="2.19017">
        <ele>40.2</ele>
        <time>2021-11-13 08:19:06</time>
      </trkpt>
      <trkpt lat="41.48146" lon="2.19019">
        <ele>40.4</ele>
        <time>2021-11-13 08:19:07</time>
      </trkpt>
      <trkpt lat="41.48154" lon="2.19022">
        <ele>40.4</ele>
        <time>2021-11-13 08:19:08</time>
      </trkpt>
      <trkpt lat="41.48161" lon="2.19023">
        <ele>40.4</ele>
        <time>2021-11-13 08:19:09</time>
      </trkpt>
      <trkpt lat="41.48168" lon="2.19024">
        <ele>40.4</ele>
        <time>2021-11-13 08:19:10</time>
      </trkpt>
      <trkpt lat="41.48175" lon="2.19025">
        <ele>40.4</ele>
        <time>2021-11-13 08:19:11</time>
      </trkpt>
      <trkpt lat="41.48182" lon="2.19025">
        <ele>40.4</ele>
        <time>2021-11-13 08:19:12</time>
      </trkpt>
      <trkpt lat="41.48188" lon="2.19027">
        <ele>40.4</ele>
        <time>2021-11-13 08:19:13</time>
      </trkpt>
      <trkpt lat="41.48195" lon="2.19028">
        <ele>40.4</ele>
        <time>2021-11-13 08:19:14</time>
      </trkpt>
      <trkpt lat="41.48202" lon="2.19029">
        <ele>40.4</ele>
        <time>2021-11-13 08:19:15</time>
      </trkpt>
      <trkpt lat="41.48209" lon="2.1903">
        <ele>40.4</ele>
        <time>2021-11-13 08:19:16</time>
      </trkpt>
      <trkpt lat="41.48216" lon="2.19032">
        <ele>40.6</ele>
        <time>2021-11-13 08:19:17</time>
      </trkpt>
      <trkpt lat="41.48223" lon="2.19034">
        <ele>40.6</ele>
        <time>2021-11-13 08:19:18</time>
      </trkpt>
      <trkpt lat="41.4823" lon="2.19035">
        <ele>40.6</ele>
        <time>2021-11-13 08:19:19</time>
      </trkpt>
      <trkpt lat="41.48237" lon="2.19036">
        <ele>40.8</ele>
        <time>2021-11-13 08:19:20</time>
      </trkpt>
      <trkpt lat="41.48244" lon="2.19037">
        <ele>40.8</ele>
        <time>2021-11-13 08:19:21</time>
      </trkpt>
      <trkpt lat="41.48251" lon="2.19039">
        <ele>40.8</ele>
        <time>2021-11-13 08:19:22</time>
      </trkpt>
      <trkpt lat="41.48258" lon="2.1904">
        <ele>41</ele>
        <time>2021-11-13 08:19:23</time>
      </trkpt>
      <trkpt lat="41.48264" lon="2.19041">
        <ele>41</ele>
        <time>2021-11-13 08:19:24</time>
      </trkpt>
      <trkpt lat="41.48271" lon="2.19041">
        <ele>41</ele>
        <time>2021-11-13 08:19:25</time>
      </trkpt>
      <trkpt lat="41.48278" lon="2.19042">
        <ele>41</ele>
        <time>2021-11-13 08:19:26</time>
      </trkpt>
      <trkpt lat="41.48283" lon="2.19042">
        <ele>41</ele>
        <time>2021-11-13 08:19:27</time>
      </trkpt>
      <trkpt lat="41.48288" lon="2.19044">
        <ele>41.2</ele>
        <time>2021-11-13 08:19:28</time>
      </trkpt>
      <trkpt lat="41.48292" lon="2.19049">
        <ele>41.2</ele>
        <time>2021-11-13 08:19:29</time>
      </trkpt>
      <trkpt lat="41.48292" lon="2.19055">
        <ele>41.4</ele>
        <time>2021-11-13 08:19:30</time>
      </trkpt>
      <trkpt lat="41.48292" lon="2.19062">
        <ele>41.4</ele>
        <time>2021-11-13 08:19:31</time>
      </trkpt>
      <trkpt lat="41.48291" lon="2.19068">
        <ele>41.6</ele>
        <time>2021-11-13 08:19:32</time>
      </trkpt>
      <trkpt lat="41.4829" lon="2.19075">
        <ele>41.8</ele>
        <time>2021-11-13 08:19:33</time>
      </trkpt>
      <trkpt lat="41.48289" lon="2.19083">
        <ele>42</ele>
        <time>2021-11-13 08:19:34</time>
      </trkpt>
      <trkpt lat="41.48288" lon="2.19091">
        <ele>42.4</ele>
        <time>2021-11-13 08:19:35</time>
      </trkpt>
      <trkpt lat="41.48287" lon="2.19099">
        <ele>42.6</ele>
        <time>2021-11-13 08:19:36</time>
      </trkpt>
      <trkpt lat="41.48286" lon="2.19108">
        <ele>42.8</ele>
        <time>2021-11-13 08:19:37</time>
      </trkpt>
      <trkpt lat="41.48285" lon="2.19116">
        <ele>42.8</ele>
        <time>2021-11-13 08:19:38</time>
      </trkpt>
      <trkpt lat="41.48284" lon="2.19125">
        <ele>43</ele>
        <time>2021-11-13 08:19:39</time>
      </trkpt>
      <trkpt lat="41.48283" lon="2.19134">
        <ele>43</ele>
        <time>2021-11-13 08:19:40</time>
      </trkpt>
      <trkpt lat="41.48282" lon="2.19143">
        <ele>43.2</ele>
        <time>2021-11-13 08:19:41</time>
      </trkpt>
      <trkpt lat="41.48281" lon="2.19151">
        <ele>43.2</ele>
        <time>2021-11-13 08:19:42</time>
      </trkpt>
      <trkpt lat="41.4828" lon="2.1916">
        <ele>43.2</ele>
        <time>2021-11-13 08:19:43</time>
      </trkpt>
      <trkpt lat="41.48279" lon="2.19169">
        <ele>43.4</ele>
        <time>2021-11-13 08:19:44</time>
      </trkpt>
      <trkpt lat="41.48277" lon="2.19178">
        <ele>43.4</ele>
        <time>2021-11-13 08:19:45</time>
      </trkpt>
      <trkpt lat="41.48277" lon="2.19186">
        <ele>43.4</ele>
        <time>2021-11-13 08:19:46</time>
      </trkpt>
      <trkpt lat="41.48275" lon="2.19194">
        <ele>43.4</ele>
        <time>2021-11-13 08:19:47</time>
      </trkpt>
      <trkpt lat="41.48274" lon="2.19204">
        <ele>43.4</ele>
        <time>2021-11-13 08:19:48</time>
      </trkpt>
      <trkpt lat="41.48273" lon="2.19214">
        <ele>43.4</ele>
        <time>2021-11-13 08:19:49</time>
      </trkpt>
      <trkpt lat="41.48271" lon="2.19223">
        <ele>43.4</ele>
        <time>2021-11-13 08:19:50</time>
      </trkpt>
      <trkpt lat="41.48269" lon="2.19229">
        <ele>43.4</ele>
        <time>2021-11-13 08:19:51</time>
      </trkpt>
      <trkpt lat="41.48266" lon="2.19235">
        <ele>43.4</ele>
        <time>2021-11-13 08:19:52</time>
      </trkpt>
      <trkpt lat="41.48262" lon="2.19243">
        <ele>43.4</ele>
        <time>2021-11-13 08:19:53</time>
      </trkpt>
      <trkpt lat="41.4826" lon="2.1925">
        <ele>43.4</ele>
        <time>2021-11-13 08:19:54</time>
      </trkpt>
      <trkpt lat="41.48259" lon="2.19257">
        <ele>43.6</ele>
        <time>2021-11-13 08:19:55</time>
      </trkpt>
      <trkpt lat="41.48261" lon="2.19265">
        <ele>43.6</ele>
        <time>2021-11-13 08:19:56</time>
      </trkpt>
      <trkpt lat="41.48265" lon="2.1927">
        <ele>43.6</ele>
        <time>2021-11-13 08:19:57</time>
      </trkpt>
      <trkpt lat="41.4827" lon="2.19272">
        <ele>43.8</ele>
        <time>2021-11-13 08:19:58</time>
      </trkpt>
      <trkpt lat="41.48276" lon="2.19271">
        <ele>43.8</ele>
        <time>2021-11-13 08:19:59</time>
      </trkpt>
      <trkpt lat="41.48282" lon="2.1927">
        <ele>44</ele>
        <time>2021-11-13 08:20:00</time>
      </trkpt>
      <trkpt lat="41.48287" lon="2.19267">
        <ele>44</ele>
        <time>2021-11-13 08:20:01</time>
      </trkpt>
      <trkpt lat="41.48292" lon="2.19266">
        <ele>44.2</ele>
        <time>2021-11-13 08:20:02</time>
      </trkpt>
      <trkpt lat="41.48298" lon="2.19265">
        <ele>44.2</ele>
        <time>2021-11-13 08:20:03</time>
      </trkpt>
      <trkpt lat="41.48306" lon="2.19265">
        <ele>44.2</ele>
        <time>2021-11-13 08:20:04</time>
      </trkpt>
      <trkpt lat="41.48312" lon="2.19265">
        <ele>44.2</ele>
        <time>2021-11-13 08:20:05</time>
      </trkpt>
      <trkpt lat="41.48318" lon="2.19266">
        <ele>44.2</ele>
        <time>2021-11-13 08:20:06</time>
      </trkpt>
      <trkpt lat="41.48325" lon="2.19267">
        <ele>44.2</ele>
        <time>2021-11-13 08:20:07</time>
      </trkpt>
      <trkpt lat="41.48331" lon="2.19268">
        <ele>44.2</ele>
        <time>2021-11-13 08:20:08</time>
      </trkpt>
      <trkpt lat="41.48338" lon="2.19269">
        <ele>44.2</ele>
        <time>2021-11-13 08:20:09</time>
      </trkpt>
      <trkpt lat="41.48345" lon="2.1927">
        <ele>44.2</ele>
        <time>2021-11-13 08:20:10</time>
      </trkpt>
      <trkpt lat="41.48351" lon="2.1927">
        <ele>44</ele>
        <time>2021-11-13 08:20:11</time>
      </trkpt>
      <trkpt lat="41.48358" lon="2.1927">
        <ele>44</ele>
        <time>2021-11-13 08:20:12</time>
      </trkpt>
      <trkpt lat="41.48365" lon="2.19271">
        <ele>44</ele>
        <time>2021-11-13 08:20:13</time>
      </trkpt>
      <trkpt lat="41.48371" lon="2.19271">
        <ele>44</ele>
        <time>2021-11-13 08:20:14</time>
      </trkpt>
      <trkpt lat="41.48378" lon="2.19271">
        <ele>43.8</ele>
        <time>2021-11-13 08:20:15</time>
      </trkpt>
      <trkpt lat="41.48385" lon="2.19271">
        <ele>43.8</ele>
        <time>2021-11-13 08:20:16</time>
      </trkpt>
      <trkpt lat="41.48392" lon="2.1927">
        <ele>43.8</ele>
        <time>2021-11-13 08:20:17</time>
      </trkpt>
      <trkpt lat="41.48398" lon="2.1927">
        <ele>43.8</ele>
        <time>2021-11-13 08:20:18</time>
      </trkpt>
      <trkpt lat="41.48405" lon="2.1927">
        <ele>43.8</ele>
        <time>2021-11-13 08:20:19</time>
      </trkpt>
      <trkpt lat="41.48412" lon="2.1927">
        <ele>43.8</ele>
        <time>2021-11-13 08:20:20</time>
      </trkpt>
      <trkpt lat="41.48419" lon="2.1927">
        <ele>44</ele>
        <time>2021-11-13 08:20:21</time>
      </trkpt>
      <trkpt lat="41.48426" lon="2.1927">
        <ele>44</ele>
        <time>2021-11-13 08:20:22</time>
      </trkpt>
      <trkpt lat="41.48433" lon="2.1927">
        <ele>44</ele>
        <time>2021-11-13 08:20:23</time>
      </trkpt>
      <trkpt lat="41.4844" lon="2.19269">
        <ele>44</ele>
        <time>2021-11-13 08:20:24</time>
      </trkpt>
      <trkpt lat="41.48447" lon="2.19269">
        <ele>44</ele>
        <time>2021-11-13 08:20:25</time>
      </trkpt>
      <trkpt lat="41.48454" lon="2.19269">
        <ele>44</ele>
        <time>2021-11-13 08:20:26</time>
      </trkpt>
      <trkpt lat="41.48462" lon="2.19269">
        <ele>44</ele>
        <time>2021-11-13 08:20:27</time>
      </trkpt>
      <trkpt lat="41.48469" lon="2.19269">
        <ele>44.2</ele>
        <time>2021-11-13 08:20:28</time>
      </trkpt>
      <trkpt lat="41.48476" lon="2.19269">
        <ele>44.2</ele>
        <time>2021-11-13 08:20:29</time>
      </trkpt>
      <trkpt lat="41.48483" lon="2.19269">
        <ele>44.2</ele>
        <time>2021-11-13 08:20:30</time>
      </trkpt>
      <trkpt lat="41.4849" lon="2.1927">
        <ele>44.2</ele>
        <time>2021-11-13 08:20:31</time>
      </trkpt>
      <trkpt lat="41.48497" lon="2.19271">
        <ele>44.2</ele>
        <time>2021-11-13 08:20:32</time>
      </trkpt>
      <trkpt lat="41.48504" lon="2.19273">
        <ele>44.2</ele>
        <time>2021-11-13 08:20:33</time>
      </trkpt>
      <trkpt lat="41.4851" lon="2.19275">
        <ele>44.2</ele>
        <time>2021-11-13 08:20:34</time>
      </trkpt>
      <trkpt lat="41.48516" lon="2.19277">
        <ele>44.2</ele>
        <time>2021-11-13 08:20:35</time>
      </trkpt>
      <trkpt lat="41.48523" lon="2.19279">
        <ele>44.2</ele>
        <time>2021-11-13 08:20:36</time>
      </trkpt>
      <trkpt lat="41.48529" lon="2.19281">
        <ele>44.2</ele>
        <time>2021-11-13 08:20:37</time>
      </trkpt>
      <trkpt lat="41.48536" lon="2.19283">
        <ele>44.2</ele>
        <time>2021-11-13 08:20:38</time>
      </trkpt>
      <trkpt lat="41.48542" lon="2.19286">
        <ele>44.2</ele>
        <time>2021-11-13 08:20:39</time>
      </trkpt>
      <trkpt lat="41.48549" lon="2.19288">
        <ele>44.2</ele>
        <time>2021-11-13 08:20:40</time>
      </trkpt>
      <trkpt lat="41.48555" lon="2.19291">
        <ele>44.4</ele>
        <time>2021-11-13 08:20:41</time>
      </trkpt>
      <trkpt lat="41.48562" lon="2.19293">
        <ele>44.4</ele>
        <time>2021-11-13 08:20:42</time>
      </trkpt>
      <trkpt lat="41.48568" lon="2.19296">
        <ele>44.4</ele>
        <time>2021-11-13 08:20:43</time>
      </trkpt>
      <trkpt lat="41.48573" lon="2.19297">
        <ele>44.4</ele>
        <time>2021-11-13 08:20:44</time>
      </trkpt>
      <trkpt lat="41.4858" lon="2.193">
        <ele>44.6</ele>
        <time>2021-11-13 08:20:45</time>
      </trkpt>
      <trkpt lat="41.48588" lon="2.19303">
        <ele>44.6</ele>
        <time>2021-11-13 08:20:46</time>
      </trkpt>
      <trkpt lat="41.48594" lon="2.19306">
        <ele>44.6</ele>
        <time>2021-11-13 08:20:47</time>
      </trkpt>
      <trkpt lat="41.48601" lon="2.1931">
        <ele>44.6</ele>
        <time>2021-11-13 08:20:48</time>
      </trkpt>
      <trkpt lat="41.48606" lon="2.19313">
        <ele>44.8</ele>
        <time>2021-11-13 08:20:49</time>
      </trkpt>
      <trkpt lat="41.48613" lon="2.19318">
        <ele>44.8</ele>
        <time>2021-11-13 08:20:50</time>
      </trkpt>
      <trkpt lat="41.48619" lon="2.19322">
        <ele>44.8</ele>
        <time>2021-11-13 08:20:51</time>
      </trkpt>
      <trkpt lat="41.48625" lon="2.19327">
        <ele>44.8</ele>
        <time>2021-11-13 08:20:52</time>
      </trkpt>
      <trkpt lat="41.48631" lon="2.19331">
        <ele>44.8</ele>
        <time>2021-11-13 08:20:53</time>
      </trkpt>
      <trkpt lat="41.48638" lon="2.19335">
        <ele>45</ele>
        <time>2021-11-13 08:20:54</time>
      </trkpt>
      <trkpt lat="41.48644" lon="2.19339">
        <ele>45</ele>
        <time>2021-11-13 08:20:55</time>
      </trkpt>
      <trkpt lat="41.48651" lon="2.19342">
        <ele>45</ele>
        <time>2021-11-13 08:20:56</time>
      </trkpt>
      <trkpt lat="41.48657" lon="2.19345">
        <ele>45</ele>
        <time>2021-11-13 08:20:57</time>
      </trkpt>
      <trkpt lat="41.48664" lon="2.19347">
        <ele>45</ele>
        <time>2021-11-13 08:20:58</time>
      </trkpt>
      <trkpt lat="41.48671" lon="2.19349">
        <ele>45.2</ele>
        <time>2021-11-13 08:20:59</time>
      </trkpt>
      <trkpt lat="41.48678" lon="2.19351">
        <ele>45.2</ele>
        <time>2021-11-13 08:21:00</time>
      </trkpt>
      <trkpt lat="41.48685" lon="2.19353">
        <ele>45.2</ele>
        <time>2021-11-13 08:21:01</time>
      </trkpt>
      <trkpt lat="41.48692" lon="2.19355">
        <ele>45.2</ele>
        <time>2021-11-13 08:21:02</time>
      </trkpt>
      <trkpt lat="41.48698" lon="2.19357">
        <ele>45.2</ele>
        <time>2021-11-13 08:21:03</time>
      </trkpt>
      <trkpt lat="41.48706" lon="2.1936">
        <ele>45.2</ele>
        <time>2021-11-13 08:21:04</time>
      </trkpt>
      <trkpt lat="41.48712" lon="2.19362">
        <ele>45.2</ele>
        <time>2021-11-13 08:21:05</time>
      </trkpt>
      <trkpt lat="41.48719" lon="2.19364">
        <ele>45.2</ele>
        <time>2021-11-13 08:21:06</time>
      </trkpt>
      <trkpt lat="41.48726" lon="2.19366">
        <ele>45.2</ele>
        <time>2021-11-13 08:21:07</time>
      </trkpt>
      <trkpt lat="41.48733" lon="2.19368">
        <ele>45.2</ele>
        <time>2021-11-13 08:21:08</time>
      </trkpt>
      <trkpt lat="41.48739" lon="2.19369">
        <ele>45.2</ele>
        <time>2021-11-13 08:21:09</time>
      </trkpt>
      <trkpt lat="41.48747" lon="2.19372">
        <ele>45.2</ele>
        <time>2021-11-13 08:21:10</time>
      </trkpt>
      <trkpt lat="41.48754" lon="2.19374">
        <ele>45.2</ele>
        <time>2021-11-13 08:21:11</time>
      </trkpt>
      <trkpt lat="41.48761" lon="2.19376">
        <ele>45.2</ele>
        <time>2021-11-13 08:21:12</time>
      </trkpt>
      <trkpt lat="41.48768" lon="2.19378">
        <ele>45</ele>
        <time>2021-11-13 08:21:13</time>
      </trkpt>
      <trkpt lat="41.48775" lon="2.19381">
        <ele>45</ele>
        <time>2021-11-13 08:21:14</time>
      </trkpt>
      <trkpt lat="41.48782" lon="2.19383">
        <ele>45</ele>
        <time>2021-11-13 08:21:15</time>
      </trkpt>
      <trkpt lat="41.48789" lon="2.19385">
        <ele>45</ele>
        <time>2021-11-13 08:21:16</time>
      </trkpt>
      <trkpt lat="41.48796" lon="2.19387">
        <ele>45</ele>
        <time>2021-11-13 08:21:17</time>
      </trkpt>
      <trkpt lat="41.48803" lon="2.19389">
        <ele>45</ele>
        <time>2021-11-13 08:21:18</time>
      </trkpt>
      <trkpt lat="41.48811" lon="2.19391">
        <ele>45</ele>
        <time>2021-11-13 08:21:19</time>
      </trkpt>
      <trkpt lat="41.48817" lon="2.19393">
        <ele>45</ele>
        <time>2021-11-13 08:21:20</time>
      </trkpt>
      <trkpt lat="41.48825" lon="2.19394">
        <ele>45.2</ele>
        <time>2021-11-13 08:21:21</time>
      </trkpt>
      <trkpt lat="41.48832" lon="2.19396">
        <ele>45.2</ele>
        <time>2021-11-13 08:21:22</time>
      </trkpt>
      <trkpt lat="41.48839" lon="2.19397">
        <ele>45.2</ele>
        <time>2021-11-13 08:21:23</time>
      </trkpt>
      <trkpt lat="41.48846" lon="2.19397">
        <ele>45.2</ele>
        <time>2021-11-13 08:21:24</time>
      </trkpt>
      <trkpt lat="41.48853" lon="2.19397">
        <ele>45.2</ele>
        <time>2021-11-13 08:21:25</time>
      </trkpt>
      <trkpt lat="41.48861" lon="2.19397">
        <ele>45.4</ele>
        <time>2021-11-13 08:21:26</time>
      </trkpt>
      <trkpt lat="41.48868" lon="2.19396">
        <ele>45.4</ele>
        <time>2021-11-13 08:21:27</time>
      </trkpt>
      <trkpt lat="41.48875" lon="2.19394">
        <ele>45.4</ele>
        <time>2021-11-13 08:21:28</time>
      </trkpt>
      <trkpt lat="41.48882" lon="2.19392">
        <ele>45.4</ele>
        <time>2021-11-13 08:21:29</time>
      </trkpt>
      <trkpt lat="41.48889" lon="2.19389">
        <ele>45.6</ele>
        <time>2021-11-13 08:21:30</time>
      </trkpt>
      <trkpt lat="41.48896" lon="2.19387">
        <ele>45.6</ele>
        <time>2021-11-13 08:21:31</time>
      </trkpt>
      <trkpt lat="41.48903" lon="2.19386">
        <ele>45.6</ele>
        <time>2021-11-13 08:21:32</time>
      </trkpt>
      <trkpt lat="41.48911" lon="2.19385">
        <ele>45.6</ele>
        <time>2021-11-13 08:21:33</time>
      </trkpt>
      <trkpt lat="41.48918" lon="2.19384">
        <ele>45.6</ele>
        <time>2021-11-13 08:21:34</time>
      </trkpt>
      <trkpt lat="41.48926" lon="2.19385">
        <ele>45.6</ele>
        <time>2021-11-13 08:21:35</time>
      </trkpt>
      <trkpt lat="41.48933" lon="2.19387">
        <ele>45.6</ele>
        <time>2021-11-13 08:21:36</time>
      </trkpt>
      <trkpt lat="41.4894" lon="2.19388">
        <ele>45.6</ele>
        <time>2021-11-13 08:21:37</time>
      </trkpt>
      <trkpt lat="41.48947" lon="2.19389">
        <ele>45.6</ele>
        <time>2021-11-13 08:21:38</time>
      </trkpt>
      <trkpt lat="41.48955" lon="2.1939">
        <ele>45.6</ele>
        <time>2021-11-13 08:21:39</time>
      </trkpt>
      <trkpt lat="41.48962" lon="2.19392">
        <ele>45.6</ele>
        <time>2021-11-13 08:21:40</time>
      </trkpt>
      <trkpt lat="41.48968" lon="2.19393">
        <ele>45.6</ele>
        <time>2021-11-13 08:21:41</time>
      </trkpt>
      <trkpt lat="41.48975" lon="2.19394">
        <ele>45.6</ele>
        <time>2021-11-13 08:21:42</time>
      </trkpt>
      <trkpt lat="41.48983" lon="2.19395">
        <ele>45.6</ele>
        <time>2021-11-13 08:21:43</time>
      </trkpt>
      <trkpt lat="41.48991" lon="2.19396">
        <ele>45.6</ele>
        <time>2021-11-13 08:21:44</time>
      </trkpt>
      <trkpt lat="41.48998" lon="2.19397">
        <ele>45.6</ele>
        <time>2021-11-13 08:21:45</time>
      </trkpt>
      <trkpt lat="41.49004" lon="2.19398">
        <ele>45.6</ele>
        <time>2021-11-13 08:21:46</time>
      </trkpt>
      <trkpt lat="41.49012" lon="2.194">
        <ele>45.6</ele>
        <time>2021-11-13 08:21:47</time>
      </trkpt>
      <trkpt lat="41.49021" lon="2.19401">
        <ele>45.6</ele>
        <time>2021-11-13 08:21:48</time>
      </trkpt>
      <trkpt lat="41.49028" lon="2.19402">
        <ele>45.8</ele>
        <time>2021-11-13 08:21:49</time>
      </trkpt>
      <trkpt lat="41.49036" lon="2.19403">
        <ele>45.8</ele>
        <time>2021-11-13 08:21:50</time>
      </trkpt>
      <trkpt lat="41.49044" lon="2.19404">
        <ele>46</ele>
        <time>2021-11-13 08:21:51</time>
      </trkpt>
      <trkpt lat="41.49051" lon="2.19405">
        <ele>46</ele>
        <time>2021-11-13 08:21:52</time>
      </trkpt>
      <trkpt lat="41.49059" lon="2.19407">
        <ele>46</ele>
        <time>2021-11-13 08:21:53</time>
      </trkpt>
      <trkpt lat="41.49066" lon="2.19409">
        <ele>46.2</ele>
        <time>2021-11-13 08:21:54</time>
      </trkpt>
      <trkpt lat="41.49073" lon="2.19411">
        <ele>46.2</ele>
        <time>2021-11-13 08:21:55</time>
      </trkpt>
      <trkpt lat="41.4908" lon="2.19414">
        <ele>46.2</ele>
        <time>2021-11-13 08:21:56</time>
      </trkpt>
      <trkpt lat="41.49088" lon="2.19417">
        <ele>46.2</ele>
        <time>2021-11-13 08:21:57</time>
      </trkpt>
      <trkpt lat="41.49095" lon="2.19421">
        <ele>46.4</ele>
        <time>2021-11-13 08:21:58</time>
      </trkpt>
      <trkpt lat="41.49102" lon="2.19425">
        <ele>46.4</ele>
        <time>2021-11-13 08:21:59</time>
      </trkpt>
      <trkpt lat="41.4911" lon="2.19428">
        <ele>46.4</ele>
        <time>2021-11-13 08:22:00</time>
      </trkpt>
      <trkpt lat="41.49117" lon="2.19432">
        <ele>46.4</ele>
        <time>2021-11-13 08:22:01</time>
      </trkpt>
      <trkpt lat="41.49122" lon="2.19435">
        <ele>46.4</ele>
        <time>2021-11-13 08:22:02</time>
      </trkpt>
      <trkpt lat="41.49131" lon="2.19439">
        <ele>46.4</ele>
        <time>2021-11-13 08:22:03</time>
      </trkpt>
      <trkpt lat="41.49137" lon="2.19443">
        <ele>46.4</ele>
        <time>2021-11-13 08:22:04</time>
      </trkpt>
      <trkpt lat="41.49144" lon="2.19448">
        <ele>46.4</ele>
        <time>2021-11-13 08:22:05</time>
      </trkpt>
      <trkpt lat="41.4915" lon="2.19452">
        <ele>46.4</ele>
        <time>2021-11-13 08:22:06</time>
      </trkpt>
      <trkpt lat="41.49156" lon="2.19457">
        <ele>46.4</ele>
        <time>2021-11-13 08:22:07</time>
      </trkpt>
      <trkpt lat="41.49163" lon="2.19463">
        <ele>46.4</ele>
        <time>2021-11-13 08:22:08</time>
      </trkpt>
      <trkpt lat="41.49169" lon="2.19468">
        <ele>46.4</ele>
        <time>2021-11-13 08:22:09</time>
      </trkpt>
      <trkpt lat="41.49174" lon="2.19473">
        <ele>46.4</ele>
        <time>2021-11-13 08:22:10</time>
      </trkpt>
      <trkpt lat="41.49182" lon="2.19479">
        <ele>46.4</ele>
        <time>2021-11-13 08:22:11</time>
      </trkpt>
      <trkpt lat="41.49187" lon="2.19483">
        <ele>46.4</ele>
        <time>2021-11-13 08:22:12</time>
      </trkpt>
      <trkpt lat="41.49194" lon="2.19489">
        <ele>46.4</ele>
        <time>2021-11-13 08:22:13</time>
      </trkpt>
      <trkpt lat="41.49201" lon="2.19494">
        <ele>46.4</ele>
        <time>2021-11-13 08:22:14</time>
      </trkpt>
      <trkpt lat="41.49207" lon="2.195">
        <ele>46.4</ele>
        <time>2021-11-13 08:22:15</time>
      </trkpt>
      <trkpt lat="41.49212" lon="2.19504">
        <ele>46.4</ele>
        <time>2021-11-13 08:22:16</time>
      </trkpt>
      <trkpt lat="41.4922" lon="2.1951">
        <ele>46.4</ele>
        <time>2021-11-13 08:22:17</time>
      </trkpt>
      <trkpt lat="41.49226" lon="2.19515">
        <ele>46.4</ele>
        <time>2021-11-13 08:22:18</time>
      </trkpt>
      <trkpt lat="41.49232" lon="2.19521">
        <ele>46.6</ele>
        <time>2021-11-13 08:22:19</time>
      </trkpt>
      <trkpt lat="41.49238" lon="2.19527">
        <ele>46.4</ele>
        <time>2021-11-13 08:22:20</time>
      </trkpt>
      <trkpt lat="41.49243" lon="2.19532">
        <ele>46.4</ele>
        <time>2021-11-13 08:22:21</time>
      </trkpt>
      <trkpt lat="41.4925" lon="2.19539">
        <ele>46.6</ele>
        <time>2021-11-13 08:22:22</time>
      </trkpt>
      <trkpt lat="41.49256" lon="2.19546">
        <ele>46.6</ele>
        <time>2021-11-13 08:22:23</time>
      </trkpt>
      <trkpt lat="41.49261" lon="2.19553">
        <ele>46.6</ele>
        <time>2021-11-13 08:22:24</time>
      </trkpt>
      <trkpt lat="41.49266" lon="2.1956">
        <ele>46.6</ele>
        <time>2021-11-13 08:22:25</time>
      </trkpt>
      <trkpt lat="41.49271" lon="2.19567">
        <ele>46.6</ele>
        <time>2021-11-13 08:22:26</time>
      </trkpt>
      <trkpt lat="41.49276" lon="2.19574">
        <ele>47</ele>
        <time>2021-11-13 08:22:27</time>
      </trkpt>
      <trkpt lat="41.49282" lon="2.19581">
        <ele>46.8</ele>
        <time>2021-11-13 08:22:28</time>
      </trkpt>
      <trkpt lat="41.49287" lon="2.19589">
        <ele>46.8</ele>
        <time>2021-11-13 08:22:29</time>
      </trkpt>
      <trkpt lat="41.49292" lon="2.19596">
        <ele>47</ele>
        <time>2021-11-13 08:22:30</time>
      </trkpt>
      <trkpt lat="41.49297" lon="2.19603">
        <ele>46.8</ele>
        <time>2021-11-13 08:22:31</time>
      </trkpt>
      <trkpt lat="41.49302" lon="2.1961">
        <ele>46.8</ele>
        <time>2021-11-13 08:22:32</time>
      </trkpt>
      <trkpt lat="41.49308" lon="2.19616">
        <ele>46.8</ele>
        <time>2021-11-13 08:22:33</time>
      </trkpt>
      <trkpt lat="41.49314" lon="2.19623">
        <ele>46.8</ele>
        <time>2021-11-13 08:22:34</time>
      </trkpt>
      <trkpt lat="41.4932" lon="2.19628">
        <ele>46.8</ele>
        <time>2021-11-13 08:22:35</time>
      </trkpt>
      <trkpt lat="41.49327" lon="2.19633">
        <ele>46.8</ele>
        <time>2021-11-13 08:22:36</time>
      </trkpt>
      <trkpt lat="41.49334" lon="2.19636">
        <ele>47</ele>
        <time>2021-11-13 08:22:37</time>
      </trkpt>
      <trkpt lat="41.49341" lon="2.19639">
        <ele>47</ele>
        <time>2021-11-13 08:22:38</time>
      </trkpt>
      <trkpt lat="41.49348" lon="2.19642">
        <ele>47</ele>
        <time>2021-11-13 08:22:39</time>
      </trkpt>
      <trkpt lat="41.49356" lon="2.19644">
        <ele>47</ele>
        <time>2021-11-13 08:22:40</time>
      </trkpt>
      <trkpt lat="41.49363" lon="2.19647">
        <ele>47</ele>
        <time>2021-11-13 08:22:41</time>
      </trkpt>
      <trkpt lat="41.49371" lon="2.19651">
        <ele>47</ele>
        <time>2021-11-13 08:22:42</time>
      </trkpt>
      <trkpt lat="41.49378" lon="2.19655">
        <ele>47.2</ele>
        <time>2021-11-13 08:22:43</time>
      </trkpt>
      <trkpt lat="41.49383" lon="2.19658">
        <ele>47.2</ele>
        <time>2021-11-13 08:22:44</time>
      </trkpt>
      <trkpt lat="41.4939" lon="2.19663">
        <ele>47.2</ele>
        <time>2021-11-13 08:22:45</time>
      </trkpt>
      <trkpt lat="41.49398" lon="2.19669">
        <ele>47.2</ele>
        <time>2021-11-13 08:22:46</time>
      </trkpt>
      <trkpt lat="41.49405" lon="2.19674">
        <ele>47.2</ele>
        <time>2021-11-13 08:22:47</time>
      </trkpt>
      <trkpt lat="41.49411" lon="2.1968">
        <ele>47.2</ele>
        <time>2021-11-13 08:22:48</time>
      </trkpt>
      <trkpt lat="41.49418" lon="2.19685">
        <ele>47.4</ele>
        <time>2021-11-13 08:22:49</time>
      </trkpt>
      <trkpt lat="41.49423" lon="2.19689">
        <ele>47.4</ele>
        <time>2021-11-13 08:22:50</time>
      </trkpt>
      <trkpt lat="41.4943" lon="2.19695">
        <ele>47.4</ele>
        <time>2021-11-13 08:22:51</time>
      </trkpt>
      <trkpt lat="41.49436" lon="2.19701">
        <ele>47.4</ele>
        <time>2021-11-13 08:22:52</time>
      </trkpt>
      <trkpt lat="41.49442" lon="2.19707">
        <ele>47.4</ele>
        <time>2021-11-13 08:22:53</time>
      </trkpt>
      <trkpt lat="41.49448" lon="2.19713">
        <ele>47.4</ele>
        <time>2021-11-13 08:22:54</time>
      </trkpt>
      <trkpt lat="41.49453" lon="2.1972">
        <ele>47.6</ele>
        <time>2021-11-13 08:22:55</time>
      </trkpt>
      <trkpt lat="41.49459" lon="2.19726">
        <ele>47.6</ele>
        <time>2021-11-13 08:22:56</time>
      </trkpt>
      <trkpt lat="41.49464" lon="2.19733">
        <ele>47.6</ele>
        <time>2021-11-13 08:22:57</time>
      </trkpt>
      <trkpt lat="41.49469" lon="2.1974">
        <ele>47.6</ele>
        <time>2021-11-13 08:22:58</time>
      </trkpt>
      <trkpt lat="41.49474" lon="2.19747">
        <ele>47.6</ele>
        <time>2021-11-13 08:22:59</time>
      </trkpt>
      <trkpt lat="41.49479" lon="2.19754">
        <ele>47.6</ele>
        <time>2021-11-13 08:23:00</time>
      </trkpt>
      <trkpt lat="41.49485" lon="2.19761">
        <ele>47.6</ele>
        <time>2021-11-13 08:23:01</time>
      </trkpt>
      <trkpt lat="41.4949" lon="2.19768">
        <ele>47.6</ele>
        <time>2021-11-13 08:23:02</time>
      </trkpt>
      <trkpt lat="41.49496" lon="2.19774">
        <ele>47.8</ele>
        <time>2021-11-13 08:23:03</time>
      </trkpt>
      <trkpt lat="41.49501" lon="2.19781">
        <ele>47.8</ele>
        <time>2021-11-13 08:23:04</time>
      </trkpt>
      <trkpt lat="41.49506" lon="2.19788">
        <ele>47.8</ele>
        <time>2021-11-13 08:23:05</time>
      </trkpt>
      <trkpt lat="41.49511" lon="2.19794">
        <ele>48</ele>
        <time>2021-11-13 08:23:06</time>
      </trkpt>
      <trkpt lat="41.49516" lon="2.19801">
        <ele>48</ele>
        <time>2021-11-13 08:23:07</time>
      </trkpt>
      <trkpt lat="41.49521" lon="2.19807">
        <ele>48</ele>
        <time>2021-11-13 08:23:08</time>
      </trkpt>
      <trkpt lat="41.49526" lon="2.19813">
        <ele>48</ele>
        <time>2021-11-13 08:23:09</time>
      </trkpt>
      <trkpt lat="41.49532" lon="2.19821">
        <ele>48.2</ele>
        <time>2021-11-13 08:23:10</time>
      </trkpt>
      <trkpt lat="41.49537" lon="2.19827">
        <ele>48.2</ele>
        <time>2021-11-13 08:23:11</time>
      </trkpt>
      <trkpt lat="41.49542" lon="2.19834">
        <ele>48.2</ele>
        <time>2021-11-13 08:23:12</time>
      </trkpt>
      <trkpt lat="41.49548" lon="2.19841">
        <ele>48.2</ele>
        <time>2021-11-13 08:23:13</time>
      </trkpt>
      <trkpt lat="41.49553" lon="2.19847">
        <ele>48.2</ele>
        <time>2021-11-13 08:23:14</time>
      </trkpt>
      <trkpt lat="41.49559" lon="2.19854">
        <ele>48.4</ele>
        <time>2021-11-13 08:23:15</time>
      </trkpt>
      <trkpt lat="41.49564" lon="2.19861">
        <ele>48.4</ele>
        <time>2021-11-13 08:23:16</time>
      </trkpt>
      <trkpt lat="41.49569" lon="2.19868">
        <ele>48.4</ele>
        <time>2021-11-13 08:23:17</time>
      </trkpt>
      <trkpt lat="41.49574" lon="2.19873">
        <ele>48.4</ele>
        <time>2021-11-13 08:23:18</time>
      </trkpt>
      <trkpt lat="41.49579" lon="2.1988">
        <ele>48.4</ele>
        <time>2021-11-13 08:23:19</time>
      </trkpt>
      <trkpt lat="41.49585" lon="2.19888">
        <ele>48.4</ele>
        <time>2021-11-13 08:23:20</time>
      </trkpt>
      <trkpt lat="41.49591" lon="2.19895">
        <ele>48.4</ele>
        <time>2021-11-13 08:23:21</time>
      </trkpt>
      <trkpt lat="41.49596" lon="2.19902">
        <ele>48.4</ele>
        <time>2021-11-13 08:23:22</time>
      </trkpt>
      <trkpt lat="41.49602" lon="2.19908">
        <ele>48.6</ele>
        <time>2021-11-13 08:23:23</time>
      </trkpt>
      <trkpt lat="41.49609" lon="2.19913">
        <ele>48.6</ele>
        <time>2021-11-13 08:23:24</time>
      </trkpt>
      <trkpt lat="41.49616" lon="2.19917">
        <ele>48.6</ele>
        <time>2021-11-13 08:23:25</time>
      </trkpt>
      <trkpt lat="41.49623" lon="2.19919">
        <ele>48.6</ele>
        <time>2021-11-13 08:23:26</time>
      </trkpt>
      <trkpt lat="41.4963" lon="2.1992">
        <ele>48.6</ele>
        <time>2021-11-13 08:23:27</time>
      </trkpt>
      <trkpt lat="41.49638" lon="2.1992">
        <ele>48.6</ele>
        <time>2021-11-13 08:23:28</time>
      </trkpt>
      <trkpt lat="41.49646" lon="2.19919">
        <ele>48.8</ele>
        <time>2021-11-13 08:23:29</time>
      </trkpt>
      <trkpt lat="41.49653" lon="2.19917">
        <ele>48.8</ele>
        <time>2021-11-13 08:23:30</time>
      </trkpt>
      <trkpt lat="41.49661" lon="2.19914">
        <ele>48.8</ele>
        <time>2021-11-13 08:23:31</time>
      </trkpt>
      <trkpt lat="41.49668" lon="2.19912">
        <ele>49</ele>
        <time>2021-11-13 08:23:32</time>
      </trkpt>
      <trkpt lat="41.49676" lon="2.19909">
        <ele>49</ele>
        <time>2021-11-13 08:23:33</time>
      </trkpt>
      <trkpt lat="41.49683" lon="2.19907">
        <ele>49</ele>
        <time>2021-11-13 08:23:34</time>
      </trkpt>
      <trkpt lat="41.49691" lon="2.19905">
        <ele>49</ele>
        <time>2021-11-13 08:23:35</time>
      </trkpt>
      <trkpt lat="41.49698" lon="2.19903">
        <ele>49</ele>
        <time>2021-11-13 08:23:36</time>
      </trkpt>
      <trkpt lat="41.49706" lon="2.19901">
        <ele>49</ele>
        <time>2021-11-13 08:23:37</time>
      </trkpt>
      <trkpt lat="41.49712" lon="2.199">
        <ele>49</ele>
        <time>2021-11-13 08:23:38</time>
      </trkpt>
      <trkpt lat="41.49719" lon="2.19899">
        <ele>49</ele>
        <time>2021-11-13 08:23:39</time>
      </trkpt>
      <trkpt lat="41.49729" lon="2.19899">
        <ele>49</ele>
        <time>2021-11-13 08:23:40</time>
      </trkpt>
      <trkpt lat="41.49736" lon="2.19899">
        <ele>48.8</ele>
        <time>2021-11-13 08:23:41</time>
      </trkpt>
      <trkpt lat="41.49743" lon="2.199">
        <ele>48.8</ele>
        <time>2021-11-13 08:23:42</time>
      </trkpt>
      <trkpt lat="41.49751" lon="2.19902">
        <ele>48.8</ele>
        <time>2021-11-13 08:23:43</time>
      </trkpt>
      <trkpt lat="41.49759" lon="2.19904">
        <ele>48.8</ele>
        <time>2021-11-13 08:23:44</time>
      </trkpt>
      <trkpt lat="41.49767" lon="2.19905">
        <ele>48.6</ele>
        <time>2021-11-13 08:23:45</time>
      </trkpt>
      <trkpt lat="41.49775" lon="2.19906">
        <ele>48.6</ele>
        <time>2021-11-13 08:23:46</time>
      </trkpt>
      <trkpt lat="41.49782" lon="2.19906">
        <ele>48.6</ele>
        <time>2021-11-13 08:23:47</time>
      </trkpt>
      <trkpt lat="41.4979" lon="2.19904">
        <ele>48.6</ele>
        <time>2021-11-13 08:23:48</time>
      </trkpt>
      <trkpt lat="41.49798" lon="2.19902">
        <ele>48.6</ele>
        <time>2021-11-13 08:23:49</time>
      </trkpt>
      <trkpt lat="41.49805" lon="2.19899">
        <ele>48.6</ele>
        <time>2021-11-13 08:23:50</time>
      </trkpt>
      <trkpt lat="41.49813" lon="2.19896">
        <ele>48.6</ele>
        <time>2021-11-13 08:23:51</time>
      </trkpt>
      <trkpt lat="41.4982" lon="2.19892">
        <ele>48.6</ele>
        <time>2021-11-13 08:23:52</time>
      </trkpt>
      <trkpt lat="41.49828" lon="2.19889">
        <ele>48.6</ele>
        <time>2021-11-13 08:23:53</time>
      </trkpt>
      <trkpt lat="41.49835" lon="2.19886">
        <ele>48.6</ele>
        <time>2021-11-13 08:23:54</time>
      </trkpt>
      <trkpt lat="41.49843" lon="2.19884">
        <ele>48.6</ele>
        <time>2021-11-13 08:23:55</time>
      </trkpt>
      <trkpt lat="41.4985" lon="2.19883">
        <ele>48.6</ele>
        <time>2021-11-13 08:23:56</time>
      </trkpt>
      <trkpt lat="41.49858" lon="2.19882">
        <ele>48.6</ele>
        <time>2021-11-13 08:23:57</time>
      </trkpt>
      <trkpt lat="41.49865" lon="2.19883">
        <ele>48.6</ele>
        <time>2021-11-13 08:23:58</time>
      </trkpt>
      <trkpt lat="41.49873" lon="2.19885">
        <ele>48.6</ele>
        <time>2021-11-13 08:23:59</time>
      </trkpt>
      <trkpt lat="41.4988" lon="2.19887">
        <ele>48.6</ele>
        <time>2021-11-13 08:24:00</time>
      </trkpt>
      <trkpt lat="41.49887" lon="2.1989">
        <ele>48.6</ele>
        <time>2021-11-13 08:24:01</time>
      </trkpt>
      <trkpt lat="41.49894" lon="2.19894">
        <ele>48.6</ele>
        <time>2021-11-13 08:24:02</time>
      </trkpt>
      <trkpt lat="41.49901" lon="2.19898">
        <ele>48.6</ele>
        <time>2021-11-13 08:24:03</time>
      </trkpt>
      <trkpt lat="41.49908" lon="2.19902">
        <ele>48.6</ele>
        <time>2021-11-13 08:24:04</time>
      </trkpt>
      <trkpt lat="41.49915" lon="2.19907">
        <ele>48.6</ele>
        <time>2021-11-13 08:24:05</time>
      </trkpt>
      <trkpt lat="41.49921" lon="2.19912">
        <ele>48.6</ele>
        <time>2021-11-13 08:24:06</time>
      </trkpt>
      <trkpt lat="41.49927" lon="2.19918">
        <ele>48.6</ele>
        <time>2021-11-13 08:24:07</time>
      </trkpt>
      <trkpt lat="41.49933" lon="2.19924">
        <ele>48.6</ele>
        <time>2021-11-13 08:24:08</time>
      </trkpt>
      <trkpt lat="41.49939" lon="2.1993">
        <ele>48.6</ele>
        <time>2021-11-13 08:24:09</time>
      </trkpt>
      <trkpt lat="41.49945" lon="2.19937">
        <ele>48.6</ele>
        <time>2021-11-13 08:24:10</time>
      </trkpt>
      <trkpt lat="41.49951" lon="2.19945">
        <ele>48.6</ele>
        <time>2021-11-13 08:24:11</time>
      </trkpt>
      <trkpt lat="41.49956" lon="2.19952">
        <ele>48.6</ele>
        <time>2021-11-13 08:24:12</time>
      </trkpt>
      <trkpt lat="41.4996" lon="2.1996">
        <ele>48.6</ele>
        <time>2021-11-13 08:24:13</time>
      </trkpt>
      <trkpt lat="41.49965" lon="2.19968">
        <ele>48.6</ele>
        <time>2021-11-13 08:24:14</time>
      </trkpt>
      <trkpt lat="41.4997" lon="2.19976">
        <ele>48.6</ele>
        <time>2021-11-13 08:24:15</time>
      </trkpt>
      <trkpt lat="41.49974" lon="2.19984">
        <ele>48.6</ele>
        <time>2021-11-13 08:24:16</time>
      </trkpt>
      <trkpt lat="41.49978" lon="2.19992">
        <ele>48.6</ele>
        <time>2021-11-13 08:24:17</time>
      </trkpt>
      <trkpt lat="41.49981" lon="2.20001">
        <ele>48.6</ele>
        <time>2021-11-13 08:24:18</time>
      </trkpt>
      <trkpt lat="41.49984" lon="2.2001">
        <ele>48.6</ele>
        <time>2021-11-13 08:24:19</time>
      </trkpt>
      <trkpt lat="41.49987" lon="2.20019">
        <ele>48.6</ele>
        <time>2021-11-13 08:24:20</time>
      </trkpt>
      <trkpt lat="41.4999" lon="2.20029">
        <ele>48.6</ele>
        <time>2021-11-13 08:24:21</time>
      </trkpt>
      <trkpt lat="41.49993" lon="2.20038">
        <ele>48.8</ele>
        <time>2021-11-13 08:24:22</time>
      </trkpt>
      <trkpt lat="41.49996" lon="2.20047">
        <ele>48.8</ele>
        <time>2021-11-13 08:24:23</time>
      </trkpt>
      <trkpt lat="41.49999" lon="2.20056">
        <ele>48.8</ele>
        <time>2021-11-13 08:24:24</time>
      </trkpt>
      <trkpt lat="41.50001" lon="2.20065">
        <ele>48.8</ele>
        <time>2021-11-13 08:24:25</time>
      </trkpt>
      <trkpt lat="41.50004" lon="2.20074">
        <ele>48.8</ele>
        <time>2021-11-13 08:24:26</time>
      </trkpt>
      <trkpt lat="41.50007" lon="2.20083">
        <ele>49</ele>
        <time>2021-11-13 08:24:27</time>
      </trkpt>
      <trkpt lat="41.5001" lon="2.20093">
        <ele>49</ele>
        <time>2021-11-13 08:24:28</time>
      </trkpt>
      <trkpt lat="41.50012" lon="2.20102">
        <ele>49.2</ele>
        <time>2021-11-13 08:24:29</time>
      </trkpt>
      <trkpt lat="41.50015" lon="2.20111">
        <ele>49.2</ele>
        <time>2021-11-13 08:24:30</time>
      </trkpt>
      <trkpt lat="41.50018" lon="2.2012">
        <ele>49.4</ele>
        <time>2021-11-13 08:24:31</time>
      </trkpt>
      <trkpt lat="41.50021" lon="2.2013">
        <ele>49.4</ele>
        <time>2021-11-13 08:24:32</time>
      </trkpt>
      <trkpt lat="41.50024" lon="2.20139">
        <ele>49.4</ele>
        <time>2021-11-13 08:24:33</time>
      </trkpt>
      <trkpt lat="41.50027" lon="2.20148">
        <ele>49.4</ele>
        <time>2021-11-13 08:24:34</time>
      </trkpt>
      <trkpt lat="41.5003" lon="2.20157">
        <ele>49.4</ele>
        <time>2021-11-13 08:24:35</time>
      </trkpt>
      <trkpt lat="41.50033" lon="2.20167">
        <ele>49.4</ele>
        <time>2021-11-13 08:24:36</time>
      </trkpt>
      <trkpt lat="41.50036" lon="2.20176">
        <ele>49.6</ele>
        <time>2021-11-13 08:24:37</time>
      </trkpt>
      <trkpt lat="41.50039" lon="2.20185">
        <ele>49.6</ele>
        <time>2021-11-13 08:24:38</time>
      </trkpt>
      <trkpt lat="41.50042" lon="2.20194">
        <ele>49.6</ele>
        <time>2021-11-13 08:24:39</time>
      </trkpt>
      <trkpt lat="41.50045" lon="2.20204">
        <ele>49.6</ele>
        <time>2021-11-13 08:24:40</time>
      </trkpt>
      <trkpt lat="41.50048" lon="2.20213">
        <ele>49.6</ele>
        <time>2021-11-13 08:24:41</time>
      </trkpt>
      <trkpt lat="41.50051" lon="2.20222">
        <ele>49.6</ele>
        <time>2021-11-13 08:24:42</time>
      </trkpt>
      <trkpt lat="41.50054" lon="2.20231">
        <ele>49.6</ele>
        <time>2021-11-13 08:24:43</time>
      </trkpt>
      <trkpt lat="41.50058" lon="2.2024">
        <ele>49.6</ele>
        <time>2021-11-13 08:24:44</time>
      </trkpt>
      <trkpt lat="41.50061" lon="2.20249">
        <ele>49.6</ele>
        <time>2021-11-13 08:24:45</time>
      </trkpt>
      <trkpt lat="41.50064" lon="2.20259">
        <ele>49.6</ele>
        <time>2021-11-13 08:24:46</time>
      </trkpt>
      <trkpt lat="41.50067" lon="2.20268">
        <ele>49.6</ele>
        <time>2021-11-13 08:24:47</time>
      </trkpt>
      <trkpt lat="41.5007" lon="2.20277">
        <ele>49.6</ele>
        <time>2021-11-13 08:24:48</time>
      </trkpt>
      <trkpt lat="41.50073" lon="2.20286">
        <ele>49.8</ele>
        <time>2021-11-13 08:24:49</time>
      </trkpt>
      <trkpt lat="41.50077" lon="2.20295">
        <ele>49.8</ele>
        <time>2021-11-13 08:24:50</time>
      </trkpt>
      <trkpt lat="41.5008" lon="2.20305">
        <ele>49.8</ele>
        <time>2021-11-13 08:24:51</time>
      </trkpt>
      <trkpt lat="41.50083" lon="2.20314">
        <ele>49.8</ele>
        <time>2021-11-13 08:24:52</time>
      </trkpt>
      <trkpt lat="41.50087" lon="2.20322">
        <ele>49.8</ele>
        <time>2021-11-13 08:24:53</time>
      </trkpt>
      <trkpt lat="41.50091" lon="2.20331">
        <ele>50</ele>
        <time>2021-11-13 08:24:54</time>
      </trkpt>
      <trkpt lat="41.50095" lon="2.20339">
        <ele>50</ele>
        <time>2021-11-13 08:24:55</time>
      </trkpt>
      <trkpt lat="41.501" lon="2.20347">
        <ele>50</ele>
        <time>2021-11-13 08:24:56</time>
      </trkpt>
      <trkpt lat="41.50105" lon="2.20355">
        <ele>50</ele>
        <time>2021-11-13 08:24:57</time>
      </trkpt>
      <trkpt lat="41.50111" lon="2.20362">
        <ele>50.2</ele>
        <time>2021-11-13 08:24:58</time>
      </trkpt>
      <trkpt lat="41.50117" lon="2.20368">
        <ele>50.2</ele>
        <time>2021-11-13 08:24:59</time>
      </trkpt>
      <trkpt lat="41.50123" lon="2.20374">
        <ele>50.2</ele>
        <time>2021-11-13 08:25:00</time>
      </trkpt>
      <trkpt lat="41.5013" lon="2.20379">
        <ele>50.4</ele>
        <time>2021-11-13 08:25:01</time>
      </trkpt>
      <trkpt lat="41.50137" lon="2.20384">
        <ele>50.4</ele>
        <time>2021-11-13 08:25:02</time>
      </trkpt>
      <trkpt lat="41.50144" lon="2.20388">
        <ele>50.6</ele>
        <time>2021-11-13 08:25:03</time>
      </trkpt>
      <trkpt lat="41.50151" lon="2.20392">
        <ele>50.6</ele>
        <time>2021-11-13 08:25:04</time>
      </trkpt>
      <trkpt lat="41.50159" lon="2.20396">
        <ele>50.6</ele>
        <time>2021-11-13 08:25:05</time>
      </trkpt>
      <trkpt lat="41.50166" lon="2.20399">
        <ele>50.6</ele>
        <time>2021-11-13 08:25:06</time>
      </trkpt>
      <trkpt lat="41.50173" lon="2.20403">
        <ele>50.6</ele>
        <time>2021-11-13 08:25:07</time>
      </trkpt>
      <trkpt lat="41.50181" lon="2.20407">
        <ele>50.8</ele>
        <time>2021-11-13 08:25:08</time>
      </trkpt>
      <trkpt lat="41.50188" lon="2.20411">
        <ele>50.8</ele>
        <time>2021-11-13 08:25:09</time>
      </trkpt>
      <trkpt lat="41.50196" lon="2.20414">
        <ele>50.6</ele>
        <time>2021-11-13 08:25:10</time>
      </trkpt>
      <trkpt lat="41.50203" lon="2.20417">
        <ele>50.6</ele>
        <time>2021-11-13 08:25:11</time>
      </trkpt>
      <trkpt lat="41.5021" lon="2.20421">
        <ele>50.8</ele>
        <time>2021-11-13 08:25:12</time>
      </trkpt>
      <trkpt lat="41.50217" lon="2.20424">
        <ele>50.8</ele>
        <time>2021-11-13 08:25:13</time>
      </trkpt>
      <trkpt lat="41.50223" lon="2.20428">
        <ele>50.8</ele>
        <time>2021-11-13 08:25:14</time>
      </trkpt>
      <trkpt lat="41.5023" lon="2.20431">
        <ele>50.8</ele>
        <time>2021-11-13 08:25:15</time>
      </trkpt>
      <trkpt lat="41.50237" lon="2.20433">
        <ele>50.8</ele>
        <time>2021-11-13 08:25:16</time>
      </trkpt>
      <trkpt lat="41.50244" lon="2.20436">
        <ele>50.8</ele>
        <time>2021-11-13 08:25:17</time>
      </trkpt>
      <trkpt lat="41.50251" lon="2.2044">
        <ele>50.8</ele>
        <time>2021-11-13 08:25:18</time>
      </trkpt>
      <trkpt lat="41.50258" lon="2.20443">
        <ele>50.8</ele>
        <time>2021-11-13 08:25:19</time>
      </trkpt>
      <trkpt lat="41.50265" lon="2.20447">
        <ele>51</ele>
        <time>2021-11-13 08:25:20</time>
      </trkpt>
      <trkpt lat="41.50272" lon="2.20451">
        <ele>51</ele>
        <time>2021-11-13 08:25:21</time>
      </trkpt>
      <trkpt lat="41.50279" lon="2.20455">
        <ele>51</ele>
        <time>2021-11-13 08:25:22</time>
      </trkpt>
      <trkpt lat="41.50286" lon="2.20459">
        <ele>51.2</ele>
        <time>2021-11-13 08:25:23</time>
      </trkpt>
      <trkpt lat="41.50293" lon="2.20463">
        <ele>51.2</ele>
        <time>2021-11-13 08:25:24</time>
      </trkpt>
      <trkpt lat="41.503" lon="2.20467">
        <ele>51.2</ele>
        <time>2021-11-13 08:25:25</time>
      </trkpt>
      <trkpt lat="41.50307" lon="2.20471">
        <ele>51.2</ele>
        <time>2021-11-13 08:25:26</time>
      </trkpt>
      <trkpt lat="41.50314" lon="2.20476">
        <ele>51.2</ele>
        <time>2021-11-13 08:25:27</time>
      </trkpt>
      <trkpt lat="41.5032" lon="2.20481">
        <ele>51.2</ele>
        <time>2021-11-13 08:25:28</time>
      </trkpt>
      <trkpt lat="41.50326" lon="2.20487">
        <ele>51.4</ele>
        <time>2021-11-13 08:25:29</time>
      </trkpt>
      <trkpt lat="41.50331" lon="2.20494">
        <ele>51.4</ele>
        <time>2021-11-13 08:25:30</time>
      </trkpt>
      <trkpt lat="41.50335" lon="2.20502">
        <ele>51.4</ele>
        <time>2021-11-13 08:25:31</time>
      </trkpt>
      <trkpt lat="41.5034" lon="2.20508">
        <ele>51.6</ele>
        <time>2021-11-13 08:25:32</time>
      </trkpt>
      <trkpt lat="41.50346" lon="2.20513">
        <ele>51.6</ele>
        <time>2021-11-13 08:25:33</time>
      </trkpt>
      <trkpt lat="41.50353" lon="2.20515">
        <ele>51.8</ele>
        <time>2021-11-13 08:25:34</time>
      </trkpt>
      <trkpt lat="41.50361" lon="2.20515">
        <ele>51.8</ele>
        <time>2021-11-13 08:25:35</time>
      </trkpt>
      <trkpt lat="41.50369" lon="2.20516">
        <ele>51.8</ele>
        <time>2021-11-13 08:25:36</time>
      </trkpt>
      <trkpt lat="41.50376" lon="2.20517">
        <ele>52</ele>
        <time>2021-11-13 08:25:37</time>
      </trkpt>
      <trkpt lat="41.50384" lon="2.20518">
        <ele>52</ele>
        <time>2021-11-13 08:25:38</time>
      </trkpt>
      <trkpt lat="41.50392" lon="2.2052">
        <ele>52.2</ele>
        <time>2021-11-13 08:25:39</time>
      </trkpt>
      <trkpt lat="41.504" lon="2.20522">
        <ele>52.2</ele>
        <time>2021-11-13 08:25:40</time>
      </trkpt>
      <trkpt lat="41.50408" lon="2.20525">
        <ele>52.2</ele>
        <time>2021-11-13 08:25:41</time>
      </trkpt>
      <trkpt lat="41.50415" lon="2.20529">
        <ele>52.2</ele>
        <time>2021-11-13 08:25:42</time>
      </trkpt>
      <trkpt lat="41.50422" lon="2.20532">
        <ele>52.2</ele>
        <time>2021-11-13 08:25:43</time>
      </trkpt>
      <trkpt lat="41.5043" lon="2.20536">
        <ele>52.2</ele>
        <time>2021-11-13 08:25:44</time>
      </trkpt>
      <trkpt lat="41.50437" lon="2.2054">
        <ele>52</ele>
        <time>2021-11-13 08:25:45</time>
      </trkpt>
      <trkpt lat="41.50445" lon="2.20545">
        <ele>52</ele>
        <time>2021-11-13 08:25:46</time>
      </trkpt>
      <trkpt lat="41.50452" lon="2.20549">
        <ele>51.8</ele>
        <time>2021-11-13 08:25:47</time>
      </trkpt>
      <trkpt lat="41.50458" lon="2.20555">
        <ele>51.8</ele>
        <time>2021-11-13 08:25:48</time>
      </trkpt>
      <trkpt lat="41.50465" lon="2.2056">
        <ele>51.6</ele>
        <time>2021-11-13 08:25:49</time>
      </trkpt>
      <trkpt lat="41.50471" lon="2.20566">
        <ele>51.4</ele>
        <time>2021-11-13 08:25:50</time>
      </trkpt>
      <trkpt lat="41.50478" lon="2.20572">
        <ele>51.4</ele>
        <time>2021-11-13 08:25:51</time>
      </trkpt>
      <trkpt lat="41.50483" lon="2.20579">
        <ele>51.4</ele>
        <time>2021-11-13 08:25:52</time>
      </trkpt>
      <trkpt lat="41.50489" lon="2.20586">
        <ele>51.4</ele>
        <time>2021-11-13 08:25:53</time>
      </trkpt>
      <trkpt lat="41.50494" lon="2.20594">
        <ele>51.4</ele>
        <time>2021-11-13 08:25:54</time>
      </trkpt>
      <trkpt lat="41.50499" lon="2.20602">
        <ele>51.2</ele>
        <time>2021-11-13 08:25:55</time>
      </trkpt>
      <trkpt lat="41.50504" lon="2.20609">
        <ele>51.2</ele>
        <time>2021-11-13 08:25:56</time>
      </trkpt>
      <trkpt lat="41.50509" lon="2.20617">
        <ele>51.2</ele>
        <time>2021-11-13 08:25:57</time>
      </trkpt>
      <trkpt lat="41.50514" lon="2.20625">
        <ele>51.2</ele>
        <time>2021-11-13 08:25:58</time>
      </trkpt>
      <trkpt lat="41.50519" lon="2.20634">
        <ele>51.2</ele>
        <time>2021-11-13 08:25:59</time>
      </trkpt>
      <trkpt lat="41.50523" lon="2.20642">
        <ele>51.2</ele>
        <time>2021-11-13 08:26:00</time>
      </trkpt>
      <trkpt lat="41.50527" lon="2.2065">
        <ele>51.2</ele>
        <time>2021-11-13 08:26:01</time>
      </trkpt>
      <trkpt lat="41.50531" lon="2.20659">
        <ele>51.4</ele>
        <time>2021-11-13 08:26:02</time>
      </trkpt>
      <trkpt lat="41.50535" lon="2.20668">
        <ele>51.4</ele>
        <time>2021-11-13 08:26:03</time>
      </trkpt>
      <trkpt lat="41.50539" lon="2.20676">
        <ele>51.4</ele>
        <time>2021-11-13 08:26:04</time>
      </trkpt>
      <trkpt lat="41.50543" lon="2.20685">
        <ele>51.6</ele>
        <time>2021-11-13 08:26:05</time>
      </trkpt>
      <trkpt lat="41.50548" lon="2.20693">
        <ele>51.6</ele>
        <time>2021-11-13 08:26:06</time>
      </trkpt>
      <trkpt lat="41.50552" lon="2.20701">
        <ele>51.6</ele>
        <time>2021-11-13 08:26:07</time>
      </trkpt>
      <trkpt lat="41.50558" lon="2.20709">
        <ele>51.8</ele>
        <time>2021-11-13 08:26:08</time>
      </trkpt>
      <trkpt lat="41.50564" lon="2.20715">
        <ele>51.8</ele>
        <time>2021-11-13 08:26:09</time>
      </trkpt>
      <trkpt lat="41.5057" lon="2.20721">
        <ele>51.8</ele>
        <time>2021-11-13 08:26:10</time>
      </trkpt>
      <trkpt lat="41.50576" lon="2.20726">
        <ele>51.8</ele>
        <time>2021-11-13 08:26:11</time>
      </trkpt>
      <trkpt lat="41.50583" lon="2.20731">
        <ele>52</ele>
        <time>2021-11-13 08:26:12</time>
      </trkpt>
      <trkpt lat="41.5059" lon="2.20736">
        <ele>52</ele>
        <time>2021-11-13 08:26:13</time>
      </trkpt>
      <trkpt lat="41.50597" lon="2.20741">
        <ele>52</ele>
        <time>2021-11-13 08:26:14</time>
      </trkpt>
      <trkpt lat="41.50604" lon="2.20745">
        <ele>52</ele>
        <time>2021-11-13 08:26:15</time>
      </trkpt>
      <trkpt lat="41.50611" lon="2.2075">
        <ele>52</ele>
        <time>2021-11-13 08:26:16</time>
      </trkpt>
      <trkpt lat="41.50618" lon="2.20755">
        <ele>52.2</ele>
        <time>2021-11-13 08:26:17</time>
      </trkpt>
      <trkpt lat="41.50625" lon="2.2076">
        <ele>52.2</ele>
        <time>2021-11-13 08:26:18</time>
      </trkpt>
      <trkpt lat="41.50632" lon="2.20764">
        <ele>52.2</ele>
        <time>2021-11-13 08:26:19</time>
      </trkpt>
      <trkpt lat="41.50639" lon="2.20769">
        <ele>52.2</ele>
        <time>2021-11-13 08:26:20</time>
      </trkpt>
      <trkpt lat="41.50646" lon="2.20773">
        <ele>52.2</ele>
        <time>2021-11-13 08:26:21</time>
      </trkpt>
      <trkpt lat="41.50652" lon="2.20777">
        <ele>52.2</ele>
        <time>2021-11-13 08:26:22</time>
      </trkpt>
      <trkpt lat="41.50659" lon="2.20781">
        <ele>52.2</ele>
        <time>2021-11-13 08:26:23</time>
      </trkpt>
      <trkpt lat="41.50667" lon="2.20785">
        <ele>52.2</ele>
        <time>2021-11-13 08:26:24</time>
      </trkpt>
      <trkpt lat="41.50674" lon="2.20788">
        <ele>52.2</ele>
        <time>2021-11-13 08:26:25</time>
      </trkpt>
      <trkpt lat="41.50682" lon="2.20792">
        <ele>52.2</ele>
        <time>2021-11-13 08:26:26</time>
      </trkpt>
      <trkpt lat="41.50689" lon="2.20794">
        <ele>52.4</ele>
        <time>2021-11-13 08:26:27</time>
      </trkpt>
      <trkpt lat="41.50697" lon="2.20797">
        <ele>52.4</ele>
        <time>2021-11-13 08:26:28</time>
      </trkpt>
      <trkpt lat="41.50704" lon="2.20799">
        <ele>52.4</ele>
        <time>2021-11-13 08:26:29</time>
      </trkpt>
      <trkpt lat="41.50712" lon="2.20802">
        <ele>52.4</ele>
        <time>2021-11-13 08:26:30</time>
      </trkpt>
      <trkpt lat="41.50719" lon="2.20804">
        <ele>52.6</ele>
        <time>2021-11-13 08:26:31</time>
      </trkpt>
      <trkpt lat="41.50727" lon="2.20807">
        <ele>52.6</ele>
        <time>2021-11-13 08:26:32</time>
      </trkpt>
      <trkpt lat="41.50734" lon="2.20809">
        <ele>52.6</ele>
        <time>2021-11-13 08:26:33</time>
      </trkpt>
      <trkpt lat="41.50741" lon="2.20812">
        <ele>52.6</ele>
        <time>2021-11-13 08:26:34</time>
      </trkpt>
      <trkpt lat="41.50748" lon="2.20815">
        <ele>52.6</ele>
        <time>2021-11-13 08:26:35</time>
      </trkpt>
      <trkpt lat="41.50755" lon="2.20818">
        <ele>52.6</ele>
        <time>2021-11-13 08:26:36</time>
      </trkpt>
      <trkpt lat="41.50762" lon="2.20822">
        <ele>52.8</ele>
        <time>2021-11-13 08:26:37</time>
      </trkpt>
      <trkpt lat="41.50769" lon="2.20827">
        <ele>52.8</ele>
        <time>2021-11-13 08:26:38</time>
      </trkpt>
      <trkpt lat="41.50775" lon="2.20832">
        <ele>52.8</ele>
        <time>2021-11-13 08:26:39</time>
      </trkpt>
      <trkpt lat="41.50781" lon="2.20838">
        <ele>53</ele>
        <time>2021-11-13 08:26:40</time>
      </trkpt>
      <trkpt lat="41.50787" lon="2.20845">
        <ele>53</ele>
        <time>2021-11-13 08:26:41</time>
      </trkpt>
      <trkpt lat="41.50793" lon="2.20851">
        <ele>53</ele>
        <time>2021-11-13 08:26:42</time>
      </trkpt>
      <trkpt lat="41.50798" lon="2.20858">
        <ele>52.8</ele>
        <time>2021-11-13 08:26:43</time>
      </trkpt>
      <trkpt lat="41.50804" lon="2.20865">
        <ele>53.2</ele>
        <time>2021-11-13 08:26:44</time>
      </trkpt>
      <trkpt lat="41.50809" lon="2.20872">
        <ele>53.2</ele>
        <time>2021-11-13 08:26:45</time>
      </trkpt>
      <trkpt lat="41.50815" lon="2.20879">
        <ele>53.4</ele>
        <time>2021-11-13 08:26:46</time>
      </trkpt>
      <trkpt lat="41.5082" lon="2.20885">
        <ele>53.4</ele>
        <time>2021-11-13 08:26:47</time>
      </trkpt>
      <trkpt lat="41.50825" lon="2.20892">
        <ele>53.4</ele>
        <time>2021-11-13 08:26:48</time>
      </trkpt>
      <trkpt lat="41.50831" lon="2.20899">
        <ele>53.4</ele>
        <time>2021-11-13 08:26:49</time>
      </trkpt>
      <trkpt lat="41.50838" lon="2.20905">
        <ele>53.4</ele>
        <time>2021-11-13 08:26:50</time>
      </trkpt>
      <trkpt lat="41.50844" lon="2.20911">
        <ele>53.6</ele>
        <time>2021-11-13 08:26:51</time>
      </trkpt>
      <trkpt lat="41.5085" lon="2.20917">
        <ele>53.6</ele>
        <time>2021-11-13 08:26:52</time>
      </trkpt>
      <trkpt lat="41.50857" lon="2.20923">
        <ele>53.6</ele>
        <time>2021-11-13 08:26:53</time>
      </trkpt>
      <trkpt lat="41.50863" lon="2.20929">
        <ele>53.6</ele>
        <time>2021-11-13 08:26:54</time>
      </trkpt>
      <trkpt lat="41.50869" lon="2.20934">
        <ele>53.6</ele>
        <time>2021-11-13 08:26:55</time>
      </trkpt>
      <trkpt lat="41.50876" lon="2.2094">
        <ele>53.8</ele>
        <time>2021-11-13 08:26:56</time>
      </trkpt>
      <trkpt lat="41.50882" lon="2.20946">
        <ele>53.8</ele>
        <time>2021-11-13 08:26:57</time>
      </trkpt>
      <trkpt lat="41.50888" lon="2.20952">
        <ele>53.8</ele>
        <time>2021-11-13 08:26:58</time>
      </trkpt>
      <trkpt lat="41.50895" lon="2.20957">
        <ele>53.8</ele>
        <time>2021-11-13 08:26:59</time>
      </trkpt>
      <trkpt lat="41.50901" lon="2.20963">
        <ele>54</ele>
        <time>2021-11-13 08:27:00</time>
      </trkpt>
      <trkpt lat="41.50907" lon="2.20969">
        <ele>54</ele>
        <time>2021-11-13 08:27:01</time>
      </trkpt>
      <trkpt lat="41.50914" lon="2.20974">
        <ele>54</ele>
        <time>2021-11-13 08:27:02</time>
      </trkpt>
      <trkpt lat="41.5092" lon="2.2098">
        <ele>54.2</ele>
        <time>2021-11-13 08:27:03</time>
      </trkpt>
      <trkpt lat="41.50926" lon="2.20985">
        <ele>54.2</ele>
        <time>2021-11-13 08:27:04</time>
      </trkpt>
      <trkpt lat="41.50932" lon="2.20991">
        <ele>54.2</ele>
        <time>2021-11-13 08:27:05</time>
      </trkpt>
      <trkpt lat="41.50938" lon="2.20997">
        <ele>54.2</ele>
        <time>2021-11-13 08:27:06</time>
      </trkpt>
      <trkpt lat="41.50945" lon="2.21002">
        <ele>54.4</ele>
        <time>2021-11-13 08:27:07</time>
      </trkpt>
      <trkpt lat="41.50951" lon="2.21008">
        <ele>54.4</ele>
        <time>2021-11-13 08:27:08</time>
      </trkpt>
      <trkpt lat="41.50957" lon="2.21013">
        <ele>54.4</ele>
        <time>2021-11-13 08:27:09</time>
      </trkpt>
      <trkpt lat="41.50963" lon="2.21018">
        <ele>54.6</ele>
        <time>2021-11-13 08:27:10</time>
      </trkpt>
      <trkpt lat="41.5097" lon="2.21023">
        <ele>54.6</ele>
        <time>2021-11-13 08:27:11</time>
      </trkpt>
      <trkpt lat="41.50976" lon="2.21028">
        <ele>54.8</ele>
        <time>2021-11-13 08:27:12</time>
      </trkpt>
      <trkpt lat="41.50983" lon="2.21032">
        <ele>55</ele>
        <time>2021-11-13 08:27:13</time>
      </trkpt>
      <trkpt lat="41.50991" lon="2.21036">
        <ele>55.2</ele>
        <time>2021-11-13 08:27:14</time>
      </trkpt>
      <trkpt lat="41.50998" lon="2.21039">
        <ele>55.2</ele>
        <time>2021-11-13 08:27:15</time>
      </trkpt>
      <trkpt lat="41.51005" lon="2.21042">
        <ele>55.2</ele>
        <time>2021-11-13 08:27:16</time>
      </trkpt>
      <trkpt lat="41.51013" lon="2.21045">
        <ele>55.2</ele>
        <time>2021-11-13 08:27:17</time>
      </trkpt>
      <trkpt lat="41.51021" lon="2.21048">
        <ele>55.4</ele>
        <time>2021-11-13 08:27:18</time>
      </trkpt>
      <trkpt lat="41.51028" lon="2.2105">
        <ele>55.4</ele>
        <time>2021-11-13 08:27:19</time>
      </trkpt>
      <trkpt lat="41.51035" lon="2.21053">
        <ele>55.4</ele>
        <time>2021-11-13 08:27:20</time>
      </trkpt>
      <trkpt lat="41.51042" lon="2.21055">
        <ele>55.4</ele>
        <time>2021-11-13 08:27:21</time>
      </trkpt>
      <trkpt lat="41.51049" lon="2.21057">
        <ele>55.4</ele>
        <time>2021-11-13 08:27:22</time>
      </trkpt>
      <trkpt lat="41.51056" lon="2.21059">
        <ele>55.6</ele>
        <time>2021-11-13 08:27:23</time>
      </trkpt>
      <trkpt lat="41.51063" lon="2.21061">
        <ele>55.6</ele>
        <time>2021-11-13 08:27:24</time>
      </trkpt>
      <trkpt lat="41.5107" lon="2.21062">
        <ele>55.6</ele>
        <time>2021-11-13 08:27:25</time>
      </trkpt>
      <trkpt lat="41.51077" lon="2.21064">
        <ele>55.6</ele>
        <time>2021-11-13 08:27:26</time>
      </trkpt>
      <trkpt lat="41.51084" lon="2.21066">
        <ele>55.6</ele>
        <time>2021-11-13 08:27:27</time>
      </trkpt>
      <trkpt lat="41.51091" lon="2.21067">
        <ele>55.6</ele>
        <time>2021-11-13 08:27:28</time>
      </trkpt>
      <trkpt lat="41.51098" lon="2.21069">
        <ele>55.8</ele>
        <time>2021-11-13 08:27:29</time>
      </trkpt>
      <trkpt lat="41.51106" lon="2.2107">
        <ele>55.8</ele>
        <time>2021-11-13 08:27:30</time>
      </trkpt>
      <trkpt lat="41.51113" lon="2.21072">
        <ele>55.6</ele>
        <time>2021-11-13 08:27:31</time>
      </trkpt>
      <trkpt lat="41.5112" lon="2.21073">
        <ele>55.8</ele>
        <time>2021-11-13 08:27:32</time>
      </trkpt>
      <trkpt lat="41.51128" lon="2.21075">
        <ele>55.8</ele>
        <time>2021-11-13 08:27:33</time>
      </trkpt>
      <trkpt lat="41.51135" lon="2.21077">
        <ele>55.8</ele>
        <time>2021-11-13 08:27:34</time>
      </trkpt>
      <trkpt lat="41.51142" lon="2.21079">
        <ele>55.8</ele>
        <time>2021-11-13 08:27:35</time>
      </trkpt>
      <trkpt lat="41.51149" lon="2.21082">
        <ele>55.8</ele>
        <time>2021-11-13 08:27:36</time>
      </trkpt>
      <trkpt lat="41.51156" lon="2.21085">
        <ele>55.8</ele>
        <time>2021-11-13 08:27:37</time>
      </trkpt>
      <trkpt lat="41.51162" lon="2.21089">
        <ele>55.8</ele>
        <time>2021-11-13 08:27:38</time>
      </trkpt>
      <trkpt lat="41.51168" lon="2.21094">
        <ele>55.8</ele>
        <time>2021-11-13 08:27:39</time>
      </trkpt>
      <trkpt lat="41.51174" lon="2.21099">
        <ele>55.8</ele>
        <time>2021-11-13 08:27:40</time>
      </trkpt>
      <trkpt lat="41.51181" lon="2.21105">
        <ele>56</ele>
        <time>2021-11-13 08:27:41</time>
      </trkpt>
      <trkpt lat="41.51186" lon="2.21111">
        <ele>56</ele>
        <time>2021-11-13 08:27:42</time>
      </trkpt>
      <trkpt lat="41.51192" lon="2.21118">
        <ele>56</ele>
        <time>2021-11-13 08:27:43</time>
      </trkpt>
      <trkpt lat="41.51197" lon="2.21125">
        <ele>56</ele>
        <time>2021-11-13 08:27:44</time>
      </trkpt>
      <trkpt lat="41.51202" lon="2.21131">
        <ele>56</ele>
        <time>2021-11-13 08:27:45</time>
      </trkpt>
      <trkpt lat="41.51207" lon="2.21138">
        <ele>56</ele>
        <time>2021-11-13 08:27:46</time>
      </trkpt>
      <trkpt lat="41.51212" lon="2.21145">
        <ele>56</ele>
        <time>2021-11-13 08:27:47</time>
      </trkpt>
      <trkpt lat="41.51218" lon="2.21152">
        <ele>56</ele>
        <time>2021-11-13 08:27:48</time>
      </trkpt>
      <trkpt lat="41.51223" lon="2.21159">
        <ele>56</ele>
        <time>2021-11-13 08:27:49</time>
      </trkpt>
      <trkpt lat="41.51228" lon="2.21166">
        <ele>56</ele>
        <time>2021-11-13 08:27:50</time>
      </trkpt>
      <trkpt lat="41.51234" lon="2.21172">
        <ele>56</ele>
        <time>2021-11-13 08:27:51</time>
      </trkpt>
      <trkpt lat="41.51239" lon="2.21179">
        <ele>56</ele>
        <time>2021-11-13 08:27:52</time>
      </trkpt>
      <trkpt lat="41.51244" lon="2.21186">
        <ele>56</ele>
        <time>2021-11-13 08:27:53</time>
      </trkpt>
      <trkpt lat="41.5125" lon="2.21193">
        <ele>56</ele>
        <time>2021-11-13 08:27:54</time>
      </trkpt>
      <trkpt lat="41.51255" lon="2.212">
        <ele>56</ele>
        <time>2021-11-13 08:27:55</time>
      </trkpt>
      <trkpt lat="41.51261" lon="2.21207">
        <ele>56.2</ele>
        <time>2021-11-13 08:27:56</time>
      </trkpt>
      <trkpt lat="41.51266" lon="2.21214">
        <ele>56.2</ele>
        <time>2021-11-13 08:27:57</time>
      </trkpt>
      <trkpt lat="41.51272" lon="2.21221">
        <ele>56.2</ele>
        <time>2021-11-13 08:27:58</time>
      </trkpt>
      <trkpt lat="41.51277" lon="2.21227">
        <ele>56.2</ele>
        <time>2021-11-13 08:27:59</time>
      </trkpt>
      <trkpt lat="41.51283" lon="2.21234">
        <ele>56.2</ele>
        <time>2021-11-13 08:28:00</time>
      </trkpt>
      <trkpt lat="41.51288" lon="2.21241">
        <ele>56</ele>
        <time>2021-11-13 08:28:01</time>
      </trkpt>
      <trkpt lat="41.51294" lon="2.21248">
        <ele>56</ele>
        <time>2021-11-13 08:28:02</time>
      </trkpt>
      <trkpt lat="41.513" lon="2.21255">
        <ele>56.2</ele>
        <time>2021-11-13 08:28:03</time>
      </trkpt>
      <trkpt lat="41.51306" lon="2.21261">
        <ele>56.2</ele>
        <time>2021-11-13 08:28:04</time>
      </trkpt>
      <trkpt lat="41.51312" lon="2.21267">
        <ele>56</ele>
        <time>2021-11-13 08:28:05</time>
      </trkpt>
      <trkpt lat="41.51318" lon="2.21273">
        <ele>56</ele>
        <time>2021-11-13 08:28:06</time>
      </trkpt>
      <trkpt lat="41.51324" lon="2.21278">
        <ele>56</ele>
        <time>2021-11-13 08:28:07</time>
      </trkpt>
      <trkpt lat="41.51331" lon="2.21283">
        <ele>56.2</ele>
        <time>2021-11-13 08:28:08</time>
      </trkpt>
      <trkpt lat="41.51338" lon="2.21289">
        <ele>56.2</ele>
        <time>2021-11-13 08:28:09</time>
      </trkpt>
      <trkpt lat="41.51344" lon="2.21294">
        <ele>56.2</ele>
        <time>2021-11-13 08:28:10</time>
      </trkpt>
      <trkpt lat="41.51351" lon="2.21299">
        <ele>56.2</ele>
        <time>2021-11-13 08:28:11</time>
      </trkpt>
      <trkpt lat="41.51357" lon="2.21304">
        <ele>56.2</ele>
        <time>2021-11-13 08:28:12</time>
      </trkpt>
      <trkpt lat="41.51364" lon="2.21309">
        <ele>56.2</ele>
        <time>2021-11-13 08:28:13</time>
      </trkpt>
      <trkpt lat="41.5137" lon="2.21315">
        <ele>56.2</ele>
        <time>2021-11-13 08:28:14</time>
      </trkpt>
      <trkpt lat="41.51377" lon="2.2132">
        <ele>56.2</ele>
        <time>2021-11-13 08:28:15</time>
      </trkpt>
      <trkpt lat="41.51383" lon="2.21326">
        <ele>56.2</ele>
        <time>2021-11-13 08:28:16</time>
      </trkpt>
      <trkpt lat="41.51389" lon="2.21331">
        <ele>56.2</ele>
        <time>2021-11-13 08:28:17</time>
      </trkpt>
      <trkpt lat="41.51396" lon="2.21337">
        <ele>56.2</ele>
        <time>2021-11-13 08:28:18</time>
      </trkpt>
      <trkpt lat="41.51402" lon="2.21343">
        <ele>56.2</ele>
        <time>2021-11-13 08:28:19</time>
      </trkpt>
      <trkpt lat="41.51408" lon="2.2135">
        <ele>56.2</ele>
        <time>2021-11-13 08:28:20</time>
      </trkpt>
      <trkpt lat="41.51414" lon="2.21356">
        <ele>56.2</ele>
        <time>2021-11-13 08:28:21</time>
      </trkpt>
      <trkpt lat="41.51419" lon="2.21363">
        <ele>56.2</ele>
        <time>2021-11-13 08:28:22</time>
      </trkpt>
      <trkpt lat="41.51425" lon="2.2137">
        <ele>56.2</ele>
        <time>2021-11-13 08:28:23</time>
      </trkpt>
      <trkpt lat="41.5143" lon="2.21376">
        <ele>56.2</ele>
        <time>2021-11-13 08:28:24</time>
      </trkpt>
      <trkpt lat="41.51435" lon="2.21383">
        <ele>56.2</ele>
        <time>2021-11-13 08:28:25</time>
      </trkpt>
      <trkpt lat="41.51439" lon="2.21391">
        <ele>56.2</ele>
        <time>2021-11-13 08:28:26</time>
      </trkpt>
      <trkpt lat="41.51444" lon="2.21398">
        <ele>56.2</ele>
        <time>2021-11-13 08:28:27</time>
      </trkpt>
      <trkpt lat="41.51448" lon="2.21406">
        <ele>56.2</ele>
        <time>2021-11-13 08:28:28</time>
      </trkpt>
      <trkpt lat="41.51453" lon="2.21414">
        <ele>56.2</ele>
        <time>2021-11-13 08:28:29</time>
      </trkpt>
      <trkpt lat="41.51457" lon="2.21423">
        <ele>56.2</ele>
        <time>2021-11-13 08:28:30</time>
      </trkpt>
      <trkpt lat="41.51461" lon="2.21431">
        <ele>56.2</ele>
        <time>2021-11-13 08:28:31</time>
      </trkpt>
      <trkpt lat="41.51465" lon="2.21439">
        <ele>56.4</ele>
        <time>2021-11-13 08:28:32</time>
      </trkpt>
      <trkpt lat="41.51468" lon="2.21447">
        <ele>56.4</ele>
        <time>2021-11-13 08:28:33</time>
      </trkpt>
      <trkpt lat="41.51472" lon="2.21455">
        <ele>56.4</ele>
        <time>2021-11-13 08:28:34</time>
      </trkpt>
      <trkpt lat="41.51476" lon="2.21463">
        <ele>56.4</ele>
        <time>2021-11-13 08:28:35</time>
      </trkpt>
      <trkpt lat="41.5148" lon="2.21472">
        <ele>56.4</ele>
        <time>2021-11-13 08:28:36</time>
      </trkpt>
      <trkpt lat="41.51483" lon="2.2148">
        <ele>56.6</ele>
        <time>2021-11-13 08:28:37</time>
      </trkpt>
      <trkpt lat="41.51487" lon="2.21488">
        <ele>56.6</ele>
        <time>2021-11-13 08:28:38</time>
      </trkpt>
      <trkpt lat="41.51491" lon="2.21496">
        <ele>56.8</ele>
        <time>2021-11-13 08:28:39</time>
      </trkpt>
      <trkpt lat="41.51495" lon="2.21504">
        <ele>57</ele>
        <time>2021-11-13 08:28:40</time>
      </trkpt>
      <trkpt lat="41.51499" lon="2.21512">
        <ele>57</ele>
        <time>2021-11-13 08:28:41</time>
      </trkpt>
      <trkpt lat="41.51503" lon="2.2152">
        <ele>57.2</ele>
        <time>2021-11-13 08:28:42</time>
      </trkpt>
      <trkpt lat="41.51507" lon="2.21528">
        <ele>57.2</ele>
        <time>2021-11-13 08:28:43</time>
      </trkpt>
      <trkpt lat="41.5151" lon="2.21536">
        <ele>57.4</ele>
        <time>2021-11-13 08:28:44</time>
      </trkpt>
      <trkpt lat="41.51514" lon="2.21544">
        <ele>57.4</ele>
        <time>2021-11-13 08:28:45</time>
      </trkpt>
      <trkpt lat="41.51517" lon="2.21552">
        <ele>57.6</ele>
        <time>2021-11-13 08:28:46</time>
      </trkpt>
      <trkpt lat="41.51521" lon="2.2156">
        <ele>57.8</ele>
        <time>2021-11-13 08:28:47</time>
      </trkpt>
      <trkpt lat="41.51525" lon="2.21568">
        <ele>58</ele>
        <time>2021-11-13 08:28:48</time>
      </trkpt>
      <trkpt lat="41.51529" lon="2.21576">
        <ele>58.2</ele>
        <time>2021-11-13 08:28:49</time>
      </trkpt>
      <trkpt lat="41.51532" lon="2.21584">
        <ele>58.4</ele>
        <time>2021-11-13 08:28:50</time>
      </trkpt>
      <trkpt lat="41.51536" lon="2.21592">
        <ele>58.6</ele>
        <time>2021-11-13 08:28:51</time>
      </trkpt>
      <trkpt lat="41.51539" lon="2.21599">
        <ele>58.6</ele>
        <time>2021-11-13 08:28:52</time>
      </trkpt>
      <trkpt lat="41.51543" lon="2.21607">
        <ele>58.8</ele>
        <time>2021-11-13 08:28:53</time>
      </trkpt>
      <trkpt lat="41.51548" lon="2.21617">
        <ele>58.8</ele>
        <time>2021-11-13 08:28:54</time>
      </trkpt>
      <trkpt lat="41.51552" lon="2.21625">
        <ele>59</ele>
        <time>2021-11-13 08:28:55</time>
      </trkpt>
      <trkpt lat="41.51555" lon="2.21633">
        <ele>59</ele>
        <time>2021-11-13 08:28:56</time>
      </trkpt>
      <trkpt lat="41.51559" lon="2.21641">
        <ele>59</ele>
        <time>2021-11-13 08:28:57</time>
      </trkpt>
      <trkpt lat="41.51563" lon="2.21649">
        <ele>59.2</ele>
        <time>2021-11-13 08:28:58</time>
      </trkpt>
      <trkpt lat="41.51567" lon="2.21657">
        <ele>59.2</ele>
        <time>2021-11-13 08:28:59</time>
      </trkpt>
      <trkpt lat="41.5157" lon="2.21665">
        <ele>59.4</ele>
        <time>2021-11-13 08:29:00</time>
      </trkpt>
      <trkpt lat="41.51574" lon="2.21673">
        <ele>59.4</ele>
        <time>2021-11-13 08:29:01</time>
      </trkpt>
      <trkpt lat="41.51578" lon="2.2168">
        <ele>59.6</ele>
        <time>2021-11-13 08:29:02</time>
      </trkpt>
      <trkpt lat="41.51582" lon="2.21688">
        <ele>59.8</ele>
        <time>2021-11-13 08:29:03</time>
      </trkpt>
      <trkpt lat="41.51586" lon="2.21695">
        <ele>60</ele>
        <time>2021-11-13 08:29:04</time>
      </trkpt>
      <trkpt lat="41.51591" lon="2.21702">
        <ele>60.2</ele>
        <time>2021-11-13 08:29:05</time>
      </trkpt>
      <trkpt lat="41.51596" lon="2.21709">
        <ele>60.2</ele>
        <time>2021-11-13 08:29:06</time>
      </trkpt>
      <trkpt lat="41.51602" lon="2.21715">
        <ele>60.4</ele>
        <time>2021-11-13 08:29:07</time>
      </trkpt>
      <trkpt lat="41.51608" lon="2.2172">
        <ele>60.2</ele>
        <time>2021-11-13 08:29:08</time>
      </trkpt>
      <trkpt lat="41.51614" lon="2.21724">
        <ele>60.6</ele>
        <time>2021-11-13 08:29:09</time>
      </trkpt>
      <trkpt lat="41.5162" lon="2.21728">
        <ele>60.8</ele>
        <time>2021-11-13 08:29:10</time>
      </trkpt>
      <trkpt lat="41.51627" lon="2.21732">
        <ele>61</ele>
        <time>2021-11-13 08:29:11</time>
      </trkpt>
      <trkpt lat="41.51633" lon="2.21736">
        <ele>61.2</ele>
        <time>2021-11-13 08:29:12</time>
      </trkpt>
      <trkpt lat="41.5164" lon="2.2174">
        <ele>61.4</ele>
        <time>2021-11-13 08:29:13</time>
      </trkpt>
      <trkpt lat="41.51646" lon="2.21744">
        <ele>61.6</ele>
        <time>2021-11-13 08:29:14</time>
      </trkpt>
      <trkpt lat="41.51653" lon="2.21748">
        <ele>61.8</ele>
        <time>2021-11-13 08:29:15</time>
      </trkpt>
      <trkpt lat="41.51659" lon="2.21752">
        <ele>61.8</ele>
        <time>2021-11-13 08:29:16</time>
      </trkpt>
      <trkpt lat="41.51666" lon="2.21757">
        <ele>62</ele>
        <time>2021-11-13 08:29:17</time>
      </trkpt>
      <trkpt lat="41.51672" lon="2.2176">
        <ele>62.2</ele>
        <time>2021-11-13 08:29:18</time>
      </trkpt>
      <trkpt lat="41.51679" lon="2.21764">
        <ele>62.2</ele>
        <time>2021-11-13 08:29:19</time>
      </trkpt>
      <trkpt lat="41.51686" lon="2.21769">
        <ele>62.4</ele>
        <time>2021-11-13 08:29:20</time>
      </trkpt>
      <trkpt lat="41.51693" lon="2.21773">
        <ele>62.4</ele>
        <time>2021-11-13 08:29:21</time>
      </trkpt>
      <trkpt lat="41.517" lon="2.21777">
        <ele>62.4</ele>
        <time>2021-11-13 08:29:22</time>
      </trkpt>
      <trkpt lat="41.51707" lon="2.21781">
        <ele>62.4</ele>
        <time>2021-11-13 08:29:23</time>
      </trkpt>
      <trkpt lat="41.51714" lon="2.21785">
        <ele>62.6</ele>
        <time>2021-11-13 08:29:24</time>
      </trkpt>
      <trkpt lat="41.51721" lon="2.2179">
        <ele>62.6</ele>
        <time>2021-11-13 08:29:25</time>
      </trkpt>
      <trkpt lat="41.51728" lon="2.21793">
        <ele>62.8</ele>
        <time>2021-11-13 08:29:26</time>
      </trkpt>
      <trkpt lat="41.51735" lon="2.21796">
        <ele>63</ele>
        <time>2021-11-13 08:29:27</time>
      </trkpt>
      <trkpt lat="41.51742" lon="2.21798">
        <ele>63</ele>
        <time>2021-11-13 08:29:28</time>
      </trkpt>
      <trkpt lat="41.51749" lon="2.218">
        <ele>63</ele>
        <time>2021-11-13 08:29:29</time>
      </trkpt>
      <trkpt lat="41.51756" lon="2.21801">
        <ele>63.2</ele>
        <time>2021-11-13 08:29:30</time>
      </trkpt>
      <trkpt lat="41.51764" lon="2.21801">
        <ele>63.2</ele>
        <time>2021-11-13 08:29:31</time>
      </trkpt>
      <trkpt lat="41.51771" lon="2.21802">
        <ele>63.2</ele>
        <time>2021-11-13 08:29:32</time>
      </trkpt>
      <trkpt lat="41.51779" lon="2.21802">
        <ele>63.4</ele>
        <time>2021-11-13 08:29:33</time>
      </trkpt>
      <trkpt lat="41.51786" lon="2.21802">
        <ele>63.4</ele>
        <time>2021-11-13 08:29:34</time>
      </trkpt>
      <trkpt lat="41.51794" lon="2.21803">
        <ele>63.4</ele>
        <time>2021-11-13 08:29:35</time>
      </trkpt>
      <trkpt lat="41.51801" lon="2.21806">
        <ele>63.4</ele>
        <time>2021-11-13 08:29:36</time>
      </trkpt>
      <trkpt lat="41.51809" lon="2.2181">
        <ele>63.4</ele>
        <time>2021-11-13 08:29:37</time>
      </trkpt>
      <trkpt lat="41.51816" lon="2.21815">
        <ele>63.4</ele>
        <time>2021-11-13 08:29:38</time>
      </trkpt>
      <trkpt lat="41.51823" lon="2.2182">
        <ele>63.4</ele>
        <time>2021-11-13 08:29:39</time>
      </trkpt>
      <trkpt lat="41.51829" lon="2.21825">
        <ele>63.4</ele>
        <time>2021-11-13 08:29:40</time>
      </trkpt>
      <trkpt lat="41.51835" lon="2.21831">
        <ele>63.2</ele>
        <time>2021-11-13 08:29:41</time>
      </trkpt>
      <trkpt lat="41.51842" lon="2.21837">
        <ele>63.2</ele>
        <time>2021-11-13 08:29:42</time>
      </trkpt>
      <trkpt lat="41.51848" lon="2.21843">
        <ele>63.2</ele>
        <time>2021-11-13 08:29:43</time>
      </trkpt>
      <trkpt lat="41.51854" lon="2.21851">
        <ele>63.2</ele>
        <time>2021-11-13 08:29:44</time>
      </trkpt>
      <trkpt lat="41.51859" lon="2.21858">
        <ele>63.2</ele>
        <time>2021-11-13 08:29:45</time>
      </trkpt>
      <trkpt lat="41.51864" lon="2.21867">
        <ele>63.2</ele>
        <time>2021-11-13 08:29:46</time>
      </trkpt>
      <trkpt lat="41.51868" lon="2.21875">
        <ele>63.2</ele>
        <time>2021-11-13 08:29:47</time>
      </trkpt>
      <trkpt lat="41.51873" lon="2.21883">
        <ele>63.2</ele>
        <time>2021-11-13 08:29:48</time>
      </trkpt>
      <trkpt lat="41.51877" lon="2.21891">
        <ele>63.2</ele>
        <time>2021-11-13 08:29:49</time>
      </trkpt>
      <trkpt lat="41.51881" lon="2.21899">
        <ele>63.2</ele>
        <time>2021-11-13 08:29:50</time>
      </trkpt>
      <trkpt lat="41.51886" lon="2.21907">
        <ele>63.2</ele>
        <time>2021-11-13 08:29:51</time>
      </trkpt>
      <trkpt lat="41.51891" lon="2.21914">
        <ele>63.2</ele>
        <time>2021-11-13 08:29:52</time>
      </trkpt>
      <trkpt lat="41.51895" lon="2.21922">
        <ele>63.2</ele>
        <time>2021-11-13 08:29:53</time>
      </trkpt>
      <trkpt lat="41.51901" lon="2.21929">
        <ele>63.2</ele>
        <time>2021-11-13 08:29:54</time>
      </trkpt>
      <trkpt lat="41.51906" lon="2.21935">
        <ele>63.4</ele>
        <time>2021-11-13 08:29:55</time>
      </trkpt>
      <trkpt lat="41.51912" lon="2.21942">
        <ele>63.4</ele>
        <time>2021-11-13 08:29:56</time>
      </trkpt>
      <trkpt lat="41.51917" lon="2.21948">
        <ele>63.6</ele>
        <time>2021-11-13 08:29:57</time>
      </trkpt>
      <trkpt lat="41.51923" lon="2.21954">
        <ele>63.8</ele>
        <time>2021-11-13 08:29:58</time>
      </trkpt>
      <trkpt lat="41.51928" lon="2.21961">
        <ele>63.8</ele>
        <time>2021-11-13 08:29:59</time>
      </trkpt>
      <trkpt lat="41.51934" lon="2.21967">
        <ele>63.8</ele>
        <time>2021-11-13 08:30:00</time>
      </trkpt>
      <trkpt lat="41.5194" lon="2.21973">
        <ele>64</ele>
        <time>2021-11-13 08:30:01</time>
      </trkpt>
      <trkpt lat="41.51945" lon="2.2198">
        <ele>64</ele>
        <time>2021-11-13 08:30:02</time>
      </trkpt>
      <trkpt lat="41.51951" lon="2.21986">
        <ele>64.2</ele>
        <time>2021-11-13 08:30:03</time>
      </trkpt>
      <trkpt lat="41.51956" lon="2.21993">
        <ele>64.2</ele>
        <time>2021-11-13 08:30:04</time>
      </trkpt>
      <trkpt lat="41.51961" lon="2.21999">
        <ele>64.4</ele>
        <time>2021-11-13 08:30:05</time>
      </trkpt>
      <trkpt lat="41.51967" lon="2.22006">
        <ele>64.4</ele>
        <time>2021-11-13 08:30:06</time>
      </trkpt>
      <trkpt lat="41.51972" lon="2.22013">
        <ele>64.4</ele>
        <time>2021-11-13 08:30:07</time>
      </trkpt>
      <trkpt lat="41.51976" lon="2.2202">
        <ele>64.6</ele>
        <time>2021-11-13 08:30:08</time>
      </trkpt>
      <trkpt lat="41.51981" lon="2.22028">
        <ele>64.8</ele>
        <time>2021-11-13 08:30:09</time>
      </trkpt>
      <trkpt lat="41.51985" lon="2.22036">
        <ele>64.8</ele>
        <time>2021-11-13 08:30:10</time>
      </trkpt>
      <trkpt lat="41.51988" lon="2.22045">
        <ele>64.8</ele>
        <time>2021-11-13 08:30:11</time>
      </trkpt>
      <trkpt lat="41.51991" lon="2.22054">
        <ele>65</ele>
        <time>2021-11-13 08:30:12</time>
      </trkpt>
      <trkpt lat="41.51993" lon="2.22063">
        <ele>65</ele>
        <time>2021-11-13 08:30:13</time>
      </trkpt>
      <trkpt lat="41.51995" lon="2.22072">
        <ele>65.2</ele>
        <time>2021-11-13 08:30:14</time>
      </trkpt>
      <trkpt lat="41.51998" lon="2.22081">
        <ele>65.4</ele>
        <time>2021-11-13 08:30:15</time>
      </trkpt>
      <trkpt lat="41.52" lon="2.2209">
        <ele>65.4</ele>
        <time>2021-11-13 08:30:16</time>
      </trkpt>
      <trkpt lat="41.52003" lon="2.22099">
        <ele>65.6</ele>
        <time>2021-11-13 08:30:17</time>
      </trkpt>
      <trkpt lat="41.52005" lon="2.22108">
        <ele>65.6</ele>
        <time>2021-11-13 08:30:18</time>
      </trkpt>
      <trkpt lat="41.52007" lon="2.22117">
        <ele>65.6</ele>
        <time>2021-11-13 08:30:19</time>
      </trkpt>
      <trkpt lat="41.5201" lon="2.22126">
        <ele>65.8</ele>
        <time>2021-11-13 08:30:20</time>
      </trkpt>
      <trkpt lat="41.52013" lon="2.22135">
        <ele>66</ele>
        <time>2021-11-13 08:30:21</time>
      </trkpt>
      <trkpt lat="41.52017" lon="2.22143">
        <ele>66.2</ele>
        <time>2021-11-13 08:30:22</time>
      </trkpt>
      <trkpt lat="41.5202" lon="2.22152">
        <ele>66.4</ele>
        <time>2021-11-13 08:30:23</time>
      </trkpt>
      <trkpt lat="41.52024" lon="2.2216">
        <ele>66.4</ele>
        <time>2021-11-13 08:30:24</time>
      </trkpt>
      <trkpt lat="41.52029" lon="2.22169">
        <ele>66.6</ele>
        <time>2021-11-13 08:30:25</time>
      </trkpt>
      <trkpt lat="41.52033" lon="2.22177">
        <ele>66.6</ele>
        <time>2021-11-13 08:30:26</time>
      </trkpt>
      <trkpt lat="41.52038" lon="2.22185">
        <ele>66.6</ele>
        <time>2021-11-13 08:30:27</time>
      </trkpt>
      <trkpt lat="41.52042" lon="2.22194">
        <ele>66.8</ele>
        <time>2021-11-13 08:30:28</time>
      </trkpt>
      <trkpt lat="41.52047" lon="2.22203">
        <ele>66.8</ele>
        <time>2021-11-13 08:30:29</time>
      </trkpt>
      <trkpt lat="41.52052" lon="2.22211">
        <ele>66.8</ele>
        <time>2021-11-13 08:30:30</time>
      </trkpt>
      <trkpt lat="41.52056" lon="2.2222">
        <ele>66.6</ele>
        <time>2021-11-13 08:30:31</time>
      </trkpt>
      <trkpt lat="41.52061" lon="2.22229">
        <ele>66.6</ele>
        <time>2021-11-13 08:30:32</time>
      </trkpt>
      <trkpt lat="41.52067" lon="2.22237">
        <ele>66.6</ele>
        <time>2021-11-13 08:30:33</time>
      </trkpt>
      <trkpt lat="41.52072" lon="2.22245">
        <ele>66.4</ele>
        <time>2021-11-13 08:30:34</time>
      </trkpt>
      <trkpt lat="41.52079" lon="2.22253">
        <ele>66.4</ele>
        <time>2021-11-13 08:30:35</time>
      </trkpt>
      <trkpt lat="41.52085" lon="2.22261">
        <ele>66.4</ele>
        <time>2021-11-13 08:30:36</time>
      </trkpt>
      <trkpt lat="41.52092" lon="2.22268">
        <ele>66.2</ele>
        <time>2021-11-13 08:30:37</time>
      </trkpt>
      <trkpt lat="41.52098" lon="2.22276">
        <ele>66</ele>
        <time>2021-11-13 08:30:38</time>
      </trkpt>
      <trkpt lat="41.52105" lon="2.22283">
        <ele>66</ele>
        <time>2021-11-13 08:30:39</time>
      </trkpt>
      <trkpt lat="41.52112" lon="2.2229">
        <ele>65.8</ele>
        <time>2021-11-13 08:30:40</time>
      </trkpt>
      <trkpt lat="41.52119" lon="2.22297">
        <ele>65.6</ele>
        <time>2021-11-13 08:30:41</time>
      </trkpt>
      <trkpt lat="41.52125" lon="2.22304">
        <ele>65.4</ele>
        <time>2021-11-13 08:30:42</time>
      </trkpt>
      <trkpt lat="41.52131" lon="2.22313">
        <ele>65.2</ele>
        <time>2021-11-13 08:30:43</time>
      </trkpt>
      <trkpt lat="41.52135" lon="2.22322">
        <ele>64.8</ele>
        <time>2021-11-13 08:30:44</time>
      </trkpt>
      <trkpt lat="41.52139" lon="2.22332">
        <ele>64.8</ele>
        <time>2021-11-13 08:30:45</time>
      </trkpt>
      <trkpt lat="41.52145" lon="2.22339">
        <ele>64.4</ele>
        <time>2021-11-13 08:30:46</time>
      </trkpt>
      <trkpt lat="41.52151" lon="2.22344">
        <ele>64.2</ele>
        <time>2021-11-13 08:30:47</time>
      </trkpt>
      <trkpt lat="41.52159" lon="2.22348">
        <ele>63.6</ele>
        <time>2021-11-13 08:30:48</time>
      </trkpt>
      <trkpt lat="41.52166" lon="2.22352">
        <ele>63.4</ele>
        <time>2021-11-13 08:30:49</time>
      </trkpt>
      <trkpt lat="41.52173" lon="2.22358">
        <ele>63.4</ele>
        <time>2021-11-13 08:30:50</time>
      </trkpt>
      <trkpt lat="41.52179" lon="2.22364">
        <ele>63.2</ele>
        <time>2021-11-13 08:30:51</time>
      </trkpt>
      <trkpt lat="41.52184" lon="2.22371">
        <ele>63.2</ele>
        <time>2021-11-13 08:30:52</time>
      </trkpt>
      <trkpt lat="41.5219" lon="2.22378">
        <ele>63</ele>
        <time>2021-11-13 08:30:53</time>
      </trkpt>
      <trkpt lat="41.52195" lon="2.22386">
        <ele>63</ele>
        <time>2021-11-13 08:30:54</time>
      </trkpt>
      <trkpt lat="41.52201" lon="2.22393">
        <ele>62.8</ele>
        <time>2021-11-13 08:30:55</time>
      </trkpt>
      <trkpt lat="41.52206" lon="2.22401">
        <ele>62.6</ele>
        <time>2021-11-13 08:30:56</time>
      </trkpt>
      <trkpt lat="41.52211" lon="2.22409">
        <ele>62.4</ele>
        <time>2021-11-13 08:30:57</time>
      </trkpt>
      <trkpt lat="41.52216" lon="2.22417">
        <ele>62.2</ele>
        <time>2021-11-13 08:30:58</time>
      </trkpt>
      <trkpt lat="41.5222" lon="2.22425">
        <ele>62.2</ele>
        <time>2021-11-13 08:30:59</time>
      </trkpt>
      <trkpt lat="41.52224" lon="2.22434">
        <ele>62</ele>
        <time>2021-11-13 08:31:00</time>
      </trkpt>
      <trkpt lat="41.52229" lon="2.22442">
        <ele>61.8</ele>
        <time>2021-11-13 08:31:01</time>
      </trkpt>
      <trkpt lat="41.52233" lon="2.2245">
        <ele>61.8</ele>
        <time>2021-11-13 08:31:02</time>
      </trkpt>
      <trkpt lat="41.52237" lon="2.22459">
        <ele>61.8</ele>
        <time>2021-11-13 08:31:03</time>
      </trkpt>
      <trkpt lat="41.52241" lon="2.22468">
        <ele>61.8</ele>
        <time>2021-11-13 08:31:04</time>
      </trkpt>
      <trkpt lat="41.52245" lon="2.22476">
        <ele>61.8</ele>
        <time>2021-11-13 08:31:05</time>
      </trkpt>
      <trkpt lat="41.52249" lon="2.22484">
        <ele>61.8</ele>
        <time>2021-11-13 08:31:06</time>
      </trkpt>
      <trkpt lat="41.52253" lon="2.22493">
        <ele>61.8</ele>
        <time>2021-11-13 08:31:07</time>
      </trkpt>
      <trkpt lat="41.52257" lon="2.22501">
        <ele>61.8</ele>
        <time>2021-11-13 08:31:08</time>
      </trkpt>
      <trkpt lat="41.52262" lon="2.22509">
        <ele>61.8</ele>
        <time>2021-11-13 08:31:09</time>
      </trkpt>
      <trkpt lat="41.52267" lon="2.22516">
        <ele>61.8</ele>
        <time>2021-11-13 08:31:10</time>
      </trkpt>
      <trkpt lat="41.52273" lon="2.22522">
        <ele>61.8</ele>
        <time>2021-11-13 08:31:11</time>
      </trkpt>
      <trkpt lat="41.52279" lon="2.22528">
        <ele>62</ele>
        <time>2021-11-13 08:31:12</time>
      </trkpt>
      <trkpt lat="41.52286" lon="2.22532">
        <ele>62</ele>
        <time>2021-11-13 08:31:13</time>
      </trkpt>
      <trkpt lat="41.52294" lon="2.22536">
        <ele>62</ele>
        <time>2021-11-13 08:31:14</time>
      </trkpt>
      <trkpt lat="41.52301" lon="2.22539">
        <ele>62</ele>
        <time>2021-11-13 08:31:15</time>
      </trkpt>
      <trkpt lat="41.52308" lon="2.22541">
        <ele>62</ele>
        <time>2021-11-13 08:31:16</time>
      </trkpt>
      <trkpt lat="41.52316" lon="2.22543">
        <ele>62</ele>
        <time>2021-11-13 08:31:17</time>
      </trkpt>
      <trkpt lat="41.52323" lon="2.22545">
        <ele>62</ele>
        <time>2021-11-13 08:31:18</time>
      </trkpt>
      <trkpt lat="41.5233" lon="2.22549">
        <ele>62</ele>
        <time>2021-11-13 08:31:19</time>
      </trkpt>
      <trkpt lat="41.52336" lon="2.22553">
        <ele>62</ele>
        <time>2021-11-13 08:31:20</time>
      </trkpt>
      <trkpt lat="41.52341" lon="2.22559">
        <ele>62</ele>
        <time>2021-11-13 08:31:21</time>
      </trkpt>
      <trkpt lat="41.52347" lon="2.22563">
        <ele>62</ele>
        <time>2021-11-13 08:31:22</time>
      </trkpt>
      <trkpt lat="41.52354" lon="2.22564">
        <ele>62.2</ele>
        <time>2021-11-13 08:31:23</time>
      </trkpt>
      <trkpt lat="41.5236" lon="2.22562">
        <ele>62.2</ele>
        <time>2021-11-13 08:31:24</time>
      </trkpt>
      <trkpt lat="41.52367" lon="2.2256">
        <ele>62.2</ele>
        <time>2021-11-13 08:31:25</time>
      </trkpt>
      <trkpt lat="41.52374" lon="2.22559">
        <ele>62.4</ele>
        <time>2021-11-13 08:31:26</time>
      </trkpt>
      <trkpt lat="41.52381" lon="2.22559">
        <ele>62.4</ele>
        <time>2021-11-13 08:31:27</time>
      </trkpt>
      <trkpt lat="41.52387" lon="2.2256">
        <ele>62.4</ele>
        <time>2021-11-13 08:31:28</time>
      </trkpt>
      <trkpt lat="41.52394" lon="2.22562">
        <ele>62.6</ele>
        <time>2021-11-13 08:31:29</time>
      </trkpt>
      <trkpt lat="41.524" lon="2.22564">
        <ele>62.6</ele>
        <time>2021-11-13 08:31:30</time>
      </trkpt>
      <trkpt lat="41.52407" lon="2.22566">
        <ele>62.8</ele>
        <time>2021-11-13 08:31:31</time>
      </trkpt>
      <trkpt lat="41.52414" lon="2.22568">
        <ele>62.8</ele>
        <time>2021-11-13 08:31:32</time>
      </trkpt>
      <trkpt lat="41.5242" lon="2.2257">
        <ele>62.8</ele>
        <time>2021-11-13 08:31:33</time>
      </trkpt>
      <trkpt lat="41.52427" lon="2.22572">
        <ele>63</ele>
        <time>2021-11-13 08:31:34</time>
      </trkpt>
      <trkpt lat="41.52434" lon="2.22574">
        <ele>63</ele>
        <time>2021-11-13 08:31:35</time>
      </trkpt>
      <trkpt lat="41.5244" lon="2.22576">
        <ele>63</ele>
        <time>2021-11-13 08:31:36</time>
      </trkpt>
      <trkpt lat="41.52447" lon="2.22577">
        <ele>63</ele>
        <time>2021-11-13 08:31:37</time>
      </trkpt>
      <trkpt lat="41.52453" lon="2.22579">
        <ele>63</ele>
        <time>2021-11-13 08:31:38</time>
      </trkpt>
      <trkpt lat="41.5246" lon="2.22581">
        <ele>63.2</ele>
        <time>2021-11-13 08:31:39</time>
      </trkpt>
      <trkpt lat="41.52466" lon="2.22583">
        <ele>63.2</ele>
        <time>2021-11-13 08:31:40</time>
      </trkpt>
      <trkpt lat="41.52472" lon="2.22585">
        <ele>63.4</ele>
        <time>2021-11-13 08:31:41</time>
      </trkpt>
      <trkpt lat="41.52478" lon="2.22586">
        <ele>63.6</ele>
        <time>2021-11-13 08:31:42</time>
      </trkpt>
      <trkpt lat="41.52484" lon="2.22588">
        <ele>63.6</ele>
        <time>2021-11-13 08:31:43</time>
      </trkpt>
      <trkpt lat="41.5249" lon="2.2259">
        <ele>63.8</ele>
        <time>2021-11-13 08:31:44</time>
      </trkpt>
      <trkpt lat="41.52496" lon="2.22591">
        <ele>64</ele>
        <time>2021-11-13 08:31:45</time>
      </trkpt>
      <trkpt lat="41.52502" lon="2.22593">
        <ele>64.2</ele>
        <time>2021-11-13 08:31:46</time>
      </trkpt>
      <trkpt lat="41.52508" lon="2.22594">
        <ele>64.2</ele>
        <time>2021-11-13 08:31:47</time>
      </trkpt>
      <trkpt lat="41.52514" lon="2.22596">
        <ele>64.6</ele>
        <time>2021-11-13 08:31:48</time>
      </trkpt>
      <trkpt lat="41.5252" lon="2.22598">
        <ele>64.6</ele>
        <time>2021-11-13 08:31:49</time>
      </trkpt>
      <trkpt lat="41.52526" lon="2.22599">
        <ele>64.8</ele>
        <time>2021-11-13 08:31:50</time>
      </trkpt>
      <trkpt lat="41.52532" lon="2.226">
        <ele>64.8</ele>
        <time>2021-11-13 08:31:51</time>
      </trkpt>
      <trkpt lat="41.52538" lon="2.22602">
        <ele>65</ele>
        <time>2021-11-13 08:31:52</time>
      </trkpt>
      <trkpt lat="41.52544" lon="2.22603">
        <ele>65.2</ele>
        <time>2021-11-13 08:31:53</time>
      </trkpt>
      <trkpt lat="41.5255" lon="2.22605">
        <ele>65.6</ele>
        <time>2021-11-13 08:31:54</time>
      </trkpt>
      <trkpt lat="41.52555" lon="2.22606">
        <ele>65.8</ele>
        <time>2021-11-13 08:31:55</time>
      </trkpt>
      <trkpt lat="41.52561" lon="2.22608">
        <ele>66</ele>
        <time>2021-11-13 08:31:56</time>
      </trkpt>
      <trkpt lat="41.52566" lon="2.22609">
        <ele>66.2</ele>
        <time>2021-11-13 08:31:57</time>
      </trkpt>
      <trkpt lat="41.52572" lon="2.22611">
        <ele>66.4</ele>
        <time>2021-11-13 08:31:58</time>
      </trkpt>
      <trkpt lat="41.52578" lon="2.22612">
        <ele>66.6</ele>
        <time>2021-11-13 08:31:59</time>
      </trkpt>
      <trkpt lat="41.52584" lon="2.22614">
        <ele>66.8</ele>
        <time>2021-11-13 08:32:00</time>
      </trkpt>
      <trkpt lat="41.5259" lon="2.22616">
        <ele>66.8</ele>
        <time>2021-11-13 08:32:01</time>
      </trkpt>
      <trkpt lat="41.52596" lon="2.22618">
        <ele>66.8</ele>
        <time>2021-11-13 08:32:02</time>
      </trkpt>
      <trkpt lat="41.52602" lon="2.2262">
        <ele>67</ele>
        <time>2021-11-13 08:32:03</time>
      </trkpt>
      <trkpt lat="41.52608" lon="2.22621">
        <ele>67</ele>
        <time>2021-11-13 08:32:04</time>
      </trkpt>
      <trkpt lat="41.52614" lon="2.22623">
        <ele>67</ele>
        <time>2021-11-13 08:32:05</time>
      </trkpt>
      <trkpt lat="41.5262" lon="2.22624">
        <ele>67.2</ele>
        <time>2021-11-13 08:32:06</time>
      </trkpt>
      <trkpt lat="41.52626" lon="2.22626">
        <ele>67.2</ele>
        <time>2021-11-13 08:32:07</time>
      </trkpt>
      <trkpt lat="41.52632" lon="2.22627">
        <ele>67.2</ele>
        <time>2021-11-13 08:32:08</time>
      </trkpt>
      <trkpt lat="41.52638" lon="2.22629">
        <ele>67.2</ele>
        <time>2021-11-13 08:32:09</time>
      </trkpt>
      <trkpt lat="41.52644" lon="2.2263">
        <ele>67.2</ele>
        <time>2021-11-13 08:32:10</time>
      </trkpt>
      <trkpt lat="41.52649" lon="2.22632">
        <ele>67.2</ele>
        <time>2021-11-13 08:32:11</time>
      </trkpt>
      <trkpt lat="41.52655" lon="2.22633">
        <ele>67.2</ele>
        <time>2021-11-13 08:32:12</time>
      </trkpt>
      <trkpt lat="41.5266" lon="2.22635">
        <ele>67.2</ele>
        <time>2021-11-13 08:32:13</time>
      </trkpt>
      <trkpt lat="41.52666" lon="2.22636">
        <ele>67.2</ele>
        <time>2021-11-13 08:32:14</time>
      </trkpt>
      <trkpt lat="41.5267" lon="2.22637">
        <ele>67.2</ele>
        <time>2021-11-13 08:32:15</time>
      </trkpt>
      <trkpt lat="41.52674" lon="2.22638">
        <ele>67</ele>
        <time>2021-11-13 08:32:16</time>
      </trkpt>
      <trkpt lat="41.52677" lon="2.22639">
        <ele>67</ele>
        <time>2021-11-13 08:32:17</time>
      </trkpt>
      <trkpt lat="41.5268" lon="2.2264">
        <ele>67</ele>
        <time>2021-11-13 08:32:18</time>
      </trkpt>
      <trkpt lat="41.52682" lon="2.22642">
        <ele>67</ele>
        <time>2021-11-13 08:32:19</time>
      </trkpt>
      <trkpt lat="41.52684" lon="2.22643">
        <ele>67</ele>
        <time>2021-11-13 08:32:20</time>
      </trkpt>
      <trkpt lat="41.52685" lon="2.22644">
        <ele>67</ele>
        <time>2021-11-13 08:32:21</time>
      </trkpt>
      <trkpt lat="41.52686" lon="2.22644">
        <ele>67</ele>
        <time>2021-11-13 08:32:22</time>
      </trkpt>
      <trkpt lat="41.52686" lon="2.22644">
        <ele>67</ele>
        <time>2021-11-13 08:32:23</time>
      </trkpt>
      <trkpt lat="41.52686" lon="2.22644">
        <ele>67</ele>
        <time>2021-11-13 08:32:24</time>
      </trkpt>
      <trkpt lat="41.5269" lon="2.22647">
        <ele>66.8</ele>
        <time>2021-11-13 08:32:25</time>
      </trkpt>
      <trkpt lat="41.52692" lon="2.22648">
        <ele>66.8</ele>
        <time>2021-11-13 08:32:26</time>
      </trkpt>
      <trkpt lat="41.52694" lon="2.2265">
        <ele>66.8</ele>
        <time>2021-11-13 08:32:27</time>
      </trkpt>
      <trkpt lat="41.52697" lon="2.22653">
        <ele>66.8</ele>
        <time>2021-11-13 08:32:28</time>
      </trkpt>
      <trkpt lat="41.527" lon="2.22656">
        <ele>66.8</ele>
        <time>2021-11-13 08:32:29</time>
      </trkpt>
      <trkpt lat="41.52704" lon="2.2266">
        <ele>66.8</ele>
        <time>2021-11-13 08:32:30</time>
      </trkpt>
      <trkpt lat="41.52708" lon="2.22665">
        <ele>66.8</ele>
        <time>2021-11-13 08:32:31</time>
      </trkpt>
      <trkpt lat="41.52712" lon="2.2267">
        <ele>66.6</ele>
        <time>2021-11-13 08:32:32</time>
      </trkpt>
      <trkpt lat="41.52717" lon="2.22675">
        <ele>66.6</ele>
        <time>2021-11-13 08:32:33</time>
      </trkpt>
      <trkpt lat="41.52721" lon="2.2268">
        <ele>66.6</ele>
        <time>2021-11-13 08:32:40</time>
      </trkpt>
      <trkpt lat="41.52726" lon="2.22686">
        <ele>66.4</ele>
        <time>2021-11-13 08:32:41</time>
      </trkpt>
      <trkpt lat="41.52731" lon="2.22691">
        <ele>66.4</ele>
        <time>2021-11-13 08:32:42</time>
      </trkpt>
      <trkpt lat="41.52736" lon="2.22697">
        <ele>66.4</ele>
        <time>2021-11-13 08:32:43</time>
      </trkpt>
      <trkpt lat="41.52741" lon="2.22704">
        <ele>66.2</ele>
        <time>2021-11-13 08:32:44</time>
      </trkpt>
      <trkpt lat="41.52746" lon="2.2271">
        <ele>66.2</ele>
        <time>2021-11-13 08:32:45</time>
      </trkpt>
      <trkpt lat="41.52751" lon="2.22716">
        <ele>66.2</ele>
        <time>2021-11-13 08:32:46</time>
      </trkpt>
      <trkpt lat="41.52757" lon="2.22723">
        <ele>66</ele>
        <time>2021-11-13 08:32:47</time>
      </trkpt>
      <trkpt lat="41.52762" lon="2.22729">
        <ele>66</ele>
        <time>2021-11-13 08:32:48</time>
      </trkpt>
      <trkpt lat="41.52768" lon="2.22735">
        <ele>66</ele>
        <time>2021-11-13 08:32:49</time>
      </trkpt>
      <trkpt lat="41.52774" lon="2.22742">
        <ele>66</ele>
        <time>2021-11-13 08:32:50</time>
      </trkpt>
      <trkpt lat="41.5278" lon="2.22749">
        <ele>66</ele>
        <time>2021-11-13 08:32:51</time>
      </trkpt>
      <trkpt lat="41.52785" lon="2.22755">
        <ele>65.8</ele>
        <time>2021-11-13 08:32:52</time>
      </trkpt>
      <trkpt lat="41.52791" lon="2.22762">
        <ele>65.8</ele>
        <time>2021-11-13 08:32:53</time>
      </trkpt>
      <trkpt lat="41.52797" lon="2.22769">
        <ele>65.8</ele>
        <time>2021-11-13 08:32:54</time>
      </trkpt>
      <trkpt lat="41.52803" lon="2.22776">
        <ele>65.8</ele>
        <time>2021-11-13 08:32:55</time>
      </trkpt>
      <trkpt lat="41.52808" lon="2.22782">
        <ele>65.8</ele>
        <time>2021-11-13 08:32:56</time>
      </trkpt>
      <trkpt lat="41.52813" lon="2.22789">
        <ele>65.8</ele>
        <time>2021-11-13 08:32:57</time>
      </trkpt>
      <trkpt lat="41.52819" lon="2.22796">
        <ele>65.6</ele>
        <time>2021-11-13 08:32:58</time>
      </trkpt>
      <trkpt lat="41.52825" lon="2.22803">
        <ele>65.6</ele>
        <time>2021-11-13 08:32:59</time>
      </trkpt>
      <trkpt lat="41.5283" lon="2.2281">
        <ele>65.6</ele>
        <time>2021-11-13 08:33:00</time>
      </trkpt>
      <trkpt lat="41.52834" lon="2.22817">
        <ele>65.6</ele>
        <time>2021-11-13 08:33:01</time>
      </trkpt>
      <trkpt lat="41.52837" lon="2.22825">
        <ele>65.6</ele>
        <time>2021-11-13 08:33:02</time>
      </trkpt>
      <trkpt lat="41.52838" lon="2.22834">
        <ele>65.4</ele>
        <time>2021-11-13 08:33:03</time>
      </trkpt>
      <trkpt lat="41.52839" lon="2.22843">
        <ele>65.4</ele>
        <time>2021-11-13 08:33:04</time>
      </trkpt>
      <trkpt lat="41.52839" lon="2.22853">
        <ele>65.4</ele>
        <time>2021-11-13 08:33:05</time>
      </trkpt>
      <trkpt lat="41.52839" lon="2.22862">
        <ele>65.4</ele>
        <time>2021-11-13 08:33:06</time>
      </trkpt>
      <trkpt lat="41.5284" lon="2.22871">
        <ele>65.4</ele>
        <time>2021-11-13 08:33:07</time>
      </trkpt>
      <trkpt lat="41.52842" lon="2.22879">
        <ele>65.6</ele>
        <time>2021-11-13 08:33:08</time>
      </trkpt>
      <trkpt lat="41.52843" lon="2.22888">
        <ele>65.6</ele>
        <time>2021-11-13 08:33:09</time>
      </trkpt>
      <trkpt lat="41.52845" lon="2.22897">
        <ele>65.6</ele>
        <time>2021-11-13 08:33:10</time>
      </trkpt>
      <trkpt lat="41.52847" lon="2.22905">
        <ele>65.8</ele>
        <time>2021-11-13 08:33:11</time>
      </trkpt>
      <trkpt lat="41.5285" lon="2.22913">
        <ele>65.8</ele>
        <time>2021-11-13 08:33:12</time>
      </trkpt>
      <trkpt lat="41.52854" lon="2.2292">
        <ele>66.2</ele>
        <time>2021-11-13 08:33:13</time>
      </trkpt>
      <trkpt lat="41.52858" lon="2.22927">
        <ele>66.4</ele>
        <time>2021-11-13 08:33:14</time>
      </trkpt>
      <trkpt lat="41.52863" lon="2.22933">
        <ele>66.6</ele>
        <time>2021-11-13 08:33:15</time>
      </trkpt>
      <trkpt lat="41.52869" lon="2.22939">
        <ele>66.8</ele>
        <time>2021-11-13 08:33:16</time>
      </trkpt>
      <trkpt lat="41.52875" lon="2.22943">
        <ele>67</ele>
        <time>2021-11-13 08:33:17</time>
      </trkpt>
      <trkpt lat="41.52881" lon="2.22947">
        <ele>67.4</ele>
        <time>2021-11-13 08:33:18</time>
      </trkpt>
      <trkpt lat="41.52887" lon="2.22952">
        <ele>67.4</ele>
        <time>2021-11-13 08:33:19</time>
      </trkpt>
      <trkpt lat="41.52893" lon="2.22956">
        <ele>67.6</ele>
        <time>2021-11-13 08:33:20</time>
      </trkpt>
      <trkpt lat="41.529" lon="2.22961">
        <ele>67.8</ele>
        <time>2021-11-13 08:33:21</time>
      </trkpt>
      <trkpt lat="41.52906" lon="2.22966">
        <ele>68.2</ele>
        <time>2021-11-13 08:33:22</time>
      </trkpt>
      <trkpt lat="41.52913" lon="2.2297">
        <ele>68.4</ele>
        <time>2021-11-13 08:33:23</time>
      </trkpt>
      <trkpt lat="41.5292" lon="2.22974">
        <ele>68.6</ele>
        <time>2021-11-13 08:33:24</time>
      </trkpt>
      <trkpt lat="41.52926" lon="2.22978">
        <ele>68.8</ele>
        <time>2021-11-13 08:33:25</time>
      </trkpt>
      <trkpt lat="41.52932" lon="2.22983">
        <ele>68.8</ele>
        <time>2021-11-13 08:33:26</time>
      </trkpt>
      <trkpt lat="41.52939" lon="2.22987">
        <ele>69</ele>
        <time>2021-11-13 08:33:27</time>
      </trkpt>
      <trkpt lat="41.52945" lon="2.22992">
        <ele>69</ele>
        <time>2021-11-13 08:33:28</time>
      </trkpt>
      <trkpt lat="41.52952" lon="2.22996">
        <ele>69.2</ele>
        <time>2021-11-13 08:33:29</time>
      </trkpt>
      <trkpt lat="41.52958" lon="2.23001">
        <ele>69.2</ele>
        <time>2021-11-13 08:33:30</time>
      </trkpt>
      <trkpt lat="41.52965" lon="2.23006">
        <ele>69.4</ele>
        <time>2021-11-13 08:33:31</time>
      </trkpt>
      <trkpt lat="41.52971" lon="2.23011">
        <ele>69.6</ele>
        <time>2021-11-13 08:33:32</time>
      </trkpt>
      <trkpt lat="41.52977" lon="2.23018">
        <ele>69.6</ele>
        <time>2021-11-13 08:33:33</time>
      </trkpt>
      <trkpt lat="41.52982" lon="2.23024">
        <ele>70</ele>
        <time>2021-11-13 08:33:34</time>
      </trkpt>
      <trkpt lat="41.52987" lon="2.23032">
        <ele>70</ele>
        <time>2021-11-13 08:33:35</time>
      </trkpt>
      <trkpt lat="41.52991" lon="2.23039">
        <ele>70</ele>
        <time>2021-11-13 08:33:36</time>
      </trkpt>
      <trkpt lat="41.52996" lon="2.23046">
        <ele>70</ele>
        <time>2021-11-13 08:33:37</time>
      </trkpt>
      <trkpt lat="41.53001" lon="2.23053">
        <ele>70.2</ele>
        <time>2021-11-13 08:33:38</time>
      </trkpt>
      <trkpt lat="41.53005" lon="2.2306">
        <ele>70.2</ele>
        <time>2021-11-13 08:33:39</time>
      </trkpt>
      <trkpt lat="41.5301" lon="2.23067">
        <ele>70.4</ele>
        <time>2021-11-13 08:33:40</time>
      </trkpt>
      <trkpt lat="41.53015" lon="2.23075">
        <ele>70.4</ele>
        <time>2021-11-13 08:33:41</time>
      </trkpt>
      <trkpt lat="41.53019" lon="2.23082">
        <ele>70.6</ele>
        <time>2021-11-13 08:33:42</time>
      </trkpt>
      <trkpt lat="41.53024" lon="2.2309">
        <ele>70.8</ele>
        <time>2021-11-13 08:33:43</time>
      </trkpt>
      <trkpt lat="41.53028" lon="2.23098">
        <ele>70.8</ele>
        <time>2021-11-13 08:33:44</time>
      </trkpt>
      <trkpt lat="41.53032" lon="2.23106">
        <ele>71</ele>
        <time>2021-11-13 08:33:45</time>
      </trkpt>
      <trkpt lat="41.53035" lon="2.23115">
        <ele>71</ele>
        <time>2021-11-13 08:33:46</time>
      </trkpt>
      <trkpt lat="41.53038" lon="2.23123">
        <ele>71.2</ele>
        <time>2021-11-13 08:33:47</time>
      </trkpt>
      <trkpt lat="41.53041" lon="2.23132">
        <ele>71.2</ele>
        <time>2021-11-13 08:33:48</time>
      </trkpt>
      <trkpt lat="41.53044" lon="2.23142">
        <ele>71.4</ele>
        <time>2021-11-13 08:33:49</time>
      </trkpt>
      <trkpt lat="41.53047" lon="2.23151">
        <ele>71.4</ele>
        <time>2021-11-13 08:33:50</time>
      </trkpt>
      <trkpt lat="41.53049" lon="2.2316">
        <ele>71.4</ele>
        <time>2021-11-13 08:33:51</time>
      </trkpt>
      <trkpt lat="41.53051" lon="2.2317">
        <ele>71.6</ele>
        <time>2021-11-13 08:33:52</time>
      </trkpt>
      <trkpt lat="41.53053" lon="2.23179">
        <ele>71.6</ele>
        <time>2021-11-13 08:33:53</time>
      </trkpt>
      <trkpt lat="41.53056" lon="2.23188">
        <ele>71.8</ele>
        <time>2021-11-13 08:33:54</time>
      </trkpt>
      <trkpt lat="41.5306" lon="2.23196">
        <ele>71.8</ele>
        <time>2021-11-13 08:33:55</time>
      </trkpt>
      <trkpt lat="41.53065" lon="2.23204">
        <ele>72</ele>
        <time>2021-11-13 08:33:56</time>
      </trkpt>
      <trkpt lat="41.5307" lon="2.2321">
        <ele>72</ele>
        <time>2021-11-13 08:33:57</time>
      </trkpt>
      <trkpt lat="41.53076" lon="2.23217">
        <ele>72</ele>
        <time>2021-11-13 08:33:58</time>
      </trkpt>
      <trkpt lat="41.53082" lon="2.23223">
        <ele>72</ele>
        <time>2021-11-13 08:33:59</time>
      </trkpt>
      <trkpt lat="41.53088" lon="2.23229">
        <ele>72.2</ele>
        <time>2021-11-13 08:34:00</time>
      </trkpt>
      <trkpt lat="41.53094" lon="2.23235">
        <ele>72.2</ele>
        <time>2021-11-13 08:34:01</time>
      </trkpt>
      <trkpt lat="41.531" lon="2.23241">
        <ele>72.2</ele>
        <time>2021-11-13 08:34:02</time>
      </trkpt>
      <trkpt lat="41.53105" lon="2.23248">
        <ele>72.4</ele>
        <time>2021-11-13 08:34:03</time>
      </trkpt>
      <trkpt lat="41.5311" lon="2.23255">
        <ele>72.4</ele>
        <time>2021-11-13 08:34:04</time>
      </trkpt>
      <trkpt lat="41.53115" lon="2.23262">
        <ele>72.6</ele>
        <time>2021-11-13 08:34:05</time>
      </trkpt>
      <trkpt lat="41.5312" lon="2.2327">
        <ele>72.6</ele>
        <time>2021-11-13 08:34:06</time>
      </trkpt>
      <trkpt lat="41.53125" lon="2.23277">
        <ele>72.6</ele>
        <time>2021-11-13 08:34:07</time>
      </trkpt>
      <trkpt lat="41.53128" lon="2.23286">
        <ele>72.8</ele>
        <time>2021-11-13 08:34:08</time>
      </trkpt>
      <trkpt lat="41.53131" lon="2.23295">
        <ele>72.8</ele>
        <time>2021-11-13 08:34:09</time>
      </trkpt>
      <trkpt lat="41.53134" lon="2.23304">
        <ele>73</ele>
        <time>2021-11-13 08:34:10</time>
      </trkpt>
      <trkpt lat="41.53135" lon="2.23313">
        <ele>73</ele>
        <time>2021-11-13 08:34:11</time>
      </trkpt>
      <trkpt lat="41.53136" lon="2.23322">
        <ele>73.2</ele>
        <time>2021-11-13 08:34:12</time>
      </trkpt>
      <trkpt lat="41.53139" lon="2.23341">
        <ele>73.2</ele>
        <time>2021-11-13 08:34:13</time>
      </trkpt>
      <trkpt lat="41.53139" lon="2.23341">
        <ele>73.4</ele>
        <time>2021-11-13 08:34:14</time>
      </trkpt>
      <trkpt lat="41.53141" lon="2.2335">
        <ele>73.4</ele>
        <time>2021-11-13 08:34:15</time>
      </trkpt>
      <trkpt lat="41.53146" lon="2.23367">
        <ele>73.6</ele>
        <time>2021-11-13 08:34:16</time>
      </trkpt>
      <trkpt lat="41.53146" lon="2.23367">
        <ele>73.6</ele>
        <time>2021-11-13 08:34:17</time>
      </trkpt>
      <trkpt lat="41.53148" lon="2.23375">
        <ele>74</ele>
        <time>2021-11-13 08:34:18</time>
      </trkpt>
      <trkpt lat="41.53154" lon="2.23391">
        <ele>74.2</ele>
        <time>2021-11-13 08:34:19</time>
      </trkpt>
      <trkpt lat="41.53154" lon="2.23391">
        <ele>74.4</ele>
        <time>2021-11-13 08:34:20</time>
      </trkpt>
      <trkpt lat="41.53158" lon="2.23399">
        <ele>74.4</ele>
        <time>2021-11-13 08:34:21</time>
      </trkpt>
      <trkpt lat="41.53161" lon="2.23408">
        <ele>74.6</ele>
        <time>2021-11-13 08:34:22</time>
      </trkpt>
      <trkpt lat="41.53164" lon="2.23416">
        <ele>74.8</ele>
        <time>2021-11-13 08:34:23</time>
      </trkpt>
      <trkpt lat="41.53171" lon="2.23433">
        <ele>74.8</ele>
        <time>2021-11-13 08:34:24</time>
      </trkpt>
      <trkpt lat="41.53171" lon="2.23433">
        <ele>75</ele>
        <time>2021-11-13 08:34:25</time>
      </trkpt>
      <trkpt lat="41.53175" lon="2.23442">
        <ele>75</ele>
        <time>2021-11-13 08:34:26</time>
      </trkpt>
      <trkpt lat="41.53179" lon="2.23451">
        <ele>75.2</ele>
        <time>2021-11-13 08:34:27</time>
      </trkpt>
      <trkpt lat="41.53183" lon="2.23459">
        <ele>75.2</ele>
        <time>2021-11-13 08:34:28</time>
      </trkpt>
      <trkpt lat="41.53195" lon="2.23475">
        <ele>75.2</ele>
        <time>2021-11-13 08:34:29</time>
      </trkpt>
      <trkpt lat="41.53195" lon="2.23475">
        <ele>75</ele>
        <time>2021-11-13 08:34:30</time>
      </trkpt>
      <trkpt lat="41.53209" lon="2.23489">
        <ele>75</ele>
        <time>2021-11-13 08:34:31</time>
      </trkpt>
      <trkpt lat="41.53217" lon="2.23496">
        <ele>74.8</ele>
        <time>2021-11-13 08:34:32</time>
      </trkpt>
      <trkpt lat="41.53217" lon="2.23496">
        <ele>74.8</ele>
        <time>2021-11-13 08:34:33</time>
      </trkpt>
      <trkpt lat="41.53233" lon="2.23511">
        <ele>74.8</ele>
        <time>2021-11-13 08:34:34</time>
      </trkpt>
      <trkpt lat="41.53241" lon="2.2352">
        <ele>74.4</ele>
        <time>2021-11-13 08:34:35</time>
      </trkpt>
      <trkpt lat="41.53248" lon="2.23529">
        <ele>74.2</ele>
        <time>2021-11-13 08:34:36</time>
      </trkpt>
      <trkpt lat="41.53254" lon="2.2354">
        <ele>73.8</ele>
        <time>2021-11-13 08:34:37</time>
      </trkpt>
      <trkpt lat="41.53259" lon="2.23552">
        <ele>73.4</ele>
        <time>2021-11-13 08:34:38</time>
      </trkpt>
      <trkpt lat="41.53262" lon="2.23565">
        <ele>72.4</ele>
        <time>2021-11-13 08:34:39</time>
      </trkpt>
      <trkpt lat="41.53265" lon="2.23578">
        <ele>72</ele>
        <time>2021-11-13 08:34:40</time>
      </trkpt>
      <trkpt lat="41.53269" lon="2.2359">
        <ele>71.6</ele>
        <time>2021-11-13 08:34:41</time>
      </trkpt>
      <trkpt lat="41.53269" lon="2.2359">
        <ele>71.4</ele>
        <time>2021-11-13 08:34:42</time>
      </trkpt>
      <trkpt lat="41.53281" lon="2.23609">
        <ele>70.6</ele>
        <time>2021-11-13 08:34:43</time>
      </trkpt>
      <trkpt lat="41.53281" lon="2.23609">
        <ele>69.8</ele>
        <time>2021-11-13 08:34:44</time>
      </trkpt>
      <trkpt lat="41.53288" lon="2.23617">
        <ele>69.6</ele>
        <time>2021-11-13 08:34:45</time>
      </trkpt>
      <trkpt lat="41.53303" lon="2.23631">
        <ele>69.2</ele>
        <time>2021-11-13 08:34:46</time>
      </trkpt>
      <trkpt lat="41.53309" lon="2.2364">
        <ele>69</ele>
        <time>2021-11-13 08:34:47</time>
      </trkpt>
      <trkpt lat="41.53314" lon="2.2365">
        <ele>68.8</ele>
        <time>2021-11-13 08:34:48</time>
      </trkpt>
      <trkpt lat="41.53318" lon="2.2366">
        <ele>68.8</ele>
        <time>2021-11-13 08:34:49</time>
      </trkpt>
      <trkpt lat="41.53322" lon="2.2367">
        <ele>68.8</ele>
        <time>2021-11-13 08:34:50</time>
      </trkpt>
      <trkpt lat="41.53325" lon="2.23679">
        <ele>68.6</ele>
        <time>2021-11-13 08:34:51</time>
      </trkpt>
      <trkpt lat="41.53329" lon="2.23688">
        <ele>68.6</ele>
        <time>2021-11-13 08:34:52</time>
      </trkpt>
      <trkpt lat="41.53329" lon="2.23688">
        <ele>68.4</ele>
        <time>2021-11-13 08:34:53</time>
      </trkpt>
      <trkpt lat="41.53338" lon="2.23707">
        <ele>68.4</ele>
        <time>2021-11-13 08:34:54</time>
      </trkpt>
      <trkpt lat="41.53342" lon="2.23716">
        <ele>68.4</ele>
        <time>2021-11-13 08:34:55</time>
      </trkpt>
      <trkpt lat="41.53346" lon="2.23725">
        <ele>68.4</ele>
        <time>2021-11-13 08:34:56</time>
      </trkpt>
      <trkpt lat="41.53351" lon="2.23734">
        <ele>68.4</ele>
        <time>2021-11-13 08:34:57</time>
      </trkpt>
      <trkpt lat="41.53355" lon="2.23742">
        <ele>68.6</ele>
        <time>2021-11-13 08:34:58</time>
      </trkpt>
      <trkpt lat="41.53359" lon="2.23751">
        <ele>68.6</ele>
        <time>2021-11-13 08:34:59</time>
      </trkpt>
      <trkpt lat="41.53364" lon="2.2376">
        <ele>68.6</ele>
        <time>2021-11-13 08:35:00</time>
      </trkpt>
      <trkpt lat="41.53368" lon="2.23768">
        <ele>68.6</ele>
        <time>2021-11-13 08:35:01</time>
      </trkpt>
      <trkpt lat="41.53373" lon="2.23777">
        <ele>68.6</ele>
        <time>2021-11-13 08:35:02</time>
      </trkpt>
      <trkpt lat="41.53377" lon="2.23785">
        <ele>68.6</ele>
        <time>2021-11-13 08:35:03</time>
      </trkpt>
      <trkpt lat="41.53381" lon="2.23794">
        <ele>68.8</ele>
        <time>2021-11-13 08:35:04</time>
      </trkpt>
      <trkpt lat="41.53385" lon="2.23802">
        <ele>68.8</ele>
        <time>2021-11-13 08:35:05</time>
      </trkpt>
      <trkpt lat="41.53385" lon="2.23802">
        <ele>69</ele>
        <time>2021-11-13 08:35:06</time>
      </trkpt>
      <trkpt lat="41.53389" lon="2.2381">
        <ele>69</ele>
        <time>2021-11-13 08:35:07</time>
      </trkpt>
      <trkpt lat="41.53396" lon="2.23825">
        <ele>69.4</ele>
        <time>2021-11-13 08:35:08</time>
      </trkpt>
      <trkpt lat="41.534" lon="2.23833">
        <ele>69.4</ele>
        <time>2021-11-13 08:35:09</time>
      </trkpt>
      <trkpt lat="41.53404" lon="2.23841">
        <ele>69.8</ele>
        <time>2021-11-13 08:35:10</time>
      </trkpt>
      <trkpt lat="41.53408" lon="2.23848">
        <ele>70</ele>
        <time>2021-11-13 08:35:11</time>
      </trkpt>
      <trkpt lat="41.53412" lon="2.23855">
        <ele>70.2</ele>
        <time>2021-11-13 08:35:12</time>
      </trkpt>
      <trkpt lat="41.53412" lon="2.23855">
        <ele>70.6</ele>
        <time>2021-11-13 08:35:13</time>
      </trkpt>
      <trkpt lat="41.53419" lon="2.2387">
        <ele>70.8</ele>
        <time>2021-11-13 08:35:14</time>
      </trkpt>
      <trkpt lat="41.53423" lon="2.23878">
        <ele>71</ele>
        <time>2021-11-13 08:35:15</time>
      </trkpt>
      <trkpt lat="41.53423" lon="2.23878">
        <ele>71.2</ele>
        <time>2021-11-13 08:35:16</time>
      </trkpt>
      <trkpt lat="41.53431" lon="2.23893">
        <ele>71.4</ele>
        <time>2021-11-13 08:35:17</time>
      </trkpt>
      <trkpt lat="41.53436" lon="2.239">
        <ele>71.6</ele>
        <time>2021-11-13 08:35:18</time>
      </trkpt>
      <trkpt lat="41.53436" lon="2.239">
        <ele>71.8</ele>
        <time>2021-11-13 08:35:19</time>
      </trkpt>
      <trkpt lat="41.53445" lon="2.23913">
        <ele>72</ele>
        <time>2021-11-13 08:35:20</time>
      </trkpt>
      <trkpt lat="41.53451" lon="2.23919">
        <ele>72</ele>
        <time>2021-11-13 08:35:21</time>
      </trkpt>
      <trkpt lat="41.53451" lon="2.23919">
        <ele>72.6</ele>
        <time>2021-11-13 08:35:22</time>
      </trkpt>
      <trkpt lat="41.53463" lon="2.23929">
        <ele>72.6</ele>
        <time>2021-11-13 08:35:23</time>
      </trkpt>
      <trkpt lat="41.53468" lon="2.23934">
        <ele>73</ele>
        <time>2021-11-13 08:35:24</time>
      </trkpt>
      <trkpt lat="41.53468" lon="2.23934">
        <ele>73.2</ele>
        <time>2021-11-13 08:35:25</time>
      </trkpt>
      <trkpt lat="41.53481" lon="2.23941">
        <ele>73.4</ele>
        <time>2021-11-13 08:35:26</time>
      </trkpt>
      <trkpt lat="41.53488" lon="2.23945">
        <ele>73.4</ele>
        <time>2021-11-13 08:35:27</time>
      </trkpt>
      <trkpt lat="41.53495" lon="2.23949">
        <ele>73.6</ele>
        <time>2021-11-13 08:35:28</time>
      </trkpt>
      <trkpt lat="41.53502" lon="2.23953">
        <ele>73.6</ele>
        <time>2021-11-13 08:35:29</time>
      </trkpt>
      <trkpt lat="41.53502" lon="2.23953">
        <ele>73.8</ele>
        <time>2021-11-13 08:35:30</time>
      </trkpt>
      <trkpt lat="41.53516" lon="2.23961">
        <ele>73.8</ele>
        <time>2021-11-13 08:35:31</time>
      </trkpt>
      <trkpt lat="41.53523" lon="2.23965">
        <ele>73.8</ele>
        <time>2021-11-13 08:35:32</time>
      </trkpt>
      <trkpt lat="41.5353" lon="2.2397">
        <ele>74</ele>
        <time>2021-11-13 08:35:33</time>
      </trkpt>
      <trkpt lat="41.53536" lon="2.23976">
        <ele>74</ele>
        <time>2021-11-13 08:35:34</time>
      </trkpt>
      <trkpt lat="41.53536" lon="2.23976">
        <ele>74</ele>
        <time>2021-11-13 08:35:35</time>
      </trkpt>
      <trkpt lat="41.53549" lon="2.23988">
        <ele>74</ele>
        <time>2021-11-13 08:35:36</time>
      </trkpt>
      <trkpt lat="41.53554" lon="2.23994">
        <ele>74.2</ele>
        <time>2021-11-13 08:35:37</time>
      </trkpt>
      <trkpt lat="41.5356" lon="2.24001">
        <ele>74.2</ele>
        <time>2021-11-13 08:35:38</time>
      </trkpt>
      <trkpt lat="41.53565" lon="2.24006">
        <ele>74.4</ele>
        <time>2021-11-13 08:35:39</time>
      </trkpt>
      <trkpt lat="41.5357" lon="2.24012">
        <ele>74.4</ele>
        <time>2021-11-13 08:35:40</time>
      </trkpt>
      <trkpt lat="41.5357" lon="2.24012">
        <ele>74.4</ele>
        <time>2021-11-13 08:35:41</time>
      </trkpt>
      <trkpt lat="41.5358" lon="2.24023">
        <ele>74.6</ele>
        <time>2021-11-13 08:35:42</time>
      </trkpt>
      <trkpt lat="41.53585" lon="2.24028">
        <ele>74.6</ele>
        <time>2021-11-13 08:35:43</time>
      </trkpt>
      <trkpt lat="41.53585" lon="2.24028">
        <ele>74.8</ele>
        <time>2021-11-13 08:35:44</time>
      </trkpt>
      <trkpt lat="41.53598" lon="2.24035">
        <ele>75.2</ele>
        <time>2021-11-13 08:35:45</time>
      </trkpt>
      <trkpt lat="41.53604" lon="2.24038">
        <ele>75.4</ele>
        <time>2021-11-13 08:35:46</time>
      </trkpt>
      <trkpt lat="41.53611" lon="2.2404">
        <ele>75.6</ele>
        <time>2021-11-13 08:35:47</time>
      </trkpt>
      <trkpt lat="41.53618" lon="2.24042">
        <ele>75.6</ele>
        <time>2021-11-13 08:35:48</time>
      </trkpt>
      <trkpt lat="41.53625" lon="2.24044">
        <ele>76</ele>
        <time>2021-11-13 08:35:49</time>
      </trkpt>
      <trkpt lat="41.53631" lon="2.24045">
        <ele>76.2</ele>
        <time>2021-11-13 08:35:50</time>
      </trkpt>
      <trkpt lat="41.53638" lon="2.24048">
        <ele>76.8</ele>
        <time>2021-11-13 08:35:51</time>
      </trkpt>
      <trkpt lat="41.53644" lon="2.24051">
        <ele>77</ele>
        <time>2021-11-13 08:35:52</time>
      </trkpt>
      <trkpt lat="41.5365" lon="2.24055">
        <ele>77.2</ele>
        <time>2021-11-13 08:35:53</time>
      </trkpt>
      <trkpt lat="41.53656" lon="2.2406">
        <ele>77.4</ele>
        <time>2021-11-13 08:35:54</time>
      </trkpt>
      <trkpt lat="41.53662" lon="2.24066">
        <ele>77.6</ele>
        <time>2021-11-13 08:35:55</time>
      </trkpt>
      <trkpt lat="41.53667" lon="2.24071">
        <ele>77.8</ele>
        <time>2021-11-13 08:35:56</time>
      </trkpt>
      <trkpt lat="41.53673" lon="2.24077">
        <ele>77.8</ele>
        <time>2021-11-13 08:35:57</time>
      </trkpt>
      <trkpt lat="41.53678" lon="2.24082">
        <ele>78.2</ele>
        <time>2021-11-13 08:35:58</time>
      </trkpt>
      <trkpt lat="41.53683" lon="2.24088">
        <ele>78.4</ele>
        <time>2021-11-13 08:35:59</time>
      </trkpt>
      <trkpt lat="41.53689" lon="2.24093">
        <ele>78.6</ele>
        <time>2021-11-13 08:36:00</time>
      </trkpt>
      <trkpt lat="41.53694" lon="2.24099">
        <ele>78.8</ele>
        <time>2021-11-13 08:36:01</time>
      </trkpt>
      <trkpt lat="41.537" lon="2.24105">
        <ele>79.2</ele>
        <time>2021-11-13 08:36:02</time>
      </trkpt>
      <trkpt lat="41.53705" lon="2.24111">
        <ele>79.4</ele>
        <time>2021-11-13 08:36:03</time>
      </trkpt>
      <trkpt lat="41.5371" lon="2.24118">
        <ele>79.6</ele>
        <time>2021-11-13 08:36:04</time>
      </trkpt>
      <trkpt lat="41.53715" lon="2.24126">
        <ele>79.8</ele>
        <time>2021-11-13 08:36:05</time>
      </trkpt>
      <trkpt lat="41.5372" lon="2.24134">
        <ele>79.8</ele>
        <time>2021-11-13 08:36:06</time>
      </trkpt>
      <trkpt lat="41.5372" lon="2.24134">
        <ele>80</ele>
        <time>2021-11-13 08:36:07</time>
      </trkpt>
      <trkpt lat="41.5373" lon="2.24152">
        <ele>80</ele>
        <time>2021-11-13 08:36:08</time>
      </trkpt>
      <trkpt lat="41.53736" lon="2.24161">
        <ele>80</ele>
        <time>2021-11-13 08:36:09</time>
      </trkpt>
      <trkpt lat="41.53741" lon="2.24169">
        <ele>80</ele>
        <time>2021-11-13 08:36:10</time>
      </trkpt>
      <trkpt lat="41.53746" lon="2.24179">
        <ele>80</ele>
        <time>2021-11-13 08:36:11</time>
      </trkpt>
      <trkpt lat="41.53752" lon="2.24188">
        <ele>80</ele>
        <time>2021-11-13 08:36:12</time>
      </trkpt>
      <trkpt lat="41.53758" lon="2.24197">
        <ele>79.8</ele>
        <time>2021-11-13 08:36:13</time>
      </trkpt>
      <trkpt lat="41.53765" lon="2.24206">
        <ele>79.6</ele>
        <time>2021-11-13 08:36:14</time>
      </trkpt>
      <trkpt lat="41.53765" lon="2.24206">
        <ele>79.4</ele>
        <time>2021-11-13 08:36:15</time>
      </trkpt>
      <trkpt lat="41.53779" lon="2.24223">
        <ele>78.8</ele>
        <time>2021-11-13 08:36:16</time>
      </trkpt>
      <trkpt lat="41.53779" lon="2.24223">
        <ele>78.6</ele>
        <time>2021-11-13 08:36:17</time>
      </trkpt>
      <trkpt lat="41.53793" lon="2.24239">
        <ele>78.2</ele>
        <time>2021-11-13 08:36:18</time>
      </trkpt>
      <trkpt lat="41.53801" lon="2.24247">
        <ele>77.8</ele>
        <time>2021-11-13 08:36:19</time>
      </trkpt>
      <trkpt lat="41.53808" lon="2.24255">
        <ele>77.6</ele>
        <time>2021-11-13 08:36:20</time>
      </trkpt>
      <trkpt lat="41.53815" lon="2.24264">
        <ele>77.6</ele>
        <time>2021-11-13 08:36:21</time>
      </trkpt>
      <trkpt lat="41.53821" lon="2.24272">
        <ele>77.2</ele>
        <time>2021-11-13 08:36:22</time>
      </trkpt>
      <trkpt lat="41.53827" lon="2.24281">
        <ele>76.8</ele>
        <time>2021-11-13 08:36:23</time>
      </trkpt>
      <trkpt lat="41.53833" lon="2.2429">
        <ele>76.6</ele>
        <time>2021-11-13 08:36:24</time>
      </trkpt>
      <trkpt lat="41.53839" lon="2.243">
        <ele>76.4</ele>
        <time>2021-11-13 08:36:25</time>
      </trkpt>
      <trkpt lat="41.53839" lon="2.243">
        <ele>76.4</ele>
        <time>2021-11-13 08:36:26</time>
      </trkpt>
      <trkpt lat="41.53851" lon="2.24319">
        <ele>76.6</ele>
        <time>2021-11-13 08:36:27</time>
      </trkpt>
      <trkpt lat="41.53856" lon="2.24328">
        <ele>76.2</ele>
        <time>2021-11-13 08:36:28</time>
      </trkpt>
      <trkpt lat="41.5386" lon="2.24336">
        <ele>76.2</ele>
        <time>2021-11-13 08:36:29</time>
      </trkpt>
      <trkpt lat="41.53866" lon="2.24345">
        <ele>76.2</ele>
        <time>2021-11-13 08:36:30</time>
      </trkpt>
      <trkpt lat="41.53872" lon="2.24356">
        <ele>76.2</ele>
        <time>2021-11-13 08:36:31</time>
      </trkpt>
      <trkpt lat="41.53878" lon="2.24366">
        <ele>76.2</ele>
        <time>2021-11-13 08:36:32</time>
      </trkpt>
      <trkpt lat="41.53883" lon="2.24375">
        <ele>76.2</ele>
        <time>2021-11-13 08:36:33</time>
      </trkpt>
      <trkpt lat="41.53888" lon="2.24381">
        <ele>76.4</ele>
        <time>2021-11-13 08:36:34</time>
      </trkpt>
      <trkpt lat="41.53896" lon="2.2439">
        <ele>76.6</ele>
        <time>2021-11-13 08:36:35</time>
      </trkpt>
      <trkpt lat="41.53903" lon="2.24397">
        <ele>76.6</ele>
        <time>2021-11-13 08:36:36</time>
      </trkpt>
      <trkpt lat="41.5391" lon="2.24402">
        <ele>76.6</ele>
        <time>2021-11-13 08:36:37</time>
      </trkpt>
      <trkpt lat="41.53918" lon="2.24407">
        <ele>76.6</ele>
        <time>2021-11-13 08:36:38</time>
      </trkpt>
      <trkpt lat="41.53925" lon="2.24412">
        <ele>76.6</ele>
        <time>2021-11-13 08:36:39</time>
      </trkpt>
      <trkpt lat="41.53925" lon="2.24412">
        <ele>76.6</ele>
        <time>2021-11-13 08:36:40</time>
      </trkpt>
      <trkpt lat="41.5394" lon="2.24424">
        <ele>76.8</ele>
        <time>2021-11-13 08:36:41</time>
      </trkpt>
      <trkpt lat="41.53947" lon="2.24429">
        <ele>76.8</ele>
        <time>2021-11-13 08:36:42</time>
      </trkpt>
      <trkpt lat="41.53954" lon="2.24434">
        <ele>77</ele>
        <time>2021-11-13 08:36:43</time>
      </trkpt>
      <trkpt lat="41.5396" lon="2.24438">
        <ele>77</ele>
        <time>2021-11-13 08:36:44</time>
      </trkpt>
      <trkpt lat="41.5397" lon="2.24443">
        <ele>77.2</ele>
        <time>2021-11-13 08:36:45</time>
      </trkpt>
      <trkpt lat="41.53978" lon="2.24447">
        <ele>77.2</ele>
        <time>2021-11-13 08:36:46</time>
      </trkpt>
      <trkpt lat="41.53985" lon="2.24451">
        <ele>77.2</ele>
        <time>2021-11-13 08:36:47</time>
      </trkpt>
      <trkpt lat="41.53993" lon="2.24456">
        <ele>77.4</ele>
        <time>2021-11-13 08:36:48</time>
      </trkpt>
      <trkpt lat="41.54001" lon="2.2446">
        <ele>77.4</ele>
        <time>2021-11-13 08:36:49</time>
      </trkpt>
      <trkpt lat="41.54009" lon="2.24464">
        <ele>77.6</ele>
        <time>2021-11-13 08:36:50</time>
      </trkpt>
      <trkpt lat="41.54016" lon="2.24469">
        <ele>77.6</ele>
        <time>2021-11-13 08:36:51</time>
      </trkpt>
      <trkpt lat="41.54016" lon="2.24469">
        <ele>77.8</ele>
        <time>2021-11-13 08:36:52</time>
      </trkpt>
      <trkpt lat="41.54029" lon="2.24478">
        <ele>77.8</ele>
        <time>2021-11-13 08:36:53</time>
      </trkpt>
      <trkpt lat="41.54036" lon="2.24484">
        <ele>77.8</ele>
        <time>2021-11-13 08:36:54</time>
      </trkpt>
      <trkpt lat="41.54045" lon="2.24492">
        <ele>77.8</ele>
        <time>2021-11-13 08:36:55</time>
      </trkpt>
      <trkpt lat="41.54052" lon="2.24499">
        <ele>77.8</ele>
        <time>2021-11-13 08:36:56</time>
      </trkpt>
      <trkpt lat="41.54059" lon="2.24506">
        <ele>77.8</ele>
        <time>2021-11-13 08:36:57</time>
      </trkpt>
      <trkpt lat="41.54066" lon="2.24513">
        <ele>77.8</ele>
        <time>2021-11-13 08:36:58</time>
      </trkpt>
      <trkpt lat="41.54073" lon="2.2452">
        <ele>77.6</ele>
        <time>2021-11-13 08:36:59</time>
      </trkpt>
      <trkpt lat="41.54081" lon="2.24524">
        <ele>77.6</ele>
        <time>2021-11-13 08:37:00</time>
      </trkpt>
      <trkpt lat="41.54089" lon="2.24526">
        <ele>77.6</ele>
        <time>2021-11-13 08:37:01</time>
      </trkpt>
      <trkpt lat="41.54097" lon="2.24525">
        <ele>77.6</ele>
        <time>2021-11-13 08:37:02</time>
      </trkpt>
      <trkpt lat="41.54105" lon="2.24522">
        <ele>77.4</ele>
        <time>2021-11-13 08:37:03</time>
      </trkpt>
      <trkpt lat="41.54105" lon="2.24522">
        <ele>77.2</ele>
        <time>2021-11-13 08:37:04</time>
      </trkpt>
      <trkpt lat="41.54123" lon="2.24517">
        <ele>77.2</ele>
        <time>2021-11-13 08:37:05</time>
      </trkpt>
      <trkpt lat="41.54132" lon="2.24518">
        <ele>77.2</ele>
        <time>2021-11-13 08:37:06</time>
      </trkpt>
      <trkpt lat="41.54141" lon="2.24521">
        <ele>77.2</ele>
        <time>2021-11-13 08:37:07</time>
      </trkpt>
      <trkpt lat="41.54149" lon="2.24524">
        <ele>77</ele>
        <time>2021-11-13 08:37:08</time>
      </trkpt>
      <trkpt lat="41.54157" lon="2.24528">
        <ele>77</ele>
        <time>2021-11-13 08:37:09</time>
      </trkpt>
      <trkpt lat="41.54165" lon="2.24533">
        <ele>77</ele>
        <time>2021-11-13 08:37:10</time>
      </trkpt>
      <trkpt lat="41.54173" lon="2.24538">
        <ele>77</ele>
        <time>2021-11-13 08:37:11</time>
      </trkpt>
      <trkpt lat="41.54181" lon="2.24542">
        <ele>77</ele>
        <time>2021-11-13 08:37:12</time>
      </trkpt>
      <trkpt lat="41.54188" lon="2.24547">
        <ele>77</ele>
        <time>2021-11-13 08:37:13</time>
      </trkpt>
      <trkpt lat="41.54196" lon="2.24552">
        <ele>76.8</ele>
        <time>2021-11-13 08:37:14</time>
      </trkpt>
      <trkpt lat="41.54204" lon="2.24557">
        <ele>77</ele>
        <time>2021-11-13 08:37:15</time>
      </trkpt>
      <trkpt lat="41.54212" lon="2.24562">
        <ele>77</ele>
        <time>2021-11-13 08:37:16</time>
      </trkpt>
      <trkpt lat="41.54219" lon="2.24567">
        <ele>77</ele>
        <time>2021-11-13 08:37:17</time>
      </trkpt>
      <trkpt lat="41.54219" lon="2.24567">
        <ele>77</ele>
        <time>2021-11-13 08:37:18</time>
      </trkpt>
      <trkpt lat="41.54235" lon="2.24577">
        <ele>77</ele>
        <time>2021-11-13 08:37:19</time>
      </trkpt>
      <trkpt lat="41.54243" lon="2.24582">
        <ele>77</ele>
        <time>2021-11-13 08:37:20</time>
      </trkpt>
      <trkpt lat="41.5425" lon="2.24587">
        <ele>77</ele>
        <time>2021-11-13 08:37:21</time>
      </trkpt>
      <trkpt lat="41.54258" lon="2.24592">
        <ele>77</ele>
        <time>2021-11-13 08:37:22</time>
      </trkpt>
      <trkpt lat="41.54266" lon="2.24597">
        <ele>77</ele>
        <time>2021-11-13 08:37:23</time>
      </trkpt>
      <trkpt lat="41.54274" lon="2.24602">
        <ele>77</ele>
        <time>2021-11-13 08:37:24</time>
      </trkpt>
      <trkpt lat="41.54281" lon="2.24607">
        <ele>77</ele>
        <time>2021-11-13 08:37:25</time>
      </trkpt>
      <trkpt lat="41.54289" lon="2.24612">
        <ele>77</ele>
        <time>2021-11-13 08:37:26</time>
      </trkpt>
      <trkpt lat="41.54289" lon="2.24612">
        <ele>77</ele>
        <time>2021-11-13 08:37:27</time>
      </trkpt>
      <trkpt lat="41.54303" lon="2.24622">
        <ele>77.2</ele>
        <time>2021-11-13 08:37:28</time>
      </trkpt>
      <trkpt lat="41.5431" lon="2.24628">
        <ele>77.2</ele>
        <time>2021-11-13 08:37:29</time>
      </trkpt>
      <trkpt lat="41.54317" lon="2.24634">
        <ele>77.2</ele>
        <time>2021-11-13 08:37:30</time>
      </trkpt>
      <trkpt lat="41.54323" lon="2.24641">
        <ele>77.2</ele>
        <time>2021-11-13 08:37:31</time>
      </trkpt>
      <trkpt lat="41.54329" lon="2.24649">
        <ele>77.2</ele>
        <time>2021-11-13 08:37:32</time>
      </trkpt>
      <trkpt lat="41.54334" lon="2.24658">
        <ele>77.4</ele>
        <time>2021-11-13 08:37:33</time>
      </trkpt>
      <trkpt lat="41.5434" lon="2.24666">
        <ele>77.4</ele>
        <time>2021-11-13 08:37:34</time>
      </trkpt>
      <trkpt lat="41.54346" lon="2.24674">
        <ele>77.4</ele>
        <time>2021-11-13 08:37:35</time>
      </trkpt>
      <trkpt lat="41.54351" lon="2.24682">
        <ele>77.6</ele>
        <time>2021-11-13 08:37:36</time>
      </trkpt>
      <trkpt lat="41.54357" lon="2.24691">
        <ele>77.6</ele>
        <time>2021-11-13 08:37:37</time>
      </trkpt>
      <trkpt lat="41.54363" lon="2.24698">
        <ele>77.6</ele>
        <time>2021-11-13 08:37:38</time>
      </trkpt>
      <trkpt lat="41.54368" lon="2.24706">
        <ele>77.6</ele>
        <time>2021-11-13 08:37:39</time>
      </trkpt>
      <trkpt lat="41.54374" lon="2.24714">
        <ele>77.6</ele>
        <time>2021-11-13 08:37:40</time>
      </trkpt>
      <trkpt lat="41.54374" lon="2.24714">
        <ele>77.8</ele>
        <time>2021-11-13 08:37:41</time>
      </trkpt>
      <trkpt lat="41.54387" lon="2.24728">
        <ele>77.8</ele>
        <time>2021-11-13 08:37:42</time>
      </trkpt>
      <trkpt lat="41.54394" lon="2.24734">
        <ele>77.8</ele>
        <time>2021-11-13 08:37:43</time>
      </trkpt>
      <trkpt lat="41.54394" lon="2.24734">
        <ele>77.8</ele>
        <time>2021-11-13 08:37:44</time>
      </trkpt>
      <trkpt lat="41.54408" lon="2.24744">
        <ele>78</ele>
        <time>2021-11-13 08:37:45</time>
      </trkpt>
      <trkpt lat="41.54416" lon="2.24748">
        <ele>78</ele>
        <time>2021-11-13 08:37:46</time>
      </trkpt>
      <trkpt lat="41.54423" lon="2.24752">
        <ele>78</ele>
        <time>2021-11-13 08:37:47</time>
      </trkpt>
      <trkpt lat="41.54431" lon="2.24756">
        <ele>78.2</ele>
        <time>2021-11-13 08:37:48</time>
      </trkpt>
      <trkpt lat="41.54438" lon="2.24759">
        <ele>78.4</ele>
        <time>2021-11-13 08:37:49</time>
      </trkpt>
      <trkpt lat="41.54438" lon="2.24759">
        <ele>78.4</ele>
        <time>2021-11-13 08:37:50</time>
      </trkpt>
      <trkpt lat="41.54453" lon="2.24765">
        <ele>78.4</ele>
        <time>2021-11-13 08:37:51</time>
      </trkpt>
      <trkpt lat="41.5446" lon="2.24769">
        <ele>78.6</ele>
        <time>2021-11-13 08:37:52</time>
      </trkpt>
      <trkpt lat="41.54467" lon="2.24773">
        <ele>78.8</ele>
        <time>2021-11-13 08:37:53</time>
      </trkpt>
      <trkpt lat="41.54474" lon="2.24776">
        <ele>78.8</ele>
        <time>2021-11-13 08:37:54</time>
      </trkpt>
      <trkpt lat="41.54481" lon="2.2478">
        <ele>79.2</ele>
        <time>2021-11-13 08:37:55</time>
      </trkpt>
      <trkpt lat="41.54488" lon="2.24784">
        <ele>79.2</ele>
        <time>2021-11-13 08:37:56</time>
      </trkpt>
      <trkpt lat="41.54494" lon="2.24788">
        <ele>79.4</ele>
        <time>2021-11-13 08:37:57</time>
      </trkpt>
      <trkpt lat="41.54501" lon="2.24792">
        <ele>79.6</ele>
        <time>2021-11-13 08:37:58</time>
      </trkpt>
      <trkpt lat="41.54508" lon="2.24797">
        <ele>79.8</ele>
        <time>2021-11-13 08:37:59</time>
      </trkpt>
      <trkpt lat="41.54515" lon="2.24802">
        <ele>80</ele>
        <time>2021-11-13 08:38:00</time>
      </trkpt>
      <trkpt lat="41.54521" lon="2.24807">
        <ele>80.2</ele>
        <time>2021-11-13 08:38:01</time>
      </trkpt>
      <trkpt lat="41.54527" lon="2.24812">
        <ele>80.4</ele>
        <time>2021-11-13 08:38:02</time>
      </trkpt>
      <trkpt lat="41.54533" lon="2.24818">
        <ele>80.6</ele>
        <time>2021-11-13 08:38:03</time>
      </trkpt>
      <trkpt lat="41.54539" lon="2.24824">
        <ele>80.8</ele>
        <time>2021-11-13 08:38:04</time>
      </trkpt>
      <trkpt lat="41.54545" lon="2.2483">
        <ele>81.2</ele>
        <time>2021-11-13 08:38:05</time>
      </trkpt>
      <trkpt lat="41.54551" lon="2.24836">
        <ele>81.4</ele>
        <time>2021-11-13 08:38:06</time>
      </trkpt>
      <trkpt lat="41.54557" lon="2.24842">
        <ele>81.8</ele>
        <time>2021-11-13 08:38:07</time>
      </trkpt>
      <trkpt lat="41.54562" lon="2.24848">
        <ele>81.8</ele>
        <time>2021-11-13 08:38:08</time>
      </trkpt>
      <trkpt lat="41.54568" lon="2.24856">
        <ele>82.2</ele>
        <time>2021-11-13 08:38:09</time>
      </trkpt>
      <trkpt lat="41.54573" lon="2.24863">
        <ele>82.2</ele>
        <time>2021-11-13 08:38:10</time>
      </trkpt>
      <trkpt lat="41.54578" lon="2.24872">
        <ele>82.6</ele>
        <time>2021-11-13 08:38:11</time>
      </trkpt>
      <trkpt lat="41.54581" lon="2.24881">
        <ele>82.8</ele>
        <time>2021-11-13 08:38:12</time>
      </trkpt>
      <trkpt lat="41.54584" lon="2.24891">
        <ele>83</ele>
        <time>2021-11-13 08:38:13</time>
      </trkpt>
      <trkpt lat="41.54587" lon="2.249">
        <ele>83.2</ele>
        <time>2021-11-13 08:38:14</time>
      </trkpt>
      <trkpt lat="41.54589" lon="2.2491">
        <ele>83.4</ele>
        <time>2021-11-13 08:38:15</time>
      </trkpt>
      <trkpt lat="41.54591" lon="2.2492">
        <ele>83.6</ele>
        <time>2021-11-13 08:38:16</time>
      </trkpt>
      <trkpt lat="41.54592" lon="2.24929">
        <ele>83.6</ele>
        <time>2021-11-13 08:38:17</time>
      </trkpt>
      <trkpt lat="41.54594" lon="2.24939">
        <ele>83.8</ele>
        <time>2021-11-13 08:38:18</time>
      </trkpt>
      <trkpt lat="41.54596" lon="2.24949">
        <ele>83.8</ele>
        <time>2021-11-13 08:38:19</time>
      </trkpt>
      <trkpt lat="41.54597" lon="2.24958">
        <ele>84</ele>
        <time>2021-11-13 08:38:20</time>
      </trkpt>
      <trkpt lat="41.54597" lon="2.24968">
        <ele>84</ele>
        <time>2021-11-13 08:38:21</time>
      </trkpt>
      <trkpt lat="41.54597" lon="2.24978">
        <ele>84.2</ele>
        <time>2021-11-13 08:38:22</time>
      </trkpt>
      <trkpt lat="41.54597" lon="2.24987">
        <ele>84.4</ele>
        <time>2021-11-13 08:38:23</time>
      </trkpt>
      <trkpt lat="41.54596" lon="2.24997">
        <ele>84.2</ele>
        <time>2021-11-13 08:38:24</time>
      </trkpt>
      <trkpt lat="41.54596" lon="2.25007">
        <ele>84.4</ele>
        <time>2021-11-13 08:38:25</time>
      </trkpt>
      <trkpt lat="41.54595" lon="2.25016">
        <ele>84.6</ele>
        <time>2021-11-13 08:38:26</time>
      </trkpt>
      <trkpt lat="41.54595" lon="2.25026">
        <ele>85</ele>
        <time>2021-11-13 08:38:27</time>
      </trkpt>
      <trkpt lat="41.54594" lon="2.25035">
        <ele>85</ele>
        <time>2021-11-13 08:38:28</time>
      </trkpt>
      <trkpt lat="41.54593" lon="2.25045">
        <ele>85.4</ele>
        <time>2021-11-13 08:38:29</time>
      </trkpt>
      <trkpt lat="41.54591" lon="2.25054">
        <ele>85.6</ele>
        <time>2021-11-13 08:38:30</time>
      </trkpt>
      <trkpt lat="41.5459" lon="2.25063">
        <ele>85.6</ele>
        <time>2021-11-13 08:38:31</time>
      </trkpt>
      <trkpt lat="41.54589" lon="2.25073">
        <ele>86</ele>
        <time>2021-11-13 08:38:32</time>
      </trkpt>
      <trkpt lat="41.54588" lon="2.25082">
        <ele>86.2</ele>
        <time>2021-11-13 08:38:33</time>
      </trkpt>
      <trkpt lat="41.54587" lon="2.25092">
        <ele>86.4</ele>
        <time>2021-11-13 08:38:34</time>
      </trkpt>
      <trkpt lat="41.54586" lon="2.25101">
        <ele>86.4</ele>
        <time>2021-11-13 08:38:35</time>
      </trkpt>
      <trkpt lat="41.54585" lon="2.25111">
        <ele>86.6</ele>
        <time>2021-11-13 08:38:36</time>
      </trkpt>
      <trkpt lat="41.54583" lon="2.25121">
        <ele>86.6</ele>
        <time>2021-11-13 08:38:37</time>
      </trkpt>
      <trkpt lat="41.54582" lon="2.2513">
        <ele>86.8</ele>
        <time>2021-11-13 08:38:38</time>
      </trkpt>
      <trkpt lat="41.5458" lon="2.25139">
        <ele>87</ele>
        <time>2021-11-13 08:38:39</time>
      </trkpt>
      <trkpt lat="41.54578" lon="2.25148">
        <ele>87.2</ele>
        <time>2021-11-13 08:38:40</time>
      </trkpt>
      <trkpt lat="41.54576" lon="2.25157">
        <ele>87.4</ele>
        <time>2021-11-13 08:38:41</time>
      </trkpt>
      <trkpt lat="41.54576" lon="2.25157">
        <ele>87.6</ele>
        <time>2021-11-13 08:38:42</time>
      </trkpt>
      <trkpt lat="41.54572" lon="2.25176">
        <ele>87.6</ele>
        <time>2021-11-13 08:38:43</time>
      </trkpt>
      <trkpt lat="41.5457" lon="2.25185">
        <ele>87.8</ele>
        <time>2021-11-13 08:38:44</time>
      </trkpt>
      <trkpt lat="41.5457" lon="2.25185">
        <ele>87.8</ele>
        <time>2021-11-13 08:38:45</time>
      </trkpt>
      <trkpt lat="41.54566" lon="2.25204">
        <ele>88</ele>
        <time>2021-11-13 08:38:46</time>
      </trkpt>
      <trkpt lat="41.54564" lon="2.25214">
        <ele>88.2</ele>
        <time>2021-11-13 08:38:47</time>
      </trkpt>
      <trkpt lat="41.54564" lon="2.25224">
        <ele>88.4</ele>
        <time>2021-11-13 08:38:48</time>
      </trkpt>
      <trkpt lat="41.54564" lon="2.25234">
        <ele>88.4</ele>
        <time>2021-11-13 08:38:49</time>
      </trkpt>
      <trkpt lat="41.54564" lon="2.25244">
        <ele>88.6</ele>
        <time>2021-11-13 08:38:50</time>
      </trkpt>
      <trkpt lat="41.54564" lon="2.25253">
        <ele>88.8</ele>
        <time>2021-11-13 08:38:51</time>
      </trkpt>
      <trkpt lat="41.54565" lon="2.25263">
        <ele>89</ele>
        <time>2021-11-13 08:38:52</time>
      </trkpt>
      <trkpt lat="41.54565" lon="2.25273">
        <ele>89.2</ele>
        <time>2021-11-13 08:38:53</time>
      </trkpt>
      <trkpt lat="41.54566" lon="2.25282">
        <ele>89.4</ele>
        <time>2021-11-13 08:38:54</time>
      </trkpt>
      <trkpt lat="41.54567" lon="2.25292">
        <ele>89.4</ele>
        <time>2021-11-13 08:38:55</time>
      </trkpt>
      <trkpt lat="41.54568" lon="2.25302">
        <ele>89.6</ele>
        <time>2021-11-13 08:38:56</time>
      </trkpt>
      <trkpt lat="41.5457" lon="2.25311">
        <ele>89.8</ele>
        <time>2021-11-13 08:38:57</time>
      </trkpt>
      <trkpt lat="41.54572" lon="2.25321">
        <ele>89.8</ele>
        <time>2021-11-13 08:38:58</time>
      </trkpt>
      <trkpt lat="41.54574" lon="2.2533">
        <ele>90</ele>
        <time>2021-11-13 08:38:59</time>
      </trkpt>
      <trkpt lat="41.54576" lon="2.25339">
        <ele>90</ele>
        <time>2021-11-13 08:39:00</time>
      </trkpt>
      <trkpt lat="41.54578" lon="2.25349">
        <ele>90</ele>
        <time>2021-11-13 08:39:01</time>
      </trkpt>
      <trkpt lat="41.54579" lon="2.25359">
        <ele>90</ele>
        <time>2021-11-13 08:39:02</time>
      </trkpt>
      <trkpt lat="41.54579" lon="2.25368">
        <ele>90.2</ele>
        <time>2021-11-13 08:39:03</time>
      </trkpt>
      <trkpt lat="41.54578" lon="2.25379">
        <ele>90.2</ele>
        <time>2021-11-13 08:39:04</time>
      </trkpt>
      <trkpt lat="41.54576" lon="2.25389">
        <ele>90.2</ele>
        <time>2021-11-13 08:39:05</time>
      </trkpt>
      <trkpt lat="41.54574" lon="2.25398">
        <ele>90.2</ele>
        <time>2021-11-13 08:39:06</time>
      </trkpt>
      <trkpt lat="41.5457" lon="2.25407">
        <ele>90.2</ele>
        <time>2021-11-13 08:39:07</time>
      </trkpt>
      <trkpt lat="41.54566" lon="2.25413">
        <ele>90.2</ele>
        <time>2021-11-13 08:39:08</time>
      </trkpt>
      <trkpt lat="41.54561" lon="2.25423">
        <ele>90.2</ele>
        <time>2021-11-13 08:39:09</time>
      </trkpt>
      <trkpt lat="41.54556" lon="2.25431">
        <ele>90.2</ele>
        <time>2021-11-13 08:39:10</time>
      </trkpt>
      <trkpt lat="41.54552" lon="2.25437">
        <ele>90.2</ele>
        <time>2021-11-13 08:39:11</time>
      </trkpt>
      <trkpt lat="41.54546" lon="2.25446">
        <ele>90.2</ele>
        <time>2021-11-13 08:39:12</time>
      </trkpt>
      <trkpt lat="41.54541" lon="2.25453">
        <ele>90.4</ele>
        <time>2021-11-13 08:39:13</time>
      </trkpt>
      <trkpt lat="41.54535" lon="2.2546">
        <ele>90.4</ele>
        <time>2021-11-13 08:39:14</time>
      </trkpt>
      <trkpt lat="41.5453" lon="2.25467">
        <ele>90.6</ele>
        <time>2021-11-13 08:39:15</time>
      </trkpt>
      <trkpt lat="41.54525" lon="2.25474">
        <ele>90.6</ele>
        <time>2021-11-13 08:39:16</time>
      </trkpt>
      <trkpt lat="41.5452" lon="2.25482">
        <ele>90.8</ele>
        <time>2021-11-13 08:39:17</time>
      </trkpt>
      <trkpt lat="41.54515" lon="2.2549">
        <ele>90.8</ele>
        <time>2021-11-13 08:39:18</time>
      </trkpt>
      <trkpt lat="41.54511" lon="2.25498">
        <ele>90.8</ele>
        <time>2021-11-13 08:39:19</time>
      </trkpt>
      <trkpt lat="41.54508" lon="2.25507">
        <ele>90.8</ele>
        <time>2021-11-13 08:39:20</time>
      </trkpt>
      <trkpt lat="41.54505" lon="2.25517">
        <ele>91</ele>
        <time>2021-11-13 08:39:21</time>
      </trkpt>
      <trkpt lat="41.54502" lon="2.25526">
        <ele>91</ele>
        <time>2021-11-13 08:39:22</time>
      </trkpt>
      <trkpt lat="41.545" lon="2.25537">
        <ele>91</ele>
        <time>2021-11-13 08:39:23</time>
      </trkpt>
      <trkpt lat="41.54497" lon="2.25547">
        <ele>91.2</ele>
        <time>2021-11-13 08:39:24</time>
      </trkpt>
      <trkpt lat="41.54495" lon="2.25557">
        <ele>91.2</ele>
        <time>2021-11-13 08:39:25</time>
      </trkpt>
      <trkpt lat="41.54493" lon="2.25566">
        <ele>91.2</ele>
        <time>2021-11-13 08:39:26</time>
      </trkpt>
      <trkpt lat="41.54491" lon="2.25576">
        <ele>91.2</ele>
        <time>2021-11-13 08:39:27</time>
      </trkpt>
      <trkpt lat="41.54489" lon="2.25585">
        <ele>91.2</ele>
        <time>2021-11-13 08:39:28</time>
      </trkpt>
      <trkpt lat="41.54487" lon="2.25595">
        <ele>91.2</ele>
        <time>2021-11-13 08:39:29</time>
      </trkpt>
      <trkpt lat="41.54485" lon="2.25604">
        <ele>91.2</ele>
        <time>2021-11-13 08:39:30</time>
      </trkpt>
      <trkpt lat="41.54483" lon="2.25613">
        <ele>91.2</ele>
        <time>2021-11-13 08:39:31</time>
      </trkpt>
      <trkpt lat="41.54481" lon="2.25622">
        <ele>91.2</ele>
        <time>2021-11-13 08:39:32</time>
      </trkpt>
      <trkpt lat="41.54479" lon="2.25632">
        <ele>91.2</ele>
        <time>2021-11-13 08:39:33</time>
      </trkpt>
      <trkpt lat="41.54477" lon="2.25641">
        <ele>91.2</ele>
        <time>2021-11-13 08:39:34</time>
      </trkpt>
      <trkpt lat="41.54475" lon="2.2565">
        <ele>91.2</ele>
        <time>2021-11-13 08:39:35</time>
      </trkpt>
      <trkpt lat="41.54473" lon="2.25659">
        <ele>91.2</ele>
        <time>2021-11-13 08:39:36</time>
      </trkpt>
      <trkpt lat="41.54471" lon="2.25668">
        <ele>91</ele>
        <time>2021-11-13 08:39:37</time>
      </trkpt>
      <trkpt lat="41.54469" lon="2.25678">
        <ele>91</ele>
        <time>2021-11-13 08:39:38</time>
      </trkpt>
      <trkpt lat="41.54467" lon="2.25687">
        <ele>91</ele>
        <time>2021-11-13 08:39:39</time>
      </trkpt>
      <trkpt lat="41.54465" lon="2.25696">
        <ele>91</ele>
        <time>2021-11-13 08:39:40</time>
      </trkpt>
      <trkpt lat="41.54463" lon="2.25705">
        <ele>91</ele>
        <time>2021-11-13 08:39:41</time>
      </trkpt>
      <trkpt lat="41.5446" lon="2.25715">
        <ele>91</ele>
        <time>2021-11-13 08:39:42</time>
      </trkpt>
      <trkpt lat="41.54458" lon="2.25724">
        <ele>91</ele>
        <time>2021-11-13 08:39:43</time>
      </trkpt>
      <trkpt lat="41.54455" lon="2.25733">
        <ele>91</ele>
        <time>2021-11-13 08:39:44</time>
      </trkpt>
      <trkpt lat="41.54451" lon="2.25742">
        <ele>91</ele>
        <time>2021-11-13 08:39:45</time>
      </trkpt>
      <trkpt lat="41.54447" lon="2.25751">
        <ele>91</ele>
        <time>2021-11-13 08:39:46</time>
      </trkpt>
      <trkpt lat="41.54443" lon="2.2576">
        <ele>91</ele>
        <time>2021-11-13 08:39:47</time>
      </trkpt>
      <trkpt lat="41.54439" lon="2.25769">
        <ele>91</ele>
        <time>2021-11-13 08:39:48</time>
      </trkpt>
      <trkpt lat="41.54436" lon="2.25778">
        <ele>91</ele>
        <time>2021-11-13 08:39:49</time>
      </trkpt>
      <trkpt lat="41.54432" lon="2.25787">
        <ele>91</ele>
        <time>2021-11-13 08:39:50</time>
      </trkpt>
      <trkpt lat="41.54428" lon="2.25796">
        <ele>91</ele>
        <time>2021-11-13 08:39:51</time>
      </trkpt>
      <trkpt lat="41.54425" lon="2.25806">
        <ele>91</ele>
        <time>2021-11-13 08:39:52</time>
      </trkpt>
      <trkpt lat="41.54421" lon="2.25815">
        <ele>90.8</ele>
        <time>2021-11-13 08:39:53</time>
      </trkpt>
      <trkpt lat="41.54417" lon="2.25823">
        <ele>90.8</ele>
        <time>2021-11-13 08:39:54</time>
      </trkpt>
      <trkpt lat="41.54414" lon="2.25832">
        <ele>90.8</ele>
        <time>2021-11-13 08:39:55</time>
      </trkpt>
      <trkpt lat="41.5441" lon="2.2584">
        <ele>90.8</ele>
        <time>2021-11-13 08:39:56</time>
      </trkpt>
      <trkpt lat="41.54407" lon="2.25848">
        <ele>90.8</ele>
        <time>2021-11-13 08:39:57</time>
      </trkpt>
      <trkpt lat="41.54403" lon="2.25857">
        <ele>90.8</ele>
        <time>2021-11-13 08:39:58</time>
      </trkpt>
      <trkpt lat="41.544" lon="2.25865">
        <ele>90.8</ele>
        <time>2021-11-13 08:39:59</time>
      </trkpt>
      <trkpt lat="41.54396" lon="2.25873">
        <ele>90.8</ele>
        <time>2021-11-13 08:40:00</time>
      </trkpt>
      <trkpt lat="41.54394" lon="2.25882">
        <ele>90.8</ele>
        <time>2021-11-13 08:40:01</time>
      </trkpt>
      <trkpt lat="41.54392" lon="2.25891">
        <ele>91.2</ele>
        <time>2021-11-13 08:40:02</time>
      </trkpt>
      <trkpt lat="41.54391" lon="2.25901">
        <ele>91.2</ele>
        <time>2021-11-13 08:40:03</time>
      </trkpt>
      <trkpt lat="41.5439" lon="2.2591">
        <ele>91.4</ele>
        <time>2021-11-13 08:40:04</time>
      </trkpt>
      <trkpt lat="41.54389" lon="2.25918">
        <ele>91.4</ele>
        <time>2021-11-13 08:40:05</time>
      </trkpt>
      <trkpt lat="41.54387" lon="2.25926">
        <ele>92</ele>
        <time>2021-11-13 08:40:06</time>
      </trkpt>
      <trkpt lat="41.54384" lon="2.25934">
        <ele>92.4</ele>
        <time>2021-11-13 08:40:07</time>
      </trkpt>
      <trkpt lat="41.54381" lon="2.25941">
        <ele>92.6</ele>
        <time>2021-11-13 08:40:08</time>
      </trkpt>
      <trkpt lat="41.54378" lon="2.25949">
        <ele>93</ele>
        <time>2021-11-13 08:40:09</time>
      </trkpt>
      <trkpt lat="41.54378" lon="2.25957">
        <ele>93.2</ele>
        <time>2021-11-13 08:40:10</time>
      </trkpt>
      <trkpt lat="41.5438" lon="2.25965">
        <ele>93.6</ele>
        <time>2021-11-13 08:40:11</time>
      </trkpt>
      <trkpt lat="41.54384" lon="2.25973">
        <ele>93.8</ele>
        <time>2021-11-13 08:40:12</time>
      </trkpt>
      <trkpt lat="41.54388" lon="2.2598">
        <ele>94.2</ele>
        <time>2021-11-13 08:40:13</time>
      </trkpt>
      <trkpt lat="41.54391" lon="2.25989">
        <ele>94.2</ele>
        <time>2021-11-13 08:40:14</time>
      </trkpt>
      <trkpt lat="41.54394" lon="2.25997">
        <ele>94.4</ele>
        <time>2021-11-13 08:40:15</time>
      </trkpt>
      <trkpt lat="41.54397" lon="2.26006">
        <ele>94.6</ele>
        <time>2021-11-13 08:40:16</time>
      </trkpt>
      <trkpt lat="41.544" lon="2.26016">
        <ele>94.6</ele>
        <time>2021-11-13 08:40:17</time>
      </trkpt>
      <trkpt lat="41.54402" lon="2.26026">
        <ele>94.6</ele>
        <time>2021-11-13 08:40:18</time>
      </trkpt>
      <trkpt lat="41.54404" lon="2.26035">
        <ele>94.6</ele>
        <time>2021-11-13 08:40:19</time>
      </trkpt>
      <trkpt lat="41.54407" lon="2.26045">
        <ele>94.6</ele>
        <time>2021-11-13 08:40:20</time>
      </trkpt>
      <trkpt lat="41.54409" lon="2.26055">
        <ele>94.6</ele>
        <time>2021-11-13 08:40:21</time>
      </trkpt>
      <trkpt lat="41.54411" lon="2.26066">
        <ele>94.6</ele>
        <time>2021-11-13 08:40:22</time>
      </trkpt>
      <trkpt lat="41.54413" lon="2.26076">
        <ele>94.4</ele>
        <time>2021-11-13 08:40:23</time>
      </trkpt>
      <trkpt lat="41.54416" lon="2.26086">
        <ele>94.2</ele>
        <time>2021-11-13 08:40:24</time>
      </trkpt>
      <trkpt lat="41.54418" lon="2.26094">
        <ele>94</ele>
        <time>2021-11-13 08:40:25</time>
      </trkpt>
      <trkpt lat="41.54422" lon="2.26106">
        <ele>93.8</ele>
        <time>2021-11-13 08:40:26</time>
      </trkpt>
      <trkpt lat="41.54424" lon="2.26116">
        <ele>93.8</ele>
        <time>2021-11-13 08:40:27</time>
      </trkpt>
      <trkpt lat="41.54426" lon="2.26125">
        <ele>93.6</ele>
        <time>2021-11-13 08:40:28</time>
      </trkpt>
      <trkpt lat="41.54428" lon="2.26135">
        <ele>93.6</ele>
        <time>2021-11-13 08:40:29</time>
      </trkpt>
      <trkpt lat="41.54428" lon="2.26135">
        <ele>93.4</ele>
        <time>2021-11-13 08:40:30</time>
      </trkpt>
      <trkpt lat="41.54433" lon="2.26153">
        <ele>93.4</ele>
        <time>2021-11-13 08:40:31</time>
      </trkpt>
      <trkpt lat="41.54435" lon="2.26165">
        <ele>93.2</ele>
        <time>2021-11-13 08:40:32</time>
      </trkpt>
      <trkpt lat="41.54438" lon="2.26175">
        <ele>93</ele>
        <time>2021-11-13 08:40:33</time>
      </trkpt>
      <trkpt lat="41.54441" lon="2.26186">
        <ele>93</ele>
        <time>2021-11-13 08:40:34</time>
      </trkpt>
      <trkpt lat="41.54443" lon="2.26195">
        <ele>93</ele>
        <time>2021-11-13 08:40:35</time>
      </trkpt>
      <trkpt lat="41.54446" lon="2.26206">
        <ele>92.8</ele>
        <time>2021-11-13 08:40:36</time>
      </trkpt>
      <trkpt lat="41.54448" lon="2.26216">
        <ele>92.8</ele>
        <time>2021-11-13 08:40:37</time>
      </trkpt>
      <trkpt lat="41.54451" lon="2.26226">
        <ele>92.8</ele>
        <time>2021-11-13 08:40:38</time>
      </trkpt>
      <trkpt lat="41.54453" lon="2.26236">
        <ele>92.6</ele>
        <time>2021-11-13 08:40:39</time>
      </trkpt>
      <trkpt lat="41.54454" lon="2.26243">
        <ele>92.6</ele>
        <time>2021-11-13 08:40:40</time>
      </trkpt>
      <trkpt lat="41.54457" lon="2.26253">
        <ele>92.6</ele>
        <time>2021-11-13 08:40:41</time>
      </trkpt>
      <trkpt lat="41.54459" lon="2.26263">
        <ele>92.4</ele>
        <time>2021-11-13 08:40:42</time>
      </trkpt>
      <trkpt lat="41.54463" lon="2.26274">
        <ele>92.4</ele>
        <time>2021-11-13 08:40:43</time>
      </trkpt>
      <trkpt lat="41.54465" lon="2.26282">
        <ele>92.4</ele>
        <time>2021-11-13 08:40:44</time>
      </trkpt>
      <trkpt lat="41.5447" lon="2.26293">
        <ele>92.2</ele>
        <time>2021-11-13 08:40:45</time>
      </trkpt>
      <trkpt lat="41.54473" lon="2.26303">
        <ele>92</ele>
        <time>2021-11-13 08:40:46</time>
      </trkpt>
      <trkpt lat="41.54477" lon="2.26312">
        <ele>91.8</ele>
        <time>2021-11-13 08:40:47</time>
      </trkpt>
      <trkpt lat="41.54481" lon="2.26322">
        <ele>91.8</ele>
        <time>2021-11-13 08:40:48</time>
      </trkpt>
      <trkpt lat="41.54486" lon="2.26333">
        <ele>91.8</ele>
        <time>2021-11-13 08:40:49</time>
      </trkpt>
      <trkpt lat="41.5449" lon="2.26343">
        <ele>91.6</ele>
        <time>2021-11-13 08:40:50</time>
      </trkpt>
      <trkpt lat="41.54495" lon="2.26355">
        <ele>91.6</ele>
        <time>2021-11-13 08:40:51</time>
      </trkpt>
      <trkpt lat="41.545" lon="2.26366">
        <ele>91.4</ele>
        <time>2021-11-13 08:40:52</time>
      </trkpt>
      <trkpt lat="41.54504" lon="2.26377">
        <ele>91.2</ele>
        <time>2021-11-13 08:40:53</time>
      </trkpt>
      <trkpt lat="41.54508" lon="2.26387">
        <ele>90.8</ele>
        <time>2021-11-13 08:40:54</time>
      </trkpt>
      <trkpt lat="41.54513" lon="2.26399">
        <ele>90.4</ele>
        <time>2021-11-13 08:40:55</time>
      </trkpt>
      <trkpt lat="41.54519" lon="2.26414">
        <ele>89.4</ele>
        <time>2021-11-13 08:40:56</time>
      </trkpt>
      <trkpt lat="41.54524" lon="2.26426">
        <ele>89</ele>
        <time>2021-11-13 08:40:57</time>
      </trkpt>
      <trkpt lat="41.5453" lon="2.26438">
        <ele>88.4</ele>
        <time>2021-11-13 08:40:58</time>
      </trkpt>
      <trkpt lat="41.54535" lon="2.2645">
        <ele>87.6</ele>
        <time>2021-11-13 08:40:59</time>
      </trkpt>
      <trkpt lat="41.5454" lon="2.26462">
        <ele>87.2</ele>
        <time>2021-11-13 08:41:00</time>
      </trkpt>
      <trkpt lat="41.54545" lon="2.26473">
        <ele>86.6</ele>
        <time>2021-11-13 08:41:01</time>
      </trkpt>
      <trkpt lat="41.54549" lon="2.26484">
        <ele>86.4</ele>
        <time>2021-11-13 08:41:02</time>
      </trkpt>
      <trkpt lat="41.54554" lon="2.26495">
        <ele>85.2</ele>
        <time>2021-11-13 08:41:03</time>
      </trkpt>
      <trkpt lat="41.54558" lon="2.26506">
        <ele>85</ele>
        <time>2021-11-13 08:41:04</time>
      </trkpt>
      <trkpt lat="41.54563" lon="2.26516">
        <ele>84.4</ele>
        <time>2021-11-13 08:41:05</time>
      </trkpt>
      <trkpt lat="41.54568" lon="2.26527">
        <ele>84.2</ele>
        <time>2021-11-13 08:41:06</time>
      </trkpt>
      <trkpt lat="41.54572" lon="2.26537">
        <ele>83.8</ele>
        <time>2021-11-13 08:41:07</time>
      </trkpt>
      <trkpt lat="41.54576" lon="2.26547">
        <ele>83.6</ele>
        <time>2021-11-13 08:41:08</time>
      </trkpt>
      <trkpt lat="41.5458" lon="2.26556">
        <ele>83.6</ele>
        <time>2021-11-13 08:41:09</time>
      </trkpt>
      <trkpt lat="41.54583" lon="2.26565">
        <ele>83.4</ele>
        <time>2021-11-13 08:41:10</time>
      </trkpt>
      <trkpt lat="41.54586" lon="2.26574">
        <ele>83.4</ele>
        <time>2021-11-13 08:41:11</time>
      </trkpt>
      <trkpt lat="41.54589" lon="2.26583">
        <ele>83.2</ele>
        <time>2021-11-13 08:41:12</time>
      </trkpt>
      <trkpt lat="41.54592" lon="2.26591">
        <ele>83.2</ele>
        <time>2021-11-13 08:41:13</time>
      </trkpt>
      <trkpt lat="41.54597" lon="2.26598">
        <ele>83.2</ele>
        <time>2021-11-13 08:41:14</time>
      </trkpt>
      <trkpt lat="41.54603" lon="2.26605">
        <ele>83</ele>
        <time>2021-11-13 08:41:15</time>
      </trkpt>
      <trkpt lat="41.54608" lon="2.26612">
        <ele>83</ele>
        <time>2021-11-13 08:41:16</time>
      </trkpt>
      <trkpt lat="41.54613" lon="2.2662">
        <ele>83.2</ele>
        <time>2021-11-13 08:41:17</time>
      </trkpt>
      <trkpt lat="41.54616" lon="2.26628">
        <ele>83.2</ele>
        <time>2021-11-13 08:41:18</time>
      </trkpt>
      <trkpt lat="41.5462" lon="2.26636">
        <ele>83.2</ele>
        <time>2021-11-13 08:41:19</time>
      </trkpt>
      <trkpt lat="41.54623" lon="2.26644">
        <ele>83.2</ele>
        <time>2021-11-13 08:41:20</time>
      </trkpt>
      <trkpt lat="41.54627" lon="2.26653">
        <ele>83.4</ele>
        <time>2021-11-13 08:41:21</time>
      </trkpt>
      <trkpt lat="41.5463" lon="2.26661">
        <ele>83.4</ele>
        <time>2021-11-13 08:41:22</time>
      </trkpt>
      <trkpt lat="41.54631" lon="2.2667">
        <ele>83.4</ele>
        <time>2021-11-13 08:41:23</time>
      </trkpt>
      <trkpt lat="41.5463" lon="2.26678">
        <ele>83.4</ele>
        <time>2021-11-13 08:41:24</time>
      </trkpt>
      <trkpt lat="41.54626" lon="2.26685">
        <ele>83.4</ele>
        <time>2021-11-13 08:41:25</time>
      </trkpt>
      <trkpt lat="41.54621" lon="2.26691">
        <ele>83.4</ele>
        <time>2021-11-13 08:41:26</time>
      </trkpt>
      <trkpt lat="41.54616" lon="2.26697">
        <ele>83.4</ele>
        <time>2021-11-13 08:41:27</time>
      </trkpt>
      <trkpt lat="41.54611" lon="2.26701">
        <ele>83.6</ele>
        <time>2021-11-13 08:41:28</time>
      </trkpt>
      <trkpt lat="41.54605" lon="2.26705">
        <ele>83.6</ele>
        <time>2021-11-13 08:41:29</time>
      </trkpt>
      <trkpt lat="41.54599" lon="2.26709">
        <ele>83.6</ele>
        <time>2021-11-13 08:41:30</time>
      </trkpt>
      <trkpt lat="41.54594" lon="2.26713">
        <ele>83.6</ele>
        <time>2021-11-13 08:41:31</time>
      </trkpt>
      <trkpt lat="41.54589" lon="2.26718">
        <ele>84</ele>
        <time>2021-11-13 08:41:32</time>
      </trkpt>
      <trkpt lat="41.54585" lon="2.26722">
        <ele>84</ele>
        <time>2021-11-13 08:41:33</time>
      </trkpt>
      <trkpt lat="41.5458" lon="2.26726">
        <ele>84.2</ele>
        <time>2021-11-13 08:41:34</time>
      </trkpt>
      <trkpt lat="41.54576" lon="2.2673">
        <ele>84.6</ele>
        <time>2021-11-13 08:41:35</time>
      </trkpt>
      <trkpt lat="41.54571" lon="2.26733">
        <ele>84.6</ele>
        <time>2021-11-13 08:41:36</time>
      </trkpt>
      <trkpt lat="41.54567" lon="2.26737">
        <ele>84.8</ele>
        <time>2021-11-13 08:41:37</time>
      </trkpt>
      <trkpt lat="41.54562" lon="2.26741">
        <ele>84.8</ele>
        <time>2021-11-13 08:41:38</time>
      </trkpt>
      <trkpt lat="41.54558" lon="2.26744">
        <ele>85</ele>
        <time>2021-11-13 08:41:39</time>
      </trkpt>
      <trkpt lat="41.54553" lon="2.26748">
        <ele>85.2</ele>
        <time>2021-11-13 08:41:40</time>
      </trkpt>
      <trkpt lat="41.54549" lon="2.26751">
        <ele>85.4</ele>
        <time>2021-11-13 08:41:41</time>
      </trkpt>
      <trkpt lat="41.54544" lon="2.26755">
        <ele>85.6</ele>
        <time>2021-11-13 08:41:42</time>
      </trkpt>
      <trkpt lat="41.5454" lon="2.26759">
        <ele>86.2</ele>
        <time>2021-11-13 08:41:43</time>
      </trkpt>
      <trkpt lat="41.54536" lon="2.26763">
        <ele>86.4</ele>
        <time>2021-11-13 08:41:44</time>
      </trkpt>
      <trkpt lat="41.54532" lon="2.26767">
        <ele>86.6</ele>
        <time>2021-11-13 08:41:45</time>
      </trkpt>
      <trkpt lat="41.54528" lon="2.26771">
        <ele>87</ele>
        <time>2021-11-13 08:41:46</time>
      </trkpt>
      <trkpt lat="41.54526" lon="2.26775">
        <ele>87.2</ele>
        <time>2021-11-13 08:41:47</time>
      </trkpt>
      <trkpt lat="41.54523" lon="2.26779">
        <ele>87.6</ele>
        <time>2021-11-13 08:41:48</time>
      </trkpt>
      <trkpt lat="41.54521" lon="2.26783">
        <ele>88</ele>
        <time>2021-11-13 08:41:49</time>
      </trkpt>
      <trkpt lat="41.5452" lon="2.26789">
        <ele>88.2</ele>
        <time>2021-11-13 08:41:50</time>
      </trkpt>
      <trkpt lat="41.5452" lon="2.26796">
        <ele>88.2</ele>
        <time>2021-11-13 08:41:51</time>
      </trkpt>
      <trkpt lat="41.54521" lon="2.26802">
        <ele>89.2</ele>
        <time>2021-11-13 08:41:52</time>
      </trkpt>
      <trkpt lat="41.54523" lon="2.26809">
        <ele>89.6</ele>
        <time>2021-11-13 08:41:53</time>
      </trkpt>
      <trkpt lat="41.54524" lon="2.26815">
        <ele>90</ele>
        <time>2021-11-13 08:41:54</time>
      </trkpt>
      <trkpt lat="41.54526" lon="2.26821">
        <ele>90.6</ele>
        <time>2021-11-13 08:41:55</time>
      </trkpt>
      <trkpt lat="41.54527" lon="2.26828">
        <ele>91</ele>
        <time>2021-11-13 08:41:56</time>
      </trkpt>
      <trkpt lat="41.54528" lon="2.26834">
        <ele>91.4</ele>
        <time>2021-11-13 08:41:57</time>
      </trkpt>
      <trkpt lat="41.54528" lon="2.26841">
        <ele>91.6</ele>
        <time>2021-11-13 08:41:58</time>
      </trkpt>
      <trkpt lat="41.54529" lon="2.26848">
        <ele>92.2</ele>
        <time>2021-11-13 08:41:59</time>
      </trkpt>
      <trkpt lat="41.5453" lon="2.26854">
        <ele>92.4</ele>
        <time>2021-11-13 08:42:00</time>
      </trkpt>
      <trkpt lat="41.5453" lon="2.26861">
        <ele>92.8</ele>
        <time>2021-11-13 08:42:01</time>
      </trkpt>
      <trkpt lat="41.5453" lon="2.26867">
        <ele>93.2</ele>
        <time>2021-11-13 08:42:02</time>
      </trkpt>
      <trkpt lat="41.54531" lon="2.26874">
        <ele>93.4</ele>
        <time>2021-11-13 08:42:03</time>
      </trkpt>
      <trkpt lat="41.54531" lon="2.2688">
        <ele>93.8</ele>
        <time>2021-11-13 08:42:04</time>
      </trkpt>
      <trkpt lat="41.54531" lon="2.26887">
        <ele>94</ele>
        <time>2021-11-13 08:42:05</time>
      </trkpt>
      <trkpt lat="41.54532" lon="2.26893">
        <ele>94.4</ele>
        <time>2021-11-13 08:42:06</time>
      </trkpt>
      <trkpt lat="41.54532" lon="2.26899">
        <ele>94.4</ele>
        <time>2021-11-13 08:42:07</time>
      </trkpt>
      <trkpt lat="41.54533" lon="2.26906">
        <ele>94.8</ele>
        <time>2021-11-13 08:42:08</time>
      </trkpt>
      <trkpt lat="41.54533" lon="2.26912">
        <ele>95.2</ele>
        <time>2021-11-13 08:42:09</time>
      </trkpt>
      <trkpt lat="41.54534" lon="2.26919">
        <ele>95.4</ele>
        <time>2021-11-13 08:42:10</time>
      </trkpt>
      <trkpt lat="41.54534" lon="2.26925">
        <ele>95.8</ele>
        <time>2021-11-13 08:42:11</time>
      </trkpt>
      <trkpt lat="41.54534" lon="2.26931">
        <ele>95.8</ele>
        <time>2021-11-13 08:42:12</time>
      </trkpt>
      <trkpt lat="41.54535" lon="2.26937">
        <ele>96.2</ele>
        <time>2021-11-13 08:42:13</time>
      </trkpt>
      <trkpt lat="41.54534" lon="2.26943">
        <ele>96.4</ele>
        <time>2021-11-13 08:42:14</time>
      </trkpt>
      <trkpt lat="41.54532" lon="2.26947">
        <ele>96.6</ele>
        <time>2021-11-13 08:42:15</time>
      </trkpt>
      <trkpt lat="41.5453" lon="2.2695">
        <ele>96.8</ele>
        <time>2021-11-13 08:42:16</time>
      </trkpt>
      <trkpt lat="41.54527" lon="2.26952">
        <ele>97</ele>
        <time>2021-11-13 08:42:17</time>
      </trkpt>
      <trkpt lat="41.54524" lon="2.26954">
        <ele>97.2</ele>
        <time>2021-11-13 08:42:18</time>
      </trkpt>
      <trkpt lat="41.54521" lon="2.26958">
        <ele>97.4</ele>
        <time>2021-11-13 08:42:19</time>
      </trkpt>
      <trkpt lat="41.54519" lon="2.26964">
        <ele>97.8</ele>
        <time>2021-11-13 08:42:20</time>
      </trkpt>
      <trkpt lat="41.54519" lon="2.2697">
        <ele>97.8</ele>
        <time>2021-11-13 08:42:21</time>
      </trkpt>
      <trkpt lat="41.54518" lon="2.26977">
        <ele>98</ele>
        <time>2021-11-13 08:42:22</time>
      </trkpt>
      <trkpt lat="41.54517" lon="2.26984">
        <ele>98.2</ele>
        <time>2021-11-13 08:42:23</time>
      </trkpt>
      <trkpt lat="41.54517" lon="2.26991">
        <ele>98.4</ele>
        <time>2021-11-13 08:42:24</time>
      </trkpt>
      <trkpt lat="41.54517" lon="2.26998">
        <ele>98.6</ele>
        <time>2021-11-13 08:42:25</time>
      </trkpt>
      <trkpt lat="41.54516" lon="2.27006">
        <ele>98.6</ele>
        <time>2021-11-13 08:42:26</time>
      </trkpt>
      <trkpt lat="41.54516" lon="2.27013">
        <ele>98.8</ele>
        <time>2021-11-13 08:42:27</time>
      </trkpt>
      <trkpt lat="41.54515" lon="2.2702">
        <ele>98.8</ele>
        <time>2021-11-13 08:42:28</time>
      </trkpt>
      <trkpt lat="41.54514" lon="2.27027">
        <ele>99</ele>
        <time>2021-11-13 08:42:29</time>
      </trkpt>
      <trkpt lat="41.54514" lon="2.27035">
        <ele>99.2</ele>
        <time>2021-11-13 08:42:30</time>
      </trkpt>
      <trkpt lat="41.54513" lon="2.27043">
        <ele>99.4</ele>
        <time>2021-11-13 08:42:31</time>
      </trkpt>
      <trkpt lat="41.54512" lon="2.2705">
        <ele>99.4</ele>
        <time>2021-11-13 08:42:32</time>
      </trkpt>
      <trkpt lat="41.54512" lon="2.27058">
        <ele>99.6</ele>
        <time>2021-11-13 08:42:33</time>
      </trkpt>
      <trkpt lat="41.54511" lon="2.27066">
        <ele>99.6</ele>
        <time>2021-11-13 08:42:34</time>
      </trkpt>
      <trkpt lat="41.54511" lon="2.27073">
        <ele>99.6</ele>
        <time>2021-11-13 08:42:35</time>
      </trkpt>
      <trkpt lat="41.54511" lon="2.27081">
        <ele>99.8</ele>
        <time>2021-11-13 08:42:36</time>
      </trkpt>
      <trkpt lat="41.54511" lon="2.27089">
        <ele>100</ele>
        <time>2021-11-13 08:42:37</time>
      </trkpt>
      <trkpt lat="41.54511" lon="2.27096">
        <ele>100.2</ele>
        <time>2021-11-13 08:42:38</time>
      </trkpt>
      <trkpt lat="41.54511" lon="2.27104">
        <ele>100.4</ele>
        <time>2021-11-13 08:42:39</time>
      </trkpt>
      <trkpt lat="41.54512" lon="2.27111">
        <ele>100.8</ele>
        <time>2021-11-13 08:42:40</time>
      </trkpt>
      <trkpt lat="41.54514" lon="2.27119">
        <ele>100.8</ele>
        <time>2021-11-13 08:42:41</time>
      </trkpt>
      <trkpt lat="41.54516" lon="2.27126">
        <ele>101</ele>
        <time>2021-11-13 08:42:42</time>
      </trkpt>
      <trkpt lat="41.54518" lon="2.27133">
        <ele>101.2</ele>
        <time>2021-11-13 08:42:43</time>
      </trkpt>
      <trkpt lat="41.54521" lon="2.27139">
        <ele>101.2</ele>
        <time>2021-11-13 08:42:44</time>
      </trkpt>
      <trkpt lat="41.54525" lon="2.27145">
        <ele>101.6</ele>
        <time>2021-11-13 08:42:45</time>
      </trkpt>
      <trkpt lat="41.54528" lon="2.27151">
        <ele>101.8</ele>
        <time>2021-11-13 08:42:46</time>
      </trkpt>
      <trkpt lat="41.54532" lon="2.27157">
        <ele>102</ele>
        <time>2021-11-13 08:42:47</time>
      </trkpt>
      <trkpt lat="41.54536" lon="2.27163">
        <ele>102.2</ele>
        <time>2021-11-13 08:42:48</time>
      </trkpt>
      <trkpt lat="41.54539" lon="2.27169">
        <ele>102.6</ele>
        <time>2021-11-13 08:42:49</time>
      </trkpt>
      <trkpt lat="41.54544" lon="2.27174">
        <ele>102.6</ele>
        <time>2021-11-13 08:42:50</time>
      </trkpt>
      <trkpt lat="41.54548" lon="2.2718">
        <ele>103</ele>
        <time>2021-11-13 08:42:51</time>
      </trkpt>
      <trkpt lat="41.54552" lon="2.27186">
        <ele>103</ele>
        <time>2021-11-13 08:42:52</time>
      </trkpt>
      <trkpt lat="41.54556" lon="2.27191">
        <ele>103.4</ele>
        <time>2021-11-13 08:42:53</time>
      </trkpt>
      <trkpt lat="41.5456" lon="2.27197">
        <ele>103.6</ele>
        <time>2021-11-13 08:42:54</time>
      </trkpt>
      <trkpt lat="41.54563" lon="2.27203">
        <ele>103.8</ele>
        <time>2021-11-13 08:42:55</time>
      </trkpt>
      <trkpt lat="41.54567" lon="2.27209">
        <ele>104</ele>
        <time>2021-11-13 08:42:56</time>
      </trkpt>
      <trkpt lat="41.54571" lon="2.27215">
        <ele>104.2</ele>
        <time>2021-11-13 08:42:57</time>
      </trkpt>
      <trkpt lat="41.54575" lon="2.27221">
        <ele>104.4</ele>
        <time>2021-11-13 08:42:58</time>
      </trkpt>
      <trkpt lat="41.54578" lon="2.27228">
        <ele>104.4</ele>
        <time>2021-11-13 08:42:59</time>
      </trkpt>
      <trkpt lat="41.54581" lon="2.27234">
        <ele>104.6</ele>
        <time>2021-11-13 08:43:00</time>
      </trkpt>
      <trkpt lat="41.54584" lon="2.27241">
        <ele>105</ele>
        <time>2021-11-13 08:43:01</time>
      </trkpt>
      <trkpt lat="41.54587" lon="2.27249">
        <ele>105</ele>
        <time>2021-11-13 08:43:02</time>
      </trkpt>
      <trkpt lat="41.54589" lon="2.27257">
        <ele>105.4</ele>
        <time>2021-11-13 08:43:03</time>
      </trkpt>
      <trkpt lat="41.54591" lon="2.27265">
        <ele>105.6</ele>
        <time>2021-11-13 08:43:04</time>
      </trkpt>
      <trkpt lat="41.54593" lon="2.27274">
        <ele>105.8</ele>
        <time>2021-11-13 08:43:05</time>
      </trkpt>
      <trkpt lat="41.54595" lon="2.27283">
        <ele>106</ele>
        <time>2021-11-13 08:43:06</time>
      </trkpt>
      <trkpt lat="41.54597" lon="2.27292">
        <ele>106</ele>
        <time>2021-11-13 08:43:07</time>
      </trkpt>
      <trkpt lat="41.54599" lon="2.27302">
        <ele>106.2</ele>
        <time>2021-11-13 08:43:08</time>
      </trkpt>
      <trkpt lat="41.54601" lon="2.27312">
        <ele>106.2</ele>
        <time>2021-11-13 08:43:09</time>
      </trkpt>
      <trkpt lat="41.54604" lon="2.27322">
        <ele>106.2</ele>
        <time>2021-11-13 08:43:10</time>
      </trkpt>
      <trkpt lat="41.54606" lon="2.27331">
        <ele>106.2</ele>
        <time>2021-11-13 08:43:11</time>
      </trkpt>
      <trkpt lat="41.54608" lon="2.27341">
        <ele>106.2</ele>
        <time>2021-11-13 08:43:12</time>
      </trkpt>
      <trkpt lat="41.54611" lon="2.27351">
        <ele>106.2</ele>
        <time>2021-11-13 08:43:13</time>
      </trkpt>
      <trkpt lat="41.54613" lon="2.27361">
        <ele>106.2</ele>
        <time>2021-11-13 08:43:14</time>
      </trkpt>
      <trkpt lat="41.54616" lon="2.27371">
        <ele>106.2</ele>
        <time>2021-11-13 08:43:15</time>
      </trkpt>
      <trkpt lat="41.54618" lon="2.27381">
        <ele>106</ele>
        <time>2021-11-13 08:43:16</time>
      </trkpt>
      <trkpt lat="41.5462" lon="2.27391">
        <ele>106</ele>
        <time>2021-11-13 08:43:17</time>
      </trkpt>
      <trkpt lat="41.54622" lon="2.27401">
        <ele>105.8</ele>
        <time>2021-11-13 08:43:18</time>
      </trkpt>
      <trkpt lat="41.54624" lon="2.27411">
        <ele>105.8</ele>
        <time>2021-11-13 08:43:19</time>
      </trkpt>
      <trkpt lat="41.54626" lon="2.27421">
        <ele>105.6</ele>
        <time>2021-11-13 08:43:20</time>
      </trkpt>
      <trkpt lat="41.54627" lon="2.27432">
        <ele>105.4</ele>
        <time>2021-11-13 08:43:21</time>
      </trkpt>
      <trkpt lat="41.54627" lon="2.27442">
        <ele>105.4</ele>
        <time>2021-11-13 08:43:22</time>
      </trkpt>
      <trkpt lat="41.54628" lon="2.27453">
        <ele>105.4</ele>
        <time>2021-11-13 08:43:23</time>
      </trkpt>
      <trkpt lat="41.54628" lon="2.27464">
        <ele>105.4</ele>
        <time>2021-11-13 08:43:24</time>
      </trkpt>
      <trkpt lat="41.54628" lon="2.27475">
        <ele>105.4</ele>
        <time>2021-11-13 08:43:25</time>
      </trkpt>
      <trkpt lat="41.54629" lon="2.27486">
        <ele>105.4</ele>
        <time>2021-11-13 08:43:26</time>
      </trkpt>
      <trkpt lat="41.54629" lon="2.27496">
        <ele>105.2</ele>
        <time>2021-11-13 08:43:27</time>
      </trkpt>
      <trkpt lat="41.54629" lon="2.27507">
        <ele>105.2</ele>
        <time>2021-11-13 08:43:28</time>
      </trkpt>
      <trkpt lat="41.5463" lon="2.27519">
        <ele>105.2</ele>
        <time>2021-11-13 08:43:29</time>
      </trkpt>
      <trkpt lat="41.5463" lon="2.2753">
        <ele>105.2</ele>
        <time>2021-11-13 08:43:30</time>
      </trkpt>
      <trkpt lat="41.5463" lon="2.27541">
        <ele>105.2</ele>
        <time>2021-11-13 08:43:31</time>
      </trkpt>
      <trkpt lat="41.5463" lon="2.27552">
        <ele>105.2</ele>
        <time>2021-11-13 08:43:32</time>
      </trkpt>
      <trkpt lat="41.54631" lon="2.27564">
        <ele>105</ele>
        <time>2021-11-13 08:43:33</time>
      </trkpt>
      <trkpt lat="41.54631" lon="2.27575">
        <ele>105</ele>
        <time>2021-11-13 08:43:34</time>
      </trkpt>
      <trkpt lat="41.54631" lon="2.27586">
        <ele>105</ele>
        <time>2021-11-13 08:43:35</time>
      </trkpt>
      <trkpt lat="41.54631" lon="2.27598">
        <ele>104.8</ele>
        <time>2021-11-13 08:43:36</time>
      </trkpt>
      <trkpt lat="41.54632" lon="2.27609">
        <ele>104.6</ele>
        <time>2021-11-13 08:43:37</time>
      </trkpt>
      <trkpt lat="41.54632" lon="2.27621">
        <ele>104.6</ele>
        <time>2021-11-13 08:43:38</time>
      </trkpt>
      <trkpt lat="41.54632" lon="2.27632">
        <ele>104.4</ele>
        <time>2021-11-13 08:43:39</time>
      </trkpt>
      <trkpt lat="41.54632" lon="2.27644">
        <ele>104.4</ele>
        <time>2021-11-13 08:43:40</time>
      </trkpt>
      <trkpt lat="41.54632" lon="2.27655">
        <ele>104.2</ele>
        <time>2021-11-13 08:43:41</time>
      </trkpt>
      <trkpt lat="41.54632" lon="2.27667">
        <ele>104.2</ele>
        <time>2021-11-13 08:43:42</time>
      </trkpt>
      <trkpt lat="41.54633" lon="2.27679">
        <ele>104.2</ele>
        <time>2021-11-13 08:43:43</time>
      </trkpt>
      <trkpt lat="41.54633" lon="2.27691">
        <ele>104</ele>
        <time>2021-11-13 08:43:44</time>
      </trkpt>
      <trkpt lat="41.54633" lon="2.27703">
        <ele>104</ele>
        <time>2021-11-13 08:43:45</time>
      </trkpt>
      <trkpt lat="41.54633" lon="2.27715">
        <ele>103.8</ele>
        <time>2021-11-13 08:43:46</time>
      </trkpt>
      <trkpt lat="41.54634" lon="2.27727">
        <ele>103.8</ele>
        <time>2021-11-13 08:43:47</time>
      </trkpt>
      <trkpt lat="41.54634" lon="2.27738">
        <ele>103.6</ele>
        <time>2021-11-13 08:43:48</time>
      </trkpt>
      <trkpt lat="41.54635" lon="2.2775">
        <ele>103.6</ele>
        <time>2021-11-13 08:43:49</time>
      </trkpt>
      <trkpt lat="41.54635" lon="2.27762">
        <ele>103.4</ele>
        <time>2021-11-13 08:43:50</time>
      </trkpt>
      <trkpt lat="41.54637" lon="2.27774">
        <ele>103.4</ele>
        <time>2021-11-13 08:43:51</time>
      </trkpt>
      <trkpt lat="41.54639" lon="2.27786">
        <ele>103.4</ele>
        <time>2021-11-13 08:43:52</time>
      </trkpt>
      <trkpt lat="41.54641" lon="2.27798">
        <ele>103.2</ele>
        <time>2021-11-13 08:43:53</time>
      </trkpt>
      <trkpt lat="41.54645" lon="2.2781">
        <ele>103.2</ele>
        <time>2021-11-13 08:43:54</time>
      </trkpt>
      <trkpt lat="41.54649" lon="2.27821">
        <ele>103.2</ele>
        <time>2021-11-13 08:43:55</time>
      </trkpt>
      <trkpt lat="41.54654" lon="2.27832">
        <ele>103.2</ele>
        <time>2021-11-13 08:43:56</time>
      </trkpt>
      <trkpt lat="41.54659" lon="2.27842">
        <ele>103</ele>
        <time>2021-11-13 08:43:57</time>
      </trkpt>
      <trkpt lat="41.54665" lon="2.27852">
        <ele>103</ele>
        <time>2021-11-13 08:43:58</time>
      </trkpt>
      <trkpt lat="41.54671" lon="2.27861">
        <ele>103</ele>
        <time>2021-11-13 08:43:59</time>
      </trkpt>
      <trkpt lat="41.54678" lon="2.2787">
        <ele>103</ele>
        <time>2021-11-13 08:44:00</time>
      </trkpt>
      <trkpt lat="41.54685" lon="2.27877">
        <ele>102.8</ele>
        <time>2021-11-13 08:44:01</time>
      </trkpt>
      <trkpt lat="41.54693" lon="2.27884">
        <ele>102.8</ele>
        <time>2021-11-13 08:44:02</time>
      </trkpt>
      <trkpt lat="41.54701" lon="2.2789">
        <ele>102.8</ele>
        <time>2021-11-13 08:44:03</time>
      </trkpt>
      <trkpt lat="41.5471" lon="2.27895">
        <ele>102.6</ele>
        <time>2021-11-13 08:44:04</time>
      </trkpt>
      <trkpt lat="41.54718" lon="2.27899">
        <ele>102.4</ele>
        <time>2021-11-13 08:44:05</time>
      </trkpt>
      <trkpt lat="41.54727" lon="2.27902">
        <ele>102.2</ele>
        <time>2021-11-13 08:44:06</time>
      </trkpt>
      <trkpt lat="41.54736" lon="2.27905">
        <ele>102</ele>
        <time>2021-11-13 08:44:07</time>
      </trkpt>
      <trkpt lat="41.54745" lon="2.27907">
        <ele>102</ele>
        <time>2021-11-13 08:44:08</time>
      </trkpt>
      <trkpt lat="41.54755" lon="2.27907">
        <ele>101.8</ele>
        <time>2021-11-13 08:44:09</time>
      </trkpt>
      <trkpt lat="41.54764" lon="2.27908">
        <ele>101.8</ele>
        <time>2021-11-13 08:44:10</time>
      </trkpt>
      <trkpt lat="41.54773" lon="2.27907">
        <ele>101.8</ele>
        <time>2021-11-13 08:44:11</time>
      </trkpt>
      <trkpt lat="41.54782" lon="2.27908">
        <ele>101.8</ele>
        <time>2021-11-13 08:44:12</time>
      </trkpt>
      <trkpt lat="41.54792" lon="2.27908">
        <ele>101.8</ele>
        <time>2021-11-13 08:44:13</time>
      </trkpt>
      <trkpt lat="41.54801" lon="2.27909">
        <ele>101.6</ele>
        <time>2021-11-13 08:44:14</time>
      </trkpt>
      <trkpt lat="41.54811" lon="2.2791">
        <ele>101.6</ele>
        <time>2021-11-13 08:44:15</time>
      </trkpt>
      <trkpt lat="41.54821" lon="2.27912">
        <ele>101.4</ele>
        <time>2021-11-13 08:44:16</time>
      </trkpt>
      <trkpt lat="41.5483" lon="2.27916">
        <ele>101</ele>
        <time>2021-11-13 08:44:17</time>
      </trkpt>
      <trkpt lat="41.5484" lon="2.2792">
        <ele>100.8</ele>
        <time>2021-11-13 08:44:18</time>
      </trkpt>
      <trkpt lat="41.54849" lon="2.27926">
        <ele>100.4</ele>
        <time>2021-11-13 08:44:19</time>
      </trkpt>
      <trkpt lat="41.54858" lon="2.27932">
        <ele>100.2</ele>
        <time>2021-11-13 08:44:20</time>
      </trkpt>
      <trkpt lat="41.54866" lon="2.27939">
        <ele>100.2</ele>
        <time>2021-11-13 08:44:21</time>
      </trkpt>
      <trkpt lat="41.54875" lon="2.27947">
        <ele>99.8</ele>
        <time>2021-11-13 08:44:22</time>
      </trkpt>
      <trkpt lat="41.54883" lon="2.27955">
        <ele>99.8</ele>
        <time>2021-11-13 08:44:23</time>
      </trkpt>
      <trkpt lat="41.5489" lon="2.27964">
        <ele>99.4</ele>
        <time>2021-11-13 08:44:24</time>
      </trkpt>
      <trkpt lat="41.54897" lon="2.27973">
        <ele>99.2</ele>
        <time>2021-11-13 08:44:25</time>
      </trkpt>
      <trkpt lat="41.54904" lon="2.27982">
        <ele>99</ele>
        <time>2021-11-13 08:44:26</time>
      </trkpt>
      <trkpt lat="41.54911" lon="2.27991">
        <ele>98.8</ele>
        <time>2021-11-13 08:44:27</time>
      </trkpt>
      <trkpt lat="41.54918" lon="2.28">
        <ele>98.8</ele>
        <time>2021-11-13 08:44:28</time>
      </trkpt>
      <trkpt lat="41.54925" lon="2.28008">
        <ele>98.6</ele>
        <time>2021-11-13 08:44:29</time>
      </trkpt>
      <trkpt lat="41.54931" lon="2.28017">
        <ele>98.4</ele>
        <time>2021-11-13 08:44:30</time>
      </trkpt>
      <trkpt lat="41.54938" lon="2.28025">
        <ele>98.6</ele>
        <time>2021-11-13 08:44:31</time>
      </trkpt>
      <trkpt lat="41.54945" lon="2.28033">
        <ele>98.6</ele>
        <time>2021-11-13 08:44:32</time>
      </trkpt>
      <trkpt lat="41.54951" lon="2.28042">
        <ele>98.6</ele>
        <time>2021-11-13 08:44:33</time>
      </trkpt>
      <trkpt lat="41.54958" lon="2.2805">
        <ele>98.4</ele>
        <time>2021-11-13 08:44:34</time>
      </trkpt>
      <trkpt lat="41.54964" lon="2.28058">
        <ele>98.4</ele>
        <time>2021-11-13 08:44:35</time>
      </trkpt>
      <trkpt lat="41.5497" lon="2.28065">
        <ele>98.4</ele>
        <time>2021-11-13 08:44:36</time>
      </trkpt>
      <trkpt lat="41.54977" lon="2.28073">
        <ele>98.4</ele>
        <time>2021-11-13 08:44:37</time>
      </trkpt>
      <trkpt lat="41.54983" lon="2.28081">
        <ele>98.4</ele>
        <time>2021-11-13 08:44:38</time>
      </trkpt>
      <trkpt lat="41.54989" lon="2.28089">
        <ele>98.4</ele>
        <time>2021-11-13 08:44:39</time>
      </trkpt>
      <trkpt lat="41.54995" lon="2.28097">
        <ele>98.6</ele>
        <time>2021-11-13 08:44:40</time>
      </trkpt>
      <trkpt lat="41.55" lon="2.28104">
        <ele>98.6</ele>
        <time>2021-11-13 08:44:41</time>
      </trkpt>
      <trkpt lat="41.55006" lon="2.28113">
        <ele>98.6</ele>
        <time>2021-11-13 08:44:42</time>
      </trkpt>
      <trkpt lat="41.55011" lon="2.28121">
        <ele>98.8</ele>
        <time>2021-11-13 08:44:43</time>
      </trkpt>
      <trkpt lat="41.55015" lon="2.2813">
        <ele>98.8</ele>
        <time>2021-11-13 08:44:44</time>
      </trkpt>
      <trkpt lat="41.55019" lon="2.2814">
        <ele>98.8</ele>
        <time>2021-11-13 08:44:45</time>
      </trkpt>
      <trkpt lat="41.55023" lon="2.28149">
        <ele>98.8</ele>
        <time>2021-11-13 08:44:46</time>
      </trkpt>
      <trkpt lat="41.55026" lon="2.28159">
        <ele>98.8</ele>
        <time>2021-11-13 08:44:47</time>
      </trkpt>
      <trkpt lat="41.5503" lon="2.28168">
        <ele>98.8</ele>
        <time>2021-11-13 08:44:48</time>
      </trkpt>
      <trkpt lat="41.55033" lon="2.28178">
        <ele>99</ele>
        <time>2021-11-13 08:44:49</time>
      </trkpt>
      <trkpt lat="41.55037" lon="2.28188">
        <ele>99</ele>
        <time>2021-11-13 08:44:50</time>
      </trkpt>
      <trkpt lat="41.55041" lon="2.28198">
        <ele>99</ele>
        <time>2021-11-13 08:44:51</time>
      </trkpt>
      <trkpt lat="41.55044" lon="2.28208">
        <ele>99</ele>
        <time>2021-11-13 08:44:52</time>
      </trkpt>
      <trkpt lat="41.55047" lon="2.28219">
        <ele>99</ele>
        <time>2021-11-13 08:44:53</time>
      </trkpt>
      <trkpt lat="41.55049" lon="2.28229">
        <ele>99</ele>
        <time>2021-11-13 08:44:54</time>
      </trkpt>
      <trkpt lat="41.55049" lon="2.2824">
        <ele>99</ele>
        <time>2021-11-13 08:44:55</time>
      </trkpt>
      <trkpt lat="41.55049" lon="2.28252">
        <ele>99.2</ele>
        <time>2021-11-13 08:44:56</time>
      </trkpt>
      <trkpt lat="41.55051" lon="2.28263">
        <ele>99.2</ele>
        <time>2021-11-13 08:44:57</time>
      </trkpt>
      <trkpt lat="41.55055" lon="2.28273">
        <ele>99.2</ele>
        <time>2021-11-13 08:44:58</time>
      </trkpt>
      <trkpt lat="41.5506" lon="2.28281">
        <ele>99</ele>
        <time>2021-11-13 08:44:59</time>
      </trkpt>
      <trkpt lat="41.55067" lon="2.28288">
        <ele>99</ele>
        <time>2021-11-13 08:45:00</time>
      </trkpt>
      <trkpt lat="41.55073" lon="2.28296">
        <ele>99</ele>
        <time>2021-11-13 08:45:01</time>
      </trkpt>
      <trkpt lat="41.55078" lon="2.28305">
        <ele>99</ele>
        <time>2021-11-13 08:45:02</time>
      </trkpt>
      <trkpt lat="41.55082" lon="2.28314">
        <ele>99</ele>
        <time>2021-11-13 08:45:03</time>
      </trkpt>
      <trkpt lat="41.55085" lon="2.28324">
        <ele>99</ele>
        <time>2021-11-13 08:45:04</time>
      </trkpt>
      <trkpt lat="41.55089" lon="2.28335">
        <ele>99</ele>
        <time>2021-11-13 08:45:05</time>
      </trkpt>
      <trkpt lat="41.55092" lon="2.28344">
        <ele>98.8</ele>
        <time>2021-11-13 08:45:06</time>
      </trkpt>
      <trkpt lat="41.55096" lon="2.28355">
        <ele>98.8</ele>
        <time>2021-11-13 08:45:07</time>
      </trkpt>
      <trkpt lat="41.55099" lon="2.28364">
        <ele>98.8</ele>
        <time>2021-11-13 08:45:08</time>
      </trkpt>
      <trkpt lat="41.55103" lon="2.28374">
        <ele>98.8</ele>
        <time>2021-11-13 08:45:09</time>
      </trkpt>
      <trkpt lat="41.55106" lon="2.28384">
        <ele>98.8</ele>
        <time>2021-11-13 08:45:10</time>
      </trkpt>
      <trkpt lat="41.5511" lon="2.28395">
        <ele>98.8</ele>
        <time>2021-11-13 08:45:11</time>
      </trkpt>
      <trkpt lat="41.55113" lon="2.28405">
        <ele>98.8</ele>
        <time>2021-11-13 08:45:12</time>
      </trkpt>
      <trkpt lat="41.55117" lon="2.28415">
        <ele>98.8</ele>
        <time>2021-11-13 08:45:13</time>
      </trkpt>
      <trkpt lat="41.5512" lon="2.28425">
        <ele>98.8</ele>
        <time>2021-11-13 08:45:14</time>
      </trkpt>
      <trkpt lat="41.55124" lon="2.28435">
        <ele>98.8</ele>
        <time>2021-11-13 08:45:15</time>
      </trkpt>
      <trkpt lat="41.55127" lon="2.28445">
        <ele>98.8</ele>
        <time>2021-11-13 08:45:16</time>
      </trkpt>
      <trkpt lat="41.55131" lon="2.28455">
        <ele>98.8</ele>
        <time>2021-11-13 08:45:17</time>
      </trkpt>
      <trkpt lat="41.55134" lon="2.28466">
        <ele>98.8</ele>
        <time>2021-11-13 08:45:18</time>
      </trkpt>
      <trkpt lat="41.55135" lon="2.28476">
        <ele>98.8</ele>
        <time>2021-11-13 08:45:19</time>
      </trkpt>
      <trkpt lat="41.55135" lon="2.28486">
        <ele>98.8</ele>
        <time>2021-11-13 08:45:20</time>
      </trkpt>
      <trkpt lat="41.55136" lon="2.28497">
        <ele>98.8</ele>
        <time>2021-11-13 08:45:21</time>
      </trkpt>
      <trkpt lat="41.55138" lon="2.28507">
        <ele>98.8</ele>
        <time>2021-11-13 08:45:22</time>
      </trkpt>
      <trkpt lat="41.55142" lon="2.28516">
        <ele>98.8</ele>
        <time>2021-11-13 08:45:23</time>
      </trkpt>
      <trkpt lat="41.55149" lon="2.28522">
        <ele>98.8</ele>
        <time>2021-11-13 08:45:24</time>
      </trkpt>
      <trkpt lat="41.55156" lon="2.28527">
        <ele>98.8</ele>
        <time>2021-11-13 08:45:25</time>
      </trkpt>
      <trkpt lat="41.55164" lon="2.28532">
        <ele>98.8</ele>
        <time>2021-11-13 08:45:26</time>
      </trkpt>
      <trkpt lat="41.5517" lon="2.28539">
        <ele>98.6</ele>
        <time>2021-11-13 08:45:27</time>
      </trkpt>
      <trkpt lat="41.55175" lon="2.28548">
        <ele>98.6</ele>
        <time>2021-11-13 08:45:28</time>
      </trkpt>
      <trkpt lat="41.5518" lon="2.28557">
        <ele>98.6</ele>
        <time>2021-11-13 08:45:29</time>
      </trkpt>
      <trkpt lat="41.55185" lon="2.28566">
        <ele>98.4</ele>
        <time>2021-11-13 08:45:30</time>
      </trkpt>
      <trkpt lat="41.5519" lon="2.28575">
        <ele>98.4</ele>
        <time>2021-11-13 08:45:31</time>
      </trkpt>
      <trkpt lat="41.55195" lon="2.28583">
        <ele>98.4</ele>
        <time>2021-11-13 08:45:32</time>
      </trkpt>
      <trkpt lat="41.55199" lon="2.28592">
        <ele>98.2</ele>
        <time>2021-11-13 08:45:33</time>
      </trkpt>
      <trkpt lat="41.55204" lon="2.28601">
        <ele>98</ele>
        <time>2021-11-13 08:45:34</time>
      </trkpt>
      <trkpt lat="41.55209" lon="2.2861">
        <ele>98</ele>
        <time>2021-11-13 08:45:35</time>
      </trkpt>
      <trkpt lat="41.55214" lon="2.28619">
        <ele>97.8</ele>
        <time>2021-11-13 08:45:36</time>
      </trkpt>
      <trkpt lat="41.55219" lon="2.28628">
        <ele>97.6</ele>
        <time>2021-11-13 08:45:37</time>
      </trkpt>
      <trkpt lat="41.55224" lon="2.28637">
        <ele>97.6</ele>
        <time>2021-11-13 08:45:38</time>
      </trkpt>
      <trkpt lat="41.5523" lon="2.28646">
        <ele>97.4</ele>
        <time>2021-11-13 08:45:39</time>
      </trkpt>
      <trkpt lat="41.55235" lon="2.28655">
        <ele>97.4</ele>
        <time>2021-11-13 08:45:40</time>
      </trkpt>
      <trkpt lat="41.5524" lon="2.28664">
        <ele>97.2</ele>
        <time>2021-11-13 08:45:41</time>
      </trkpt>
      <trkpt lat="41.55245" lon="2.28673">
        <ele>97.2</ele>
        <time>2021-11-13 08:45:42</time>
      </trkpt>
      <trkpt lat="41.5525" lon="2.28682">
        <ele>97</ele>
        <time>2021-11-13 08:45:43</time>
      </trkpt>
      <trkpt lat="41.55255" lon="2.28691">
        <ele>97</ele>
        <time>2021-11-13 08:45:44</time>
      </trkpt>
      <trkpt lat="41.5526" lon="2.287">
        <ele>97</ele>
        <time>2021-11-13 08:45:45</time>
      </trkpt>
      <trkpt lat="41.55266" lon="2.28709">
        <ele>96.8</ele>
        <time>2021-11-13 08:45:46</time>
      </trkpt>
      <trkpt lat="41.55271" lon="2.28718">
        <ele>96.8</ele>
        <time>2021-11-13 08:45:47</time>
      </trkpt>
      <trkpt lat="41.55276" lon="2.28727">
        <ele>96.8</ele>
        <time>2021-11-13 08:45:48</time>
      </trkpt>
      <trkpt lat="41.55281" lon="2.28736">
        <ele>96.8</ele>
        <time>2021-11-13 08:45:49</time>
      </trkpt>
      <trkpt lat="41.55286" lon="2.28745">
        <ele>96.6</ele>
        <time>2021-11-13 08:45:50</time>
      </trkpt>
      <trkpt lat="41.55291" lon="2.28753">
        <ele>96.6</ele>
        <time>2021-11-13 08:45:51</time>
      </trkpt>
      <trkpt lat="41.55296" lon="2.28762">
        <ele>96.6</ele>
        <time>2021-11-13 08:45:52</time>
      </trkpt>
      <trkpt lat="41.55301" lon="2.28771">
        <ele>96.6</ele>
        <time>2021-11-13 08:45:53</time>
      </trkpt>
      <trkpt lat="41.55306" lon="2.2878">
        <ele>96.6</ele>
        <time>2021-11-13 08:45:54</time>
      </trkpt>
      <trkpt lat="41.55311" lon="2.28788">
        <ele>96.6</ele>
        <time>2021-11-13 08:45:55</time>
      </trkpt>
      <trkpt lat="41.55316" lon="2.28797">
        <ele>96.6</ele>
        <time>2021-11-13 08:45:56</time>
      </trkpt>
      <trkpt lat="41.5532" lon="2.28805">
        <ele>96.6</ele>
        <time>2021-11-13 08:45:57</time>
      </trkpt>
      <trkpt lat="41.55325" lon="2.28814">
        <ele>96.8</ele>
        <time>2021-11-13 08:45:58</time>
      </trkpt>
      <trkpt lat="41.5533" lon="2.28824">
        <ele>96.8</ele>
        <time>2021-11-13 08:45:59</time>
      </trkpt>
      <trkpt lat="41.55335" lon="2.28833">
        <ele>96.8</ele>
        <time>2021-11-13 08:46:00</time>
      </trkpt>
      <trkpt lat="41.5534" lon="2.28842">
        <ele>96.8</ele>
        <time>2021-11-13 08:46:01</time>
      </trkpt>
      <trkpt lat="41.55346" lon="2.28852">
        <ele>96.8</ele>
        <time>2021-11-13 08:46:02</time>
      </trkpt>
      <trkpt lat="41.55351" lon="2.28862">
        <ele>96.6</ele>
        <time>2021-11-13 08:46:03</time>
      </trkpt>
      <trkpt lat="41.55356" lon="2.28871">
        <ele>96.6</ele>
        <time>2021-11-13 08:46:04</time>
      </trkpt>
      <trkpt lat="41.55362" lon="2.28881">
        <ele>96.6</ele>
        <time>2021-11-13 08:46:05</time>
      </trkpt>
      <trkpt lat="41.55367" lon="2.2889">
        <ele>96.6</ele>
        <time>2021-11-13 08:46:06</time>
      </trkpt>
      <trkpt lat="41.55372" lon="2.289">
        <ele>96.4</ele>
        <time>2021-11-13 08:46:07</time>
      </trkpt>
      <trkpt lat="41.55377" lon="2.2891">
        <ele>96.2</ele>
        <time>2021-11-13 08:46:08</time>
      </trkpt>
      <trkpt lat="41.55382" lon="2.28919">
        <ele>96.2</ele>
        <time>2021-11-13 08:46:09</time>
      </trkpt>
      <trkpt lat="41.55388" lon="2.28929">
        <ele>95.8</ele>
        <time>2021-11-13 08:46:10</time>
      </trkpt>
      <trkpt lat="41.55393" lon="2.28938">
        <ele>95.8</ele>
        <time>2021-11-13 08:46:11</time>
      </trkpt>
      <trkpt lat="41.55398" lon="2.28948">
        <ele>95.4</ele>
        <time>2021-11-13 08:46:12</time>
      </trkpt>
      <trkpt lat="41.55403" lon="2.28957">
        <ele>95.2</ele>
        <time>2021-11-13 08:46:13</time>
      </trkpt>
      <trkpt lat="41.55408" lon="2.28967">
        <ele>95.2</ele>
        <time>2021-11-13 08:46:14</time>
      </trkpt>
      <trkpt lat="41.55412" lon="2.28977">
        <ele>95</ele>
        <time>2021-11-13 08:46:15</time>
      </trkpt>
      <trkpt lat="41.55416" lon="2.28987">
        <ele>95</ele>
        <time>2021-11-13 08:46:16</time>
      </trkpt>
      <trkpt lat="41.5542" lon="2.28997">
        <ele>94.8</ele>
        <time>2021-11-13 08:46:17</time>
      </trkpt>
      <trkpt lat="41.55425" lon="2.29005">
        <ele>94.8</ele>
        <time>2021-11-13 08:46:18</time>
      </trkpt>
      <trkpt lat="41.55432" lon="2.29009">
        <ele>94.8</ele>
        <time>2021-11-13 08:46:19</time>
      </trkpt>
      <trkpt lat="41.55439" lon="2.2901">
        <ele>94.8</ele>
        <time>2021-11-13 08:46:20</time>
      </trkpt>
      <trkpt lat="41.55447" lon="2.29011">
        <ele>94.8</ele>
        <time>2021-11-13 08:46:21</time>
      </trkpt>
      <trkpt lat="41.55455" lon="2.29011">
        <ele>94.8</ele>
        <time>2021-11-13 08:46:22</time>
      </trkpt>
      <trkpt lat="41.55462" lon="2.29015">
        <ele>94.8</ele>
        <time>2021-11-13 08:46:23</time>
      </trkpt>
      <trkpt lat="41.55469" lon="2.29021">
        <ele>95</ele>
        <time>2021-11-13 08:46:24</time>
      </trkpt>
      <trkpt lat="41.55475" lon="2.29029">
        <ele>95</ele>
        <time>2021-11-13 08:46:25</time>
      </trkpt>
      <trkpt lat="41.5548" lon="2.29037">
        <ele>95.2</ele>
        <time>2021-11-13 08:46:26</time>
      </trkpt>
      <trkpt lat="41.55485" lon="2.29046">
        <ele>95.2</ele>
        <time>2021-11-13 08:46:27</time>
      </trkpt>
      <trkpt lat="41.55491" lon="2.29054">
        <ele>95.4</ele>
        <time>2021-11-13 08:46:28</time>
      </trkpt>
      <trkpt lat="41.55498" lon="2.29061">
        <ele>95.4</ele>
        <time>2021-11-13 08:46:29</time>
      </trkpt>
      <trkpt lat="41.55504" lon="2.29067">
        <ele>95.4</ele>
        <time>2021-11-13 08:46:30</time>
      </trkpt>
      <trkpt lat="41.55511" lon="2.29074">
        <ele>95.4</ele>
        <time>2021-11-13 08:46:31</time>
      </trkpt>
      <trkpt lat="41.55518" lon="2.2908">
        <ele>95.6</ele>
        <time>2021-11-13 08:46:32</time>
      </trkpt>
      <trkpt lat="41.55525" lon="2.29086">
        <ele>95.6</ele>
        <time>2021-11-13 08:46:33</time>
      </trkpt>
      <trkpt lat="41.55532" lon="2.29092">
        <ele>95.6</ele>
        <time>2021-11-13 08:46:34</time>
      </trkpt>
      <trkpt lat="41.55538" lon="2.29098">
        <ele>95.6</ele>
        <time>2021-11-13 08:46:35</time>
      </trkpt>
      <trkpt lat="41.55544" lon="2.29104">
        <ele>95.6</ele>
        <time>2021-11-13 08:46:36</time>
      </trkpt>
      <trkpt lat="41.55551" lon="2.2911">
        <ele>95.6</ele>
        <time>2021-11-13 08:46:37</time>
      </trkpt>
      <trkpt lat="41.55557" lon="2.29116">
        <ele>95.6</ele>
        <time>2021-11-13 08:46:38</time>
      </trkpt>
      <trkpt lat="41.55564" lon="2.29123">
        <ele>95.6</ele>
        <time>2021-11-13 08:46:39</time>
      </trkpt>
      <trkpt lat="41.5557" lon="2.29129">
        <ele>95.6</ele>
        <time>2021-11-13 08:46:40</time>
      </trkpt>
      <trkpt lat="41.55576" lon="2.29135">
        <ele>95.6</ele>
        <time>2021-11-13 08:46:41</time>
      </trkpt>
      <trkpt lat="41.55582" lon="2.29142">
        <ele>95.8</ele>
        <time>2021-11-13 08:46:42</time>
      </trkpt>
      <trkpt lat="41.55588" lon="2.29148">
        <ele>95.8</ele>
        <time>2021-11-13 08:46:43</time>
      </trkpt>
      <trkpt lat="41.55594" lon="2.29155">
        <ele>95.8</ele>
        <time>2021-11-13 08:46:44</time>
      </trkpt>
      <trkpt lat="41.55601" lon="2.29162">
        <ele>95.8</ele>
        <time>2021-11-13 08:46:45</time>
      </trkpt>
      <trkpt lat="41.55607" lon="2.29168">
        <ele>96</ele>
        <time>2021-11-13 08:46:46</time>
      </trkpt>
      <trkpt lat="41.55612" lon="2.29175">
        <ele>96</ele>
        <time>2021-11-13 08:46:47</time>
      </trkpt>
      <trkpt lat="41.55618" lon="2.29182">
        <ele>96</ele>
        <time>2021-11-13 08:46:48</time>
      </trkpt>
      <trkpt lat="41.55623" lon="2.2919">
        <ele>96</ele>
        <time>2021-11-13 08:46:49</time>
      </trkpt>
      <trkpt lat="41.55628" lon="2.29197">
        <ele>96</ele>
        <time>2021-11-13 08:46:50</time>
      </trkpt>
      <trkpt lat="41.55633" lon="2.29205">
        <ele>96</ele>
        <time>2021-11-13 08:46:51</time>
      </trkpt>
      <trkpt lat="41.55638" lon="2.29213">
        <ele>96</ele>
        <time>2021-11-13 08:46:52</time>
      </trkpt>
      <trkpt lat="41.55643" lon="2.29221">
        <ele>96</ele>
        <time>2021-11-13 08:46:53</time>
      </trkpt>
      <trkpt lat="41.55648" lon="2.29229">
        <ele>96.2</ele>
        <time>2021-11-13 08:46:54</time>
      </trkpt>
      <trkpt lat="41.55654" lon="2.29236">
        <ele>96.2</ele>
        <time>2021-11-13 08:46:55</time>
      </trkpt>
      <trkpt lat="41.55659" lon="2.29244">
        <ele>96.2</ele>
        <time>2021-11-13 08:46:56</time>
      </trkpt>
      <trkpt lat="41.55664" lon="2.29252">
        <ele>96.4</ele>
        <time>2021-11-13 08:46:57</time>
      </trkpt>
      <trkpt lat="41.55669" lon="2.2926">
        <ele>96.4</ele>
        <time>2021-11-13 08:46:58</time>
      </trkpt>
      <trkpt lat="41.55674" lon="2.29268">
        <ele>96.6</ele>
        <time>2021-11-13 08:46:59</time>
      </trkpt>
      <trkpt lat="41.55679" lon="2.29276">
        <ele>96.6</ele>
        <time>2021-11-13 08:47:00</time>
      </trkpt>
      <trkpt lat="41.55684" lon="2.29284">
        <ele>96.8</ele>
        <time>2021-11-13 08:47:01</time>
      </trkpt>
      <trkpt lat="41.55689" lon="2.29292">
        <ele>96.8</ele>
        <time>2021-11-13 08:47:02</time>
      </trkpt>
      <trkpt lat="41.55694" lon="2.29299">
        <ele>96.8</ele>
        <time>2021-11-13 08:47:03</time>
      </trkpt>
      <trkpt lat="41.55699" lon="2.29307">
        <ele>96.8</ele>
        <time>2021-11-13 08:47:04</time>
      </trkpt>
      <trkpt lat="41.55703" lon="2.29316">
        <ele>97</ele>
        <time>2021-11-13 08:47:05</time>
      </trkpt>
      <trkpt lat="41.55708" lon="2.29325">
        <ele>97</ele>
        <time>2021-11-13 08:47:06</time>
      </trkpt>
      <trkpt lat="41.55711" lon="2.29334">
        <ele>97</ele>
        <time>2021-11-13 08:47:07</time>
      </trkpt>
      <trkpt lat="41.55714" lon="2.29344">
        <ele>97</ele>
        <time>2021-11-13 08:47:08</time>
      </trkpt>
      <trkpt lat="41.55716" lon="2.29354">
        <ele>97</ele>
        <time>2021-11-13 08:47:09</time>
      </trkpt>
      <trkpt lat="41.55718" lon="2.29364">
        <ele>97.2</ele>
        <time>2021-11-13 08:47:10</time>
      </trkpt>
      <trkpt lat="41.5572" lon="2.29374">
        <ele>97.2</ele>
        <time>2021-11-13 08:47:11</time>
      </trkpt>
      <trkpt lat="41.55721" lon="2.29384">
        <ele>97.2</ele>
        <time>2021-11-13 08:47:12</time>
      </trkpt>
      <trkpt lat="41.55723" lon="2.29394">
        <ele>97.4</ele>
        <time>2021-11-13 08:47:13</time>
      </trkpt>
      <trkpt lat="41.55725" lon="2.29405">
        <ele>97.4</ele>
        <time>2021-11-13 08:47:14</time>
      </trkpt>
      <trkpt lat="41.55726" lon="2.29415">
        <ele>97.6</ele>
        <time>2021-11-13 08:47:15</time>
      </trkpt>
      <trkpt lat="41.55728" lon="2.29425">
        <ele>97.6</ele>
        <time>2021-11-13 08:47:16</time>
      </trkpt>
      <trkpt lat="41.5573" lon="2.29435">
        <ele>97.6</ele>
        <time>2021-11-13 08:47:17</time>
      </trkpt>
      <trkpt lat="41.55731" lon="2.29445">
        <ele>97.8</ele>
        <time>2021-11-13 08:47:18</time>
      </trkpt>
      <trkpt lat="41.55733" lon="2.29455">
        <ele>97.8</ele>
        <time>2021-11-13 08:47:19</time>
      </trkpt>
      <trkpt lat="41.55735" lon="2.29466">
        <ele>98</ele>
        <time>2021-11-13 08:47:20</time>
      </trkpt>
      <trkpt lat="41.55736" lon="2.29476">
        <ele>98</ele>
        <time>2021-11-13 08:47:21</time>
      </trkpt>
      <trkpt lat="41.55737" lon="2.29486">
        <ele>98</ele>
        <time>2021-11-13 08:47:22</time>
      </trkpt>
      <trkpt lat="41.55738" lon="2.29497">
        <ele>98.2</ele>
        <time>2021-11-13 08:47:23</time>
      </trkpt>
      <trkpt lat="41.55739" lon="2.29507">
        <ele>98.2</ele>
        <time>2021-11-13 08:47:24</time>
      </trkpt>
      <trkpt lat="41.55739" lon="2.29518">
        <ele>98.4</ele>
        <time>2021-11-13 08:47:25</time>
      </trkpt>
      <trkpt lat="41.5574" lon="2.29528">
        <ele>98.4</ele>
        <time>2021-11-13 08:47:26</time>
      </trkpt>
      <trkpt lat="41.5574" lon="2.29539">
        <ele>98.4</ele>
        <time>2021-11-13 08:47:27</time>
      </trkpt>
      <trkpt lat="41.55741" lon="2.2955">
        <ele>98.4</ele>
        <time>2021-11-13 08:47:28</time>
      </trkpt>
      <trkpt lat="41.55741" lon="2.29561">
        <ele>98.6</ele>
        <time>2021-11-13 08:47:29</time>
      </trkpt>
      <trkpt lat="41.55741" lon="2.29572">
        <ele>98.6</ele>
        <time>2021-11-13 08:47:30</time>
      </trkpt>
      <trkpt lat="41.55742" lon="2.29583">
        <ele>98.8</ele>
        <time>2021-11-13 08:47:31</time>
      </trkpt>
      <trkpt lat="41.55743" lon="2.29593">
        <ele>99</ele>
        <time>2021-11-13 08:47:32</time>
      </trkpt>
      <trkpt lat="41.55743" lon="2.29604">
        <ele>99</ele>
        <time>2021-11-13 08:47:33</time>
      </trkpt>
      <trkpt lat="41.55744" lon="2.29615">
        <ele>99.2</ele>
        <time>2021-11-13 08:47:34</time>
      </trkpt>
      <trkpt lat="41.55745" lon="2.29625">
        <ele>99.2</ele>
        <time>2021-11-13 08:47:35</time>
      </trkpt>
      <trkpt lat="41.55745" lon="2.29636">
        <ele>99.4</ele>
        <time>2021-11-13 08:47:36</time>
      </trkpt>
      <trkpt lat="41.55746" lon="2.29646">
        <ele>99.4</ele>
        <time>2021-11-13 08:47:37</time>
      </trkpt>
      <trkpt lat="41.55747" lon="2.29657">
        <ele>99.6</ele>
        <time>2021-11-13 08:47:38</time>
      </trkpt>
      <trkpt lat="41.55748" lon="2.29667">
        <ele>99.8</ele>
        <time>2021-11-13 08:47:39</time>
      </trkpt>
      <trkpt lat="41.55749" lon="2.29677">
        <ele>99.8</ele>
        <time>2021-11-13 08:47:40</time>
      </trkpt>
      <trkpt lat="41.55751" lon="2.29688">
        <ele>100</ele>
        <time>2021-11-13 08:47:41</time>
      </trkpt>
      <trkpt lat="41.55754" lon="2.29698">
        <ele>100</ele>
        <time>2021-11-13 08:47:42</time>
      </trkpt>
      <trkpt lat="41.55757" lon="2.29708">
        <ele>100.2</ele>
        <time>2021-11-13 08:47:43</time>
      </trkpt>
      <trkpt lat="41.5576" lon="2.29718">
        <ele>100.2</ele>
        <time>2021-11-13 08:47:44</time>
      </trkpt>
      <trkpt lat="41.55763" lon="2.29727">
        <ele>100.2</ele>
        <time>2021-11-13 08:47:45</time>
      </trkpt>
      <trkpt lat="41.55767" lon="2.29736">
        <ele>100.4</ele>
        <time>2021-11-13 08:47:46</time>
      </trkpt>
      <trkpt lat="41.55771" lon="2.29746">
        <ele>100.4</ele>
        <time>2021-11-13 08:47:47</time>
      </trkpt>
      <trkpt lat="41.55775" lon="2.29755">
        <ele>100.4</ele>
        <time>2021-11-13 08:47:48</time>
      </trkpt>
      <trkpt lat="41.55779" lon="2.29764">
        <ele>100.4</ele>
        <time>2021-11-13 08:47:49</time>
      </trkpt>
      <trkpt lat="41.55784" lon="2.29772">
        <ele>100.6</ele>
        <time>2021-11-13 08:47:50</time>
      </trkpt>
      <trkpt lat="41.55789" lon="2.2978">
        <ele>100.6</ele>
        <time>2021-11-13 08:47:51</time>
      </trkpt>
      <trkpt lat="41.55794" lon="2.29788">
        <ele>100.8</ele>
        <time>2021-11-13 08:47:52</time>
      </trkpt>
      <trkpt lat="41.558" lon="2.29796">
        <ele>100.8</ele>
        <time>2021-11-13 08:47:53</time>
      </trkpt>
      <trkpt lat="41.55805" lon="2.29804">
        <ele>101</ele>
        <time>2021-11-13 08:47:54</time>
      </trkpt>
      <trkpt lat="41.5581" lon="2.29812">
        <ele>101</ele>
        <time>2021-11-13 08:47:55</time>
      </trkpt>
      <trkpt lat="41.55814" lon="2.2982">
        <ele>101.2</ele>
        <time>2021-11-13 08:47:56</time>
      </trkpt>
      <trkpt lat="41.55819" lon="2.29829">
        <ele>101.2</ele>
        <time>2021-11-13 08:47:57</time>
      </trkpt>
      <trkpt lat="41.55823" lon="2.29837">
        <ele>101.2</ele>
        <time>2021-11-13 08:47:58</time>
      </trkpt>
      <trkpt lat="41.55827" lon="2.29846">
        <ele>101.4</ele>
        <time>2021-11-13 08:47:59</time>
      </trkpt>
      <trkpt lat="41.5583" lon="2.29855">
        <ele>101.6</ele>
        <time>2021-11-13 08:48:00</time>
      </trkpt>
      <trkpt lat="41.55834" lon="2.29864">
        <ele>101.6</ele>
        <time>2021-11-13 08:48:01</time>
      </trkpt>
      <trkpt lat="41.55838" lon="2.29873">
        <ele>101.8</ele>
        <time>2021-11-13 08:48:02</time>
      </trkpt>
      <trkpt lat="41.55841" lon="2.29882">
        <ele>101.8</ele>
        <time>2021-11-13 08:48:03</time>
      </trkpt>
      <trkpt lat="41.55845" lon="2.2989">
        <ele>101.8</ele>
        <time>2021-11-13 08:48:04</time>
      </trkpt>
      <trkpt lat="41.55849" lon="2.29899">
        <ele>102</ele>
        <time>2021-11-13 08:48:05</time>
      </trkpt>
      <trkpt lat="41.55852" lon="2.29907">
        <ele>102.2</ele>
        <time>2021-11-13 08:48:06</time>
      </trkpt>
      <trkpt lat="41.55856" lon="2.29916">
        <ele>102.4</ele>
        <time>2021-11-13 08:48:07</time>
      </trkpt>
      <trkpt lat="41.5586" lon="2.29925">
        <ele>102.6</ele>
        <time>2021-11-13 08:48:08</time>
      </trkpt>
      <trkpt lat="41.55863" lon="2.29933">
        <ele>102.6</ele>
        <time>2021-11-13 08:48:09</time>
      </trkpt>
      <trkpt lat="41.55867" lon="2.29942">
        <ele>103</ele>
        <time>2021-11-13 08:48:10</time>
      </trkpt>
      <trkpt lat="41.55871" lon="2.29951">
        <ele>103.2</ele>
        <time>2021-11-13 08:48:11</time>
      </trkpt>
      <trkpt lat="41.55874" lon="2.29959">
        <ele>103.4</ele>
        <time>2021-11-13 08:48:12</time>
      </trkpt>
      <trkpt lat="41.55878" lon="2.29968">
        <ele>103.4</ele>
        <time>2021-11-13 08:48:13</time>
      </trkpt>
      <trkpt lat="41.55881" lon="2.29976">
        <ele>103.6</ele>
        <time>2021-11-13 08:48:14</time>
      </trkpt>
      <trkpt lat="41.55885" lon="2.29984">
        <ele>103.6</ele>
        <time>2021-11-13 08:48:15</time>
      </trkpt>
      <trkpt lat="41.55888" lon="2.29992">
        <ele>103.8</ele>
        <time>2021-11-13 08:48:16</time>
      </trkpt>
      <trkpt lat="41.55891" lon="2.30001">
        <ele>104</ele>
        <time>2021-11-13 08:48:17</time>
      </trkpt>
      <trkpt lat="41.55895" lon="2.30009">
        <ele>104</ele>
        <time>2021-11-13 08:48:18</time>
      </trkpt>
      <trkpt lat="41.55898" lon="2.30017">
        <ele>104.2</ele>
        <time>2021-11-13 08:48:19</time>
      </trkpt>
      <trkpt lat="41.55902" lon="2.30025">
        <ele>104.2</ele>
        <time>2021-11-13 08:48:20</time>
      </trkpt>
      <trkpt lat="41.55905" lon="2.30033">
        <ele>104.6</ele>
        <time>2021-11-13 08:48:21</time>
      </trkpt>
      <trkpt lat="41.55909" lon="2.30041">
        <ele>104.6</ele>
        <time>2021-11-13 08:48:22</time>
      </trkpt>
      <trkpt lat="41.55912" lon="2.3005">
        <ele>105</ele>
        <time>2021-11-13 08:48:23</time>
      </trkpt>
      <trkpt lat="41.55916" lon="2.30058">
        <ele>105.2</ele>
        <time>2021-11-13 08:48:24</time>
      </trkpt>
      <trkpt lat="41.55919" lon="2.30066">
        <ele>105.4</ele>
        <time>2021-11-13 08:48:25</time>
      </trkpt>
      <trkpt lat="41.55923" lon="2.30075">
        <ele>105.6</ele>
        <time>2021-11-13 08:48:26</time>
      </trkpt>
      <trkpt lat="41.55926" lon="2.30084">
        <ele>105.6</ele>
        <time>2021-11-13 08:48:27</time>
      </trkpt>
      <trkpt lat="41.5593" lon="2.30092">
        <ele>105.8</ele>
        <time>2021-11-13 08:48:28</time>
      </trkpt>
      <trkpt lat="41.55934" lon="2.30101">
        <ele>105.8</ele>
        <time>2021-11-13 08:48:29</time>
      </trkpt>
      <trkpt lat="41.55937" lon="2.3011">
        <ele>106</ele>
        <time>2021-11-13 08:48:30</time>
      </trkpt>
      <trkpt lat="41.55941" lon="2.30118">
        <ele>106.2</ele>
        <time>2021-11-13 08:48:31</time>
      </trkpt>
      <trkpt lat="41.55945" lon="2.30127">
        <ele>106.2</ele>
        <time>2021-11-13 08:48:32</time>
      </trkpt>
      <trkpt lat="41.55948" lon="2.30135">
        <ele>106.4</ele>
        <time>2021-11-13 08:48:33</time>
      </trkpt>
      <trkpt lat="41.55952" lon="2.30144">
        <ele>106.6</ele>
        <time>2021-11-13 08:48:34</time>
      </trkpt>
      <trkpt lat="41.55955" lon="2.30153">
        <ele>106.8</ele>
        <time>2021-11-13 08:48:35</time>
      </trkpt>
      <trkpt lat="41.55959" lon="2.30162">
        <ele>106.8</ele>
        <time>2021-11-13 08:48:36</time>
      </trkpt>
      <trkpt lat="41.55962" lon="2.30171">
        <ele>107.2</ele>
        <time>2021-11-13 08:48:37</time>
      </trkpt>
      <trkpt lat="41.55966" lon="2.3018">
        <ele>107.2</ele>
        <time>2021-11-13 08:48:38</time>
      </trkpt>
      <trkpt lat="41.55969" lon="2.30189">
        <ele>107.4</ele>
        <time>2021-11-13 08:48:39</time>
      </trkpt>
      <trkpt lat="41.55972" lon="2.30199">
        <ele>107.4</ele>
        <time>2021-11-13 08:48:40</time>
      </trkpt>
      <trkpt lat="41.55975" lon="2.30208">
        <ele>107.6</ele>
        <time>2021-11-13 08:48:41</time>
      </trkpt>
      <trkpt lat="41.55977" lon="2.30217">
        <ele>107.8</ele>
        <time>2021-11-13 08:48:42</time>
      </trkpt>
      <trkpt lat="41.5598" lon="2.30226">
        <ele>108</ele>
        <time>2021-11-13 08:48:43</time>
      </trkpt>
      <trkpt lat="41.55983" lon="2.30236">
        <ele>108.2</ele>
        <time>2021-11-13 08:48:44</time>
      </trkpt>
      <trkpt lat="41.55986" lon="2.30245">
        <ele>108.2</ele>
        <time>2021-11-13 08:48:45</time>
      </trkpt>
      <trkpt lat="41.55989" lon="2.30255">
        <ele>108.4</ele>
        <time>2021-11-13 08:48:46</time>
      </trkpt>
      <trkpt lat="41.55992" lon="2.30264">
        <ele>108.4</ele>
        <time>2021-11-13 08:48:47</time>
      </trkpt>
      <trkpt lat="41.55995" lon="2.30273">
        <ele>108.6</ele>
        <time>2021-11-13 08:48:48</time>
      </trkpt>
      <trkpt lat="41.55998" lon="2.30282">
        <ele>108.6</ele>
        <time>2021-11-13 08:48:49</time>
      </trkpt>
      <trkpt lat="41.56" lon="2.30291">
        <ele>108.6</ele>
        <time>2021-11-13 08:48:50</time>
      </trkpt>
      <trkpt lat="41.56003" lon="2.30301">
        <ele>108.8</ele>
        <time>2021-11-13 08:48:51</time>
      </trkpt>
      <trkpt lat="41.56006" lon="2.3031">
        <ele>108.8</ele>
        <time>2021-11-13 08:48:52</time>
      </trkpt>
      <trkpt lat="41.56009" lon="2.3032">
        <ele>109</ele>
        <time>2021-11-13 08:48:53</time>
      </trkpt>
      <trkpt lat="41.56011" lon="2.30329">
        <ele>109</ele>
        <time>2021-11-13 08:48:54</time>
      </trkpt>
      <trkpt lat="41.56014" lon="2.30338">
        <ele>109.2</ele>
        <time>2021-11-13 08:48:55</time>
      </trkpt>
      <trkpt lat="41.56016" lon="2.30346">
        <ele>109.2</ele>
        <time>2021-11-13 08:48:56</time>
      </trkpt>
      <trkpt lat="41.56019" lon="2.30355">
        <ele>109.4</ele>
        <time>2021-11-13 08:48:57</time>
      </trkpt>
      <trkpt lat="41.56022" lon="2.30364">
        <ele>109.4</ele>
        <time>2021-11-13 08:48:58</time>
      </trkpt>
      <trkpt lat="41.56025" lon="2.30373">
        <ele>109.6</ele>
        <time>2021-11-13 08:48:59</time>
      </trkpt>
      <trkpt lat="41.56027" lon="2.30382">
        <ele>109.8</ele>
        <time>2021-11-13 08:49:00</time>
      </trkpt>
      <trkpt lat="41.5603" lon="2.30391">
        <ele>109.8</ele>
        <time>2021-11-13 08:49:01</time>
      </trkpt>
      <trkpt lat="41.56033" lon="2.304">
        <ele>110</ele>
        <time>2021-11-13 08:49:02</time>
      </trkpt>
      <trkpt lat="41.56036" lon="2.3041">
        <ele>110</ele>
        <time>2021-11-13 08:49:03</time>
      </trkpt>
      <trkpt lat="41.56039" lon="2.30419">
        <ele>110</ele>
        <time>2021-11-13 08:49:04</time>
      </trkpt>
      <trkpt lat="41.56042" lon="2.30429">
        <ele>110</ele>
        <time>2021-11-13 08:49:05</time>
      </trkpt>
      <trkpt lat="41.56045" lon="2.30439">
        <ele>110</ele>
        <time>2021-11-13 08:49:06</time>
      </trkpt>
      <trkpt lat="41.56048" lon="2.30449">
        <ele>110.2</ele>
        <time>2021-11-13 08:49:07</time>
      </trkpt>
      <trkpt lat="41.56051" lon="2.30459">
        <ele>110.2</ele>
        <time>2021-11-13 08:49:08</time>
      </trkpt>
      <trkpt lat="41.56054" lon="2.30469">
        <ele>110.2</ele>
        <time>2021-11-13 08:49:09</time>
      </trkpt>
      <trkpt lat="41.56057" lon="2.30479">
        <ele>110.2</ele>
        <time>2021-11-13 08:49:10</time>
      </trkpt>
      <trkpt lat="41.5606" lon="2.30489">
        <ele>110.2</ele>
        <time>2021-11-13 08:49:11</time>
      </trkpt>
      <trkpt lat="41.56063" lon="2.30499">
        <ele>110.2</ele>
        <time>2021-11-13 08:49:12</time>
      </trkpt>
      <trkpt lat="41.56067" lon="2.30509">
        <ele>110.2</ele>
        <time>2021-11-13 08:49:13</time>
      </trkpt>
      <trkpt lat="41.5607" lon="2.3052">
        <ele>110.2</ele>
        <time>2021-11-13 08:49:14</time>
      </trkpt>
      <trkpt lat="41.56073" lon="2.30531">
        <ele>110.2</ele>
        <time>2021-11-13 08:49:15</time>
      </trkpt>
      <trkpt lat="41.56077" lon="2.30543">
        <ele>110.2</ele>
        <time>2021-11-13 08:49:16</time>
      </trkpt>
      <trkpt lat="41.5608" lon="2.30555">
        <ele>110.2</ele>
        <time>2021-11-13 08:49:17</time>
      </trkpt>
      <trkpt lat="41.56084" lon="2.30567">
        <ele>110.2</ele>
        <time>2021-11-13 08:49:18</time>
      </trkpt>
      <trkpt lat="41.56087" lon="2.30579">
        <ele>110.2</ele>
        <time>2021-11-13 08:49:19</time>
      </trkpt>
      <trkpt lat="41.5609" lon="2.30591">
        <ele>110</ele>
        <time>2021-11-13 08:49:20</time>
      </trkpt>
      <trkpt lat="41.56092" lon="2.30602">
        <ele>110</ele>
        <time>2021-11-13 08:49:21</time>
      </trkpt>
      <trkpt lat="41.56094" lon="2.30614">
        <ele>109.8</ele>
        <time>2021-11-13 08:49:22</time>
      </trkpt>
      <trkpt lat="41.56093" lon="2.30624">
        <ele>109.6</ele>
        <time>2021-11-13 08:49:23</time>
      </trkpt>
      <trkpt lat="41.56092" lon="2.30635">
        <ele>109.4</ele>
        <time>2021-11-13 08:49:24</time>
      </trkpt>
      <trkpt lat="41.56092" lon="2.30645">
        <ele>109.4</ele>
        <time>2021-11-13 08:49:25</time>
      </trkpt>
      <trkpt lat="41.56096" lon="2.30653">
        <ele>109.2</ele>
        <time>2021-11-13 08:49:26</time>
      </trkpt>
      <trkpt lat="41.56103" lon="2.30657">
        <ele>109.2</ele>
        <time>2021-11-13 08:49:27</time>
      </trkpt>
      <trkpt lat="41.56111" lon="2.30657">
        <ele>109.2</ele>
        <time>2021-11-13 08:49:28</time>
      </trkpt>
      <trkpt lat="41.56118" lon="2.30653">
        <ele>109.2</ele>
        <time>2021-11-13 08:49:29</time>
      </trkpt>
      <trkpt lat="41.56125" lon="2.30651">
        <ele>109.2</ele>
        <time>2021-11-13 08:49:30</time>
      </trkpt>
      <trkpt lat="41.56133" lon="2.30648">
        <ele>109.2</ele>
        <time>2021-11-13 08:49:31</time>
      </trkpt>
      <trkpt lat="41.56141" lon="2.30647">
        <ele>109</ele>
        <time>2021-11-13 08:49:32</time>
      </trkpt>
      <trkpt lat="41.56149" lon="2.30644">
        <ele>109</ele>
        <time>2021-11-13 08:49:33</time>
      </trkpt>
      <trkpt lat="41.56157" lon="2.3064">
        <ele>109</ele>
        <time>2021-11-13 08:49:34</time>
      </trkpt>
      <trkpt lat="41.56164" lon="2.30634">
        <ele>109</ele>
        <time>2021-11-13 08:49:35</time>
      </trkpt>
      <trkpt lat="41.5617" lon="2.30627">
        <ele>108.8</ele>
        <time>2021-11-13 08:49:36</time>
      </trkpt>
      <trkpt lat="41.56175" lon="2.30619">
        <ele>108.8</ele>
        <time>2021-11-13 08:49:37</time>
      </trkpt>
      <trkpt lat="41.56181" lon="2.30611">
        <ele>108.8</ele>
        <time>2021-11-13 08:49:38</time>
      </trkpt>
      <trkpt lat="41.56187" lon="2.30604">
        <ele>108.8</ele>
        <time>2021-11-13 08:49:39</time>
      </trkpt>
      <trkpt lat="41.56192" lon="2.30596">
        <ele>108.8</ele>
        <time>2021-11-13 08:49:40</time>
      </trkpt>
      <trkpt lat="41.56199" lon="2.3059">
        <ele>108.8</ele>
        <time>2021-11-13 08:49:41</time>
      </trkpt>
      <trkpt lat="41.56206" lon="2.30586">
        <ele>108.8</ele>
        <time>2021-11-13 08:49:42</time>
      </trkpt>
      <trkpt lat="41.56214" lon="2.30583">
        <ele>109</ele>
        <time>2021-11-13 08:49:43</time>
      </trkpt>
      <trkpt lat="41.56222" lon="2.30581">
        <ele>109</ele>
        <time>2021-11-13 08:49:44</time>
      </trkpt>
      <trkpt lat="41.5623" lon="2.30581">
        <ele>109</ele>
        <time>2021-11-13 08:49:45</time>
      </trkpt>
      <trkpt lat="41.56238" lon="2.30581">
        <ele>109.2</ele>
        <time>2021-11-13 08:49:46</time>
      </trkpt>
      <trkpt lat="41.56246" lon="2.30583">
        <ele>109.2</ele>
        <time>2021-11-13 08:49:47</time>
      </trkpt>
      <trkpt lat="41.56253" lon="2.30585">
        <ele>109.2</ele>
        <time>2021-11-13 08:49:48</time>
      </trkpt>
      <trkpt lat="41.56261" lon="2.30588">
        <ele>109.4</ele>
        <time>2021-11-13 08:49:49</time>
      </trkpt>
      <trkpt lat="41.56268" lon="2.3059">
        <ele>109.4</ele>
        <time>2021-11-13 08:49:50</time>
      </trkpt>
      <trkpt lat="41.56276" lon="2.30593">
        <ele>109.6</ele>
        <time>2021-11-13 08:49:51</time>
      </trkpt>
      <trkpt lat="41.56283" lon="2.30595">
        <ele>109.6</ele>
        <time>2021-11-13 08:49:52</time>
      </trkpt>
      <trkpt lat="41.56291" lon="2.30598">
        <ele>109.6</ele>
        <time>2021-11-13 08:49:53</time>
      </trkpt>
      <trkpt lat="41.56298" lon="2.30602">
        <ele>109.6</ele>
        <time>2021-11-13 08:49:54</time>
      </trkpt>
      <trkpt lat="41.56305" lon="2.30605">
        <ele>109.8</ele>
        <time>2021-11-13 08:49:55</time>
      </trkpt>
      <trkpt lat="41.56312" lon="2.30609">
        <ele>110</ele>
        <time>2021-11-13 08:49:56</time>
      </trkpt>
      <trkpt lat="41.56319" lon="2.30614">
        <ele>110</ele>
        <time>2021-11-13 08:49:57</time>
      </trkpt>
      <trkpt lat="41.56325" lon="2.30619">
        <ele>110</ele>
        <time>2021-11-13 08:49:58</time>
      </trkpt>
      <trkpt lat="41.56332" lon="2.30624">
        <ele>110</ele>
        <time>2021-11-13 08:49:59</time>
      </trkpt>
      <trkpt lat="41.56338" lon="2.3063">
        <ele>110.2</ele>
        <time>2021-11-13 08:50:00</time>
      </trkpt>
      <trkpt lat="41.56345" lon="2.30637">
        <ele>110.4</ele>
        <time>2021-11-13 08:50:01</time>
      </trkpt>
      <trkpt lat="41.56351" lon="2.30644">
        <ele>110.4</ele>
        <time>2021-11-13 08:50:02</time>
      </trkpt>
      <trkpt lat="41.56356" lon="2.30651">
        <ele>110.2</ele>
        <time>2021-11-13 08:50:03</time>
      </trkpt>
      <trkpt lat="41.56362" lon="2.30659">
        <ele>110.4</ele>
        <time>2021-11-13 08:50:04</time>
      </trkpt>
      <trkpt lat="41.56367" lon="2.30667">
        <ele>110.6</ele>
        <time>2021-11-13 08:50:05</time>
      </trkpt>
      <trkpt lat="41.56372" lon="2.30674">
        <ele>110.6</ele>
        <time>2021-11-13 08:50:06</time>
      </trkpt>
      <trkpt lat="41.56378" lon="2.30681">
        <ele>110.6</ele>
        <time>2021-11-13 08:50:07</time>
      </trkpt>
      <trkpt lat="41.56383" lon="2.30688">
        <ele>110.8</ele>
        <time>2021-11-13 08:50:08</time>
      </trkpt>
      <trkpt lat="41.56389" lon="2.30695">
        <ele>110.8</ele>
        <time>2021-11-13 08:50:09</time>
      </trkpt>
      <trkpt lat="41.56395" lon="2.30702">
        <ele>110.8</ele>
        <time>2021-11-13 08:50:10</time>
      </trkpt>
      <trkpt lat="41.56401" lon="2.30709">
        <ele>110.8</ele>
        <time>2021-11-13 08:50:11</time>
      </trkpt>
      <trkpt lat="41.56406" lon="2.30716">
        <ele>111</ele>
        <time>2021-11-13 08:50:12</time>
      </trkpt>
      <trkpt lat="41.56412" lon="2.30723">
        <ele>111</ele>
        <time>2021-11-13 08:50:13</time>
      </trkpt>
      <trkpt lat="41.56417" lon="2.30731">
        <ele>111</ele>
        <time>2021-11-13 08:50:14</time>
      </trkpt>
      <trkpt lat="41.56422" lon="2.30739">
        <ele>111</ele>
        <time>2021-11-13 08:50:15</time>
      </trkpt>
      <trkpt lat="41.56426" lon="2.30749">
        <ele>111</ele>
        <time>2021-11-13 08:50:16</time>
      </trkpt>
      <trkpt lat="41.56429" lon="2.30759">
        <ele>111</ele>
        <time>2021-11-13 08:50:17</time>
      </trkpt>
      <trkpt lat="41.5643" lon="2.3077">
        <ele>111</ele>
        <time>2021-11-13 08:50:18</time>
      </trkpt>
      <trkpt lat="41.56431" lon="2.30781">
        <ele>111</ele>
        <time>2021-11-13 08:50:19</time>
      </trkpt>
      <trkpt lat="41.5643" lon="2.30792">
        <ele>111</ele>
        <time>2021-11-13 08:50:20</time>
      </trkpt>
      <trkpt lat="41.56429" lon="2.30802">
        <ele>111</ele>
        <time>2021-11-13 08:50:21</time>
      </trkpt>
      <trkpt lat="41.56427" lon="2.30813">
        <ele>111</ele>
        <time>2021-11-13 08:50:22</time>
      </trkpt>
      <trkpt lat="41.56425" lon="2.30824">
        <ele>111</ele>
        <time>2021-11-13 08:50:23</time>
      </trkpt>
      <trkpt lat="41.56423" lon="2.30835">
        <ele>111</ele>
        <time>2021-11-13 08:50:24</time>
      </trkpt>
      <trkpt lat="41.56421" lon="2.30846">
        <ele>111</ele>
        <time>2021-11-13 08:50:25</time>
      </trkpt>
      <trkpt lat="41.56419" lon="2.30857">
        <ele>111</ele>
        <time>2021-11-13 08:50:26</time>
      </trkpt>
      <trkpt lat="41.56418" lon="2.30868">
        <ele>111</ele>
        <time>2021-11-13 08:50:27</time>
      </trkpt>
      <trkpt lat="41.56418" lon="2.30879">
        <ele>111</ele>
        <time>2021-11-13 08:50:28</time>
      </trkpt>
      <trkpt lat="41.56418" lon="2.3089">
        <ele>111</ele>
        <time>2021-11-13 08:50:29</time>
      </trkpt>
      <trkpt lat="41.56419" lon="2.30901">
        <ele>111</ele>
        <time>2021-11-13 08:50:30</time>
      </trkpt>
      <trkpt lat="41.56421" lon="2.30912">
        <ele>111</ele>
        <time>2021-11-13 08:50:31</time>
      </trkpt>
      <trkpt lat="41.56423" lon="2.30923">
        <ele>111</ele>
        <time>2021-11-13 08:50:32</time>
      </trkpt>
      <trkpt lat="41.56425" lon="2.30934">
        <ele>111</ele>
        <time>2021-11-13 08:50:33</time>
      </trkpt>
      <trkpt lat="41.56427" lon="2.30945">
        <ele>111</ele>
        <time>2021-11-13 08:50:34</time>
      </trkpt>
      <trkpt lat="41.56429" lon="2.30955">
        <ele>111</ele>
        <time>2021-11-13 08:50:35</time>
      </trkpt>
      <trkpt lat="41.56432" lon="2.30966">
        <ele>111</ele>
        <time>2021-11-13 08:50:36</time>
      </trkpt>
      <trkpt lat="41.56435" lon="2.30977">
        <ele>111</ele>
        <time>2021-11-13 08:50:37</time>
      </trkpt>
      <trkpt lat="41.56438" lon="2.30987">
        <ele>111</ele>
        <time>2021-11-13 08:50:38</time>
      </trkpt>
      <trkpt lat="41.56442" lon="2.30996">
        <ele>111.2</ele>
        <time>2021-11-13 08:50:39</time>
      </trkpt>
      <trkpt lat="41.56447" lon="2.31005">
        <ele>111.2</ele>
        <time>2021-11-13 08:50:40</time>
      </trkpt>
      <trkpt lat="41.56453" lon="2.31014">
        <ele>111.2</ele>
        <time>2021-11-13 08:50:41</time>
      </trkpt>
      <trkpt lat="41.56458" lon="2.31023">
        <ele>111.2</ele>
        <time>2021-11-13 08:50:42</time>
      </trkpt>
      <trkpt lat="41.56463" lon="2.31031">
        <ele>111.4</ele>
        <time>2021-11-13 08:50:43</time>
      </trkpt>
      <trkpt lat="41.56468" lon="2.3104">
        <ele>111.4</ele>
        <time>2021-11-13 08:50:44</time>
      </trkpt>
      <trkpt lat="41.56473" lon="2.31048">
        <ele>111.4</ele>
        <time>2021-11-13 08:50:45</time>
      </trkpt>
      <trkpt lat="41.56478" lon="2.31056">
        <ele>111.6</ele>
        <time>2021-11-13 08:50:46</time>
      </trkpt>
      <trkpt lat="41.56483" lon="2.31065">
        <ele>111.6</ele>
        <time>2021-11-13 08:50:47</time>
      </trkpt>
      <trkpt lat="41.56488" lon="2.31073">
        <ele>111.8</ele>
        <time>2021-11-13 08:50:48</time>
      </trkpt>
      <trkpt lat="41.56493" lon="2.31082">
        <ele>111.8</ele>
        <time>2021-11-13 08:50:49</time>
      </trkpt>
      <trkpt lat="41.56498" lon="2.31091">
        <ele>111.8</ele>
        <time>2021-11-13 08:50:50</time>
      </trkpt>
      <trkpt lat="41.56503" lon="2.31099">
        <ele>111.8</ele>
        <time>2021-11-13 08:50:51</time>
      </trkpt>
      <trkpt lat="41.56508" lon="2.31108">
        <ele>112</ele>
        <time>2021-11-13 08:50:52</time>
      </trkpt>
      <trkpt lat="41.56513" lon="2.31117">
        <ele>112</ele>
        <time>2021-11-13 08:50:53</time>
      </trkpt>
      <trkpt lat="41.56518" lon="2.31125">
        <ele>112.2</ele>
        <time>2021-11-13 08:50:54</time>
      </trkpt>
      <trkpt lat="41.56523" lon="2.31134">
        <ele>112.2</ele>
        <time>2021-11-13 08:50:55</time>
      </trkpt>
      <trkpt lat="41.56527" lon="2.31142">
        <ele>112.4</ele>
        <time>2021-11-13 08:50:56</time>
      </trkpt>
      <trkpt lat="41.56532" lon="2.3115">
        <ele>112.6</ele>
        <time>2021-11-13 08:50:57</time>
      </trkpt>
      <trkpt lat="41.56537" lon="2.31159">
        <ele>112.6</ele>
        <time>2021-11-13 08:50:58</time>
      </trkpt>
      <trkpt lat="41.56541" lon="2.31167">
        <ele>112.8</ele>
        <time>2021-11-13 08:50:59</time>
      </trkpt>
      <trkpt lat="41.56545" lon="2.31176">
        <ele>113</ele>
        <time>2021-11-13 08:51:00</time>
      </trkpt>
      <trkpt lat="41.56549" lon="2.31185">
        <ele>113.2</ele>
        <time>2021-11-13 08:51:01</time>
      </trkpt>
      <trkpt lat="41.56553" lon="2.31194">
        <ele>113.4</ele>
        <time>2021-11-13 08:51:02</time>
      </trkpt>
      <trkpt lat="41.56557" lon="2.31203">
        <ele>113.4</ele>
        <time>2021-11-13 08:51:03</time>
      </trkpt>
      <trkpt lat="41.5656" lon="2.31212">
        <ele>113.6</ele>
        <time>2021-11-13 08:51:04</time>
      </trkpt>
      <trkpt lat="41.56564" lon="2.31221">
        <ele>113.6</ele>
        <time>2021-11-13 08:51:05</time>
      </trkpt>
      <trkpt lat="41.56568" lon="2.3123">
        <ele>114</ele>
        <time>2021-11-13 08:51:06</time>
      </trkpt>
      <trkpt lat="41.56572" lon="2.31238">
        <ele>114</ele>
        <time>2021-11-13 08:51:07</time>
      </trkpt>
      <trkpt lat="41.56576" lon="2.31247">
        <ele>114.4</ele>
        <time>2021-11-13 08:51:08</time>
      </trkpt>
      <trkpt lat="41.56579" lon="2.31256">
        <ele>114.4</ele>
        <time>2021-11-13 08:51:09</time>
      </trkpt>
      <trkpt lat="41.56583" lon="2.31265">
        <ele>114.8</ele>
        <time>2021-11-13 08:51:10</time>
      </trkpt>
      <trkpt lat="41.56586" lon="2.31274">
        <ele>115</ele>
        <time>2021-11-13 08:51:11</time>
      </trkpt>
      <trkpt lat="41.56589" lon="2.31283">
        <ele>115</ele>
        <time>2021-11-13 08:51:12</time>
      </trkpt>
      <trkpt lat="41.56593" lon="2.31292">
        <ele>115.4</ele>
        <time>2021-11-13 08:51:13</time>
      </trkpt>
      <trkpt lat="41.56596" lon="2.31301">
        <ele>115.4</ele>
        <time>2021-11-13 08:51:14</time>
      </trkpt>
      <trkpt lat="41.566" lon="2.3131">
        <ele>115.6</ele>
        <time>2021-11-13 08:51:15</time>
      </trkpt>
      <trkpt lat="41.56604" lon="2.31318">
        <ele>115.8</ele>
        <time>2021-11-13 08:51:16</time>
      </trkpt>
      <trkpt lat="41.56608" lon="2.31326">
        <ele>116</ele>
        <time>2021-11-13 08:51:17</time>
      </trkpt>
      <trkpt lat="41.56614" lon="2.31333">
        <ele>115.8</ele>
        <time>2021-11-13 08:51:18</time>
      </trkpt>
      <trkpt lat="41.56619" lon="2.3134">
        <ele>116.2</ele>
        <time>2021-11-13 08:51:19</time>
      </trkpt>
      <trkpt lat="41.56626" lon="2.31346">
        <ele>116.2</ele>
        <time>2021-11-13 08:51:20</time>
      </trkpt>
      <trkpt lat="41.56632" lon="2.31351">
        <ele>116.4</ele>
        <time>2021-11-13 08:51:21</time>
      </trkpt>
      <trkpt lat="41.56639" lon="2.31357">
        <ele>116.6</ele>
        <time>2021-11-13 08:51:22</time>
      </trkpt>
      <trkpt lat="41.56645" lon="2.31362">
        <ele>116.6</ele>
        <time>2021-11-13 08:51:23</time>
      </trkpt>
      <trkpt lat="41.56652" lon="2.31367">
        <ele>116.8</ele>
        <time>2021-11-13 08:51:24</time>
      </trkpt>
      <trkpt lat="41.5666" lon="2.31373">
        <ele>116.8</ele>
        <time>2021-11-13 08:51:25</time>
      </trkpt>
      <trkpt lat="41.56667" lon="2.31378">
        <ele>117</ele>
        <time>2021-11-13 08:51:26</time>
      </trkpt>
      <trkpt lat="41.56674" lon="2.31383">
        <ele>117.2</ele>
        <time>2021-11-13 08:51:27</time>
      </trkpt>
      <trkpt lat="41.56681" lon="2.31389">
        <ele>117.2</ele>
        <time>2021-11-13 08:51:28</time>
      </trkpt>
      <trkpt lat="41.56688" lon="2.31394">
        <ele>117.2</ele>
        <time>2021-11-13 08:51:29</time>
      </trkpt>
      <trkpt lat="41.56696" lon="2.314">
        <ele>117.2</ele>
        <time>2021-11-13 08:51:30</time>
      </trkpt>
      <trkpt lat="41.56703" lon="2.31405">
        <ele>117.2</ele>
        <time>2021-11-13 08:51:31</time>
      </trkpt>
      <trkpt lat="41.5671" lon="2.3141">
        <ele>117.2</ele>
        <time>2021-11-13 08:51:32</time>
      </trkpt>
      <trkpt lat="41.56718" lon="2.31416">
        <ele>117.2</ele>
        <time>2021-11-13 08:51:33</time>
      </trkpt>
      <trkpt lat="41.56725" lon="2.31421">
        <ele>117.2</ele>
        <time>2021-11-13 08:51:34</time>
      </trkpt>
      <trkpt lat="41.56733" lon="2.31426">
        <ele>117.2</ele>
        <time>2021-11-13 08:51:35</time>
      </trkpt>
      <trkpt lat="41.5674" lon="2.31432">
        <ele>117.2</ele>
        <time>2021-11-13 08:51:36</time>
      </trkpt>
      <trkpt lat="41.56748" lon="2.31438">
        <ele>117.2</ele>
        <time>2021-11-13 08:51:37</time>
      </trkpt>
      <trkpt lat="41.56755" lon="2.31443">
        <ele>117.2</ele>
        <time>2021-11-13 08:51:38</time>
      </trkpt>
      <trkpt lat="41.56763" lon="2.31448">
        <ele>117.2</ele>
        <time>2021-11-13 08:51:39</time>
      </trkpt>
      <trkpt lat="41.5677" lon="2.31454">
        <ele>117.2</ele>
        <time>2021-11-13 08:51:40</time>
      </trkpt>
      <trkpt lat="41.56778" lon="2.31459">
        <ele>117.2</ele>
        <time>2021-11-13 08:51:41</time>
      </trkpt>
      <trkpt lat="41.56785" lon="2.31465">
        <ele>117.2</ele>
        <time>2021-11-13 08:51:42</time>
      </trkpt>
      <trkpt lat="41.56793" lon="2.3147">
        <ele>117.2</ele>
        <time>2021-11-13 08:51:43</time>
      </trkpt>
      <trkpt lat="41.568" lon="2.31476">
        <ele>117</ele>
        <time>2021-11-13 08:51:44</time>
      </trkpt>
      <trkpt lat="41.56808" lon="2.31481">
        <ele>117</ele>
        <time>2021-11-13 08:51:45</time>
      </trkpt>
      <trkpt lat="41.56815" lon="2.31487">
        <ele>117</ele>
        <time>2021-11-13 08:51:46</time>
      </trkpt>
      <trkpt lat="41.56823" lon="2.31492">
        <ele>117</ele>
        <time>2021-11-13 08:51:47</time>
      </trkpt>
      <trkpt lat="41.5683" lon="2.31498">
        <ele>117</ele>
        <time>2021-11-13 08:51:48</time>
      </trkpt>
      <trkpt lat="41.56838" lon="2.31503">
        <ele>117</ele>
        <time>2021-11-13 08:51:49</time>
      </trkpt>
      <trkpt lat="41.56845" lon="2.31509">
        <ele>117</ele>
        <time>2021-11-13 08:51:50</time>
      </trkpt>
      <trkpt lat="41.56853" lon="2.31514">
        <ele>117</ele>
        <time>2021-11-13 08:51:51</time>
      </trkpt>
      <trkpt lat="41.5686" lon="2.3152">
        <ele>117</ele>
        <time>2021-11-13 08:51:52</time>
      </trkpt>
      <trkpt lat="41.56868" lon="2.31525">
        <ele>117</ele>
        <time>2021-11-13 08:51:53</time>
      </trkpt>
      <trkpt lat="41.56876" lon="2.31531">
        <ele>117</ele>
        <time>2021-11-13 08:51:54</time>
      </trkpt>
      <trkpt lat="41.56883" lon="2.31536">
        <ele>117</ele>
        <time>2021-11-13 08:51:55</time>
      </trkpt>
      <trkpt lat="41.56891" lon="2.31542">
        <ele>117</ele>
        <time>2021-11-13 08:51:56</time>
      </trkpt>
      <trkpt lat="41.56899" lon="2.31547">
        <ele>117</ele>
        <time>2021-11-13 08:51:57</time>
      </trkpt>
      <trkpt lat="41.56907" lon="2.31553">
        <ele>117</ele>
        <time>2021-11-13 08:51:58</time>
      </trkpt>
      <trkpt lat="41.56914" lon="2.31559">
        <ele>117</ele>
        <time>2021-11-13 08:51:59</time>
      </trkpt>
      <trkpt lat="41.56922" lon="2.31564">
        <ele>116.8</ele>
        <time>2021-11-13 08:52:00</time>
      </trkpt>
      <trkpt lat="41.5693" lon="2.31569">
        <ele>116.8</ele>
        <time>2021-11-13 08:52:01</time>
      </trkpt>
      <trkpt lat="41.56938" lon="2.31574">
        <ele>116.8</ele>
        <time>2021-11-13 08:52:02</time>
      </trkpt>
      <trkpt lat="41.56946" lon="2.31579">
        <ele>116.8</ele>
        <time>2021-11-13 08:52:03</time>
      </trkpt>
      <trkpt lat="41.56955" lon="2.31583">
        <ele>116.8</ele>
        <time>2021-11-13 08:52:04</time>
      </trkpt>
      <trkpt lat="41.56963" lon="2.31587">
        <ele>116.8</ele>
        <time>2021-11-13 08:52:05</time>
      </trkpt>
      <trkpt lat="41.56972" lon="2.3159">
        <ele>116.8</ele>
        <time>2021-11-13 08:52:06</time>
      </trkpt>
      <trkpt lat="41.56981" lon="2.31594">
        <ele>116.6</ele>
        <time>2021-11-13 08:52:07</time>
      </trkpt>
      <trkpt lat="41.56989" lon="2.31598">
        <ele>116.6</ele>
        <time>2021-11-13 08:52:08</time>
      </trkpt>
      <trkpt lat="41.56998" lon="2.31602">
        <ele>116.6</ele>
        <time>2021-11-13 08:52:09</time>
      </trkpt>
      <trkpt lat="41.57006" lon="2.31606">
        <ele>116.6</ele>
        <time>2021-11-13 08:52:10</time>
      </trkpt>
      <trkpt lat="41.57015" lon="2.31609">
        <ele>116.6</ele>
        <time>2021-11-13 08:52:11</time>
      </trkpt>
      <trkpt lat="41.57023" lon="2.31613">
        <ele>116.6</ele>
        <time>2021-11-13 08:52:12</time>
      </trkpt>
      <trkpt lat="41.57032" lon="2.31617">
        <ele>116.6</ele>
        <time>2021-11-13 08:52:13</time>
      </trkpt>
      <trkpt lat="41.57041" lon="2.31621">
        <ele>116.4</ele>
        <time>2021-11-13 08:52:14</time>
      </trkpt>
      <trkpt lat="41.57049" lon="2.31625">
        <ele>116.4</ele>
        <time>2021-11-13 08:52:15</time>
      </trkpt>
      <trkpt lat="41.57058" lon="2.31628">
        <ele>116.4</ele>
        <time>2021-11-13 08:52:16</time>
      </trkpt>
      <trkpt lat="41.57067" lon="2.31632">
        <ele>116.4</ele>
        <time>2021-11-13 08:52:17</time>
      </trkpt>
      <trkpt lat="41.57076" lon="2.31636">
        <ele>116.2</ele>
        <time>2021-11-13 08:52:18</time>
      </trkpt>
      <trkpt lat="41.57084" lon="2.3164">
        <ele>116.2</ele>
        <time>2021-11-13 08:52:19</time>
      </trkpt>
      <trkpt lat="41.57093" lon="2.31644">
        <ele>116</ele>
        <time>2021-11-13 08:52:20</time>
      </trkpt>
      <trkpt lat="41.57102" lon="2.31648">
        <ele>116</ele>
        <time>2021-11-13 08:52:21</time>
      </trkpt>
      <trkpt lat="41.57111" lon="2.31652">
        <ele>115.8</ele>
        <time>2021-11-13 08:52:22</time>
      </trkpt>
      <trkpt lat="41.57119" lon="2.31656">
        <ele>115.6</ele>
        <time>2021-11-13 08:52:23</time>
      </trkpt>
      <trkpt lat="41.57128" lon="2.3166">
        <ele>115.6</ele>
        <time>2021-11-13 08:52:24</time>
      </trkpt>
      <trkpt lat="41.57137" lon="2.31664">
        <ele>115.6</ele>
        <time>2021-11-13 08:52:25</time>
      </trkpt>
      <trkpt lat="41.57146" lon="2.31668">
        <ele>115.6</ele>
        <time>2021-11-13 08:52:26</time>
      </trkpt>
      <trkpt lat="41.57154" lon="2.31672">
        <ele>115.4</ele>
        <time>2021-11-13 08:52:27</time>
      </trkpt>
      <trkpt lat="41.57163" lon="2.31677">
        <ele>115.4</ele>
        <time>2021-11-13 08:52:28</time>
      </trkpt>
      <trkpt lat="41.57171" lon="2.31682">
        <ele>115.4</ele>
        <time>2021-11-13 08:52:29</time>
      </trkpt>
      <trkpt lat="41.57179" lon="2.31687">
        <ele>115.4</ele>
        <time>2021-11-13 08:52:30</time>
      </trkpt>
      <trkpt lat="41.57187" lon="2.31692">
        <ele>115.4</ele>
        <time>2021-11-13 08:52:31</time>
      </trkpt>
      <trkpt lat="41.57195" lon="2.31697">
        <ele>115.2</ele>
        <time>2021-11-13 08:52:32</time>
      </trkpt>
      <trkpt lat="41.57204" lon="2.31703">
        <ele>115</ele>
        <time>2021-11-13 08:52:33</time>
      </trkpt>
      <trkpt lat="41.57212" lon="2.31708">
        <ele>114.8</ele>
        <time>2021-11-13 08:52:34</time>
      </trkpt>
      <trkpt lat="41.57221" lon="2.31714">
        <ele>114.8</ele>
        <time>2021-11-13 08:52:35</time>
      </trkpt>
      <trkpt lat="41.5723" lon="2.31719">
        <ele>114.6</ele>
        <time>2021-11-13 08:52:36</time>
      </trkpt>
      <trkpt lat="41.57238" lon="2.31725">
        <ele>114.4</ele>
        <time>2021-11-13 08:52:37</time>
      </trkpt>
      <trkpt lat="41.57247" lon="2.3173">
        <ele>114.4</ele>
        <time>2021-11-13 08:52:38</time>
      </trkpt>
      <trkpt lat="41.57255" lon="2.31735">
        <ele>114.4</ele>
        <time>2021-11-13 08:52:39</time>
      </trkpt>
      <trkpt lat="41.57264" lon="2.31741">
        <ele>114.4</ele>
        <time>2021-11-13 08:52:40</time>
      </trkpt>
      <trkpt lat="41.57272" lon="2.31746">
        <ele>114.4</ele>
        <time>2021-11-13 08:52:41</time>
      </trkpt>
      <trkpt lat="41.57281" lon="2.31752">
        <ele>114.2</ele>
        <time>2021-11-13 08:52:42</time>
      </trkpt>
      <trkpt lat="41.57289" lon="2.31757">
        <ele>114</ele>
        <time>2021-11-13 08:52:43</time>
      </trkpt>
      <trkpt lat="41.57298" lon="2.31762">
        <ele>114</ele>
        <time>2021-11-13 08:52:44</time>
      </trkpt>
      <trkpt lat="41.57306" lon="2.31767">
        <ele>113.8</ele>
        <time>2021-11-13 08:52:45</time>
      </trkpt>
      <trkpt lat="41.57314" lon="2.31772">
        <ele>113.8</ele>
        <time>2021-11-13 08:52:46</time>
      </trkpt>
      <trkpt lat="41.57322" lon="2.31778">
        <ele>113.8</ele>
        <time>2021-11-13 08:52:47</time>
      </trkpt>
      <trkpt lat="41.5733" lon="2.31783">
        <ele>113.8</ele>
        <time>2021-11-13 08:52:48</time>
      </trkpt>
      <trkpt lat="41.57338" lon="2.31788">
        <ele>113.8</ele>
        <time>2021-11-13 08:52:49</time>
      </trkpt>
      <trkpt lat="41.57347" lon="2.31793">
        <ele>114</ele>
        <time>2021-11-13 08:52:50</time>
      </trkpt>
      <trkpt lat="41.57355" lon="2.31798">
        <ele>114</ele>
        <time>2021-11-13 08:52:51</time>
      </trkpt>
      <trkpt lat="41.57363" lon="2.31803">
        <ele>114.2</ele>
        <time>2021-11-13 08:52:52</time>
      </trkpt>
      <trkpt lat="41.57371" lon="2.31809">
        <ele>114.2</ele>
        <time>2021-11-13 08:52:53</time>
      </trkpt>
      <trkpt lat="41.57378" lon="2.31814">
        <ele>114.2</ele>
        <time>2021-11-13 08:52:54</time>
      </trkpt>
      <trkpt lat="41.57387" lon="2.31818">
        <ele>114.4</ele>
        <time>2021-11-13 08:52:55</time>
      </trkpt>
      <trkpt lat="41.57395" lon="2.31823">
        <ele>114.4</ele>
        <time>2021-11-13 08:52:56</time>
      </trkpt>
      <trkpt lat="41.57402" lon="2.31828">
        <ele>114.4</ele>
        <time>2021-11-13 08:52:57</time>
      </trkpt>
      <trkpt lat="41.5741" lon="2.31833">
        <ele>114.6</ele>
        <time>2021-11-13 08:52:58</time>
      </trkpt>
      <trkpt lat="41.57418" lon="2.31838">
        <ele>114.8</ele>
        <time>2021-11-13 08:52:59</time>
      </trkpt>
      <trkpt lat="41.57426" lon="2.31843">
        <ele>114.8</ele>
        <time>2021-11-13 08:53:00</time>
      </trkpt>
      <trkpt lat="41.57434" lon="2.31848">
        <ele>115</ele>
        <time>2021-11-13 08:53:01</time>
      </trkpt>
      <trkpt lat="41.57441" lon="2.31853">
        <ele>115</ele>
        <time>2021-11-13 08:53:02</time>
      </trkpt>
      <trkpt lat="41.57449" lon="2.31858">
        <ele>115</ele>
        <time>2021-11-13 08:53:03</time>
      </trkpt>
      <trkpt lat="41.57457" lon="2.31863">
        <ele>115.2</ele>
        <time>2021-11-13 08:53:04</time>
      </trkpt>
      <trkpt lat="41.57464" lon="2.31868">
        <ele>115.2</ele>
        <time>2021-11-13 08:53:05</time>
      </trkpt>
      <trkpt lat="41.57472" lon="2.31873">
        <ele>115.4</ele>
        <time>2021-11-13 08:53:06</time>
      </trkpt>
      <trkpt lat="41.5748" lon="2.31878">
        <ele>115.4</ele>
        <time>2021-11-13 08:53:07</time>
      </trkpt>
      <trkpt lat="41.57488" lon="2.31882">
        <ele>115.4</ele>
        <time>2021-11-13 08:53:08</time>
      </trkpt>
      <trkpt lat="41.57496" lon="2.31887">
        <ele>115.6</ele>
        <time>2021-11-13 08:53:09</time>
      </trkpt>
      <trkpt lat="41.57504" lon="2.31891">
        <ele>115.8</ele>
        <time>2021-11-13 08:53:10</time>
      </trkpt>
      <trkpt lat="41.57512" lon="2.31895">
        <ele>115.8</ele>
        <time>2021-11-13 08:53:11</time>
      </trkpt>
      <trkpt lat="41.5752" lon="2.31898">
        <ele>116</ele>
        <time>2021-11-13 08:53:12</time>
      </trkpt>
      <trkpt lat="41.57528" lon="2.31902">
        <ele>116.2</ele>
        <time>2021-11-13 08:53:13</time>
      </trkpt>
      <trkpt lat="41.57536" lon="2.31906">
        <ele>116.2</ele>
        <time>2021-11-13 08:53:14</time>
      </trkpt>
      <trkpt lat="41.57544" lon="2.3191">
        <ele>116.4</ele>
        <time>2021-11-13 08:53:15</time>
      </trkpt>
      <trkpt lat="41.57552" lon="2.31914">
        <ele>116.4</ele>
        <time>2021-11-13 08:53:16</time>
      </trkpt>
      <trkpt lat="41.5756" lon="2.31918">
        <ele>116.6</ele>
        <time>2021-11-13 08:53:17</time>
      </trkpt>
      <trkpt lat="41.57568" lon="2.31921">
        <ele>116.6</ele>
        <time>2021-11-13 08:53:18</time>
      </trkpt>
      <trkpt lat="41.57576" lon="2.31925">
        <ele>116.8</ele>
        <time>2021-11-13 08:53:19</time>
      </trkpt>
      <trkpt lat="41.57584" lon="2.31929">
        <ele>116.8</ele>
        <time>2021-11-13 08:53:20</time>
      </trkpt>
      <trkpt lat="41.57591" lon="2.31932">
        <ele>117</ele>
        <time>2021-11-13 08:53:21</time>
      </trkpt>
      <trkpt lat="41.57599" lon="2.31936">
        <ele>117</ele>
        <time>2021-11-13 08:53:22</time>
      </trkpt>
      <trkpt lat="41.57607" lon="2.3194">
        <ele>117</ele>
        <time>2021-11-13 08:53:23</time>
      </trkpt>
      <trkpt lat="41.57615" lon="2.31943">
        <ele>117</ele>
        <time>2021-11-13 08:53:24</time>
      </trkpt>
      <trkpt lat="41.57622" lon="2.31947">
        <ele>117</ele>
        <time>2021-11-13 08:53:25</time>
      </trkpt>
      <trkpt lat="41.5763" lon="2.31951">
        <ele>117.2</ele>
        <time>2021-11-13 08:53:26</time>
      </trkpt>
      <trkpt lat="41.57638" lon="2.31955">
        <ele>117.2</ele>
        <time>2021-11-13 08:53:27</time>
      </trkpt>
      <trkpt lat="41.57645" lon="2.3196">
        <ele>117.2</ele>
        <time>2021-11-13 08:53:28</time>
      </trkpt>
      <trkpt lat="41.57652" lon="2.31965">
        <ele>117.2</ele>
        <time>2021-11-13 08:53:29</time>
      </trkpt>
      <trkpt lat="41.5766" lon="2.3197">
        <ele>117.4</ele>
        <time>2021-11-13 08:53:30</time>
      </trkpt>
      <trkpt lat="41.57667" lon="2.31975">
        <ele>117.4</ele>
        <time>2021-11-13 08:53:31</time>
      </trkpt>
      <trkpt lat="41.57674" lon="2.3198">
        <ele>117.6</ele>
        <time>2021-11-13 08:53:32</time>
      </trkpt>
      <trkpt lat="41.57682" lon="2.31985">
        <ele>117.6</ele>
        <time>2021-11-13 08:53:33</time>
      </trkpt>
      <trkpt lat="41.57689" lon="2.31991">
        <ele>117.6</ele>
        <time>2021-11-13 08:53:34</time>
      </trkpt>
      <trkpt lat="41.57696" lon="2.31996">
        <ele>117.8</ele>
        <time>2021-11-13 08:53:35</time>
      </trkpt>
      <trkpt lat="41.57703" lon="2.32001">
        <ele>117.8</ele>
        <time>2021-11-13 08:53:36</time>
      </trkpt>
      <trkpt lat="41.57711" lon="2.32007">
        <ele>118</ele>
        <time>2021-11-13 08:53:37</time>
      </trkpt>
      <trkpt lat="41.57718" lon="2.32012">
        <ele>118</ele>
        <time>2021-11-13 08:53:38</time>
      </trkpt>
      <trkpt lat="41.57725" lon="2.32018">
        <ele>118.2</ele>
        <time>2021-11-13 08:53:39</time>
      </trkpt>
      <trkpt lat="41.57732" lon="2.32023">
        <ele>118.2</ele>
        <time>2021-11-13 08:53:40</time>
      </trkpt>
      <trkpt lat="41.5774" lon="2.32029">
        <ele>118.2</ele>
        <time>2021-11-13 08:53:41</time>
      </trkpt>
      <trkpt lat="41.57747" lon="2.32034">
        <ele>118.4</ele>
        <time>2021-11-13 08:53:42</time>
      </trkpt>
      <trkpt lat="41.57754" lon="2.3204">
        <ele>118.4</ele>
        <time>2021-11-13 08:53:43</time>
      </trkpt>
      <trkpt lat="41.57762" lon="2.32045">
        <ele>118.4</ele>
        <time>2021-11-13 08:53:44</time>
      </trkpt>
      <trkpt lat="41.57769" lon="2.32051">
        <ele>118.4</ele>
        <time>2021-11-13 08:53:45</time>
      </trkpt>
      <trkpt lat="41.57777" lon="2.32056">
        <ele>118.4</ele>
        <time>2021-11-13 08:53:46</time>
      </trkpt>
      <trkpt lat="41.57784" lon="2.32062">
        <ele>118.4</ele>
        <time>2021-11-13 08:53:47</time>
      </trkpt>
      <trkpt lat="41.57791" lon="2.32067">
        <ele>118.6</ele>
        <time>2021-11-13 08:53:48</time>
      </trkpt>
      <trkpt lat="41.57799" lon="2.32073">
        <ele>118.6</ele>
        <time>2021-11-13 08:53:49</time>
      </trkpt>
      <trkpt lat="41.57806" lon="2.32078">
        <ele>118.6</ele>
        <time>2021-11-13 08:53:50</time>
      </trkpt>
      <trkpt lat="41.57813" lon="2.32084">
        <ele>118.6</ele>
        <time>2021-11-13 08:53:51</time>
      </trkpt>
      <trkpt lat="41.57821" lon="2.32089">
        <ele>118.6</ele>
        <time>2021-11-13 08:53:52</time>
      </trkpt>
      <trkpt lat="41.57828" lon="2.32095">
        <ele>118.8</ele>
        <time>2021-11-13 08:53:53</time>
      </trkpt>
      <trkpt lat="41.57836" lon="2.321">
        <ele>119</ele>
        <time>2021-11-13 08:53:54</time>
      </trkpt>
      <trkpt lat="41.57843" lon="2.32106">
        <ele>119.2</ele>
        <time>2021-11-13 08:53:55</time>
      </trkpt>
      <trkpt lat="41.5785" lon="2.32111">
        <ele>119.2</ele>
        <time>2021-11-13 08:53:56</time>
      </trkpt>
      <trkpt lat="41.57858" lon="2.32117">
        <ele>119.4</ele>
        <time>2021-11-13 08:53:57</time>
      </trkpt>
      <trkpt lat="41.57865" lon="2.32122">
        <ele>119.4</ele>
        <time>2021-11-13 08:53:58</time>
      </trkpt>
      <trkpt lat="41.57872" lon="2.32128">
        <ele>119.4</ele>
        <time>2021-11-13 08:53:59</time>
      </trkpt>
      <trkpt lat="41.5788" lon="2.32133">
        <ele>119.6</ele>
        <time>2021-11-13 08:54:00</time>
      </trkpt>
      <trkpt lat="41.57887" lon="2.32139">
        <ele>119.6</ele>
        <time>2021-11-13 08:54:01</time>
      </trkpt>
      <trkpt lat="41.57895" lon="2.32145">
        <ele>119.6</ele>
        <time>2021-11-13 08:54:02</time>
      </trkpt>
      <trkpt lat="41.57902" lon="2.32151">
        <ele>119.6</ele>
        <time>2021-11-13 08:54:03</time>
      </trkpt>
      <trkpt lat="41.5791" lon="2.32156">
        <ele>119.6</ele>
        <time>2021-11-13 08:54:04</time>
      </trkpt>
      <trkpt lat="41.57918" lon="2.32162">
        <ele>119.6</ele>
        <time>2021-11-13 08:54:05</time>
      </trkpt>
      <trkpt lat="41.57925" lon="2.32167">
        <ele>119.8</ele>
        <time>2021-11-13 08:54:06</time>
      </trkpt>
      <trkpt lat="41.57932" lon="2.32173">
        <ele>119.8</ele>
        <time>2021-11-13 08:54:07</time>
      </trkpt>
      <trkpt lat="41.57939" lon="2.32178">
        <ele>119.8</ele>
        <time>2021-11-13 08:54:08</time>
      </trkpt>
      <trkpt lat="41.57946" lon="2.32183">
        <ele>120</ele>
        <time>2021-11-13 08:54:09</time>
      </trkpt>
      <trkpt lat="41.57954" lon="2.32188">
        <ele>120</ele>
        <time>2021-11-13 08:54:10</time>
      </trkpt>
      <trkpt lat="41.57961" lon="2.32194">
        <ele>120</ele>
        <time>2021-11-13 08:54:11</time>
      </trkpt>
      <trkpt lat="41.57968" lon="2.32199">
        <ele>120.2</ele>
        <time>2021-11-13 08:54:12</time>
      </trkpt>
      <trkpt lat="41.57975" lon="2.32204">
        <ele>120.4</ele>
        <time>2021-11-13 08:54:13</time>
      </trkpt>
      <trkpt lat="41.57982" lon="2.32209">
        <ele>120.6</ele>
        <time>2021-11-13 08:54:14</time>
      </trkpt>
      <trkpt lat="41.57989" lon="2.32215">
        <ele>120.6</ele>
        <time>2021-11-13 08:54:15</time>
      </trkpt>
      <trkpt lat="41.57996" lon="2.3222">
        <ele>121</ele>
        <time>2021-11-13 08:54:16</time>
      </trkpt>
      <trkpt lat="41.58003" lon="2.32225">
        <ele>121</ele>
        <time>2021-11-13 08:54:17</time>
      </trkpt>
      <trkpt lat="41.5801" lon="2.32231">
        <ele>121.2</ele>
        <time>2021-11-13 08:54:18</time>
      </trkpt>
      <trkpt lat="41.58017" lon="2.32236">
        <ele>121.2</ele>
        <time>2021-11-13 08:54:19</time>
      </trkpt>
      <trkpt lat="41.58024" lon="2.32241">
        <ele>121.4</ele>
        <time>2021-11-13 08:54:20</time>
      </trkpt>
      <trkpt lat="41.58031" lon="2.32246">
        <ele>121.4</ele>
        <time>2021-11-13 08:54:21</time>
      </trkpt>
      <trkpt lat="41.58038" lon="2.32251">
        <ele>121.6</ele>
        <time>2021-11-13 08:54:22</time>
      </trkpt>
      <trkpt lat="41.58044" lon="2.32256">
        <ele>121.8</ele>
        <time>2021-11-13 08:54:23</time>
      </trkpt>
      <trkpt lat="41.58051" lon="2.32261">
        <ele>121.8</ele>
        <time>2021-11-13 08:54:24</time>
      </trkpt>
      <trkpt lat="41.58058" lon="2.32266">
        <ele>122</ele>
        <time>2021-11-13 08:54:25</time>
      </trkpt>
      <trkpt lat="41.58064" lon="2.32271">
        <ele>122</ele>
        <time>2021-11-13 08:54:26</time>
      </trkpt>
      <trkpt lat="41.58071" lon="2.32276">
        <ele>122.2</ele>
        <time>2021-11-13 08:54:27</time>
      </trkpt>
      <trkpt lat="41.58078" lon="2.32281">
        <ele>122.2</ele>
        <time>2021-11-13 08:54:28</time>
      </trkpt>
      <trkpt lat="41.58084" lon="2.32286">
        <ele>122.4</ele>
        <time>2021-11-13 08:54:29</time>
      </trkpt>
      <trkpt lat="41.5809" lon="2.32291">
        <ele>122.4</ele>
        <time>2021-11-13 08:54:30</time>
      </trkpt>
      <trkpt lat="41.58097" lon="2.32296">
        <ele>122.6</ele>
        <time>2021-11-13 08:54:31</time>
      </trkpt>
      <trkpt lat="41.58104" lon="2.323">
        <ele>122.8</ele>
        <time>2021-11-13 08:54:32</time>
      </trkpt>
      <trkpt lat="41.5811" lon="2.32305">
        <ele>122.8</ele>
        <time>2021-11-13 08:54:33</time>
      </trkpt>
      <trkpt lat="41.58117" lon="2.3231">
        <ele>123</ele>
        <time>2021-11-13 08:54:34</time>
      </trkpt>
      <trkpt lat="41.58123" lon="2.32315">
        <ele>123</ele>
        <time>2021-11-13 08:54:35</time>
      </trkpt>
      <trkpt lat="41.5813" lon="2.3232">
        <ele>123.2</ele>
        <time>2021-11-13 08:54:36</time>
      </trkpt>
      <trkpt lat="41.58136" lon="2.32324">
        <ele>123.2</ele>
        <time>2021-11-13 08:54:37</time>
      </trkpt>
      <trkpt lat="41.58142" lon="2.32329">
        <ele>123.2</ele>
        <time>2021-11-13 08:54:38</time>
      </trkpt>
      <trkpt lat="41.58149" lon="2.32334">
        <ele>123.2</ele>
        <time>2021-11-13 08:54:39</time>
      </trkpt>
      <trkpt lat="41.58155" lon="2.32339">
        <ele>123.2</ele>
        <time>2021-11-13 08:54:40</time>
      </trkpt>
      <trkpt lat="41.58162" lon="2.32343">
        <ele>123.2</ele>
        <time>2021-11-13 08:54:41</time>
      </trkpt>
      <trkpt lat="41.58167" lon="2.32348">
        <ele>123.2</ele>
        <time>2021-11-13 08:54:42</time>
      </trkpt>
      <trkpt lat="41.58174" lon="2.32352">
        <ele>123</ele>
        <time>2021-11-13 08:54:43</time>
      </trkpt>
      <trkpt lat="41.5818" lon="2.32357">
        <ele>123</ele>
        <time>2021-11-13 08:54:44</time>
      </trkpt>
      <trkpt lat="41.58186" lon="2.32361">
        <ele>123</ele>
        <time>2021-11-13 08:54:45</time>
      </trkpt>
      <trkpt lat="41.58191" lon="2.32365">
        <ele>123</ele>
        <time>2021-11-13 08:54:46</time>
      </trkpt>
      <trkpt lat="41.58197" lon="2.32369">
        <ele>123</ele>
        <time>2021-11-13 08:54:47</time>
      </trkpt>
      <trkpt lat="41.58202" lon="2.32373">
        <ele>123</ele>
        <time>2021-11-13 08:54:48</time>
      </trkpt>
      <trkpt lat="41.58207" lon="2.32377">
        <ele>123</ele>
        <time>2021-11-13 08:54:49</time>
      </trkpt>
      <trkpt lat="41.58212" lon="2.32381">
        <ele>123</ele>
        <time>2021-11-13 08:54:50</time>
      </trkpt>
      <trkpt lat="41.58217" lon="2.32385">
        <ele>123</ele>
        <time>2021-11-13 08:54:51</time>
      </trkpt>
      <trkpt lat="41.58221" lon="2.32388">
        <ele>123</ele>
        <time>2021-11-13 08:54:52</time>
      </trkpt>
      <trkpt lat="41.58225" lon="2.32391">
        <ele>123</ele>
        <time>2021-11-13 08:54:53</time>
      </trkpt>
      <trkpt lat="41.5823" lon="2.32394">
        <ele>123.2</ele>
        <time>2021-11-13 08:54:54</time>
      </trkpt>
      <trkpt lat="41.58233" lon="2.32397">
        <ele>123.2</ele>
        <time>2021-11-13 08:54:55</time>
      </trkpt>
      <trkpt lat="41.58237" lon="2.32399">
        <ele>123.2</ele>
        <time>2021-11-13 08:54:56</time>
      </trkpt>
      <trkpt lat="41.5824" lon="2.32402">
        <ele>123.4</ele>
        <time>2021-11-13 08:54:57</time>
      </trkpt>
      <trkpt lat="41.58243" lon="2.32404">
        <ele>123.4</ele>
        <time>2021-11-13 08:54:58</time>
      </trkpt>
      <trkpt lat="41.58245" lon="2.32405">
        <ele>123.6</ele>
        <time>2021-11-13 08:54:59</time>
      </trkpt>
      <trkpt lat="41.58249" lon="2.32407">
        <ele>123.6</ele>
        <time>2021-11-13 08:55:00</time>
      </trkpt>
      <trkpt lat="41.58252" lon="2.32409">
        <ele>123.6</ele>
        <time>2021-11-13 08:55:01</time>
      </trkpt>
      <trkpt lat="41.58255" lon="2.32412">
        <ele>123.8</ele>
        <time>2021-11-13 08:55:02</time>
      </trkpt>
      <trkpt lat="41.58259" lon="2.32415">
        <ele>123.8</ele>
        <time>2021-11-13 08:55:03</time>
      </trkpt>
      <trkpt lat="41.58263" lon="2.32419">
        <ele>123.8</ele>
        <time>2021-11-13 08:55:04</time>
      </trkpt>
      <trkpt lat="41.58267" lon="2.32422">
        <ele>124</ele>
        <time>2021-11-13 08:55:05</time>
      </trkpt>
      <trkpt lat="41.58271" lon="2.32425">
        <ele>124</ele>
        <time>2021-11-13 08:55:06</time>
      </trkpt>
      <trkpt lat="41.58276" lon="2.32428">
        <ele>124</ele>
        <time>2021-11-13 08:55:07</time>
      </trkpt>
      <trkpt lat="41.5828" lon="2.32431">
        <ele>124.2</ele>
        <time>2021-11-13 08:55:08</time>
      </trkpt>
      <trkpt lat="41.58285" lon="2.32434">
        <ele>124.2</ele>
        <time>2021-11-13 08:55:09</time>
      </trkpt>
      <trkpt lat="41.5829" lon="2.32438">
        <ele>124.2</ele>
        <time>2021-11-13 08:55:10</time>
      </trkpt>
      <trkpt lat="41.58295" lon="2.32442">
        <ele>124.2</ele>
        <time>2021-11-13 08:55:11</time>
      </trkpt>
      <trkpt lat="41.583" lon="2.32446">
        <ele>124.4</ele>
        <time>2021-11-13 08:55:12</time>
      </trkpt>
      <trkpt lat="41.58306" lon="2.3245">
        <ele>124.4</ele>
        <time>2021-11-13 08:55:13</time>
      </trkpt>
      <trkpt lat="41.58311" lon="2.32454">
        <ele>124.4</ele>
        <time>2021-11-13 08:55:14</time>
      </trkpt>
      <trkpt lat="41.58317" lon="2.32458">
        <ele>124.4</ele>
        <time>2021-11-13 08:55:15</time>
      </trkpt>
      <trkpt lat="41.58322" lon="2.32462">
        <ele>124.4</ele>
        <time>2021-11-13 08:55:16</time>
      </trkpt>
      <trkpt lat="41.58328" lon="2.32466">
        <ele>124.4</ele>
        <time>2021-11-13 08:55:17</time>
      </trkpt>
      <trkpt lat="41.58333" lon="2.32471">
        <ele>124.4</ele>
        <time>2021-11-13 08:55:18</time>
      </trkpt>
      <trkpt lat="41.58339" lon="2.32475">
        <ele>124.6</ele>
        <time>2021-11-13 08:55:19</time>
      </trkpt>
      <trkpt lat="41.58345" lon="2.32479">
        <ele>124.6</ele>
        <time>2021-11-13 08:55:20</time>
      </trkpt>
      <trkpt lat="41.58351" lon="2.32483">
        <ele>124.6</ele>
        <time>2021-11-13 08:55:21</time>
      </trkpt>
      <trkpt lat="41.58357" lon="2.32486">
        <ele>124.6</ele>
        <time>2021-11-13 08:55:22</time>
      </trkpt>
      <trkpt lat="41.58363" lon="2.32489">
        <ele>124.8</ele>
        <time>2021-11-13 08:55:23</time>
      </trkpt>
      <trkpt lat="41.5837" lon="2.32491">
        <ele>124.8</ele>
        <time>2021-11-13 08:55:24</time>
      </trkpt>
      <trkpt lat="41.58376" lon="2.32492">
        <ele>124.8</ele>
        <time>2021-11-13 08:55:25</time>
      </trkpt>
      <trkpt lat="41.58383" lon="2.32494">
        <ele>124.8</ele>
        <time>2021-11-13 08:55:26</time>
      </trkpt>
      <trkpt lat="41.5839" lon="2.32495">
        <ele>125</ele>
        <time>2021-11-13 08:55:27</time>
      </trkpt>
      <trkpt lat="41.58397" lon="2.32496">
        <ele>125</ele>
        <time>2021-11-13 08:55:28</time>
      </trkpt>
      <trkpt lat="41.58404" lon="2.32497">
        <ele>125</ele>
        <time>2021-11-13 08:55:29</time>
      </trkpt>
      <trkpt lat="41.58411" lon="2.32498">
        <ele>125</ele>
        <time>2021-11-13 08:55:30</time>
      </trkpt>
      <trkpt lat="41.58418" lon="2.325">
        <ele>125</ele>
        <time>2021-11-13 08:55:31</time>
      </trkpt>
      <trkpt lat="41.58424" lon="2.32501">
        <ele>125.2</ele>
        <time>2021-11-13 08:55:32</time>
      </trkpt>
      <trkpt lat="41.58431" lon="2.32502">
        <ele>125.2</ele>
        <time>2021-11-13 08:55:33</time>
      </trkpt>
      <trkpt lat="41.58438" lon="2.32504">
        <ele>125.2</ele>
        <time>2021-11-13 08:55:34</time>
      </trkpt>
      <trkpt lat="41.58445" lon="2.32505">
        <ele>125.2</ele>
        <time>2021-11-13 08:55:35</time>
      </trkpt>
      <trkpt lat="41.58452" lon="2.32506">
        <ele>125.2</ele>
        <time>2021-11-13 08:55:36</time>
      </trkpt>
      <trkpt lat="41.58459" lon="2.32508">
        <ele>125.2</ele>
        <time>2021-11-13 08:55:37</time>
      </trkpt>
      <trkpt lat="41.58466" lon="2.32509">
        <ele>125.2</ele>
        <time>2021-11-13 08:55:38</time>
      </trkpt>
      <trkpt lat="41.58473" lon="2.3251">
        <ele>125.2</ele>
        <time>2021-11-13 08:55:39</time>
      </trkpt>
      <trkpt lat="41.5848" lon="2.32511">
        <ele>125.2</ele>
        <time>2021-11-13 08:55:40</time>
      </trkpt>
      <trkpt lat="41.58487" lon="2.32512">
        <ele>125.2</ele>
        <time>2021-11-13 08:55:41</time>
      </trkpt>
      <trkpt lat="41.58493" lon="2.32514">
        <ele>125.2</ele>
        <time>2021-11-13 08:55:42</time>
      </trkpt>
      <trkpt lat="41.585" lon="2.32515">
        <ele>125.4</ele>
        <time>2021-11-13 08:55:43</time>
      </trkpt>
      <trkpt lat="41.58507" lon="2.32516">
        <ele>125.4</ele>
        <time>2021-11-13 08:55:44</time>
      </trkpt>
      <trkpt lat="41.58515" lon="2.32517">
        <ele>125.4</ele>
        <time>2021-11-13 08:55:45</time>
      </trkpt>
      <trkpt lat="41.58522" lon="2.32519">
        <ele>125.4</ele>
        <time>2021-11-13 08:55:46</time>
      </trkpt>
      <trkpt lat="41.58529" lon="2.3252">
        <ele>125.4</ele>
        <time>2021-11-13 08:55:47</time>
      </trkpt>
      <trkpt lat="41.58537" lon="2.32522">
        <ele>125.4</ele>
        <time>2021-11-13 08:55:48</time>
      </trkpt>
      <trkpt lat="41.58545" lon="2.32524">
        <ele>125.4</ele>
        <time>2021-11-13 08:55:49</time>
      </trkpt>
      <trkpt lat="41.58552" lon="2.32525">
        <ele>125.4</ele>
        <time>2021-11-13 08:55:50</time>
      </trkpt>
      <trkpt lat="41.5856" lon="2.32526">
        <ele>125.4</ele>
        <time>2021-11-13 08:55:51</time>
      </trkpt>
      <trkpt lat="41.58567" lon="2.32528">
        <ele>125.4</ele>
        <time>2021-11-13 08:55:52</time>
      </trkpt>
      <trkpt lat="41.58575" lon="2.3253">
        <ele>125.4</ele>
        <time>2021-11-13 08:55:53</time>
      </trkpt>
      <trkpt lat="41.58583" lon="2.32531">
        <ele>125.4</ele>
        <time>2021-11-13 08:55:54</time>
      </trkpt>
      <trkpt lat="41.5859" lon="2.32533">
        <ele>125.4</ele>
        <time>2021-11-13 08:55:55</time>
      </trkpt>
      <trkpt lat="41.58598" lon="2.32534">
        <ele>125.4</ele>
        <time>2021-11-13 08:55:56</time>
      </trkpt>
      <trkpt lat="41.58606" lon="2.32536">
        <ele>125.4</ele>
        <time>2021-11-13 08:55:57</time>
      </trkpt>
      <trkpt lat="41.58613" lon="2.32538">
        <ele>125.4</ele>
        <time>2021-11-13 08:55:58</time>
      </trkpt>
      <trkpt lat="41.58621" lon="2.3254">
        <ele>125.4</ele>
        <time>2021-11-13 08:55:59</time>
      </trkpt>
      <trkpt lat="41.58628" lon="2.32542">
        <ele>125.4</ele>
        <time>2021-11-13 08:56:00</time>
      </trkpt>
      <trkpt lat="41.58635" lon="2.32544">
        <ele>125.4</ele>
        <time>2021-11-13 08:56:01</time>
      </trkpt>
      <trkpt lat="41.58643" lon="2.32546">
        <ele>125.2</ele>
        <time>2021-11-13 08:56:02</time>
      </trkpt>
      <trkpt lat="41.5865" lon="2.32547">
        <ele>125.2</ele>
        <time>2021-11-13 08:56:03</time>
      </trkpt>
      <trkpt lat="41.58657" lon="2.32548">
        <ele>125</ele>
        <time>2021-11-13 08:56:04</time>
      </trkpt>
      <trkpt lat="41.58664" lon="2.32549">
        <ele>125</ele>
        <time>2021-11-13 08:56:05</time>
      </trkpt>
      <trkpt lat="41.58671" lon="2.32551">
        <ele>125</ele>
        <time>2021-11-13 08:56:06</time>
      </trkpt>
      <trkpt lat="41.58678" lon="2.32553">
        <ele>125</ele>
        <time>2021-11-13 08:56:07</time>
      </trkpt>
      <trkpt lat="41.58685" lon="2.32557">
        <ele>125</ele>
        <time>2021-11-13 08:56:08</time>
      </trkpt>
      <trkpt lat="41.58692" lon="2.3256">
        <ele>125</ele>
        <time>2021-11-13 08:56:09</time>
      </trkpt>
      <trkpt lat="41.58699" lon="2.32564">
        <ele>125</ele>
        <time>2021-11-13 08:56:10</time>
      </trkpt>
      <trkpt lat="41.58705" lon="2.32567">
        <ele>125</ele>
        <time>2021-11-13 08:56:11</time>
      </trkpt>
      <trkpt lat="41.58712" lon="2.3257">
        <ele>125</ele>
        <time>2021-11-13 08:56:12</time>
      </trkpt>
      <trkpt lat="41.58718" lon="2.32573">
        <ele>125.4</ele>
        <time>2021-11-13 08:56:13</time>
      </trkpt>
      <trkpt lat="41.58725" lon="2.32577">
        <ele>125.6</ele>
        <time>2021-11-13 08:56:14</time>
      </trkpt>
      <trkpt lat="41.58731" lon="2.3258">
        <ele>125.8</ele>
        <time>2021-11-13 08:56:15</time>
      </trkpt>
      <trkpt lat="41.58738" lon="2.32583">
        <ele>125.8</ele>
        <time>2021-11-13 08:56:16</time>
      </trkpt>
      <trkpt lat="41.58745" lon="2.32587">
        <ele>126</ele>
        <time>2021-11-13 08:56:17</time>
      </trkpt>
      <trkpt lat="41.58751" lon="2.3259">
        <ele>126.2</ele>
        <time>2021-11-13 08:56:18</time>
      </trkpt>
      <trkpt lat="41.58758" lon="2.32594">
        <ele>126.4</ele>
        <time>2021-11-13 08:56:19</time>
      </trkpt>
      <trkpt lat="41.58765" lon="2.32597">
        <ele>126.6</ele>
        <time>2021-11-13 08:56:20</time>
      </trkpt>
      <trkpt lat="41.58771" lon="2.326">
        <ele>126.8</ele>
        <time>2021-11-13 08:56:21</time>
      </trkpt>
      <trkpt lat="41.58778" lon="2.32603">
        <ele>127</ele>
        <time>2021-11-13 08:56:22</time>
      </trkpt>
      <trkpt lat="41.58784" lon="2.32607">
        <ele>127</ele>
        <time>2021-11-13 08:56:23</time>
      </trkpt>
      <trkpt lat="41.58789" lon="2.3261">
        <ele>127.2</ele>
        <time>2021-11-13 08:56:24</time>
      </trkpt>
      <trkpt lat="41.58795" lon="2.32613">
        <ele>127.4</ele>
        <time>2021-11-13 08:56:25</time>
      </trkpt>
      <trkpt lat="41.58801" lon="2.32616">
        <ele>127.8</ele>
        <time>2021-11-13 08:56:26</time>
      </trkpt>
      <trkpt lat="41.58807" lon="2.3262">
        <ele>128</ele>
        <time>2021-11-13 08:56:27</time>
      </trkpt>
      <trkpt lat="41.58812" lon="2.32624">
        <ele>128</ele>
        <time>2021-11-13 08:56:28</time>
      </trkpt>
      <trkpt lat="41.58815" lon="2.32631">
        <ele>128.2</ele>
        <time>2021-11-13 08:56:29</time>
      </trkpt>
      <trkpt lat="41.58815" lon="2.32638">
        <ele>128.4</ele>
        <time>2021-11-13 08:56:30</time>
      </trkpt>
      <trkpt lat="41.58812" lon="2.32645">
        <ele>128.6</ele>
        <time>2021-11-13 08:56:31</time>
      </trkpt>
      <trkpt lat="41.58808" lon="2.32652">
        <ele>128.8</ele>
        <time>2021-11-13 08:56:32</time>
      </trkpt>
      <trkpt lat="41.58803" lon="2.32658">
        <ele>129</ele>
        <time>2021-11-13 08:56:33</time>
      </trkpt>
      <trkpt lat="41.58799" lon="2.32664">
        <ele>129.6</ele>
        <time>2021-11-13 08:56:34</time>
      </trkpt>
      <trkpt lat="41.58795" lon="2.32671">
        <ele>129.8</ele>
        <time>2021-11-13 08:56:35</time>
      </trkpt>
      <trkpt lat="41.58792" lon="2.32677">
        <ele>130.4</ele>
        <time>2021-11-13 08:56:36</time>
      </trkpt>
      <trkpt lat="41.58789" lon="2.32684">
        <ele>130.6</ele>
        <time>2021-11-13 08:56:37</time>
      </trkpt>
      <trkpt lat="41.58786" lon="2.32691">
        <ele>131</ele>
        <time>2021-11-13 08:56:38</time>
      </trkpt>
      <trkpt lat="41.58784" lon="2.32698">
        <ele>131</ele>
        <time>2021-11-13 08:56:39</time>
      </trkpt>
      <trkpt lat="41.58782" lon="2.32706">
        <ele>131.6</ele>
        <time>2021-11-13 08:56:40</time>
      </trkpt>
      <trkpt lat="41.58782" lon="2.32714">
        <ele>131.8</ele>
        <time>2021-11-13 08:56:41</time>
      </trkpt>
      <trkpt lat="41.58782" lon="2.32722">
        <ele>132.4</ele>
        <time>2021-11-13 08:56:42</time>
      </trkpt>
      <trkpt lat="41.58784" lon="2.3273">
        <ele>132.8</ele>
        <time>2021-11-13 08:56:43</time>
      </trkpt>
      <trkpt lat="41.58787" lon="2.32736">
        <ele>133.2</ele>
        <time>2021-11-13 08:56:44</time>
      </trkpt>
      <trkpt lat="41.5879" lon="2.32742">
        <ele>133.6</ele>
        <time>2021-11-13 08:56:45</time>
      </trkpt>
      <trkpt lat="41.58793" lon="2.32748">
        <ele>133.8</ele>
        <time>2021-11-13 08:56:46</time>
      </trkpt>
      <trkpt lat="41.58796" lon="2.32754">
        <ele>134.2</ele>
        <time>2021-11-13 08:56:47</time>
      </trkpt>
      <trkpt lat="41.58799" lon="2.32762">
        <ele>134.4</ele>
        <time>2021-11-13 08:56:48</time>
      </trkpt>
      <trkpt lat="41.58802" lon="2.32771">
        <ele>135.2</ele>
        <time>2021-11-13 08:56:49</time>
      </trkpt>
      <trkpt lat="41.58805" lon="2.32778">
        <ele>135.6</ele>
        <time>2021-11-13 08:56:50</time>
      </trkpt>
      <trkpt lat="41.58807" lon="2.32786">
        <ele>136.2</ele>
        <time>2021-11-13 08:56:51</time>
      </trkpt>
      <trkpt lat="41.5881" lon="2.32793">
        <ele>136.6</ele>
        <time>2021-11-13 08:56:52</time>
      </trkpt>
      <trkpt lat="41.58813" lon="2.328">
        <ele>136.8</ele>
        <time>2021-11-13 08:56:53</time>
      </trkpt>
      <trkpt lat="41.58816" lon="2.32808">
        <ele>137.2</ele>
        <time>2021-11-13 08:56:54</time>
      </trkpt>
      <trkpt lat="41.58819" lon="2.32816">
        <ele>137.2</ele>
        <time>2021-11-13 08:56:55</time>
      </trkpt>
      <trkpt lat="41.58822" lon="2.32823">
        <ele>137.8</ele>
        <time>2021-11-13 08:56:56</time>
      </trkpt>
      <trkpt lat="41.58825" lon="2.32831">
        <ele>138</ele>
        <time>2021-11-13 08:56:57</time>
      </trkpt>
      <trkpt lat="41.58828" lon="2.32839">
        <ele>138.4</ele>
        <time>2021-11-13 08:56:58</time>
      </trkpt>
      <trkpt lat="41.58831" lon="2.32846">
        <ele>138.6</ele>
        <time>2021-11-13 08:56:59</time>
      </trkpt>
      <trkpt lat="41.58835" lon="2.32853">
        <ele>139</ele>
        <time>2021-11-13 08:57:00</time>
      </trkpt>
      <trkpt lat="41.58838" lon="2.32861">
        <ele>139.4</ele>
        <time>2021-11-13 08:57:01</time>
      </trkpt>
      <trkpt lat="41.58841" lon="2.32868">
        <ele>139.6</ele>
        <time>2021-11-13 08:57:02</time>
      </trkpt>
      <trkpt lat="41.58844" lon="2.32876">
        <ele>140.4</ele>
        <time>2021-11-13 08:57:03</time>
      </trkpt>
      <trkpt lat="41.58847" lon="2.32883">
        <ele>140.6</ele>
        <time>2021-11-13 08:57:04</time>
      </trkpt>
      <trkpt lat="41.5885" lon="2.3289">
        <ele>141.2</ele>
        <time>2021-11-13 08:57:05</time>
      </trkpt>
      <trkpt lat="41.58854" lon="2.32897">
        <ele>141.6</ele>
        <time>2021-11-13 08:57:06</time>
      </trkpt>
      <trkpt lat="41.58857" lon="2.32904">
        <ele>142</ele>
        <time>2021-11-13 08:57:07</time>
      </trkpt>
      <trkpt lat="41.5886" lon="2.32911">
        <ele>142.2</ele>
        <time>2021-11-13 08:57:08</time>
      </trkpt>
      <trkpt lat="41.58863" lon="2.32918">
        <ele>142.6</ele>
        <time>2021-11-13 08:57:09</time>
      </trkpt>
      <trkpt lat="41.58866" lon="2.32925">
        <ele>143</ele>
        <time>2021-11-13 08:57:10</time>
      </trkpt>
      <trkpt lat="41.58869" lon="2.32933">
        <ele>143.2</ele>
        <time>2021-11-13 08:57:11</time>
      </trkpt>
      <trkpt lat="41.58872" lon="2.3294">
        <ele>144</ele>
        <time>2021-11-13 08:57:12</time>
      </trkpt>
      <trkpt lat="41.58875" lon="2.32948">
        <ele>144.2</ele>
        <time>2021-11-13 08:57:13</time>
      </trkpt>
      <trkpt lat="41.58878" lon="2.32955">
        <ele>144.6</ele>
        <time>2021-11-13 08:57:14</time>
      </trkpt>
      <trkpt lat="41.58881" lon="2.32962">
        <ele>144.8</ele>
        <time>2021-11-13 08:57:15</time>
      </trkpt>
      <trkpt lat="41.58885" lon="2.3297">
        <ele>145.4</ele>
        <time>2021-11-13 08:57:16</time>
      </trkpt>
      <trkpt lat="41.58888" lon="2.32977">
        <ele>145.8</ele>
        <time>2021-11-13 08:57:17</time>
      </trkpt>
      <trkpt lat="41.58891" lon="2.32984">
        <ele>146.2</ele>
        <time>2021-11-13 08:57:18</time>
      </trkpt>
      <trkpt lat="41.58894" lon="2.32991">
        <ele>147</ele>
        <time>2021-11-13 08:57:19</time>
      </trkpt>
      <trkpt lat="41.58897" lon="2.32998">
        <ele>147.2</ele>
        <time>2021-11-13 08:57:20</time>
      </trkpt>
      <trkpt lat="41.58899" lon="2.33005">
        <ele>148</ele>
        <time>2021-11-13 08:57:21</time>
      </trkpt>
      <trkpt lat="41.58903" lon="2.33013">
        <ele>148.2</ele>
        <time>2021-11-13 08:57:22</time>
      </trkpt>
      <trkpt lat="41.58906" lon="2.33021">
        <ele>148.4</ele>
        <time>2021-11-13 08:57:23</time>
      </trkpt>
      <trkpt lat="41.58909" lon="2.33028">
        <ele>148.6</ele>
        <time>2021-11-13 08:57:24</time>
      </trkpt>
      <trkpt lat="41.58913" lon="2.33035">
        <ele>149.2</ele>
        <time>2021-11-13 08:57:25</time>
      </trkpt>
      <trkpt lat="41.58916" lon="2.33043">
        <ele>149.4</ele>
        <time>2021-11-13 08:57:26</time>
      </trkpt>
      <trkpt lat="41.5892" lon="2.33051">
        <ele>149.8</ele>
        <time>2021-11-13 08:57:27</time>
      </trkpt>
      <trkpt lat="41.58924" lon="2.33059">
        <ele>150.2</ele>
        <time>2021-11-13 08:57:28</time>
      </trkpt>
      <trkpt lat="41.58928" lon="2.33068">
        <ele>150.2</ele>
        <time>2021-11-13 08:57:29</time>
      </trkpt>
      <trkpt lat="41.58932" lon="2.33077">
        <ele>150.4</ele>
        <time>2021-11-13 08:57:30</time>
      </trkpt>
      <trkpt lat="41.58937" lon="2.33087">
        <ele>150.4</ele>
        <time>2021-11-13 08:57:31</time>
      </trkpt>
      <trkpt lat="41.58941" lon="2.33097">
        <ele>150.4</ele>
        <time>2021-11-13 08:57:32</time>
      </trkpt>
      <trkpt lat="41.58946" lon="2.33107">
        <ele>150.4</ele>
        <time>2021-11-13 08:57:33</time>
      </trkpt>
      <trkpt lat="41.58951" lon="2.33117">
        <ele>150.4</ele>
        <time>2021-11-13 08:57:34</time>
      </trkpt>
      <trkpt lat="41.58956" lon="2.33128">
        <ele>150.2</ele>
        <time>2021-11-13 08:57:35</time>
      </trkpt>
      <trkpt lat="41.58961" lon="2.33138">
        <ele>150</ele>
        <time>2021-11-13 08:57:36</time>
      </trkpt>
      <trkpt lat="41.58966" lon="2.33149">
        <ele>150</ele>
        <time>2021-11-13 08:57:37</time>
      </trkpt>
      <trkpt lat="41.58972" lon="2.3316">
        <ele>149.8</ele>
        <time>2021-11-13 08:57:38</time>
      </trkpt>
      <trkpt lat="41.58978" lon="2.33171">
        <ele>149.4</ele>
        <time>2021-11-13 08:57:39</time>
      </trkpt>
      <trkpt lat="41.58985" lon="2.33182">
        <ele>149.4</ele>
        <time>2021-11-13 08:57:40</time>
      </trkpt>
      <trkpt lat="41.58991" lon="2.33193">
        <ele>148.8</ele>
        <time>2021-11-13 08:57:41</time>
      </trkpt>
      <trkpt lat="41.58998" lon="2.33204">
        <ele>148.4</ele>
        <time>2021-11-13 08:57:42</time>
      </trkpt>
      <trkpt lat="41.59005" lon="2.33215">
        <ele>148</ele>
        <time>2021-11-13 08:57:43</time>
      </trkpt>
      <trkpt lat="41.59012" lon="2.33226">
        <ele>147.4</ele>
        <time>2021-11-13 08:57:44</time>
      </trkpt>
      <trkpt lat="41.59019" lon="2.33237">
        <ele>147.2</ele>
        <time>2021-11-13 08:57:45</time>
      </trkpt>
      <trkpt lat="41.59025" lon="2.33248">
        <ele>146.8</ele>
        <time>2021-11-13 08:57:46</time>
      </trkpt>
      <trkpt lat="41.59032" lon="2.33259">
        <ele>146.2</ele>
        <time>2021-11-13 08:57:47</time>
      </trkpt>
      <trkpt lat="41.59039" lon="2.3327">
        <ele>145.6</ele>
        <time>2021-11-13 08:57:48</time>
      </trkpt>
      <trkpt lat="41.59046" lon="2.3328">
        <ele>145.2</ele>
        <time>2021-11-13 08:57:49</time>
      </trkpt>
      <trkpt lat="41.59054" lon="2.33291">
        <ele>144.8</ele>
        <time>2021-11-13 08:57:50</time>
      </trkpt>
      <trkpt lat="41.59061" lon="2.33302">
        <ele>144.4</ele>
        <time>2021-11-13 08:57:51</time>
      </trkpt>
      <trkpt lat="41.59068" lon="2.33313">
        <ele>143.6</ele>
        <time>2021-11-13 08:57:52</time>
      </trkpt>
      <trkpt lat="41.59075" lon="2.33324">
        <ele>142.8</ele>
        <time>2021-11-13 08:57:53</time>
      </trkpt>
      <trkpt lat="41.59081" lon="2.33335">
        <ele>142.6</ele>
        <time>2021-11-13 08:57:54</time>
      </trkpt>
      <trkpt lat="41.59087" lon="2.33346">
        <ele>142</ele>
        <time>2021-11-13 08:57:55</time>
      </trkpt>
      <trkpt lat="41.59093" lon="2.33357">
        <ele>141.6</ele>
        <time>2021-11-13 08:57:56</time>
      </trkpt>
      <trkpt lat="41.59098" lon="2.33369">
        <ele>141</ele>
        <time>2021-11-13 08:57:57</time>
      </trkpt>
      <trkpt lat="41.59102" lon="2.33381">
        <ele>140.8</ele>
        <time>2021-11-13 08:57:58</time>
      </trkpt>
      <trkpt lat="41.59105" lon="2.33394">
        <ele>140.4</ele>
        <time>2021-11-13 08:57:59</time>
      </trkpt>
      <trkpt lat="41.59107" lon="2.33406">
        <ele>140.2</ele>
        <time>2021-11-13 08:58:00</time>
      </trkpt>
      <trkpt lat="41.5911" lon="2.33419">
        <ele>139.8</ele>
        <time>2021-11-13 08:58:01</time>
      </trkpt>
      <trkpt lat="41.59111" lon="2.33431">
        <ele>139.4</ele>
        <time>2021-11-13 08:58:02</time>
      </trkpt>
      <trkpt lat="41.59113" lon="2.33444">
        <ele>139.4</ele>
        <time>2021-11-13 08:58:03</time>
      </trkpt>
      <trkpt lat="41.59114" lon="2.33456">
        <ele>139</ele>
        <time>2021-11-13 08:58:04</time>
      </trkpt>
      <trkpt lat="41.59116" lon="2.33468">
        <ele>139</ele>
        <time>2021-11-13 08:58:05</time>
      </trkpt>
      <trkpt lat="41.59117" lon="2.3348">
        <ele>138.8</ele>
        <time>2021-11-13 08:58:06</time>
      </trkpt>
      <trkpt lat="41.59118" lon="2.33493">
        <ele>138.8</ele>
        <time>2021-11-13 08:58:07</time>
      </trkpt>
      <trkpt lat="41.59119" lon="2.33505">
        <ele>138.6</ele>
        <time>2021-11-13 08:58:08</time>
      </trkpt>
      <trkpt lat="41.59121" lon="2.33517">
        <ele>138.4</ele>
        <time>2021-11-13 08:58:09</time>
      </trkpt>
      <trkpt lat="41.59122" lon="2.33529">
        <ele>138.4</ele>
        <time>2021-11-13 08:58:10</time>
      </trkpt>
      <trkpt lat="41.59123" lon="2.33541">
        <ele>138.2</ele>
        <time>2021-11-13 08:58:11</time>
      </trkpt>
      <trkpt lat="41.59125" lon="2.33553">
        <ele>138</ele>
        <time>2021-11-13 08:58:12</time>
      </trkpt>
      <trkpt lat="41.59126" lon="2.33565">
        <ele>137.8</ele>
        <time>2021-11-13 08:58:13</time>
      </trkpt>
      <trkpt lat="41.59128" lon="2.33578">
        <ele>137.8</ele>
        <time>2021-11-13 08:58:14</time>
      </trkpt>
      <trkpt lat="41.59129" lon="2.3359">
        <ele>137.6</ele>
        <time>2021-11-13 08:58:15</time>
      </trkpt>
      <trkpt lat="41.5913" lon="2.33602">
        <ele>137.6</ele>
        <time>2021-11-13 08:58:16</time>
      </trkpt>
      <trkpt lat="41.59131" lon="2.33614">
        <ele>137.6</ele>
        <time>2021-11-13 08:58:17</time>
      </trkpt>
      <trkpt lat="41.59133" lon="2.33625">
        <ele>137.4</ele>
        <time>2021-11-13 08:58:18</time>
      </trkpt>
      <trkpt lat="41.59134" lon="2.33637">
        <ele>137.4</ele>
        <time>2021-11-13 08:58:19</time>
      </trkpt>
      <trkpt lat="41.59136" lon="2.33649">
        <ele>137.4</ele>
        <time>2021-11-13 08:58:20</time>
      </trkpt>
      <trkpt lat="41.59137" lon="2.3366">
        <ele>137.4</ele>
        <time>2021-11-13 08:58:21</time>
      </trkpt>
      <trkpt lat="41.59139" lon="2.33671">
        <ele>137.2</ele>
        <time>2021-11-13 08:58:22</time>
      </trkpt>
      <trkpt lat="41.5914" lon="2.33682">
        <ele>137.2</ele>
        <time>2021-11-13 08:58:23</time>
      </trkpt>
      <trkpt lat="41.59141" lon="2.33693">
        <ele>137.2</ele>
        <time>2021-11-13 08:58:24</time>
      </trkpt>
      <trkpt lat="41.59142" lon="2.33704">
        <ele>137.2</ele>
        <time>2021-11-13 08:58:25</time>
      </trkpt>
      <trkpt lat="41.59144" lon="2.33714">
        <ele>137.2</ele>
        <time>2021-11-13 08:58:26</time>
      </trkpt>
      <trkpt lat="41.59145" lon="2.33724">
        <ele>137.4</ele>
        <time>2021-11-13 08:58:27</time>
      </trkpt>
      <trkpt lat="41.59146" lon="2.33733">
        <ele>137.4</ele>
        <time>2021-11-13 08:58:28</time>
      </trkpt>
      <trkpt lat="41.59147" lon="2.33742">
        <ele>137.4</ele>
        <time>2021-11-13 08:58:29</time>
      </trkpt>
      <trkpt lat="41.59148" lon="2.3375">
        <ele>137.6</ele>
        <time>2021-11-13 08:58:30</time>
      </trkpt>
      <trkpt lat="41.59149" lon="2.33757">
        <ele>137.8</ele>
        <time>2021-11-13 08:58:31</time>
      </trkpt>
      <trkpt lat="41.5915" lon="2.33765">
        <ele>137.8</ele>
        <time>2021-11-13 08:58:32</time>
      </trkpt>
      <trkpt lat="41.59151" lon="2.33772">
        <ele>138.2</ele>
        <time>2021-11-13 08:58:33</time>
      </trkpt>
      <trkpt lat="41.59152" lon="2.33779">
        <ele>138.2</ele>
        <time>2021-11-13 08:58:34</time>
      </trkpt>
      <trkpt lat="41.59153" lon="2.33787">
        <ele>138.6</ele>
        <time>2021-11-13 08:58:35</time>
      </trkpt>
      <trkpt lat="41.59154" lon="2.33794">
        <ele>139</ele>
        <time>2021-11-13 08:58:36</time>
      </trkpt>
      <trkpt lat="41.59155" lon="2.33801">
        <ele>139.2</ele>
        <time>2021-11-13 08:58:37</time>
      </trkpt>
      <trkpt lat="41.59156" lon="2.33808">
        <ele>139.8</ele>
        <time>2021-11-13 08:58:38</time>
      </trkpt>
      <trkpt lat="41.59156" lon="2.33815">
        <ele>140</ele>
        <time>2021-11-13 08:58:39</time>
      </trkpt>
      <trkpt lat="41.59157" lon="2.33823">
        <ele>140.2</ele>
        <time>2021-11-13 08:58:40</time>
      </trkpt>
      <trkpt lat="41.59158" lon="2.3383">
        <ele>140.4</ele>
        <time>2021-11-13 08:58:41</time>
      </trkpt>
      <trkpt lat="41.59159" lon="2.33838">
        <ele>140.8</ele>
        <time>2021-11-13 08:58:42</time>
      </trkpt>
      <trkpt lat="41.59161" lon="2.33844">
        <ele>140.8</ele>
        <time>2021-11-13 08:58:43</time>
      </trkpt>
      <trkpt lat="41.59162" lon="2.3385">
        <ele>141</ele>
        <time>2021-11-13 08:58:44</time>
      </trkpt>
      <trkpt lat="41.59162" lon="2.33856">
        <ele>141.4</ele>
        <time>2021-11-13 08:58:45</time>
      </trkpt>
      <trkpt lat="41.59163" lon="2.33862">
        <ele>141.4</ele>
        <time>2021-11-13 08:58:46</time>
      </trkpt>
      <trkpt lat="41.59164" lon="2.33868">
        <ele>141.8</ele>
        <time>2021-11-13 08:58:47</time>
      </trkpt>
      <trkpt lat="41.59164" lon="2.33874">
        <ele>141.8</ele>
        <time>2021-11-13 08:58:48</time>
      </trkpt>
      <trkpt lat="41.59165" lon="2.33879">
        <ele>142.2</ele>
        <time>2021-11-13 08:58:49</time>
      </trkpt>
      <trkpt lat="41.59165" lon="2.33884">
        <ele>142.4</ele>
        <time>2021-11-13 08:58:50</time>
      </trkpt>
      <trkpt lat="41.59166" lon="2.3389">
        <ele>142.6</ele>
        <time>2021-11-13 08:58:51</time>
      </trkpt>
      <trkpt lat="41.59166" lon="2.33895">
        <ele>142.8</ele>
        <time>2021-11-13 08:58:52</time>
      </trkpt>
      <trkpt lat="41.59167" lon="2.339">
        <ele>143</ele>
        <time>2021-11-13 08:58:53</time>
      </trkpt>
      <trkpt lat="41.59167" lon="2.33905">
        <ele>143.4</ele>
        <time>2021-11-13 08:58:54</time>
      </trkpt>
      <trkpt lat="41.59168" lon="2.3391">
        <ele>143.6</ele>
        <time>2021-11-13 08:58:55</time>
      </trkpt>
      <trkpt lat="41.59169" lon="2.33915">
        <ele>143.8</ele>
        <time>2021-11-13 08:58:56</time>
      </trkpt>
      <trkpt lat="41.5917" lon="2.33921">
        <ele>143.8</ele>
        <time>2021-11-13 08:58:57</time>
      </trkpt>
      <trkpt lat="41.5917" lon="2.33926">
        <ele>144</ele>
        <time>2021-11-13 08:58:58</time>
      </trkpt>
      <trkpt lat="41.59171" lon="2.3393">
        <ele>144</ele>
        <time>2021-11-13 08:58:59</time>
      </trkpt>
      <trkpt lat="41.59172" lon="2.33934">
        <ele>144.2</ele>
        <time>2021-11-13 08:59:00</time>
      </trkpt>
      <trkpt lat="41.59172" lon="2.33938">
        <ele>144.4</ele>
        <time>2021-11-13 08:59:01</time>
      </trkpt>
      <trkpt lat="41.59172" lon="2.33942">
        <ele>144.4</ele>
        <time>2021-11-13 08:59:02</time>
      </trkpt>
      <trkpt lat="41.59173" lon="2.33946">
        <ele>144.8</ele>
        <time>2021-11-13 08:59:03</time>
      </trkpt>
      <trkpt lat="41.59173" lon="2.3395">
        <ele>144.8</ele>
        <time>2021-11-13 08:59:04</time>
      </trkpt>
      <trkpt lat="41.59174" lon="2.33953">
        <ele>145</ele>
        <time>2021-11-13 08:59:05</time>
      </trkpt>
      <trkpt lat="41.59174" lon="2.33957">
        <ele>145</ele>
        <time>2021-11-13 08:59:06</time>
      </trkpt>
      <trkpt lat="41.59174" lon="2.3396">
        <ele>145.2</ele>
        <time>2021-11-13 08:59:07</time>
      </trkpt>
      <trkpt lat="41.59174" lon="2.33963">
        <ele>145.2</ele>
        <time>2021-11-13 08:59:08</time>
      </trkpt>
      <trkpt lat="41.59175" lon="2.33966">
        <ele>145.4</ele>
        <time>2021-11-13 08:59:09</time>
      </trkpt>
      <trkpt lat="41.59175" lon="2.33969">
        <ele>145.6</ele>
        <time>2021-11-13 08:59:10</time>
      </trkpt>
      <trkpt lat="41.59175" lon="2.33971">
        <ele>145.6</ele>
        <time>2021-11-13 08:59:11</time>
      </trkpt>
      <trkpt lat="41.59175" lon="2.33974">
        <ele>145.8</ele>
        <time>2021-11-13 08:59:12</time>
      </trkpt>
      <trkpt lat="41.59176" lon="2.33976">
        <ele>146</ele>
        <time>2021-11-13 08:59:13</time>
      </trkpt>
      <trkpt lat="41.59176" lon="2.33979">
        <ele>146</ele>
        <time>2021-11-13 08:59:14</time>
      </trkpt>
      <trkpt lat="41.59177" lon="2.33983">
        <ele>146.2</ele>
        <time>2021-11-13 08:59:15</time>
      </trkpt>
      <trkpt lat="41.59177" lon="2.33987">
        <ele>146.4</ele>
        <time>2021-11-13 08:59:16</time>
      </trkpt>
      <trkpt lat="41.59177" lon="2.33992">
        <ele>146.4</ele>
        <time>2021-11-13 08:59:17</time>
      </trkpt>
      <trkpt lat="41.59178" lon="2.33996">
        <ele>146.4</ele>
        <time>2021-11-13 08:59:18</time>
      </trkpt>
      <trkpt lat="41.59178" lon="2.34">
        <ele>146.6</ele>
        <time>2021-11-13 08:59:19</time>
      </trkpt>
      <trkpt lat="41.59178" lon="2.34004">
        <ele>146.6</ele>
        <time>2021-11-13 08:59:20</time>
      </trkpt>
      <trkpt lat="41.59179" lon="2.34009">
        <ele>146.6</ele>
        <time>2021-11-13 08:59:21</time>
      </trkpt>
      <trkpt lat="41.5918" lon="2.34013">
        <ele>146.8</ele>
        <time>2021-11-13 08:59:22</time>
      </trkpt>
      <trkpt lat="41.5918" lon="2.34016">
        <ele>146.8</ele>
        <time>2021-11-13 08:59:23</time>
      </trkpt>
      <trkpt lat="41.5918" lon="2.3402">
        <ele>146.8</ele>
        <time>2021-11-13 08:59:24</time>
      </trkpt>
      <trkpt lat="41.59182" lon="2.34022">
        <ele>147</ele>
        <time>2021-11-13 08:59:25</time>
      </trkpt>
      <trkpt lat="41.59184" lon="2.34022">
        <ele>147</ele>
        <time>2021-11-13 08:59:26</time>
      </trkpt>
      <trkpt lat="41.59185" lon="2.34018">
        <ele>147</ele>
        <time>2021-11-13 08:59:27</time>
      </trkpt>
      <trkpt lat="41.59185" lon="2.34014">
        <ele>147.2</ele>
        <time>2021-11-13 08:59:28</time>
      </trkpt>
      <trkpt lat="41.59184" lon="2.34009">
        <ele>147.2</ele>
        <time>2021-11-13 08:59:29</time>
      </trkpt>
      <trkpt lat="41.59183" lon="2.34004">
        <ele>147.4</ele>
        <time>2021-11-13 08:59:30</time>
      </trkpt>
      <trkpt lat="41.59182" lon="2.33998">
        <ele>147.4</ele>
        <time>2021-11-13 08:59:31</time>
      </trkpt>
      <trkpt lat="41.59182" lon="2.33991">
        <ele>147.4</ele>
        <time>2021-11-13 08:59:32</time>
      </trkpt>
      <trkpt lat="41.59181" lon="2.33985">
        <ele>147.4</ele>
        <time>2021-11-13 08:59:33</time>
      </trkpt>
      <trkpt lat="41.59181" lon="2.33978">
        <ele>147.4</ele>
        <time>2021-11-13 08:59:34</time>
      </trkpt>
      <trkpt lat="41.59183" lon="2.33972">
        <ele>147.4</ele>
        <time>2021-11-13 08:59:35</time>
      </trkpt>
      <trkpt lat="41.59186" lon="2.33968">
        <ele>147.4</ele>
        <time>2021-11-13 08:59:36</time>
      </trkpt>
      <trkpt lat="41.59192" lon="2.33967">
        <ele>147.4</ele>
        <time>2021-11-13 08:59:37</time>
      </trkpt>
      <trkpt lat="41.59198" lon="2.33968">
        <ele>147.4</ele>
        <time>2021-11-13 08:59:38</time>
      </trkpt>
      <trkpt lat="41.59205" lon="2.33969">
        <ele>147.2</ele>
        <time>2021-11-13 08:59:39</time>
      </trkpt>
      <trkpt lat="41.59211" lon="2.33971">
        <ele>147</ele>
        <time>2021-11-13 08:59:40</time>
      </trkpt>
      <trkpt lat="41.59218" lon="2.33974">
        <ele>146.6</ele>
        <time>2021-11-13 08:59:41</time>
      </trkpt>
      <trkpt lat="41.59225" lon="2.33977">
        <ele>146.6</ele>
        <time>2021-11-13 08:59:42</time>
      </trkpt>
      <trkpt lat="41.59233" lon="2.3398">
        <ele>146.2</ele>
        <time>2021-11-13 08:59:43</time>
      </trkpt>
      <trkpt lat="41.5924" lon="2.33984">
        <ele>146</ele>
        <time>2021-11-13 08:59:44</time>
      </trkpt>
      <trkpt lat="41.59248" lon="2.3399">
        <ele>145.8</ele>
        <time>2021-11-13 08:59:45</time>
      </trkpt>
      <trkpt lat="41.59255" lon="2.33997">
        <ele>145.2</ele>
        <time>2021-11-13 08:59:46</time>
      </trkpt>
      <trkpt lat="41.59262" lon="2.34004">
        <ele>144.8</ele>
        <time>2021-11-13 08:59:47</time>
      </trkpt>
      <trkpt lat="41.59269" lon="2.34011">
        <ele>144.4</ele>
        <time>2021-11-13 08:59:48</time>
      </trkpt>
      <trkpt lat="41.59276" lon="2.34018">
        <ele>144.4</ele>
        <time>2021-11-13 08:59:49</time>
      </trkpt>
      <trkpt lat="41.59283" lon="2.34026">
        <ele>143.6</ele>
        <time>2021-11-13 08:59:50</time>
      </trkpt>
      <trkpt lat="41.5929" lon="2.34033">
        <ele>143.2</ele>
        <time>2021-11-13 08:59:51</time>
      </trkpt>
      <trkpt lat="41.59296" lon="2.3404">
        <ele>142.8</ele>
        <time>2021-11-13 08:59:52</time>
      </trkpt>
      <trkpt lat="41.59302" lon="2.34046">
        <ele>142.2</ele>
        <time>2021-11-13 08:59:53</time>
      </trkpt>
      <trkpt lat="41.59307" lon="2.34053">
        <ele>142.2</ele>
        <time>2021-11-13 08:59:54</time>
      </trkpt>
      <trkpt lat="41.59313" lon="2.34059">
        <ele>141.8</ele>
        <time>2021-11-13 08:59:55</time>
      </trkpt>
      <trkpt lat="41.59317" lon="2.34067">
        <ele>141.6</ele>
        <time>2021-11-13 08:59:56</time>
      </trkpt>
      <trkpt lat="41.59319" lon="2.34075">
        <ele>141.4</ele>
        <time>2021-11-13 08:59:57</time>
      </trkpt>
      <trkpt lat="41.59321" lon="2.34083">
        <ele>141.4</ele>
        <time>2021-11-13 08:59:58</time>
      </trkpt>
      <trkpt lat="41.59322" lon="2.34092">
        <ele>141.2</ele>
        <time>2021-11-13 08:59:59</time>
      </trkpt>
      <trkpt lat="41.59323" lon="2.341">
        <ele>141.2</ele>
        <time>2021-11-13 09:00:00</time>
      </trkpt>
      <trkpt lat="41.59325" lon="2.34107">
        <ele>141.2</ele>
        <time>2021-11-13 09:00:01</time>
      </trkpt>
      <trkpt lat="41.59328" lon="2.34115">
        <ele>141.2</ele>
        <time>2021-11-13 09:00:02</time>
      </trkpt>
      <trkpt lat="41.59331" lon="2.34122">
        <ele>141.2</ele>
        <time>2021-11-13 09:00:03</time>
      </trkpt>
      <trkpt lat="41.59335" lon="2.34128">
        <ele>141.2</ele>
        <time>2021-11-13 09:00:04</time>
      </trkpt>
      <trkpt lat="41.59339" lon="2.34134">
        <ele>141.2</ele>
        <time>2021-11-13 09:00:05</time>
      </trkpt>
      <trkpt lat="41.59343" lon="2.34139">
        <ele>141.4</ele>
        <time>2021-11-13 09:00:06</time>
      </trkpt>
      <trkpt lat="41.59347" lon="2.34144">
        <ele>141.4</ele>
        <time>2021-11-13 09:00:07</time>
      </trkpt>
      <trkpt lat="41.59352" lon="2.34148">
        <ele>141.6</ele>
        <time>2021-11-13 09:00:08</time>
      </trkpt>
      <trkpt lat="41.59357" lon="2.34152">
        <ele>141.6</ele>
        <time>2021-11-13 09:00:09</time>
      </trkpt>
      <trkpt lat="41.59363" lon="2.34156">
        <ele>141.6</ele>
        <time>2021-11-13 09:00:10</time>
      </trkpt>
      <trkpt lat="41.59369" lon="2.34159">
        <ele>141.8</ele>
        <time>2021-11-13 09:00:11</time>
      </trkpt>
      <trkpt lat="41.59376" lon="2.3416">
        <ele>141.8</ele>
        <time>2021-11-13 09:00:12</time>
      </trkpt>
      <trkpt lat="41.59382" lon="2.34161">
        <ele>141.8</ele>
        <time>2021-11-13 09:00:13</time>
      </trkpt>
      <trkpt lat="41.59389" lon="2.34161">
        <ele>141.8</ele>
        <time>2021-11-13 09:00:14</time>
      </trkpt>
      <trkpt lat="41.59396" lon="2.34163">
        <ele>142</ele>
        <time>2021-11-13 09:00:15</time>
      </trkpt>
      <trkpt lat="41.59402" lon="2.34167">
        <ele>142</ele>
        <time>2021-11-13 09:00:16</time>
      </trkpt>
      <trkpt lat="41.59407" lon="2.34172">
        <ele>142.2</ele>
        <time>2021-11-13 09:00:17</time>
      </trkpt>
      <trkpt lat="41.59413" lon="2.34177">
        <ele>142.2</ele>
        <time>2021-11-13 09:00:18</time>
      </trkpt>
      <trkpt lat="41.59418" lon="2.34183">
        <ele>142.2</ele>
        <time>2021-11-13 09:00:19</time>
      </trkpt>
      <trkpt lat="41.59423" lon="2.34189">
        <ele>142.4</ele>
        <time>2021-11-13 09:00:20</time>
      </trkpt>
      <trkpt lat="41.59428" lon="2.34194">
        <ele>142.4</ele>
        <time>2021-11-13 09:00:21</time>
      </trkpt>
      <trkpt lat="41.59433" lon="2.342">
        <ele>142.4</ele>
        <time>2021-11-13 09:00:22</time>
      </trkpt>
      <trkpt lat="41.59438" lon="2.34206">
        <ele>142.4</ele>
        <time>2021-11-13 09:00:23</time>
      </trkpt>
      <trkpt lat="41.59443" lon="2.34212">
        <ele>142.4</ele>
        <time>2021-11-13 09:00:24</time>
      </trkpt>
      <trkpt lat="41.59448" lon="2.34218">
        <ele>142.4</ele>
        <time>2021-11-13 09:00:25</time>
      </trkpt>
      <trkpt lat="41.59453" lon="2.34224">
        <ele>142.4</ele>
        <time>2021-11-13 09:00:26</time>
      </trkpt>
      <trkpt lat="41.59458" lon="2.34229">
        <ele>142.4</ele>
        <time>2021-11-13 09:00:27</time>
      </trkpt>
      <trkpt lat="41.59463" lon="2.34233">
        <ele>142.4</ele>
        <time>2021-11-13 09:00:28</time>
      </trkpt>
      <trkpt lat="41.59467" lon="2.34238">
        <ele>142.2</ele>
        <time>2021-11-13 09:00:29</time>
      </trkpt>
      <trkpt lat="41.59471" lon="2.34242">
        <ele>142.2</ele>
        <time>2021-11-13 09:00:30</time>
      </trkpt>
      <trkpt lat="41.59476" lon="2.34247">
        <ele>142.4</ele>
        <time>2021-11-13 09:00:31</time>
      </trkpt>
      <trkpt lat="41.5948" lon="2.34253">
        <ele>142.4</ele>
        <time>2021-11-13 09:00:32</time>
      </trkpt>
      <trkpt lat="41.59484" lon="2.34258">
        <ele>142.4</ele>
        <time>2021-11-13 09:00:33</time>
      </trkpt>
      <trkpt lat="41.59489" lon="2.34264">
        <ele>142.4</ele>
        <time>2021-11-13 09:00:34</time>
      </trkpt>
      <trkpt lat="41.59495" lon="2.3427">
        <ele>142.4</ele>
        <time>2021-11-13 09:00:35</time>
      </trkpt>
      <trkpt lat="41.595" lon="2.34277">
        <ele>142.4</ele>
        <time>2021-11-13 09:00:36</time>
      </trkpt>
      <trkpt lat="41.59505" lon="2.34283">
        <ele>142.4</ele>
        <time>2021-11-13 09:00:37</time>
      </trkpt>
      <trkpt lat="41.59511" lon="2.34289">
        <ele>142.4</ele>
        <time>2021-11-13 09:00:38</time>
      </trkpt>
      <trkpt lat="41.59517" lon="2.34296">
        <ele>142.4</ele>
        <time>2021-11-13 09:00:39</time>
      </trkpt>
      <trkpt lat="41.59523" lon="2.34302">
        <ele>142.4</ele>
        <time>2021-11-13 09:00:40</time>
      </trkpt>
      <trkpt lat="41.59528" lon="2.34309">
        <ele>142.4</ele>
        <time>2021-11-13 09:00:41</time>
      </trkpt>
      <trkpt lat="41.59534" lon="2.34315">
        <ele>142.4</ele>
        <time>2021-11-13 09:00:42</time>
      </trkpt>
      <trkpt lat="41.5954" lon="2.34321">
        <ele>142.4</ele>
        <time>2021-11-13 09:00:43</time>
      </trkpt>
      <trkpt lat="41.59546" lon="2.34328">
        <ele>142.6</ele>
        <time>2021-11-13 09:00:44</time>
      </trkpt>
      <trkpt lat="41.59551" lon="2.34334">
        <ele>142.6</ele>
        <time>2021-11-13 09:00:45</time>
      </trkpt>
      <trkpt lat="41.59557" lon="2.3434">
        <ele>142.6</ele>
        <time>2021-11-13 09:00:46</time>
      </trkpt>
      <trkpt lat="41.59563" lon="2.34346">
        <ele>142.6</ele>
        <time>2021-11-13 09:00:47</time>
      </trkpt>
      <trkpt lat="41.59569" lon="2.34352">
        <ele>142.6</ele>
        <time>2021-11-13 09:00:48</time>
      </trkpt>
      <trkpt lat="41.59575" lon="2.34358">
        <ele>142.6</ele>
        <time>2021-11-13 09:00:49</time>
      </trkpt>
      <trkpt lat="41.59581" lon="2.34364">
        <ele>142.6</ele>
        <time>2021-11-13 09:00:50</time>
      </trkpt>
      <trkpt lat="41.59586" lon="2.34369">
        <ele>142.6</ele>
        <time>2021-11-13 09:00:51</time>
      </trkpt>
      <trkpt lat="41.59592" lon="2.34375">
        <ele>142.6</ele>
        <time>2021-11-13 09:00:52</time>
      </trkpt>
      <trkpt lat="41.59598" lon="2.34381">
        <ele>142.6</ele>
        <time>2021-11-13 09:00:53</time>
      </trkpt>
      <trkpt lat="41.59604" lon="2.34386">
        <ele>142.6</ele>
        <time>2021-11-13 09:00:54</time>
      </trkpt>
      <trkpt lat="41.5961" lon="2.34392">
        <ele>142.4</ele>
        <time>2021-11-13 09:00:55</time>
      </trkpt>
      <trkpt lat="41.59616" lon="2.34397">
        <ele>142.2</ele>
        <time>2021-11-13 09:00:56</time>
      </trkpt>
      <trkpt lat="41.59622" lon="2.34402">
        <ele>142.2</ele>
        <time>2021-11-13 09:00:57</time>
      </trkpt>
      <trkpt lat="41.59628" lon="2.34408">
        <ele>142</ele>
        <time>2021-11-13 09:00:58</time>
      </trkpt>
      <trkpt lat="41.59634" lon="2.34413">
        <ele>142</ele>
        <time>2021-11-13 09:00:59</time>
      </trkpt>
      <trkpt lat="41.5964" lon="2.34419">
        <ele>141.8</ele>
        <time>2021-11-13 09:01:00</time>
      </trkpt>
      <trkpt lat="41.59646" lon="2.34424">
        <ele>141.6</ele>
        <time>2021-11-13 09:01:01</time>
      </trkpt>
      <trkpt lat="41.59652" lon="2.34429">
        <ele>141.6</ele>
        <time>2021-11-13 09:01:02</time>
      </trkpt>
      <trkpt lat="41.59658" lon="2.34434">
        <ele>141.6</ele>
        <time>2021-11-13 09:01:03</time>
      </trkpt>
      <trkpt lat="41.59664" lon="2.34438">
        <ele>141.6</ele>
        <time>2021-11-13 09:01:04</time>
      </trkpt>
      <trkpt lat="41.5967" lon="2.34443">
        <ele>141.6</ele>
        <time>2021-11-13 09:01:05</time>
      </trkpt>
      <trkpt lat="41.59676" lon="2.34447">
        <ele>141.6</ele>
        <time>2021-11-13 09:01:06</time>
      </trkpt>
      <trkpt lat="41.59682" lon="2.34451">
        <ele>141.4</ele>
        <time>2021-11-13 09:01:07</time>
      </trkpt>
      <trkpt lat="41.59688" lon="2.34455">
        <ele>141.4</ele>
        <time>2021-11-13 09:01:08</time>
      </trkpt>
      <trkpt lat="41.59694" lon="2.34459">
        <ele>141.4</ele>
        <time>2021-11-13 09:01:09</time>
      </trkpt>
      <trkpt lat="41.597" lon="2.34463">
        <ele>141.4</ele>
        <time>2021-11-13 09:01:10</time>
      </trkpt>
      <trkpt lat="41.59705" lon="2.34467">
        <ele>141.4</ele>
        <time>2021-11-13 09:01:11</time>
      </trkpt>
      <trkpt lat="41.5971" lon="2.34472">
        <ele>141.4</ele>
        <time>2021-11-13 09:01:12</time>
      </trkpt>
      <trkpt lat="41.59715" lon="2.34478">
        <ele>141.4</ele>
        <time>2021-11-13 09:01:13</time>
      </trkpt>
      <trkpt lat="41.59718" lon="2.34484">
        <ele>141.4</ele>
        <time>2021-11-13 09:01:14</time>
      </trkpt>
      <trkpt lat="41.59721" lon="2.34492">
        <ele>141.4</ele>
        <time>2021-11-13 09:01:15</time>
      </trkpt>
      <trkpt lat="41.59722" lon="2.34499">
        <ele>141.4</ele>
        <time>2021-11-13 09:01:16</time>
      </trkpt>
      <trkpt lat="41.59723" lon="2.34507">
        <ele>141.4</ele>
        <time>2021-11-13 09:01:17</time>
      </trkpt>
      <trkpt lat="41.59724" lon="2.34514">
        <ele>141.4</ele>
        <time>2021-11-13 09:01:18</time>
      </trkpt>
      <trkpt lat="41.59726" lon="2.34522">
        <ele>141.4</ele>
        <time>2021-11-13 09:01:19</time>
      </trkpt>
      <trkpt lat="41.59729" lon="2.34529">
        <ele>141.6</ele>
        <time>2021-11-13 09:01:20</time>
      </trkpt>
      <trkpt lat="41.59732" lon="2.34535">
        <ele>141.6</ele>
        <time>2021-11-13 09:01:21</time>
      </trkpt>
      <trkpt lat="41.59736" lon="2.34541">
        <ele>141.8</ele>
        <time>2021-11-13 09:01:22</time>
      </trkpt>
      <trkpt lat="41.59741" lon="2.34546">
        <ele>142</ele>
        <time>2021-11-13 09:01:23</time>
      </trkpt>
      <trkpt lat="41.59745" lon="2.34551">
        <ele>142</ele>
        <time>2021-11-13 09:01:24</time>
      </trkpt>
      <trkpt lat="41.5975" lon="2.34557">
        <ele>142.2</ele>
        <time>2021-11-13 09:01:25</time>
      </trkpt>
      <trkpt lat="41.59755" lon="2.34562">
        <ele>142.2</ele>
        <time>2021-11-13 09:01:26</time>
      </trkpt>
      <trkpt lat="41.59759" lon="2.34567">
        <ele>142.4</ele>
        <time>2021-11-13 09:01:27</time>
      </trkpt>
      <trkpt lat="41.59764" lon="2.34572">
        <ele>142.4</ele>
        <time>2021-11-13 09:01:28</time>
      </trkpt>
      <trkpt lat="41.59767" lon="2.34578">
        <ele>142.4</ele>
        <time>2021-11-13 09:01:29</time>
      </trkpt>
      <trkpt lat="41.59767" lon="2.34585">
        <ele>142.6</ele>
        <time>2021-11-13 09:01:30</time>
      </trkpt>
      <trkpt lat="41.59766" lon="2.34592">
        <ele>142.6</ele>
        <time>2021-11-13 09:01:31</time>
      </trkpt>
      <trkpt lat="41.59764" lon="2.34597">
        <ele>142.8</ele>
        <time>2021-11-13 09:01:32</time>
      </trkpt>
      <trkpt lat="41.59762" lon="2.34604">
        <ele>143</ele>
        <time>2021-11-13 09:01:33</time>
      </trkpt>
      <trkpt lat="41.5976" lon="2.3461">
        <ele>143</ele>
        <time>2021-11-13 09:01:34</time>
      </trkpt>
      <trkpt lat="41.59757" lon="2.34616">
        <ele>143</ele>
        <time>2021-11-13 09:01:35</time>
      </trkpt>
      <trkpt lat="41.59755" lon="2.34622">
        <ele>143.4</ele>
        <time>2021-11-13 09:01:36</time>
      </trkpt>
      <trkpt lat="41.59753" lon="2.34627">
        <ele>143.6</ele>
        <time>2021-11-13 09:01:37</time>
      </trkpt>
      <trkpt lat="41.59751" lon="2.34633">
        <ele>143.8</ele>
        <time>2021-11-13 09:01:38</time>
      </trkpt>
      <trkpt lat="41.59749" lon="2.34639">
        <ele>144</ele>
        <time>2021-11-13 09:01:39</time>
      </trkpt>
      <trkpt lat="41.59747" lon="2.34646">
        <ele>144</ele>
        <time>2021-11-13 09:01:40</time>
      </trkpt>
      <trkpt lat="41.59745" lon="2.34652">
        <ele>144.2</ele>
        <time>2021-11-13 09:01:41</time>
      </trkpt>
      <trkpt lat="41.59743" lon="2.34658">
        <ele>144.6</ele>
        <time>2021-11-13 09:01:42</time>
      </trkpt>
      <trkpt lat="41.59741" lon="2.34663">
        <ele>145</ele>
        <time>2021-11-13 09:01:43</time>
      </trkpt>
      <trkpt lat="41.59739" lon="2.34668">
        <ele>145.2</ele>
        <time>2021-11-13 09:01:44</time>
      </trkpt>
      <trkpt lat="41.59738" lon="2.34674">
        <ele>145.6</ele>
        <time>2021-11-13 09:01:45</time>
      </trkpt>
      <trkpt lat="41.59736" lon="2.34679">
        <ele>145.8</ele>
        <time>2021-11-13 09:01:46</time>
      </trkpt>
      <trkpt lat="41.59735" lon="2.34685">
        <ele>146.2</ele>
        <time>2021-11-13 09:01:47</time>
      </trkpt>
      <trkpt lat="41.59733" lon="2.3469">
        <ele>146.6</ele>
        <time>2021-11-13 09:01:48</time>
      </trkpt>
      <trkpt lat="41.59732" lon="2.34696">
        <ele>146.8</ele>
        <time>2021-11-13 09:01:49</time>
      </trkpt>
      <trkpt lat="41.5973" lon="2.34701">
        <ele>147.4</ele>
        <time>2021-11-13 09:01:50</time>
      </trkpt>
      <trkpt lat="41.59728" lon="2.34706">
        <ele>147.6</ele>
        <time>2021-11-13 09:01:51</time>
      </trkpt>
      <trkpt lat="41.59726" lon="2.34712">
        <ele>148</ele>
        <time>2021-11-13 09:01:52</time>
      </trkpt>
      <trkpt lat="41.59725" lon="2.34717">
        <ele>148.2</ele>
        <time>2021-11-13 09:01:53</time>
      </trkpt>
      <trkpt lat="41.59724" lon="2.34722">
        <ele>148.8</ele>
        <time>2021-11-13 09:01:54</time>
      </trkpt>
      <trkpt lat="41.59722" lon="2.34727">
        <ele>149</ele>
        <time>2021-11-13 09:01:55</time>
      </trkpt>
      <trkpt lat="41.5972" lon="2.34733">
        <ele>149.2</ele>
        <time>2021-11-13 09:01:56</time>
      </trkpt>
      <trkpt lat="41.59719" lon="2.34738">
        <ele>149.8</ele>
        <time>2021-11-13 09:01:57</time>
      </trkpt>
      <trkpt lat="41.59718" lon="2.34743">
        <ele>150</ele>
        <time>2021-11-13 09:01:58</time>
      </trkpt>
      <trkpt lat="41.59717" lon="2.34749">
        <ele>150.2</ele>
        <time>2021-11-13 09:01:59</time>
      </trkpt>
      <trkpt lat="41.59717" lon="2.34754">
        <ele>150.4</ele>
        <time>2021-11-13 09:02:00</time>
      </trkpt>
      <trkpt lat="41.59718" lon="2.34758">
        <ele>150.8</ele>
        <time>2021-11-13 09:02:01</time>
      </trkpt>
      <trkpt lat="41.59719" lon="2.34764">
        <ele>151</ele>
        <time>2021-11-13 09:02:02</time>
      </trkpt>
      <trkpt lat="41.5972" lon="2.34769">
        <ele>151.4</ele>
        <time>2021-11-13 09:02:03</time>
      </trkpt>
      <trkpt lat="41.59721" lon="2.34774">
        <ele>151.6</ele>
        <time>2021-11-13 09:02:04</time>
      </trkpt>
      <trkpt lat="41.59722" lon="2.3478">
        <ele>152.2</ele>
        <time>2021-11-13 09:02:05</time>
      </trkpt>
      <trkpt lat="41.59723" lon="2.34786">
        <ele>152.6</ele>
        <time>2021-11-13 09:02:06</time>
      </trkpt>
      <trkpt lat="41.59725" lon="2.34791">
        <ele>153</ele>
        <time>2021-11-13 09:02:07</time>
      </trkpt>
      <trkpt lat="41.59727" lon="2.34796">
        <ele>153.6</ele>
        <time>2021-11-13 09:02:08</time>
      </trkpt>
      <trkpt lat="41.59728" lon="2.34801">
        <ele>153.8</ele>
        <time>2021-11-13 09:02:09</time>
      </trkpt>
      <trkpt lat="41.59729" lon="2.34806">
        <ele>154</ele>
        <time>2021-11-13 09:02:10</time>
      </trkpt>
      <trkpt lat="41.5973" lon="2.34811">
        <ele>154.2</ele>
        <time>2021-11-13 09:02:11</time>
      </trkpt>
      <trkpt lat="41.59731" lon="2.34816">
        <ele>154.6</ele>
        <time>2021-11-13 09:02:12</time>
      </trkpt>
      <trkpt lat="41.59733" lon="2.34821">
        <ele>154.6</ele>
        <time>2021-11-13 09:02:13</time>
      </trkpt>
      <trkpt lat="41.59734" lon="2.34826">
        <ele>155</ele>
        <time>2021-11-13 09:02:14</time>
      </trkpt>
      <trkpt lat="41.59735" lon="2.3483">
        <ele>155.8</ele>
        <time>2021-11-13 09:02:15</time>
      </trkpt>
      <trkpt lat="41.59735" lon="2.34834">
        <ele>156</ele>
        <time>2021-11-13 09:02:16</time>
      </trkpt>
      <trkpt lat="41.59735" lon="2.34838">
        <ele>156.6</ele>
        <time>2021-11-13 09:02:17</time>
      </trkpt>
      <trkpt lat="41.59735" lon="2.34841">
        <ele>156.8</ele>
        <time>2021-11-13 09:02:18</time>
      </trkpt>
      <trkpt lat="41.59735" lon="2.34845">
        <ele>157.6</ele>
        <time>2021-11-13 09:02:19</time>
      </trkpt>
      <trkpt lat="41.59734" lon="2.34849">
        <ele>158</ele>
        <time>2021-11-13 09:02:20</time>
      </trkpt>
      <trkpt lat="41.59733" lon="2.34853">
        <ele>158.6</ele>
        <time>2021-11-13 09:02:21</time>
      </trkpt>
      <trkpt lat="41.59731" lon="2.34856">
        <ele>159</ele>
        <time>2021-11-13 09:02:22</time>
      </trkpt>
      <trkpt lat="41.59729" lon="2.34859">
        <ele>159.4</ele>
        <time>2021-11-13 09:02:23</time>
      </trkpt>
      <trkpt lat="41.59726" lon="2.34862">
        <ele>160.2</ele>
        <time>2021-11-13 09:02:24</time>
      </trkpt>
      <trkpt lat="41.59722" lon="2.34866">
        <ele>160.4</ele>
        <time>2021-11-13 09:02:25</time>
      </trkpt>
      <trkpt lat="41.59718" lon="2.34869">
        <ele>161</ele>
        <time>2021-11-13 09:02:26</time>
      </trkpt>
      <trkpt lat="41.59714" lon="2.34873">
        <ele>161.2</ele>
        <time>2021-11-13 09:02:27</time>
      </trkpt>
      <trkpt lat="41.59711" lon="2.34875">
        <ele>161.8</ele>
        <time>2021-11-13 09:02:28</time>
      </trkpt>
      <trkpt lat="41.59707" lon="2.34879">
        <ele>161.8</ele>
        <time>2021-11-13 09:02:29</time>
      </trkpt>
      <trkpt lat="41.59703" lon="2.34882">
        <ele>162.2</ele>
        <time>2021-11-13 09:02:30</time>
      </trkpt>
      <trkpt lat="41.59699" lon="2.34887">
        <ele>162.4</ele>
        <time>2021-11-13 09:02:31</time>
      </trkpt>
      <trkpt lat="41.59697" lon="2.34891">
        <ele>162.6</ele>
        <time>2021-11-13 09:02:32</time>
      </trkpt>
      <trkpt lat="41.59694" lon="2.34895">
        <ele>162.8</ele>
        <time>2021-11-13 09:02:33</time>
      </trkpt>
      <trkpt lat="41.59691" lon="2.34899">
        <ele>162.8</ele>
        <time>2021-11-13 09:02:34</time>
      </trkpt>
      <trkpt lat="41.59689" lon="2.34903">
        <ele>163</ele>
        <time>2021-11-13 09:02:35</time>
      </trkpt>
      <trkpt lat="41.59687" lon="2.34907">
        <ele>163.2</ele>
        <time>2021-11-13 09:02:36</time>
      </trkpt>
      <trkpt lat="41.59686" lon="2.34911">
        <ele>163.2</ele>
        <time>2021-11-13 09:02:37</time>
      </trkpt>
      <trkpt lat="41.59685" lon="2.34916">
        <ele>163.4</ele>
        <time>2021-11-13 09:02:38</time>
      </trkpt>
      <trkpt lat="41.59684" lon="2.34919">
        <ele>163.6</ele>
        <time>2021-11-13 09:02:39</time>
      </trkpt>
      <trkpt lat="41.59683" lon="2.34923">
        <ele>164.2</ele>
        <time>2021-11-13 09:02:40</time>
      </trkpt>
      <trkpt lat="41.59683" lon="2.34927">
        <ele>164.4</ele>
        <time>2021-11-13 09:02:41</time>
      </trkpt>
      <trkpt lat="41.59683" lon="2.34932">
        <ele>164.6</ele>
        <time>2021-11-13 09:02:42</time>
      </trkpt>
      <trkpt lat="41.59683" lon="2.34936">
        <ele>164.8</ele>
        <time>2021-11-13 09:02:43</time>
      </trkpt>
      <trkpt lat="41.59683" lon="2.34941">
        <ele>165.2</ele>
        <time>2021-11-13 09:02:44</time>
      </trkpt>
      <trkpt lat="41.59683" lon="2.34946">
        <ele>165.6</ele>
        <time>2021-11-13 09:02:45</time>
      </trkpt>
      <trkpt lat="41.59683" lon="2.3495">
        <ele>165.8</ele>
        <time>2021-11-13 09:02:46</time>
      </trkpt>
      <trkpt lat="41.59684" lon="2.34955">
        <ele>166</ele>
        <time>2021-11-13 09:02:47</time>
      </trkpt>
      <trkpt lat="41.59685" lon="2.34959">
        <ele>166.4</ele>
        <time>2021-11-13 09:02:48</time>
      </trkpt>
      <trkpt lat="41.59686" lon="2.34963">
        <ele>167</ele>
        <time>2021-11-13 09:02:49</time>
      </trkpt>
      <trkpt lat="41.59688" lon="2.34967">
        <ele>167.2</ele>
        <time>2021-11-13 09:02:50</time>
      </trkpt>
      <trkpt lat="41.59691" lon="2.3497">
        <ele>167.6</ele>
        <time>2021-11-13 09:02:51</time>
      </trkpt>
      <trkpt lat="41.59693" lon="2.34973">
        <ele>167.8</ele>
        <time>2021-11-13 09:02:52</time>
      </trkpt>
      <trkpt lat="41.59696" lon="2.34976">
        <ele>168.2</ele>
        <time>2021-11-13 09:02:53</time>
      </trkpt>
      <trkpt lat="41.59699" lon="2.34978">
        <ele>168.4</ele>
        <time>2021-11-13 09:02:54</time>
      </trkpt>
      <trkpt lat="41.59702" lon="2.3498">
        <ele>168.8</ele>
        <time>2021-11-13 09:02:55</time>
      </trkpt>
      <trkpt lat="41.59705" lon="2.34982">
        <ele>169.2</ele>
        <time>2021-11-13 09:02:56</time>
      </trkpt>
      <trkpt lat="41.59708" lon="2.34984">
        <ele>169.6</ele>
        <time>2021-11-13 09:02:57</time>
      </trkpt>
      <trkpt lat="41.59712" lon="2.34986">
        <ele>170</ele>
        <time>2021-11-13 09:02:58</time>
      </trkpt>
      <trkpt lat="41.59715" lon="2.34987">
        <ele>170.2</ele>
        <time>2021-11-13 09:02:59</time>
      </trkpt>
      <trkpt lat="41.59719" lon="2.34988">
        <ele>170.4</ele>
        <time>2021-11-13 09:03:00</time>
      </trkpt>
      <trkpt lat="41.59723" lon="2.34989">
        <ele>170.6</ele>
        <time>2021-11-13 09:03:01</time>
      </trkpt>
      <trkpt lat="41.59727" lon="2.3499">
        <ele>171</ele>
        <time>2021-11-13 09:03:02</time>
      </trkpt>
      <trkpt lat="41.59731" lon="2.34991">
        <ele>171.2</ele>
        <time>2021-11-13 09:03:03</time>
      </trkpt>
      <trkpt lat="41.59735" lon="2.34992">
        <ele>171.4</ele>
        <time>2021-11-13 09:03:04</time>
      </trkpt>
      <trkpt lat="41.59739" lon="2.34994">
        <ele>171.6</ele>
        <time>2021-11-13 09:03:05</time>
      </trkpt>
      <trkpt lat="41.59743" lon="2.34995">
        <ele>171.8</ele>
        <time>2021-11-13 09:03:06</time>
      </trkpt>
      <trkpt lat="41.59746" lon="2.34997">
        <ele>171.8</ele>
        <time>2021-11-13 09:03:07</time>
      </trkpt>
      <trkpt lat="41.5975" lon="2.34998">
        <ele>172</ele>
        <time>2021-11-13 09:03:08</time>
      </trkpt>
      <trkpt lat="41.59753" lon="2.35">
        <ele>172</ele>
        <time>2021-11-13 09:03:09</time>
      </trkpt>
      <trkpt lat="41.59757" lon="2.35002">
        <ele>172.2</ele>
        <time>2021-11-13 09:03:10</time>
      </trkpt>
      <trkpt lat="41.5976" lon="2.35004">
        <ele>172.4</ele>
        <time>2021-11-13 09:03:11</time>
      </trkpt>
      <trkpt lat="41.59763" lon="2.35006">
        <ele>172.4</ele>
        <time>2021-11-13 09:03:12</time>
      </trkpt>
      <trkpt lat="41.59766" lon="2.35009">
        <ele>172.8</ele>
        <time>2021-11-13 09:03:13</time>
      </trkpt>
      <trkpt lat="41.5977" lon="2.35011">
        <ele>172.8</ele>
        <time>2021-11-13 09:03:14</time>
      </trkpt>
      <trkpt lat="41.59773" lon="2.35014">
        <ele>173.2</ele>
        <time>2021-11-13 09:03:15</time>
      </trkpt>
      <trkpt lat="41.59776" lon="2.35016">
        <ele>173.4</ele>
        <time>2021-11-13 09:03:16</time>
      </trkpt>
      <trkpt lat="41.5978" lon="2.35018">
        <ele>173.6</ele>
        <time>2021-11-13 09:03:17</time>
      </trkpt>
      <trkpt lat="41.59783" lon="2.35021">
        <ele>174</ele>
        <time>2021-11-13 09:03:18</time>
      </trkpt>
      <trkpt lat="41.59787" lon="2.35023">
        <ele>174.2</ele>
        <time>2021-11-13 09:03:19</time>
      </trkpt>
      <trkpt lat="41.5979" lon="2.35025">
        <ele>174.6</ele>
        <time>2021-11-13 09:03:20</time>
      </trkpt>
      <trkpt lat="41.59794" lon="2.35027">
        <ele>174.6</ele>
        <time>2021-11-13 09:03:21</time>
      </trkpt>
      <trkpt lat="41.59797" lon="2.35029">
        <ele>175</ele>
        <time>2021-11-13 09:03:22</time>
      </trkpt>
      <trkpt lat="41.598" lon="2.35031">
        <ele>175.2</ele>
        <time>2021-11-13 09:03:23</time>
      </trkpt>
      <trkpt lat="41.59804" lon="2.35034">
        <ele>175.4</ele>
        <time>2021-11-13 09:03:24</time>
      </trkpt>
      <trkpt lat="41.59808" lon="2.35036">
        <ele>175.6</ele>
        <time>2021-11-13 09:03:25</time>
      </trkpt>
      <trkpt lat="41.59812" lon="2.35039">
        <ele>175.6</ele>
        <time>2021-11-13 09:03:26</time>
      </trkpt>
      <trkpt lat="41.59816" lon="2.35042">
        <ele>175.8</ele>
        <time>2021-11-13 09:03:27</time>
      </trkpt>
      <trkpt lat="41.5982" lon="2.35044">
        <ele>175.8</ele>
        <time>2021-11-13 09:03:28</time>
      </trkpt>
      <trkpt lat="41.59824" lon="2.35047">
        <ele>175.8</ele>
        <time>2021-11-13 09:03:29</time>
      </trkpt>
      <trkpt lat="41.59828" lon="2.3505">
        <ele>176</ele>
        <time>2021-11-13 09:03:30</time>
      </trkpt>
      <trkpt lat="41.59832" lon="2.35053">
        <ele>176</ele>
        <time>2021-11-13 09:03:31</time>
      </trkpt>
      <trkpt lat="41.59837" lon="2.35056">
        <ele>176</ele>
        <time>2021-11-13 09:03:32</time>
      </trkpt>
      <trkpt lat="41.59841" lon="2.35059">
        <ele>176</ele>
        <time>2021-11-13 09:03:33</time>
      </trkpt>
      <trkpt lat="41.59845" lon="2.35062">
        <ele>176.2</ele>
        <time>2021-11-13 09:03:34</time>
      </trkpt>
      <trkpt lat="41.5985" lon="2.35064">
        <ele>176.2</ele>
        <time>2021-11-13 09:03:35</time>
      </trkpt>
      <trkpt lat="41.59854" lon="2.35068">
        <ele>176.2</ele>
        <time>2021-11-13 09:03:36</time>
      </trkpt>
      <trkpt lat="41.59859" lon="2.35071">
        <ele>176.2</ele>
        <time>2021-11-13 09:03:37</time>
      </trkpt>
      <trkpt lat="41.59864" lon="2.35075">
        <ele>176.2</ele>
        <time>2021-11-13 09:03:38</time>
      </trkpt>
      <trkpt lat="41.59869" lon="2.35078">
        <ele>176.2</ele>
        <time>2021-11-13 09:03:39</time>
      </trkpt>
      <trkpt lat="41.59874" lon="2.35081">
        <ele>176</ele>
        <time>2021-11-13 09:03:40</time>
      </trkpt>
      <trkpt lat="41.5988" lon="2.35085">
        <ele>176</ele>
        <time>2021-11-13 09:03:41</time>
      </trkpt>
      <trkpt lat="41.59886" lon="2.35089">
        <ele>175.8</ele>
        <time>2021-11-13 09:03:42</time>
      </trkpt>
      <trkpt lat="41.59893" lon="2.35093">
        <ele>175.6</ele>
        <time>2021-11-13 09:03:43</time>
      </trkpt>
      <trkpt lat="41.59899" lon="2.35097">
        <ele>175.4</ele>
        <time>2021-11-13 09:03:44</time>
      </trkpt>
      <trkpt lat="41.59905" lon="2.35101">
        <ele>175</ele>
        <time>2021-11-13 09:03:45</time>
      </trkpt>
      <trkpt lat="41.5991" lon="2.35105">
        <ele>174.8</ele>
        <time>2021-11-13 09:03:46</time>
      </trkpt>
      <trkpt lat="41.59916" lon="2.35109">
        <ele>174.4</ele>
        <time>2021-11-13 09:03:47</time>
      </trkpt>
      <trkpt lat="41.59923" lon="2.35113">
        <ele>174.2</ele>
        <time>2021-11-13 09:03:48</time>
      </trkpt>
      <trkpt lat="41.59929" lon="2.35117">
        <ele>173.6</ele>
        <time>2021-11-13 09:03:49</time>
      </trkpt>
      <trkpt lat="41.59937" lon="2.35122">
        <ele>173.2</ele>
        <time>2021-11-13 09:03:50</time>
      </trkpt>
      <trkpt lat="41.59944" lon="2.35127">
        <ele>172.8</ele>
        <time>2021-11-13 09:03:51</time>
      </trkpt>
      <trkpt lat="41.59952" lon="2.35132">
        <ele>172</ele>
        <time>2021-11-13 09:03:52</time>
      </trkpt>
      <trkpt lat="41.59961" lon="2.35138">
        <ele>171.6</ele>
        <time>2021-11-13 09:03:53</time>
      </trkpt>
      <trkpt lat="41.59969" lon="2.35143">
        <ele>171</ele>
        <time>2021-11-13 09:03:54</time>
      </trkpt>
      <trkpt lat="41.59977" lon="2.35149">
        <ele>170.8</ele>
        <time>2021-11-13 09:03:55</time>
      </trkpt>
      <trkpt lat="41.59984" lon="2.35154">
        <ele>170.2</ele>
        <time>2021-11-13 09:03:56</time>
      </trkpt>
      <trkpt lat="41.59992" lon="2.35158">
        <ele>170</ele>
        <time>2021-11-13 09:03:57</time>
      </trkpt>
      <trkpt lat="41.59999" lon="2.35162">
        <ele>168.6</ele>
        <time>2021-11-13 09:03:58</time>
      </trkpt>
      <trkpt lat="41.60005" lon="2.35167">
        <ele>167.8</ele>
        <time>2021-11-13 09:03:59</time>
      </trkpt>
      <trkpt lat="41.60011" lon="2.35172">
        <ele>167.4</ele>
        <time>2021-11-13 09:04:00</time>
      </trkpt>
      <trkpt lat="41.60015" lon="2.35179">
        <ele>166.2</ele>
        <time>2021-11-13 09:04:01</time>
      </trkpt>
      <trkpt lat="41.60017" lon="2.35186">
        <ele>165.8</ele>
        <time>2021-11-13 09:04:02</time>
      </trkpt>
      <trkpt lat="41.60018" lon="2.35193">
        <ele>165.2</ele>
        <time>2021-11-13 09:04:03</time>
      </trkpt>
      <trkpt lat="41.60018" lon="2.35199">
        <ele>165</ele>
        <time>2021-11-13 09:04:04</time>
      </trkpt>
      <trkpt lat="41.60018" lon="2.35205">
        <ele>164.8</ele>
        <time>2021-11-13 09:04:05</time>
      </trkpt>
      <trkpt lat="41.60017" lon="2.35211">
        <ele>164.8</ele>
        <time>2021-11-13 09:04:06</time>
      </trkpt>
      <trkpt lat="41.60017" lon="2.35217">
        <ele>164.8</ele>
        <time>2021-11-13 09:04:07</time>
      </trkpt>
      <trkpt lat="41.60017" lon="2.35222">
        <ele>164.8</ele>
        <time>2021-11-13 09:04:08</time>
      </trkpt>
      <trkpt lat="41.60017" lon="2.35227">
        <ele>164.8</ele>
        <time>2021-11-13 09:04:09</time>
      </trkpt>
      <trkpt lat="41.60017" lon="2.35232">
        <ele>164.8</ele>
        <time>2021-11-13 09:04:10</time>
      </trkpt>
      <trkpt lat="41.60016" lon="2.35237">
        <ele>165</ele>
        <time>2021-11-13 09:04:11</time>
      </trkpt>
      <trkpt lat="41.60016" lon="2.35242">
        <ele>165.2</ele>
        <time>2021-11-13 09:04:12</time>
      </trkpt>
      <trkpt lat="41.60016" lon="2.35247">
        <ele>165.2</ele>
        <time>2021-11-13 09:04:13</time>
      </trkpt>
      <trkpt lat="41.60016" lon="2.35252">
        <ele>165.6</ele>
        <time>2021-11-13 09:04:14</time>
      </trkpt>
      <trkpt lat="41.60016" lon="2.35257">
        <ele>165.8</ele>
        <time>2021-11-13 09:04:15</time>
      </trkpt>
      <trkpt lat="41.60016" lon="2.35262">
        <ele>166.2</ele>
        <time>2021-11-13 09:04:16</time>
      </trkpt>
      <trkpt lat="41.60016" lon="2.35267">
        <ele>166.8</ele>
        <time>2021-11-13 09:04:17</time>
      </trkpt>
      <trkpt lat="41.60016" lon="2.35272">
        <ele>167</ele>
        <time>2021-11-13 09:04:18</time>
      </trkpt>
      <trkpt lat="41.60015" lon="2.35277">
        <ele>167.2</ele>
        <time>2021-11-13 09:04:19</time>
      </trkpt>
      <trkpt lat="41.60015" lon="2.35283">
        <ele>167.4</ele>
        <time>2021-11-13 09:04:20</time>
      </trkpt>
      <trkpt lat="41.60014" lon="2.35288">
        <ele>167.8</ele>
        <time>2021-11-13 09:04:21</time>
      </trkpt>
      <trkpt lat="41.60014" lon="2.35293">
        <ele>168</ele>
        <time>2021-11-13 09:04:22</time>
      </trkpt>
      <trkpt lat="41.60014" lon="2.35298">
        <ele>168.4</ele>
        <time>2021-11-13 09:04:23</time>
      </trkpt>
      <trkpt lat="41.60014" lon="2.35303">
        <ele>168.6</ele>
        <time>2021-11-13 09:04:24</time>
      </trkpt>
      <trkpt lat="41.60014" lon="2.35308">
        <ele>169.2</ele>
        <time>2021-11-13 09:04:25</time>
      </trkpt>
      <trkpt lat="41.60013" lon="2.35313">
        <ele>169.6</ele>
        <time>2021-11-13 09:04:26</time>
      </trkpt>
      <trkpt lat="41.60013" lon="2.35318">
        <ele>169.8</ele>
        <time>2021-11-13 09:04:27</time>
      </trkpt>
      <trkpt lat="41.60013" lon="2.35322">
        <ele>170.2</ele>
        <time>2021-11-13 09:04:28</time>
      </trkpt>
      <trkpt lat="41.60012" lon="2.35327">
        <ele>170.4</ele>
        <time>2021-11-13 09:04:29</time>
      </trkpt>
      <trkpt lat="41.60011" lon="2.35332">
        <ele>170.8</ele>
        <time>2021-11-13 09:04:30</time>
      </trkpt>
      <trkpt lat="41.6001" lon="2.35336">
        <ele>171</ele>
        <time>2021-11-13 09:04:31</time>
      </trkpt>
      <trkpt lat="41.60009" lon="2.35341">
        <ele>171.2</ele>
        <time>2021-11-13 09:04:32</time>
      </trkpt>
      <trkpt lat="41.6001" lon="2.35346">
        <ele>171.4</ele>
        <time>2021-11-13 09:04:33</time>
      </trkpt>
      <trkpt lat="41.60012" lon="2.3535">
        <ele>172.2</ele>
        <time>2021-11-13 09:04:34</time>
      </trkpt>
      <trkpt lat="41.60015" lon="2.35353">
        <ele>172.6</ele>
        <time>2021-11-13 09:04:35</time>
      </trkpt>
      <trkpt lat="41.60017" lon="2.35357">
        <ele>172.8</ele>
        <time>2021-11-13 09:04:36</time>
      </trkpt>
      <trkpt lat="41.6002" lon="2.35361">
        <ele>173.2</ele>
        <time>2021-11-13 09:04:37</time>
      </trkpt>
      <trkpt lat="41.60021" lon="2.35366">
        <ele>173.2</ele>
        <time>2021-11-13 09:04:38</time>
      </trkpt>
      <trkpt lat="41.60023" lon="2.35371">
        <ele>173.4</ele>
        <time>2021-11-13 09:04:39</time>
      </trkpt>
      <trkpt lat="41.60025" lon="2.35375">
        <ele>173.6</ele>
        <time>2021-11-13 09:04:40</time>
      </trkpt>
      <trkpt lat="41.60026" lon="2.3538">
        <ele>174</ele>
        <time>2021-11-13 09:04:41</time>
      </trkpt>
      <trkpt lat="41.60027" lon="2.35385">
        <ele>174</ele>
        <time>2021-11-13 09:04:42</time>
      </trkpt>
      <trkpt lat="41.60029" lon="2.35389">
        <ele>174.2</ele>
        <time>2021-11-13 09:04:43</time>
      </trkpt>
      <trkpt lat="41.60031" lon="2.35393">
        <ele>174.6</ele>
        <time>2021-11-13 09:04:44</time>
      </trkpt>
      <trkpt lat="41.60032" lon="2.35397">
        <ele>174.8</ele>
        <time>2021-11-13 09:04:45</time>
      </trkpt>
      <trkpt lat="41.60034" lon="2.35402">
        <ele>175.2</ele>
        <time>2021-11-13 09:04:46</time>
      </trkpt>
      <trkpt lat="41.60035" lon="2.35406">
        <ele>175.4</ele>
        <time>2021-11-13 09:04:47</time>
      </trkpt>
      <trkpt lat="41.60036" lon="2.35411">
        <ele>175.8</ele>
        <time>2021-11-13 09:04:48</time>
      </trkpt>
      <trkpt lat="41.60038" lon="2.35415">
        <ele>176</ele>
        <time>2021-11-13 09:04:49</time>
      </trkpt>
      <trkpt lat="41.60039" lon="2.3542">
        <ele>176.2</ele>
        <time>2021-11-13 09:04:50</time>
      </trkpt>
      <trkpt lat="41.60041" lon="2.35424">
        <ele>176.4</ele>
        <time>2021-11-13 09:04:51</time>
      </trkpt>
      <trkpt lat="41.60043" lon="2.35429">
        <ele>176.4</ele>
        <time>2021-11-13 09:04:52</time>
      </trkpt>
      <trkpt lat="41.60044" lon="2.35433">
        <ele>176.8</ele>
        <time>2021-11-13 09:04:53</time>
      </trkpt>
      <trkpt lat="41.60045" lon="2.35438">
        <ele>177</ele>
        <time>2021-11-13 09:04:54</time>
      </trkpt>
      <trkpt lat="41.60046" lon="2.35442">
        <ele>177.4</ele>
        <time>2021-11-13 09:04:55</time>
      </trkpt>
      <trkpt lat="41.60047" lon="2.35447">
        <ele>177.6</ele>
        <time>2021-11-13 09:04:56</time>
      </trkpt>
      <trkpt lat="41.60048" lon="2.35451">
        <ele>178.2</ele>
        <time>2021-11-13 09:04:57</time>
      </trkpt>
      <trkpt lat="41.6005" lon="2.35455">
        <ele>178.4</ele>
        <time>2021-11-13 09:04:58</time>
      </trkpt>
      <trkpt lat="41.60051" lon="2.35459">
        <ele>178.8</ele>
        <time>2021-11-13 09:04:59</time>
      </trkpt>
      <trkpt lat="41.60053" lon="2.35463">
        <ele>179</ele>
        <time>2021-11-13 09:05:00</time>
      </trkpt>
      <trkpt lat="41.60054" lon="2.35467">
        <ele>179.4</ele>
        <time>2021-11-13 09:05:01</time>
      </trkpt>
      <trkpt lat="41.60055" lon="2.35471">
        <ele>179.8</ele>
        <time>2021-11-13 09:05:02</time>
      </trkpt>
      <trkpt lat="41.60056" lon="2.35474">
        <ele>180</ele>
        <time>2021-11-13 09:05:03</time>
      </trkpt>
      <trkpt lat="41.60058" lon="2.35478">
        <ele>180.4</ele>
        <time>2021-11-13 09:05:04</time>
      </trkpt>
      <trkpt lat="41.60059" lon="2.35481">
        <ele>180.6</ele>
        <time>2021-11-13 09:05:05</time>
      </trkpt>
      <trkpt lat="41.6006" lon="2.35485">
        <ele>181.4</ele>
        <time>2021-11-13 09:05:06</time>
      </trkpt>
      <trkpt lat="41.60062" lon="2.35489">
        <ele>181.6</ele>
        <time>2021-11-13 09:05:07</time>
      </trkpt>
      <trkpt lat="41.60063" lon="2.35492">
        <ele>182</ele>
        <time>2021-11-13 09:05:08</time>
      </trkpt>
      <trkpt lat="41.60064" lon="2.35496">
        <ele>182.2</ele>
        <time>2021-11-13 09:05:09</time>
      </trkpt>
      <trkpt lat="41.60065" lon="2.35499">
        <ele>182.8</ele>
        <time>2021-11-13 09:05:10</time>
      </trkpt>
      <trkpt lat="41.60066" lon="2.35502">
        <ele>183.2</ele>
        <time>2021-11-13 09:05:11</time>
      </trkpt>
      <trkpt lat="41.60068" lon="2.35506">
        <ele>183.4</ele>
        <time>2021-11-13 09:05:12</time>
      </trkpt>
      <trkpt lat="41.6007" lon="2.35509">
        <ele>183.8</ele>
        <time>2021-11-13 09:05:13</time>
      </trkpt>
      <trkpt lat="41.60071" lon="2.35513">
        <ele>184.2</ele>
        <time>2021-11-13 09:05:14</time>
      </trkpt>
      <trkpt lat="41.60073" lon="2.35516">
        <ele>184.8</ele>
        <time>2021-11-13 09:05:15</time>
      </trkpt>
      <trkpt lat="41.60074" lon="2.3552">
        <ele>185</ele>
        <time>2021-11-13 09:05:16</time>
      </trkpt>
      <trkpt lat="41.60076" lon="2.35523">
        <ele>185.4</ele>
        <time>2021-11-13 09:05:17</time>
      </trkpt>
      <trkpt lat="41.60077" lon="2.35527">
        <ele>186</ele>
        <time>2021-11-13 09:05:18</time>
      </trkpt>
      <trkpt lat="41.60079" lon="2.3553">
        <ele>186.2</ele>
        <time>2021-11-13 09:05:19</time>
      </trkpt>
      <trkpt lat="41.60081" lon="2.35533">
        <ele>186.6</ele>
        <time>2021-11-13 09:05:20</time>
      </trkpt>
      <trkpt lat="41.60082" lon="2.35537">
        <ele>187</ele>
        <time>2021-11-13 09:05:21</time>
      </trkpt>
      <trkpt lat="41.60083" lon="2.3554">
        <ele>187.6</ele>
        <time>2021-11-13 09:05:22</time>
      </trkpt>
      <trkpt lat="41.60085" lon="2.35544">
        <ele>187.6</ele>
        <time>2021-11-13 09:05:23</time>
      </trkpt>
      <trkpt lat="41.60086" lon="2.35547">
        <ele>188</ele>
        <time>2021-11-13 09:05:24</time>
      </trkpt>
      <trkpt lat="41.60088" lon="2.35551">
        <ele>188.4</ele>
        <time>2021-11-13 09:05:25</time>
      </trkpt>
      <trkpt lat="41.6009" lon="2.35554">
        <ele>189</ele>
        <time>2021-11-13 09:05:26</time>
      </trkpt>
      <trkpt lat="41.60091" lon="2.35557">
        <ele>189.4</ele>
        <time>2021-11-13 09:05:27</time>
      </trkpt>
      <trkpt lat="41.60093" lon="2.35561">
        <ele>189.6</ele>
        <time>2021-11-13 09:05:28</time>
      </trkpt>
      <trkpt lat="41.60093" lon="2.35565">
        <ele>190.2</ele>
        <time>2021-11-13 09:05:29</time>
      </trkpt>
      <trkpt lat="41.60094" lon="2.35569">
        <ele>190.4</ele>
        <time>2021-11-13 09:05:30</time>
      </trkpt>
      <trkpt lat="41.60095" lon="2.35573">
        <ele>190.6</ele>
        <time>2021-11-13 09:05:31</time>
      </trkpt>
      <trkpt lat="41.60095" lon="2.35577">
        <ele>190.8</ele>
        <time>2021-11-13 09:05:32</time>
      </trkpt>
      <trkpt lat="41.60096" lon="2.35581">
        <ele>191</ele>
        <time>2021-11-13 09:05:33</time>
      </trkpt>
      <trkpt lat="41.60097" lon="2.35585">
        <ele>191.2</ele>
        <time>2021-11-13 09:05:34</time>
      </trkpt>
      <trkpt lat="41.60099" lon="2.35588">
        <ele>191.8</ele>
        <time>2021-11-13 09:05:35</time>
      </trkpt>
      <trkpt lat="41.60101" lon="2.35591">
        <ele>192</ele>
        <time>2021-11-13 09:05:36</time>
      </trkpt>
      <trkpt lat="41.60104" lon="2.35593">
        <ele>192.4</ele>
        <time>2021-11-13 09:05:37</time>
      </trkpt>
      <trkpt lat="41.60107" lon="2.35595">
        <ele>192.6</ele>
        <time>2021-11-13 09:05:38</time>
      </trkpt>
      <trkpt lat="41.6011" lon="2.35596">
        <ele>192.8</ele>
        <time>2021-11-13 09:05:39</time>
      </trkpt>
      <trkpt lat="41.60113" lon="2.35597">
        <ele>193.2</ele>
        <time>2021-11-13 09:05:40</time>
      </trkpt>
      <trkpt lat="41.60116" lon="2.35598">
        <ele>193.4</ele>
        <time>2021-11-13 09:05:41</time>
      </trkpt>
      <trkpt lat="41.60119" lon="2.35599">
        <ele>193.8</ele>
        <time>2021-11-13 09:05:42</time>
      </trkpt>
      <trkpt lat="41.60122" lon="2.35601">
        <ele>194</ele>
        <time>2021-11-13 09:05:43</time>
      </trkpt>
      <trkpt lat="41.60126" lon="2.35602">
        <ele>194.4</ele>
        <time>2021-11-13 09:05:44</time>
      </trkpt>
      <trkpt lat="41.6013" lon="2.35604">
        <ele>194.6</ele>
        <time>2021-11-13 09:05:45</time>
      </trkpt>
      <trkpt lat="41.60134" lon="2.35606">
        <ele>194.6</ele>
        <time>2021-11-13 09:05:46</time>
      </trkpt>
      <trkpt lat="41.60138" lon="2.35608">
        <ele>194.6</ele>
        <time>2021-11-13 09:05:47</time>
      </trkpt>
      <trkpt lat="41.60143" lon="2.3561">
        <ele>194.8</ele>
        <time>2021-11-13 09:05:48</time>
      </trkpt>
      <trkpt lat="41.60149" lon="2.35612">
        <ele>194.8</ele>
        <time>2021-11-13 09:05:49</time>
      </trkpt>
      <trkpt lat="41.60154" lon="2.35615">
        <ele>194.8</ele>
        <time>2021-11-13 09:05:50</time>
      </trkpt>
      <trkpt lat="41.60161" lon="2.35618">
        <ele>194.8</ele>
        <time>2021-11-13 09:05:51</time>
      </trkpt>
      <trkpt lat="41.60167" lon="2.35621">
        <ele>194.8</ele>
        <time>2021-11-13 09:05:52</time>
      </trkpt>
      <trkpt lat="41.60174" lon="2.35624">
        <ele>194.8</ele>
        <time>2021-11-13 09:05:53</time>
      </trkpt>
      <trkpt lat="41.60181" lon="2.35627">
        <ele>194.6</ele>
        <time>2021-11-13 09:05:54</time>
      </trkpt>
      <trkpt lat="41.60188" lon="2.3563">
        <ele>194.4</ele>
        <time>2021-11-13 09:05:55</time>
      </trkpt>
      <trkpt lat="41.60195" lon="2.35633">
        <ele>194.2</ele>
        <time>2021-11-13 09:05:56</time>
      </trkpt>
      <trkpt lat="41.60203" lon="2.35636">
        <ele>194</ele>
        <time>2021-11-13 09:05:57</time>
      </trkpt>
      <trkpt lat="41.6021" lon="2.35639">
        <ele>193.6</ele>
        <time>2021-11-13 09:05:58</time>
      </trkpt>
      <trkpt lat="41.60217" lon="2.35641">
        <ele>193.4</ele>
        <time>2021-11-13 09:05:59</time>
      </trkpt>
      <trkpt lat="41.60224" lon="2.35644">
        <ele>192.8</ele>
        <time>2021-11-13 09:06:00</time>
      </trkpt>
      <trkpt lat="41.6023" lon="2.35646">
        <ele>192.6</ele>
        <time>2021-11-13 09:06:01</time>
      </trkpt>
      <trkpt lat="41.60236" lon="2.35649">
        <ele>192.2</ele>
        <time>2021-11-13 09:06:02</time>
      </trkpt>
      <trkpt lat="41.60242" lon="2.35651">
        <ele>192</ele>
        <time>2021-11-13 09:06:03</time>
      </trkpt>
      <trkpt lat="41.60248" lon="2.35653">
        <ele>192</ele>
        <time>2021-11-13 09:06:04</time>
      </trkpt>
      <trkpt lat="41.60253" lon="2.35655">
        <ele>191.8</ele>
        <time>2021-11-13 09:06:05</time>
      </trkpt>
      <trkpt lat="41.60259" lon="2.35657">
        <ele>191.8</ele>
        <time>2021-11-13 09:06:06</time>
      </trkpt>
      <trkpt lat="41.60264" lon="2.35659">
        <ele>191.8</ele>
        <time>2021-11-13 09:06:07</time>
      </trkpt>
      <trkpt lat="41.60269" lon="2.35661">
        <ele>191.8</ele>
        <time>2021-11-13 09:06:08</time>
      </trkpt>
      <trkpt lat="41.60274" lon="2.35662">
        <ele>191.8</ele>
        <time>2021-11-13 09:06:09</time>
      </trkpt>
      <trkpt lat="41.60279" lon="2.35664">
        <ele>192</ele>
        <time>2021-11-13 09:06:10</time>
      </trkpt>
      <trkpt lat="41.60284" lon="2.35666">
        <ele>192</ele>
        <time>2021-11-13 09:06:11</time>
      </trkpt>
      <trkpt lat="41.60289" lon="2.35668">
        <ele>192.2</ele>
        <time>2021-11-13 09:06:12</time>
      </trkpt>
      <trkpt lat="41.60293" lon="2.35669">
        <ele>192.4</ele>
        <time>2021-11-13 09:06:13</time>
      </trkpt>
      <trkpt lat="41.60298" lon="2.35671">
        <ele>193</ele>
        <time>2021-11-13 09:06:14</time>
      </trkpt>
      <trkpt lat="41.60302" lon="2.35672">
        <ele>193.2</ele>
        <time>2021-11-13 09:06:15</time>
      </trkpt>
      <trkpt lat="41.60306" lon="2.35673">
        <ele>193.6</ele>
        <time>2021-11-13 09:06:16</time>
      </trkpt>
      <trkpt lat="41.6031" lon="2.35673">
        <ele>193.8</ele>
        <time>2021-11-13 09:06:17</time>
      </trkpt>
      <trkpt lat="41.60314" lon="2.35673">
        <ele>194.2</ele>
        <time>2021-11-13 09:06:18</time>
      </trkpt>
      <trkpt lat="41.60319" lon="2.35672">
        <ele>194.6</ele>
        <time>2021-11-13 09:06:19</time>
      </trkpt>
      <trkpt lat="41.60323" lon="2.35671">
        <ele>194.6</ele>
        <time>2021-11-13 09:06:20</time>
      </trkpt>
      <trkpt lat="41.60327" lon="2.3567">
        <ele>195.2</ele>
        <time>2021-11-13 09:06:21</time>
      </trkpt>
      <trkpt lat="41.60332" lon="2.35668">
        <ele>195.4</ele>
        <time>2021-11-13 09:06:22</time>
      </trkpt>
      <trkpt lat="41.60336" lon="2.35666">
        <ele>195.8</ele>
        <time>2021-11-13 09:06:23</time>
      </trkpt>
      <trkpt lat="41.6034" lon="2.35663">
        <ele>196</ele>
        <time>2021-11-13 09:06:24</time>
      </trkpt>
      <trkpt lat="41.60345" lon="2.3566">
        <ele>196.2</ele>
        <time>2021-11-13 09:06:25</time>
      </trkpt>
      <trkpt lat="41.60349" lon="2.35655">
        <ele>196.4</ele>
        <time>2021-11-13 09:06:26</time>
      </trkpt>
      <trkpt lat="41.60353" lon="2.35651">
        <ele>196.6</ele>
        <time>2021-11-13 09:06:27</time>
      </trkpt>
      <trkpt lat="41.60357" lon="2.35646">
        <ele>196.8</ele>
        <time>2021-11-13 09:06:28</time>
      </trkpt>
      <trkpt lat="41.60361" lon="2.35642">
        <ele>197</ele>
        <time>2021-11-13 09:06:29</time>
      </trkpt>
      <trkpt lat="41.60364" lon="2.35637">
        <ele>197</ele>
        <time>2021-11-13 09:06:30</time>
      </trkpt>
      <trkpt lat="41.60368" lon="2.35632">
        <ele>197.2</ele>
        <time>2021-11-13 09:06:31</time>
      </trkpt>
      <trkpt lat="41.60371" lon="2.35628">
        <ele>197.4</ele>
        <time>2021-11-13 09:06:32</time>
      </trkpt>
      <trkpt lat="41.60374" lon="2.35625">
        <ele>197.4</ele>
        <time>2021-11-13 09:06:33</time>
      </trkpt>
      <trkpt lat="41.60377" lon="2.35622">
        <ele>197.6</ele>
        <time>2021-11-13 09:06:34</time>
      </trkpt>
      <trkpt lat="41.60379" lon="2.35623">
        <ele>197.8</ele>
        <time>2021-11-13 09:06:35</time>
      </trkpt>
      <trkpt lat="41.6038" lon="2.35625">
        <ele>197.8</ele>
        <time>2021-11-13 09:06:36</time>
      </trkpt>
      <trkpt lat="41.6038" lon="2.35629">
        <ele>198</ele>
        <time>2021-11-13 09:06:37</time>
      </trkpt>
      <trkpt lat="41.60379" lon="2.35632">
        <ele>198</ele>
        <time>2021-11-13 09:06:38</time>
      </trkpt>
      <trkpt lat="41.60378" lon="2.35636">
        <ele>198.2</ele>
        <time>2021-11-13 09:06:39</time>
      </trkpt>
      <trkpt lat="41.60378" lon="2.35641">
        <ele>198.2</ele>
        <time>2021-11-13 09:06:40</time>
      </trkpt>
      <trkpt lat="41.60377" lon="2.35645">
        <ele>198.4</ele>
        <time>2021-11-13 09:06:41</time>
      </trkpt>
      <trkpt lat="41.60376" lon="2.3565">
        <ele>198.4</ele>
        <time>2021-11-13 09:06:42</time>
      </trkpt>
      <trkpt lat="41.60375" lon="2.35655">
        <ele>198.6</ele>
        <time>2021-11-13 09:06:43</time>
      </trkpt>
      <trkpt lat="41.60375" lon="2.3566">
        <ele>198.6</ele>
        <time>2021-11-13 09:06:44</time>
      </trkpt>
      <trkpt lat="41.60374" lon="2.35664">
        <ele>198.6</ele>
        <time>2021-11-13 09:06:45</time>
      </trkpt>
      <trkpt lat="41.60372" lon="2.35669">
        <ele>198.8</ele>
        <time>2021-11-13 09:06:46</time>
      </trkpt>
      <trkpt lat="41.60372" lon="2.35674">
        <ele>198.8</ele>
        <time>2021-11-13 09:06:47</time>
      </trkpt>
      <trkpt lat="41.60371" lon="2.35678">
        <ele>199</ele>
        <time>2021-11-13 09:06:48</time>
      </trkpt>
      <trkpt lat="41.6037" lon="2.35682">
        <ele>199.2</ele>
        <time>2021-11-13 09:06:49</time>
      </trkpt>
      <trkpt lat="41.6037" lon="2.35687">
        <ele>199.6</ele>
        <time>2021-11-13 09:06:50</time>
      </trkpt>
      <trkpt lat="41.60369" lon="2.35691">
        <ele>199.8</ele>
        <time>2021-11-13 09:06:51</time>
      </trkpt>
      <trkpt lat="41.60368" lon="2.35696">
        <ele>200.2</ele>
        <time>2021-11-13 09:06:52</time>
      </trkpt>
      <trkpt lat="41.60368" lon="2.357">
        <ele>200.4</ele>
        <time>2021-11-13 09:06:53</time>
      </trkpt>
      <trkpt lat="41.60367" lon="2.35704">
        <ele>200.6</ele>
        <time>2021-11-13 09:06:54</time>
      </trkpt>
      <trkpt lat="41.60366" lon="2.35708">
        <ele>200.6</ele>
        <time>2021-11-13 09:06:55</time>
      </trkpt>
      <trkpt lat="41.60366" lon="2.35712">
        <ele>200.8</ele>
        <time>2021-11-13 09:06:56</time>
      </trkpt>
      <trkpt lat="41.60365" lon="2.35717">
        <ele>201</ele>
        <time>2021-11-13 09:06:57</time>
      </trkpt>
      <trkpt lat="41.60365" lon="2.35721">
        <ele>201.2</ele>
        <time>2021-11-13 09:06:58</time>
      </trkpt>
      <trkpt lat="41.60364" lon="2.35726">
        <ele>201.6</ele>
        <time>2021-11-13 09:06:59</time>
      </trkpt>
      <trkpt lat="41.60363" lon="2.3573">
        <ele>202</ele>
        <time>2021-11-13 09:07:00</time>
      </trkpt>
      <trkpt lat="41.60362" lon="2.35734">
        <ele>202.6</ele>
        <time>2021-11-13 09:07:01</time>
      </trkpt>
      <trkpt lat="41.60362" lon="2.35739">
        <ele>202.8</ele>
        <time>2021-11-13 09:07:02</time>
      </trkpt>
      <trkpt lat="41.60361" lon="2.35743">
        <ele>203.2</ele>
        <time>2021-11-13 09:07:03</time>
      </trkpt>
      <trkpt lat="41.6036" lon="2.35747">
        <ele>203.8</ele>
        <time>2021-11-13 09:07:04</time>
      </trkpt>
      <trkpt lat="41.60359" lon="2.35751">
        <ele>204.2</ele>
        <time>2021-11-13 09:07:05</time>
      </trkpt>
      <trkpt lat="41.60359" lon="2.35755">
        <ele>204.4</ele>
        <time>2021-11-13 09:07:06</time>
      </trkpt>
      <trkpt lat="41.60358" lon="2.35759">
        <ele>204.6</ele>
        <time>2021-11-13 09:07:07</time>
      </trkpt>
      <trkpt lat="41.60358" lon="2.35763">
        <ele>205.2</ele>
        <time>2021-11-13 09:07:08</time>
      </trkpt>
      <trkpt lat="41.60357" lon="2.35768">
        <ele>205</ele>
        <time>2021-11-13 09:07:09</time>
      </trkpt>
      <trkpt lat="41.60357" lon="2.35772">
        <ele>205.4</ele>
        <time>2021-11-13 09:07:10</time>
      </trkpt>
      <trkpt lat="41.60356" lon="2.35776">
        <ele>206</ele>
        <time>2021-11-13 09:07:11</time>
      </trkpt>
      <trkpt lat="41.60356" lon="2.35781">
        <ele>206.2</ele>
        <time>2021-11-13 09:07:12</time>
      </trkpt>
      <trkpt lat="41.60356" lon="2.35785">
        <ele>206.8</ele>
        <time>2021-11-13 09:07:13</time>
      </trkpt>
      <trkpt lat="41.60355" lon="2.3579">
        <ele>207</ele>
        <time>2021-11-13 09:07:14</time>
      </trkpt>
      <trkpt lat="41.60355" lon="2.35795">
        <ele>207.4</ele>
        <time>2021-11-13 09:07:15</time>
      </trkpt>
      <trkpt lat="41.60354" lon="2.35799">
        <ele>207.6</ele>
        <time>2021-11-13 09:07:16</time>
      </trkpt>
      <trkpt lat="41.60353" lon="2.35804">
        <ele>208</ele>
        <time>2021-11-13 09:07:17</time>
      </trkpt>
      <trkpt lat="41.60353" lon="2.35809">
        <ele>208.2</ele>
        <time>2021-11-13 09:07:18</time>
      </trkpt>
      <trkpt lat="41.60353" lon="2.35813">
        <ele>208.4</ele>
        <time>2021-11-13 09:07:19</time>
      </trkpt>
      <trkpt lat="41.60353" lon="2.35817">
        <ele>208.6</ele>
        <time>2021-11-13 09:07:20</time>
      </trkpt>
      <trkpt lat="41.60352" lon="2.35822">
        <ele>208.8</ele>
        <time>2021-11-13 09:07:21</time>
      </trkpt>
      <trkpt lat="41.60352" lon="2.35826">
        <ele>209.2</ele>
        <time>2021-11-13 09:07:22</time>
      </trkpt>
      <trkpt lat="41.60352" lon="2.35831">
        <ele>209.4</ele>
        <time>2021-11-13 09:07:23</time>
      </trkpt>
      <trkpt lat="41.60352" lon="2.35835">
        <ele>209.8</ele>
        <time>2021-11-13 09:07:24</time>
      </trkpt>
      <trkpt lat="41.60352" lon="2.35839">
        <ele>210</ele>
        <time>2021-11-13 09:07:25</time>
      </trkpt>
      <trkpt lat="41.60352" lon="2.35843">
        <ele>210.6</ele>
        <time>2021-11-13 09:07:26</time>
      </trkpt>
      <trkpt lat="41.60352" lon="2.35847">
        <ele>210.8</ele>
        <time>2021-11-13 09:07:27</time>
      </trkpt>
      <trkpt lat="41.60352" lon="2.35851">
        <ele>211.2</ele>
        <time>2021-11-13 09:07:28</time>
      </trkpt>
      <trkpt lat="41.60352" lon="2.35855">
        <ele>211.6</ele>
        <time>2021-11-13 09:07:29</time>
      </trkpt>
      <trkpt lat="41.60352" lon="2.35859">
        <ele>211.8</ele>
        <time>2021-11-13 09:07:30</time>
      </trkpt>
      <trkpt lat="41.60353" lon="2.35863">
        <ele>212</ele>
        <time>2021-11-13 09:07:31</time>
      </trkpt>
      <trkpt lat="41.60353" lon="2.35866">
        <ele>212.2</ele>
        <time>2021-11-13 09:07:32</time>
      </trkpt>
      <trkpt lat="41.60354" lon="2.3587">
        <ele>212.8</ele>
        <time>2021-11-13 09:07:33</time>
      </trkpt>
      <trkpt lat="41.60354" lon="2.35874">
        <ele>213</ele>
        <time>2021-11-13 09:07:34</time>
      </trkpt>
      <trkpt lat="41.60354" lon="2.35877">
        <ele>213.4</ele>
        <time>2021-11-13 09:07:35</time>
      </trkpt>
      <trkpt lat="41.60355" lon="2.3588">
        <ele>213.6</ele>
        <time>2021-11-13 09:07:36</time>
      </trkpt>
      <trkpt lat="41.60356" lon="2.35883">
        <ele>214</ele>
        <time>2021-11-13 09:07:37</time>
      </trkpt>
      <trkpt lat="41.60357" lon="2.35887">
        <ele>214.2</ele>
        <time>2021-11-13 09:07:38</time>
      </trkpt>
      <trkpt lat="41.60358" lon="2.3589">
        <ele>214.4</ele>
        <time>2021-11-13 09:07:39</time>
      </trkpt>
      <trkpt lat="41.6036" lon="2.35894">
        <ele>214.8</ele>
        <time>2021-11-13 09:07:40</time>
      </trkpt>
      <trkpt lat="41.60361" lon="2.35897">
        <ele>215.2</ele>
        <time>2021-11-13 09:07:41</time>
      </trkpt>
      <trkpt lat="41.60362" lon="2.35901">
        <ele>215.6</ele>
        <time>2021-11-13 09:07:42</time>
      </trkpt>
      <trkpt lat="41.60363" lon="2.35904">
        <ele>215.8</ele>
        <time>2021-11-13 09:07:43</time>
      </trkpt>
      <trkpt lat="41.60364" lon="2.35907">
        <ele>216.2</ele>
        <time>2021-11-13 09:07:44</time>
      </trkpt>
      <trkpt lat="41.60364" lon="2.3591">
        <ele>216.4</ele>
        <time>2021-11-13 09:07:45</time>
      </trkpt>
      <trkpt lat="41.60366" lon="2.35913">
        <ele>216.6</ele>
        <time>2021-11-13 09:07:46</time>
      </trkpt>
      <trkpt lat="41.60367" lon="2.35917">
        <ele>217.2</ele>
        <time>2021-11-13 09:07:47</time>
      </trkpt>
      <trkpt lat="41.60368" lon="2.35921">
        <ele>217.6</ele>
        <time>2021-11-13 09:07:48</time>
      </trkpt>
      <trkpt lat="41.60369" lon="2.35924">
        <ele>218.2</ele>
        <time>2021-11-13 09:07:49</time>
      </trkpt>
      <trkpt lat="41.60369" lon="2.35928">
        <ele>218.4</ele>
        <time>2021-11-13 09:07:50</time>
      </trkpt>
      <trkpt lat="41.6037" lon="2.35932">
        <ele>219</ele>
        <time>2021-11-13 09:07:51</time>
      </trkpt>
      <trkpt lat="41.60371" lon="2.35936">
        <ele>219.2</ele>
        <time>2021-11-13 09:07:52</time>
      </trkpt>
      <trkpt lat="41.60372" lon="2.3594">
        <ele>219.8</ele>
        <time>2021-11-13 09:07:53</time>
      </trkpt>
      <trkpt lat="41.60373" lon="2.35945">
        <ele>220</ele>
        <time>2021-11-13 09:07:54</time>
      </trkpt>
      <trkpt lat="41.60373" lon="2.35949">
        <ele>220.6</ele>
        <time>2021-11-13 09:07:55</time>
      </trkpt>
      <trkpt lat="41.60373" lon="2.35954">
        <ele>221</ele>
        <time>2021-11-13 09:07:56</time>
      </trkpt>
      <trkpt lat="41.60373" lon="2.35958">
        <ele>221.4</ele>
        <time>2021-11-13 09:07:57</time>
      </trkpt>
      <trkpt lat="41.60374" lon="2.35963">
        <ele>222</ele>
        <time>2021-11-13 09:07:58</time>
      </trkpt>
      <trkpt lat="41.60374" lon="2.35967">
        <ele>222.2</ele>
        <time>2021-11-13 09:07:59</time>
      </trkpt>
      <trkpt lat="41.60374" lon="2.35971">
        <ele>222.6</ele>
        <time>2021-11-13 09:08:00</time>
      </trkpt>
      <trkpt lat="41.60373" lon="2.35975">
        <ele>222.6</ele>
        <time>2021-11-13 09:08:01</time>
      </trkpt>
      <trkpt lat="41.60372" lon="2.35978">
        <ele>223</ele>
        <time>2021-11-13 09:08:02</time>
      </trkpt>
      <trkpt lat="41.60371" lon="2.35981">
        <ele>223</ele>
        <time>2021-11-13 09:08:03</time>
      </trkpt>
      <trkpt lat="41.6037" lon="2.35986">
        <ele>223.6</ele>
        <time>2021-11-13 09:08:04</time>
      </trkpt>
      <trkpt lat="41.6037" lon="2.35991">
        <ele>224.2</ele>
        <time>2021-11-13 09:08:05</time>
      </trkpt>
      <trkpt lat="41.6037" lon="2.35995">
        <ele>224.4</ele>
        <time>2021-11-13 09:08:06</time>
      </trkpt>
      <trkpt lat="41.6037" lon="2.35999">
        <ele>224.8</ele>
        <time>2021-11-13 09:08:07</time>
      </trkpt>
      <trkpt lat="41.6037" lon="2.36003">
        <ele>225</ele>
        <time>2021-11-13 09:08:08</time>
      </trkpt>
      <trkpt lat="41.60371" lon="2.36009">
        <ele>225.4</ele>
        <time>2021-11-13 09:08:09</time>
      </trkpt>
      <trkpt lat="41.6037" lon="2.36015">
        <ele>225.4</ele>
        <time>2021-11-13 09:08:10</time>
      </trkpt>
      <trkpt lat="41.60369" lon="2.3602">
        <ele>225.8</ele>
        <time>2021-11-13 09:08:11</time>
      </trkpt>
      <trkpt lat="41.60368" lon="2.36024">
        <ele>226.2</ele>
        <time>2021-11-13 09:08:12</time>
      </trkpt>
      <trkpt lat="41.60367" lon="2.36027">
        <ele>226.4</ele>
        <time>2021-11-13 09:08:13</time>
      </trkpt>
      <trkpt lat="41.60366" lon="2.36031">
        <ele>226.8</ele>
        <time>2021-11-13 09:08:14</time>
      </trkpt>
      <trkpt lat="41.60366" lon="2.36035">
        <ele>227</ele>
        <time>2021-11-13 09:08:15</time>
      </trkpt>
      <trkpt lat="41.60365" lon="2.3604">
        <ele>227.4</ele>
        <time>2021-11-13 09:08:16</time>
      </trkpt>
      <trkpt lat="41.60364" lon="2.36044">
        <ele>227.6</ele>
        <time>2021-11-13 09:08:17</time>
      </trkpt>
      <trkpt lat="41.60364" lon="2.36048">
        <ele>227.8</ele>
        <time>2021-11-13 09:08:18</time>
      </trkpt>
      <trkpt lat="41.60364" lon="2.36052">
        <ele>228.2</ele>
        <time>2021-11-13 09:08:19</time>
      </trkpt>
      <trkpt lat="41.60364" lon="2.36056">
        <ele>228.8</ele>
        <time>2021-11-13 09:08:20</time>
      </trkpt>
      <trkpt lat="41.60363" lon="2.36061">
        <ele>229</ele>
        <time>2021-11-13 09:08:21</time>
      </trkpt>
      <trkpt lat="41.60363" lon="2.36064">
        <ele>229.4</ele>
        <time>2021-11-13 09:08:22</time>
      </trkpt>
      <trkpt lat="41.60362" lon="2.36068">
        <ele>229.6</ele>
        <time>2021-11-13 09:08:23</time>
      </trkpt>
      <trkpt lat="41.60361" lon="2.36072">
        <ele>230</ele>
        <time>2021-11-13 09:08:24</time>
      </trkpt>
      <trkpt lat="41.60361" lon="2.36076">
        <ele>230.4</ele>
        <time>2021-11-13 09:08:25</time>
      </trkpt>
      <trkpt lat="41.60361" lon="2.3608">
        <ele>230.4</ele>
        <time>2021-11-13 09:08:26</time>
      </trkpt>
      <trkpt lat="41.60361" lon="2.36084">
        <ele>230.6</ele>
        <time>2021-11-13 09:08:27</time>
      </trkpt>
      <trkpt lat="41.6036" lon="2.36088">
        <ele>230.6</ele>
        <time>2021-11-13 09:08:28</time>
      </trkpt>
      <trkpt lat="41.6036" lon="2.36091">
        <ele>231.2</ele>
        <time>2021-11-13 09:08:29</time>
      </trkpt>
      <trkpt lat="41.6036" lon="2.36095">
        <ele>231.4</ele>
        <time>2021-11-13 09:08:30</time>
      </trkpt>
      <trkpt lat="41.6036" lon="2.36099">
        <ele>231.6</ele>
        <time>2021-11-13 09:08:31</time>
      </trkpt>
      <trkpt lat="41.60361" lon="2.36104">
        <ele>232</ele>
        <time>2021-11-13 09:08:32</time>
      </trkpt>
      <trkpt lat="41.60361" lon="2.36108">
        <ele>232.2</ele>
        <time>2021-11-13 09:08:33</time>
      </trkpt>
      <trkpt lat="41.60361" lon="2.36112">
        <ele>232.4</ele>
        <time>2021-11-13 09:08:34</time>
      </trkpt>
      <trkpt lat="41.60362" lon="2.36116">
        <ele>232.6</ele>
        <time>2021-11-13 09:08:35</time>
      </trkpt>
      <trkpt lat="41.60362" lon="2.36121">
        <ele>232.8</ele>
        <time>2021-11-13 09:08:36</time>
      </trkpt>
      <trkpt lat="41.60363" lon="2.36126">
        <ele>233</ele>
        <time>2021-11-13 09:08:37</time>
      </trkpt>
      <trkpt lat="41.60364" lon="2.36131">
        <ele>233.2</ele>
        <time>2021-11-13 09:08:38</time>
      </trkpt>
      <trkpt lat="41.60365" lon="2.36136">
        <ele>233.4</ele>
        <time>2021-11-13 09:08:39</time>
      </trkpt>
      <trkpt lat="41.60365" lon="2.3614">
        <ele>233.6</ele>
        <time>2021-11-13 09:08:40</time>
      </trkpt>
      <trkpt lat="41.60367" lon="2.36145">
        <ele>233.8</ele>
        <time>2021-11-13 09:08:41</time>
      </trkpt>
      <trkpt lat="41.60368" lon="2.3615">
        <ele>233.8</ele>
        <time>2021-11-13 09:08:42</time>
      </trkpt>
      <trkpt lat="41.6037" lon="2.36155">
        <ele>234.2</ele>
        <time>2021-11-13 09:08:43</time>
      </trkpt>
      <trkpt lat="41.60371" lon="2.3616">
        <ele>234.2</ele>
        <time>2021-11-13 09:08:44</time>
      </trkpt>
      <trkpt lat="41.60373" lon="2.36165">
        <ele>234.8</ele>
        <time>2021-11-13 09:08:45</time>
      </trkpt>
      <trkpt lat="41.60374" lon="2.36169">
        <ele>234.8</ele>
        <time>2021-11-13 09:08:46</time>
      </trkpt>
      <trkpt lat="41.60375" lon="2.36174">
        <ele>235.2</ele>
        <time>2021-11-13 09:08:47</time>
      </trkpt>
      <trkpt lat="41.60376" lon="2.36179">
        <ele>235.4</ele>
        <time>2021-11-13 09:08:48</time>
      </trkpt>
      <trkpt lat="41.60378" lon="2.36184">
        <ele>235.6</ele>
        <time>2021-11-13 09:08:49</time>
      </trkpt>
      <trkpt lat="41.6038" lon="2.36189">
        <ele>235.8</ele>
        <time>2021-11-13 09:08:50</time>
      </trkpt>
      <trkpt lat="41.60382" lon="2.36194">
        <ele>236</ele>
        <time>2021-11-13 09:08:51</time>
      </trkpt>
      <trkpt lat="41.60383" lon="2.362">
        <ele>236</ele>
        <time>2021-11-13 09:08:52</time>
      </trkpt>
      <trkpt lat="41.60385" lon="2.36205">
        <ele>236.2</ele>
        <time>2021-11-13 09:08:53</time>
      </trkpt>
      <trkpt lat="41.60386" lon="2.36209">
        <ele>236.6</ele>
        <time>2021-11-13 09:08:54</time>
      </trkpt>
      <trkpt lat="41.60388" lon="2.36215">
        <ele>236.8</ele>
        <time>2021-11-13 09:08:55</time>
      </trkpt>
      <trkpt lat="41.60389" lon="2.3622">
        <ele>237</ele>
        <time>2021-11-13 09:08:56</time>
      </trkpt>
      <trkpt lat="41.60391" lon="2.36226">
        <ele>237.2</ele>
        <time>2021-11-13 09:08:57</time>
      </trkpt>
      <trkpt lat="41.60393" lon="2.36231">
        <ele>237.2</ele>
        <time>2021-11-13 09:08:58</time>
      </trkpt>
      <trkpt lat="41.60395" lon="2.36237">
        <ele>237.4</ele>
        <time>2021-11-13 09:08:59</time>
      </trkpt>
      <trkpt lat="41.60396" lon="2.36243">
        <ele>237.6</ele>
        <time>2021-11-13 09:09:00</time>
      </trkpt>
      <trkpt lat="41.60398" lon="2.36249">
        <ele>237.6</ele>
        <time>2021-11-13 09:09:01</time>
      </trkpt>
      <trkpt lat="41.604" lon="2.36255">
        <ele>237.8</ele>
        <time>2021-11-13 09:09:02</time>
      </trkpt>
      <trkpt lat="41.60402" lon="2.36261">
        <ele>238</ele>
        <time>2021-11-13 09:09:03</time>
      </trkpt>
      <trkpt lat="41.60403" lon="2.36267">
        <ele>238.2</ele>
        <time>2021-11-13 09:09:04</time>
      </trkpt>
      <trkpt lat="41.60405" lon="2.36272">
        <ele>238.2</ele>
        <time>2021-11-13 09:09:05</time>
      </trkpt>
      <trkpt lat="41.60407" lon="2.36278">
        <ele>238.4</ele>
        <time>2021-11-13 09:09:06</time>
      </trkpt>
      <trkpt lat="41.60408" lon="2.36285">
        <ele>238.6</ele>
        <time>2021-11-13 09:09:07</time>
      </trkpt>
      <trkpt lat="41.6041" lon="2.36291">
        <ele>238.8</ele>
        <time>2021-11-13 09:09:08</time>
      </trkpt>
      <trkpt lat="41.60412" lon="2.36296">
        <ele>239</ele>
        <time>2021-11-13 09:09:09</time>
      </trkpt>
      <trkpt lat="41.60414" lon="2.36302">
        <ele>239</ele>
        <time>2021-11-13 09:09:10</time>
      </trkpt>
      <trkpt lat="41.60416" lon="2.36308">
        <ele>239.2</ele>
        <time>2021-11-13 09:09:11</time>
      </trkpt>
      <trkpt lat="41.60417" lon="2.36314">
        <ele>239.2</ele>
        <time>2021-11-13 09:09:12</time>
      </trkpt>
      <trkpt lat="41.60419" lon="2.36319">
        <ele>239.4</ele>
        <time>2021-11-13 09:09:13</time>
      </trkpt>
      <trkpt lat="41.60421" lon="2.36325">
        <ele>239.4</ele>
        <time>2021-11-13 09:09:14</time>
      </trkpt>
      <trkpt lat="41.60423" lon="2.36332">
        <ele>239.4</ele>
        <time>2021-11-13 09:09:15</time>
      </trkpt>
      <trkpt lat="41.60425" lon="2.36338">
        <ele>239.4</ele>
        <time>2021-11-13 09:09:16</time>
      </trkpt>
      <trkpt lat="41.60426" lon="2.36344">
        <ele>239.6</ele>
        <time>2021-11-13 09:09:17</time>
      </trkpt>
      <trkpt lat="41.60428" lon="2.36349">
        <ele>239.6</ele>
        <time>2021-11-13 09:09:18</time>
      </trkpt>
      <trkpt lat="41.6043" lon="2.36355">
        <ele>239.8</ele>
        <time>2021-11-13 09:09:19</time>
      </trkpt>
      <trkpt lat="41.60432" lon="2.3636">
        <ele>240</ele>
        <time>2021-11-13 09:09:20</time>
      </trkpt>
      <trkpt lat="41.60433" lon="2.36367">
        <ele>240.2</ele>
        <time>2021-11-13 09:09:21</time>
      </trkpt>
      <trkpt lat="41.60435" lon="2.36373">
        <ele>240.4</ele>
        <time>2021-11-13 09:09:22</time>
      </trkpt>
      <trkpt lat="41.60437" lon="2.36378">
        <ele>240.4</ele>
        <time>2021-11-13 09:09:23</time>
      </trkpt>
      <trkpt lat="41.60438" lon="2.36384">
        <ele>240.4</ele>
        <time>2021-11-13 09:09:24</time>
      </trkpt>
      <trkpt lat="41.6044" lon="2.3639">
        <ele>240.4</ele>
        <time>2021-11-13 09:09:25</time>
      </trkpt>
      <trkpt lat="41.60442" lon="2.36396">
        <ele>240.8</ele>
        <time>2021-11-13 09:09:26</time>
      </trkpt>
      <trkpt lat="41.60444" lon="2.36403">
        <ele>241</ele>
        <time>2021-11-13 09:09:27</time>
      </trkpt>
      <trkpt lat="41.60446" lon="2.36409">
        <ele>241</ele>
        <time>2021-11-13 09:09:28</time>
      </trkpt>
      <trkpt lat="41.60448" lon="2.36415">
        <ele>241.2</ele>
        <time>2021-11-13 09:09:29</time>
      </trkpt>
      <trkpt lat="41.6045" lon="2.36421">
        <ele>241.4</ele>
        <time>2021-11-13 09:09:30</time>
      </trkpt>
      <trkpt lat="41.60451" lon="2.36428">
        <ele>241.4</ele>
        <time>2021-11-13 09:09:31</time>
      </trkpt>
      <trkpt lat="41.60453" lon="2.36434">
        <ele>241.4</ele>
        <time>2021-11-13 09:09:32</time>
      </trkpt>
      <trkpt lat="41.60455" lon="2.36441">
        <ele>241.6</ele>
        <time>2021-11-13 09:09:33</time>
      </trkpt>
      <trkpt lat="41.60457" lon="2.36447">
        <ele>241.8</ele>
        <time>2021-11-13 09:09:34</time>
      </trkpt>
      <trkpt lat="41.6046" lon="2.36454">
        <ele>242</ele>
        <time>2021-11-13 09:09:35</time>
      </trkpt>
      <trkpt lat="41.60462" lon="2.36459">
        <ele>242</ele>
        <time>2021-11-13 09:09:36</time>
      </trkpt>
      <trkpt lat="41.60465" lon="2.36466">
        <ele>242.2</ele>
        <time>2021-11-13 09:09:37</time>
      </trkpt>
      <trkpt lat="41.60468" lon="2.36472">
        <ele>242.2</ele>
        <time>2021-11-13 09:09:38</time>
      </trkpt>
      <trkpt lat="41.60471" lon="2.36478">
        <ele>242.2</ele>
        <time>2021-11-13 09:09:39</time>
      </trkpt>
      <trkpt lat="41.60475" lon="2.36485">
        <ele>242.4</ele>
        <time>2021-11-13 09:09:40</time>
      </trkpt>
      <trkpt lat="41.60478" lon="2.36491">
        <ele>242.4</ele>
        <time>2021-11-13 09:09:41</time>
      </trkpt>
      <trkpt lat="41.60481" lon="2.36497">
        <ele>242.4</ele>
        <time>2021-11-13 09:09:42</time>
      </trkpt>
      <trkpt lat="41.60485" lon="2.36502">
        <ele>242.4</ele>
        <time>2021-11-13 09:09:43</time>
      </trkpt>
      <trkpt lat="41.60488" lon="2.36507">
        <ele>242.6</ele>
        <time>2021-11-13 09:09:44</time>
      </trkpt>
      <trkpt lat="41.60492" lon="2.36513">
        <ele>242.6</ele>
        <time>2021-11-13 09:09:45</time>
      </trkpt>
      <trkpt lat="41.60495" lon="2.3652">
        <ele>242.6</ele>
        <time>2021-11-13 09:09:46</time>
      </trkpt>
      <trkpt lat="41.60499" lon="2.36528">
        <ele>242.6</ele>
        <time>2021-11-13 09:09:47</time>
      </trkpt>
      <trkpt lat="41.60503" lon="2.36536">
        <ele>242.6</ele>
        <time>2021-11-13 09:09:48</time>
      </trkpt>
      <trkpt lat="41.60507" lon="2.36545">
        <ele>242.6</ele>
        <time>2021-11-13 09:09:49</time>
      </trkpt>
      <trkpt lat="41.60508" lon="2.36553">
        <ele>242.4</ele>
        <time>2021-11-13 09:09:50</time>
      </trkpt>
      <trkpt lat="41.6051" lon="2.36561">
        <ele>242.4</ele>
        <time>2021-11-13 09:09:51</time>
      </trkpt>
      <trkpt lat="41.60512" lon="2.3657">
        <ele>242.4</ele>
        <time>2021-11-13 09:09:52</time>
      </trkpt>
      <trkpt lat="41.60513" lon="2.36578">
        <ele>242.2</ele>
        <time>2021-11-13 09:09:53</time>
      </trkpt>
      <trkpt lat="41.60513" lon="2.36586">
        <ele>242.2</ele>
        <time>2021-11-13 09:09:54</time>
      </trkpt>
      <trkpt lat="41.60514" lon="2.36594">
        <ele>242.2</ele>
        <time>2021-11-13 09:09:55</time>
      </trkpt>
      <trkpt lat="41.60515" lon="2.36602">
        <ele>242</ele>
        <time>2021-11-13 09:09:56</time>
      </trkpt>
      <trkpt lat="41.60516" lon="2.3661">
        <ele>242</ele>
        <time>2021-11-13 09:09:57</time>
      </trkpt>
      <trkpt lat="41.60517" lon="2.36617">
        <ele>241.8</ele>
        <time>2021-11-13 09:09:58</time>
      </trkpt>
      <trkpt lat="41.60518" lon="2.36625">
        <ele>241.8</ele>
        <time>2021-11-13 09:09:59</time>
      </trkpt>
      <trkpt lat="41.60518" lon="2.36632">
        <ele>242.2</ele>
        <time>2021-11-13 09:10:00</time>
      </trkpt>
      <trkpt lat="41.60518" lon="2.36639">
        <ele>242</ele>
        <time>2021-11-13 09:10:01</time>
      </trkpt>
      <trkpt lat="41.60518" lon="2.36646">
        <ele>242.2</ele>
        <time>2021-11-13 09:10:02</time>
      </trkpt>
      <trkpt lat="41.60518" lon="2.36653">
        <ele>242.4</ele>
        <time>2021-11-13 09:10:03</time>
      </trkpt>
      <trkpt lat="41.60518" lon="2.36661">
        <ele>242.4</ele>
        <time>2021-11-13 09:10:04</time>
      </trkpt>
      <trkpt lat="41.60518" lon="2.36667">
        <ele>242.6</ele>
        <time>2021-11-13 09:10:05</time>
      </trkpt>
      <trkpt lat="41.60518" lon="2.36674">
        <ele>242.6</ele>
        <time>2021-11-13 09:10:06</time>
      </trkpt>
      <trkpt lat="41.60519" lon="2.36681">
        <ele>242.6</ele>
        <time>2021-11-13 09:10:07</time>
      </trkpt>
      <trkpt lat="41.60519" lon="2.36688">
        <ele>242.6</ele>
        <time>2021-11-13 09:10:08</time>
      </trkpt>
      <trkpt lat="41.60519" lon="2.36695">
        <ele>242.8</ele>
        <time>2021-11-13 09:10:09</time>
      </trkpt>
      <trkpt lat="41.6052" lon="2.36702">
        <ele>242.8</ele>
        <time>2021-11-13 09:10:10</time>
      </trkpt>
      <trkpt lat="41.60521" lon="2.3671">
        <ele>243</ele>
        <time>2021-11-13 09:10:11</time>
      </trkpt>
      <trkpt lat="41.60522" lon="2.36718">
        <ele>243</ele>
        <time>2021-11-13 09:10:12</time>
      </trkpt>
      <trkpt lat="41.60522" lon="2.36726">
        <ele>243</ele>
        <time>2021-11-13 09:10:13</time>
      </trkpt>
      <trkpt lat="41.60523" lon="2.36734">
        <ele>243</ele>
        <time>2021-11-13 09:10:14</time>
      </trkpt>
      <trkpt lat="41.60525" lon="2.36742">
        <ele>243.2</ele>
        <time>2021-11-13 09:10:15</time>
      </trkpt>
      <trkpt lat="41.60526" lon="2.36751">
        <ele>243.2</ele>
        <time>2021-11-13 09:10:16</time>
      </trkpt>
      <trkpt lat="41.60528" lon="2.36759">
        <ele>243.2</ele>
        <time>2021-11-13 09:10:17</time>
      </trkpt>
      <trkpt lat="41.6053" lon="2.36768">
        <ele>243.2</ele>
        <time>2021-11-13 09:10:18</time>
      </trkpt>
      <trkpt lat="41.60534" lon="2.36777">
        <ele>243.2</ele>
        <time>2021-11-13 09:10:19</time>
      </trkpt>
      <trkpt lat="41.60537" lon="2.36785">
        <ele>243.2</ele>
        <time>2021-11-13 09:10:20</time>
      </trkpt>
      <trkpt lat="41.60541" lon="2.36793">
        <ele>243</ele>
        <time>2021-11-13 09:10:21</time>
      </trkpt>
      <trkpt lat="41.60545" lon="2.36801">
        <ele>243</ele>
        <time>2021-11-13 09:10:22</time>
      </trkpt>
      <trkpt lat="41.60549" lon="2.3681">
        <ele>242.6</ele>
        <time>2021-11-13 09:10:23</time>
      </trkpt>
      <trkpt lat="41.60553" lon="2.36817">
        <ele>242.4</ele>
        <time>2021-11-13 09:10:24</time>
      </trkpt>
      <trkpt lat="41.60557" lon="2.36825">
        <ele>242.2</ele>
        <time>2021-11-13 09:10:25</time>
      </trkpt>
      <trkpt lat="41.60561" lon="2.36832">
        <ele>242</ele>
        <time>2021-11-13 09:10:26</time>
      </trkpt>
      <trkpt lat="41.60565" lon="2.36839">
        <ele>241.8</ele>
        <time>2021-11-13 09:10:27</time>
      </trkpt>
      <trkpt lat="41.60568" lon="2.36846">
        <ele>241.8</ele>
        <time>2021-11-13 09:10:28</time>
      </trkpt>
      <trkpt lat="41.60571" lon="2.36853">
        <ele>241.8</ele>
        <time>2021-11-13 09:10:29</time>
      </trkpt>
      <trkpt lat="41.60573" lon="2.3686">
        <ele>241.8</ele>
        <time>2021-11-13 09:10:30</time>
      </trkpt>
      <trkpt lat="41.60576" lon="2.36866">
        <ele>241.4</ele>
        <time>2021-11-13 09:10:31</time>
      </trkpt>
      <trkpt lat="41.60578" lon="2.36872">
        <ele>241.4</ele>
        <time>2021-11-13 09:10:32</time>
      </trkpt>
      <trkpt lat="41.60579" lon="2.36877">
        <ele>241.4</ele>
        <time>2021-11-13 09:10:33</time>
      </trkpt>
      <trkpt lat="41.60581" lon="2.36882">
        <ele>241.8</ele>
        <time>2021-11-13 09:10:34</time>
      </trkpt>
      <trkpt lat="41.60582" lon="2.36887">
        <ele>242</ele>
        <time>2021-11-13 09:10:35</time>
      </trkpt>
      <trkpt lat="41.60583" lon="2.36892">
        <ele>242.2</ele>
        <time>2021-11-13 09:10:36</time>
      </trkpt>
      <trkpt lat="41.60585" lon="2.36896">
        <ele>242.4</ele>
        <time>2021-11-13 09:10:37</time>
      </trkpt>
      <trkpt lat="41.60586" lon="2.36899">
        <ele>243</ele>
        <time>2021-11-13 09:10:38</time>
      </trkpt>
      <trkpt lat="41.60587" lon="2.36903">
        <ele>243.8</ele>
        <time>2021-11-13 09:10:39</time>
      </trkpt>
      <trkpt lat="41.60588" lon="2.36907">
        <ele>243.8</ele>
        <time>2021-11-13 09:10:40</time>
      </trkpt>
      <trkpt lat="41.6059" lon="2.3691">
        <ele>245</ele>
        <time>2021-11-13 09:10:41</time>
      </trkpt>
      <trkpt lat="41.60591" lon="2.36914">
        <ele>245.2</ele>
        <time>2021-11-13 09:10:42</time>
      </trkpt>
      <trkpt lat="41.60592" lon="2.36918">
        <ele>245.8</ele>
        <time>2021-11-13 09:10:43</time>
      </trkpt>
      <trkpt lat="41.60592" lon="2.36921">
        <ele>245.8</ele>
        <time>2021-11-13 09:10:44</time>
      </trkpt>
      <trkpt lat="41.60594" lon="2.36925">
        <ele>246.4</ele>
        <time>2021-11-13 09:10:45</time>
      </trkpt>
      <trkpt lat="41.60596" lon="2.36928">
        <ele>246.6</ele>
        <time>2021-11-13 09:10:46</time>
      </trkpt>
      <trkpt lat="41.60597" lon="2.36931">
        <ele>247.2</ele>
        <time>2021-11-13 09:10:47</time>
      </trkpt>
      <trkpt lat="41.60597" lon="2.36935">
        <ele>248</ele>
        <time>2021-11-13 09:10:48</time>
      </trkpt>
      <trkpt lat="41.60598" lon="2.36938">
        <ele>248.2</ele>
        <time>2021-11-13 09:10:49</time>
      </trkpt>
      <trkpt lat="41.60598" lon="2.36942">
        <ele>248.6</ele>
        <time>2021-11-13 09:10:50</time>
      </trkpt>
      <trkpt lat="41.60599" lon="2.36944">
        <ele>249</ele>
        <time>2021-11-13 09:10:51</time>
      </trkpt>
      <trkpt lat="41.606" lon="2.36947">
        <ele>249.4</ele>
        <time>2021-11-13 09:10:52</time>
      </trkpt>
      <trkpt lat="41.60601" lon="2.3695">
        <ele>249.6</ele>
        <time>2021-11-13 09:10:53</time>
      </trkpt>
      <trkpt lat="41.60601" lon="2.36953">
        <ele>250</ele>
        <time>2021-11-13 09:10:54</time>
      </trkpt>
      <trkpt lat="41.60602" lon="2.36956">
        <ele>250.4</ele>
        <time>2021-11-13 09:10:55</time>
      </trkpt>
      <trkpt lat="41.60602" lon="2.36959">
        <ele>251</ele>
        <time>2021-11-13 09:10:56</time>
      </trkpt>
      <trkpt lat="41.60603" lon="2.36962">
        <ele>251.6</ele>
        <time>2021-11-13 09:10:57</time>
      </trkpt>
      <trkpt lat="41.60603" lon="2.36965">
        <ele>251.8</ele>
        <time>2021-11-13 09:10:58</time>
      </trkpt>
      <trkpt lat="41.60604" lon="2.36969">
        <ele>252.4</ele>
        <time>2021-11-13 09:10:59</time>
      </trkpt>
      <trkpt lat="41.60605" lon="2.36972">
        <ele>252.8</ele>
        <time>2021-11-13 09:11:00</time>
      </trkpt>
      <trkpt lat="41.60606" lon="2.36975">
        <ele>253.4</ele>
        <time>2021-11-13 09:11:01</time>
      </trkpt>
      <trkpt lat="41.60608" lon="2.36979">
        <ele>253.8</ele>
        <time>2021-11-13 09:11:02</time>
      </trkpt>
      <trkpt lat="41.60609" lon="2.36982">
        <ele>254.4</ele>
        <time>2021-11-13 09:11:03</time>
      </trkpt>
      <trkpt lat="41.6061" lon="2.36985">
        <ele>254.6</ele>
        <time>2021-11-13 09:11:04</time>
      </trkpt>
      <trkpt lat="41.60611" lon="2.36988">
        <ele>255.2</ele>
        <time>2021-11-13 09:11:05</time>
      </trkpt>
      <trkpt lat="41.60612" lon="2.36991">
        <ele>255.8</ele>
        <time>2021-11-13 09:11:06</time>
      </trkpt>
      <trkpt lat="41.60614" lon="2.36994">
        <ele>256.2</ele>
        <time>2021-11-13 09:11:07</time>
      </trkpt>
      <trkpt lat="41.60614" lon="2.36997">
        <ele>256.8</ele>
        <time>2021-11-13 09:11:08</time>
      </trkpt>
      <trkpt lat="41.60615" lon="2.37">
        <ele>257</ele>
        <time>2021-11-13 09:11:09</time>
      </trkpt>
      <trkpt lat="41.60616" lon="2.37004">
        <ele>257.4</ele>
        <time>2021-11-13 09:11:10</time>
      </trkpt>
      <trkpt lat="41.60617" lon="2.37007">
        <ele>257.6</ele>
        <time>2021-11-13 09:11:11</time>
      </trkpt>
      <trkpt lat="41.60618" lon="2.3701">
        <ele>258</ele>
        <time>2021-11-13 09:11:12</time>
      </trkpt>
      <trkpt lat="41.60619" lon="2.37014">
        <ele>258.6</ele>
        <time>2021-11-13 09:11:13</time>
      </trkpt>
      <trkpt lat="41.6062" lon="2.37017">
        <ele>258.8</ele>
        <time>2021-11-13 09:11:14</time>
      </trkpt>
      <trkpt lat="41.60621" lon="2.37021">
        <ele>259.2</ele>
        <time>2021-11-13 09:11:15</time>
      </trkpt>
      <trkpt lat="41.60622" lon="2.37025">
        <ele>259.6</ele>
        <time>2021-11-13 09:11:16</time>
      </trkpt>
      <trkpt lat="41.60623" lon="2.37028">
        <ele>260</ele>
        <time>2021-11-13 09:11:17</time>
      </trkpt>
      <trkpt lat="41.60624" lon="2.37032">
        <ele>260.4</ele>
        <time>2021-11-13 09:11:18</time>
      </trkpt>
      <trkpt lat="41.60625" lon="2.37036">
        <ele>261</ele>
        <time>2021-11-13 09:11:19</time>
      </trkpt>
      <trkpt lat="41.60627" lon="2.37039">
        <ele>261.2</ele>
        <time>2021-11-13 09:11:20</time>
      </trkpt>
      <trkpt lat="41.60628" lon="2.37042">
        <ele>261.6</ele>
        <time>2021-11-13 09:11:21</time>
      </trkpt>
      <trkpt lat="41.60629" lon="2.37046">
        <ele>261.8</ele>
        <time>2021-11-13 09:11:22</time>
      </trkpt>
      <trkpt lat="41.60629" lon="2.37049">
        <ele>262.2</ele>
        <time>2021-11-13 09:11:23</time>
      </trkpt>
      <trkpt lat="41.6063" lon="2.37053">
        <ele>262.6</ele>
        <time>2021-11-13 09:11:24</time>
      </trkpt>
      <trkpt lat="41.60628" lon="2.37057">
        <ele>262.8</ele>
        <time>2021-11-13 09:11:25</time>
      </trkpt>
      <trkpt lat="41.6063" lon="2.3706">
        <ele>263.2</ele>
        <time>2021-11-13 09:11:26</time>
      </trkpt>
      <trkpt lat="41.60632" lon="2.37064">
        <ele>263.4</ele>
        <time>2021-11-13 09:11:27</time>
      </trkpt>
      <trkpt lat="41.60633" lon="2.37067">
        <ele>264</ele>
        <time>2021-11-13 09:11:28</time>
      </trkpt>
      <trkpt lat="41.60634" lon="2.3707">
        <ele>264</ele>
        <time>2021-11-13 09:11:29</time>
      </trkpt>
      <trkpt lat="41.60635" lon="2.37073">
        <ele>264.6</ele>
        <time>2021-11-13 09:11:30</time>
      </trkpt>
      <trkpt lat="41.60637" lon="2.37076">
        <ele>265</ele>
        <time>2021-11-13 09:11:31</time>
      </trkpt>
      <trkpt lat="41.60638" lon="2.37079">
        <ele>265.2</ele>
        <time>2021-11-13 09:11:32</time>
      </trkpt>
      <trkpt lat="41.60639" lon="2.37083">
        <ele>265.6</ele>
        <time>2021-11-13 09:11:33</time>
      </trkpt>
      <trkpt lat="41.6064" lon="2.37086">
        <ele>265.6</ele>
        <time>2021-11-13 09:11:34</time>
      </trkpt>
      <trkpt lat="41.60641" lon="2.37089">
        <ele>266</ele>
        <time>2021-11-13 09:11:35</time>
      </trkpt>
      <trkpt lat="41.60642" lon="2.37092">
        <ele>266.2</ele>
        <time>2021-11-13 09:11:36</time>
      </trkpt>
      <trkpt lat="41.60643" lon="2.37095">
        <ele>266.8</ele>
        <time>2021-11-13 09:11:37</time>
      </trkpt>
      <trkpt lat="41.60644" lon="2.37099">
        <ele>267</ele>
        <time>2021-11-13 09:11:38</time>
      </trkpt>
      <trkpt lat="41.60645" lon="2.37102">
        <ele>267.4</ele>
        <time>2021-11-13 09:11:39</time>
      </trkpt>
      <trkpt lat="41.60646" lon="2.37105">
        <ele>267.8</ele>
        <time>2021-11-13 09:11:40</time>
      </trkpt>
      <trkpt lat="41.60646" lon="2.37108">
        <ele>268</ele>
        <time>2021-11-13 09:11:41</time>
      </trkpt>
      <trkpt lat="41.60647" lon="2.37111">
        <ele>268.4</ele>
        <time>2021-11-13 09:11:42</time>
      </trkpt>
      <trkpt lat="41.60648" lon="2.37114">
        <ele>268.6</ele>
        <time>2021-11-13 09:11:43</time>
      </trkpt>
      <trkpt lat="41.60649" lon="2.37117">
        <ele>269.2</ele>
        <time>2021-11-13 09:11:44</time>
      </trkpt>
      <trkpt lat="41.60649" lon="2.3712">
        <ele>269.4</ele>
        <time>2021-11-13 09:11:45</time>
      </trkpt>
      <trkpt lat="41.60651" lon="2.37124">
        <ele>269.8</ele>
        <time>2021-11-13 09:11:46</time>
      </trkpt>
      <trkpt lat="41.60652" lon="2.37127">
        <ele>270.2</ele>
        <time>2021-11-13 09:11:47</time>
      </trkpt>
      <trkpt lat="41.60653" lon="2.3713">
        <ele>270.4</ele>
        <time>2021-11-13 09:11:48</time>
      </trkpt>
      <trkpt lat="41.60654" lon="2.37133">
        <ele>270.6</ele>
        <time>2021-11-13 09:11:49</time>
      </trkpt>
      <trkpt lat="41.60655" lon="2.37136">
        <ele>270.8</ele>
        <time>2021-11-13 09:11:50</time>
      </trkpt>
      <trkpt lat="41.60656" lon="2.37139">
        <ele>271.2</ele>
        <time>2021-11-13 09:11:51</time>
      </trkpt>
      <trkpt lat="41.60657" lon="2.37142">
        <ele>271.4</ele>
        <time>2021-11-13 09:11:52</time>
      </trkpt>
      <trkpt lat="41.60658" lon="2.37145">
        <ele>272</ele>
        <time>2021-11-13 09:11:53</time>
      </trkpt>
      <trkpt lat="41.60659" lon="2.37148">
        <ele>272.2</ele>
        <time>2021-11-13 09:11:54</time>
      </trkpt>
      <trkpt lat="41.6066" lon="2.37151">
        <ele>272.6</ele>
        <time>2021-11-13 09:11:55</time>
      </trkpt>
      <trkpt lat="41.60661" lon="2.37154">
        <ele>272.8</ele>
        <time>2021-11-13 09:11:56</time>
      </trkpt>
      <trkpt lat="41.60661" lon="2.37156">
        <ele>273.2</ele>
        <time>2021-11-13 09:11:57</time>
      </trkpt>
      <trkpt lat="41.60662" lon="2.37159">
        <ele>273.4</ele>
        <time>2021-11-13 09:11:58</time>
      </trkpt>
      <trkpt lat="41.60663" lon="2.37162">
        <ele>273.8</ele>
        <time>2021-11-13 09:11:59</time>
      </trkpt>
      <trkpt lat="41.60664" lon="2.37165">
        <ele>274.4</ele>
        <time>2021-11-13 09:12:00</time>
      </trkpt>
      <trkpt lat="41.60664" lon="2.37168">
        <ele>274.4</ele>
        <time>2021-11-13 09:12:01</time>
      </trkpt>
      <trkpt lat="41.60665" lon="2.37171">
        <ele>274.6</ele>
        <time>2021-11-13 09:12:02</time>
      </trkpt>
      <trkpt lat="41.60666" lon="2.37175">
        <ele>274.8</ele>
        <time>2021-11-13 09:12:03</time>
      </trkpt>
      <trkpt lat="41.60667" lon="2.37178">
        <ele>275.2</ele>
        <time>2021-11-13 09:12:04</time>
      </trkpt>
      <trkpt lat="41.60668" lon="2.37181">
        <ele>275.8</ele>
        <time>2021-11-13 09:12:05</time>
      </trkpt>
      <trkpt lat="41.60669" lon="2.37184">
        <ele>276</ele>
        <time>2021-11-13 09:12:06</time>
      </trkpt>
      <trkpt lat="41.60669" lon="2.37187">
        <ele>276.4</ele>
        <time>2021-11-13 09:12:07</time>
      </trkpt>
      <trkpt lat="41.6067" lon="2.37191">
        <ele>276.4</ele>
        <time>2021-11-13 09:12:08</time>
      </trkpt>
      <trkpt lat="41.60671" lon="2.37193">
        <ele>277.2</ele>
        <time>2021-11-13 09:12:09</time>
      </trkpt>
      <trkpt lat="41.60671" lon="2.37196">
        <ele>277.2</ele>
        <time>2021-11-13 09:12:10</time>
      </trkpt>
      <trkpt lat="41.60672" lon="2.37199">
        <ele>277.8</ele>
        <time>2021-11-13 09:12:11</time>
      </trkpt>
      <trkpt lat="41.60673" lon="2.37202">
        <ele>278</ele>
        <time>2021-11-13 09:12:12</time>
      </trkpt>
      <trkpt lat="41.60673" lon="2.37204">
        <ele>278.2</ele>
        <time>2021-11-13 09:12:13</time>
      </trkpt>
      <trkpt lat="41.60674" lon="2.37207">
        <ele>278.8</ele>
        <time>2021-11-13 09:12:14</time>
      </trkpt>
      <trkpt lat="41.60675" lon="2.37209">
        <ele>279.2</ele>
        <time>2021-11-13 09:12:15</time>
      </trkpt>
      <trkpt lat="41.60676" lon="2.37212">
        <ele>279.6</ele>
        <time>2021-11-13 09:12:16</time>
      </trkpt>
      <trkpt lat="41.60676" lon="2.37215">
        <ele>279.8</ele>
        <time>2021-11-13 09:12:17</time>
      </trkpt>
      <trkpt lat="41.60678" lon="2.37218">
        <ele>280.2</ele>
        <time>2021-11-13 09:12:18</time>
      </trkpt>
      <trkpt lat="41.6068" lon="2.37222">
        <ele>280.4</ele>
        <time>2021-11-13 09:12:19</time>
      </trkpt>
      <trkpt lat="41.6068" lon="2.37224">
        <ele>280.8</ele>
        <time>2021-11-13 09:12:20</time>
      </trkpt>
      <trkpt lat="41.60681" lon="2.37228">
        <ele>281.4</ele>
        <time>2021-11-13 09:12:21</time>
      </trkpt>
      <trkpt lat="41.60682" lon="2.3723">
        <ele>281.6</ele>
        <time>2021-11-13 09:12:22</time>
      </trkpt>
      <trkpt lat="41.60683" lon="2.37234">
        <ele>282.2</ele>
        <time>2021-11-13 09:12:23</time>
      </trkpt>
      <trkpt lat="41.60685" lon="2.37237">
        <ele>282.6</ele>
        <time>2021-11-13 09:12:24</time>
      </trkpt>
      <trkpt lat="41.60686" lon="2.3724">
        <ele>283.2</ele>
        <time>2021-11-13 09:12:25</time>
      </trkpt>
      <trkpt lat="41.60687" lon="2.37243">
        <ele>283.4</ele>
        <time>2021-11-13 09:12:26</time>
      </trkpt>
      <trkpt lat="41.60688" lon="2.37246">
        <ele>283.8</ele>
        <time>2021-11-13 09:12:27</time>
      </trkpt>
      <trkpt lat="41.60689" lon="2.3725">
        <ele>284</ele>
        <time>2021-11-13 09:12:28</time>
      </trkpt>
      <trkpt lat="41.6069" lon="2.37254">
        <ele>284.6</ele>
        <time>2021-11-13 09:12:29</time>
      </trkpt>
      <trkpt lat="41.60691" lon="2.37257">
        <ele>285.2</ele>
        <time>2021-11-13 09:12:30</time>
      </trkpt>
      <trkpt lat="41.60692" lon="2.3726">
        <ele>285.4</ele>
        <time>2021-11-13 09:12:31</time>
      </trkpt>
      <trkpt lat="41.60693" lon="2.37264">
        <ele>286</ele>
        <time>2021-11-13 09:12:32</time>
      </trkpt>
      <trkpt lat="41.60694" lon="2.37268">
        <ele>286.2</ele>
        <time>2021-11-13 09:12:33</time>
      </trkpt>
      <trkpt lat="41.60695" lon="2.37272">
        <ele>286.8</ele>
        <time>2021-11-13 09:12:34</time>
      </trkpt>
      <trkpt lat="41.60696" lon="2.37275">
        <ele>287</ele>
        <time>2021-11-13 09:12:35</time>
      </trkpt>
      <trkpt lat="41.60696" lon="2.37277">
        <ele>287.4</ele>
        <time>2021-11-13 09:12:36</time>
      </trkpt>
      <trkpt lat="41.60697" lon="2.37281">
        <ele>287.6</ele>
        <time>2021-11-13 09:12:37</time>
      </trkpt>
      <trkpt lat="41.60698" lon="2.37284">
        <ele>288</ele>
        <time>2021-11-13 09:12:38</time>
      </trkpt>
      <trkpt lat="41.60699" lon="2.37287">
        <ele>288.4</ele>
        <time>2021-11-13 09:12:39</time>
      </trkpt>
      <trkpt lat="41.607" lon="2.3729">
        <ele>288.6</ele>
        <time>2021-11-13 09:12:40</time>
      </trkpt>
      <trkpt lat="41.60702" lon="2.37294">
        <ele>289.2</ele>
        <time>2021-11-13 09:12:41</time>
      </trkpt>
      <trkpt lat="41.60703" lon="2.37297">
        <ele>289.4</ele>
        <time>2021-11-13 09:12:42</time>
      </trkpt>
      <trkpt lat="41.60704" lon="2.373">
        <ele>289.8</ele>
        <time>2021-11-13 09:12:43</time>
      </trkpt>
      <trkpt lat="41.60704" lon="2.37303">
        <ele>290</ele>
        <time>2021-11-13 09:12:44</time>
      </trkpt>
      <trkpt lat="41.60705" lon="2.37306">
        <ele>290.4</ele>
        <time>2021-11-13 09:12:45</time>
      </trkpt>
      <trkpt lat="41.60706" lon="2.37308">
        <ele>290.6</ele>
        <time>2021-11-13 09:12:46</time>
      </trkpt>
      <trkpt lat="41.60706" lon="2.37311">
        <ele>290.8</ele>
        <time>2021-11-13 09:12:47</time>
      </trkpt>
      <trkpt lat="41.60707" lon="2.37314">
        <ele>291</ele>
        <time>2021-11-13 09:12:48</time>
      </trkpt>
      <trkpt lat="41.60708" lon="2.37317">
        <ele>291.2</ele>
        <time>2021-11-13 09:12:49</time>
      </trkpt>
      <trkpt lat="41.6071" lon="2.3732">
        <ele>291.8</ele>
        <time>2021-11-13 09:12:50</time>
      </trkpt>
      <trkpt lat="41.60711" lon="2.37322">
        <ele>292.2</ele>
        <time>2021-11-13 09:12:51</time>
      </trkpt>
      <trkpt lat="41.60711" lon="2.37325">
        <ele>292.4</ele>
        <time>2021-11-13 09:12:52</time>
      </trkpt>
      <trkpt lat="41.60712" lon="2.37328">
        <ele>292.8</ele>
        <time>2021-11-13 09:12:53</time>
      </trkpt>
      <trkpt lat="41.60713" lon="2.37331">
        <ele>293</ele>
        <time>2021-11-13 09:12:54</time>
      </trkpt>
      <trkpt lat="41.60713" lon="2.37334">
        <ele>293.4</ele>
        <time>2021-11-13 09:12:55</time>
      </trkpt>
      <trkpt lat="41.60714" lon="2.37336">
        <ele>293.6</ele>
        <time>2021-11-13 09:12:56</time>
      </trkpt>
      <trkpt lat="41.60715" lon="2.37339">
        <ele>294</ele>
        <time>2021-11-13 09:12:57</time>
      </trkpt>
      <trkpt lat="41.60716" lon="2.37342">
        <ele>294.2</ele>
        <time>2021-11-13 09:12:58</time>
      </trkpt>
      <trkpt lat="41.60717" lon="2.37345">
        <ele>295</ele>
        <time>2021-11-13 09:12:59</time>
      </trkpt>
      <trkpt lat="41.60718" lon="2.37348">
        <ele>295.2</ele>
        <time>2021-11-13 09:13:00</time>
      </trkpt>
      <trkpt lat="41.60719" lon="2.3735">
        <ele>295.6</ele>
        <time>2021-11-13 09:13:01</time>
      </trkpt>
      <trkpt lat="41.6072" lon="2.37354">
        <ele>295.8</ele>
        <time>2021-11-13 09:13:02</time>
      </trkpt>
      <trkpt lat="41.60721" lon="2.37357">
        <ele>296.2</ele>
        <time>2021-11-13 09:13:03</time>
      </trkpt>
      <trkpt lat="41.60722" lon="2.37361">
        <ele>296.8</ele>
        <time>2021-11-13 09:13:04</time>
      </trkpt>
      <trkpt lat="41.60723" lon="2.37364">
        <ele>297</ele>
        <time>2021-11-13 09:13:05</time>
      </trkpt>
      <trkpt lat="41.60723" lon="2.37367">
        <ele>297.4</ele>
        <time>2021-11-13 09:13:06</time>
      </trkpt>
      <trkpt lat="41.60723" lon="2.3737">
        <ele>297.6</ele>
        <time>2021-11-13 09:13:07</time>
      </trkpt>
      <trkpt lat="41.60724" lon="2.37373">
        <ele>298</ele>
        <time>2021-11-13 09:13:08</time>
      </trkpt>
      <trkpt lat="41.60725" lon="2.37377">
        <ele>298.2</ele>
        <time>2021-11-13 09:13:09</time>
      </trkpt>
      <trkpt lat="41.60726" lon="2.3738">
        <ele>298.8</ele>
        <time>2021-11-13 09:13:10</time>
      </trkpt>
      <trkpt lat="41.60727" lon="2.37384">
        <ele>299.2</ele>
        <time>2021-11-13 09:13:11</time>
      </trkpt>
      <trkpt lat="41.60727" lon="2.37387">
        <ele>299.6</ele>
        <time>2021-11-13 09:13:12</time>
      </trkpt>
      <trkpt lat="41.60728" lon="2.3739">
        <ele>299.8</ele>
        <time>2021-11-13 09:13:13</time>
      </trkpt>
      <trkpt lat="41.60728" lon="2.37394">
        <ele>300.2</ele>
        <time>2021-11-13 09:13:14</time>
      </trkpt>
      <trkpt lat="41.60728" lon="2.37397">
        <ele>300.6</ele>
        <time>2021-11-13 09:13:15</time>
      </trkpt>
      <trkpt lat="41.60728" lon="2.374">
        <ele>300.8</ele>
        <time>2021-11-13 09:13:16</time>
      </trkpt>
      <trkpt lat="41.60728" lon="2.37403">
        <ele>301.2</ele>
        <time>2021-11-13 09:13:17</time>
      </trkpt>
      <trkpt lat="41.60728" lon="2.37407">
        <ele>301.4</ele>
        <time>2021-11-13 09:13:18</time>
      </trkpt>
      <trkpt lat="41.60727" lon="2.3741">
        <ele>301.8</ele>
        <time>2021-11-13 09:13:19</time>
      </trkpt>
      <trkpt lat="41.60726" lon="2.37414">
        <ele>302</ele>
        <time>2021-11-13 09:13:20</time>
      </trkpt>
      <trkpt lat="41.60725" lon="2.37418">
        <ele>302.2</ele>
        <time>2021-11-13 09:13:21</time>
      </trkpt>
      <trkpt lat="41.60725" lon="2.37422">
        <ele>302.6</ele>
        <time>2021-11-13 09:13:22</time>
      </trkpt>
      <trkpt lat="41.60723" lon="2.37426">
        <ele>302.8</ele>
        <time>2021-11-13 09:13:23</time>
      </trkpt>
      <trkpt lat="41.60721" lon="2.37429">
        <ele>303.2</ele>
        <time>2021-11-13 09:13:24</time>
      </trkpt>
      <trkpt lat="41.60719" lon="2.37432">
        <ele>303.4</ele>
        <time>2021-11-13 09:13:25</time>
      </trkpt>
      <trkpt lat="41.60717" lon="2.37435">
        <ele>303.8</ele>
        <time>2021-11-13 09:13:26</time>
      </trkpt>
      <trkpt lat="41.60715" lon="2.37437">
        <ele>304</ele>
        <time>2021-11-13 09:13:27</time>
      </trkpt>
      <trkpt lat="41.60712" lon="2.37439">
        <ele>304.4</ele>
        <time>2021-11-13 09:13:28</time>
      </trkpt>
      <trkpt lat="41.6071" lon="2.37442">
        <ele>304.8</ele>
        <time>2021-11-13 09:13:29</time>
      </trkpt>
      <trkpt lat="41.60708" lon="2.37445">
        <ele>305</ele>
        <time>2021-11-13 09:13:30</time>
      </trkpt>
      <trkpt lat="41.60704" lon="2.37447">
        <ele>305.6</ele>
        <time>2021-11-13 09:13:31</time>
      </trkpt>
      <trkpt lat="41.60701" lon="2.3745">
        <ele>305.8</ele>
        <time>2021-11-13 09:13:32</time>
      </trkpt>
      <trkpt lat="41.60698" lon="2.37453">
        <ele>306.2</ele>
        <time>2021-11-13 09:13:33</time>
      </trkpt>
      <trkpt lat="41.60695" lon="2.37456">
        <ele>306.4</ele>
        <time>2021-11-13 09:13:34</time>
      </trkpt>
      <trkpt lat="41.60692" lon="2.37459">
        <ele>306.8</ele>
        <time>2021-11-13 09:13:35</time>
      </trkpt>
      <trkpt lat="41.6069" lon="2.37462">
        <ele>307</ele>
        <time>2021-11-13 09:13:36</time>
      </trkpt>
      <trkpt lat="41.60687" lon="2.37465">
        <ele>307.4</ele>
        <time>2021-11-13 09:13:37</time>
      </trkpt>
      <trkpt lat="41.60684" lon="2.37468">
        <ele>308</ele>
        <time>2021-11-13 09:13:38</time>
      </trkpt>
      <trkpt lat="41.60681" lon="2.3747">
        <ele>308.2</ele>
        <time>2021-11-13 09:13:39</time>
      </trkpt>
      <trkpt lat="41.60679" lon="2.37473">
        <ele>308.6</ele>
        <time>2021-11-13 09:13:40</time>
      </trkpt>
      <trkpt lat="41.60676" lon="2.37476">
        <ele>308.8</ele>
        <time>2021-11-13 09:13:41</time>
      </trkpt>
      <trkpt lat="41.60673" lon="2.37479">
        <ele>309.4</ele>
        <time>2021-11-13 09:13:42</time>
      </trkpt>
      <trkpt lat="41.60671" lon="2.37481">
        <ele>309.6</ele>
        <time>2021-11-13 09:13:43</time>
      </trkpt>
      <trkpt lat="41.60668" lon="2.37484">
        <ele>310</ele>
        <time>2021-11-13 09:13:44</time>
      </trkpt>
      <trkpt lat="41.60665" lon="2.37487">
        <ele>310.2</ele>
        <time>2021-11-13 09:13:45</time>
      </trkpt>
      <trkpt lat="41.60662" lon="2.3749">
        <ele>310.6</ele>
        <time>2021-11-13 09:13:46</time>
      </trkpt>
      <trkpt lat="41.6066" lon="2.37494">
        <ele>311</ele>
        <time>2021-11-13 09:13:47</time>
      </trkpt>
      <trkpt lat="41.60657" lon="2.37497">
        <ele>311</ele>
        <time>2021-11-13 09:13:48</time>
      </trkpt>
      <trkpt lat="41.60655" lon="2.375">
        <ele>311.2</ele>
        <time>2021-11-13 09:13:49</time>
      </trkpt>
      <trkpt lat="41.60652" lon="2.37503">
        <ele>311.4</ele>
        <time>2021-11-13 09:13:50</time>
      </trkpt>
      <trkpt lat="41.6065" lon="2.37506">
        <ele>311.6</ele>
        <time>2021-11-13 09:13:51</time>
      </trkpt>
      <trkpt lat="41.60648" lon="2.3751">
        <ele>311.6</ele>
        <time>2021-11-13 09:13:52</time>
      </trkpt>
      <trkpt lat="41.60645" lon="2.37513">
        <ele>312</ele>
        <time>2021-11-13 09:13:53</time>
      </trkpt>
      <trkpt lat="41.60643" lon="2.37517">
        <ele>312.2</ele>
        <time>2021-11-13 09:13:54</time>
      </trkpt>
      <trkpt lat="41.60641" lon="2.3752">
        <ele>312.2</ele>
        <time>2021-11-13 09:13:55</time>
      </trkpt>
      <trkpt lat="41.60639" lon="2.37524">
        <ele>312.2</ele>
        <time>2021-11-13 09:13:56</time>
      </trkpt>
      <trkpt lat="41.60637" lon="2.37528">
        <ele>312.2</ele>
        <time>2021-11-13 09:13:57</time>
      </trkpt>
      <trkpt lat="41.60635" lon="2.37532">
        <ele>312.2</ele>
        <time>2021-11-13 09:13:58</time>
      </trkpt>
      <trkpt lat="41.60633" lon="2.37536">
        <ele>312.2</ele>
        <time>2021-11-13 09:13:59</time>
      </trkpt>
      <trkpt lat="41.60631" lon="2.37541">
        <ele>312.4</ele>
        <time>2021-11-13 09:14:00</time>
      </trkpt>
      <trkpt lat="41.60628" lon="2.37546">
        <ele>312.4</ele>
        <time>2021-11-13 09:14:01</time>
      </trkpt>
      <trkpt lat="41.60626" lon="2.37551">
        <ele>312.4</ele>
        <time>2021-11-13 09:14:02</time>
      </trkpt>
      <trkpt lat="41.60623" lon="2.37556">
        <ele>312.4</ele>
        <time>2021-11-13 09:14:03</time>
      </trkpt>
      <trkpt lat="41.6062" lon="2.37561">
        <ele>312.4</ele>
        <time>2021-11-13 09:14:04</time>
      </trkpt>
      <trkpt lat="41.60618" lon="2.37567">
        <ele>312.2</ele>
        <time>2021-11-13 09:14:05</time>
      </trkpt>
      <trkpt lat="41.60615" lon="2.37572">
        <ele>312.2</ele>
        <time>2021-11-13 09:14:06</time>
      </trkpt>
      <trkpt lat="41.60612" lon="2.37578">
        <ele>311.8</ele>
        <time>2021-11-13 09:14:07</time>
      </trkpt>
      <trkpt lat="41.60609" lon="2.37584">
        <ele>311.6</ele>
        <time>2021-11-13 09:14:08</time>
      </trkpt>
      <trkpt lat="41.60606" lon="2.3759">
        <ele>311.2</ele>
        <time>2021-11-13 09:14:09</time>
      </trkpt>
      <trkpt lat="41.60602" lon="2.37595">
        <ele>311.2</ele>
        <time>2021-11-13 09:14:10</time>
      </trkpt>
      <trkpt lat="41.60599" lon="2.37601">
        <ele>311</ele>
        <time>2021-11-13 09:14:11</time>
      </trkpt>
      <trkpt lat="41.60597" lon="2.37607">
        <ele>310.6</ele>
        <time>2021-11-13 09:14:12</time>
      </trkpt>
      <trkpt lat="41.60597" lon="2.37614">
        <ele>310.6</ele>
        <time>2021-11-13 09:14:13</time>
      </trkpt>
      <trkpt lat="41.606" lon="2.37621">
        <ele>310.4</ele>
        <time>2021-11-13 09:14:14</time>
      </trkpt>
      <trkpt lat="41.60603" lon="2.37627">
        <ele>310.2</ele>
        <time>2021-11-13 09:14:15</time>
      </trkpt>
      <trkpt lat="41.60607" lon="2.37633">
        <ele>310</ele>
        <time>2021-11-13 09:14:16</time>
      </trkpt>
      <trkpt lat="41.60609" lon="2.37641">
        <ele>310</ele>
        <time>2021-11-13 09:14:17</time>
      </trkpt>
      <trkpt lat="41.6061" lon="2.37649">
        <ele>309.6</ele>
        <time>2021-11-13 09:14:18</time>
      </trkpt>
      <trkpt lat="41.60612" lon="2.37657">
        <ele>309.4</ele>
        <time>2021-11-13 09:14:19</time>
      </trkpt>
      <trkpt lat="41.60614" lon="2.37666">
        <ele>309</ele>
        <time>2021-11-13 09:14:20</time>
      </trkpt>
      <trkpt lat="41.60616" lon="2.37675">
        <ele>308.6</ele>
        <time>2021-11-13 09:14:21</time>
      </trkpt>
      <trkpt lat="41.60618" lon="2.37685">
        <ele>308.4</ele>
        <time>2021-11-13 09:14:22</time>
      </trkpt>
      <trkpt lat="41.6062" lon="2.37695">
        <ele>308</ele>
        <time>2021-11-13 09:14:23</time>
      </trkpt>
      <trkpt lat="41.60623" lon="2.37706">
        <ele>307.6</ele>
        <time>2021-11-13 09:14:24</time>
      </trkpt>
      <trkpt lat="41.60625" lon="2.37718">
        <ele>307</ele>
        <time>2021-11-13 09:14:25</time>
      </trkpt>
      <trkpt lat="41.60627" lon="2.3773">
        <ele>306.6</ele>
        <time>2021-11-13 09:14:26</time>
      </trkpt>
      <trkpt lat="41.6063" lon="2.37742">
        <ele>306</ele>
        <time>2021-11-13 09:14:27</time>
      </trkpt>
      <trkpt lat="41.60632" lon="2.37752">
        <ele>305.6</ele>
        <time>2021-11-13 09:14:28</time>
      </trkpt>
      <trkpt lat="41.60635" lon="2.37768">
        <ele>305</ele>
        <time>2021-11-13 09:14:29</time>
      </trkpt>
      <trkpt lat="41.60638" lon="2.37781">
        <ele>304.4</ele>
        <time>2021-11-13 09:14:30</time>
      </trkpt>
      <trkpt lat="41.60641" lon="2.37795">
        <ele>303.8</ele>
        <time>2021-11-13 09:14:31</time>
      </trkpt>
      <trkpt lat="41.60644" lon="2.3781">
        <ele>302.6</ele>
        <time>2021-11-13 09:14:32</time>
      </trkpt>
      <trkpt lat="41.60646" lon="2.37821">
        <ele>302</ele>
        <time>2021-11-13 09:14:33</time>
      </trkpt>
      <trkpt lat="41.6065" lon="2.37839">
        <ele>301</ele>
        <time>2021-11-13 09:14:34</time>
      </trkpt>
      <trkpt lat="41.60653" lon="2.37855">
        <ele>300.4</ele>
        <time>2021-11-13 09:14:35</time>
      </trkpt>
      <trkpt lat="41.60656" lon="2.3787">
        <ele>299.2</ele>
        <time>2021-11-13 09:14:36</time>
      </trkpt>
      <trkpt lat="41.6066" lon="2.37887">
        <ele>298.2</ele>
        <time>2021-11-13 09:14:37</time>
      </trkpt>
      <trkpt lat="41.60663" lon="2.37902">
        <ele>297.8</ele>
        <time>2021-11-13 09:14:38</time>
      </trkpt>
      <trkpt lat="41.60666" lon="2.37915">
        <ele>296.2</ele>
        <time>2021-11-13 09:14:39</time>
      </trkpt>
      <trkpt lat="41.6067" lon="2.37934">
        <ele>295.6</ele>
        <time>2021-11-13 09:14:40</time>
      </trkpt>
      <trkpt lat="41.60673" lon="2.37949">
        <ele>293.8</ele>
        <time>2021-11-13 09:14:41</time>
      </trkpt>
      <trkpt lat="41.60676" lon="2.37964">
        <ele>292.8</ele>
        <time>2021-11-13 09:14:42</time>
      </trkpt>
      <trkpt lat="41.6068" lon="2.3798">
        <ele>291.4</ele>
        <time>2021-11-13 09:14:43</time>
      </trkpt>
      <trkpt lat="41.60683" lon="2.37996">
        <ele>290.6</ele>
        <time>2021-11-13 09:14:44</time>
      </trkpt>
      <trkpt lat="41.60687" lon="2.38012">
        <ele>289</ele>
        <time>2021-11-13 09:14:45</time>
      </trkpt>
      <trkpt lat="41.6069" lon="2.38028">
        <ele>287.4</ele>
        <time>2021-11-13 09:14:46</time>
      </trkpt>
      <trkpt lat="41.60693" lon="2.38043">
        <ele>286.2</ele>
        <time>2021-11-13 09:14:47</time>
      </trkpt>
      <trkpt lat="41.60697" lon="2.38057">
        <ele>284.2</ele>
        <time>2021-11-13 09:14:48</time>
      </trkpt>
      <trkpt lat="41.60699" lon="2.38071">
        <ele>283.4</ele>
        <time>2021-11-13 09:14:49</time>
      </trkpt>
      <trkpt lat="41.60702" lon="2.38084">
        <ele>281.6</ele>
        <time>2021-11-13 09:14:50</time>
      </trkpt>
      <trkpt lat="41.60704" lon="2.38095">
        <ele>280.8</ele>
        <time>2021-11-13 09:14:51</time>
      </trkpt>
      <trkpt lat="41.60707" lon="2.38104">
        <ele>278.8</ele>
        <time>2021-11-13 09:14:52</time>
      </trkpt>
      <trkpt lat="41.60709" lon="2.38112">
        <ele>278</ele>
        <time>2021-11-13 09:14:53</time>
      </trkpt>
      <trkpt lat="41.6071" lon="2.38118">
        <ele>276.4</ele>
        <time>2021-11-13 09:14:54</time>
      </trkpt>
      <trkpt lat="41.60711" lon="2.38123">
        <ele>274.8</ele>
        <time>2021-11-13 09:14:55</time>
      </trkpt>
      <trkpt lat="41.60712" lon="2.38127">
        <ele>274</ele>
        <time>2021-11-13 09:14:56</time>
      </trkpt>
      <trkpt lat="41.60711" lon="2.38131">
        <ele>272.4</ele>
        <time>2021-11-13 09:14:57</time>
      </trkpt>
      <trkpt lat="41.60708" lon="2.38134">
        <ele>272</ele>
        <time>2021-11-13 09:14:58</time>
      </trkpt>
      <trkpt lat="41.60705" lon="2.38138">
        <ele>271</ele>
        <time>2021-11-13 09:14:59</time>
      </trkpt>
      <trkpt lat="41.60702" lon="2.38142">
        <ele>270.4</ele>
        <time>2021-11-13 09:15:00</time>
      </trkpt>
      <trkpt lat="41.60697" lon="2.38146">
        <ele>269.2</ele>
        <time>2021-11-13 09:15:01</time>
      </trkpt>
      <trkpt lat="41.60694" lon="2.3815">
        <ele>268.8</ele>
        <time>2021-11-13 09:15:02</time>
      </trkpt>
      <trkpt lat="41.60689" lon="2.38156">
        <ele>268.2</ele>
        <time>2021-11-13 09:15:03</time>
      </trkpt>
      <trkpt lat="41.60683" lon="2.38163">
        <ele>267.4</ele>
        <time>2021-11-13 09:15:04</time>
      </trkpt>
      <trkpt lat="41.60677" lon="2.3817">
        <ele>267.2</ele>
        <time>2021-11-13 09:15:05</time>
      </trkpt>
      <trkpt lat="41.60672" lon="2.38175">
        <ele>266.6</ele>
        <time>2021-11-13 09:15:06</time>
      </trkpt>
      <trkpt lat="41.60666" lon="2.38183">
        <ele>266.2</ele>
        <time>2021-11-13 09:15:07</time>
      </trkpt>
      <trkpt lat="41.60659" lon="2.38193">
        <ele>265.6</ele>
        <time>2021-11-13 09:15:08</time>
      </trkpt>
      <trkpt lat="41.60652" lon="2.38201">
        <ele>265.2</ele>
        <time>2021-11-13 09:15:09</time>
      </trkpt>
      <trkpt lat="41.60645" lon="2.38209">
        <ele>264.2</ele>
        <time>2021-11-13 09:15:10</time>
      </trkpt>
      <trkpt lat="41.60639" lon="2.38216">
        <ele>263.6</ele>
        <time>2021-11-13 09:15:11</time>
      </trkpt>
      <trkpt lat="41.6063" lon="2.38226">
        <ele>263.2</ele>
        <time>2021-11-13 09:15:12</time>
      </trkpt>
      <trkpt lat="41.60622" lon="2.38234">
        <ele>262</ele>
        <time>2021-11-13 09:15:13</time>
      </trkpt>
      <trkpt lat="41.60614" lon="2.38243">
        <ele>261.4</ele>
        <time>2021-11-13 09:15:14</time>
      </trkpt>
      <trkpt lat="41.60606" lon="2.38251">
        <ele>260.6</ele>
        <time>2021-11-13 09:15:15</time>
      </trkpt>
      <trkpt lat="41.606" lon="2.38259">
        <ele>260.4</ele>
        <time>2021-11-13 09:15:16</time>
      </trkpt>
      <trkpt lat="41.60591" lon="2.3827">
        <ele>259.8</ele>
        <time>2021-11-13 09:15:17</time>
      </trkpt>
      <trkpt lat="41.60584" lon="2.38279">
        <ele>259.2</ele>
        <time>2021-11-13 09:15:18</time>
      </trkpt>
      <trkpt lat="41.60576" lon="2.38289">
        <ele>258.2</ele>
        <time>2021-11-13 09:15:19</time>
      </trkpt>
      <trkpt lat="41.60569" lon="2.38298">
        <ele>257.2</ele>
        <time>2021-11-13 09:15:20</time>
      </trkpt>
      <trkpt lat="41.60562" lon="2.38308">
        <ele>256.8</ele>
        <time>2021-11-13 09:15:21</time>
      </trkpt>
      <trkpt lat="41.60556" lon="2.38319">
        <ele>256</ele>
        <time>2021-11-13 09:15:22</time>
      </trkpt>
      <trkpt lat="41.60549" lon="2.3833">
        <ele>255.4</ele>
        <time>2021-11-13 09:15:23</time>
      </trkpt>
      <trkpt lat="41.60544" lon="2.38341">
        <ele>254.6</ele>
        <time>2021-11-13 09:15:24</time>
      </trkpt>
      <trkpt lat="41.60538" lon="2.38353">
        <ele>254.2</ele>
        <time>2021-11-13 09:15:25</time>
      </trkpt>
      <trkpt lat="41.60533" lon="2.38366">
        <ele>253.6</ele>
        <time>2021-11-13 09:15:26</time>
      </trkpt>
      <trkpt lat="41.60528" lon="2.38379">
        <ele>253.2</ele>
        <time>2021-11-13 09:15:27</time>
      </trkpt>
      <trkpt lat="41.60525" lon="2.38392">
        <ele>252.8</ele>
        <time>2021-11-13 09:15:28</time>
      </trkpt>
      <trkpt lat="41.60522" lon="2.38406">
        <ele>252</ele>
        <time>2021-11-13 09:15:29</time>
      </trkpt>
      <trkpt lat="41.6052" lon="2.3842">
        <ele>251.6</ele>
        <time>2021-11-13 09:15:30</time>
      </trkpt>
      <trkpt lat="41.60519" lon="2.38434">
        <ele>250.6</ele>
        <time>2021-11-13 09:15:31</time>
      </trkpt>
      <trkpt lat="41.60517" lon="2.38448">
        <ele>250.4</ele>
        <time>2021-11-13 09:15:32</time>
      </trkpt>
      <trkpt lat="41.60515" lon="2.38461">
        <ele>249.8</ele>
        <time>2021-11-13 09:15:33</time>
      </trkpt>
      <trkpt lat="41.60513" lon="2.38474">
        <ele>249.4</ele>
        <time>2021-11-13 09:15:34</time>
      </trkpt>
      <trkpt lat="41.60509" lon="2.38487">
        <ele>248.2</ele>
        <time>2021-11-13 09:15:35</time>
      </trkpt>
      <trkpt lat="41.60506" lon="2.38499">
        <ele>247.8</ele>
        <time>2021-11-13 09:15:36</time>
      </trkpt>
      <trkpt lat="41.60502" lon="2.3851">
        <ele>247.4</ele>
        <time>2021-11-13 09:15:37</time>
      </trkpt>
      <trkpt lat="41.60498" lon="2.38521">
        <ele>247</ele>
        <time>2021-11-13 09:15:38</time>
      </trkpt>
      <trkpt lat="41.60494" lon="2.38532">
        <ele>246.6</ele>
        <time>2021-11-13 09:15:39</time>
      </trkpt>
      <trkpt lat="41.60491" lon="2.38544">
        <ele>246</ele>
        <time>2021-11-13 09:15:40</time>
      </trkpt>
      <trkpt lat="41.60489" lon="2.38556">
        <ele>246</ele>
        <time>2021-11-13 09:15:41</time>
      </trkpt>
      <trkpt lat="41.60487" lon="2.38567">
        <ele>245.6</ele>
        <time>2021-11-13 09:15:42</time>
      </trkpt>
      <trkpt lat="41.60485" lon="2.38579">
        <ele>245.4</ele>
        <time>2021-11-13 09:15:43</time>
      </trkpt>
      <trkpt lat="41.60483" lon="2.38589">
        <ele>245.4</ele>
        <time>2021-11-13 09:15:44</time>
      </trkpt>
      <trkpt lat="41.60481" lon="2.38604">
        <ele>244.8</ele>
        <time>2021-11-13 09:15:45</time>
      </trkpt>
      <trkpt lat="41.6048" lon="2.38616">
        <ele>244.6</ele>
        <time>2021-11-13 09:15:46</time>
      </trkpt>
      <trkpt lat="41.60479" lon="2.38628">
        <ele>244.2</ele>
        <time>2021-11-13 09:15:47</time>
      </trkpt>
      <trkpt lat="41.60478" lon="2.3864">
        <ele>244</ele>
        <time>2021-11-13 09:15:48</time>
      </trkpt>
      <trkpt lat="41.60478" lon="2.38653">
        <ele>243.8</ele>
        <time>2021-11-13 09:15:49</time>
      </trkpt>
      <trkpt lat="41.60479" lon="2.38666">
        <ele>243.6</ele>
        <time>2021-11-13 09:15:50</time>
      </trkpt>
      <trkpt lat="41.6048" lon="2.38679">
        <ele>243.4</ele>
        <time>2021-11-13 09:15:51</time>
      </trkpt>
      <trkpt lat="41.60481" lon="2.38692">
        <ele>242.8</ele>
        <time>2021-11-13 09:15:52</time>
      </trkpt>
      <trkpt lat="41.60481" lon="2.38705">
        <ele>242.6</ele>
        <time>2021-11-13 09:15:53</time>
      </trkpt>
      <trkpt lat="41.60481" lon="2.38719">
        <ele>242.2</ele>
        <time>2021-11-13 09:15:54</time>
      </trkpt>
      <trkpt lat="41.6048" lon="2.38733">
        <ele>242</ele>
        <time>2021-11-13 09:15:55</time>
      </trkpt>
      <trkpt lat="41.60479" lon="2.38746">
        <ele>241.4</ele>
        <time>2021-11-13 09:15:56</time>
      </trkpt>
      <trkpt lat="41.60479" lon="2.3876">
        <ele>241.4</ele>
        <time>2021-11-13 09:15:57</time>
      </trkpt>
      <trkpt lat="41.60478" lon="2.38774">
        <ele>240.6</ele>
        <time>2021-11-13 09:15:58</time>
      </trkpt>
      <trkpt lat="41.60477" lon="2.38788">
        <ele>240.4</ele>
        <time>2021-11-13 09:15:59</time>
      </trkpt>
      <trkpt lat="41.60476" lon="2.38802">
        <ele>240</ele>
        <time>2021-11-13 09:16:00</time>
      </trkpt>
      <trkpt lat="41.60476" lon="2.38815">
        <ele>239.6</ele>
        <time>2021-11-13 09:16:01</time>
      </trkpt>
      <trkpt lat="41.60478" lon="2.38829">
        <ele>238.8</ele>
        <time>2021-11-13 09:16:02</time>
      </trkpt>
      <trkpt lat="41.60481" lon="2.38842">
        <ele>238.2</ele>
        <time>2021-11-13 09:16:03</time>
      </trkpt>
      <trkpt lat="41.60486" lon="2.38854">
        <ele>238</ele>
        <time>2021-11-13 09:16:04</time>
      </trkpt>
      <trkpt lat="41.60493" lon="2.38865">
        <ele>237.6</ele>
        <time>2021-11-13 09:16:05</time>
      </trkpt>
      <trkpt lat="41.60499" lon="2.38876">
        <ele>237.2</ele>
        <time>2021-11-13 09:16:06</time>
      </trkpt>
      <trkpt lat="41.60506" lon="2.38887">
        <ele>236.4</ele>
        <time>2021-11-13 09:16:07</time>
      </trkpt>
      <trkpt lat="41.60512" lon="2.389">
        <ele>236</ele>
        <time>2021-11-13 09:16:08</time>
      </trkpt>
      <trkpt lat="41.60516" lon="2.38914">
        <ele>235.2</ele>
        <time>2021-11-13 09:16:09</time>
      </trkpt>
      <trkpt lat="41.60518" lon="2.38927">
        <ele>234.8</ele>
        <time>2021-11-13 09:16:10</time>
      </trkpt>
      <trkpt lat="41.60519" lon="2.38942">
        <ele>234.4</ele>
        <time>2021-11-13 09:16:11</time>
      </trkpt>
      <trkpt lat="41.60519" lon="2.38956">
        <ele>233.4</ele>
        <time>2021-11-13 09:16:12</time>
      </trkpt>
      <trkpt lat="41.60519" lon="2.3897">
        <ele>233.2</ele>
        <time>2021-11-13 09:16:13</time>
      </trkpt>
      <trkpt lat="41.6052" lon="2.38985">
        <ele>232.6</ele>
        <time>2021-11-13 09:16:14</time>
      </trkpt>
      <trkpt lat="41.60521" lon="2.38999">
        <ele>232.4</ele>
        <time>2021-11-13 09:16:15</time>
      </trkpt>
      <trkpt lat="41.60523" lon="2.39012">
        <ele>231.8</ele>
        <time>2021-11-13 09:16:16</time>
      </trkpt>
      <trkpt lat="41.60527" lon="2.39025">
        <ele>231.4</ele>
        <time>2021-11-13 09:16:17</time>
      </trkpt>
      <trkpt lat="41.60533" lon="2.39037">
        <ele>230.6</ele>
        <time>2021-11-13 09:16:18</time>
      </trkpt>
      <trkpt lat="41.6054" lon="2.39049">
        <ele>230</ele>
        <time>2021-11-13 09:16:19</time>
      </trkpt>
      <trkpt lat="41.60546" lon="2.3906">
        <ele>229.8</ele>
        <time>2021-11-13 09:16:20</time>
      </trkpt>
      <trkpt lat="41.60549" lon="2.39072">
        <ele>229.2</ele>
        <time>2021-11-13 09:16:21</time>
      </trkpt>
      <trkpt lat="41.60549" lon="2.39084">
        <ele>229</ele>
        <time>2021-11-13 09:16:22</time>
      </trkpt>
      <trkpt lat="41.60546" lon="2.39096">
        <ele>228.4</ele>
        <time>2021-11-13 09:16:23</time>
      </trkpt>
      <trkpt lat="41.6054" lon="2.39105">
        <ele>228</ele>
        <time>2021-11-13 09:16:24</time>
      </trkpt>
      <trkpt lat="41.60531" lon="2.39109">
        <ele>227</ele>
        <time>2021-11-13 09:16:25</time>
      </trkpt>
      <trkpt lat="41.6052" lon="2.39107">
        <ele>226.6</ele>
        <time>2021-11-13 09:16:26</time>
      </trkpt>
      <trkpt lat="41.60509" lon="2.39103">
        <ele>226</ele>
        <time>2021-11-13 09:16:27</time>
      </trkpt>
      <trkpt lat="41.60498" lon="2.391">
        <ele>225.4</ele>
        <time>2021-11-13 09:16:28</time>
      </trkpt>
      <trkpt lat="41.60487" lon="2.39099">
        <ele>225</ele>
        <time>2021-11-13 09:16:29</time>
      </trkpt>
      <trkpt lat="41.60475" lon="2.391">
        <ele>224.4</ele>
        <time>2021-11-13 09:16:30</time>
      </trkpt>
      <trkpt lat="41.60465" lon="2.39104">
        <ele>224.2</ele>
        <time>2021-11-13 09:16:31</time>
      </trkpt>
      <trkpt lat="41.60456" lon="2.39112">
        <ele>223.4</ele>
        <time>2021-11-13 09:16:32</time>
      </trkpt>
      <trkpt lat="41.60451" lon="2.39123">
        <ele>223</ele>
        <time>2021-11-13 09:16:33</time>
      </trkpt>
      <trkpt lat="41.60448" lon="2.39136">
        <ele>222</ele>
        <time>2021-11-13 09:16:34</time>
      </trkpt>
      <trkpt lat="41.60446" lon="2.39151">
        <ele>221.8</ele>
        <time>2021-11-13 09:16:35</time>
      </trkpt>
      <trkpt lat="41.60447" lon="2.39168">
        <ele>220.8</ele>
        <time>2021-11-13 09:16:36</time>
      </trkpt>
      <trkpt lat="41.60446" lon="2.39184">
        <ele>220</ele>
        <time>2021-11-13 09:16:37</time>
      </trkpt>
      <trkpt lat="41.60443" lon="2.392">
        <ele>219.6</ele>
        <time>2021-11-13 09:16:38</time>
      </trkpt>
      <trkpt lat="41.60437" lon="2.39215">
        <ele>218.6</ele>
        <time>2021-11-13 09:16:39</time>
      </trkpt>
      <trkpt lat="41.60431" lon="2.3923">
        <ele>218</ele>
        <time>2021-11-13 09:16:40</time>
      </trkpt>
      <trkpt lat="41.60425" lon="2.39245">
        <ele>217</ele>
        <time>2021-11-13 09:16:41</time>
      </trkpt>
      <trkpt lat="41.60417" lon="2.39258">
        <ele>216.4</ele>
        <time>2021-11-13 09:16:42</time>
      </trkpt>
      <trkpt lat="41.60409" lon="2.39271">
        <ele>215.4</ele>
        <time>2021-11-13 09:16:43</time>
      </trkpt>
      <trkpt lat="41.604" lon="2.39284">
        <ele>214.8</ele>
        <time>2021-11-13 09:16:44</time>
      </trkpt>
      <trkpt lat="41.60392" lon="2.39297">
        <ele>213.8</ele>
        <time>2021-11-13 09:16:45</time>
      </trkpt>
      <trkpt lat="41.60386" lon="2.39312">
        <ele>212.6</ele>
        <time>2021-11-13 09:16:46</time>
      </trkpt>
      <trkpt lat="41.60382" lon="2.39328">
        <ele>212</ele>
        <time>2021-11-13 09:16:47</time>
      </trkpt>
      <trkpt lat="41.6038" lon="2.39344">
        <ele>210.8</ele>
        <time>2021-11-13 09:16:48</time>
      </trkpt>
      <trkpt lat="41.60379" lon="2.39361">
        <ele>210</ele>
        <time>2021-11-13 09:16:49</time>
      </trkpt>
      <trkpt lat="41.60379" lon="2.39378">
        <ele>209.2</ele>
        <time>2021-11-13 09:16:50</time>
      </trkpt>
      <trkpt lat="41.60378" lon="2.39395">
        <ele>208.8</ele>
        <time>2021-11-13 09:16:51</time>
      </trkpt>
      <trkpt lat="41.60379" lon="2.39412">
        <ele>207.8</ele>
        <time>2021-11-13 09:16:52</time>
      </trkpt>
      <trkpt lat="41.6038" lon="2.39429">
        <ele>207</ele>
        <time>2021-11-13 09:16:53</time>
      </trkpt>
      <trkpt lat="41.60381" lon="2.39446">
        <ele>206.4</ele>
        <time>2021-11-13 09:16:54</time>
      </trkpt>
      <trkpt lat="41.60382" lon="2.39462">
        <ele>205.4</ele>
        <time>2021-11-13 09:16:55</time>
      </trkpt>
      <trkpt lat="41.60384" lon="2.39479">
        <ele>205</ele>
        <time>2021-11-13 09:16:56</time>
      </trkpt>
      <trkpt lat="41.60386" lon="2.39495">
        <ele>203.8</ele>
        <time>2021-11-13 09:16:57</time>
      </trkpt>
      <trkpt lat="41.60389" lon="2.3951">
        <ele>203.4</ele>
        <time>2021-11-13 09:16:58</time>
      </trkpt>
      <trkpt lat="41.60392" lon="2.39526">
        <ele>202.4</ele>
        <time>2021-11-13 09:16:59</time>
      </trkpt>
      <trkpt lat="41.60394" lon="2.39543">
        <ele>202</ele>
        <time>2021-11-13 09:17:00</time>
      </trkpt>
      <trkpt lat="41.60395" lon="2.3956">
        <ele>201</ele>
        <time>2021-11-13 09:17:01</time>
      </trkpt>
      <trkpt lat="41.60395" lon="2.39577">
        <ele>200</ele>
        <time>2021-11-13 09:17:02</time>
      </trkpt>
      <trkpt lat="41.60395" lon="2.39594">
        <ele>199.4</ele>
        <time>2021-11-13 09:17:03</time>
      </trkpt>
      <trkpt lat="41.60396" lon="2.39611">
        <ele>198.6</ele>
        <time>2021-11-13 09:17:04</time>
      </trkpt>
      <trkpt lat="41.60396" lon="2.39627">
        <ele>198.2</ele>
        <time>2021-11-13 09:17:05</time>
      </trkpt>
      <trkpt lat="41.60397" lon="2.39643">
        <ele>197.2</ele>
        <time>2021-11-13 09:17:06</time>
      </trkpt>
      <trkpt lat="41.60399" lon="2.39659">
        <ele>196.4</ele>
        <time>2021-11-13 09:17:07</time>
      </trkpt>
      <trkpt lat="41.60403" lon="2.39673">
        <ele>195.4</ele>
        <time>2021-11-13 09:17:08</time>
      </trkpt>
      <trkpt lat="41.6041" lon="2.39686">
        <ele>194.8</ele>
        <time>2021-11-13 09:17:09</time>
      </trkpt>
      <trkpt lat="41.60419" lon="2.39695">
        <ele>194</ele>
        <time>2021-11-13 09:17:10</time>
      </trkpt>
      <trkpt lat="41.60427" lon="2.39703">
        <ele>193.2</ele>
        <time>2021-11-13 09:17:11</time>
      </trkpt>
      <trkpt lat="41.60434" lon="2.39714">
        <ele>193</ele>
        <time>2021-11-13 09:17:12</time>
      </trkpt>
      <trkpt lat="41.60438" lon="2.39726">
        <ele>192.6</ele>
        <time>2021-11-13 09:17:13</time>
      </trkpt>
      <trkpt lat="41.60437" lon="2.39736">
        <ele>192.4</ele>
        <time>2021-11-13 09:17:14</time>
      </trkpt>
      <trkpt lat="41.60435" lon="2.39745">
        <ele>192</ele>
        <time>2021-11-13 09:17:15</time>
      </trkpt>
      <trkpt lat="41.60429" lon="2.39749">
        <ele>191.8</ele>
        <time>2021-11-13 09:17:16</time>
      </trkpt>
      <trkpt lat="41.60418" lon="2.39745">
        <ele>191.2</ele>
        <time>2021-11-13 09:17:17</time>
      </trkpt>
      <trkpt lat="41.60408" lon="2.39741">
        <ele>191</ele>
        <time>2021-11-13 09:17:18</time>
      </trkpt>
      <trkpt lat="41.60398" lon="2.39739">
        <ele>190.2</ele>
        <time>2021-11-13 09:17:19</time>
      </trkpt>
      <trkpt lat="41.60389" lon="2.3974">
        <ele>189.6</ele>
        <time>2021-11-13 09:17:20</time>
      </trkpt>
      <trkpt lat="41.6038" lon="2.39743">
        <ele>189.4</ele>
        <time>2021-11-13 09:17:21</time>
      </trkpt>
      <trkpt lat="41.60371" lon="2.39749">
        <ele>188.6</ele>
        <time>2021-11-13 09:17:22</time>
      </trkpt>
      <trkpt lat="41.60363" lon="2.39757">
        <ele>188.4</ele>
        <time>2021-11-13 09:17:23</time>
      </trkpt>
      <trkpt lat="41.60356" lon="2.39767">
        <ele>188</ele>
        <time>2021-11-13 09:17:24</time>
      </trkpt>
      <trkpt lat="41.60352" lon="2.39778">
        <ele>187.8</ele>
        <time>2021-11-13 09:17:25</time>
      </trkpt>
      <trkpt lat="41.60349" lon="2.39791">
        <ele>187.2</ele>
        <time>2021-11-13 09:17:26</time>
      </trkpt>
      <trkpt lat="41.60348" lon="2.39804">
        <ele>187</ele>
        <time>2021-11-13 09:17:27</time>
      </trkpt>
      <trkpt lat="41.60347" lon="2.39817">
        <ele>186.6</ele>
        <time>2021-11-13 09:17:28</time>
      </trkpt>
      <trkpt lat="41.60345" lon="2.39829">
        <ele>185.8</ele>
        <time>2021-11-13 09:17:29</time>
      </trkpt>
      <trkpt lat="41.60339" lon="2.39839">
        <ele>185.6</ele>
        <time>2021-11-13 09:17:30</time>
      </trkpt>
      <trkpt lat="41.6033" lon="2.39845">
        <ele>184.6</ele>
        <time>2021-11-13 09:17:31</time>
      </trkpt>
      <trkpt lat="41.6032" lon="2.39845">
        <ele>184.2</ele>
        <time>2021-11-13 09:17:32</time>
      </trkpt>
      <trkpt lat="41.6031" lon="2.39845">
        <ele>183.8</ele>
        <time>2021-11-13 09:17:33</time>
      </trkpt>
      <trkpt lat="41.60299" lon="2.39844">
        <ele>183.4</ele>
        <time>2021-11-13 09:17:34</time>
      </trkpt>
      <trkpt lat="41.6029" lon="2.39846">
        <ele>182.8</ele>
        <time>2021-11-13 09:17:35</time>
      </trkpt>
      <trkpt lat="41.60281" lon="2.39852">
        <ele>182</ele>
        <time>2021-11-13 09:17:36</time>
      </trkpt>
      <trkpt lat="41.60273" lon="2.39859">
        <ele>181.6</ele>
        <time>2021-11-13 09:17:37</time>
      </trkpt>
      <trkpt lat="41.60265" lon="2.39867">
        <ele>181</ele>
        <time>2021-11-13 09:17:38</time>
      </trkpt>
      <trkpt lat="41.60258" lon="2.39875">
        <ele>180.6</ele>
        <time>2021-11-13 09:17:39</time>
      </trkpt>
      <trkpt lat="41.6025" lon="2.39884">
        <ele>180</ele>
        <time>2021-11-13 09:17:40</time>
      </trkpt>
      <trkpt lat="41.60242" lon="2.39894">
        <ele>179.8</ele>
        <time>2021-11-13 09:17:41</time>
      </trkpt>
      <trkpt lat="41.60235" lon="2.39904">
        <ele>179</ele>
        <time>2021-11-13 09:17:42</time>
      </trkpt>
      <trkpt lat="41.60228" lon="2.39915">
        <ele>178.6</ele>
        <time>2021-11-13 09:17:43</time>
      </trkpt>
      <trkpt lat="41.60222" lon="2.39926">
        <ele>177.8</ele>
        <time>2021-11-13 09:17:44</time>
      </trkpt>
      <trkpt lat="41.60217" lon="2.39936">
        <ele>177</ele>
        <time>2021-11-13 09:17:45</time>
      </trkpt>
      <trkpt lat="41.60213" lon="2.39945">
        <ele>176.4</ele>
        <time>2021-11-13 09:17:46</time>
      </trkpt>
      <trkpt lat="41.6021" lon="2.39953">
        <ele>175.8</ele>
        <time>2021-11-13 09:17:47</time>
      </trkpt>
      <trkpt lat="41.60208" lon="2.39959">
        <ele>175.6</ele>
        <time>2021-11-13 09:17:48</time>
      </trkpt>
      <trkpt lat="41.60206" lon="2.39963">
        <ele>174.8</ele>
        <time>2021-11-13 09:17:49</time>
      </trkpt>
      <trkpt lat="41.60203" lon="2.39965">
        <ele>174.2</ele>
        <time>2021-11-13 09:17:50</time>
      </trkpt>
      <trkpt lat="41.602" lon="2.39964">
        <ele>173.6</ele>
        <time>2021-11-13 09:17:51</time>
      </trkpt>
      <trkpt lat="41.60199" lon="2.39962">
        <ele>173.4</ele>
        <time>2021-11-13 09:17:52</time>
      </trkpt>
      <trkpt lat="41.60199" lon="2.39958">
        <ele>173</ele>
        <time>2021-11-13 09:17:53</time>
      </trkpt>
      <trkpt lat="41.60198" lon="2.39955">
        <ele>172.4</ele>
        <time>2021-11-13 09:17:54</time>
      </trkpt>
      <trkpt lat="41.60198" lon="2.39951">
        <ele>172.2</ele>
        <time>2021-11-13 09:17:55</time>
      </trkpt>
      <trkpt lat="41.60199" lon="2.39945">
        <ele>172</ele>
        <time>2021-11-13 09:17:56</time>
      </trkpt>
      <trkpt lat="41.602" lon="2.39942">
        <ele>171.8</ele>
        <time>2021-11-13 09:17:57</time>
      </trkpt>
      <trkpt lat="41.60202" lon="2.39936">
        <ele>171.6</ele>
        <time>2021-11-13 09:17:58</time>
      </trkpt>
      <trkpt lat="41.60203" lon="2.3993">
        <ele>171.4</ele>
        <time>2021-11-13 09:17:59</time>
      </trkpt>
      <trkpt lat="41.60205" lon="2.39924">
        <ele>171</ele>
        <time>2021-11-13 09:18:00</time>
      </trkpt>
      <trkpt lat="41.60206" lon="2.39917">
        <ele>170.8</ele>
        <time>2021-11-13 09:18:01</time>
      </trkpt>
      <trkpt lat="41.60207" lon="2.39909">
        <ele>170.4</ele>
        <time>2021-11-13 09:18:02</time>
      </trkpt>
      <trkpt lat="41.60207" lon="2.39901">
        <ele>170</ele>
        <time>2021-11-13 09:18:03</time>
      </trkpt>
      <trkpt lat="41.60205" lon="2.39893">
        <ele>169.8</ele>
        <time>2021-11-13 09:18:04</time>
      </trkpt>
      <trkpt lat="41.60201" lon="2.39885">
        <ele>169.4</ele>
        <time>2021-11-13 09:18:05</time>
      </trkpt>
      <trkpt lat="41.60197" lon="2.39877">
        <ele>169.2</ele>
        <time>2021-11-13 09:18:06</time>
      </trkpt>
      <trkpt lat="41.60192" lon="2.3987">
        <ele>168.8</ele>
        <time>2021-11-13 09:18:07</time>
      </trkpt>
      <trkpt lat="41.60188" lon="2.39863">
        <ele>168.8</ele>
        <time>2021-11-13 09:18:08</time>
      </trkpt>
      <trkpt lat="41.60183" lon="2.39857">
        <ele>168.4</ele>
        <time>2021-11-13 09:18:09</time>
      </trkpt>
      <trkpt lat="41.60177" lon="2.39851">
        <ele>167.8</ele>
        <time>2021-11-13 09:18:10</time>
      </trkpt>
      <trkpt lat="41.60171" lon="2.39845">
        <ele>167.6</ele>
        <time>2021-11-13 09:18:11</time>
      </trkpt>
      <trkpt lat="41.60165" lon="2.39839">
        <ele>167.2</ele>
        <time>2021-11-13 09:18:12</time>
      </trkpt>
      <trkpt lat="41.60159" lon="2.39834">
        <ele>167</ele>
        <time>2021-11-13 09:18:13</time>
      </trkpt>
      <trkpt lat="41.60152" lon="2.39829">
        <ele>166.8</ele>
        <time>2021-11-13 09:18:14</time>
      </trkpt>
      <trkpt lat="41.60146" lon="2.39825">
        <ele>166.6</ele>
        <time>2021-11-13 09:18:15</time>
      </trkpt>
      <trkpt lat="41.60139" lon="2.39821">
        <ele>166.2</ele>
        <time>2021-11-13 09:18:16</time>
      </trkpt>
      <trkpt lat="41.60132" lon="2.39818">
        <ele>166</ele>
        <time>2021-11-13 09:18:17</time>
      </trkpt>
      <trkpt lat="41.60124" lon="2.39817">
        <ele>165.8</ele>
        <time>2021-11-13 09:18:18</time>
      </trkpt>
      <trkpt lat="41.60117" lon="2.39816">
        <ele>165.4</ele>
        <time>2021-11-13 09:18:19</time>
      </trkpt>
      <trkpt lat="41.60109" lon="2.39818">
        <ele>165.2</ele>
        <time>2021-11-13 09:18:20</time>
      </trkpt>
      <trkpt lat="41.60102" lon="2.3982">
        <ele>165</ele>
        <time>2021-11-13 09:18:21</time>
      </trkpt>
      <trkpt lat="41.60095" lon="2.39823">
        <ele>165</ele>
        <time>2021-11-13 09:18:22</time>
      </trkpt>
      <trkpt lat="41.60087" lon="2.39827">
        <ele>164.8</ele>
        <time>2021-11-13 09:18:23</time>
      </trkpt>
      <trkpt lat="41.6008" lon="2.39831">
        <ele>164.6</ele>
        <time>2021-11-13 09:18:24</time>
      </trkpt>
      <trkpt lat="41.60072" lon="2.39835">
        <ele>164.4</ele>
        <time>2021-11-13 09:18:25</time>
      </trkpt>
      <trkpt lat="41.60065" lon="2.3984">
        <ele>164.2</ele>
        <time>2021-11-13 09:18:26</time>
      </trkpt>
      <trkpt lat="41.60057" lon="2.39845">
        <ele>163.8</ele>
        <time>2021-11-13 09:18:27</time>
      </trkpt>
      <trkpt lat="41.6005" lon="2.39851">
        <ele>163.6</ele>
        <time>2021-11-13 09:18:28</time>
      </trkpt>
      <trkpt lat="41.60043" lon="2.39857">
        <ele>163.4</ele>
        <time>2021-11-13 09:18:29</time>
      </trkpt>
      <trkpt lat="41.60036" lon="2.39863">
        <ele>163</ele>
        <time>2021-11-13 09:18:30</time>
      </trkpt>
      <trkpt lat="41.60029" lon="2.3987">
        <ele>162.8</ele>
        <time>2021-11-13 09:18:31</time>
      </trkpt>
      <trkpt lat="41.60022" lon="2.39877">
        <ele>162.4</ele>
        <time>2021-11-13 09:18:32</time>
      </trkpt>
      <trkpt lat="41.60015" lon="2.39884">
        <ele>162.2</ele>
        <time>2021-11-13 09:18:33</time>
      </trkpt>
      <trkpt lat="41.60008" lon="2.39891">
        <ele>161.8</ele>
        <time>2021-11-13 09:18:34</time>
      </trkpt>
      <trkpt lat="41.6" lon="2.39898">
        <ele>161.8</ele>
        <time>2021-11-13 09:18:35</time>
      </trkpt>
      <trkpt lat="41.59992" lon="2.39904">
        <ele>161</ele>
        <time>2021-11-13 09:18:36</time>
      </trkpt>
      <trkpt lat="41.59984" lon="2.39909">
        <ele>160.6</ele>
        <time>2021-11-13 09:18:37</time>
      </trkpt>
      <trkpt lat="41.59976" lon="2.39913">
        <ele>160.6</ele>
        <time>2021-11-13 09:18:38</time>
      </trkpt>
      <trkpt lat="41.59967" lon="2.39917">
        <ele>159.8</ele>
        <time>2021-11-13 09:18:39</time>
      </trkpt>
      <trkpt lat="41.59959" lon="2.39919">
        <ele>159.6</ele>
        <time>2021-11-13 09:18:40</time>
      </trkpt>
      <trkpt lat="41.5995" lon="2.39922">
        <ele>159.4</ele>
        <time>2021-11-13 09:18:41</time>
      </trkpt>
      <trkpt lat="41.59941" lon="2.39926">
        <ele>159.2</ele>
        <time>2021-11-13 09:18:42</time>
      </trkpt>
      <trkpt lat="41.59933" lon="2.39929">
        <ele>158.8</ele>
        <time>2021-11-13 09:18:43</time>
      </trkpt>
      <trkpt lat="41.59925" lon="2.39934">
        <ele>158.4</ele>
        <time>2021-11-13 09:18:44</time>
      </trkpt>
      <trkpt lat="41.59917" lon="2.39939">
        <ele>158.4</ele>
        <time>2021-11-13 09:18:45</time>
      </trkpt>
      <trkpt lat="41.59909" lon="2.39944">
        <ele>158</ele>
        <time>2021-11-13 09:18:46</time>
      </trkpt>
      <trkpt lat="41.59901" lon="2.39949">
        <ele>157.8</ele>
        <time>2021-11-13 09:18:47</time>
      </trkpt>
      <trkpt lat="41.59893" lon="2.39954">
        <ele>157.6</ele>
        <time>2021-11-13 09:18:48</time>
      </trkpt>
      <trkpt lat="41.59885" lon="2.3996">
        <ele>157.4</ele>
        <time>2021-11-13 09:18:49</time>
      </trkpt>
      <trkpt lat="41.59878" lon="2.39965">
        <ele>157.2</ele>
        <time>2021-11-13 09:18:50</time>
      </trkpt>
      <trkpt lat="41.5987" lon="2.3997">
        <ele>157</ele>
        <time>2021-11-13 09:18:51</time>
      </trkpt>
      <trkpt lat="41.59862" lon="2.39975">
        <ele>156.8</ele>
        <time>2021-11-13 09:18:52</time>
      </trkpt>
      <trkpt lat="41.59855" lon="2.39981">
        <ele>156.6</ele>
        <time>2021-11-13 09:18:53</time>
      </trkpt>
      <trkpt lat="41.59847" lon="2.39986">
        <ele>156.4</ele>
        <time>2021-11-13 09:18:54</time>
      </trkpt>
      <trkpt lat="41.59839" lon="2.39991">
        <ele>156.2</ele>
        <time>2021-11-13 09:18:55</time>
      </trkpt>
      <trkpt lat="41.59832" lon="2.39996">
        <ele>156.2</ele>
        <time>2021-11-13 09:18:56</time>
      </trkpt>
      <trkpt lat="41.59824" lon="2.40002">
        <ele>156</ele>
        <time>2021-11-13 09:18:57</time>
      </trkpt>
      <trkpt lat="41.59816" lon="2.40007">
        <ele>156</ele>
        <time>2021-11-13 09:18:58</time>
      </trkpt>
      <trkpt lat="41.59808" lon="2.40013">
        <ele>155.8</ele>
        <time>2021-11-13 09:18:59</time>
      </trkpt>
      <trkpt lat="41.59801" lon="2.40018">
        <ele>155.8</ele>
        <time>2021-11-13 09:19:00</time>
      </trkpt>
      <trkpt lat="41.59794" lon="2.40025">
        <ele>155.6</ele>
        <time>2021-11-13 09:19:01</time>
      </trkpt>
      <trkpt lat="41.59787" lon="2.40032">
        <ele>155.4</ele>
        <time>2021-11-13 09:19:02</time>
      </trkpt>
      <trkpt lat="41.5978" lon="2.4004">
        <ele>155.2</ele>
        <time>2021-11-13 09:19:03</time>
      </trkpt>
      <trkpt lat="41.59774" lon="2.40048">
        <ele>155</ele>
        <time>2021-11-13 09:19:04</time>
      </trkpt>
      <trkpt lat="41.59769" lon="2.40057">
        <ele>154.8</ele>
        <time>2021-11-13 09:19:05</time>
      </trkpt>
      <trkpt lat="41.59763" lon="2.40066">
        <ele>154.6</ele>
        <time>2021-11-13 09:19:06</time>
      </trkpt>
      <trkpt lat="41.59758" lon="2.40074">
        <ele>154.4</ele>
        <time>2021-11-13 09:19:07</time>
      </trkpt>
      <trkpt lat="41.59753" lon="2.40083">
        <ele>154.4</ele>
        <time>2021-11-13 09:19:08</time>
      </trkpt>
      <trkpt lat="41.59747" lon="2.40091">
        <ele>154.2</ele>
        <time>2021-11-13 09:19:09</time>
      </trkpt>
      <trkpt lat="41.59742" lon="2.40099">
        <ele>154.2</ele>
        <time>2021-11-13 09:19:10</time>
      </trkpt>
      <trkpt lat="41.59736" lon="2.40107">
        <ele>153.8</ele>
        <time>2021-11-13 09:19:11</time>
      </trkpt>
      <trkpt lat="41.59731" lon="2.40115">
        <ele>153.6</ele>
        <time>2021-11-13 09:19:12</time>
      </trkpt>
      <trkpt lat="41.59726" lon="2.40123">
        <ele>153.4</ele>
        <time>2021-11-13 09:19:13</time>
      </trkpt>
      <trkpt lat="41.59721" lon="2.40132">
        <ele>153.4</ele>
        <time>2021-11-13 09:19:14</time>
      </trkpt>
      <trkpt lat="41.59716" lon="2.40139">
        <ele>153.2</ele>
        <time>2021-11-13 09:19:15</time>
      </trkpt>
      <trkpt lat="41.59711" lon="2.40147">
        <ele>153</ele>
        <time>2021-11-13 09:19:16</time>
      </trkpt>
      <trkpt lat="41.59706" lon="2.40155">
        <ele>152.8</ele>
        <time>2021-11-13 09:19:17</time>
      </trkpt>
      <trkpt lat="41.59701" lon="2.40163">
        <ele>152.8</ele>
        <time>2021-11-13 09:19:18</time>
      </trkpt>
      <trkpt lat="41.59696" lon="2.40171">
        <ele>152.6</ele>
        <time>2021-11-13 09:19:19</time>
      </trkpt>
      <trkpt lat="41.59691" lon="2.4018">
        <ele>152.4</ele>
        <time>2021-11-13 09:19:20</time>
      </trkpt>
      <trkpt lat="41.59686" lon="2.40188">
        <ele>152.2</ele>
        <time>2021-11-13 09:19:21</time>
      </trkpt>
      <trkpt lat="41.59681" lon="2.40197">
        <ele>152</ele>
        <time>2021-11-13 09:19:22</time>
      </trkpt>
      <trkpt lat="41.59676" lon="2.40205">
        <ele>152</ele>
        <time>2021-11-13 09:19:23</time>
      </trkpt>
      <trkpt lat="41.5967" lon="2.40213">
        <ele>151.8</ele>
        <time>2021-11-13 09:19:24</time>
      </trkpt>
      <trkpt lat="41.59665" lon="2.40221">
        <ele>151.6</ele>
        <time>2021-11-13 09:19:25</time>
      </trkpt>
      <trkpt lat="41.5966" lon="2.40228">
        <ele>151.4</ele>
        <time>2021-11-13 09:19:26</time>
      </trkpt>
      <trkpt lat="41.59655" lon="2.40236">
        <ele>151.4</ele>
        <time>2021-11-13 09:19:27</time>
      </trkpt>
      <trkpt lat="41.5965" lon="2.40244">
        <ele>151.4</ele>
        <time>2021-11-13 09:19:28</time>
      </trkpt>
      <trkpt lat="41.59645" lon="2.40253">
        <ele>151</ele>
        <time>2021-11-13 09:19:29</time>
      </trkpt>
      <trkpt lat="41.5964" lon="2.40261">
        <ele>151</ele>
        <time>2021-11-13 09:19:30</time>
      </trkpt>
      <trkpt lat="41.59635" lon="2.40269">
        <ele>150.6</ele>
        <time>2021-11-13 09:19:31</time>
      </trkpt>
      <trkpt lat="41.5963" lon="2.40277">
        <ele>150.4</ele>
        <time>2021-11-13 09:19:32</time>
      </trkpt>
      <trkpt lat="41.59625" lon="2.40285">
        <ele>150.2</ele>
        <time>2021-11-13 09:19:33</time>
      </trkpt>
      <trkpt lat="41.5962" lon="2.40293">
        <ele>150</ele>
        <time>2021-11-13 09:19:34</time>
      </trkpt>
      <trkpt lat="41.59615" lon="2.40301">
        <ele>149.8</ele>
        <time>2021-11-13 09:19:35</time>
      </trkpt>
      <trkpt lat="41.5961" lon="2.40308">
        <ele>149.6</ele>
        <time>2021-11-13 09:19:36</time>
      </trkpt>
      <trkpt lat="41.59606" lon="2.40316">
        <ele>149.6</ele>
        <time>2021-11-13 09:19:37</time>
      </trkpt>
      <trkpt lat="41.59601" lon="2.40324">
        <ele>149.4</ele>
        <time>2021-11-13 09:19:38</time>
      </trkpt>
      <trkpt lat="41.59596" lon="2.40331">
        <ele>149.4</ele>
        <time>2021-11-13 09:19:39</time>
      </trkpt>
      <trkpt lat="41.59591" lon="2.40339">
        <ele>149.2</ele>
        <time>2021-11-13 09:19:40</time>
      </trkpt>
      <trkpt lat="41.59586" lon="2.40346">
        <ele>149.2</ele>
        <time>2021-11-13 09:19:41</time>
      </trkpt>
      <trkpt lat="41.59582" lon="2.40354">
        <ele>149</ele>
        <time>2021-11-13 09:19:42</time>
      </trkpt>
      <trkpt lat="41.59577" lon="2.40362">
        <ele>149</ele>
        <time>2021-11-13 09:19:43</time>
      </trkpt>
      <trkpt lat="41.59573" lon="2.40369">
        <ele>148.8</ele>
        <time>2021-11-13 09:19:44</time>
      </trkpt>
      <trkpt lat="41.59568" lon="2.40376">
        <ele>148.6</ele>
        <time>2021-11-13 09:19:45</time>
      </trkpt>
      <trkpt lat="41.59563" lon="2.40383">
        <ele>148.4</ele>
        <time>2021-11-13 09:19:46</time>
      </trkpt>
      <trkpt lat="41.59558" lon="2.40391">
        <ele>148.4</ele>
        <time>2021-11-13 09:19:47</time>
      </trkpt>
      <trkpt lat="41.59553" lon="2.40399">
        <ele>148.2</ele>
        <time>2021-11-13 09:19:48</time>
      </trkpt>
      <trkpt lat="41.59547" lon="2.40407">
        <ele>148</ele>
        <time>2021-11-13 09:19:49</time>
      </trkpt>
      <trkpt lat="41.59542" lon="2.40415">
        <ele>148</ele>
        <time>2021-11-13 09:19:50</time>
      </trkpt>
      <trkpt lat="41.59537" lon="2.40422">
        <ele>147.8</ele>
        <time>2021-11-13 09:19:51</time>
      </trkpt>
      <trkpt lat="41.59532" lon="2.4043">
        <ele>147.8</ele>
        <time>2021-11-13 09:19:52</time>
      </trkpt>
      <trkpt lat="41.59527" lon="2.40438">
        <ele>147.6</ele>
        <time>2021-11-13 09:19:53</time>
      </trkpt>
      <trkpt lat="41.59522" lon="2.40446">
        <ele>147.4</ele>
        <time>2021-11-13 09:19:54</time>
      </trkpt>
      <trkpt lat="41.59517" lon="2.40454">
        <ele>147.2</ele>
        <time>2021-11-13 09:19:55</time>
      </trkpt>
      <trkpt lat="41.59512" lon="2.40462">
        <ele>147</ele>
        <time>2021-11-13 09:19:56</time>
      </trkpt>
      <trkpt lat="41.59507" lon="2.4047">
        <ele>146.8</ele>
        <time>2021-11-13 09:19:57</time>
      </trkpt>
      <trkpt lat="41.59502" lon="2.40479">
        <ele>146.6</ele>
        <time>2021-11-13 09:19:58</time>
      </trkpt>
      <trkpt lat="41.59497" lon="2.40487">
        <ele>146.6</ele>
        <time>2021-11-13 09:19:59</time>
      </trkpt>
      <trkpt lat="41.59492" lon="2.40495">
        <ele>146.2</ele>
        <time>2021-11-13 09:20:00</time>
      </trkpt>
      <trkpt lat="41.59487" lon="2.40505">
        <ele>146.2</ele>
        <time>2021-11-13 09:20:01</time>
      </trkpt>
      <trkpt lat="41.59484" lon="2.40512">
        <ele>145.8</ele>
        <time>2021-11-13 09:20:02</time>
      </trkpt>
      <trkpt lat="41.59479" lon="2.4052">
        <ele>145.6</ele>
        <time>2021-11-13 09:20:03</time>
      </trkpt>
      <trkpt lat="41.59475" lon="2.40529">
        <ele>145.4</ele>
        <time>2021-11-13 09:20:04</time>
      </trkpt>
      <trkpt lat="41.59472" lon="2.40536">
        <ele>145</ele>
        <time>2021-11-13 09:20:05</time>
      </trkpt>
      <trkpt lat="41.59469" lon="2.40543">
        <ele>144.8</ele>
        <time>2021-11-13 09:20:06</time>
      </trkpt>
      <trkpt lat="41.59466" lon="2.4055">
        <ele>144.8</ele>
        <time>2021-11-13 09:20:07</time>
      </trkpt>
      <trkpt lat="41.59463" lon="2.40555">
        <ele>144.6</ele>
        <time>2021-11-13 09:20:08</time>
      </trkpt>
      <trkpt lat="41.5946" lon="2.40559">
        <ele>144.2</ele>
        <time>2021-11-13 09:20:09</time>
      </trkpt>
      <trkpt lat="41.59458" lon="2.40562">
        <ele>144.2</ele>
        <time>2021-11-13 09:20:10</time>
      </trkpt>
      <trkpt lat="41.59456" lon="2.40563">
        <ele>144</ele>
        <time>2021-11-13 09:20:11</time>
      </trkpt>
      <trkpt lat="41.59455" lon="2.40564">
        <ele>144</ele>
        <time>2021-11-13 09:20:12</time>
      </trkpt>
      <trkpt lat="41.59454" lon="2.40564">
        <ele>144</ele>
        <time>2021-11-13 09:20:13</time>
      </trkpt>
      <trkpt lat="41.59454" lon="2.40564">
        <ele>143.8</ele>
        <time>2021-11-13 09:20:14</time>
      </trkpt>
      <trkpt lat="41.59457" lon="2.40568">
        <ele>143.6</ele>
        <time>2021-11-13 09:20:15</time>
      </trkpt>
      <trkpt lat="41.59458" lon="2.40567">
        <ele>143.6</ele>
        <time>2021-11-13 09:20:16</time>
      </trkpt>
      <trkpt lat="41.5946" lon="2.40566">
        <ele>143.6</ele>
        <time>2021-11-13 09:20:17</time>
      </trkpt>
      <trkpt lat="41.59461" lon="2.40564">
        <ele>143.6</ele>
        <time>2021-11-13 09:20:18</time>
      </trkpt>
      <trkpt lat="41.59463" lon="2.40561">
        <ele>143.6</ele>
        <time>2021-11-13 09:20:19</time>
      </trkpt>
      <trkpt lat="41.59464" lon="2.40559">
        <ele>143.6</ele>
        <time>2021-11-13 09:20:20</time>
      </trkpt>
      <trkpt lat="41.59466" lon="2.40556">
        <ele>143.6</ele>
        <time>2021-11-13 09:20:21</time>
      </trkpt>
      <trkpt lat="41.59467" lon="2.40552">
        <ele>143.6</ele>
        <time>2021-11-13 09:20:22</time>
      </trkpt>
      <trkpt lat="41.59469" lon="2.40549">
        <ele>143.6</ele>
        <time>2021-11-13 09:20:23</time>
      </trkpt>
      <trkpt lat="41.5947" lon="2.40545">
        <ele>143.6</ele>
        <time>2021-11-13 09:20:32</time>
      </trkpt>
      <trkpt lat="41.59472" lon="2.40541">
        <ele>143.6</ele>
        <time>2021-11-13 09:20:33</time>
      </trkpt>
      <trkpt lat="41.59474" lon="2.40537">
        <ele>143.6</ele>
        <time>2021-11-13 09:20:34</time>
      </trkpt>
      <trkpt lat="41.59476" lon="2.40533">
        <ele>143.6</ele>
        <time>2021-11-13 09:20:35</time>
      </trkpt>
      <trkpt lat="41.59479" lon="2.40528">
        <ele>143.6</ele>
        <time>2021-11-13 09:20:36</time>
      </trkpt>
      <trkpt lat="41.59481" lon="2.40524">
        <ele>143.6</ele>
        <time>2021-11-13 09:20:37</time>
      </trkpt>
      <trkpt lat="41.59484" lon="2.40519">
        <ele>143.6</ele>
        <time>2021-11-13 09:20:38</time>
      </trkpt>
      <trkpt lat="41.59486" lon="2.40513">
        <ele>143.8</ele>
        <time>2021-11-13 09:20:39</time>
      </trkpt>
      <trkpt lat="41.59489" lon="2.40509">
        <ele>143.8</ele>
        <time>2021-11-13 09:20:40</time>
      </trkpt>
      <trkpt lat="41.59491" lon="2.40504">
        <ele>143.8</ele>
        <time>2021-11-13 09:20:41</time>
      </trkpt>
      <trkpt lat="41.59494" lon="2.40499">
        <ele>144</ele>
        <time>2021-11-13 09:20:42</time>
      </trkpt>
      <trkpt lat="41.59497" lon="2.40494">
        <ele>144</ele>
        <time>2021-11-13 09:20:43</time>
      </trkpt>
      <trkpt lat="41.595" lon="2.4049">
        <ele>144</ele>
        <time>2021-11-13 09:20:44</time>
      </trkpt>
      <trkpt lat="41.59503" lon="2.40485">
        <ele>144</ele>
        <time>2021-11-13 09:20:45</time>
      </trkpt>
      <trkpt lat="41.59507" lon="2.4048">
        <ele>144</ele>
        <time>2021-11-13 09:20:46</time>
      </trkpt>
      <trkpt lat="41.5951" lon="2.40475">
        <ele>144.2</ele>
        <time>2021-11-13 09:20:47</time>
      </trkpt>
      <trkpt lat="41.59513" lon="2.4047">
        <ele>144.4</ele>
        <time>2021-11-13 09:20:48</time>
      </trkpt>
      <trkpt lat="41.59516" lon="2.40466">
        <ele>144.6</ele>
        <time>2021-11-13 09:20:49</time>
      </trkpt>
      <trkpt lat="41.59519" lon="2.40461">
        <ele>144.8</ele>
        <time>2021-11-13 09:20:50</time>
      </trkpt>
      <trkpt lat="41.59522" lon="2.40456">
        <ele>144.8</ele>
        <time>2021-11-13 09:20:51</time>
      </trkpt>
      <trkpt lat="41.59525" lon="2.40452">
        <ele>144.8</ele>
        <time>2021-11-13 09:20:52</time>
      </trkpt>
      <trkpt lat="41.59528" lon="2.40447">
        <ele>145</ele>
        <time>2021-11-13 09:20:53</time>
      </trkpt>
      <trkpt lat="41.59532" lon="2.40441">
        <ele>145</ele>
        <time>2021-11-13 09:20:54</time>
      </trkpt>
      <trkpt lat="41.59535" lon="2.40436">
        <ele>145.2</ele>
        <time>2021-11-13 09:20:55</time>
      </trkpt>
      <trkpt lat="41.59539" lon="2.40431">
        <ele>145.2</ele>
        <time>2021-11-13 09:20:56</time>
      </trkpt>
      <trkpt lat="41.59542" lon="2.40426">
        <ele>145.2</ele>
        <time>2021-11-13 09:20:57</time>
      </trkpt>
      <trkpt lat="41.59545" lon="2.4042">
        <ele>145.2</ele>
        <time>2021-11-13 09:20:58</time>
      </trkpt>
      <trkpt lat="41.59548" lon="2.40415">
        <ele>145.2</ele>
        <time>2021-11-13 09:20:59</time>
      </trkpt>
      <trkpt lat="41.59552" lon="2.40409">
        <ele>145.4</ele>
        <time>2021-11-13 09:21:00</time>
      </trkpt>
      <trkpt lat="41.59556" lon="2.40404">
        <ele>145.6</ele>
        <time>2021-11-13 09:21:01</time>
      </trkpt>
      <trkpt lat="41.59559" lon="2.40399">
        <ele>145.8</ele>
        <time>2021-11-13 09:21:02</time>
      </trkpt>
      <trkpt lat="41.59563" lon="2.40394">
        <ele>145.8</ele>
        <time>2021-11-13 09:21:03</time>
      </trkpt>
      <trkpt lat="41.59566" lon="2.40388">
        <ele>146</ele>
        <time>2021-11-13 09:21:04</time>
      </trkpt>
      <trkpt lat="41.5957" lon="2.40383">
        <ele>146</ele>
        <time>2021-11-13 09:21:05</time>
      </trkpt>
      <trkpt lat="41.59573" lon="2.40378">
        <ele>146.2</ele>
        <time>2021-11-13 09:21:06</time>
      </trkpt>
      <trkpt lat="41.59577" lon="2.40372">
        <ele>146.2</ele>
        <time>2021-11-13 09:21:07</time>
      </trkpt>
      <trkpt lat="41.5958" lon="2.40367">
        <ele>146.4</ele>
        <time>2021-11-13 09:21:08</time>
      </trkpt>
      <trkpt lat="41.59584" lon="2.40361">
        <ele>146.6</ele>
        <time>2021-11-13 09:21:09</time>
      </trkpt>
      <trkpt lat="41.59587" lon="2.40356">
        <ele>146.6</ele>
        <time>2021-11-13 09:21:10</time>
      </trkpt>
      <trkpt lat="41.5959" lon="2.40351">
        <ele>147</ele>
        <time>2021-11-13 09:21:11</time>
      </trkpt>
      <trkpt lat="41.59594" lon="2.40346">
        <ele>147.2</ele>
        <time>2021-11-13 09:21:12</time>
      </trkpt>
      <trkpt lat="41.59597" lon="2.4034">
        <ele>147.4</ele>
        <time>2021-11-13 09:21:13</time>
      </trkpt>
      <trkpt lat="41.59601" lon="2.40335">
        <ele>147.4</ele>
        <time>2021-11-13 09:21:14</time>
      </trkpt>
      <trkpt lat="41.59604" lon="2.40329">
        <ele>147.6</ele>
        <time>2021-11-13 09:21:15</time>
      </trkpt>
      <trkpt lat="41.59608" lon="2.40323">
        <ele>147.6</ele>
        <time>2021-11-13 09:21:16</time>
      </trkpt>
      <trkpt lat="41.59611" lon="2.40317">
        <ele>148</ele>
        <time>2021-11-13 09:21:17</time>
      </trkpt>
      <trkpt lat="41.59614" lon="2.40312">
        <ele>148</ele>
        <time>2021-11-13 09:21:18</time>
      </trkpt>
      <trkpt lat="41.59617" lon="2.40306">
        <ele>148.2</ele>
        <time>2021-11-13 09:21:19</time>
      </trkpt>
      <trkpt lat="41.59621" lon="2.40301">
        <ele>148.4</ele>
        <time>2021-11-13 09:21:20</time>
      </trkpt>
      <trkpt lat="41.59625" lon="2.40295">
        <ele>148.6</ele>
        <time>2021-11-13 09:21:21</time>
      </trkpt>
      <trkpt lat="41.59629" lon="2.4029">
        <ele>148.6</ele>
        <time>2021-11-13 09:21:22</time>
      </trkpt>
      <trkpt lat="41.59632" lon="2.40284">
        <ele>148.8</ele>
        <time>2021-11-13 09:21:23</time>
      </trkpt>
      <trkpt lat="41.59636" lon="2.40278">
        <ele>148.8</ele>
        <time>2021-11-13 09:21:24</time>
      </trkpt>
      <trkpt lat="41.5964" lon="2.40272">
        <ele>148.8</ele>
        <time>2021-11-13 09:21:25</time>
      </trkpt>
      <trkpt lat="41.59644" lon="2.40267">
        <ele>148.8</ele>
        <time>2021-11-13 09:21:26</time>
      </trkpt>
      <trkpt lat="41.59648" lon="2.40261">
        <ele>148.8</ele>
        <time>2021-11-13 09:21:27</time>
      </trkpt>
      <trkpt lat="41.59651" lon="2.40255">
        <ele>149</ele>
        <time>2021-11-13 09:21:28</time>
      </trkpt>
      <trkpt lat="41.59655" lon="2.40249">
        <ele>149.2</ele>
        <time>2021-11-13 09:21:29</time>
      </trkpt>
      <trkpt lat="41.59659" lon="2.40243">
        <ele>149.2</ele>
        <time>2021-11-13 09:21:30</time>
      </trkpt>
      <trkpt lat="41.59662" lon="2.40237">
        <ele>149.2</ele>
        <time>2021-11-13 09:21:31</time>
      </trkpt>
      <trkpt lat="41.59666" lon="2.40231">
        <ele>149.2</ele>
        <time>2021-11-13 09:21:32</time>
      </trkpt>
      <trkpt lat="41.5967" lon="2.40225">
        <ele>149.4</ele>
        <time>2021-11-13 09:21:33</time>
      </trkpt>
      <trkpt lat="41.59673" lon="2.40219">
        <ele>149.4</ele>
        <time>2021-11-13 09:21:34</time>
      </trkpt>
      <trkpt lat="41.59677" lon="2.40213">
        <ele>149.4</ele>
        <time>2021-11-13 09:21:35</time>
      </trkpt>
      <trkpt lat="41.59681" lon="2.40207">
        <ele>149.6</ele>
        <time>2021-11-13 09:21:36</time>
      </trkpt>
      <trkpt lat="41.59684" lon="2.40201">
        <ele>149.6</ele>
        <time>2021-11-13 09:21:37</time>
      </trkpt>
      <trkpt lat="41.59688" lon="2.40196">
        <ele>149.6</ele>
        <time>2021-11-13 09:21:38</time>
      </trkpt>
      <trkpt lat="41.59691" lon="2.4019">
        <ele>149.6</ele>
        <time>2021-11-13 09:21:39</time>
      </trkpt>
      <trkpt lat="41.59695" lon="2.40185">
        <ele>149.8</ele>
        <time>2021-11-13 09:21:40</time>
      </trkpt>
      <trkpt lat="41.59699" lon="2.40179">
        <ele>149.8</ele>
        <time>2021-11-13 09:21:41</time>
      </trkpt>
      <trkpt lat="41.59703" lon="2.40173">
        <ele>150</ele>
        <time>2021-11-13 09:21:42</time>
      </trkpt>
      <trkpt lat="41.59706" lon="2.40168">
        <ele>150.2</ele>
        <time>2021-11-13 09:21:43</time>
      </trkpt>
      <trkpt lat="41.5971" lon="2.40162">
        <ele>150.2</ele>
        <time>2021-11-13 09:21:44</time>
      </trkpt>
      <trkpt lat="41.59714" lon="2.40156">
        <ele>150.4</ele>
        <time>2021-11-13 09:21:45</time>
      </trkpt>
      <trkpt lat="41.59717" lon="2.4015">
        <ele>150.6</ele>
        <time>2021-11-13 09:21:46</time>
      </trkpt>
      <trkpt lat="41.59721" lon="2.40144">
        <ele>150.8</ele>
        <time>2021-11-13 09:21:47</time>
      </trkpt>
      <trkpt lat="41.59725" lon="2.40137">
        <ele>150.8</ele>
        <time>2021-11-13 09:21:48</time>
      </trkpt>
      <trkpt lat="41.59729" lon="2.40132">
        <ele>151</ele>
        <time>2021-11-13 09:21:49</time>
      </trkpt>
      <trkpt lat="41.59732" lon="2.40126">
        <ele>151</ele>
        <time>2021-11-13 09:21:50</time>
      </trkpt>
      <trkpt lat="41.59736" lon="2.4012">
        <ele>151.2</ele>
        <time>2021-11-13 09:21:51</time>
      </trkpt>
      <trkpt lat="41.5974" lon="2.40113">
        <ele>151.2</ele>
        <time>2021-11-13 09:21:52</time>
      </trkpt>
      <trkpt lat="41.59744" lon="2.40108">
        <ele>151.4</ele>
        <time>2021-11-13 09:21:53</time>
      </trkpt>
      <trkpt lat="41.59748" lon="2.40102">
        <ele>151.4</ele>
        <time>2021-11-13 09:21:54</time>
      </trkpt>
      <trkpt lat="41.59751" lon="2.40097">
        <ele>151.6</ele>
        <time>2021-11-13 09:21:55</time>
      </trkpt>
      <trkpt lat="41.59755" lon="2.40091">
        <ele>151.8</ele>
        <time>2021-11-13 09:21:56</time>
      </trkpt>
      <trkpt lat="41.59759" lon="2.40085">
        <ele>151.8</ele>
        <time>2021-11-13 09:21:57</time>
      </trkpt>
      <trkpt lat="41.59762" lon="2.40079">
        <ele>152</ele>
        <time>2021-11-13 09:21:58</time>
      </trkpt>
      <trkpt lat="41.59766" lon="2.40073">
        <ele>152</ele>
        <time>2021-11-13 09:21:59</time>
      </trkpt>
      <trkpt lat="41.5977" lon="2.40068">
        <ele>152</ele>
        <time>2021-11-13 09:22:00</time>
      </trkpt>
      <trkpt lat="41.59774" lon="2.40062">
        <ele>152.2</ele>
        <time>2021-11-13 09:22:01</time>
      </trkpt>
      <trkpt lat="41.59777" lon="2.40056">
        <ele>152.2</ele>
        <time>2021-11-13 09:22:02</time>
      </trkpt>
      <trkpt lat="41.59781" lon="2.4005">
        <ele>152.2</ele>
        <time>2021-11-13 09:22:03</time>
      </trkpt>
      <trkpt lat="41.59785" lon="2.40045">
        <ele>152.2</ele>
        <time>2021-11-13 09:22:04</time>
      </trkpt>
      <trkpt lat="41.59789" lon="2.40039">
        <ele>152.2</ele>
        <time>2021-11-13 09:22:05</time>
      </trkpt>
      <trkpt lat="41.59793" lon="2.40034">
        <ele>152.2</ele>
        <time>2021-11-13 09:22:06</time>
      </trkpt>
      <trkpt lat="41.59798" lon="2.4003">
        <ele>152.6</ele>
        <time>2021-11-13 09:22:07</time>
      </trkpt>
      <trkpt lat="41.59802" lon="2.40026">
        <ele>152.6</ele>
        <time>2021-11-13 09:22:08</time>
      </trkpt>
      <trkpt lat="41.59807" lon="2.40022">
        <ele>152.8</ele>
        <time>2021-11-13 09:22:09</time>
      </trkpt>
      <trkpt lat="41.59812" lon="2.40018">
        <ele>152.8</ele>
        <time>2021-11-13 09:22:10</time>
      </trkpt>
      <trkpt lat="41.59817" lon="2.40014">
        <ele>152.8</ele>
        <time>2021-11-13 09:22:11</time>
      </trkpt>
      <trkpt lat="41.59822" lon="2.40011">
        <ele>153</ele>
        <time>2021-11-13 09:22:12</time>
      </trkpt>
      <trkpt lat="41.59826" lon="2.40007">
        <ele>153</ele>
        <time>2021-11-13 09:22:13</time>
      </trkpt>
      <trkpt lat="41.59831" lon="2.40004">
        <ele>153</ele>
        <time>2021-11-13 09:22:14</time>
      </trkpt>
      <trkpt lat="41.59836" lon="2.40001">
        <ele>153.2</ele>
        <time>2021-11-13 09:22:15</time>
      </trkpt>
      <trkpt lat="41.59841" lon="2.39997">
        <ele>153.2</ele>
        <time>2021-11-13 09:22:16</time>
      </trkpt>
      <trkpt lat="41.59846" lon="2.39994">
        <ele>153.2</ele>
        <time>2021-11-13 09:22:17</time>
      </trkpt>
      <trkpt lat="41.59851" lon="2.39991">
        <ele>153.6</ele>
        <time>2021-11-13 09:22:18</time>
      </trkpt>
      <trkpt lat="41.59856" lon="2.39988">
        <ele>153.6</ele>
        <time>2021-11-13 09:22:19</time>
      </trkpt>
      <trkpt lat="41.59861" lon="2.39985">
        <ele>153.6</ele>
        <time>2021-11-13 09:22:20</time>
      </trkpt>
      <trkpt lat="41.59866" lon="2.39981">
        <ele>154</ele>
        <time>2021-11-13 09:22:21</time>
      </trkpt>
      <trkpt lat="41.59871" lon="2.39977">
        <ele>154</ele>
        <time>2021-11-13 09:22:22</time>
      </trkpt>
      <trkpt lat="41.59876" lon="2.39973">
        <ele>154</ele>
        <time>2021-11-13 09:22:23</time>
      </trkpt>
      <trkpt lat="41.59881" lon="2.3997">
        <ele>154.2</ele>
        <time>2021-11-13 09:22:24</time>
      </trkpt>
      <trkpt lat="41.59886" lon="2.39966">
        <ele>154.2</ele>
        <time>2021-11-13 09:22:25</time>
      </trkpt>
      <trkpt lat="41.59892" lon="2.39963">
        <ele>154.2</ele>
        <time>2021-11-13 09:22:26</time>
      </trkpt>
      <trkpt lat="41.59897" lon="2.39959">
        <ele>154.2</ele>
        <time>2021-11-13 09:22:27</time>
      </trkpt>
      <trkpt lat="41.59902" lon="2.39955">
        <ele>154.2</ele>
        <time>2021-11-13 09:22:28</time>
      </trkpt>
      <trkpt lat="41.59907" lon="2.39952">
        <ele>154.2</ele>
        <time>2021-11-13 09:22:29</time>
      </trkpt>
      <trkpt lat="41.59912" lon="2.39949">
        <ele>154.6</ele>
        <time>2021-11-13 09:22:30</time>
      </trkpt>
      <trkpt lat="41.59917" lon="2.39945">
        <ele>154.8</ele>
        <time>2021-11-13 09:22:31</time>
      </trkpt>
      <trkpt lat="41.59923" lon="2.39942">
        <ele>155</ele>
        <time>2021-11-13 09:22:32</time>
      </trkpt>
      <trkpt lat="41.59928" lon="2.39939">
        <ele>155.2</ele>
        <time>2021-11-13 09:22:33</time>
      </trkpt>
      <trkpt lat="41.59933" lon="2.39936">
        <ele>155.2</ele>
        <time>2021-11-13 09:22:34</time>
      </trkpt>
      <trkpt lat="41.59938" lon="2.39934">
        <ele>155.4</ele>
        <time>2021-11-13 09:22:35</time>
      </trkpt>
      <trkpt lat="41.59943" lon="2.39931">
        <ele>155.4</ele>
        <time>2021-11-13 09:22:36</time>
      </trkpt>
      <trkpt lat="41.59949" lon="2.39928">
        <ele>155.6</ele>
        <time>2021-11-13 09:22:37</time>
      </trkpt>
      <trkpt lat="41.59954" lon="2.39926">
        <ele>155.6</ele>
        <time>2021-11-13 09:22:38</time>
      </trkpt>
      <trkpt lat="41.59959" lon="2.39924">
        <ele>155.8</ele>
        <time>2021-11-13 09:22:39</time>
      </trkpt>
      <trkpt lat="41.59965" lon="2.39922">
        <ele>155.8</ele>
        <time>2021-11-13 09:22:40</time>
      </trkpt>
      <trkpt lat="41.5997" lon="2.3992">
        <ele>156</ele>
        <time>2021-11-13 09:22:41</time>
      </trkpt>
      <trkpt lat="41.59975" lon="2.39919">
        <ele>155.8</ele>
        <time>2021-11-13 09:22:42</time>
      </trkpt>
      <trkpt lat="41.5998" lon="2.39917">
        <ele>156</ele>
        <time>2021-11-13 09:22:43</time>
      </trkpt>
      <trkpt lat="41.59985" lon="2.39915">
        <ele>156</ele>
        <time>2021-11-13 09:22:44</time>
      </trkpt>
      <trkpt lat="41.5999" lon="2.39913">
        <ele>156.2</ele>
        <time>2021-11-13 09:22:45</time>
      </trkpt>
      <trkpt lat="41.59995" lon="2.3991">
        <ele>156.4</ele>
        <time>2021-11-13 09:22:46</time>
      </trkpt>
      <trkpt lat="41.6" lon="2.39907">
        <ele>156.6</ele>
        <time>2021-11-13 09:22:47</time>
      </trkpt>
      <trkpt lat="41.60005" lon="2.39903">
        <ele>156.6</ele>
        <time>2021-11-13 09:22:48</time>
      </trkpt>
      <trkpt lat="41.60009" lon="2.399">
        <ele>156.6</ele>
        <time>2021-11-13 09:22:49</time>
      </trkpt>
      <trkpt lat="41.60013" lon="2.39896">
        <ele>156.8</ele>
        <time>2021-11-13 09:22:50</time>
      </trkpt>
      <trkpt lat="41.60017" lon="2.39892">
        <ele>157</ele>
        <time>2021-11-13 09:22:51</time>
      </trkpt>
      <trkpt lat="41.60022" lon="2.39889">
        <ele>157.2</ele>
        <time>2021-11-13 09:22:52</time>
      </trkpt>
      <trkpt lat="41.60026" lon="2.39885">
        <ele>157.4</ele>
        <time>2021-11-13 09:22:53</time>
      </trkpt>
      <trkpt lat="41.60029" lon="2.39881">
        <ele>157.6</ele>
        <time>2021-11-13 09:22:54</time>
      </trkpt>
      <trkpt lat="41.60034" lon="2.39876">
        <ele>157.8</ele>
        <time>2021-11-13 09:22:55</time>
      </trkpt>
      <trkpt lat="41.60039" lon="2.39872">
        <ele>157.8</ele>
        <time>2021-11-13 09:22:56</time>
      </trkpt>
      <trkpt lat="41.60043" lon="2.39868">
        <ele>158.2</ele>
        <time>2021-11-13 09:22:57</time>
      </trkpt>
      <trkpt lat="41.60048" lon="2.39864">
        <ele>158.4</ele>
        <time>2021-11-13 09:22:58</time>
      </trkpt>
      <trkpt lat="41.60052" lon="2.3986">
        <ele>158.6</ele>
        <time>2021-11-13 09:22:59</time>
      </trkpt>
      <trkpt lat="41.60057" lon="2.39856">
        <ele>158.8</ele>
        <time>2021-11-13 09:23:00</time>
      </trkpt>
      <trkpt lat="41.60062" lon="2.39852">
        <ele>159</ele>
        <time>2021-11-13 09:23:01</time>
      </trkpt>
      <trkpt lat="41.60066" lon="2.39849">
        <ele>159</ele>
        <time>2021-11-13 09:23:02</time>
      </trkpt>
      <trkpt lat="41.60071" lon="2.39845">
        <ele>159.2</ele>
        <time>2021-11-13 09:23:03</time>
      </trkpt>
      <trkpt lat="41.60076" lon="2.39843">
        <ele>159.4</ele>
        <time>2021-11-13 09:23:04</time>
      </trkpt>
      <trkpt lat="41.60081" lon="2.3984">
        <ele>159.6</ele>
        <time>2021-11-13 09:23:05</time>
      </trkpt>
      <trkpt lat="41.60086" lon="2.39837">
        <ele>160</ele>
        <time>2021-11-13 09:23:06</time>
      </trkpt>
      <trkpt lat="41.60091" lon="2.39834">
        <ele>160.2</ele>
        <time>2021-11-13 09:23:07</time>
      </trkpt>
      <trkpt lat="41.60096" lon="2.39831">
        <ele>160.4</ele>
        <time>2021-11-13 09:23:08</time>
      </trkpt>
      <trkpt lat="41.60101" lon="2.39829">
        <ele>160.4</ele>
        <time>2021-11-13 09:23:09</time>
      </trkpt>
      <trkpt lat="41.60106" lon="2.39827">
        <ele>160.6</ele>
        <time>2021-11-13 09:23:10</time>
      </trkpt>
      <trkpt lat="41.60111" lon="2.39825">
        <ele>160.8</ele>
        <time>2021-11-13 09:23:11</time>
      </trkpt>
      <trkpt lat="41.60116" lon="2.39824">
        <ele>160.8</ele>
        <time>2021-11-13 09:23:12</time>
      </trkpt>
      <trkpt lat="41.60121" lon="2.39823">
        <ele>161.2</ele>
        <time>2021-11-13 09:23:13</time>
      </trkpt>
      <trkpt lat="41.60126" lon="2.39823">
        <ele>161.2</ele>
        <time>2021-11-13 09:23:14</time>
      </trkpt>
      <trkpt lat="41.60131" lon="2.39824">
        <ele>161.4</ele>
        <time>2021-11-13 09:23:15</time>
      </trkpt>
      <trkpt lat="41.60136" lon="2.39825">
        <ele>161.6</ele>
        <time>2021-11-13 09:23:16</time>
      </trkpt>
      <trkpt lat="41.60142" lon="2.39827">
        <ele>161.8</ele>
        <time>2021-11-13 09:23:17</time>
      </trkpt>
      <trkpt lat="41.60147" lon="2.3983">
        <ele>162</ele>
        <time>2021-11-13 09:23:18</time>
      </trkpt>
      <trkpt lat="41.60151" lon="2.39833">
        <ele>162.4</ele>
        <time>2021-11-13 09:23:19</time>
      </trkpt>
      <trkpt lat="41.60156" lon="2.39836">
        <ele>162.6</ele>
        <time>2021-11-13 09:23:20</time>
      </trkpt>
      <trkpt lat="41.60161" lon="2.39839">
        <ele>162.6</ele>
        <time>2021-11-13 09:23:21</time>
      </trkpt>
      <trkpt lat="41.60165" lon="2.39843">
        <ele>163</ele>
        <time>2021-11-13 09:23:22</time>
      </trkpt>
      <trkpt lat="41.6017" lon="2.39846">
        <ele>163.2</ele>
        <time>2021-11-13 09:23:23</time>
      </trkpt>
      <trkpt lat="41.60174" lon="2.3985">
        <ele>163.4</ele>
        <time>2021-11-13 09:23:24</time>
      </trkpt>
      <trkpt lat="41.60178" lon="2.39853">
        <ele>163.6</ele>
        <time>2021-11-13 09:23:25</time>
      </trkpt>
      <trkpt lat="41.60182" lon="2.39857">
        <ele>163.6</ele>
        <time>2021-11-13 09:23:26</time>
      </trkpt>
      <trkpt lat="41.60186" lon="2.39861">
        <ele>163.8</ele>
        <time>2021-11-13 09:23:27</time>
      </trkpt>
      <trkpt lat="41.60189" lon="2.39866">
        <ele>163.8</ele>
        <time>2021-11-13 09:23:28</time>
      </trkpt>
      <trkpt lat="41.60192" lon="2.39871">
        <ele>164</ele>
        <time>2021-11-13 09:23:29</time>
      </trkpt>
      <trkpt lat="41.60195" lon="2.39876">
        <ele>164.2</ele>
        <time>2021-11-13 09:23:30</time>
      </trkpt>
      <trkpt lat="41.60198" lon="2.39881">
        <ele>164.4</ele>
        <time>2021-11-13 09:23:31</time>
      </trkpt>
      <trkpt lat="41.60201" lon="2.39886">
        <ele>164.6</ele>
        <time>2021-11-13 09:23:32</time>
      </trkpt>
      <trkpt lat="41.60204" lon="2.39892">
        <ele>164.6</ele>
        <time>2021-11-13 09:23:33</time>
      </trkpt>
      <trkpt lat="41.60205" lon="2.39898">
        <ele>164.8</ele>
        <time>2021-11-13 09:23:34</time>
      </trkpt>
      <trkpt lat="41.60205" lon="2.39904">
        <ele>165</ele>
        <time>2021-11-13 09:23:35</time>
      </trkpt>
      <trkpt lat="41.60205" lon="2.3991">
        <ele>165.2</ele>
        <time>2021-11-13 09:23:36</time>
      </trkpt>
      <trkpt lat="41.60204" lon="2.39916">
        <ele>165.2</ele>
        <time>2021-11-13 09:23:37</time>
      </trkpt>
      <trkpt lat="41.60203" lon="2.39922">
        <ele>165.4</ele>
        <time>2021-11-13 09:23:38</time>
      </trkpt>
      <trkpt lat="41.60202" lon="2.39927">
        <ele>165.4</ele>
        <time>2021-11-13 09:23:39</time>
      </trkpt>
      <trkpt lat="41.60201" lon="2.39932">
        <ele>165.6</ele>
        <time>2021-11-13 09:23:40</time>
      </trkpt>
      <trkpt lat="41.602" lon="2.39937">
        <ele>165.8</ele>
        <time>2021-11-13 09:23:41</time>
      </trkpt>
      <trkpt lat="41.602" lon="2.39942">
        <ele>166.2</ele>
        <time>2021-11-13 09:23:42</time>
      </trkpt>
      <trkpt lat="41.60199" lon="2.39947">
        <ele>166.2</ele>
        <time>2021-11-13 09:23:43</time>
      </trkpt>
      <trkpt lat="41.60199" lon="2.39952">
        <ele>166.6</ele>
        <time>2021-11-13 09:23:44</time>
      </trkpt>
      <trkpt lat="41.602" lon="2.39958">
        <ele>167</ele>
        <time>2021-11-13 09:23:45</time>
      </trkpt>
      <trkpt lat="41.60202" lon="2.39963">
        <ele>167.2</ele>
        <time>2021-11-13 09:23:46</time>
      </trkpt>
      <trkpt lat="41.60206" lon="2.39966">
        <ele>167.6</ele>
        <time>2021-11-13 09:23:47</time>
      </trkpt>
      <trkpt lat="41.6021" lon="2.39966">
        <ele>167.8</ele>
        <time>2021-11-13 09:23:48</time>
      </trkpt>
      <trkpt lat="41.60212" lon="2.39963">
        <ele>168</ele>
        <time>2021-11-13 09:23:49</time>
      </trkpt>
      <trkpt lat="41.60214" lon="2.39958">
        <ele>168</ele>
        <time>2021-11-13 09:23:50</time>
      </trkpt>
      <trkpt lat="41.60216" lon="2.39953">
        <ele>168.2</ele>
        <time>2021-11-13 09:23:51</time>
      </trkpt>
      <trkpt lat="41.60219" lon="2.39948">
        <ele>168.4</ele>
        <time>2021-11-13 09:23:52</time>
      </trkpt>
      <trkpt lat="41.60221" lon="2.39943">
        <ele>168.8</ele>
        <time>2021-11-13 09:23:53</time>
      </trkpt>
      <trkpt lat="41.60223" lon="2.39938">
        <ele>169.2</ele>
        <time>2021-11-13 09:23:54</time>
      </trkpt>
      <trkpt lat="41.60225" lon="2.39933">
        <ele>169.4</ele>
        <time>2021-11-13 09:23:55</time>
      </trkpt>
      <trkpt lat="41.60227" lon="2.39929">
        <ele>169.8</ele>
        <time>2021-11-13 09:23:56</time>
      </trkpt>
      <trkpt lat="41.60229" lon="2.39924">
        <ele>170</ele>
        <time>2021-11-13 09:23:57</time>
      </trkpt>
      <trkpt lat="41.60231" lon="2.39921">
        <ele>170.4</ele>
        <time>2021-11-13 09:23:58</time>
      </trkpt>
      <trkpt lat="41.60234" lon="2.39916">
        <ele>170.6</ele>
        <time>2021-11-13 09:23:59</time>
      </trkpt>
      <trkpt lat="41.60237" lon="2.39912">
        <ele>170.8</ele>
        <time>2021-11-13 09:24:00</time>
      </trkpt>
      <trkpt lat="41.60239" lon="2.39908">
        <ele>171</ele>
        <time>2021-11-13 09:24:01</time>
      </trkpt>
      <trkpt lat="41.60242" lon="2.39904">
        <ele>171.4</ele>
        <time>2021-11-13 09:24:02</time>
      </trkpt>
      <trkpt lat="41.60245" lon="2.399">
        <ele>171.6</ele>
        <time>2021-11-13 09:24:03</time>
      </trkpt>
      <trkpt lat="41.60248" lon="2.39896">
        <ele>171.6</ele>
        <time>2021-11-13 09:24:04</time>
      </trkpt>
      <trkpt lat="41.60251" lon="2.39893">
        <ele>172</ele>
        <time>2021-11-13 09:24:05</time>
      </trkpt>
      <trkpt lat="41.60253" lon="2.39889">
        <ele>172</ele>
        <time>2021-11-13 09:24:06</time>
      </trkpt>
      <trkpt lat="41.60256" lon="2.39886">
        <ele>172.2</ele>
        <time>2021-11-13 09:24:07</time>
      </trkpt>
      <trkpt lat="41.60259" lon="2.39883">
        <ele>172.4</ele>
        <time>2021-11-13 09:24:08</time>
      </trkpt>
      <trkpt lat="41.60262" lon="2.3988">
        <ele>172.8</ele>
        <time>2021-11-13 09:24:09</time>
      </trkpt>
      <trkpt lat="41.60265" lon="2.39877">
        <ele>172.8</ele>
        <time>2021-11-13 09:24:10</time>
      </trkpt>
      <trkpt lat="41.60268" lon="2.39873">
        <ele>173</ele>
        <time>2021-11-13 09:24:11</time>
      </trkpt>
      <trkpt lat="41.60271" lon="2.3987">
        <ele>173</ele>
        <time>2021-11-13 09:24:12</time>
      </trkpt>
      <trkpt lat="41.60274" lon="2.39866">
        <ele>173.2</ele>
        <time>2021-11-13 09:24:13</time>
      </trkpt>
      <trkpt lat="41.60276" lon="2.39863">
        <ele>173.6</ele>
        <time>2021-11-13 09:24:14</time>
      </trkpt>
      <trkpt lat="41.60279" lon="2.3986">
        <ele>173.8</ele>
        <time>2021-11-13 09:24:15</time>
      </trkpt>
      <trkpt lat="41.60282" lon="2.39858">
        <ele>174</ele>
        <time>2021-11-13 09:24:16</time>
      </trkpt>
      <trkpt lat="41.60285" lon="2.39855">
        <ele>174.2</ele>
        <time>2021-11-13 09:24:17</time>
      </trkpt>
      <trkpt lat="41.60289" lon="2.39852">
        <ele>174.4</ele>
        <time>2021-11-13 09:24:18</time>
      </trkpt>
      <trkpt lat="41.60292" lon="2.3985">
        <ele>174.4</ele>
        <time>2021-11-13 09:24:19</time>
      </trkpt>
      <trkpt lat="41.60295" lon="2.39848">
        <ele>174.6</ele>
        <time>2021-11-13 09:24:20</time>
      </trkpt>
      <trkpt lat="41.60298" lon="2.39846">
        <ele>174.8</ele>
        <time>2021-11-13 09:24:21</time>
      </trkpt>
      <trkpt lat="41.60302" lon="2.39844">
        <ele>175</ele>
        <time>2021-11-13 09:24:22</time>
      </trkpt>
      <trkpt lat="41.60306" lon="2.39844">
        <ele>175.4</ele>
        <time>2021-11-13 09:24:23</time>
      </trkpt>
      <trkpt lat="41.60309" lon="2.39843">
        <ele>175.4</ele>
        <time>2021-11-13 09:24:24</time>
      </trkpt>
      <trkpt lat="41.60313" lon="2.39843">
        <ele>175.6</ele>
        <time>2021-11-13 09:24:25</time>
      </trkpt>
      <trkpt lat="41.60316" lon="2.39842">
        <ele>175.8</ele>
        <time>2021-11-13 09:24:26</time>
      </trkpt>
      <trkpt lat="41.6032" lon="2.39842">
        <ele>176</ele>
        <time>2021-11-13 09:24:27</time>
      </trkpt>
      <trkpt lat="41.60324" lon="2.39841">
        <ele>176.4</ele>
        <time>2021-11-13 09:24:28</time>
      </trkpt>
      <trkpt lat="41.60328" lon="2.39841">
        <ele>176.6</ele>
        <time>2021-11-13 09:24:29</time>
      </trkpt>
      <trkpt lat="41.60331" lon="2.39841">
        <ele>177</ele>
        <time>2021-11-13 09:24:30</time>
      </trkpt>
      <trkpt lat="41.60335" lon="2.3984">
        <ele>177</ele>
        <time>2021-11-13 09:24:31</time>
      </trkpt>
      <trkpt lat="41.60339" lon="2.39838">
        <ele>177.4</ele>
        <time>2021-11-13 09:24:32</time>
      </trkpt>
      <trkpt lat="41.60342" lon="2.39836">
        <ele>177.6</ele>
        <time>2021-11-13 09:24:33</time>
      </trkpt>
      <trkpt lat="41.60345" lon="2.39832">
        <ele>177.8</ele>
        <time>2021-11-13 09:24:34</time>
      </trkpt>
      <trkpt lat="41.60347" lon="2.39828">
        <ele>178</ele>
        <time>2021-11-13 09:24:35</time>
      </trkpt>
      <trkpt lat="41.60349" lon="2.39823">
        <ele>178.4</ele>
        <time>2021-11-13 09:24:36</time>
      </trkpt>
      <trkpt lat="41.6035" lon="2.39818">
        <ele>178.6</ele>
        <time>2021-11-13 09:24:37</time>
      </trkpt>
      <trkpt lat="41.6035" lon="2.39813">
        <ele>178.8</ele>
        <time>2021-11-13 09:24:38</time>
      </trkpt>
      <trkpt lat="41.6035" lon="2.39807">
        <ele>179</ele>
        <time>2021-11-13 09:24:39</time>
      </trkpt>
      <trkpt lat="41.6035" lon="2.39802">
        <ele>179.2</ele>
        <time>2021-11-13 09:24:40</time>
      </trkpt>
      <trkpt lat="41.60349" lon="2.39797">
        <ele>179.4</ele>
        <time>2021-11-13 09:24:41</time>
      </trkpt>
      <trkpt lat="41.60349" lon="2.39792">
        <ele>179.4</ele>
        <time>2021-11-13 09:24:42</time>
      </trkpt>
      <trkpt lat="41.60349" lon="2.39787">
        <ele>179.8</ele>
        <time>2021-11-13 09:24:43</time>
      </trkpt>
      <trkpt lat="41.6035" lon="2.39782">
        <ele>179.8</ele>
        <time>2021-11-13 09:24:44</time>
      </trkpt>
      <trkpt lat="41.60351" lon="2.39777">
        <ele>180.2</ele>
        <time>2021-11-13 09:24:45</time>
      </trkpt>
      <trkpt lat="41.60352" lon="2.39773">
        <ele>180.4</ele>
        <time>2021-11-13 09:24:46</time>
      </trkpt>
      <trkpt lat="41.60354" lon="2.39769">
        <ele>180.6</ele>
        <time>2021-11-13 09:24:47</time>
      </trkpt>
      <trkpt lat="41.60357" lon="2.39764">
        <ele>180.6</ele>
        <time>2021-11-13 09:24:48</time>
      </trkpt>
      <trkpt lat="41.60359" lon="2.3976">
        <ele>180.8</ele>
        <time>2021-11-13 09:24:49</time>
      </trkpt>
      <trkpt lat="41.60362" lon="2.39757">
        <ele>181</ele>
        <time>2021-11-13 09:24:50</time>
      </trkpt>
      <trkpt lat="41.60365" lon="2.39753">
        <ele>181.2</ele>
        <time>2021-11-13 09:24:51</time>
      </trkpt>
      <trkpt lat="41.60368" lon="2.3975">
        <ele>181.4</ele>
        <time>2021-11-13 09:24:52</time>
      </trkpt>
      <trkpt lat="41.60371" lon="2.39747">
        <ele>181.6</ele>
        <time>2021-11-13 09:24:53</time>
      </trkpt>
      <trkpt lat="41.60374" lon="2.39744">
        <ele>182</ele>
        <time>2021-11-13 09:24:54</time>
      </trkpt>
      <trkpt lat="41.60377" lon="2.39741">
        <ele>182.2</ele>
        <time>2021-11-13 09:24:55</time>
      </trkpt>
      <trkpt lat="41.60381" lon="2.39738">
        <ele>182.4</ele>
        <time>2021-11-13 09:24:56</time>
      </trkpt>
      <trkpt lat="41.60385" lon="2.39736">
        <ele>182.6</ele>
        <time>2021-11-13 09:24:57</time>
      </trkpt>
      <trkpt lat="41.60388" lon="2.39733">
        <ele>182.8</ele>
        <time>2021-11-13 09:24:58</time>
      </trkpt>
      <trkpt lat="41.60392" lon="2.39732">
        <ele>183</ele>
        <time>2021-11-13 09:24:59</time>
      </trkpt>
      <trkpt lat="41.60396" lon="2.39731">
        <ele>183</ele>
        <time>2021-11-13 09:25:00</time>
      </trkpt>
      <trkpt lat="41.604" lon="2.39732">
        <ele>183.2</ele>
        <time>2021-11-13 09:25:01</time>
      </trkpt>
      <trkpt lat="41.60404" lon="2.39733">
        <ele>183.4</ele>
        <time>2021-11-13 09:25:02</time>
      </trkpt>
      <trkpt lat="41.60408" lon="2.39735">
        <ele>183.6</ele>
        <time>2021-11-13 09:25:03</time>
      </trkpt>
      <trkpt lat="41.60411" lon="2.39737">
        <ele>183.8</ele>
        <time>2021-11-13 09:25:04</time>
      </trkpt>
      <trkpt lat="41.60415" lon="2.39738">
        <ele>184</ele>
        <time>2021-11-13 09:25:05</time>
      </trkpt>
      <trkpt lat="41.6042" lon="2.39739">
        <ele>184.4</ele>
        <time>2021-11-13 09:25:06</time>
      </trkpt>
      <trkpt lat="41.60424" lon="2.3974">
        <ele>184.4</ele>
        <time>2021-11-13 09:25:07</time>
      </trkpt>
      <trkpt lat="41.60428" lon="2.39739">
        <ele>184.8</ele>
        <time>2021-11-13 09:25:08</time>
      </trkpt>
      <trkpt lat="41.60433" lon="2.39737">
        <ele>185</ele>
        <time>2021-11-13 09:25:09</time>
      </trkpt>
      <trkpt lat="41.60437" lon="2.39734">
        <ele>185.2</ele>
        <time>2021-11-13 09:25:10</time>
      </trkpt>
      <trkpt lat="41.60439" lon="2.3973">
        <ele>185.4</ele>
        <time>2021-11-13 09:25:11</time>
      </trkpt>
      <trkpt lat="41.60442" lon="2.39725">
        <ele>185.8</ele>
        <time>2021-11-13 09:25:12</time>
      </trkpt>
      <trkpt lat="41.60443" lon="2.3972">
        <ele>186</ele>
        <time>2021-11-13 09:25:13</time>
      </trkpt>
      <trkpt lat="41.60443" lon="2.39714">
        <ele>186</ele>
        <time>2021-11-13 09:25:14</time>
      </trkpt>
      <trkpt lat="41.60442" lon="2.39709">
        <ele>186.4</ele>
        <time>2021-11-13 09:25:15</time>
      </trkpt>
      <trkpt lat="41.6044" lon="2.39705">
        <ele>186.6</ele>
        <time>2021-11-13 09:25:16</time>
      </trkpt>
      <trkpt lat="41.60437" lon="2.397">
        <ele>186.8</ele>
        <time>2021-11-13 09:25:17</time>
      </trkpt>
      <trkpt lat="41.60434" lon="2.39696">
        <ele>187</ele>
        <time>2021-11-13 09:25:18</time>
      </trkpt>
      <trkpt lat="41.60431" lon="2.39692">
        <ele>187.4</ele>
        <time>2021-11-13 09:25:19</time>
      </trkpt>
      <trkpt lat="41.60427" lon="2.39689">
        <ele>188</ele>
        <time>2021-11-13 09:25:20</time>
      </trkpt>
      <trkpt lat="41.60423" lon="2.39686">
        <ele>188.2</ele>
        <time>2021-11-13 09:25:21</time>
      </trkpt>
      <trkpt lat="41.60419" lon="2.39683">
        <ele>188.6</ele>
        <time>2021-11-13 09:25:22</time>
      </trkpt>
      <trkpt lat="41.60416" lon="2.3968">
        <ele>188.8</ele>
        <time>2021-11-13 09:25:23</time>
      </trkpt>
      <trkpt lat="41.60412" lon="2.39675">
        <ele>189</ele>
        <time>2021-11-13 09:25:24</time>
      </trkpt>
      <trkpt lat="41.60408" lon="2.39671">
        <ele>189.2</ele>
        <time>2021-11-13 09:25:25</time>
      </trkpt>
      <trkpt lat="41.60405" lon="2.39665">
        <ele>189.6</ele>
        <time>2021-11-13 09:25:26</time>
      </trkpt>
      <trkpt lat="41.60403" lon="2.39659">
        <ele>189.6</ele>
        <time>2021-11-13 09:25:27</time>
      </trkpt>
      <trkpt lat="41.60401" lon="2.39652">
        <ele>189.8</ele>
        <time>2021-11-13 09:25:28</time>
      </trkpt>
      <trkpt lat="41.604" lon="2.39646">
        <ele>189.8</ele>
        <time>2021-11-13 09:25:29</time>
      </trkpt>
      <trkpt lat="41.604" lon="2.39639">
        <ele>190</ele>
        <time>2021-11-13 09:25:30</time>
      </trkpt>
      <trkpt lat="41.60399" lon="2.39632">
        <ele>190</ele>
        <time>2021-11-13 09:25:31</time>
      </trkpt>
      <trkpt lat="41.60399" lon="2.39626">
        <ele>190</ele>
        <time>2021-11-13 09:25:32</time>
      </trkpt>
      <trkpt lat="41.60399" lon="2.39621">
        <ele>190</ele>
        <time>2021-11-13 09:25:33</time>
      </trkpt>
      <trkpt lat="41.60398" lon="2.39613">
        <ele>190</ele>
        <time>2021-11-13 09:25:34</time>
      </trkpt>
      <trkpt lat="41.60398" lon="2.39607">
        <ele>190.2</ele>
        <time>2021-11-13 09:25:35</time>
      </trkpt>
      <trkpt lat="41.60398" lon="2.39601">
        <ele>190.2</ele>
        <time>2021-11-13 09:25:36</time>
      </trkpt>
      <trkpt lat="41.60398" lon="2.39595">
        <ele>190.4</ele>
        <time>2021-11-13 09:25:37</time>
      </trkpt>
      <trkpt lat="41.60398" lon="2.39588">
        <ele>190.6</ele>
        <time>2021-11-13 09:25:38</time>
      </trkpt>
      <trkpt lat="41.60398" lon="2.39582">
        <ele>190.8</ele>
        <time>2021-11-13 09:25:39</time>
      </trkpt>
      <trkpt lat="41.60397" lon="2.39576">
        <ele>191</ele>
        <time>2021-11-13 09:25:40</time>
      </trkpt>
      <trkpt lat="41.60397" lon="2.3957">
        <ele>191</ele>
        <time>2021-11-13 09:25:41</time>
      </trkpt>
      <trkpt lat="41.60397" lon="2.39564">
        <ele>191.2</ele>
        <time>2021-11-13 09:25:42</time>
      </trkpt>
      <trkpt lat="41.60397" lon="2.39558">
        <ele>191.4</ele>
        <time>2021-11-13 09:25:43</time>
      </trkpt>
      <trkpt lat="41.60396" lon="2.39553">
        <ele>191.6</ele>
        <time>2021-11-13 09:25:44</time>
      </trkpt>
      <trkpt lat="41.60396" lon="2.39547">
        <ele>191.8</ele>
        <time>2021-11-13 09:25:45</time>
      </trkpt>
      <trkpt lat="41.60396" lon="2.39542">
        <ele>192</ele>
        <time>2021-11-13 09:25:46</time>
      </trkpt>
      <trkpt lat="41.60395" lon="2.39536">
        <ele>192.4</ele>
        <time>2021-11-13 09:25:47</time>
      </trkpt>
      <trkpt lat="41.60395" lon="2.39531">
        <ele>192.6</ele>
        <time>2021-11-13 09:25:48</time>
      </trkpt>
      <trkpt lat="41.60395" lon="2.39526">
        <ele>193</ele>
        <time>2021-11-13 09:25:49</time>
      </trkpt>
      <trkpt lat="41.60394" lon="2.3952">
        <ele>193.2</ele>
        <time>2021-11-13 09:25:50</time>
      </trkpt>
      <trkpt lat="41.60393" lon="2.39515">
        <ele>193.4</ele>
        <time>2021-11-13 09:25:51</time>
      </trkpt>
      <trkpt lat="41.60392" lon="2.39509">
        <ele>193.6</ele>
        <time>2021-11-13 09:25:52</time>
      </trkpt>
      <trkpt lat="41.60391" lon="2.39504">
        <ele>194</ele>
        <time>2021-11-13 09:25:53</time>
      </trkpt>
      <trkpt lat="41.60389" lon="2.39498">
        <ele>194.2</ele>
        <time>2021-11-13 09:25:54</time>
      </trkpt>
      <trkpt lat="41.60388" lon="2.39493">
        <ele>194.8</ele>
        <time>2021-11-13 09:25:55</time>
      </trkpt>
      <trkpt lat="41.60387" lon="2.39489">
        <ele>195.2</ele>
        <time>2021-11-13 09:25:56</time>
      </trkpt>
      <trkpt lat="41.60386" lon="2.39485">
        <ele>195.4</ele>
        <time>2021-11-13 09:25:57</time>
      </trkpt>
      <trkpt lat="41.60386" lon="2.39481">
        <ele>195.6</ele>
        <time>2021-11-13 09:25:58</time>
      </trkpt>
      <trkpt lat="41.60385" lon="2.39476">
        <ele>195.8</ele>
        <time>2021-11-13 09:25:59</time>
      </trkpt>
      <trkpt lat="41.60385" lon="2.39472">
        <ele>196.2</ele>
        <time>2021-11-13 09:26:00</time>
      </trkpt>
      <trkpt lat="41.60384" lon="2.39469">
        <ele>196.2</ele>
        <time>2021-11-13 09:26:01</time>
      </trkpt>
      <trkpt lat="41.60382" lon="2.39469">
        <ele>196.8</ele>
        <time>2021-11-13 09:26:02</time>
      </trkpt>
      <trkpt lat="41.60382" lon="2.39471">
        <ele>197.2</ele>
        <time>2021-11-13 09:26:03</time>
      </trkpt>
      <trkpt lat="41.60383" lon="2.39475">
        <ele>197.2</ele>
        <time>2021-11-13 09:26:04</time>
      </trkpt>
      <trkpt lat="41.60384" lon="2.3948">
        <ele>197.4</ele>
        <time>2021-11-13 09:26:05</time>
      </trkpt>
      <trkpt lat="41.60385" lon="2.39485">
        <ele>197.6</ele>
        <time>2021-11-13 09:26:06</time>
      </trkpt>
      <trkpt lat="41.60386" lon="2.39492">
        <ele>197.8</ele>
        <time>2021-11-13 09:26:07</time>
      </trkpt>
      <trkpt lat="41.60388" lon="2.39498">
        <ele>197.8</ele>
        <time>2021-11-13 09:26:08</time>
      </trkpt>
      <trkpt lat="41.60389" lon="2.39505">
        <ele>197.8</ele>
        <time>2021-11-13 09:26:09</time>
      </trkpt>
      <trkpt lat="41.60391" lon="2.39513">
        <ele>197.8</ele>
        <time>2021-11-13 09:26:10</time>
      </trkpt>
      <trkpt lat="41.60393" lon="2.39521">
        <ele>197.8</ele>
        <time>2021-11-13 09:26:11</time>
      </trkpt>
      <trkpt lat="41.60394" lon="2.3953">
        <ele>197.8</ele>
        <time>2021-11-13 09:26:12</time>
      </trkpt>
      <trkpt lat="41.60395" lon="2.39539">
        <ele>197.8</ele>
        <time>2021-11-13 09:26:13</time>
      </trkpt>
      <trkpt lat="41.60395" lon="2.39549">
        <ele>197.6</ele>
        <time>2021-11-13 09:26:14</time>
      </trkpt>
      <trkpt lat="41.60396" lon="2.39559">
        <ele>197.2</ele>
        <time>2021-11-13 09:26:15</time>
      </trkpt>
      <trkpt lat="41.60396" lon="2.3957">
        <ele>196.8</ele>
        <time>2021-11-13 09:26:16</time>
      </trkpt>
      <trkpt lat="41.60396" lon="2.39582">
        <ele>196.6</ele>
        <time>2021-11-13 09:26:17</time>
      </trkpt>
      <trkpt lat="41.60396" lon="2.39593">
        <ele>196</ele>
        <time>2021-11-13 09:26:18</time>
      </trkpt>
      <trkpt lat="41.60397" lon="2.39605">
        <ele>195.8</ele>
        <time>2021-11-13 09:26:19</time>
      </trkpt>
      <trkpt lat="41.60397" lon="2.39616">
        <ele>195.2</ele>
        <time>2021-11-13 09:26:20</time>
      </trkpt>
      <trkpt lat="41.60397" lon="2.39627">
        <ele>194.6</ele>
        <time>2021-11-13 09:26:21</time>
      </trkpt>
      <trkpt lat="41.60398" lon="2.39639">
        <ele>194.2</ele>
        <time>2021-11-13 09:26:22</time>
      </trkpt>
      <trkpt lat="41.60399" lon="2.3965">
        <ele>193.6</ele>
        <time>2021-11-13 09:26:23</time>
      </trkpt>
      <trkpt lat="41.60402" lon="2.39661">
        <ele>193.2</ele>
        <time>2021-11-13 09:26:24</time>
      </trkpt>
      <trkpt lat="41.60406" lon="2.3967">
        <ele>192.8</ele>
        <time>2021-11-13 09:26:25</time>
      </trkpt>
      <trkpt lat="41.60411" lon="2.39678">
        <ele>192.4</ele>
        <time>2021-11-13 09:26:26</time>
      </trkpt>
      <trkpt lat="41.60418" lon="2.39685">
        <ele>191.6</ele>
        <time>2021-11-13 09:26:27</time>
      </trkpt>
      <trkpt lat="41.60425" lon="2.3969">
        <ele>191.2</ele>
        <time>2021-11-13 09:26:28</time>
      </trkpt>
      <trkpt lat="41.60431" lon="2.39696">
        <ele>190.8</ele>
        <time>2021-11-13 09:26:29</time>
      </trkpt>
      <trkpt lat="41.60437" lon="2.39704">
        <ele>190.4</ele>
        <time>2021-11-13 09:26:30</time>
      </trkpt>
      <trkpt lat="41.60439" lon="2.39714">
        <ele>190.2</ele>
        <time>2021-11-13 09:26:31</time>
      </trkpt>
      <trkpt lat="41.60439" lon="2.39725">
        <ele>190</ele>
        <time>2021-11-13 09:26:32</time>
      </trkpt>
      <trkpt lat="41.60434" lon="2.39735">
        <ele>189.8</ele>
        <time>2021-11-13 09:26:33</time>
      </trkpt>
      <trkpt lat="41.60427" lon="2.39741">
        <ele>189</ele>
        <time>2021-11-13 09:26:34</time>
      </trkpt>
      <trkpt lat="41.60418" lon="2.39741">
        <ele>188.8</ele>
        <time>2021-11-13 09:26:35</time>
      </trkpt>
      <trkpt lat="41.6041" lon="2.39738">
        <ele>188.6</ele>
        <time>2021-11-13 09:26:36</time>
      </trkpt>
      <trkpt lat="41.60402" lon="2.39735">
        <ele>188.2</ele>
        <time>2021-11-13 09:26:37</time>
      </trkpt>
      <trkpt lat="41.60393" lon="2.39735">
        <ele>187.4</ele>
        <time>2021-11-13 09:26:38</time>
      </trkpt>
      <trkpt lat="41.60384" lon="2.39738">
        <ele>186.8</ele>
        <time>2021-11-13 09:26:39</time>
      </trkpt>
      <trkpt lat="41.60375" lon="2.39745">
        <ele>186.6</ele>
        <time>2021-11-13 09:26:40</time>
      </trkpt>
      <trkpt lat="41.60368" lon="2.39752">
        <ele>186.4</ele>
        <time>2021-11-13 09:26:41</time>
      </trkpt>
      <trkpt lat="41.6036" lon="2.39762">
        <ele>186.2</ele>
        <time>2021-11-13 09:26:42</time>
      </trkpt>
      <trkpt lat="41.60354" lon="2.39773">
        <ele>185.6</ele>
        <time>2021-11-13 09:26:43</time>
      </trkpt>
      <trkpt lat="41.6035" lon="2.39786">
        <ele>185.4</ele>
        <time>2021-11-13 09:26:44</time>
      </trkpt>
      <trkpt lat="41.60349" lon="2.398">
        <ele>184.8</ele>
        <time>2021-11-13 09:26:45</time>
      </trkpt>
      <trkpt lat="41.60348" lon="2.39813">
        <ele>184.4</ele>
        <time>2021-11-13 09:26:46</time>
      </trkpt>
      <trkpt lat="41.60346" lon="2.39825">
        <ele>183.8</ele>
        <time>2021-11-13 09:26:47</time>
      </trkpt>
      <trkpt lat="41.60338" lon="2.39835">
        <ele>183</ele>
        <time>2021-11-13 09:26:48</time>
      </trkpt>
      <trkpt lat="41.6033" lon="2.39842">
        <ele>182.8</ele>
        <time>2021-11-13 09:26:49</time>
      </trkpt>
      <trkpt lat="41.6032" lon="2.39847">
        <ele>182</ele>
        <time>2021-11-13 09:26:50</time>
      </trkpt>
      <trkpt lat="41.6031" lon="2.39847">
        <ele>181.8</ele>
        <time>2021-11-13 09:26:51</time>
      </trkpt>
      <trkpt lat="41.60302" lon="2.39847">
        <ele>181</ele>
        <time>2021-11-13 09:26:52</time>
      </trkpt>
      <trkpt lat="41.60292" lon="2.39848">
        <ele>180.6</ele>
        <time>2021-11-13 09:26:53</time>
      </trkpt>
      <trkpt lat="41.60281" lon="2.39853">
        <ele>180.2</ele>
        <time>2021-11-13 09:26:54</time>
      </trkpt>
      <trkpt lat="41.60273" lon="2.39859">
        <ele>179.8</ele>
        <time>2021-11-13 09:26:55</time>
      </trkpt>
      <trkpt lat="41.60265" lon="2.39867">
        <ele>179.4</ele>
        <time>2021-11-13 09:26:56</time>
      </trkpt>
      <trkpt lat="41.60257" lon="2.39876">
        <ele>178.6</ele>
        <time>2021-11-13 09:26:57</time>
      </trkpt>
      <trkpt lat="41.60249" lon="2.39885">
        <ele>178.2</ele>
        <time>2021-11-13 09:26:58</time>
      </trkpt>
      <trkpt lat="41.60241" lon="2.39895">
        <ele>177.6</ele>
        <time>2021-11-13 09:26:59</time>
      </trkpt>
      <trkpt lat="41.60234" lon="2.39906">
        <ele>177.4</ele>
        <time>2021-11-13 09:27:00</time>
      </trkpt>
      <trkpt lat="41.60227" lon="2.39916">
        <ele>176.8</ele>
        <time>2021-11-13 09:27:01</time>
      </trkpt>
      <trkpt lat="41.60222" lon="2.39926">
        <ele>176.4</ele>
        <time>2021-11-13 09:27:02</time>
      </trkpt>
      <trkpt lat="41.60218" lon="2.39936">
        <ele>175.6</ele>
        <time>2021-11-13 09:27:03</time>
      </trkpt>
      <trkpt lat="41.60215" lon="2.39945">
        <ele>174.8</ele>
        <time>2021-11-13 09:27:04</time>
      </trkpt>
      <trkpt lat="41.60212" lon="2.39952">
        <ele>174.2</ele>
        <time>2021-11-13 09:27:05</time>
      </trkpt>
      <trkpt lat="41.6021" lon="2.39958">
        <ele>173.4</ele>
        <time>2021-11-13 09:27:06</time>
      </trkpt>
      <trkpt lat="41.60208" lon="2.39962">
        <ele>173</ele>
        <time>2021-11-13 09:27:07</time>
      </trkpt>
      <trkpt lat="41.60206" lon="2.39964">
        <ele>172.4</ele>
        <time>2021-11-13 09:27:08</time>
      </trkpt>
      <trkpt lat="41.60204" lon="2.39963">
        <ele>172.2</ele>
        <time>2021-11-13 09:27:09</time>
      </trkpt>
      <trkpt lat="41.60203" lon="2.39962">
        <ele>171.8</ele>
        <time>2021-11-13 09:27:10</time>
      </trkpt>
      <trkpt lat="41.60202" lon="2.3996">
        <ele>171.6</ele>
        <time>2021-11-13 09:27:11</time>
      </trkpt>
      <trkpt lat="41.60201" lon="2.39956">
        <ele>171.2</ele>
        <time>2021-11-13 09:27:12</time>
      </trkpt>
      <trkpt lat="41.60201" lon="2.39951">
        <ele>170.8</ele>
        <time>2021-11-13 09:27:13</time>
      </trkpt>
      <trkpt lat="41.60202" lon="2.39945">
        <ele>170.8</ele>
        <time>2021-11-13 09:27:14</time>
      </trkpt>
      <trkpt lat="41.60203" lon="2.39939">
        <ele>170.6</ele>
        <time>2021-11-13 09:27:15</time>
      </trkpt>
      <trkpt lat="41.60205" lon="2.39931">
        <ele>170.4</ele>
        <time>2021-11-13 09:27:16</time>
      </trkpt>
      <trkpt lat="41.60206" lon="2.39923">
        <ele>170</ele>
        <time>2021-11-13 09:27:17</time>
      </trkpt>
      <trkpt lat="41.60207" lon="2.39914">
        <ele>170</ele>
        <time>2021-11-13 09:27:18</time>
      </trkpt>
      <trkpt lat="41.60207" lon="2.39904">
        <ele>169.6</ele>
        <time>2021-11-13 09:27:19</time>
      </trkpt>
      <trkpt lat="41.60205" lon="2.39894">
        <ele>169.2</ele>
        <time>2021-11-13 09:27:20</time>
      </trkpt>
      <trkpt lat="41.60202" lon="2.39885">
        <ele>168.8</ele>
        <time>2021-11-13 09:27:21</time>
      </trkpt>
      <trkpt lat="41.60197" lon="2.39876">
        <ele>168.6</ele>
        <time>2021-11-13 09:27:22</time>
      </trkpt>
      <trkpt lat="41.60192" lon="2.39868">
        <ele>168.4</ele>
        <time>2021-11-13 09:27:23</time>
      </trkpt>
      <trkpt lat="41.60187" lon="2.3986">
        <ele>168</ele>
        <time>2021-11-13 09:27:24</time>
      </trkpt>
      <trkpt lat="41.60181" lon="2.39853">
        <ele>167.8</ele>
        <time>2021-11-13 09:27:25</time>
      </trkpt>
      <trkpt lat="41.60174" lon="2.39847">
        <ele>167</ele>
        <time>2021-11-13 09:27:26</time>
      </trkpt>
      <trkpt lat="41.60168" lon="2.39841">
        <ele>166.8</ele>
        <time>2021-11-13 09:27:27</time>
      </trkpt>
      <trkpt lat="41.60161" lon="2.39836">
        <ele>166.4</ele>
        <time>2021-11-13 09:27:28</time>
      </trkpt>
      <trkpt lat="41.60155" lon="2.39831">
        <ele>166.4</ele>
        <time>2021-11-13 09:27:29</time>
      </trkpt>
      <trkpt lat="41.60148" lon="2.39826">
        <ele>166</ele>
        <time>2021-11-13 09:27:30</time>
      </trkpt>
      <trkpt lat="41.60141" lon="2.39822">
        <ele>165.8</ele>
        <time>2021-11-13 09:27:31</time>
      </trkpt>
      <trkpt lat="41.60133" lon="2.39818">
        <ele>165.6</ele>
        <time>2021-11-13 09:27:32</time>
      </trkpt>
      <trkpt lat="41.60125" lon="2.39816">
        <ele>165.2</ele>
        <time>2021-11-13 09:27:33</time>
      </trkpt>
      <trkpt lat="41.60117" lon="2.39816">
        <ele>165</ele>
        <time>2021-11-13 09:27:34</time>
      </trkpt>
      <trkpt lat="41.60109" lon="2.39818">
        <ele>164.6</ele>
        <time>2021-11-13 09:27:35</time>
      </trkpt>
      <trkpt lat="41.60101" lon="2.3982">
        <ele>164.6</ele>
        <time>2021-11-13 09:27:36</time>
      </trkpt>
      <trkpt lat="41.60093" lon="2.39824">
        <ele>164.4</ele>
        <time>2021-11-13 09:27:37</time>
      </trkpt>
      <trkpt lat="41.60085" lon="2.39828">
        <ele>164.2</ele>
        <time>2021-11-13 09:27:38</time>
      </trkpt>
      <trkpt lat="41.60078" lon="2.39832">
        <ele>164</ele>
        <time>2021-11-13 09:27:39</time>
      </trkpt>
      <trkpt lat="41.60071" lon="2.39836">
        <ele>163.6</ele>
        <time>2021-11-13 09:27:40</time>
      </trkpt>
      <trkpt lat="41.60063" lon="2.39841">
        <ele>163.4</ele>
        <time>2021-11-13 09:27:41</time>
      </trkpt>
      <trkpt lat="41.60056" lon="2.39846">
        <ele>163.2</ele>
        <time>2021-11-13 09:27:42</time>
      </trkpt>
      <trkpt lat="41.60049" lon="2.39852">
        <ele>163</ele>
        <time>2021-11-13 09:27:43</time>
      </trkpt>
      <trkpt lat="41.60041" lon="2.39859">
        <ele>162.8</ele>
        <time>2021-11-13 09:27:44</time>
      </trkpt>
      <trkpt lat="41.60034" lon="2.39865">
        <ele>162.6</ele>
        <time>2021-11-13 09:27:45</time>
      </trkpt>
      <trkpt lat="41.60027" lon="2.39873">
        <ele>162</ele>
        <time>2021-11-13 09:27:46</time>
      </trkpt>
      <trkpt lat="41.6002" lon="2.39879">
        <ele>161.6</ele>
        <time>2021-11-13 09:27:47</time>
      </trkpt>
      <trkpt lat="41.60013" lon="2.39886">
        <ele>161.6</ele>
        <time>2021-11-13 09:27:48</time>
      </trkpt>
      <trkpt lat="41.60006" lon="2.39893">
        <ele>161</ele>
        <time>2021-11-13 09:27:49</time>
      </trkpt>
      <trkpt lat="41.59998" lon="2.39899">
        <ele>160.8</ele>
        <time>2021-11-13 09:27:50</time>
      </trkpt>
      <trkpt lat="41.5999" lon="2.39904">
        <ele>160.6</ele>
        <time>2021-11-13 09:27:51</time>
      </trkpt>
      <trkpt lat="41.59981" lon="2.39909">
        <ele>160.2</ele>
        <time>2021-11-13 09:27:52</time>
      </trkpt>
      <trkpt lat="41.59973" lon="2.39913">
        <ele>159.6</ele>
        <time>2021-11-13 09:27:53</time>
      </trkpt>
      <trkpt lat="41.59965" lon="2.39916">
        <ele>159.4</ele>
        <time>2021-11-13 09:27:54</time>
      </trkpt>
      <trkpt lat="41.59956" lon="2.39919">
        <ele>159</ele>
        <time>2021-11-13 09:27:55</time>
      </trkpt>
      <trkpt lat="41.59947" lon="2.39922">
        <ele>158.6</ele>
        <time>2021-11-13 09:27:56</time>
      </trkpt>
      <trkpt lat="41.59939" lon="2.39926">
        <ele>158.4</ele>
        <time>2021-11-13 09:27:57</time>
      </trkpt>
      <trkpt lat="41.59932" lon="2.3993">
        <ele>158</ele>
        <time>2021-11-13 09:27:58</time>
      </trkpt>
      <trkpt lat="41.59924" lon="2.39934">
        <ele>158.2</ele>
        <time>2021-11-13 09:27:59</time>
      </trkpt>
      <trkpt lat="41.59916" lon="2.39939">
        <ele>157.8</ele>
        <time>2021-11-13 09:28:00</time>
      </trkpt>
      <trkpt lat="41.59908" lon="2.39944">
        <ele>157.8</ele>
        <time>2021-11-13 09:28:01</time>
      </trkpt>
      <trkpt lat="41.599" lon="2.39949">
        <ele>157.2</ele>
        <time>2021-11-13 09:28:02</time>
      </trkpt>
      <trkpt lat="41.59892" lon="2.39954">
        <ele>157</ele>
        <time>2021-11-13 09:28:03</time>
      </trkpt>
      <trkpt lat="41.59885" lon="2.39959">
        <ele>156.8</ele>
        <time>2021-11-13 09:28:04</time>
      </trkpt>
      <trkpt lat="41.59877" lon="2.39965">
        <ele>156.6</ele>
        <time>2021-11-13 09:28:05</time>
      </trkpt>
      <trkpt lat="41.5987" lon="2.3997">
        <ele>156.4</ele>
        <time>2021-11-13 09:28:06</time>
      </trkpt>
      <trkpt lat="41.59862" lon="2.39975">
        <ele>156.2</ele>
        <time>2021-11-13 09:28:07</time>
      </trkpt>
      <trkpt lat="41.59855" lon="2.3998">
        <ele>156</ele>
        <time>2021-11-13 09:28:08</time>
      </trkpt>
      <trkpt lat="41.59847" lon="2.39986">
        <ele>155.8</ele>
        <time>2021-11-13 09:28:09</time>
      </trkpt>
      <trkpt lat="41.5984" lon="2.39991">
        <ele>155.8</ele>
        <time>2021-11-13 09:28:10</time>
      </trkpt>
      <trkpt lat="41.59833" lon="2.39997">
        <ele>155.6</ele>
        <time>2021-11-13 09:28:11</time>
      </trkpt>
      <trkpt lat="41.59826" lon="2.40002">
        <ele>155.6</ele>
        <time>2021-11-13 09:28:12</time>
      </trkpt>
      <trkpt lat="41.59819" lon="2.40006">
        <ele>155.4</ele>
        <time>2021-11-13 09:28:13</time>
      </trkpt>
      <trkpt lat="41.59812" lon="2.40011">
        <ele>155.2</ele>
        <time>2021-11-13 09:28:14</time>
      </trkpt>
      <trkpt lat="41.59805" lon="2.40016">
        <ele>155.2</ele>
        <time>2021-11-13 09:28:15</time>
      </trkpt>
      <trkpt lat="41.59798" lon="2.40022">
        <ele>155</ele>
        <time>2021-11-13 09:28:16</time>
      </trkpt>
      <trkpt lat="41.59792" lon="2.40028">
        <ele>154.8</ele>
        <time>2021-11-13 09:28:17</time>
      </trkpt>
      <trkpt lat="41.59786" lon="2.40035">
        <ele>154.6</ele>
        <time>2021-11-13 09:28:18</time>
      </trkpt>
      <trkpt lat="41.5978" lon="2.40042">
        <ele>154.6</ele>
        <time>2021-11-13 09:28:19</time>
      </trkpt>
      <trkpt lat="41.59775" lon="2.40049">
        <ele>154.4</ele>
        <time>2021-11-13 09:28:20</time>
      </trkpt>
      <trkpt lat="41.5977" lon="2.40056">
        <ele>154.2</ele>
        <time>2021-11-13 09:28:21</time>
      </trkpt>
      <trkpt lat="41.59765" lon="2.40064">
        <ele>154</ele>
        <time>2021-11-13 09:28:22</time>
      </trkpt>
      <trkpt lat="41.59761" lon="2.40071">
        <ele>153.8</ele>
        <time>2021-11-13 09:28:23</time>
      </trkpt>
      <trkpt lat="41.59756" lon="2.40079">
        <ele>153.6</ele>
        <time>2021-11-13 09:28:24</time>
      </trkpt>
      <trkpt lat="41.59751" lon="2.40086">
        <ele>153.2</ele>
        <time>2021-11-13 09:28:25</time>
      </trkpt>
      <trkpt lat="41.59747" lon="2.40093">
        <ele>153</ele>
        <time>2021-11-13 09:28:26</time>
      </trkpt>
      <trkpt lat="41.59742" lon="2.40101">
        <ele>152.8</ele>
        <time>2021-11-13 09:28:27</time>
      </trkpt>
      <trkpt lat="41.59737" lon="2.40108">
        <ele>152.6</ele>
        <time>2021-11-13 09:28:28</time>
      </trkpt>
      <trkpt lat="41.59732" lon="2.40115">
        <ele>152.4</ele>
        <time>2021-11-13 09:28:29</time>
      </trkpt>
      <trkpt lat="41.59728" lon="2.40123">
        <ele>152.4</ele>
        <time>2021-11-13 09:28:30</time>
      </trkpt>
      <trkpt lat="41.59723" lon="2.40131">
        <ele>152.4</ele>
        <time>2021-11-13 09:28:31</time>
      </trkpt>
      <trkpt lat="41.59718" lon="2.40138">
        <ele>152.2</ele>
        <time>2021-11-13 09:28:32</time>
      </trkpt>
      <trkpt lat="41.59713" lon="2.40146">
        <ele>152</ele>
        <time>2021-11-13 09:28:33</time>
      </trkpt>
      <trkpt lat="41.59708" lon="2.40153">
        <ele>151.8</ele>
        <time>2021-11-13 09:28:34</time>
      </trkpt>
      <trkpt lat="41.59703" lon="2.40161">
        <ele>151.8</ele>
        <time>2021-11-13 09:28:35</time>
      </trkpt>
      <trkpt lat="41.59698" lon="2.40169">
        <ele>151.8</ele>
        <time>2021-11-13 09:28:36</time>
      </trkpt>
      <trkpt lat="41.59693" lon="2.40176">
        <ele>151.6</ele>
        <time>2021-11-13 09:28:37</time>
      </trkpt>
      <trkpt lat="41.59689" lon="2.40184">
        <ele>151.6</ele>
        <time>2021-11-13 09:28:38</time>
      </trkpt>
      <trkpt lat="41.59684" lon="2.40192">
        <ele>151.4</ele>
        <time>2021-11-13 09:28:39</time>
      </trkpt>
      <trkpt lat="41.59679" lon="2.40199">
        <ele>151.2</ele>
        <time>2021-11-13 09:28:40</time>
      </trkpt>
      <trkpt lat="41.59674" lon="2.40207">
        <ele>151</ele>
        <time>2021-11-13 09:28:41</time>
      </trkpt>
      <trkpt lat="41.59669" lon="2.40214">
        <ele>151</ele>
        <time>2021-11-13 09:28:42</time>
      </trkpt>
      <trkpt lat="41.59665" lon="2.40222">
        <ele>150.8</ele>
        <time>2021-11-13 09:28:43</time>
      </trkpt>
      <trkpt lat="41.5966" lon="2.4023">
        <ele>150.8</ele>
        <time>2021-11-13 09:28:44</time>
      </trkpt>
      <trkpt lat="41.59655" lon="2.40237">
        <ele>150.6</ele>
        <time>2021-11-13 09:28:45</time>
      </trkpt>
      <trkpt lat="41.5965" lon="2.40245">
        <ele>150.4</ele>
        <time>2021-11-13 09:28:46</time>
      </trkpt>
      <trkpt lat="41.59646" lon="2.40252">
        <ele>150.2</ele>
        <time>2021-11-13 09:28:47</time>
      </trkpt>
      <trkpt lat="41.59641" lon="2.4026">
        <ele>150</ele>
        <time>2021-11-13 09:28:48</time>
      </trkpt>
      <trkpt lat="41.59636" lon="2.40267">
        <ele>150</ele>
        <time>2021-11-13 09:28:49</time>
      </trkpt>
      <trkpt lat="41.59631" lon="2.40274">
        <ele>150</ele>
        <time>2021-11-13 09:28:50</time>
      </trkpt>
      <trkpt lat="41.59627" lon="2.40282">
        <ele>149.6</ele>
        <time>2021-11-13 09:28:51</time>
      </trkpt>
      <trkpt lat="41.59622" lon="2.40289">
        <ele>149.4</ele>
        <time>2021-11-13 09:28:52</time>
      </trkpt>
      <trkpt lat="41.59618" lon="2.40297">
        <ele>149.2</ele>
        <time>2021-11-13 09:28:53</time>
      </trkpt>
      <trkpt lat="41.59613" lon="2.40304">
        <ele>149</ele>
        <time>2021-11-13 09:28:54</time>
      </trkpt>
      <trkpt lat="41.59609" lon="2.40311">
        <ele>149</ele>
        <time>2021-11-13 09:28:55</time>
      </trkpt>
      <trkpt lat="41.59605" lon="2.40318">
        <ele>149</ele>
        <time>2021-11-13 09:28:56</time>
      </trkpt>
      <trkpt lat="41.59601" lon="2.40325">
        <ele>148.8</ele>
        <time>2021-11-13 09:28:57</time>
      </trkpt>
      <trkpt lat="41.59596" lon="2.40331">
        <ele>148.8</ele>
        <time>2021-11-13 09:28:58</time>
      </trkpt>
      <trkpt lat="41.59592" lon="2.40338">
        <ele>148.8</ele>
        <time>2021-11-13 09:28:59</time>
      </trkpt>
      <trkpt lat="41.59588" lon="2.40344">
        <ele>148.6</ele>
        <time>2021-11-13 09:29:00</time>
      </trkpt>
      <trkpt lat="41.59583" lon="2.40352">
        <ele>148.6</ele>
        <time>2021-11-13 09:29:01</time>
      </trkpt>
      <trkpt lat="41.59579" lon="2.40359">
        <ele>148.4</ele>
        <time>2021-11-13 09:29:02</time>
      </trkpt>
      <trkpt lat="41.59574" lon="2.40366">
        <ele>148.2</ele>
        <time>2021-11-13 09:29:03</time>
      </trkpt>
      <trkpt lat="41.59569" lon="2.40374">
        <ele>148.2</ele>
        <time>2021-11-13 09:29:04</time>
      </trkpt>
      <trkpt lat="41.59564" lon="2.4038">
        <ele>148</ele>
        <time>2021-11-13 09:29:05</time>
      </trkpt>
      <trkpt lat="41.5956" lon="2.40387">
        <ele>148</ele>
        <time>2021-11-13 09:29:06</time>
      </trkpt>
      <trkpt lat="41.59555" lon="2.40394">
        <ele>148</ele>
        <time>2021-11-13 09:29:07</time>
      </trkpt>
      <trkpt lat="41.5955" lon="2.40402">
        <ele>147.8</ele>
        <time>2021-11-13 09:29:08</time>
      </trkpt>
      <trkpt lat="41.59545" lon="2.4041">
        <ele>147.8</ele>
        <time>2021-11-13 09:29:09</time>
      </trkpt>
      <trkpt lat="41.5954" lon="2.40417">
        <ele>147.6</ele>
        <time>2021-11-13 09:29:10</time>
      </trkpt>
      <trkpt lat="41.59535" lon="2.40425">
        <ele>147.4</ele>
        <time>2021-11-13 09:29:11</time>
      </trkpt>
      <trkpt lat="41.5953" lon="2.40433">
        <ele>147</ele>
        <time>2021-11-13 09:29:12</time>
      </trkpt>
      <trkpt lat="41.59525" lon="2.40441">
        <ele>146.8</ele>
        <time>2021-11-13 09:29:13</time>
      </trkpt>
      <trkpt lat="41.5952" lon="2.40449">
        <ele>146.6</ele>
        <time>2021-11-13 09:29:14</time>
      </trkpt>
      <trkpt lat="41.59515" lon="2.40456">
        <ele>146.4</ele>
        <time>2021-11-13 09:29:15</time>
      </trkpt>
      <trkpt lat="41.59511" lon="2.40464">
        <ele>146.4</ele>
        <time>2021-11-13 09:29:16</time>
      </trkpt>
      <trkpt lat="41.59506" lon="2.40471">
        <ele>146.2</ele>
        <time>2021-11-13 09:29:17</time>
      </trkpt>
      <trkpt lat="41.59501" lon="2.40479">
        <ele>146.2</ele>
        <time>2021-11-13 09:29:18</time>
      </trkpt>
      <trkpt lat="41.59497" lon="2.40487">
        <ele>146</ele>
        <time>2021-11-13 09:29:19</time>
      </trkpt>
      <trkpt lat="41.59493" lon="2.40494">
        <ele>145.8</ele>
        <time>2021-11-13 09:29:20</time>
      </trkpt>
      <trkpt lat="41.59489" lon="2.40502">
        <ele>145.8</ele>
        <time>2021-11-13 09:29:21</time>
      </trkpt>
      <trkpt lat="41.59485" lon="2.4051">
        <ele>145.6</ele>
        <time>2021-11-13 09:29:22</time>
      </trkpt>
      <trkpt lat="41.59481" lon="2.40517">
        <ele>145.6</ele>
        <time>2021-11-13 09:29:23</time>
      </trkpt>
      <trkpt lat="41.59478" lon="2.40525">
        <ele>145.4</ele>
        <time>2021-11-13 09:29:24</time>
      </trkpt>
      <trkpt lat="41.59474" lon="2.40532">
        <ele>145.2</ele>
        <time>2021-11-13 09:29:25</time>
      </trkpt>
      <trkpt lat="41.59471" lon="2.40538">
        <ele>145</ele>
        <time>2021-11-13 09:29:26</time>
      </trkpt>
      <trkpt lat="41.59469" lon="2.40543">
        <ele>144.6</ele>
        <time>2021-11-13 09:29:27</time>
      </trkpt>
      <trkpt lat="41.59466" lon="2.40548">
        <ele>144.4</ele>
        <time>2021-11-13 09:29:28</time>
      </trkpt>
      <trkpt lat="41.59465" lon="2.40552">
        <ele>144.2</ele>
        <time>2021-11-13 09:29:29</time>
      </trkpt>
      <trkpt lat="41.59463" lon="2.40557">
        <ele>144.2</ele>
        <time>2021-11-13 09:29:30</time>
      </trkpt>
      <trkpt lat="41.59463" lon="2.40561">
        <ele>144</ele>
        <time>2021-11-13 09:29:31</time>
      </trkpt>
      <trkpt lat="41.59463" lon="2.40564">
        <ele>144</ele>
        <time>2021-11-13 09:29:32</time>
      </trkpt>
      <trkpt lat="41.59464" lon="2.40565">
        <ele>143.8</ele>
        <time>2021-11-13 09:29:33</time>
      </trkpt>
      <trkpt lat="41.59464" lon="2.40565">
        <ele>143.8</ele>
        <time>2021-11-13 09:29:34</time>
      </trkpt>
      <trkpt lat="41.59464" lon="2.40565">
        <ele>143.8</ele>
        <time>2021-11-13 09:29:35</time>
      </trkpt>
      <trkpt lat="41.59458" lon="2.40566">
        <ele>141.8</ele>
        <time>2021-11-13 09:57:28</time>
      </trkpt>
      <trkpt lat="41.59455" lon="2.40566">
        <ele>149.8</ele>
        <time>2021-11-13 09:57:29</time>
      </trkpt>
      <trkpt lat="41.59452" lon="2.40568">
        <ele>151.6</ele>
        <time>2021-11-13 09:57:30</time>
      </trkpt>
      <trkpt lat="41.59445" lon="2.40571">
        <ele>152.2</ele>
        <time>2021-11-13 09:57:32</time>
      </trkpt>
      <trkpt lat="41.59441" lon="2.40571">
        <ele>152.6</ele>
        <time>2021-11-13 09:57:33</time>
      </trkpt>
      <trkpt lat="41.59437" lon="2.4057">
        <ele>152.6</ele>
        <time>2021-11-13 09:57:34</time>
      </trkpt>
      <trkpt lat="41.59432" lon="2.40568">
        <ele>152.6</ele>
        <time>2021-11-13 09:57:35</time>
      </trkpt>
      <trkpt lat="41.59429" lon="2.40564">
        <ele>153</ele>
        <time>2021-11-13 09:57:36</time>
      </trkpt>
      <trkpt lat="41.59425" lon="2.4056">
        <ele>152.8</ele>
        <time>2021-11-13 09:57:37</time>
      </trkpt>
      <trkpt lat="41.59422" lon="2.40556">
        <ele>153</ele>
        <time>2021-11-13 09:57:38</time>
      </trkpt>
      <trkpt lat="41.5942" lon="2.40551">
        <ele>153</ele>
        <time>2021-11-13 09:57:39</time>
      </trkpt>
      <trkpt lat="41.59417" lon="2.40546">
        <ele>152.8</ele>
        <time>2021-11-13 09:57:40</time>
      </trkpt>
      <trkpt lat="41.59415" lon="2.40542">
        <ele>152.8</ele>
        <time>2021-11-13 09:57:41</time>
      </trkpt>
      <trkpt lat="41.59412" lon="2.40535">
        <ele>152.8</ele>
        <time>2021-11-13 09:57:42</time>
      </trkpt>
      <trkpt lat="41.5941" lon="2.40531">
        <ele>152.8</ele>
        <time>2021-11-13 09:57:43</time>
      </trkpt>
      <trkpt lat="41.59407" lon="2.40525">
        <ele>153</ele>
        <time>2021-11-13 09:57:44</time>
      </trkpt>
      <trkpt lat="41.59404" lon="2.40519">
        <ele>153</ele>
        <time>2021-11-13 09:57:45</time>
      </trkpt>
      <trkpt lat="41.59401" lon="2.40513">
        <ele>153</ele>
        <time>2021-11-13 09:57:46</time>
      </trkpt>
      <trkpt lat="41.59398" lon="2.40506">
        <ele>153</ele>
        <time>2021-11-13 09:57:47</time>
      </trkpt>
      <trkpt lat="41.59395" lon="2.405">
        <ele>153.2</ele>
        <time>2021-11-13 09:57:48</time>
      </trkpt>
      <trkpt lat="41.59392" lon="2.40494">
        <ele>153.2</ele>
        <time>2021-11-13 09:57:49</time>
      </trkpt>
      <trkpt lat="41.59389" lon="2.40487">
        <ele>153.2</ele>
        <time>2021-11-13 09:57:50</time>
      </trkpt>
      <trkpt lat="41.59386" lon="2.4048">
        <ele>153.2</ele>
        <time>2021-11-13 09:57:51</time>
      </trkpt>
      <trkpt lat="41.59383" lon="2.40474">
        <ele>153.2</ele>
        <time>2021-11-13 09:57:52</time>
      </trkpt>
      <trkpt lat="41.5938" lon="2.40467">
        <ele>153.2</ele>
        <time>2021-11-13 09:57:53</time>
      </trkpt>
      <trkpt lat="41.59376" lon="2.4046">
        <ele>153.2</ele>
        <time>2021-11-13 09:57:54</time>
      </trkpt>
      <trkpt lat="41.59373" lon="2.40453">
        <ele>153.4</ele>
        <time>2021-11-13 09:57:55</time>
      </trkpt>
      <trkpt lat="41.5937" lon="2.40446">
        <ele>153.4</ele>
        <time>2021-11-13 09:57:56</time>
      </trkpt>
      <trkpt lat="41.59366" lon="2.40439">
        <ele>153.6</ele>
        <time>2021-11-13 09:57:57</time>
      </trkpt>
      <trkpt lat="41.59363" lon="2.40432">
        <ele>153.6</ele>
        <time>2021-11-13 09:57:58</time>
      </trkpt>
      <trkpt lat="41.5936" lon="2.40424">
        <ele>153.6</ele>
        <time>2021-11-13 09:57:59</time>
      </trkpt>
      <trkpt lat="41.59357" lon="2.40417">
        <ele>153.6</ele>
        <time>2021-11-13 09:58:00</time>
      </trkpt>
      <trkpt lat="41.59354" lon="2.4041">
        <ele>153.6</ele>
        <time>2021-11-13 09:58:01</time>
      </trkpt>
      <trkpt lat="41.59351" lon="2.40403">
        <ele>153.8</ele>
        <time>2021-11-13 09:58:02</time>
      </trkpt>
      <trkpt lat="41.59348" lon="2.40395">
        <ele>153.8</ele>
        <time>2021-11-13 09:58:03</time>
      </trkpt>
      <trkpt lat="41.59345" lon="2.40388">
        <ele>153.8</ele>
        <time>2021-11-13 09:58:04</time>
      </trkpt>
      <trkpt lat="41.59341" lon="2.40379">
        <ele>153.8</ele>
        <time>2021-11-13 09:58:05</time>
      </trkpt>
      <trkpt lat="41.59338" lon="2.40374">
        <ele>154</ele>
        <time>2021-11-13 09:58:06</time>
      </trkpt>
      <trkpt lat="41.59335" lon="2.40366">
        <ele>154</ele>
        <time>2021-11-13 09:58:07</time>
      </trkpt>
      <trkpt lat="41.59332" lon="2.40359">
        <ele>154.2</ele>
        <time>2021-11-13 09:58:08</time>
      </trkpt>
      <trkpt lat="41.59329" lon="2.40351">
        <ele>154.2</ele>
        <time>2021-11-13 09:58:09</time>
      </trkpt>
      <trkpt lat="41.59326" lon="2.40343">
        <ele>154.2</ele>
        <time>2021-11-13 09:58:10</time>
      </trkpt>
      <trkpt lat="41.59323" lon="2.40335">
        <ele>154.2</ele>
        <time>2021-11-13 09:58:11</time>
      </trkpt>
      <trkpt lat="41.5932" lon="2.40327">
        <ele>154.2</ele>
        <time>2021-11-13 09:58:12</time>
      </trkpt>
      <trkpt lat="41.59317" lon="2.40318">
        <ele>154.2</ele>
        <time>2021-11-13 09:58:13</time>
      </trkpt>
      <trkpt lat="41.59315" lon="2.4031">
        <ele>154.2</ele>
        <time>2021-11-13 09:58:14</time>
      </trkpt>
      <trkpt lat="41.59313" lon="2.40301">
        <ele>154.2</ele>
        <time>2021-11-13 09:58:15</time>
      </trkpt>
      <trkpt lat="41.59313" lon="2.40291">
        <ele>154.2</ele>
        <time>2021-11-13 09:58:16</time>
      </trkpt>
      <trkpt lat="41.59314" lon="2.40282">
        <ele>154.2</ele>
        <time>2021-11-13 09:58:17</time>
      </trkpt>
      <trkpt lat="41.59314" lon="2.40273">
        <ele>154.2</ele>
        <time>2021-11-13 09:58:18</time>
      </trkpt>
      <trkpt lat="41.59313" lon="2.40265">
        <ele>154.2</ele>
        <time>2021-11-13 09:58:19</time>
      </trkpt>
      <trkpt lat="41.59309" lon="2.40257">
        <ele>154</ele>
        <time>2021-11-13 09:58:20</time>
      </trkpt>
      <trkpt lat="41.59304" lon="2.40249">
        <ele>154</ele>
        <time>2021-11-13 09:58:21</time>
      </trkpt>
      <trkpt lat="41.593" lon="2.40243">
        <ele>154</ele>
        <time>2021-11-13 09:58:22</time>
      </trkpt>
      <trkpt lat="41.59296" lon="2.40235">
        <ele>154</ele>
        <time>2021-11-13 09:58:23</time>
      </trkpt>
      <trkpt lat="41.59293" lon="2.40226">
        <ele>153.8</ele>
        <time>2021-11-13 09:58:24</time>
      </trkpt>
      <trkpt lat="41.59291" lon="2.40216">
        <ele>153.6</ele>
        <time>2021-11-13 09:58:25</time>
      </trkpt>
      <trkpt lat="41.59289" lon="2.40206">
        <ele>153.6</ele>
        <time>2021-11-13 09:58:26</time>
      </trkpt>
      <trkpt lat="41.59287" lon="2.40196">
        <ele>153.4</ele>
        <time>2021-11-13 09:58:27</time>
      </trkpt>
      <trkpt lat="41.59285" lon="2.40186">
        <ele>153.2</ele>
        <time>2021-11-13 09:58:28</time>
      </trkpt>
      <trkpt lat="41.59283" lon="2.40175">
        <ele>153</ele>
        <time>2021-11-13 09:58:29</time>
      </trkpt>
      <trkpt lat="41.59281" lon="2.40165">
        <ele>153</ele>
        <time>2021-11-13 09:58:30</time>
      </trkpt>
      <trkpt lat="41.59279" lon="2.40154">
        <ele>152.8</ele>
        <time>2021-11-13 09:58:31</time>
      </trkpt>
      <trkpt lat="41.59277" lon="2.40143">
        <ele>152.8</ele>
        <time>2021-11-13 09:58:32</time>
      </trkpt>
      <trkpt lat="41.59274" lon="2.40132">
        <ele>152.6</ele>
        <time>2021-11-13 09:58:33</time>
      </trkpt>
      <trkpt lat="41.59272" lon="2.40122">
        <ele>152.6</ele>
        <time>2021-11-13 09:58:34</time>
      </trkpt>
      <trkpt lat="41.5927" lon="2.40111">
        <ele>152.6</ele>
        <time>2021-11-13 09:58:35</time>
      </trkpt>
      <trkpt lat="41.59267" lon="2.401">
        <ele>152.6</ele>
        <time>2021-11-13 09:58:36</time>
      </trkpt>
      <trkpt lat="41.59263" lon="2.40089">
        <ele>152.6</ele>
        <time>2021-11-13 09:58:37</time>
      </trkpt>
      <trkpt lat="41.5926" lon="2.40079">
        <ele>152.4</ele>
        <time>2021-11-13 09:58:38</time>
      </trkpt>
      <trkpt lat="41.59255" lon="2.40069">
        <ele>152.4</ele>
        <time>2021-11-13 09:58:39</time>
      </trkpt>
      <trkpt lat="41.59251" lon="2.4006">
        <ele>152.2</ele>
        <time>2021-11-13 09:58:40</time>
      </trkpt>
      <trkpt lat="41.59245" lon="2.40051">
        <ele>152.2</ele>
        <time>2021-11-13 09:58:41</time>
      </trkpt>
      <trkpt lat="41.59239" lon="2.40043">
        <ele>152.2</ele>
        <time>2021-11-13 09:58:42</time>
      </trkpt>
      <trkpt lat="41.59233" lon="2.40035">
        <ele>151.8</ele>
        <time>2021-11-13 09:58:43</time>
      </trkpt>
      <trkpt lat="41.59227" lon="2.40028">
        <ele>151.8</ele>
        <time>2021-11-13 09:58:44</time>
      </trkpt>
      <trkpt lat="41.5922" lon="2.40021">
        <ele>151.6</ele>
        <time>2021-11-13 09:58:45</time>
      </trkpt>
      <trkpt lat="41.59213" lon="2.40014">
        <ele>151.6</ele>
        <time>2021-11-13 09:58:46</time>
      </trkpt>
      <trkpt lat="41.59207" lon="2.40008">
        <ele>151.6</ele>
        <time>2021-11-13 09:58:47</time>
      </trkpt>
      <trkpt lat="41.592" lon="2.40001">
        <ele>151.6</ele>
        <time>2021-11-13 09:58:48</time>
      </trkpt>
      <trkpt lat="41.59193" lon="2.39995">
        <ele>151.6</ele>
        <time>2021-11-13 09:58:49</time>
      </trkpt>
      <trkpt lat="41.59186" lon="2.39988">
        <ele>151.2</ele>
        <time>2021-11-13 09:58:50</time>
      </trkpt>
      <trkpt lat="41.59179" lon="2.39981">
        <ele>151</ele>
        <time>2021-11-13 09:58:51</time>
      </trkpt>
      <trkpt lat="41.59172" lon="2.39974">
        <ele>151</ele>
        <time>2021-11-13 09:58:52</time>
      </trkpt>
      <trkpt lat="41.59165" lon="2.39968">
        <ele>151</ele>
        <time>2021-11-13 09:58:53</time>
      </trkpt>
      <trkpt lat="41.59158" lon="2.39961">
        <ele>151</ele>
        <time>2021-11-13 09:58:54</time>
      </trkpt>
      <trkpt lat="41.59151" lon="2.39953">
        <ele>151</ele>
        <time>2021-11-13 09:58:55</time>
      </trkpt>
      <trkpt lat="41.59145" lon="2.39946">
        <ele>151</ele>
        <time>2021-11-13 09:58:56</time>
      </trkpt>
      <trkpt lat="41.59139" lon="2.39938">
        <ele>150.6</ele>
        <time>2021-11-13 09:58:57</time>
      </trkpt>
      <trkpt lat="41.59133" lon="2.3993">
        <ele>150.6</ele>
        <time>2021-11-13 09:58:58</time>
      </trkpt>
      <trkpt lat="41.59127" lon="2.39921">
        <ele>150.4</ele>
        <time>2021-11-13 09:58:59</time>
      </trkpt>
      <trkpt lat="41.59122" lon="2.39913">
        <ele>150.4</ele>
        <time>2021-11-13 09:59:00</time>
      </trkpt>
      <trkpt lat="41.59117" lon="2.39904">
        <ele>150.4</ele>
        <time>2021-11-13 09:59:01</time>
      </trkpt>
      <trkpt lat="41.59111" lon="2.39895">
        <ele>150.6</ele>
        <time>2021-11-13 09:59:02</time>
      </trkpt>
      <trkpt lat="41.59106" lon="2.39887">
        <ele>150.4</ele>
        <time>2021-11-13 09:59:03</time>
      </trkpt>
      <trkpt lat="41.59101" lon="2.39878">
        <ele>150.4</ele>
        <time>2021-11-13 09:59:04</time>
      </trkpt>
      <trkpt lat="41.59096" lon="2.39869">
        <ele>150.4</ele>
        <time>2021-11-13 09:59:05</time>
      </trkpt>
      <trkpt lat="41.5909" lon="2.3986">
        <ele>150.4</ele>
        <time>2021-11-13 09:59:06</time>
      </trkpt>
      <trkpt lat="41.59085" lon="2.39851">
        <ele>150.4</ele>
        <time>2021-11-13 09:59:07</time>
      </trkpt>
      <trkpt lat="41.59079" lon="2.39843">
        <ele>150.4</ele>
        <time>2021-11-13 09:59:08</time>
      </trkpt>
      <trkpt lat="41.59074" lon="2.39834">
        <ele>150.4</ele>
        <time>2021-11-13 09:59:09</time>
      </trkpt>
      <trkpt lat="41.59069" lon="2.39826">
        <ele>150.4</ele>
        <time>2021-11-13 09:59:10</time>
      </trkpt>
      <trkpt lat="41.59064" lon="2.39817">
        <ele>150.4</ele>
        <time>2021-11-13 09:59:11</time>
      </trkpt>
      <trkpt lat="41.59058" lon="2.39809">
        <ele>150.4</ele>
        <time>2021-11-13 09:59:12</time>
      </trkpt>
      <trkpt lat="41.59053" lon="2.398">
        <ele>150.4</ele>
        <time>2021-11-13 09:59:13</time>
      </trkpt>
      <trkpt lat="41.59048" lon="2.39791">
        <ele>150.4</ele>
        <time>2021-11-13 09:59:14</time>
      </trkpt>
      <trkpt lat="41.59043" lon="2.39782">
        <ele>150.4</ele>
        <time>2021-11-13 09:59:15</time>
      </trkpt>
      <trkpt lat="41.59038" lon="2.39774">
        <ele>150.4</ele>
        <time>2021-11-13 09:59:16</time>
      </trkpt>
      <trkpt lat="41.59032" lon="2.39765">
        <ele>150.6</ele>
        <time>2021-11-13 09:59:17</time>
      </trkpt>
      <trkpt lat="41.59027" lon="2.39756">
        <ele>150.6</ele>
        <time>2021-11-13 09:59:18</time>
      </trkpt>
      <trkpt lat="41.59021" lon="2.39747">
        <ele>150.6</ele>
        <time>2021-11-13 09:59:19</time>
      </trkpt>
      <trkpt lat="41.59016" lon="2.39738">
        <ele>150.4</ele>
        <time>2021-11-13 09:59:20</time>
      </trkpt>
      <trkpt lat="41.5901" lon="2.39729">
        <ele>150.4</ele>
        <time>2021-11-13 09:59:21</time>
      </trkpt>
      <trkpt lat="41.59005" lon="2.39719">
        <ele>150.4</ele>
        <time>2021-11-13 09:59:22</time>
      </trkpt>
      <trkpt lat="41.59" lon="2.39709">
        <ele>150.4</ele>
        <time>2021-11-13 09:59:23</time>
      </trkpt>
      <trkpt lat="41.58996" lon="2.39699">
        <ele>150.2</ele>
        <time>2021-11-13 09:59:24</time>
      </trkpt>
      <trkpt lat="41.58991" lon="2.39688">
        <ele>150.2</ele>
        <time>2021-11-13 09:59:25</time>
      </trkpt>
      <trkpt lat="41.58988" lon="2.39677">
        <ele>150</ele>
        <time>2021-11-13 09:59:26</time>
      </trkpt>
      <trkpt lat="41.58985" lon="2.39665">
        <ele>150</ele>
        <time>2021-11-13 09:59:27</time>
      </trkpt>
      <trkpt lat="41.58983" lon="2.39653">
        <ele>150</ele>
        <time>2021-11-13 09:59:28</time>
      </trkpt>
      <trkpt lat="41.58981" lon="2.39642">
        <ele>149.8</ele>
        <time>2021-11-13 09:59:29</time>
      </trkpt>
      <trkpt lat="41.5898" lon="2.39629">
        <ele>149.6</ele>
        <time>2021-11-13 09:59:30</time>
      </trkpt>
      <trkpt lat="41.58979" lon="2.39617">
        <ele>149.4</ele>
        <time>2021-11-13 09:59:31</time>
      </trkpt>
      <trkpt lat="41.58978" lon="2.39606">
        <ele>149.4</ele>
        <time>2021-11-13 09:59:32</time>
      </trkpt>
      <trkpt lat="41.58977" lon="2.39594">
        <ele>149.2</ele>
        <time>2021-11-13 09:59:33</time>
      </trkpt>
      <trkpt lat="41.58976" lon="2.39582">
        <ele>149.2</ele>
        <time>2021-11-13 09:59:34</time>
      </trkpt>
      <trkpt lat="41.58974" lon="2.3957">
        <ele>149</ele>
        <time>2021-11-13 09:59:35</time>
      </trkpt>
      <trkpt lat="41.58971" lon="2.39558">
        <ele>149</ele>
        <time>2021-11-13 09:59:36</time>
      </trkpt>
      <trkpt lat="41.58968" lon="2.39547">
        <ele>149</ele>
        <time>2021-11-13 09:59:37</time>
      </trkpt>
      <trkpt lat="41.58964" lon="2.39536">
        <ele>149</ele>
        <time>2021-11-13 09:59:38</time>
      </trkpt>
      <trkpt lat="41.58959" lon="2.39525">
        <ele>149</ele>
        <time>2021-11-13 09:59:39</time>
      </trkpt>
      <trkpt lat="41.58954" lon="2.39515">
        <ele>148.8</ele>
        <time>2021-11-13 09:59:40</time>
      </trkpt>
      <trkpt lat="41.58948" lon="2.39505">
        <ele>148.8</ele>
        <time>2021-11-13 09:59:41</time>
      </trkpt>
      <trkpt lat="41.58942" lon="2.39496">
        <ele>148.8</ele>
        <time>2021-11-13 09:59:42</time>
      </trkpt>
      <trkpt lat="41.58935" lon="2.39488">
        <ele>148.6</ele>
        <time>2021-11-13 09:59:43</time>
      </trkpt>
      <trkpt lat="41.58927" lon="2.39481">
        <ele>148.4</ele>
        <time>2021-11-13 09:59:44</time>
      </trkpt>
      <trkpt lat="41.5892" lon="2.39474">
        <ele>148</ele>
        <time>2021-11-13 09:59:45</time>
      </trkpt>
      <trkpt lat="41.58912" lon="2.39468">
        <ele>147.8</ele>
        <time>2021-11-13 09:59:46</time>
      </trkpt>
      <trkpt lat="41.58904" lon="2.39463">
        <ele>147.4</ele>
        <time>2021-11-13 09:59:47</time>
      </trkpt>
      <trkpt lat="41.58895" lon="2.39459">
        <ele>147.2</ele>
        <time>2021-11-13 09:59:48</time>
      </trkpt>
      <trkpt lat="41.58886" lon="2.39457">
        <ele>146.6</ele>
        <time>2021-11-13 09:59:49</time>
      </trkpt>
      <trkpt lat="41.58878" lon="2.39454">
        <ele>146.4</ele>
        <time>2021-11-13 09:59:50</time>
      </trkpt>
      <trkpt lat="41.58869" lon="2.39453">
        <ele>146.2</ele>
        <time>2021-11-13 09:59:51</time>
      </trkpt>
      <trkpt lat="41.5886" lon="2.39452">
        <ele>145.8</ele>
        <time>2021-11-13 09:59:52</time>
      </trkpt>
      <trkpt lat="41.58851" lon="2.39451">
        <ele>145.6</ele>
        <time>2021-11-13 09:59:53</time>
      </trkpt>
      <trkpt lat="41.58842" lon="2.39451">
        <ele>145.4</ele>
        <time>2021-11-13 09:59:54</time>
      </trkpt>
      <trkpt lat="41.58834" lon="2.39449">
        <ele>145.2</ele>
        <time>2021-11-13 09:59:55</time>
      </trkpt>
      <trkpt lat="41.58826" lon="2.39448">
        <ele>145</ele>
        <time>2021-11-13 09:59:56</time>
      </trkpt>
      <trkpt lat="41.58818" lon="2.39449">
        <ele>144.8</ele>
        <time>2021-11-13 09:59:57</time>
      </trkpt>
      <trkpt lat="41.58811" lon="2.39453">
        <ele>144.2</ele>
        <time>2021-11-13 09:59:58</time>
      </trkpt>
      <trkpt lat="41.58805" lon="2.39459">
        <ele>144</ele>
        <time>2021-11-13 09:59:59</time>
      </trkpt>
      <trkpt lat="41.58799" lon="2.39466">
        <ele>143.8</ele>
        <time>2021-11-13 10:00:00</time>
      </trkpt>
      <trkpt lat="41.58793" lon="2.39474">
        <ele>143.6</ele>
        <time>2021-11-13 10:00:01</time>
      </trkpt>
      <trkpt lat="41.58786" lon="2.3948">
        <ele>143.6</ele>
        <time>2021-11-13 10:00:02</time>
      </trkpt>
      <trkpt lat="41.58778" lon="2.39486">
        <ele>143.4</ele>
        <time>2021-11-13 10:00:03</time>
      </trkpt>
      <trkpt lat="41.5877" lon="2.3949">
        <ele>143.4</ele>
        <time>2021-11-13 10:00:04</time>
      </trkpt>
      <trkpt lat="41.58762" lon="2.39494">
        <ele>143.2</ele>
        <time>2021-11-13 10:00:05</time>
      </trkpt>
      <trkpt lat="41.58753" lon="2.39498">
        <ele>143</ele>
        <time>2021-11-13 10:00:06</time>
      </trkpt>
      <trkpt lat="41.58744" lon="2.39501">
        <ele>143</ele>
        <time>2021-11-13 10:00:07</time>
      </trkpt>
      <trkpt lat="41.58735" lon="2.39502">
        <ele>142.8</ele>
        <time>2021-11-13 10:00:08</time>
      </trkpt>
      <trkpt lat="41.58725" lon="2.39503">
        <ele>142.6</ele>
        <time>2021-11-13 10:00:09</time>
      </trkpt>
      <trkpt lat="41.58716" lon="2.39503">
        <ele>142.8</ele>
        <time>2021-11-13 10:00:10</time>
      </trkpt>
      <trkpt lat="41.58706" lon="2.39501">
        <ele>142.6</ele>
        <time>2021-11-13 10:00:11</time>
      </trkpt>
      <trkpt lat="41.58697" lon="2.39499">
        <ele>142.6</ele>
        <time>2021-11-13 10:00:12</time>
      </trkpt>
      <trkpt lat="41.58687" lon="2.39496">
        <ele>142.4</ele>
        <time>2021-11-13 10:00:13</time>
      </trkpt>
      <trkpt lat="41.58678" lon="2.39492">
        <ele>142.2</ele>
        <time>2021-11-13 10:00:14</time>
      </trkpt>
      <trkpt lat="41.58669" lon="2.39487">
        <ele>142</ele>
        <time>2021-11-13 10:00:15</time>
      </trkpt>
      <trkpt lat="41.5866" lon="2.39481">
        <ele>142</ele>
        <time>2021-11-13 10:00:16</time>
      </trkpt>
      <trkpt lat="41.58652" lon="2.39475">
        <ele>141.8</ele>
        <time>2021-11-13 10:00:17</time>
      </trkpt>
      <trkpt lat="41.58642" lon="2.39467">
        <ele>141.6</ele>
        <time>2021-11-13 10:00:18</time>
      </trkpt>
      <trkpt lat="41.58635" lon="2.39463">
        <ele>141.2</ele>
        <time>2021-11-13 10:00:19</time>
      </trkpt>
      <trkpt lat="41.58627" lon="2.39456">
        <ele>141</ele>
        <time>2021-11-13 10:00:20</time>
      </trkpt>
      <trkpt lat="41.58619" lon="2.3945">
        <ele>140.8</ele>
        <time>2021-11-13 10:00:21</time>
      </trkpt>
      <trkpt lat="41.5861" lon="2.39444">
        <ele>140.6</ele>
        <time>2021-11-13 10:00:22</time>
      </trkpt>
      <trkpt lat="41.58601" lon="2.39437">
        <ele>140.2</ele>
        <time>2021-11-13 10:00:23</time>
      </trkpt>
      <trkpt lat="41.58594" lon="2.39432">
        <ele>140</ele>
        <time>2021-11-13 10:00:24</time>
      </trkpt>
      <trkpt lat="41.58586" lon="2.39426">
        <ele>139.8</ele>
        <time>2021-11-13 10:00:25</time>
      </trkpt>
      <trkpt lat="41.58578" lon="2.39421">
        <ele>139.8</ele>
        <time>2021-11-13 10:00:26</time>
      </trkpt>
      <trkpt lat="41.5857" lon="2.39415">
        <ele>139.8</ele>
        <time>2021-11-13 10:00:27</time>
      </trkpt>
      <trkpt lat="41.58563" lon="2.39409">
        <ele>139.6</ele>
        <time>2021-11-13 10:00:28</time>
      </trkpt>
      <trkpt lat="41.58555" lon="2.39403">
        <ele>139.6</ele>
        <time>2021-11-13 10:00:29</time>
      </trkpt>
      <trkpt lat="41.58548" lon="2.39398">
        <ele>139.4</ele>
        <time>2021-11-13 10:00:30</time>
      </trkpt>
      <trkpt lat="41.5854" lon="2.39392">
        <ele>139.4</ele>
        <time>2021-11-13 10:00:31</time>
      </trkpt>
      <trkpt lat="41.58532" lon="2.39387">
        <ele>139.2</ele>
        <time>2021-11-13 10:00:32</time>
      </trkpt>
      <trkpt lat="41.58525" lon="2.39381">
        <ele>139</ele>
        <time>2021-11-13 10:00:33</time>
      </trkpt>
      <trkpt lat="41.58518" lon="2.39375">
        <ele>139</ele>
        <time>2021-11-13 10:00:34</time>
      </trkpt>
      <trkpt lat="41.58511" lon="2.3937">
        <ele>139</ele>
        <time>2021-11-13 10:00:35</time>
      </trkpt>
      <trkpt lat="41.58503" lon="2.39364">
        <ele>139</ele>
        <time>2021-11-13 10:00:36</time>
      </trkpt>
      <trkpt lat="41.58496" lon="2.39359">
        <ele>139</ele>
        <time>2021-11-13 10:00:37</time>
      </trkpt>
      <trkpt lat="41.58489" lon="2.39353">
        <ele>139</ele>
        <time>2021-11-13 10:00:38</time>
      </trkpt>
      <trkpt lat="41.58481" lon="2.39348">
        <ele>139</ele>
        <time>2021-11-13 10:00:39</time>
      </trkpt>
      <trkpt lat="41.58474" lon="2.39343">
        <ele>139</ele>
        <time>2021-11-13 10:00:40</time>
      </trkpt>
      <trkpt lat="41.58467" lon="2.39338">
        <ele>139</ele>
        <time>2021-11-13 10:00:41</time>
      </trkpt>
      <trkpt lat="41.58459" lon="2.39333">
        <ele>139</ele>
        <time>2021-11-13 10:00:42</time>
      </trkpt>
      <trkpt lat="41.58452" lon="2.39328">
        <ele>139</ele>
        <time>2021-11-13 10:00:43</time>
      </trkpt>
      <trkpt lat="41.58445" lon="2.39323">
        <ele>138.8</ele>
        <time>2021-11-13 10:00:44</time>
      </trkpt>
      <trkpt lat="41.58438" lon="2.39318">
        <ele>138.8</ele>
        <time>2021-11-13 10:00:45</time>
      </trkpt>
      <trkpt lat="41.58431" lon="2.39313">
        <ele>138.8</ele>
        <time>2021-11-13 10:00:46</time>
      </trkpt>
      <trkpt lat="41.58425" lon="2.39308">
        <ele>138.6</ele>
        <time>2021-11-13 10:00:47</time>
      </trkpt>
      <trkpt lat="41.58418" lon="2.39304">
        <ele>138.6</ele>
        <time>2021-11-13 10:00:48</time>
      </trkpt>
      <trkpt lat="41.58411" lon="2.39301">
        <ele>138.6</ele>
        <time>2021-11-13 10:00:49</time>
      </trkpt>
      <trkpt lat="41.58404" lon="2.39299">
        <ele>138.6</ele>
        <time>2021-11-13 10:00:50</time>
      </trkpt>
      <trkpt lat="41.58396" lon="2.39297">
        <ele>138.6</ele>
        <time>2021-11-13 10:00:51</time>
      </trkpt>
      <trkpt lat="41.58389" lon="2.39295">
        <ele>138.4</ele>
        <time>2021-11-13 10:00:52</time>
      </trkpt>
      <trkpt lat="41.58382" lon="2.39294">
        <ele>138.4</ele>
        <time>2021-11-13 10:00:53</time>
      </trkpt>
      <trkpt lat="41.58374" lon="2.39293">
        <ele>138.4</ele>
        <time>2021-11-13 10:00:54</time>
      </trkpt>
      <trkpt lat="41.58367" lon="2.39293">
        <ele>138.4</ele>
        <time>2021-11-13 10:00:55</time>
      </trkpt>
      <trkpt lat="41.5836" lon="2.39293">
        <ele>138.2</ele>
        <time>2021-11-13 10:00:56</time>
      </trkpt>
      <trkpt lat="41.58352" lon="2.39294">
        <ele>138.2</ele>
        <time>2021-11-13 10:00:57</time>
      </trkpt>
      <trkpt lat="41.58345" lon="2.39294">
        <ele>138.2</ele>
        <time>2021-11-13 10:00:58</time>
      </trkpt>
      <trkpt lat="41.58337" lon="2.39294">
        <ele>138.2</ele>
        <time>2021-11-13 10:00:59</time>
      </trkpt>
      <trkpt lat="41.5833" lon="2.39294">
        <ele>138.2</ele>
        <time>2021-11-13 10:01:00</time>
      </trkpt>
      <trkpt lat="41.58322" lon="2.39295">
        <ele>138.2</ele>
        <time>2021-11-13 10:01:01</time>
      </trkpt>
      <trkpt lat="41.58315" lon="2.39296">
        <ele>138.2</ele>
        <time>2021-11-13 10:01:02</time>
      </trkpt>
      <trkpt lat="41.58308" lon="2.39297">
        <ele>138.2</ele>
        <time>2021-11-13 10:01:03</time>
      </trkpt>
      <trkpt lat="41.58301" lon="2.39298">
        <ele>138.2</ele>
        <time>2021-11-13 10:01:04</time>
      </trkpt>
      <trkpt lat="41.58294" lon="2.393">
        <ele>138.2</ele>
        <time>2021-11-13 10:01:05</time>
      </trkpt>
      <trkpt lat="41.58287" lon="2.39302">
        <ele>138.2</ele>
        <time>2021-11-13 10:01:06</time>
      </trkpt>
      <trkpt lat="41.5828" lon="2.39306">
        <ele>138</ele>
        <time>2021-11-13 10:01:07</time>
      </trkpt>
      <trkpt lat="41.58273" lon="2.3931">
        <ele>138.2</ele>
        <time>2021-11-13 10:01:08</time>
      </trkpt>
      <trkpt lat="41.58266" lon="2.39315">
        <ele>138.2</ele>
        <time>2021-11-13 10:01:09</time>
      </trkpt>
      <trkpt lat="41.58259" lon="2.3932">
        <ele>138.2</ele>
        <time>2021-11-13 10:01:10</time>
      </trkpt>
      <trkpt lat="41.58252" lon="2.39326">
        <ele>138.2</ele>
        <time>2021-11-13 10:01:11</time>
      </trkpt>
      <trkpt lat="41.58246" lon="2.39333">
        <ele>138.2</ele>
        <time>2021-11-13 10:01:12</time>
      </trkpt>
      <trkpt lat="41.5824" lon="2.3934">
        <ele>138.2</ele>
        <time>2021-11-13 10:01:13</time>
      </trkpt>
      <trkpt lat="41.58235" lon="2.39348">
        <ele>138.2</ele>
        <time>2021-11-13 10:01:14</time>
      </trkpt>
      <trkpt lat="41.58229" lon="2.39359">
        <ele>138.2</ele>
        <time>2021-11-13 10:01:15</time>
      </trkpt>
      <trkpt lat="41.58225" lon="2.39365">
        <ele>138</ele>
        <time>2021-11-13 10:01:16</time>
      </trkpt>
      <trkpt lat="41.5822" lon="2.39374">
        <ele>138</ele>
        <time>2021-11-13 10:01:17</time>
      </trkpt>
      <trkpt lat="41.58215" lon="2.39382">
        <ele>138</ele>
        <time>2021-11-13 10:01:18</time>
      </trkpt>
      <trkpt lat="41.5821" lon="2.3939">
        <ele>138</ele>
        <time>2021-11-13 10:01:19</time>
      </trkpt>
      <trkpt lat="41.58204" lon="2.39398">
        <ele>137.8</ele>
        <time>2021-11-13 10:01:20</time>
      </trkpt>
      <trkpt lat="41.58198" lon="2.39405">
        <ele>137.8</ele>
        <time>2021-11-13 10:01:21</time>
      </trkpt>
      <trkpt lat="41.58191" lon="2.39413">
        <ele>137.8</ele>
        <time>2021-11-13 10:01:22</time>
      </trkpt>
      <trkpt lat="41.58184" lon="2.3942">
        <ele>137.4</ele>
        <time>2021-11-13 10:01:23</time>
      </trkpt>
      <trkpt lat="41.58176" lon="2.39426">
        <ele>137.4</ele>
        <time>2021-11-13 10:01:24</time>
      </trkpt>
      <trkpt lat="41.58168" lon="2.39431">
        <ele>137.2</ele>
        <time>2021-11-13 10:01:25</time>
      </trkpt>
      <trkpt lat="41.58159" lon="2.39436">
        <ele>137</ele>
        <time>2021-11-13 10:01:26</time>
      </trkpt>
      <trkpt lat="41.58151" lon="2.3944">
        <ele>136.8</ele>
        <time>2021-11-13 10:01:27</time>
      </trkpt>
      <trkpt lat="41.58142" lon="2.39443">
        <ele>136.8</ele>
        <time>2021-11-13 10:01:28</time>
      </trkpt>
      <trkpt lat="41.58133" lon="2.39443">
        <ele>136.6</ele>
        <time>2021-11-13 10:01:29</time>
      </trkpt>
      <trkpt lat="41.58124" lon="2.3944">
        <ele>136.4</ele>
        <time>2021-11-13 10:01:30</time>
      </trkpt>
      <trkpt lat="41.58115" lon="2.39437">
        <ele>136.2</ele>
        <time>2021-11-13 10:01:31</time>
      </trkpt>
      <trkpt lat="41.58107" lon="2.39436">
        <ele>136</ele>
        <time>2021-11-13 10:01:32</time>
      </trkpt>
      <trkpt lat="41.58099" lon="2.39439">
        <ele>135.8</ele>
        <time>2021-11-13 10:01:33</time>
      </trkpt>
      <trkpt lat="41.58091" lon="2.39444">
        <ele>135.6</ele>
        <time>2021-11-13 10:01:34</time>
      </trkpt>
      <trkpt lat="41.58083" lon="2.39449">
        <ele>135.4</ele>
        <time>2021-11-13 10:01:35</time>
      </trkpt>
      <trkpt lat="41.58075" lon="2.39454">
        <ele>135</ele>
        <time>2021-11-13 10:01:36</time>
      </trkpt>
      <trkpt lat="41.58065" lon="2.39459">
        <ele>134.4</ele>
        <time>2021-11-13 10:01:37</time>
      </trkpt>
      <trkpt lat="41.58058" lon="2.39462">
        <ele>134.2</ele>
        <time>2021-11-13 10:01:38</time>
      </trkpt>
      <trkpt lat="41.5805" lon="2.39465">
        <ele>134</ele>
        <time>2021-11-13 10:01:39</time>
      </trkpt>
      <trkpt lat="41.58041" lon="2.39469">
        <ele>134</ele>
        <time>2021-11-13 10:01:40</time>
      </trkpt>
      <trkpt lat="41.58032" lon="2.39472">
        <ele>133.8</ele>
        <time>2021-11-13 10:01:41</time>
      </trkpt>
      <trkpt lat="41.58024" lon="2.39475">
        <ele>133.6</ele>
        <time>2021-11-13 10:01:42</time>
      </trkpt>
      <trkpt lat="41.58015" lon="2.39479">
        <ele>133.4</ele>
        <time>2021-11-13 10:01:43</time>
      </trkpt>
      <trkpt lat="41.58006" lon="2.39482">
        <ele>133.4</ele>
        <time>2021-11-13 10:01:44</time>
      </trkpt>
      <trkpt lat="41.57997" lon="2.39484">
        <ele>133</ele>
        <time>2021-11-13 10:01:45</time>
      </trkpt>
      <trkpt lat="41.57987" lon="2.39486">
        <ele>132.6</ele>
        <time>2021-11-13 10:01:46</time>
      </trkpt>
      <trkpt lat="41.57978" lon="2.39487">
        <ele>132.4</ele>
        <time>2021-11-13 10:01:47</time>
      </trkpt>
      <trkpt lat="41.57969" lon="2.39488">
        <ele>132.2</ele>
        <time>2021-11-13 10:01:48</time>
      </trkpt>
      <trkpt lat="41.57959" lon="2.39489">
        <ele>132.4</ele>
        <time>2021-11-13 10:01:49</time>
      </trkpt>
      <trkpt lat="41.5795" lon="2.3949">
        <ele>132</ele>
        <time>2021-11-13 10:01:50</time>
      </trkpt>
      <trkpt lat="41.5794" lon="2.39491">
        <ele>132</ele>
        <time>2021-11-13 10:01:51</time>
      </trkpt>
      <trkpt lat="41.57931" lon="2.39492">
        <ele>131.8</ele>
        <time>2021-11-13 10:01:52</time>
      </trkpt>
      <trkpt lat="41.57922" lon="2.39493">
        <ele>131.8</ele>
        <time>2021-11-13 10:01:53</time>
      </trkpt>
      <trkpt lat="41.57912" lon="2.39493">
        <ele>131.8</ele>
        <time>2021-11-13 10:01:54</time>
      </trkpt>
      <trkpt lat="41.57903" lon="2.39491">
        <ele>131.6</ele>
        <time>2021-11-13 10:01:55</time>
      </trkpt>
      <trkpt lat="41.57894" lon="2.39489">
        <ele>131.6</ele>
        <time>2021-11-13 10:01:56</time>
      </trkpt>
      <trkpt lat="41.57885" lon="2.39487">
        <ele>131.6</ele>
        <time>2021-11-13 10:01:57</time>
      </trkpt>
      <trkpt lat="41.57876" lon="2.39483">
        <ele>131.6</ele>
        <time>2021-11-13 10:01:58</time>
      </trkpt>
      <trkpt lat="41.57868" lon="2.39478">
        <ele>131.6</ele>
        <time>2021-11-13 10:01:59</time>
      </trkpt>
      <trkpt lat="41.5786" lon="2.39473">
        <ele>131.6</ele>
        <time>2021-11-13 10:02:00</time>
      </trkpt>
      <trkpt lat="41.57852" lon="2.39466">
        <ele>131.6</ele>
        <time>2021-11-13 10:02:01</time>
      </trkpt>
      <trkpt lat="41.57844" lon="2.39459">
        <ele>131.6</ele>
        <time>2021-11-13 10:02:02</time>
      </trkpt>
      <trkpt lat="41.57838" lon="2.39451">
        <ele>131.8</ele>
        <time>2021-11-13 10:02:03</time>
      </trkpt>
      <trkpt lat="41.57831" lon="2.39442">
        <ele>131.8</ele>
        <time>2021-11-13 10:02:04</time>
      </trkpt>
      <trkpt lat="41.57826" lon="2.39432">
        <ele>131.8</ele>
        <time>2021-11-13 10:02:05</time>
      </trkpt>
      <trkpt lat="41.5782" lon="2.39422">
        <ele>132</ele>
        <time>2021-11-13 10:02:06</time>
      </trkpt>
      <trkpt lat="41.57815" lon="2.39412">
        <ele>132</ele>
        <time>2021-11-13 10:02:07</time>
      </trkpt>
      <trkpt lat="41.57811" lon="2.394">
        <ele>132</ele>
        <time>2021-11-13 10:02:08</time>
      </trkpt>
      <trkpt lat="41.57808" lon="2.39389">
        <ele>132</ele>
        <time>2021-11-13 10:02:09</time>
      </trkpt>
      <trkpt lat="41.57805" lon="2.39377">
        <ele>132</ele>
        <time>2021-11-13 10:02:10</time>
      </trkpt>
      <trkpt lat="41.57803" lon="2.39365">
        <ele>132.2</ele>
        <time>2021-11-13 10:02:11</time>
      </trkpt>
      <trkpt lat="41.57801" lon="2.39352">
        <ele>132.2</ele>
        <time>2021-11-13 10:02:12</time>
      </trkpt>
      <trkpt lat="41.57799" lon="2.3934">
        <ele>132.4</ele>
        <time>2021-11-13 10:02:13</time>
      </trkpt>
      <trkpt lat="41.57796" lon="2.39328">
        <ele>132.4</ele>
        <time>2021-11-13 10:02:14</time>
      </trkpt>
      <trkpt lat="41.57793" lon="2.39317">
        <ele>132.4</ele>
        <time>2021-11-13 10:02:15</time>
      </trkpt>
      <trkpt lat="41.5779" lon="2.39305">
        <ele>132.4</ele>
        <time>2021-11-13 10:02:16</time>
      </trkpt>
      <trkpt lat="41.57787" lon="2.39294">
        <ele>132.4</ele>
        <time>2021-11-13 10:02:17</time>
      </trkpt>
      <trkpt lat="41.57782" lon="2.39283">
        <ele>132.4</ele>
        <time>2021-11-13 10:02:18</time>
      </trkpt>
      <trkpt lat="41.57778" lon="2.39273">
        <ele>132.2</ele>
        <time>2021-11-13 10:02:19</time>
      </trkpt>
      <trkpt lat="41.57774" lon="2.39263">
        <ele>132.2</ele>
        <time>2021-11-13 10:02:20</time>
      </trkpt>
      <trkpt lat="41.57769" lon="2.39253">
        <ele>132</ele>
        <time>2021-11-13 10:02:21</time>
      </trkpt>
      <trkpt lat="41.57764" lon="2.39243">
        <ele>132</ele>
        <time>2021-11-13 10:02:22</time>
      </trkpt>
      <trkpt lat="41.5776" lon="2.39233">
        <ele>132</ele>
        <time>2021-11-13 10:02:23</time>
      </trkpt>
      <trkpt lat="41.57755" lon="2.39222">
        <ele>131.8</ele>
        <time>2021-11-13 10:02:24</time>
      </trkpt>
      <trkpt lat="41.57751" lon="2.39212">
        <ele>131.6</ele>
        <time>2021-11-13 10:02:25</time>
      </trkpt>
      <trkpt lat="41.57746" lon="2.39202">
        <ele>131.6</ele>
        <time>2021-11-13 10:02:26</time>
      </trkpt>
      <trkpt lat="41.57741" lon="2.39192">
        <ele>131.4</ele>
        <time>2021-11-13 10:02:27</time>
      </trkpt>
      <trkpt lat="41.57737" lon="2.39182">
        <ele>131.4</ele>
        <time>2021-11-13 10:02:28</time>
      </trkpt>
      <trkpt lat="41.57732" lon="2.39171">
        <ele>131.2</ele>
        <time>2021-11-13 10:02:29</time>
      </trkpt>
      <trkpt lat="41.57727" lon="2.39161">
        <ele>131</ele>
        <time>2021-11-13 10:02:30</time>
      </trkpt>
      <trkpt lat="41.57721" lon="2.39152">
        <ele>130.8</ele>
        <time>2021-11-13 10:02:31</time>
      </trkpt>
      <trkpt lat="41.57714" lon="2.39142">
        <ele>130.8</ele>
        <time>2021-11-13 10:02:32</time>
      </trkpt>
      <trkpt lat="41.57708" lon="2.39133">
        <ele>130.8</ele>
        <time>2021-11-13 10:02:33</time>
      </trkpt>
      <trkpt lat="41.57701" lon="2.39124">
        <ele>130.6</ele>
        <time>2021-11-13 10:02:34</time>
      </trkpt>
      <trkpt lat="41.57693" lon="2.39116">
        <ele>130.2</ele>
        <time>2021-11-13 10:02:35</time>
      </trkpt>
      <trkpt lat="41.57685" lon="2.39108">
        <ele>129.6</ele>
        <time>2021-11-13 10:02:36</time>
      </trkpt>
      <trkpt lat="41.57677" lon="2.39102">
        <ele>129.4</ele>
        <time>2021-11-13 10:02:37</time>
      </trkpt>
      <trkpt lat="41.57668" lon="2.39095">
        <ele>128.8</ele>
        <time>2021-11-13 10:02:38</time>
      </trkpt>
      <trkpt lat="41.57659" lon="2.39089">
        <ele>128.6</ele>
        <time>2021-11-13 10:02:39</time>
      </trkpt>
      <trkpt lat="41.5765" lon="2.39085">
        <ele>128.4</ele>
        <time>2021-11-13 10:02:40</time>
      </trkpt>
      <trkpt lat="41.5764" lon="2.3908">
        <ele>128.2</ele>
        <time>2021-11-13 10:02:41</time>
      </trkpt>
      <trkpt lat="41.5763" lon="2.39077">
        <ele>127.6</ele>
        <time>2021-11-13 10:02:42</time>
      </trkpt>
      <trkpt lat="41.5762" lon="2.39074">
        <ele>127.6</ele>
        <time>2021-11-13 10:02:43</time>
      </trkpt>
      <trkpt lat="41.57609" lon="2.39072">
        <ele>127.2</ele>
        <time>2021-11-13 10:02:44</time>
      </trkpt>
      <trkpt lat="41.57599" lon="2.39072">
        <ele>126.4</ele>
        <time>2021-11-13 10:02:45</time>
      </trkpt>
      <trkpt lat="41.57535" lon="2.39077">
        <ele>123.4</ele>
        <time>2021-11-13 10:02:50</time>
      </trkpt>
      <trkpt lat="41.57535" lon="2.39077">
        <ele>123.4</ele>
        <time>2021-11-13 10:02:51</time>
      </trkpt>
      <trkpt lat="41.57535" lon="2.39077">
        <ele>123.4</ele>
        <time>2021-11-13 10:02:52</time>
      </trkpt>
      <trkpt lat="41.5748" lon="2.39084">
        <ele>121.2</ele>
        <time>2021-11-13 10:02:56</time>
      </trkpt>
      <trkpt lat="41.5748" lon="2.39084">
        <ele>121.2</ele>
        <time>2021-11-13 10:02:57</time>
      </trkpt>
      <trkpt lat="41.57262" lon="2.39088">
        <ele>119.8</ele>
        <time>2021-11-13 10:03:36</time>
      </trkpt>
      <trkpt lat="41.57344" lon="2.38851">
        <ele>130</ele>
        <time>2021-11-13 10:04:16</time>
      </trkpt>
      <trkpt lat="41.57409" lon="2.38715">
        <ele>137.2</ele>
        <time>2021-11-13 10:04:47</time>
      </trkpt>
      <trkpt lat="41.57409" lon="2.38715">
        <ele>137.2</ele>
        <time>2021-11-13 10:04:48</time>
      </trkpt>
      <trkpt lat="41.57411" lon="2.3871">
        <ele>137.2</ele>
        <time>2021-11-13 10:04:49</time>
      </trkpt>
      <trkpt lat="41.57414" lon="2.38706">
        <ele>137.4</ele>
        <time>2021-11-13 10:04:50</time>
      </trkpt>
      <trkpt lat="41.57417" lon="2.38701">
        <ele>137.6</ele>
        <time>2021-11-13 10:04:51</time>
      </trkpt>
      <trkpt lat="41.5742" lon="2.38697">
        <ele>137.8</ele>
        <time>2021-11-13 10:04:52</time>
      </trkpt>
      <trkpt lat="41.57423" lon="2.38692">
        <ele>138</ele>
        <time>2021-11-13 10:04:53</time>
      </trkpt>
      <trkpt lat="41.57426" lon="2.38687">
        <ele>138.2</ele>
        <time>2021-11-13 10:04:54</time>
      </trkpt>
      <trkpt lat="41.57429" lon="2.38683">
        <ele>138.4</ele>
        <time>2021-11-13 10:04:55</time>
      </trkpt>
      <trkpt lat="41.57432" lon="2.38678">
        <ele>138.6</ele>
        <time>2021-11-13 10:04:56</time>
      </trkpt>
      <trkpt lat="41.57435" lon="2.38674">
        <ele>138.8</ele>
        <time>2021-11-13 10:04:57</time>
      </trkpt>
      <trkpt lat="41.57438" lon="2.38669">
        <ele>138.8</ele>
        <time>2021-11-13 10:04:58</time>
      </trkpt>
      <trkpt lat="41.57441" lon="2.38665">
        <ele>139</ele>
        <time>2021-11-13 10:04:59</time>
      </trkpt>
      <trkpt lat="41.57445" lon="2.38661">
        <ele>139.4</ele>
        <time>2021-11-13 10:05:00</time>
      </trkpt>
      <trkpt lat="41.57448" lon="2.38656">
        <ele>139.4</ele>
        <time>2021-11-13 10:05:01</time>
      </trkpt>
      <trkpt lat="41.57451" lon="2.38652">
        <ele>139.8</ele>
        <time>2021-11-13 10:05:02</time>
      </trkpt>
      <trkpt lat="41.57455" lon="2.38648">
        <ele>139.8</ele>
        <time>2021-11-13 10:05:03</time>
      </trkpt>
      <trkpt lat="41.57458" lon="2.38644">
        <ele>139.6</ele>
        <time>2021-11-13 10:05:04</time>
      </trkpt>
      <trkpt lat="41.57461" lon="2.3864">
        <ele>140</ele>
        <time>2021-11-13 10:05:05</time>
      </trkpt>
      <trkpt lat="41.57465" lon="2.38635">
        <ele>140</ele>
        <time>2021-11-13 10:05:06</time>
      </trkpt>
      <trkpt lat="41.57469" lon="2.38631">
        <ele>140.2</ele>
        <time>2021-11-13 10:05:07</time>
      </trkpt>
      <trkpt lat="41.57472" lon="2.38627">
        <ele>140.2</ele>
        <time>2021-11-13 10:05:08</time>
      </trkpt>
      <trkpt lat="41.57476" lon="2.38623">
        <ele>140.4</ele>
        <time>2021-11-13 10:05:09</time>
      </trkpt>
      <trkpt lat="41.57479" lon="2.38619">
        <ele>140.4</ele>
        <time>2021-11-13 10:05:10</time>
      </trkpt>
      <trkpt lat="41.57483" lon="2.38614">
        <ele>140.6</ele>
        <time>2021-11-13 10:05:11</time>
      </trkpt>
      <trkpt lat="41.57486" lon="2.3861">
        <ele>140.8</ele>
        <time>2021-11-13 10:05:12</time>
      </trkpt>
      <trkpt lat="41.5749" lon="2.38605">
        <ele>140.8</ele>
        <time>2021-11-13 10:05:13</time>
      </trkpt>
      <trkpt lat="41.57493" lon="2.38601">
        <ele>141</ele>
        <time>2021-11-13 10:05:14</time>
      </trkpt>
      <trkpt lat="41.57497" lon="2.38598">
        <ele>141.2</ele>
        <time>2021-11-13 10:05:15</time>
      </trkpt>
      <trkpt lat="41.575" lon="2.38594">
        <ele>141.4</ele>
        <time>2021-11-13 10:05:16</time>
      </trkpt>
      <trkpt lat="41.57504" lon="2.3859">
        <ele>141.4</ele>
        <time>2021-11-13 10:05:17</time>
      </trkpt>
      <trkpt lat="41.57508" lon="2.38586">
        <ele>141.6</ele>
        <time>2021-11-13 10:05:18</time>
      </trkpt>
      <trkpt lat="41.57511" lon="2.38582">
        <ele>141.8</ele>
        <time>2021-11-13 10:05:19</time>
      </trkpt>
      <trkpt lat="41.57515" lon="2.38578">
        <ele>142</ele>
        <time>2021-11-13 10:05:20</time>
      </trkpt>
      <trkpt lat="41.57519" lon="2.38574">
        <ele>142.2</ele>
        <time>2021-11-13 10:05:21</time>
      </trkpt>
      <trkpt lat="41.57523" lon="2.3857">
        <ele>142.2</ele>
        <time>2021-11-13 10:05:22</time>
      </trkpt>
      <trkpt lat="41.57528" lon="2.38565">
        <ele>142.4</ele>
        <time>2021-11-13 10:05:23</time>
      </trkpt>
      <trkpt lat="41.57532" lon="2.38561">
        <ele>142.6</ele>
        <time>2021-11-13 10:05:24</time>
      </trkpt>
      <trkpt lat="41.57536" lon="2.38557">
        <ele>142.8</ele>
        <time>2021-11-13 10:05:25</time>
      </trkpt>
      <trkpt lat="41.5754" lon="2.38553">
        <ele>143</ele>
        <time>2021-11-13 10:05:26</time>
      </trkpt>
      <trkpt lat="41.57545" lon="2.38549">
        <ele>143.2</ele>
        <time>2021-11-13 10:05:27</time>
      </trkpt>
      <trkpt lat="41.57549" lon="2.38545">
        <ele>143.4</ele>
        <time>2021-11-13 10:05:28</time>
      </trkpt>
      <trkpt lat="41.57553" lon="2.38541">
        <ele>143.6</ele>
        <time>2021-11-13 10:05:29</time>
      </trkpt>
      <trkpt lat="41.57558" lon="2.38538">
        <ele>143.8</ele>
        <time>2021-11-13 10:05:30</time>
      </trkpt>
      <trkpt lat="41.57562" lon="2.38534">
        <ele>144</ele>
        <time>2021-11-13 10:05:31</time>
      </trkpt>
      <trkpt lat="41.57566" lon="2.3853">
        <ele>144.2</ele>
        <time>2021-11-13 10:05:32</time>
      </trkpt>
      <trkpt lat="41.5757" lon="2.38526">
        <ele>144.4</ele>
        <time>2021-11-13 10:05:33</time>
      </trkpt>
      <trkpt lat="41.57575" lon="2.38522">
        <ele>144.6</ele>
        <time>2021-11-13 10:05:34</time>
      </trkpt>
      <trkpt lat="41.57579" lon="2.38518">
        <ele>144.6</ele>
        <time>2021-11-13 10:05:35</time>
      </trkpt>
      <trkpt lat="41.57584" lon="2.38515">
        <ele>145</ele>
        <time>2021-11-13 10:05:36</time>
      </trkpt>
      <trkpt lat="41.57588" lon="2.38511">
        <ele>145</ele>
        <time>2021-11-13 10:05:37</time>
      </trkpt>
      <trkpt lat="41.57593" lon="2.38507">
        <ele>145</ele>
        <time>2021-11-13 10:05:38</time>
      </trkpt>
      <trkpt lat="41.57597" lon="2.38504">
        <ele>145.4</ele>
        <time>2021-11-13 10:05:39</time>
      </trkpt>
      <trkpt lat="41.57601" lon="2.385">
        <ele>145.6</ele>
        <time>2021-11-13 10:05:40</time>
      </trkpt>
      <trkpt lat="41.57605" lon="2.38496">
        <ele>145.8</ele>
        <time>2021-11-13 10:05:41</time>
      </trkpt>
      <trkpt lat="41.57609" lon="2.38493">
        <ele>146</ele>
        <time>2021-11-13 10:05:42</time>
      </trkpt>
      <trkpt lat="41.57613" lon="2.38489">
        <ele>146</ele>
        <time>2021-11-13 10:05:43</time>
      </trkpt>
      <trkpt lat="41.57618" lon="2.38485">
        <ele>146.2</ele>
        <time>2021-11-13 10:05:44</time>
      </trkpt>
      <trkpt lat="41.57622" lon="2.38481">
        <ele>146.2</ele>
        <time>2021-11-13 10:05:45</time>
      </trkpt>
      <trkpt lat="41.57627" lon="2.38478">
        <ele>146.6</ele>
        <time>2021-11-13 10:05:46</time>
      </trkpt>
      <trkpt lat="41.57631" lon="2.38474">
        <ele>146.8</ele>
        <time>2021-11-13 10:05:47</time>
      </trkpt>
      <trkpt lat="41.57635" lon="2.3847">
        <ele>147.2</ele>
        <time>2021-11-13 10:05:48</time>
      </trkpt>
      <trkpt lat="41.57639" lon="2.38466">
        <ele>147.4</ele>
        <time>2021-11-13 10:05:49</time>
      </trkpt>
      <trkpt lat="41.57643" lon="2.38462">
        <ele>147.6</ele>
        <time>2021-11-13 10:05:50</time>
      </trkpt>
      <trkpt lat="41.57648" lon="2.38459">
        <ele>147.6</ele>
        <time>2021-11-13 10:05:51</time>
      </trkpt>
      <trkpt lat="41.57652" lon="2.38455">
        <ele>147.8</ele>
        <time>2021-11-13 10:05:52</time>
      </trkpt>
      <trkpt lat="41.57656" lon="2.38451">
        <ele>148.2</ele>
        <time>2021-11-13 10:05:53</time>
      </trkpt>
      <trkpt lat="41.5766" lon="2.38446">
        <ele>148.2</ele>
        <time>2021-11-13 10:05:54</time>
      </trkpt>
      <trkpt lat="41.57664" lon="2.38442">
        <ele>148.4</ele>
        <time>2021-11-13 10:05:55</time>
      </trkpt>
      <trkpt lat="41.57669" lon="2.38438">
        <ele>148.6</ele>
        <time>2021-11-13 10:05:56</time>
      </trkpt>
      <trkpt lat="41.57673" lon="2.38434">
        <ele>149</ele>
        <time>2021-11-13 10:05:57</time>
      </trkpt>
      <trkpt lat="41.57677" lon="2.3843">
        <ele>149.2</ele>
        <time>2021-11-13 10:05:58</time>
      </trkpt>
      <trkpt lat="41.57682" lon="2.38426">
        <ele>149.4</ele>
        <time>2021-11-13 10:05:59</time>
      </trkpt>
      <trkpt lat="41.57686" lon="2.38422">
        <ele>149.6</ele>
        <time>2021-11-13 10:06:00</time>
      </trkpt>
      <trkpt lat="41.5769" lon="2.38417">
        <ele>149.6</ele>
        <time>2021-11-13 10:06:01</time>
      </trkpt>
      <trkpt lat="41.57695" lon="2.38413">
        <ele>150</ele>
        <time>2021-11-13 10:06:02</time>
      </trkpt>
      <trkpt lat="41.57699" lon="2.38408">
        <ele>150</ele>
        <time>2021-11-13 10:06:03</time>
      </trkpt>
      <trkpt lat="41.57704" lon="2.38404">
        <ele>150.4</ele>
        <time>2021-11-13 10:06:04</time>
      </trkpt>
      <trkpt lat="41.57708" lon="2.384">
        <ele>150.6</ele>
        <time>2021-11-13 10:06:05</time>
      </trkpt>
      <trkpt lat="41.57712" lon="2.38396">
        <ele>150.6</ele>
        <time>2021-11-13 10:06:06</time>
      </trkpt>
      <trkpt lat="41.57717" lon="2.38392">
        <ele>150.8</ele>
        <time>2021-11-13 10:06:07</time>
      </trkpt>
      <trkpt lat="41.57721" lon="2.38388">
        <ele>151.2</ele>
        <time>2021-11-13 10:06:08</time>
      </trkpt>
      <trkpt lat="41.57726" lon="2.38385">
        <ele>151.4</ele>
        <time>2021-11-13 10:06:09</time>
      </trkpt>
      <trkpt lat="41.5773" lon="2.38382">
        <ele>151.4</ele>
        <time>2021-11-13 10:06:10</time>
      </trkpt>
      <trkpt lat="41.57736" lon="2.38379">
        <ele>151.6</ele>
        <time>2021-11-13 10:06:11</time>
      </trkpt>
      <trkpt lat="41.57741" lon="2.38377">
        <ele>151.6</ele>
        <time>2021-11-13 10:06:12</time>
      </trkpt>
      <trkpt lat="41.57746" lon="2.38376">
        <ele>152</ele>
        <time>2021-11-13 10:06:13</time>
      </trkpt>
      <trkpt lat="41.57752" lon="2.38375">
        <ele>152.2</ele>
        <time>2021-11-13 10:06:14</time>
      </trkpt>
      <trkpt lat="41.57758" lon="2.38375">
        <ele>152.4</ele>
        <time>2021-11-13 10:06:15</time>
      </trkpt>
      <trkpt lat="41.57763" lon="2.38375">
        <ele>152.4</ele>
        <time>2021-11-13 10:06:16</time>
      </trkpt>
      <trkpt lat="41.57769" lon="2.38376">
        <ele>152.6</ele>
        <time>2021-11-13 10:06:17</time>
      </trkpt>
      <trkpt lat="41.57775" lon="2.38376">
        <ele>152.6</ele>
        <time>2021-11-13 10:06:18</time>
      </trkpt>
      <trkpt lat="41.57781" lon="2.38376">
        <ele>152.6</ele>
        <time>2021-11-13 10:06:19</time>
      </trkpt>
      <trkpt lat="41.57787" lon="2.38377">
        <ele>152.8</ele>
        <time>2021-11-13 10:06:20</time>
      </trkpt>
      <trkpt lat="41.57794" lon="2.38377">
        <ele>152.8</ele>
        <time>2021-11-13 10:06:21</time>
      </trkpt>
      <trkpt lat="41.578" lon="2.38377">
        <ele>152.8</ele>
        <time>2021-11-13 10:06:22</time>
      </trkpt>
      <trkpt lat="41.57807" lon="2.38377">
        <ele>152.8</ele>
        <time>2021-11-13 10:06:23</time>
      </trkpt>
      <trkpt lat="41.57813" lon="2.38377">
        <ele>152.8</ele>
        <time>2021-11-13 10:06:24</time>
      </trkpt>
      <trkpt lat="41.57819" lon="2.38376">
        <ele>152.8</ele>
        <time>2021-11-13 10:06:25</time>
      </trkpt>
      <trkpt lat="41.57826" lon="2.38375">
        <ele>152.8</ele>
        <time>2021-11-13 10:06:26</time>
      </trkpt>
      <trkpt lat="41.57832" lon="2.38374">
        <ele>152.8</ele>
        <time>2021-11-13 10:06:27</time>
      </trkpt>
      <trkpt lat="41.57839" lon="2.38372">
        <ele>152.8</ele>
        <time>2021-11-13 10:06:28</time>
      </trkpt>
      <trkpt lat="41.57845" lon="2.3837">
        <ele>152.8</ele>
        <time>2021-11-13 10:06:29</time>
      </trkpt>
      <trkpt lat="41.57851" lon="2.38367">
        <ele>152.8</ele>
        <time>2021-11-13 10:06:30</time>
      </trkpt>
      <trkpt lat="41.57857" lon="2.38363">
        <ele>153</ele>
        <time>2021-11-13 10:06:31</time>
      </trkpt>
      <trkpt lat="41.57862" lon="2.38359">
        <ele>153</ele>
        <time>2021-11-13 10:06:32</time>
      </trkpt>
      <trkpt lat="41.57867" lon="2.38356">
        <ele>153</ele>
        <time>2021-11-13 10:06:33</time>
      </trkpt>
      <trkpt lat="41.57872" lon="2.38352">
        <ele>153</ele>
        <time>2021-11-13 10:06:34</time>
      </trkpt>
      <trkpt lat="41.57877" lon="2.38349">
        <ele>153</ele>
        <time>2021-11-13 10:06:35</time>
      </trkpt>
      <trkpt lat="41.57883" lon="2.38345">
        <ele>153</ele>
        <time>2021-11-13 10:06:36</time>
      </trkpt>
      <trkpt lat="41.57888" lon="2.38342">
        <ele>153</ele>
        <time>2021-11-13 10:06:37</time>
      </trkpt>
      <trkpt lat="41.57893" lon="2.38339">
        <ele>153.2</ele>
        <time>2021-11-13 10:06:38</time>
      </trkpt>
      <trkpt lat="41.57898" lon="2.38336">
        <ele>153.2</ele>
        <time>2021-11-13 10:06:39</time>
      </trkpt>
      <trkpt lat="41.57903" lon="2.38333">
        <ele>153.4</ele>
        <time>2021-11-13 10:06:40</time>
      </trkpt>
      <trkpt lat="41.57907" lon="2.38331">
        <ele>153.6</ele>
        <time>2021-11-13 10:06:41</time>
      </trkpt>
      <trkpt lat="41.57912" lon="2.3833">
        <ele>154</ele>
        <time>2021-11-13 10:06:42</time>
      </trkpt>
      <trkpt lat="41.57918" lon="2.38329">
        <ele>154.4</ele>
        <time>2021-11-13 10:06:43</time>
      </trkpt>
      <trkpt lat="41.57923" lon="2.38329">
        <ele>154.6</ele>
        <time>2021-11-13 10:06:44</time>
      </trkpt>
      <trkpt lat="41.57928" lon="2.38327">
        <ele>154.8</ele>
        <time>2021-11-13 10:06:45</time>
      </trkpt>
      <trkpt lat="41.57933" lon="2.38326">
        <ele>155</ele>
        <time>2021-11-13 10:06:46</time>
      </trkpt>
      <trkpt lat="41.57938" lon="2.38325">
        <ele>155.2</ele>
        <time>2021-11-13 10:06:47</time>
      </trkpt>
      <trkpt lat="41.57942" lon="2.38324">
        <ele>155.4</ele>
        <time>2021-11-13 10:06:48</time>
      </trkpt>
      <trkpt lat="41.57947" lon="2.38323">
        <ele>155.8</ele>
        <time>2021-11-13 10:06:49</time>
      </trkpt>
      <trkpt lat="41.57953" lon="2.38323">
        <ele>156</ele>
        <time>2021-11-13 10:06:50</time>
      </trkpt>
      <trkpt lat="41.57957" lon="2.38323">
        <ele>156</ele>
        <time>2021-11-13 10:06:51</time>
      </trkpt>
      <trkpt lat="41.57962" lon="2.38323">
        <ele>156.4</ele>
        <time>2021-11-13 10:06:52</time>
      </trkpt>
      <trkpt lat="41.57966" lon="2.38323">
        <ele>156.8</ele>
        <time>2021-11-13 10:06:53</time>
      </trkpt>
      <trkpt lat="41.57971" lon="2.38323">
        <ele>157.2</ele>
        <time>2021-11-13 10:06:54</time>
      </trkpt>
      <trkpt lat="41.57975" lon="2.38322">
        <ele>157.6</ele>
        <time>2021-11-13 10:06:55</time>
      </trkpt>
      <trkpt lat="41.57979" lon="2.38322">
        <ele>157.8</ele>
        <time>2021-11-13 10:06:56</time>
      </trkpt>
      <trkpt lat="41.57983" lon="2.38321">
        <ele>158</ele>
        <time>2021-11-13 10:06:57</time>
      </trkpt>
      <trkpt lat="41.57988" lon="2.38321">
        <ele>158.4</ele>
        <time>2021-11-13 10:06:58</time>
      </trkpt>
      <trkpt lat="41.57992" lon="2.3832">
        <ele>158.6</ele>
        <time>2021-11-13 10:06:59</time>
      </trkpt>
      <trkpt lat="41.57996" lon="2.38319">
        <ele>158.8</ele>
        <time>2021-11-13 10:07:00</time>
      </trkpt>
      <trkpt lat="41.58001" lon="2.38317">
        <ele>159</ele>
        <time>2021-11-13 10:07:01</time>
      </trkpt>
      <trkpt lat="41.58005" lon="2.38316">
        <ele>159.2</ele>
        <time>2021-11-13 10:07:02</time>
      </trkpt>
      <trkpt lat="41.58009" lon="2.38315">
        <ele>159.6</ele>
        <time>2021-11-13 10:07:03</time>
      </trkpt>
      <trkpt lat="41.58013" lon="2.38313">
        <ele>159.8</ele>
        <time>2021-11-13 10:07:04</time>
      </trkpt>
      <trkpt lat="41.58018" lon="2.38312">
        <ele>160</ele>
        <time>2021-11-13 10:07:05</time>
      </trkpt>
      <trkpt lat="41.58022" lon="2.38311">
        <ele>160.4</ele>
        <time>2021-11-13 10:07:06</time>
      </trkpt>
      <trkpt lat="41.58026" lon="2.38309">
        <ele>160.6</ele>
        <time>2021-11-13 10:07:07</time>
      </trkpt>
      <trkpt lat="41.58031" lon="2.38308">
        <ele>161</ele>
        <time>2021-11-13 10:07:08</time>
      </trkpt>
      <trkpt lat="41.58035" lon="2.38306">
        <ele>161.2</ele>
        <time>2021-11-13 10:07:09</time>
      </trkpt>
      <trkpt lat="41.5804" lon="2.38304">
        <ele>161.6</ele>
        <time>2021-11-13 10:07:10</time>
      </trkpt>
      <trkpt lat="41.58045" lon="2.38302">
        <ele>161.8</ele>
        <time>2021-11-13 10:07:11</time>
      </trkpt>
      <trkpt lat="41.58049" lon="2.38299">
        <ele>162</ele>
        <time>2021-11-13 10:07:12</time>
      </trkpt>
      <trkpt lat="41.58054" lon="2.38297">
        <ele>162.2</ele>
        <time>2021-11-13 10:07:13</time>
      </trkpt>
      <trkpt lat="41.58059" lon="2.38294">
        <ele>162.6</ele>
        <time>2021-11-13 10:07:14</time>
      </trkpt>
      <trkpt lat="41.58063" lon="2.38292">
        <ele>162.8</ele>
        <time>2021-11-13 10:07:15</time>
      </trkpt>
      <trkpt lat="41.58067" lon="2.3829">
        <ele>163</ele>
        <time>2021-11-13 10:07:16</time>
      </trkpt>
      <trkpt lat="41.58072" lon="2.38288">
        <ele>163.4</ele>
        <time>2021-11-13 10:07:17</time>
      </trkpt>
      <trkpt lat="41.58077" lon="2.38285">
        <ele>163.4</ele>
        <time>2021-11-13 10:07:18</time>
      </trkpt>
      <trkpt lat="41.58081" lon="2.38283">
        <ele>163.8</ele>
        <time>2021-11-13 10:07:19</time>
      </trkpt>
      <trkpt lat="41.58086" lon="2.38282">
        <ele>164</ele>
        <time>2021-11-13 10:07:20</time>
      </trkpt>
      <trkpt lat="41.5809" lon="2.3828">
        <ele>164.2</ele>
        <time>2021-11-13 10:07:21</time>
      </trkpt>
      <trkpt lat="41.58095" lon="2.38278">
        <ele>164.4</ele>
        <time>2021-11-13 10:07:22</time>
      </trkpt>
      <trkpt lat="41.581" lon="2.38276">
        <ele>164.8</ele>
        <time>2021-11-13 10:07:23</time>
      </trkpt>
      <trkpt lat="41.58104" lon="2.38274">
        <ele>165</ele>
        <time>2021-11-13 10:07:24</time>
      </trkpt>
      <trkpt lat="41.58109" lon="2.38271">
        <ele>165</ele>
        <time>2021-11-13 10:07:25</time>
      </trkpt>
      <trkpt lat="41.58113" lon="2.38269">
        <ele>165.2</ele>
        <time>2021-11-13 10:07:26</time>
      </trkpt>
      <trkpt lat="41.58118" lon="2.38267">
        <ele>165.4</ele>
        <time>2021-11-13 10:07:27</time>
      </trkpt>
      <trkpt lat="41.58122" lon="2.38265">
        <ele>165.6</ele>
        <time>2021-11-13 10:07:28</time>
      </trkpt>
      <trkpt lat="41.58127" lon="2.38264">
        <ele>165.8</ele>
        <time>2021-11-13 10:07:29</time>
      </trkpt>
      <trkpt lat="41.58132" lon="2.38262">
        <ele>166</ele>
        <time>2021-11-13 10:07:30</time>
      </trkpt>
      <trkpt lat="41.58136" lon="2.3826">
        <ele>166.4</ele>
        <time>2021-11-13 10:07:31</time>
      </trkpt>
      <trkpt lat="41.58141" lon="2.38258">
        <ele>166.6</ele>
        <time>2021-11-13 10:07:32</time>
      </trkpt>
      <trkpt lat="41.58145" lon="2.38256">
        <ele>166.8</ele>
        <time>2021-11-13 10:07:33</time>
      </trkpt>
      <trkpt lat="41.58149" lon="2.38254">
        <ele>166.8</ele>
        <time>2021-11-13 10:07:34</time>
      </trkpt>
      <trkpt lat="41.58153" lon="2.38252">
        <ele>167</ele>
        <time>2021-11-13 10:07:35</time>
      </trkpt>
      <trkpt lat="41.58157" lon="2.38249">
        <ele>167.2</ele>
        <time>2021-11-13 10:07:36</time>
      </trkpt>
      <trkpt lat="41.58162" lon="2.38247">
        <ele>167.4</ele>
        <time>2021-11-13 10:07:37</time>
      </trkpt>
      <trkpt lat="41.58166" lon="2.38244">
        <ele>167.6</ele>
        <time>2021-11-13 10:07:38</time>
      </trkpt>
      <trkpt lat="41.5817" lon="2.38241">
        <ele>167.8</ele>
        <time>2021-11-13 10:07:39</time>
      </trkpt>
      <trkpt lat="41.58173" lon="2.38238">
        <ele>168</ele>
        <time>2021-11-13 10:07:40</time>
      </trkpt>
      <trkpt lat="41.58177" lon="2.38235">
        <ele>168</ele>
        <time>2021-11-13 10:07:41</time>
      </trkpt>
      <trkpt lat="41.58181" lon="2.38231">
        <ele>168.4</ele>
        <time>2021-11-13 10:07:42</time>
      </trkpt>
      <trkpt lat="41.58184" lon="2.38227">
        <ele>168.6</ele>
        <time>2021-11-13 10:07:43</time>
      </trkpt>
      <trkpt lat="41.58188" lon="2.38223">
        <ele>168.8</ele>
        <time>2021-11-13 10:07:44</time>
      </trkpt>
      <trkpt lat="41.58191" lon="2.38218">
        <ele>169</ele>
        <time>2021-11-13 10:07:45</time>
      </trkpt>
      <trkpt lat="41.58194" lon="2.38214">
        <ele>169.2</ele>
        <time>2021-11-13 10:07:46</time>
      </trkpt>
      <trkpt lat="41.58197" lon="2.3821">
        <ele>169.4</ele>
        <time>2021-11-13 10:07:47</time>
      </trkpt>
      <trkpt lat="41.58199" lon="2.38205">
        <ele>169.4</ele>
        <time>2021-11-13 10:07:48</time>
      </trkpt>
      <trkpt lat="41.58202" lon="2.38201">
        <ele>169.8</ele>
        <time>2021-11-13 10:07:49</time>
      </trkpt>
      <trkpt lat="41.58205" lon="2.38196">
        <ele>170</ele>
        <time>2021-11-13 10:07:50</time>
      </trkpt>
      <trkpt lat="41.58208" lon="2.38192">
        <ele>170</ele>
        <time>2021-11-13 10:07:51</time>
      </trkpt>
      <trkpt lat="41.5821" lon="2.38187">
        <ele>170.2</ele>
        <time>2021-11-13 10:07:52</time>
      </trkpt>
      <trkpt lat="41.58213" lon="2.38183">
        <ele>170.4</ele>
        <time>2021-11-13 10:07:53</time>
      </trkpt>
      <trkpt lat="41.58216" lon="2.38179">
        <ele>170.4</ele>
        <time>2021-11-13 10:07:54</time>
      </trkpt>
      <trkpt lat="41.58218" lon="2.38175">
        <ele>170.6</ele>
        <time>2021-11-13 10:07:55</time>
      </trkpt>
      <trkpt lat="41.58221" lon="2.38171">
        <ele>170.8</ele>
        <time>2021-11-13 10:07:56</time>
      </trkpt>
      <trkpt lat="41.58224" lon="2.38167">
        <ele>170.8</ele>
        <time>2021-11-13 10:07:57</time>
      </trkpt>
      <trkpt lat="41.58226" lon="2.38164">
        <ele>171</ele>
        <time>2021-11-13 10:07:58</time>
      </trkpt>
      <trkpt lat="41.58229" lon="2.3816">
        <ele>171.2</ele>
        <time>2021-11-13 10:07:59</time>
      </trkpt>
      <trkpt lat="41.58231" lon="2.38156">
        <ele>171.4</ele>
        <time>2021-11-13 10:08:00</time>
      </trkpt>
      <trkpt lat="41.58234" lon="2.38153">
        <ele>171.6</ele>
        <time>2021-11-13 10:08:01</time>
      </trkpt>
      <trkpt lat="41.58236" lon="2.38149">
        <ele>172</ele>
        <time>2021-11-13 10:08:02</time>
      </trkpt>
      <trkpt lat="41.58238" lon="2.38145">
        <ele>172.2</ele>
        <time>2021-11-13 10:08:03</time>
      </trkpt>
      <trkpt lat="41.5824" lon="2.3814">
        <ele>172.4</ele>
        <time>2021-11-13 10:08:04</time>
      </trkpt>
      <trkpt lat="41.58242" lon="2.38136">
        <ele>172.6</ele>
        <time>2021-11-13 10:08:05</time>
      </trkpt>
      <trkpt lat="41.58244" lon="2.38131">
        <ele>172.8</ele>
        <time>2021-11-13 10:08:06</time>
      </trkpt>
      <trkpt lat="41.58245" lon="2.38126">
        <ele>173</ele>
        <time>2021-11-13 10:08:07</time>
      </trkpt>
      <trkpt lat="41.58247" lon="2.38121">
        <ele>173.2</ele>
        <time>2021-11-13 10:08:08</time>
      </trkpt>
      <trkpt lat="41.58248" lon="2.38116">
        <ele>173.4</ele>
        <time>2021-11-13 10:08:09</time>
      </trkpt>
      <trkpt lat="41.58249" lon="2.3811">
        <ele>173.6</ele>
        <time>2021-11-13 10:08:10</time>
      </trkpt>
      <trkpt lat="41.5825" lon="2.38105">
        <ele>173.8</ele>
        <time>2021-11-13 10:08:11</time>
      </trkpt>
      <trkpt lat="41.5825" lon="2.381">
        <ele>174.2</ele>
        <time>2021-11-13 10:08:12</time>
      </trkpt>
      <trkpt lat="41.58252" lon="2.38095">
        <ele>174.4</ele>
        <time>2021-11-13 10:08:13</time>
      </trkpt>
      <trkpt lat="41.58254" lon="2.3809">
        <ele>174.6</ele>
        <time>2021-11-13 10:08:14</time>
      </trkpt>
      <trkpt lat="41.58255" lon="2.38085">
        <ele>174.8</ele>
        <time>2021-11-13 10:08:15</time>
      </trkpt>
      <trkpt lat="41.58257" lon="2.38081">
        <ele>175.4</ele>
        <time>2021-11-13 10:08:16</time>
      </trkpt>
      <trkpt lat="41.58259" lon="2.38076">
        <ele>175.8</ele>
        <time>2021-11-13 10:08:17</time>
      </trkpt>
      <trkpt lat="41.58261" lon="2.3807">
        <ele>176</ele>
        <time>2021-11-13 10:08:18</time>
      </trkpt>
      <trkpt lat="41.58263" lon="2.38065">
        <ele>176.2</ele>
        <time>2021-11-13 10:08:19</time>
      </trkpt>
      <trkpt lat="41.58264" lon="2.3806">
        <ele>176.4</ele>
        <time>2021-11-13 10:08:20</time>
      </trkpt>
      <trkpt lat="41.58266" lon="2.38055">
        <ele>176.6</ele>
        <time>2021-11-13 10:08:21</time>
      </trkpt>
      <trkpt lat="41.58268" lon="2.3805">
        <ele>176.8</ele>
        <time>2021-11-13 10:08:22</time>
      </trkpt>
      <trkpt lat="41.5827" lon="2.38044">
        <ele>177</ele>
        <time>2021-11-13 10:08:23</time>
      </trkpt>
      <trkpt lat="41.58271" lon="2.38039">
        <ele>177.2</ele>
        <time>2021-11-13 10:08:24</time>
      </trkpt>
      <trkpt lat="41.58272" lon="2.38034">
        <ele>177.4</ele>
        <time>2021-11-13 10:08:25</time>
      </trkpt>
      <trkpt lat="41.58272" lon="2.38029">
        <ele>177.6</ele>
        <time>2021-11-13 10:08:26</time>
      </trkpt>
      <trkpt lat="41.58273" lon="2.38023">
        <ele>177.8</ele>
        <time>2021-11-13 10:08:27</time>
      </trkpt>
      <trkpt lat="41.58274" lon="2.38018">
        <ele>178.2</ele>
        <time>2021-11-13 10:08:28</time>
      </trkpt>
      <trkpt lat="41.58276" lon="2.38014">
        <ele>178.4</ele>
        <time>2021-11-13 10:08:29</time>
      </trkpt>
      <trkpt lat="41.58277" lon="2.3801">
        <ele>178.6</ele>
        <time>2021-11-13 10:08:30</time>
      </trkpt>
      <trkpt lat="41.5828" lon="2.38006">
        <ele>178.8</ele>
        <time>2021-11-13 10:08:31</time>
      </trkpt>
      <trkpt lat="41.58283" lon="2.38002">
        <ele>179</ele>
        <time>2021-11-13 10:08:32</time>
      </trkpt>
      <trkpt lat="41.58286" lon="2.37998">
        <ele>179.2</ele>
        <time>2021-11-13 10:08:33</time>
      </trkpt>
      <trkpt lat="41.58288" lon="2.37994">
        <ele>179.4</ele>
        <time>2021-11-13 10:08:34</time>
      </trkpt>
      <trkpt lat="41.58291" lon="2.37991">
        <ele>179.6</ele>
        <time>2021-11-13 10:08:35</time>
      </trkpt>
      <trkpt lat="41.58294" lon="2.37988">
        <ele>180</ele>
        <time>2021-11-13 10:08:36</time>
      </trkpt>
      <trkpt lat="41.58297" lon="2.37985">
        <ele>180.2</ele>
        <time>2021-11-13 10:08:37</time>
      </trkpt>
      <trkpt lat="41.583" lon="2.37982">
        <ele>180.4</ele>
        <time>2021-11-13 10:08:38</time>
      </trkpt>
      <trkpt lat="41.58303" lon="2.37979">
        <ele>180.8</ele>
        <time>2021-11-13 10:08:39</time>
      </trkpt>
      <trkpt lat="41.58307" lon="2.37976">
        <ele>181.2</ele>
        <time>2021-11-13 10:08:40</time>
      </trkpt>
      <trkpt lat="41.5831" lon="2.37973">
        <ele>181.4</ele>
        <time>2021-11-13 10:08:41</time>
      </trkpt>
      <trkpt lat="41.58314" lon="2.37971">
        <ele>181.6</ele>
        <time>2021-11-13 10:08:42</time>
      </trkpt>
      <trkpt lat="41.58317" lon="2.37968">
        <ele>181.8</ele>
        <time>2021-11-13 10:08:43</time>
      </trkpt>
      <trkpt lat="41.58321" lon="2.37966">
        <ele>182</ele>
        <time>2021-11-13 10:08:44</time>
      </trkpt>
      <trkpt lat="41.58324" lon="2.37964">
        <ele>182.4</ele>
        <time>2021-11-13 10:08:45</time>
      </trkpt>
      <trkpt lat="41.58327" lon="2.37962">
        <ele>182.6</ele>
        <time>2021-11-13 10:08:46</time>
      </trkpt>
      <trkpt lat="41.5833" lon="2.37959">
        <ele>183</ele>
        <time>2021-11-13 10:08:47</time>
      </trkpt>
      <trkpt lat="41.58333" lon="2.37957">
        <ele>183.4</ele>
        <time>2021-11-13 10:08:48</time>
      </trkpt>
      <trkpt lat="41.58336" lon="2.37954">
        <ele>183.6</ele>
        <time>2021-11-13 10:08:49</time>
      </trkpt>
      <trkpt lat="41.5834" lon="2.37951">
        <ele>184</ele>
        <time>2021-11-13 10:08:50</time>
      </trkpt>
      <trkpt lat="41.58343" lon="2.37948">
        <ele>184.2</ele>
        <time>2021-11-13 10:08:51</time>
      </trkpt>
      <trkpt lat="41.58347" lon="2.37945">
        <ele>184.6</ele>
        <time>2021-11-13 10:08:52</time>
      </trkpt>
      <trkpt lat="41.5835" lon="2.37942">
        <ele>185.2</ele>
        <time>2021-11-13 10:08:53</time>
      </trkpt>
      <trkpt lat="41.58353" lon="2.3794">
        <ele>185.2</ele>
        <time>2021-11-13 10:08:54</time>
      </trkpt>
      <trkpt lat="41.58356" lon="2.37937">
        <ele>185.6</ele>
        <time>2021-11-13 10:08:55</time>
      </trkpt>
      <trkpt lat="41.58359" lon="2.37934">
        <ele>185.8</ele>
        <time>2021-11-13 10:08:56</time>
      </trkpt>
      <trkpt lat="41.58362" lon="2.37931">
        <ele>186</ele>
        <time>2021-11-13 10:08:57</time>
      </trkpt>
      <trkpt lat="41.58365" lon="2.37929">
        <ele>186.2</ele>
        <time>2021-11-13 10:08:58</time>
      </trkpt>
      <trkpt lat="41.58368" lon="2.37926">
        <ele>186.4</ele>
        <time>2021-11-13 10:08:59</time>
      </trkpt>
      <trkpt lat="41.58371" lon="2.37924">
        <ele>186.6</ele>
        <time>2021-11-13 10:09:00</time>
      </trkpt>
      <trkpt lat="41.58374" lon="2.37921">
        <ele>187</ele>
        <time>2021-11-13 10:09:01</time>
      </trkpt>
      <trkpt lat="41.58378" lon="2.37919">
        <ele>187.4</ele>
        <time>2021-11-13 10:09:02</time>
      </trkpt>
      <trkpt lat="41.58381" lon="2.37917">
        <ele>187.6</ele>
        <time>2021-11-13 10:09:03</time>
      </trkpt>
      <trkpt lat="41.58384" lon="2.37915">
        <ele>187.8</ele>
        <time>2021-11-13 10:09:04</time>
      </trkpt>
      <trkpt lat="41.58388" lon="2.37913">
        <ele>188</ele>
        <time>2021-11-13 10:09:05</time>
      </trkpt>
      <trkpt lat="41.58392" lon="2.37911">
        <ele>188.4</ele>
        <time>2021-11-13 10:09:06</time>
      </trkpt>
      <trkpt lat="41.58396" lon="2.3791">
        <ele>188.4</ele>
        <time>2021-11-13 10:09:07</time>
      </trkpt>
      <trkpt lat="41.584" lon="2.37909">
        <ele>188.8</ele>
        <time>2021-11-13 10:09:08</time>
      </trkpt>
      <trkpt lat="41.58404" lon="2.37908">
        <ele>189</ele>
        <time>2021-11-13 10:09:09</time>
      </trkpt>
      <trkpt lat="41.58408" lon="2.37907">
        <ele>189.4</ele>
        <time>2021-11-13 10:09:10</time>
      </trkpt>
      <trkpt lat="41.58412" lon="2.37907">
        <ele>189.8</ele>
        <time>2021-11-13 10:09:11</time>
      </trkpt>
      <trkpt lat="41.58416" lon="2.37907">
        <ele>189.8</ele>
        <time>2021-11-13 10:09:12</time>
      </trkpt>
      <trkpt lat="41.5842" lon="2.37908">
        <ele>190.2</ele>
        <time>2021-11-13 10:09:13</time>
      </trkpt>
      <trkpt lat="41.58424" lon="2.37908">
        <ele>190.4</ele>
        <time>2021-11-13 10:09:14</time>
      </trkpt>
      <trkpt lat="41.58428" lon="2.37908">
        <ele>190.8</ele>
        <time>2021-11-13 10:09:15</time>
      </trkpt>
      <trkpt lat="41.58432" lon="2.37909">
        <ele>191</ele>
        <time>2021-11-13 10:09:16</time>
      </trkpt>
      <trkpt lat="41.58436" lon="2.37909">
        <ele>191.2</ele>
        <time>2021-11-13 10:09:17</time>
      </trkpt>
      <trkpt lat="41.5844" lon="2.3791">
        <ele>191.6</ele>
        <time>2021-11-13 10:09:18</time>
      </trkpt>
      <trkpt lat="41.58444" lon="2.37911">
        <ele>191.6</ele>
        <time>2021-11-13 10:09:19</time>
      </trkpt>
      <trkpt lat="41.58448" lon="2.37911">
        <ele>192</ele>
        <time>2021-11-13 10:09:20</time>
      </trkpt>
      <trkpt lat="41.58452" lon="2.37912">
        <ele>192.4</ele>
        <time>2021-11-13 10:09:21</time>
      </trkpt>
      <trkpt lat="41.58455" lon="2.37912">
        <ele>192.6</ele>
        <time>2021-11-13 10:09:22</time>
      </trkpt>
      <trkpt lat="41.58459" lon="2.37913">
        <ele>192.8</ele>
        <time>2021-11-13 10:09:23</time>
      </trkpt>
      <trkpt lat="41.58462" lon="2.37914">
        <ele>193.2</ele>
        <time>2021-11-13 10:09:24</time>
      </trkpt>
      <trkpt lat="41.58466" lon="2.37915">
        <ele>193.4</ele>
        <time>2021-11-13 10:09:25</time>
      </trkpt>
      <trkpt lat="41.58469" lon="2.37915">
        <ele>193.8</ele>
        <time>2021-11-13 10:09:26</time>
      </trkpt>
      <trkpt lat="41.58473" lon="2.37916">
        <ele>194.2</ele>
        <time>2021-11-13 10:09:27</time>
      </trkpt>
      <trkpt lat="41.58476" lon="2.37917">
        <ele>194.4</ele>
        <time>2021-11-13 10:09:28</time>
      </trkpt>
      <trkpt lat="41.58479" lon="2.37917">
        <ele>194.8</ele>
        <time>2021-11-13 10:09:29</time>
      </trkpt>
      <trkpt lat="41.58482" lon="2.37918">
        <ele>195</ele>
        <time>2021-11-13 10:09:30</time>
      </trkpt>
      <trkpt lat="41.58485" lon="2.37919">
        <ele>195.4</ele>
        <time>2021-11-13 10:09:31</time>
      </trkpt>
      <trkpt lat="41.58489" lon="2.37921">
        <ele>195.6</ele>
        <time>2021-11-13 10:09:32</time>
      </trkpt>
      <trkpt lat="41.58493" lon="2.37923">
        <ele>196</ele>
        <time>2021-11-13 10:09:33</time>
      </trkpt>
      <trkpt lat="41.58497" lon="2.37925">
        <ele>196.2</ele>
        <time>2021-11-13 10:09:34</time>
      </trkpt>
      <trkpt lat="41.585" lon="2.37926">
        <ele>196.8</ele>
        <time>2021-11-13 10:09:35</time>
      </trkpt>
      <trkpt lat="41.58503" lon="2.37928">
        <ele>197</ele>
        <time>2021-11-13 10:09:36</time>
      </trkpt>
      <trkpt lat="41.58507" lon="2.3793">
        <ele>197.2</ele>
        <time>2021-11-13 10:09:37</time>
      </trkpt>
      <trkpt lat="41.58511" lon="2.37932">
        <ele>197.8</ele>
        <time>2021-11-13 10:09:38</time>
      </trkpt>
      <trkpt lat="41.58515" lon="2.37934">
        <ele>198</ele>
        <time>2021-11-13 10:09:39</time>
      </trkpt>
      <trkpt lat="41.5852" lon="2.37935">
        <ele>198.4</ele>
        <time>2021-11-13 10:09:40</time>
      </trkpt>
      <trkpt lat="41.58524" lon="2.37936">
        <ele>198.6</ele>
        <time>2021-11-13 10:09:41</time>
      </trkpt>
      <trkpt lat="41.58529" lon="2.37936">
        <ele>198.8</ele>
        <time>2021-11-13 10:09:42</time>
      </trkpt>
      <trkpt lat="41.58534" lon="2.37937">
        <ele>199.2</ele>
        <time>2021-11-13 10:09:43</time>
      </trkpt>
      <trkpt lat="41.58538" lon="2.37939">
        <ele>199.2</ele>
        <time>2021-11-13 10:09:44</time>
      </trkpt>
      <trkpt lat="41.58542" lon="2.37941">
        <ele>199.8</ele>
        <time>2021-11-13 10:09:45</time>
      </trkpt>
      <trkpt lat="41.58546" lon="2.37942">
        <ele>200</ele>
        <time>2021-11-13 10:09:46</time>
      </trkpt>
      <trkpt lat="41.58551" lon="2.37944">
        <ele>200.4</ele>
        <time>2021-11-13 10:09:47</time>
      </trkpt>
      <trkpt lat="41.58555" lon="2.37945">
        <ele>200.6</ele>
        <time>2021-11-13 10:09:48</time>
      </trkpt>
      <trkpt lat="41.5856" lon="2.37948">
        <ele>201</ele>
        <time>2021-11-13 10:09:49</time>
      </trkpt>
      <trkpt lat="41.58565" lon="2.37951">
        <ele>201</ele>
        <time>2021-11-13 10:09:50</time>
      </trkpt>
      <trkpt lat="41.5857" lon="2.37953">
        <ele>201.2</ele>
        <time>2021-11-13 10:09:51</time>
      </trkpt>
      <trkpt lat="41.58574" lon="2.37954">
        <ele>201.4</ele>
        <time>2021-11-13 10:09:52</time>
      </trkpt>
      <trkpt lat="41.58578" lon="2.37955">
        <ele>201.6</ele>
        <time>2021-11-13 10:09:53</time>
      </trkpt>
      <trkpt lat="41.58583" lon="2.37957">
        <ele>201.8</ele>
        <time>2021-11-13 10:09:54</time>
      </trkpt>
      <trkpt lat="41.58587" lon="2.37958">
        <ele>201.8</ele>
        <time>2021-11-13 10:09:55</time>
      </trkpt>
      <trkpt lat="41.58592" lon="2.37959">
        <ele>202</ele>
        <time>2021-11-13 10:09:56</time>
      </trkpt>
      <trkpt lat="41.58596" lon="2.37961">
        <ele>202.2</ele>
        <time>2021-11-13 10:09:57</time>
      </trkpt>
      <trkpt lat="41.586" lon="2.37962">
        <ele>202.4</ele>
        <time>2021-11-13 10:09:58</time>
      </trkpt>
      <trkpt lat="41.58604" lon="2.37964">
        <ele>202.4</ele>
        <time>2021-11-13 10:09:59</time>
      </trkpt>
      <trkpt lat="41.58609" lon="2.37965">
        <ele>202.4</ele>
        <time>2021-11-13 10:10:00</time>
      </trkpt>
      <trkpt lat="41.58613" lon="2.37966">
        <ele>202.8</ele>
        <time>2021-11-13 10:10:01</time>
      </trkpt>
      <trkpt lat="41.58618" lon="2.37968">
        <ele>202.8</ele>
        <time>2021-11-13 10:10:02</time>
      </trkpt>
      <trkpt lat="41.58622" lon="2.37969">
        <ele>203.2</ele>
        <time>2021-11-13 10:10:03</time>
      </trkpt>
      <trkpt lat="41.58627" lon="2.3797">
        <ele>203.4</ele>
        <time>2021-11-13 10:10:04</time>
      </trkpt>
      <trkpt lat="41.58631" lon="2.37971">
        <ele>203.6</ele>
        <time>2021-11-13 10:10:05</time>
      </trkpt>
      <trkpt lat="41.58636" lon="2.37972">
        <ele>203.8</ele>
        <time>2021-11-13 10:10:06</time>
      </trkpt>
      <trkpt lat="41.58641" lon="2.37974">
        <ele>204.2</ele>
        <time>2021-11-13 10:10:07</time>
      </trkpt>
      <trkpt lat="41.58645" lon="2.37975">
        <ele>204.4</ele>
        <time>2021-11-13 10:10:08</time>
      </trkpt>
      <trkpt lat="41.5865" lon="2.37977">
        <ele>204.4</ele>
        <time>2021-11-13 10:10:09</time>
      </trkpt>
      <trkpt lat="41.58654" lon="2.37978">
        <ele>204.6</ele>
        <time>2021-11-13 10:10:10</time>
      </trkpt>
      <trkpt lat="41.58659" lon="2.3798">
        <ele>204.8</ele>
        <time>2021-11-13 10:10:11</time>
      </trkpt>
      <trkpt lat="41.58664" lon="2.37981">
        <ele>205</ele>
        <time>2021-11-13 10:10:12</time>
      </trkpt>
      <trkpt lat="41.58668" lon="2.37982">
        <ele>205.2</ele>
        <time>2021-11-13 10:10:13</time>
      </trkpt>
      <trkpt lat="41.58673" lon="2.37983">
        <ele>205.4</ele>
        <time>2021-11-13 10:10:14</time>
      </trkpt>
      <trkpt lat="41.58678" lon="2.37983">
        <ele>205.4</ele>
        <time>2021-11-13 10:10:15</time>
      </trkpt>
      <trkpt lat="41.58682" lon="2.37983">
        <ele>205.8</ele>
        <time>2021-11-13 10:10:16</time>
      </trkpt>
      <trkpt lat="41.58687" lon="2.37982">
        <ele>205.8</ele>
        <time>2021-11-13 10:10:17</time>
      </trkpt>
      <trkpt lat="41.58692" lon="2.3798">
        <ele>206</ele>
        <time>2021-11-13 10:10:18</time>
      </trkpt>
      <trkpt lat="41.58696" lon="2.37977">
        <ele>206.2</ele>
        <time>2021-11-13 10:10:19</time>
      </trkpt>
      <trkpt lat="41.587" lon="2.37973">
        <ele>206.4</ele>
        <time>2021-11-13 10:10:20</time>
      </trkpt>
      <trkpt lat="41.58702" lon="2.37969">
        <ele>206.6</ele>
        <time>2021-11-13 10:10:21</time>
      </trkpt>
      <trkpt lat="41.58704" lon="2.37963">
        <ele>206.6</ele>
        <time>2021-11-13 10:10:22</time>
      </trkpt>
      <trkpt lat="41.58706" lon="2.37958">
        <ele>206.8</ele>
        <time>2021-11-13 10:10:23</time>
      </trkpt>
      <trkpt lat="41.58707" lon="2.37953">
        <ele>206.8</ele>
        <time>2021-11-13 10:10:24</time>
      </trkpt>
      <trkpt lat="41.58706" lon="2.37947">
        <ele>207.2</ele>
        <time>2021-11-13 10:10:25</time>
      </trkpt>
      <trkpt lat="41.58705" lon="2.37941">
        <ele>207</ele>
        <time>2021-11-13 10:10:26</time>
      </trkpt>
      <trkpt lat="41.58703" lon="2.37935">
        <ele>207.2</ele>
        <time>2021-11-13 10:10:27</time>
      </trkpt>
      <trkpt lat="41.587" lon="2.37929">
        <ele>207.2</ele>
        <time>2021-11-13 10:10:28</time>
      </trkpt>
      <trkpt lat="41.58696" lon="2.37925">
        <ele>207.2</ele>
        <time>2021-11-13 10:10:29</time>
      </trkpt>
      <trkpt lat="41.58692" lon="2.37921">
        <ele>207.4</ele>
        <time>2021-11-13 10:10:30</time>
      </trkpt>
      <trkpt lat="41.58688" lon="2.37918">
        <ele>207.4</ele>
        <time>2021-11-13 10:10:31</time>
      </trkpt>
      <trkpt lat="41.58685" lon="2.37914">
        <ele>207.6</ele>
        <time>2021-11-13 10:10:32</time>
      </trkpt>
      <trkpt lat="41.58681" lon="2.37911">
        <ele>207.6</ele>
        <time>2021-11-13 10:10:33</time>
      </trkpt>
      <trkpt lat="41.58676" lon="2.37907">
        <ele>207.8</ele>
        <time>2021-11-13 10:10:34</time>
      </trkpt>
      <trkpt lat="41.58672" lon="2.37903">
        <ele>208</ele>
        <time>2021-11-13 10:10:35</time>
      </trkpt>
      <trkpt lat="41.58668" lon="2.379">
        <ele>208</ele>
        <time>2021-11-13 10:10:36</time>
      </trkpt>
      <trkpt lat="41.58664" lon="2.37897">
        <ele>208.2</ele>
        <time>2021-11-13 10:10:37</time>
      </trkpt>
      <trkpt lat="41.58659" lon="2.37894">
        <ele>208.2</ele>
        <time>2021-11-13 10:10:38</time>
      </trkpt>
      <trkpt lat="41.58654" lon="2.37891">
        <ele>208.4</ele>
        <time>2021-11-13 10:10:39</time>
      </trkpt>
      <trkpt lat="41.5865" lon="2.37889">
        <ele>208.6</ele>
        <time>2021-11-13 10:10:40</time>
      </trkpt>
      <trkpt lat="41.58647" lon="2.37886">
        <ele>209</ele>
        <time>2021-11-13 10:10:41</time>
      </trkpt>
      <trkpt lat="41.58643" lon="2.37882">
        <ele>209.2</ele>
        <time>2021-11-13 10:10:42</time>
      </trkpt>
      <trkpt lat="41.58639" lon="2.37879">
        <ele>209.2</ele>
        <time>2021-11-13 10:10:43</time>
      </trkpt>
      <trkpt lat="41.58635" lon="2.37875">
        <ele>209.4</ele>
        <time>2021-11-13 10:10:44</time>
      </trkpt>
      <trkpt lat="41.58631" lon="2.37873">
        <ele>209.6</ele>
        <time>2021-11-13 10:10:45</time>
      </trkpt>
      <trkpt lat="41.58626" lon="2.37869">
        <ele>209.8</ele>
        <time>2021-11-13 10:10:46</time>
      </trkpt>
      <trkpt lat="41.58622" lon="2.37865">
        <ele>209.8</ele>
        <time>2021-11-13 10:10:47</time>
      </trkpt>
      <trkpt lat="41.58617" lon="2.37862">
        <ele>210</ele>
        <time>2021-11-13 10:10:48</time>
      </trkpt>
      <trkpt lat="41.58613" lon="2.37858">
        <ele>210.4</ele>
        <time>2021-11-13 10:10:49</time>
      </trkpt>
      <trkpt lat="41.5861" lon="2.37854">
        <ele>210.6</ele>
        <time>2021-11-13 10:10:50</time>
      </trkpt>
      <trkpt lat="41.58606" lon="2.37851">
        <ele>211</ele>
        <time>2021-11-13 10:10:51</time>
      </trkpt>
      <trkpt lat="41.58601" lon="2.37847">
        <ele>211</ele>
        <time>2021-11-13 10:10:52</time>
      </trkpt>
      <trkpt lat="41.58598" lon="2.37843">
        <ele>211.4</ele>
        <time>2021-11-13 10:10:53</time>
      </trkpt>
      <trkpt lat="41.58595" lon="2.37838">
        <ele>211.4</ele>
        <time>2021-11-13 10:10:54</time>
      </trkpt>
      <trkpt lat="41.58593" lon="2.37832">
        <ele>211.8</ele>
        <time>2021-11-13 10:10:55</time>
      </trkpt>
      <trkpt lat="41.5859" lon="2.37827">
        <ele>211.8</ele>
        <time>2021-11-13 10:10:56</time>
      </trkpt>
      <trkpt lat="41.58586" lon="2.37822">
        <ele>212</ele>
        <time>2021-11-13 10:10:57</time>
      </trkpt>
      <trkpt lat="41.58583" lon="2.37816">
        <ele>212.4</ele>
        <time>2021-11-13 10:10:58</time>
      </trkpt>
      <trkpt lat="41.5858" lon="2.37811">
        <ele>212.4</ele>
        <time>2021-11-13 10:10:59</time>
      </trkpt>
      <trkpt lat="41.58578" lon="2.37806">
        <ele>212.6</ele>
        <time>2021-11-13 10:11:00</time>
      </trkpt>
      <trkpt lat="41.58575" lon="2.37801">
        <ele>212.8</ele>
        <time>2021-11-13 10:11:01</time>
      </trkpt>
      <trkpt lat="41.58573" lon="2.37796">
        <ele>213.2</ele>
        <time>2021-11-13 10:11:02</time>
      </trkpt>
      <trkpt lat="41.58571" lon="2.37791">
        <ele>213.2</ele>
        <time>2021-11-13 10:11:03</time>
      </trkpt>
      <trkpt lat="41.58569" lon="2.37786">
        <ele>213.6</ele>
        <time>2021-11-13 10:11:04</time>
      </trkpt>
      <trkpt lat="41.58567" lon="2.37781">
        <ele>213.6</ele>
        <time>2021-11-13 10:11:05</time>
      </trkpt>
      <trkpt lat="41.58564" lon="2.37776">
        <ele>213.8</ele>
        <time>2021-11-13 10:11:06</time>
      </trkpt>
      <trkpt lat="41.58561" lon="2.37772">
        <ele>214</ele>
        <time>2021-11-13 10:11:07</time>
      </trkpt>
      <trkpt lat="41.58559" lon="2.37768">
        <ele>214.2</ele>
        <time>2021-11-13 10:11:08</time>
      </trkpt>
      <trkpt lat="41.58556" lon="2.37764">
        <ele>214.4</ele>
        <time>2021-11-13 10:11:09</time>
      </trkpt>
      <trkpt lat="41.58552" lon="2.3776">
        <ele>214.6</ele>
        <time>2021-11-13 10:11:10</time>
      </trkpt>
      <trkpt lat="41.58549" lon="2.37757">
        <ele>215</ele>
        <time>2021-11-13 10:11:11</time>
      </trkpt>
      <trkpt lat="41.58545" lon="2.37755">
        <ele>215</ele>
        <time>2021-11-13 10:11:12</time>
      </trkpt>
      <trkpt lat="41.58542" lon="2.37753">
        <ele>215.2</ele>
        <time>2021-11-13 10:11:13</time>
      </trkpt>
      <trkpt lat="41.58538" lon="2.37751">
        <ele>215.4</ele>
        <time>2021-11-13 10:11:14</time>
      </trkpt>
      <trkpt lat="41.58534" lon="2.37749">
        <ele>215.6</ele>
        <time>2021-11-13 10:11:15</time>
      </trkpt>
      <trkpt lat="41.5853" lon="2.37748">
        <ele>216</ele>
        <time>2021-11-13 10:11:16</time>
      </trkpt>
      <trkpt lat="41.58525" lon="2.37746">
        <ele>216</ele>
        <time>2021-11-13 10:11:17</time>
      </trkpt>
      <trkpt lat="41.58521" lon="2.37744">
        <ele>216.4</ele>
        <time>2021-11-13 10:11:18</time>
      </trkpt>
      <trkpt lat="41.58517" lon="2.37743">
        <ele>216.6</ele>
        <time>2021-11-13 10:11:19</time>
      </trkpt>
      <trkpt lat="41.58512" lon="2.37742">
        <ele>216.8</ele>
        <time>2021-11-13 10:11:20</time>
      </trkpt>
      <trkpt lat="41.58508" lon="2.3774">
        <ele>217</ele>
        <time>2021-11-13 10:11:21</time>
      </trkpt>
      <trkpt lat="41.58503" lon="2.37739">
        <ele>217.4</ele>
        <time>2021-11-13 10:11:22</time>
      </trkpt>
      <trkpt lat="41.58499" lon="2.37738">
        <ele>217.6</ele>
        <time>2021-11-13 10:11:23</time>
      </trkpt>
      <trkpt lat="41.58495" lon="2.37736">
        <ele>217.8</ele>
        <time>2021-11-13 10:11:24</time>
      </trkpt>
      <trkpt lat="41.5849" lon="2.37735">
        <ele>218</ele>
        <time>2021-11-13 10:11:25</time>
      </trkpt>
      <trkpt lat="41.58486" lon="2.37734">
        <ele>218.2</ele>
        <time>2021-11-13 10:11:26</time>
      </trkpt>
      <trkpt lat="41.58481" lon="2.37733">
        <ele>218.6</ele>
        <time>2021-11-13 10:11:27</time>
      </trkpt>
      <trkpt lat="41.58476" lon="2.37731">
        <ele>218.6</ele>
        <time>2021-11-13 10:11:28</time>
      </trkpt>
      <trkpt lat="41.58472" lon="2.3773">
        <ele>219</ele>
        <time>2021-11-13 10:11:29</time>
      </trkpt>
      <trkpt lat="41.58467" lon="2.37729">
        <ele>219.2</ele>
        <time>2021-11-13 10:11:30</time>
      </trkpt>
      <trkpt lat="41.58463" lon="2.37727">
        <ele>219.6</ele>
        <time>2021-11-13 10:11:31</time>
      </trkpt>
      <trkpt lat="41.58459" lon="2.37726">
        <ele>219.8</ele>
        <time>2021-11-13 10:11:32</time>
      </trkpt>
      <trkpt lat="41.58454" lon="2.37724">
        <ele>220</ele>
        <time>2021-11-13 10:11:33</time>
      </trkpt>
      <trkpt lat="41.5845" lon="2.37723">
        <ele>220.4</ele>
        <time>2021-11-13 10:11:34</time>
      </trkpt>
      <trkpt lat="41.58446" lon="2.37722">
        <ele>220.4</ele>
        <time>2021-11-13 10:11:35</time>
      </trkpt>
      <trkpt lat="41.58441" lon="2.37721">
        <ele>220.8</ele>
        <time>2021-11-13 10:11:36</time>
      </trkpt>
      <trkpt lat="41.58437" lon="2.3772">
        <ele>221</ele>
        <time>2021-11-13 10:11:37</time>
      </trkpt>
      <trkpt lat="41.58432" lon="2.37719">
        <ele>221.2</ele>
        <time>2021-11-13 10:11:38</time>
      </trkpt>
      <trkpt lat="41.58428" lon="2.37718">
        <ele>221.8</ele>
        <time>2021-11-13 10:11:39</time>
      </trkpt>
      <trkpt lat="41.58424" lon="2.37717">
        <ele>222</ele>
        <time>2021-11-13 10:11:40</time>
      </trkpt>
      <trkpt lat="41.58419" lon="2.37716">
        <ele>222.2</ele>
        <time>2021-11-13 10:11:41</time>
      </trkpt>
      <trkpt lat="41.58415" lon="2.37716">
        <ele>222.4</ele>
        <time>2021-11-13 10:11:42</time>
      </trkpt>
      <trkpt lat="41.58411" lon="2.37716">
        <ele>222.8</ele>
        <time>2021-11-13 10:11:43</time>
      </trkpt>
      <trkpt lat="41.58406" lon="2.37716">
        <ele>223</ele>
        <time>2021-11-13 10:11:44</time>
      </trkpt>
      <trkpt lat="41.58402" lon="2.37716">
        <ele>223.4</ele>
        <time>2021-11-13 10:11:45</time>
      </trkpt>
      <trkpt lat="41.58398" lon="2.37716">
        <ele>223.6</ele>
        <time>2021-11-13 10:11:46</time>
      </trkpt>
      <trkpt lat="41.58394" lon="2.37716">
        <ele>224</ele>
        <time>2021-11-13 10:11:47</time>
      </trkpt>
      <trkpt lat="41.5839" lon="2.37716">
        <ele>224.4</ele>
        <time>2021-11-13 10:11:48</time>
      </trkpt>
      <trkpt lat="41.58385" lon="2.37717">
        <ele>224.4</ele>
        <time>2021-11-13 10:11:49</time>
      </trkpt>
      <trkpt lat="41.58381" lon="2.37718">
        <ele>224.8</ele>
        <time>2021-11-13 10:11:50</time>
      </trkpt>
      <trkpt lat="41.58377" lon="2.37718">
        <ele>225</ele>
        <time>2021-11-13 10:11:51</time>
      </trkpt>
      <trkpt lat="41.58373" lon="2.3772">
        <ele>225.2</ele>
        <time>2021-11-13 10:11:52</time>
      </trkpt>
      <trkpt lat="41.58368" lon="2.37721">
        <ele>225.4</ele>
        <time>2021-11-13 10:11:53</time>
      </trkpt>
      <trkpt lat="41.58363" lon="2.37723">
        <ele>225.6</ele>
        <time>2021-11-13 10:11:54</time>
      </trkpt>
      <trkpt lat="41.5836" lon="2.37724">
        <ele>225.8</ele>
        <time>2021-11-13 10:11:55</time>
      </trkpt>
      <trkpt lat="41.58356" lon="2.37726">
        <ele>226</ele>
        <time>2021-11-13 10:11:56</time>
      </trkpt>
      <trkpt lat="41.58352" lon="2.37728">
        <ele>226.4</ele>
        <time>2021-11-13 10:11:57</time>
      </trkpt>
      <trkpt lat="41.58348" lon="2.37729">
        <ele>226.6</ele>
        <time>2021-11-13 10:11:58</time>
      </trkpt>
      <trkpt lat="41.58344" lon="2.3773">
        <ele>226.8</ele>
        <time>2021-11-13 10:11:59</time>
      </trkpt>
      <trkpt lat="41.58339" lon="2.37731">
        <ele>226.8</ele>
        <time>2021-11-13 10:12:00</time>
      </trkpt>
      <trkpt lat="41.58335" lon="2.37731">
        <ele>227</ele>
        <time>2021-11-13 10:12:01</time>
      </trkpt>
      <trkpt lat="41.58331" lon="2.37731">
        <ele>227.2</ele>
        <time>2021-11-13 10:12:02</time>
      </trkpt>
      <trkpt lat="41.58327" lon="2.3773">
        <ele>227.4</ele>
        <time>2021-11-13 10:12:03</time>
      </trkpt>
      <trkpt lat="41.58322" lon="2.37729">
        <ele>227.8</ele>
        <time>2021-11-13 10:12:04</time>
      </trkpt>
      <trkpt lat="41.58318" lon="2.37727">
        <ele>228</ele>
        <time>2021-11-13 10:12:05</time>
      </trkpt>
      <trkpt lat="41.58313" lon="2.37725">
        <ele>228.4</ele>
        <time>2021-11-13 10:12:06</time>
      </trkpt>
      <trkpt lat="41.58309" lon="2.37722">
        <ele>228.6</ele>
        <time>2021-11-13 10:12:07</time>
      </trkpt>
      <trkpt lat="41.58306" lon="2.37719">
        <ele>228.8</ele>
        <time>2021-11-13 10:12:08</time>
      </trkpt>
      <trkpt lat="41.58302" lon="2.37715">
        <ele>228.8</ele>
        <time>2021-11-13 10:12:09</time>
      </trkpt>
      <trkpt lat="41.58299" lon="2.3771">
        <ele>229.2</ele>
        <time>2021-11-13 10:12:10</time>
      </trkpt>
      <trkpt lat="41.58297" lon="2.37706">
        <ele>229.4</ele>
        <time>2021-11-13 10:12:11</time>
      </trkpt>
      <trkpt lat="41.58295" lon="2.37701">
        <ele>229.8</ele>
        <time>2021-11-13 10:12:12</time>
      </trkpt>
      <trkpt lat="41.58292" lon="2.37696">
        <ele>229.8</ele>
        <time>2021-11-13 10:12:13</time>
      </trkpt>
      <trkpt lat="41.58291" lon="2.3769">
        <ele>230.2</ele>
        <time>2021-11-13 10:12:14</time>
      </trkpt>
      <trkpt lat="41.58289" lon="2.37685">
        <ele>230.8</ele>
        <time>2021-11-13 10:12:15</time>
      </trkpt>
      <trkpt lat="41.58289" lon="2.37679">
        <ele>231</ele>
        <time>2021-11-13 10:12:16</time>
      </trkpt>
      <trkpt lat="41.58288" lon="2.37673">
        <ele>231.2</ele>
        <time>2021-11-13 10:12:17</time>
      </trkpt>
      <trkpt lat="41.58289" lon="2.37667">
        <ele>231.4</ele>
        <time>2021-11-13 10:12:18</time>
      </trkpt>
      <trkpt lat="41.58289" lon="2.37661">
        <ele>231.6</ele>
        <time>2021-11-13 10:12:19</time>
      </trkpt>
      <trkpt lat="41.5829" lon="2.37656">
        <ele>231.8</ele>
        <time>2021-11-13 10:12:20</time>
      </trkpt>
      <trkpt lat="41.58291" lon="2.3765">
        <ele>232</ele>
        <time>2021-11-13 10:12:21</time>
      </trkpt>
      <trkpt lat="41.58293" lon="2.37645">
        <ele>232.2</ele>
        <time>2021-11-13 10:12:22</time>
      </trkpt>
      <trkpt lat="41.58294" lon="2.37639">
        <ele>232.4</ele>
        <time>2021-11-13 10:12:23</time>
      </trkpt>
      <trkpt lat="41.58296" lon="2.37634">
        <ele>233</ele>
        <time>2021-11-13 10:12:24</time>
      </trkpt>
      <trkpt lat="41.58298" lon="2.37629">
        <ele>233.2</ele>
        <time>2021-11-13 10:12:25</time>
      </trkpt>
      <trkpt lat="41.58301" lon="2.37623">
        <ele>233.4</ele>
        <time>2021-11-13 10:12:26</time>
      </trkpt>
      <trkpt lat="41.58303" lon="2.37619">
        <ele>233.6</ele>
        <time>2021-11-13 10:12:27</time>
      </trkpt>
      <trkpt lat="41.58306" lon="2.37615">
        <ele>234.2</ele>
        <time>2021-11-13 10:12:28</time>
      </trkpt>
      <trkpt lat="41.58309" lon="2.37611">
        <ele>234.4</ele>
        <time>2021-11-13 10:12:29</time>
      </trkpt>
      <trkpt lat="41.58312" lon="2.37608">
        <ele>234.6</ele>
        <time>2021-11-13 10:12:30</time>
      </trkpt>
      <trkpt lat="41.58316" lon="2.37604">
        <ele>235</ele>
        <time>2021-11-13 10:12:31</time>
      </trkpt>
      <trkpt lat="41.58319" lon="2.37601">
        <ele>235</ele>
        <time>2021-11-13 10:12:32</time>
      </trkpt>
      <trkpt lat="41.58323" lon="2.37599">
        <ele>235.4</ele>
        <time>2021-11-13 10:12:33</time>
      </trkpt>
      <trkpt lat="41.58327" lon="2.37597">
        <ele>235.6</ele>
        <time>2021-11-13 10:12:34</time>
      </trkpt>
      <trkpt lat="41.58331" lon="2.37595">
        <ele>236</ele>
        <time>2021-11-13 10:12:35</time>
      </trkpt>
      <trkpt lat="41.58335" lon="2.37593">
        <ele>236</ele>
        <time>2021-11-13 10:12:36</time>
      </trkpt>
      <trkpt lat="41.58338" lon="2.37591">
        <ele>236.4</ele>
        <time>2021-11-13 10:12:37</time>
      </trkpt>
      <trkpt lat="41.58342" lon="2.37589">
        <ele>236.8</ele>
        <time>2021-11-13 10:12:38</time>
      </trkpt>
      <trkpt lat="41.58346" lon="2.37588">
        <ele>237</ele>
        <time>2021-11-13 10:12:39</time>
      </trkpt>
      <trkpt lat="41.58349" lon="2.37586">
        <ele>237.4</ele>
        <time>2021-11-13 10:12:40</time>
      </trkpt>
      <trkpt lat="41.58353" lon="2.37584">
        <ele>237.6</ele>
        <time>2021-11-13 10:12:41</time>
      </trkpt>
      <trkpt lat="41.58357" lon="2.37583">
        <ele>237.8</ele>
        <time>2021-11-13 10:12:42</time>
      </trkpt>
      <trkpt lat="41.58361" lon="2.37581">
        <ele>238</ele>
        <time>2021-11-13 10:12:43</time>
      </trkpt>
      <trkpt lat="41.58363" lon="2.37579">
        <ele>238.2</ele>
        <time>2021-11-13 10:12:44</time>
      </trkpt>
      <trkpt lat="41.58367" lon="2.37575">
        <ele>238.4</ele>
        <time>2021-11-13 10:12:45</time>
      </trkpt>
      <trkpt lat="41.5837" lon="2.37572">
        <ele>238.8</ele>
        <time>2021-11-13 10:12:46</time>
      </trkpt>
      <trkpt lat="41.58373" lon="2.37568">
        <ele>239.4</ele>
        <time>2021-11-13 10:12:47</time>
      </trkpt>
      <trkpt lat="41.58375" lon="2.37563">
        <ele>239.8</ele>
        <time>2021-11-13 10:12:48</time>
      </trkpt>
      <trkpt lat="41.58377" lon="2.37559">
        <ele>240.2</ele>
        <time>2021-11-13 10:12:49</time>
      </trkpt>
      <trkpt lat="41.58379" lon="2.37553">
        <ele>240.4</ele>
        <time>2021-11-13 10:12:50</time>
      </trkpt>
      <trkpt lat="41.5838" lon="2.37548">
        <ele>240.8</ele>
        <time>2021-11-13 10:12:51</time>
      </trkpt>
      <trkpt lat="41.58381" lon="2.37543">
        <ele>241</ele>
        <time>2021-11-13 10:12:52</time>
      </trkpt>
      <trkpt lat="41.58381" lon="2.37538">
        <ele>241.2</ele>
        <time>2021-11-13 10:12:53</time>
      </trkpt>
      <trkpt lat="41.58382" lon="2.37532">
        <ele>241.4</ele>
        <time>2021-11-13 10:12:54</time>
      </trkpt>
      <trkpt lat="41.58381" lon="2.37527">
        <ele>241.6</ele>
        <time>2021-11-13 10:12:55</time>
      </trkpt>
      <trkpt lat="41.5838" lon="2.37521">
        <ele>241.8</ele>
        <time>2021-11-13 10:12:56</time>
      </trkpt>
      <trkpt lat="41.5838" lon="2.37516">
        <ele>242</ele>
        <time>2021-11-13 10:12:57</time>
      </trkpt>
      <trkpt lat="41.58379" lon="2.37511">
        <ele>242.2</ele>
        <time>2021-11-13 10:12:58</time>
      </trkpt>
      <trkpt lat="41.58378" lon="2.37505">
        <ele>242.4</ele>
        <time>2021-11-13 10:12:59</time>
      </trkpt>
      <trkpt lat="41.58377" lon="2.375">
        <ele>242.8</ele>
        <time>2021-11-13 10:13:00</time>
      </trkpt>
      <trkpt lat="41.58376" lon="2.37495">
        <ele>243</ele>
        <time>2021-11-13 10:13:01</time>
      </trkpt>
      <trkpt lat="41.58375" lon="2.37489">
        <ele>243.2</ele>
        <time>2021-11-13 10:13:02</time>
      </trkpt>
      <trkpt lat="41.58374" lon="2.37484">
        <ele>243.4</ele>
        <time>2021-11-13 10:13:03</time>
      </trkpt>
      <trkpt lat="41.58373" lon="2.37479">
        <ele>243.6</ele>
        <time>2021-11-13 10:13:04</time>
      </trkpt>
      <trkpt lat="41.58372" lon="2.37474">
        <ele>243.8</ele>
        <time>2021-11-13 10:13:05</time>
      </trkpt>
      <trkpt lat="41.58371" lon="2.37468">
        <ele>244</ele>
        <time>2021-11-13 10:13:06</time>
      </trkpt>
      <trkpt lat="41.5837" lon="2.37463">
        <ele>244.2</ele>
        <time>2021-11-13 10:13:07</time>
      </trkpt>
      <trkpt lat="41.5837" lon="2.37458">
        <ele>244.2</ele>
        <time>2021-11-13 10:13:08</time>
      </trkpt>
      <trkpt lat="41.5837" lon="2.37452">
        <ele>244.4</ele>
        <time>2021-11-13 10:13:09</time>
      </trkpt>
      <trkpt lat="41.58371" lon="2.37447">
        <ele>244.6</ele>
        <time>2021-11-13 10:13:10</time>
      </trkpt>
      <trkpt lat="41.58373" lon="2.37442">
        <ele>244.8</ele>
        <time>2021-11-13 10:13:11</time>
      </trkpt>
      <trkpt lat="41.58376" lon="2.37438">
        <ele>245</ele>
        <time>2021-11-13 10:13:12</time>
      </trkpt>
      <trkpt lat="41.58379" lon="2.37434">
        <ele>245.2</ele>
        <time>2021-11-13 10:13:13</time>
      </trkpt>
      <trkpt lat="41.58383" lon="2.37431">
        <ele>245.4</ele>
        <time>2021-11-13 10:13:14</time>
      </trkpt>
      <trkpt lat="41.58387" lon="2.3743">
        <ele>245.4</ele>
        <time>2021-11-13 10:13:15</time>
      </trkpt>
      <trkpt lat="41.58391" lon="2.37429">
        <ele>245.6</ele>
        <time>2021-11-13 10:13:16</time>
      </trkpt>
      <trkpt lat="41.58395" lon="2.37429">
        <ele>245.8</ele>
        <time>2021-11-13 10:13:17</time>
      </trkpt>
      <trkpt lat="41.584" lon="2.37429">
        <ele>246</ele>
        <time>2021-11-13 10:13:18</time>
      </trkpt>
      <trkpt lat="41.58404" lon="2.37429">
        <ele>246.4</ele>
        <time>2021-11-13 10:13:19</time>
      </trkpt>
      <trkpt lat="41.58408" lon="2.37429">
        <ele>246.4</ele>
        <time>2021-11-13 10:13:20</time>
      </trkpt>
      <trkpt lat="41.58412" lon="2.37428">
        <ele>246.8</ele>
        <time>2021-11-13 10:13:21</time>
      </trkpt>
      <trkpt lat="41.58416" lon="2.37426">
        <ele>247</ele>
        <time>2021-11-13 10:13:22</time>
      </trkpt>
      <trkpt lat="41.5842" lon="2.37424">
        <ele>247.4</ele>
        <time>2021-11-13 10:13:23</time>
      </trkpt>
      <trkpt lat="41.58423" lon="2.3742">
        <ele>247.6</ele>
        <time>2021-11-13 10:13:24</time>
      </trkpt>
      <trkpt lat="41.58426" lon="2.37417">
        <ele>248</ele>
        <time>2021-11-13 10:13:25</time>
      </trkpt>
      <trkpt lat="41.58428" lon="2.37412">
        <ele>248.2</ele>
        <time>2021-11-13 10:13:26</time>
      </trkpt>
      <trkpt lat="41.5843" lon="2.37409">
        <ele>248.6</ele>
        <time>2021-11-13 10:13:27</time>
      </trkpt>
      <trkpt lat="41.58432" lon="2.37402">
        <ele>248.8</ele>
        <time>2021-11-13 10:13:28</time>
      </trkpt>
      <trkpt lat="41.58433" lon="2.37397">
        <ele>249</ele>
        <time>2021-11-13 10:13:29</time>
      </trkpt>
      <trkpt lat="41.58433" lon="2.37392">
        <ele>249.6</ele>
        <time>2021-11-13 10:13:30</time>
      </trkpt>
      <trkpt lat="41.58433" lon="2.37386">
        <ele>249.6</ele>
        <time>2021-11-13 10:13:31</time>
      </trkpt>
      <trkpt lat="41.58433" lon="2.37381">
        <ele>250</ele>
        <time>2021-11-13 10:13:32</time>
      </trkpt>
      <trkpt lat="41.58433" lon="2.37376">
        <ele>250.2</ele>
        <time>2021-11-13 10:13:33</time>
      </trkpt>
      <trkpt lat="41.58432" lon="2.37371">
        <ele>250.8</ele>
        <time>2021-11-13 10:13:34</time>
      </trkpt>
      <trkpt lat="41.58432" lon="2.37366">
        <ele>251</ele>
        <time>2021-11-13 10:13:35</time>
      </trkpt>
      <trkpt lat="41.58431" lon="2.3736">
        <ele>251.4</ele>
        <time>2021-11-13 10:13:36</time>
      </trkpt>
      <trkpt lat="41.58432" lon="2.37354">
        <ele>251.6</ele>
        <time>2021-11-13 10:13:37</time>
      </trkpt>
      <trkpt lat="41.58432" lon="2.37349">
        <ele>251.8</ele>
        <time>2021-11-13 10:13:38</time>
      </trkpt>
      <trkpt lat="41.58433" lon="2.37343">
        <ele>252</ele>
        <time>2021-11-13 10:13:39</time>
      </trkpt>
      <trkpt lat="41.58434" lon="2.37338">
        <ele>252.2</ele>
        <time>2021-11-13 10:13:40</time>
      </trkpt>
      <trkpt lat="41.58436" lon="2.37332">
        <ele>252.4</ele>
        <time>2021-11-13 10:13:41</time>
      </trkpt>
      <trkpt lat="41.58438" lon="2.37327">
        <ele>252.6</ele>
        <time>2021-11-13 10:13:42</time>
      </trkpt>
      <trkpt lat="41.5844" lon="2.37323">
        <ele>253</ele>
        <time>2021-11-13 10:13:43</time>
      </trkpt>
      <trkpt lat="41.58442" lon="2.37318">
        <ele>253.2</ele>
        <time>2021-11-13 10:13:44</time>
      </trkpt>
      <trkpt lat="41.58445" lon="2.37313">
        <ele>253.6</ele>
        <time>2021-11-13 10:13:45</time>
      </trkpt>
      <trkpt lat="41.58447" lon="2.37309">
        <ele>254</ele>
        <time>2021-11-13 10:13:46</time>
      </trkpt>
      <trkpt lat="41.58449" lon="2.37304">
        <ele>254.2</ele>
        <time>2021-11-13 10:13:47</time>
      </trkpt>
      <trkpt lat="41.58452" lon="2.37299">
        <ele>254.6</ele>
        <time>2021-11-13 10:13:48</time>
      </trkpt>
      <trkpt lat="41.58453" lon="2.37293">
        <ele>254.6</ele>
        <time>2021-11-13 10:13:49</time>
      </trkpt>
      <trkpt lat="41.58455" lon="2.37287">
        <ele>254.8</ele>
        <time>2021-11-13 10:13:50</time>
      </trkpt>
      <trkpt lat="41.58455" lon="2.37281">
        <ele>255</ele>
        <time>2021-11-13 10:13:51</time>
      </trkpt>
      <trkpt lat="41.58454" lon="2.37275">
        <ele>255.2</ele>
        <time>2021-11-13 10:13:52</time>
      </trkpt>
      <trkpt lat="41.58454" lon="2.3727">
        <ele>255.6</ele>
        <time>2021-11-13 10:13:53</time>
      </trkpt>
      <trkpt lat="41.58452" lon="2.37264">
        <ele>255.8</ele>
        <time>2021-11-13 10:13:54</time>
      </trkpt>
      <trkpt lat="41.5845" lon="2.37259">
        <ele>256</ele>
        <time>2021-11-13 10:13:55</time>
      </trkpt>
      <trkpt lat="41.58449" lon="2.37254">
        <ele>256.2</ele>
        <time>2021-11-13 10:13:56</time>
      </trkpt>
      <trkpt lat="41.58447" lon="2.37249">
        <ele>256.4</ele>
        <time>2021-11-13 10:13:57</time>
      </trkpt>
      <trkpt lat="41.58445" lon="2.37243">
        <ele>256.6</ele>
        <time>2021-11-13 10:13:58</time>
      </trkpt>
      <trkpt lat="41.58443" lon="2.37237">
        <ele>256.8</ele>
        <time>2021-11-13 10:13:59</time>
      </trkpt>
      <trkpt lat="41.5844" lon="2.37233">
        <ele>256.8</ele>
        <time>2021-11-13 10:14:00</time>
      </trkpt>
      <trkpt lat="41.58437" lon="2.37228">
        <ele>257</ele>
        <time>2021-11-13 10:14:01</time>
      </trkpt>
      <trkpt lat="41.58433" lon="2.37224">
        <ele>257.2</ele>
        <time>2021-11-13 10:14:02</time>
      </trkpt>
      <trkpt lat="41.58429" lon="2.37221">
        <ele>257.4</ele>
        <time>2021-11-13 10:14:03</time>
      </trkpt>
      <trkpt lat="41.58425" lon="2.37219">
        <ele>257.4</ele>
        <time>2021-11-13 10:14:04</time>
      </trkpt>
      <trkpt lat="41.58421" lon="2.37218">
        <ele>257.6</ele>
        <time>2021-11-13 10:14:05</time>
      </trkpt>
      <trkpt lat="41.58416" lon="2.37218">
        <ele>257.8</ele>
        <time>2021-11-13 10:14:06</time>
      </trkpt>
      <trkpt lat="41.58412" lon="2.37219">
        <ele>258</ele>
        <time>2021-11-13 10:14:07</time>
      </trkpt>
      <trkpt lat="41.58408" lon="2.37219">
        <ele>258.2</ele>
        <time>2021-11-13 10:14:08</time>
      </trkpt>
      <trkpt lat="41.58404" lon="2.3722">
        <ele>258.4</ele>
        <time>2021-11-13 10:14:09</time>
      </trkpt>
      <trkpt lat="41.58399" lon="2.37221">
        <ele>258.4</ele>
        <time>2021-11-13 10:14:10</time>
      </trkpt>
      <trkpt lat="41.58395" lon="2.37221">
        <ele>258.8</ele>
        <time>2021-11-13 10:14:11</time>
      </trkpt>
      <trkpt lat="41.58391" lon="2.37222">
        <ele>258.8</ele>
        <time>2021-11-13 10:14:12</time>
      </trkpt>
      <trkpt lat="41.58386" lon="2.37223">
        <ele>259.2</ele>
        <time>2021-11-13 10:14:13</time>
      </trkpt>
      <trkpt lat="41.58382" lon="2.37223">
        <ele>259.2</ele>
        <time>2021-11-13 10:14:14</time>
      </trkpt>
      <trkpt lat="41.58377" lon="2.37224">
        <ele>259.4</ele>
        <time>2021-11-13 10:14:15</time>
      </trkpt>
      <trkpt lat="41.58373" lon="2.37225">
        <ele>259.6</ele>
        <time>2021-11-13 10:14:16</time>
      </trkpt>
      <trkpt lat="41.58368" lon="2.37225">
        <ele>260</ele>
        <time>2021-11-13 10:14:17</time>
      </trkpt>
      <trkpt lat="41.58364" lon="2.37225">
        <ele>260</ele>
        <time>2021-11-13 10:14:18</time>
      </trkpt>
      <trkpt lat="41.58359" lon="2.37225">
        <ele>260.2</ele>
        <time>2021-11-13 10:14:19</time>
      </trkpt>
      <trkpt lat="41.58355" lon="2.37225">
        <ele>260.4</ele>
        <time>2021-11-13 10:14:20</time>
      </trkpt>
      <trkpt lat="41.5835" lon="2.37225">
        <ele>260.4</ele>
        <time>2021-11-13 10:14:21</time>
      </trkpt>
      <trkpt lat="41.58346" lon="2.37225">
        <ele>260.8</ele>
        <time>2021-11-13 10:14:22</time>
      </trkpt>
      <trkpt lat="41.58342" lon="2.37224">
        <ele>260.8</ele>
        <time>2021-11-13 10:14:23</time>
      </trkpt>
      <trkpt lat="41.58338" lon="2.37224">
        <ele>261.2</ele>
        <time>2021-11-13 10:14:24</time>
      </trkpt>
      <trkpt lat="41.58334" lon="2.37223">
        <ele>261.2</ele>
        <time>2021-11-13 10:14:25</time>
      </trkpt>
      <trkpt lat="41.5833" lon="2.37223">
        <ele>261.8</ele>
        <time>2021-11-13 10:14:26</time>
      </trkpt>
      <trkpt lat="41.58325" lon="2.37223">
        <ele>262.4</ele>
        <time>2021-11-13 10:14:27</time>
      </trkpt>
      <trkpt lat="41.58321" lon="2.37223">
        <ele>262.4</ele>
        <time>2021-11-13 10:14:28</time>
      </trkpt>
      <trkpt lat="41.58316" lon="2.37223">
        <ele>262.8</ele>
        <time>2021-11-13 10:14:29</time>
      </trkpt>
      <trkpt lat="41.58312" lon="2.37223">
        <ele>262.8</ele>
        <time>2021-11-13 10:14:30</time>
      </trkpt>
      <trkpt lat="41.58308" lon="2.37223">
        <ele>263</ele>
        <time>2021-11-13 10:14:31</time>
      </trkpt>
      <trkpt lat="41.58304" lon="2.37223">
        <ele>263</ele>
        <time>2021-11-13 10:14:32</time>
      </trkpt>
      <trkpt lat="41.583" lon="2.37224">
        <ele>263.4</ele>
        <time>2021-11-13 10:14:33</time>
      </trkpt>
      <trkpt lat="41.58295" lon="2.37224">
        <ele>263.4</ele>
        <time>2021-11-13 10:14:34</time>
      </trkpt>
      <trkpt lat="41.58292" lon="2.37225">
        <ele>263.4</ele>
        <time>2021-11-13 10:14:35</time>
      </trkpt>
      <trkpt lat="41.58287" lon="2.37227">
        <ele>263.6</ele>
        <time>2021-11-13 10:14:36</time>
      </trkpt>
      <trkpt lat="41.58284" lon="2.37227">
        <ele>263.8</ele>
        <time>2021-11-13 10:14:37</time>
      </trkpt>
      <trkpt lat="41.58278" lon="2.37229">
        <ele>264.2</ele>
        <time>2021-11-13 10:14:38</time>
      </trkpt>
      <trkpt lat="41.58274" lon="2.37231">
        <ele>264.2</ele>
        <time>2021-11-13 10:14:39</time>
      </trkpt>
      <trkpt lat="41.5827" lon="2.37233">
        <ele>264.4</ele>
        <time>2021-11-13 10:14:40</time>
      </trkpt>
      <trkpt lat="41.58266" lon="2.37235">
        <ele>264.6</ele>
        <time>2021-11-13 10:14:41</time>
      </trkpt>
      <trkpt lat="41.58259" lon="2.37237">
        <ele>264.8</ele>
        <time>2021-11-13 10:14:42</time>
      </trkpt>
      <trkpt lat="41.58254" lon="2.37238">
        <ele>265</ele>
        <time>2021-11-13 10:14:43</time>
      </trkpt>
      <trkpt lat="41.58249" lon="2.37238">
        <ele>265</ele>
        <time>2021-11-13 10:14:44</time>
      </trkpt>
      <trkpt lat="41.58245" lon="2.37237">
        <ele>265.2</ele>
        <time>2021-11-13 10:14:45</time>
      </trkpt>
      <trkpt lat="41.5824" lon="2.37236">
        <ele>265.4</ele>
        <time>2021-11-13 10:14:46</time>
      </trkpt>
      <trkpt lat="41.58236" lon="2.37234">
        <ele>265.6</ele>
        <time>2021-11-13 10:14:47</time>
      </trkpt>
      <trkpt lat="41.58232" lon="2.37232">
        <ele>265.8</ele>
        <time>2021-11-13 10:14:48</time>
      </trkpt>
      <trkpt lat="41.58227" lon="2.3723">
        <ele>266</ele>
        <time>2021-11-13 10:14:49</time>
      </trkpt>
      <trkpt lat="41.58223" lon="2.37228">
        <ele>266</ele>
        <time>2021-11-13 10:14:50</time>
      </trkpt>
      <trkpt lat="41.58218" lon="2.37225">
        <ele>266.4</ele>
        <time>2021-11-13 10:14:51</time>
      </trkpt>
      <trkpt lat="41.58214" lon="2.37222">
        <ele>266.8</ele>
        <time>2021-11-13 10:14:52</time>
      </trkpt>
      <trkpt lat="41.5821" lon="2.37219">
        <ele>267.2</ele>
        <time>2021-11-13 10:14:53</time>
      </trkpt>
      <trkpt lat="41.58206" lon="2.37216">
        <ele>267.4</ele>
        <time>2021-11-13 10:14:54</time>
      </trkpt>
      <trkpt lat="41.58203" lon="2.37212">
        <ele>267.6</ele>
        <time>2021-11-13 10:14:55</time>
      </trkpt>
      <trkpt lat="41.582" lon="2.37207">
        <ele>267.8</ele>
        <time>2021-11-13 10:14:56</time>
      </trkpt>
      <trkpt lat="41.58197" lon="2.37202">
        <ele>268</ele>
        <time>2021-11-13 10:14:57</time>
      </trkpt>
      <trkpt lat="41.58194" lon="2.37197">
        <ele>268.4</ele>
        <time>2021-11-13 10:14:58</time>
      </trkpt>
      <trkpt lat="41.58193" lon="2.37191">
        <ele>268.6</ele>
        <time>2021-11-13 10:14:59</time>
      </trkpt>
      <trkpt lat="41.58191" lon="2.37186">
        <ele>269.2</ele>
        <time>2021-11-13 10:15:00</time>
      </trkpt>
      <trkpt lat="41.5819" lon="2.3718">
        <ele>269.6</ele>
        <time>2021-11-13 10:15:01</time>
      </trkpt>
      <trkpt lat="41.58189" lon="2.37174">
        <ele>269.8</ele>
        <time>2021-11-13 10:15:02</time>
      </trkpt>
      <trkpt lat="41.58189" lon="2.37168">
        <ele>270.2</ele>
        <time>2021-11-13 10:15:03</time>
      </trkpt>
      <trkpt lat="41.58189" lon="2.37162">
        <ele>270.2</ele>
        <time>2021-11-13 10:15:04</time>
      </trkpt>
      <trkpt lat="41.5819" lon="2.37156">
        <ele>270.4</ele>
        <time>2021-11-13 10:15:05</time>
      </trkpt>
      <trkpt lat="41.58193" lon="2.37151">
        <ele>270.6</ele>
        <time>2021-11-13 10:15:06</time>
      </trkpt>
      <trkpt lat="41.58195" lon="2.37146">
        <ele>271</ele>
        <time>2021-11-13 10:15:07</time>
      </trkpt>
      <trkpt lat="41.58198" lon="2.37141">
        <ele>271.2</ele>
        <time>2021-11-13 10:15:08</time>
      </trkpt>
      <trkpt lat="41.58202" lon="2.37137">
        <ele>271.4</ele>
        <time>2021-11-13 10:15:09</time>
      </trkpt>
      <trkpt lat="41.58205" lon="2.37133">
        <ele>271.6</ele>
        <time>2021-11-13 10:15:10</time>
      </trkpt>
      <trkpt lat="41.58209" lon="2.3713">
        <ele>272</ele>
        <time>2021-11-13 10:15:11</time>
      </trkpt>
      <trkpt lat="41.58213" lon="2.37127">
        <ele>272.4</ele>
        <time>2021-11-13 10:15:12</time>
      </trkpt>
      <trkpt lat="41.58217" lon="2.37124">
        <ele>272.8</ele>
        <time>2021-11-13 10:15:13</time>
      </trkpt>
      <trkpt lat="41.58221" lon="2.37121">
        <ele>273.2</ele>
        <time>2021-11-13 10:15:14</time>
      </trkpt>
      <trkpt lat="41.58225" lon="2.37119">
        <ele>273.4</ele>
        <time>2021-11-13 10:15:15</time>
      </trkpt>
      <trkpt lat="41.58229" lon="2.37117">
        <ele>273.8</ele>
        <time>2021-11-13 10:15:16</time>
      </trkpt>
      <trkpt lat="41.58233" lon="2.37114">
        <ele>274.2</ele>
        <time>2021-11-13 10:15:17</time>
      </trkpt>
      <trkpt lat="41.58238" lon="2.37113">
        <ele>274.6</ele>
        <time>2021-11-13 10:15:18</time>
      </trkpt>
      <trkpt lat="41.58242" lon="2.37111">
        <ele>275.2</ele>
        <time>2021-11-13 10:15:19</time>
      </trkpt>
      <trkpt lat="41.58246" lon="2.37109">
        <ele>275.4</ele>
        <time>2021-11-13 10:15:20</time>
      </trkpt>
      <trkpt lat="41.5825" lon="2.37107">
        <ele>275.8</ele>
        <time>2021-11-13 10:15:21</time>
      </trkpt>
      <trkpt lat="41.58254" lon="2.37105">
        <ele>275.8</ele>
        <time>2021-11-13 10:15:22</time>
      </trkpt>
      <trkpt lat="41.58258" lon="2.37103">
        <ele>276.2</ele>
        <time>2021-11-13 10:15:23</time>
      </trkpt>
      <trkpt lat="41.58262" lon="2.371">
        <ele>276.4</ele>
        <time>2021-11-13 10:15:24</time>
      </trkpt>
      <trkpt lat="41.58266" lon="2.37097">
        <ele>276.8</ele>
        <time>2021-11-13 10:15:25</time>
      </trkpt>
      <trkpt lat="41.5827" lon="2.37095">
        <ele>277.2</ele>
        <time>2021-11-13 10:15:26</time>
      </trkpt>
      <trkpt lat="41.58274" lon="2.37092">
        <ele>277.4</ele>
        <time>2021-11-13 10:15:27</time>
      </trkpt>
      <trkpt lat="41.58278" lon="2.37088">
        <ele>277.8</ele>
        <time>2021-11-13 10:15:28</time>
      </trkpt>
      <trkpt lat="41.58281" lon="2.37085">
        <ele>278</ele>
        <time>2021-11-13 10:15:29</time>
      </trkpt>
      <trkpt lat="41.58284" lon="2.37081">
        <ele>278.2</ele>
        <time>2021-11-13 10:15:30</time>
      </trkpt>
      <trkpt lat="41.58287" lon="2.37078">
        <ele>278.4</ele>
        <time>2021-11-13 10:15:31</time>
      </trkpt>
      <trkpt lat="41.58291" lon="2.37074">
        <ele>278.8</ele>
        <time>2021-11-13 10:15:32</time>
      </trkpt>
      <trkpt lat="41.58294" lon="2.3707">
        <ele>279</ele>
        <time>2021-11-13 10:15:33</time>
      </trkpt>
      <trkpt lat="41.58297" lon="2.37066">
        <ele>279.4</ele>
        <time>2021-11-13 10:15:34</time>
      </trkpt>
      <trkpt lat="41.58299" lon="2.37062">
        <ele>279.8</ele>
        <time>2021-11-13 10:15:35</time>
      </trkpt>
      <trkpt lat="41.58302" lon="2.37057">
        <ele>280</ele>
        <time>2021-11-13 10:15:36</time>
      </trkpt>
      <trkpt lat="41.58305" lon="2.37053">
        <ele>280.4</ele>
        <time>2021-11-13 10:15:37</time>
      </trkpt>
      <trkpt lat="41.58308" lon="2.37047">
        <ele>280.4</ele>
        <time>2021-11-13 10:15:38</time>
      </trkpt>
      <trkpt lat="41.5831" lon="2.37043">
        <ele>280.8</ele>
        <time>2021-11-13 10:15:39</time>
      </trkpt>
      <trkpt lat="41.58312" lon="2.37038">
        <ele>281</ele>
        <time>2021-11-13 10:15:40</time>
      </trkpt>
      <trkpt lat="41.58315" lon="2.37033">
        <ele>281.2</ele>
        <time>2021-11-13 10:15:41</time>
      </trkpt>
      <trkpt lat="41.58317" lon="2.37027">
        <ele>281.4</ele>
        <time>2021-11-13 10:15:42</time>
      </trkpt>
      <trkpt lat="41.58318" lon="2.37021">
        <ele>281.8</ele>
        <time>2021-11-13 10:15:43</time>
      </trkpt>
      <trkpt lat="41.58319" lon="2.37016">
        <ele>282.2</ele>
        <time>2021-11-13 10:15:44</time>
      </trkpt>
      <trkpt lat="41.5832" lon="2.37011">
        <ele>282.2</ele>
        <time>2021-11-13 10:15:45</time>
      </trkpt>
      <trkpt lat="41.5832" lon="2.37005">
        <ele>282.6</ele>
        <time>2021-11-13 10:15:46</time>
      </trkpt>
      <trkpt lat="41.58321" lon="2.37">
        <ele>282.8</ele>
        <time>2021-11-13 10:15:47</time>
      </trkpt>
      <trkpt lat="41.58321" lon="2.36993">
        <ele>283</ele>
        <time>2021-11-13 10:15:48</time>
      </trkpt>
      <trkpt lat="41.58321" lon="2.36988">
        <ele>283.2</ele>
        <time>2021-11-13 10:15:49</time>
      </trkpt>
      <trkpt lat="41.5832" lon="2.36982">
        <ele>283.4</ele>
        <time>2021-11-13 10:15:50</time>
      </trkpt>
      <trkpt lat="41.58319" lon="2.36977">
        <ele>283.8</ele>
        <time>2021-11-13 10:15:51</time>
      </trkpt>
      <trkpt lat="41.58318" lon="2.36971">
        <ele>284</ele>
        <time>2021-11-13 10:15:52</time>
      </trkpt>
      <trkpt lat="41.58316" lon="2.36965">
        <ele>284.4</ele>
        <time>2021-11-13 10:15:53</time>
      </trkpt>
      <trkpt lat="41.58315" lon="2.3696">
        <ele>284.4</ele>
        <time>2021-11-13 10:15:54</time>
      </trkpt>
      <trkpt lat="41.58313" lon="2.36954">
        <ele>284.6</ele>
        <time>2021-11-13 10:15:55</time>
      </trkpt>
      <trkpt lat="41.58312" lon="2.36949">
        <ele>284.8</ele>
        <time>2021-11-13 10:15:56</time>
      </trkpt>
      <trkpt lat="41.58311" lon="2.36943">
        <ele>285</ele>
        <time>2021-11-13 10:15:57</time>
      </trkpt>
      <trkpt lat="41.5831" lon="2.36938">
        <ele>285.2</ele>
        <time>2021-11-13 10:15:58</time>
      </trkpt>
      <trkpt lat="41.58308" lon="2.36931">
        <ele>285.4</ele>
        <time>2021-11-13 10:15:59</time>
      </trkpt>
      <trkpt lat="41.58307" lon="2.36926">
        <ele>285.8</ele>
        <time>2021-11-13 10:16:00</time>
      </trkpt>
      <trkpt lat="41.58306" lon="2.36921">
        <ele>285.8</ele>
        <time>2021-11-13 10:16:01</time>
      </trkpt>
      <trkpt lat="41.58305" lon="2.36916">
        <ele>286.2</ele>
        <time>2021-11-13 10:16:02</time>
      </trkpt>
      <trkpt lat="41.58303" lon="2.36911">
        <ele>286.4</ele>
        <time>2021-11-13 10:16:03</time>
      </trkpt>
      <trkpt lat="41.58302" lon="2.36905">
        <ele>286.6</ele>
        <time>2021-11-13 10:16:04</time>
      </trkpt>
      <trkpt lat="41.58301" lon="2.369">
        <ele>286.8</ele>
        <time>2021-11-13 10:16:05</time>
      </trkpt>
      <trkpt lat="41.583" lon="2.36895">
        <ele>287</ele>
        <time>2021-11-13 10:16:06</time>
      </trkpt>
      <trkpt lat="41.58299" lon="2.3689">
        <ele>287.2</ele>
        <time>2021-11-13 10:16:07</time>
      </trkpt>
      <trkpt lat="41.58297" lon="2.36884">
        <ele>287.6</ele>
        <time>2021-11-13 10:16:08</time>
      </trkpt>
      <trkpt lat="41.58295" lon="2.36878">
        <ele>287.8</ele>
        <time>2021-11-13 10:16:09</time>
      </trkpt>
      <trkpt lat="41.58294" lon="2.36873">
        <ele>288.2</ele>
        <time>2021-11-13 10:16:10</time>
      </trkpt>
      <trkpt lat="41.58293" lon="2.36867">
        <ele>288.6</ele>
        <time>2021-11-13 10:16:11</time>
      </trkpt>
      <trkpt lat="41.58292" lon="2.36862">
        <ele>288.8</ele>
        <time>2021-11-13 10:16:12</time>
      </trkpt>
      <trkpt lat="41.5829" lon="2.36856">
        <ele>289</ele>
        <time>2021-11-13 10:16:13</time>
      </trkpt>
      <trkpt lat="41.58289" lon="2.36851">
        <ele>289</ele>
        <time>2021-11-13 10:16:14</time>
      </trkpt>
      <trkpt lat="41.58288" lon="2.36845">
        <ele>289.2</ele>
        <time>2021-11-13 10:16:15</time>
      </trkpt>
      <trkpt lat="41.58287" lon="2.3684">
        <ele>289.6</ele>
        <time>2021-11-13 10:16:16</time>
      </trkpt>
      <trkpt lat="41.58285" lon="2.36835">
        <ele>289.8</ele>
        <time>2021-11-13 10:16:17</time>
      </trkpt>
      <trkpt lat="41.58284" lon="2.3683">
        <ele>290.2</ele>
        <time>2021-11-13 10:16:18</time>
      </trkpt>
      <trkpt lat="41.58282" lon="2.36825">
        <ele>290.2</ele>
        <time>2021-11-13 10:16:19</time>
      </trkpt>
      <trkpt lat="41.58281" lon="2.36819">
        <ele>290.4</ele>
        <time>2021-11-13 10:16:20</time>
      </trkpt>
      <trkpt lat="41.58279" lon="2.36814">
        <ele>290.6</ele>
        <time>2021-11-13 10:16:21</time>
      </trkpt>
      <trkpt lat="41.58278" lon="2.36809">
        <ele>290.8</ele>
        <time>2021-11-13 10:16:22</time>
      </trkpt>
      <trkpt lat="41.58277" lon="2.36803">
        <ele>290.8</ele>
        <time>2021-11-13 10:16:23</time>
      </trkpt>
      <trkpt lat="41.58275" lon="2.36797">
        <ele>291.2</ele>
        <time>2021-11-13 10:16:24</time>
      </trkpt>
      <trkpt lat="41.58274" lon="2.36791">
        <ele>291.6</ele>
        <time>2021-11-13 10:16:25</time>
      </trkpt>
      <trkpt lat="41.58272" lon="2.36785">
        <ele>291.8</ele>
        <time>2021-11-13 10:16:26</time>
      </trkpt>
      <trkpt lat="41.58271" lon="2.36779">
        <ele>292</ele>
        <time>2021-11-13 10:16:27</time>
      </trkpt>
      <trkpt lat="41.5827" lon="2.36774">
        <ele>292.2</ele>
        <time>2021-11-13 10:16:28</time>
      </trkpt>
      <trkpt lat="41.58268" lon="2.36768">
        <ele>292.4</ele>
        <time>2021-11-13 10:16:29</time>
      </trkpt>
      <trkpt lat="41.58267" lon="2.36761">
        <ele>292.6</ele>
        <time>2021-11-13 10:16:30</time>
      </trkpt>
      <trkpt lat="41.58265" lon="2.36755">
        <ele>292.8</ele>
        <time>2021-11-13 10:16:31</time>
      </trkpt>
      <trkpt lat="41.58264" lon="2.36749">
        <ele>293</ele>
        <time>2021-11-13 10:16:32</time>
      </trkpt>
      <trkpt lat="41.58263" lon="2.36743">
        <ele>293.2</ele>
        <time>2021-11-13 10:16:33</time>
      </trkpt>
      <trkpt lat="41.58262" lon="2.36737">
        <ele>293.4</ele>
        <time>2021-11-13 10:16:34</time>
      </trkpt>
      <trkpt lat="41.58261" lon="2.3673">
        <ele>293.6</ele>
        <time>2021-11-13 10:16:35</time>
      </trkpt>
      <trkpt lat="41.5826" lon="2.36724">
        <ele>293.8</ele>
        <time>2021-11-13 10:16:36</time>
      </trkpt>
      <trkpt lat="41.58259" lon="2.36717">
        <ele>294</ele>
        <time>2021-11-13 10:16:37</time>
      </trkpt>
      <trkpt lat="41.58258" lon="2.36711">
        <ele>294.2</ele>
        <time>2021-11-13 10:16:38</time>
      </trkpt>
      <trkpt lat="41.58257" lon="2.36704">
        <ele>294.2</ele>
        <time>2021-11-13 10:16:39</time>
      </trkpt>
      <trkpt lat="41.58255" lon="2.36698">
        <ele>294.4</ele>
        <time>2021-11-13 10:16:40</time>
      </trkpt>
      <trkpt lat="41.58254" lon="2.36691">
        <ele>294.6</ele>
        <time>2021-11-13 10:16:41</time>
      </trkpt>
      <trkpt lat="41.58252" lon="2.36685">
        <ele>294.8</ele>
        <time>2021-11-13 10:16:42</time>
      </trkpt>
      <trkpt lat="41.58251" lon="2.36678">
        <ele>295.2</ele>
        <time>2021-11-13 10:16:43</time>
      </trkpt>
      <trkpt lat="41.58249" lon="2.36671">
        <ele>295.4</ele>
        <time>2021-11-13 10:16:44</time>
      </trkpt>
      <trkpt lat="41.58248" lon="2.36665">
        <ele>295.4</ele>
        <time>2021-11-13 10:16:45</time>
      </trkpt>
      <trkpt lat="41.58246" lon="2.36658">
        <ele>295.6</ele>
        <time>2021-11-13 10:16:46</time>
      </trkpt>
      <trkpt lat="41.58245" lon="2.36653">
        <ele>296</ele>
        <time>2021-11-13 10:16:47</time>
      </trkpt>
      <trkpt lat="41.58244" lon="2.36647">
        <ele>296</ele>
        <time>2021-11-13 10:16:48</time>
      </trkpt>
      <trkpt lat="41.58242" lon="2.36641">
        <ele>296.6</ele>
        <time>2021-11-13 10:16:49</time>
      </trkpt>
      <trkpt lat="41.5824" lon="2.36635">
        <ele>296.8</ele>
        <time>2021-11-13 10:16:50</time>
      </trkpt>
      <trkpt lat="41.58239" lon="2.36629">
        <ele>297</ele>
        <time>2021-11-13 10:16:51</time>
      </trkpt>
      <trkpt lat="41.58238" lon="2.36623">
        <ele>297.2</ele>
        <time>2021-11-13 10:16:52</time>
      </trkpt>
      <trkpt lat="41.58236" lon="2.36617">
        <ele>297.4</ele>
        <time>2021-11-13 10:16:53</time>
      </trkpt>
      <trkpt lat="41.58234" lon="2.36612">
        <ele>297.6</ele>
        <time>2021-11-13 10:16:54</time>
      </trkpt>
      <trkpt lat="41.58233" lon="2.36606">
        <ele>297.8</ele>
        <time>2021-11-13 10:16:55</time>
      </trkpt>
      <trkpt lat="41.58231" lon="2.366">
        <ele>298.2</ele>
        <time>2021-11-13 10:16:56</time>
      </trkpt>
      <trkpt lat="41.5823" lon="2.36594">
        <ele>298.4</ele>
        <time>2021-11-13 10:16:57</time>
      </trkpt>
      <trkpt lat="41.58228" lon="2.36589">
        <ele>298.6</ele>
        <time>2021-11-13 10:16:58</time>
      </trkpt>
      <trkpt lat="41.58227" lon="2.36583">
        <ele>299</ele>
        <time>2021-11-13 10:16:59</time>
      </trkpt>
      <trkpt lat="41.58225" lon="2.36577">
        <ele>299.2</ele>
        <time>2021-11-13 10:17:00</time>
      </trkpt>
      <trkpt lat="41.58224" lon="2.36572">
        <ele>299.6</ele>
        <time>2021-11-13 10:17:01</time>
      </trkpt>
      <trkpt lat="41.58222" lon="2.36566">
        <ele>299.8</ele>
        <time>2021-11-13 10:17:02</time>
      </trkpt>
      <trkpt lat="41.58221" lon="2.36561">
        <ele>300.2</ele>
        <time>2021-11-13 10:17:03</time>
      </trkpt>
      <trkpt lat="41.58219" lon="2.36555">
        <ele>300.4</ele>
        <time>2021-11-13 10:17:04</time>
      </trkpt>
      <trkpt lat="41.58218" lon="2.36549">
        <ele>300.6</ele>
        <time>2021-11-13 10:17:05</time>
      </trkpt>
      <trkpt lat="41.58217" lon="2.36543">
        <ele>300.6</ele>
        <time>2021-11-13 10:17:06</time>
      </trkpt>
      <trkpt lat="41.58217" lon="2.36537">
        <ele>301</ele>
        <time>2021-11-13 10:17:07</time>
      </trkpt>
      <trkpt lat="41.58216" lon="2.3653">
        <ele>301.2</ele>
        <time>2021-11-13 10:17:08</time>
      </trkpt>
      <trkpt lat="41.58216" lon="2.36523">
        <ele>301.6</ele>
        <time>2021-11-13 10:17:09</time>
      </trkpt>
      <trkpt lat="41.58215" lon="2.36516">
        <ele>301.8</ele>
        <time>2021-11-13 10:17:10</time>
      </trkpt>
      <trkpt lat="41.58215" lon="2.36509">
        <ele>302</ele>
        <time>2021-11-13 10:17:11</time>
      </trkpt>
      <trkpt lat="41.58214" lon="2.36502">
        <ele>302.2</ele>
        <time>2021-11-13 10:17:12</time>
      </trkpt>
      <trkpt lat="41.58214" lon="2.36494">
        <ele>302.6</ele>
        <time>2021-11-13 10:17:13</time>
      </trkpt>
      <trkpt lat="41.58213" lon="2.36487">
        <ele>302.8</ele>
        <time>2021-11-13 10:17:14</time>
      </trkpt>
      <trkpt lat="41.58211" lon="2.36479">
        <ele>303</ele>
        <time>2021-11-13 10:17:15</time>
      </trkpt>
      <trkpt lat="41.5821" lon="2.36472">
        <ele>303</ele>
        <time>2021-11-13 10:17:16</time>
      </trkpt>
      <trkpt lat="41.58209" lon="2.36465">
        <ele>303.2</ele>
        <time>2021-11-13 10:17:17</time>
      </trkpt>
      <trkpt lat="41.58208" lon="2.36458">
        <ele>303.4</ele>
        <time>2021-11-13 10:17:18</time>
      </trkpt>
      <trkpt lat="41.58207" lon="2.36451">
        <ele>303.4</ele>
        <time>2021-11-13 10:17:19</time>
      </trkpt>
      <trkpt lat="41.58207" lon="2.36442">
        <ele>303.6</ele>
        <time>2021-11-13 10:17:20</time>
      </trkpt>
      <trkpt lat="41.58206" lon="2.36434">
        <ele>303.8</ele>
        <time>2021-11-13 10:17:21</time>
      </trkpt>
      <trkpt lat="41.58205" lon="2.36426">
        <ele>303.8</ele>
        <time>2021-11-13 10:17:22</time>
      </trkpt>
      <trkpt lat="41.58204" lon="2.36418">
        <ele>303.8</ele>
        <time>2021-11-13 10:17:23</time>
      </trkpt>
      <trkpt lat="41.58204" lon="2.3641">
        <ele>303.8</ele>
        <time>2021-11-13 10:17:24</time>
      </trkpt>
      <trkpt lat="41.58203" lon="2.36402">
        <ele>303.8</ele>
        <time>2021-11-13 10:17:25</time>
      </trkpt>
      <trkpt lat="41.58202" lon="2.36394">
        <ele>303.8</ele>
        <time>2021-11-13 10:17:26</time>
      </trkpt>
      <trkpt lat="41.582" lon="2.36386">
        <ele>303.8</ele>
        <time>2021-11-13 10:17:27</time>
      </trkpt>
      <trkpt lat="41.58199" lon="2.36378">
        <ele>303.8</ele>
        <time>2021-11-13 10:17:28</time>
      </trkpt>
      <trkpt lat="41.58197" lon="2.3637">
        <ele>303.8</ele>
        <time>2021-11-13 10:17:29</time>
      </trkpt>
      <trkpt lat="41.58196" lon="2.36361">
        <ele>303.8</ele>
        <time>2021-11-13 10:17:30</time>
      </trkpt>
      <trkpt lat="41.58195" lon="2.36353">
        <ele>303.8</ele>
        <time>2021-11-13 10:17:31</time>
      </trkpt>
      <trkpt lat="41.58194" lon="2.36344">
        <ele>303.6</ele>
        <time>2021-11-13 10:17:32</time>
      </trkpt>
      <trkpt lat="41.58193" lon="2.36335">
        <ele>303.6</ele>
        <time>2021-11-13 10:17:33</time>
      </trkpt>
      <trkpt lat="41.58192" lon="2.36326">
        <ele>303.4</ele>
        <time>2021-11-13 10:17:34</time>
      </trkpt>
      <trkpt lat="41.58191" lon="2.36316">
        <ele>303.4</ele>
        <time>2021-11-13 10:17:35</time>
      </trkpt>
      <trkpt lat="41.58192" lon="2.36305">
        <ele>303.4</ele>
        <time>2021-11-13 10:17:36</time>
      </trkpt>
      <trkpt lat="41.58195" lon="2.36293">
        <ele>303</ele>
        <time>2021-11-13 10:17:37</time>
      </trkpt>
      <trkpt lat="41.58201" lon="2.36284">
        <ele>303</ele>
        <time>2021-11-13 10:17:38</time>
      </trkpt>
      <trkpt lat="41.58209" lon="2.36277">
        <ele>302.6</ele>
        <time>2021-11-13 10:17:39</time>
      </trkpt>
      <trkpt lat="41.58217" lon="2.36272">
        <ele>302.4</ele>
        <time>2021-11-13 10:17:40</time>
      </trkpt>
      <trkpt lat="41.58225" lon="2.36268">
        <ele>302.2</ele>
        <time>2021-11-13 10:17:41</time>
      </trkpt>
      <trkpt lat="41.58234" lon="2.36266">
        <ele>301.8</ele>
        <time>2021-11-13 10:17:42</time>
      </trkpt>
      <trkpt lat="41.58243" lon="2.36263">
        <ele>301.6</ele>
        <time>2021-11-13 10:17:43</time>
      </trkpt>
      <trkpt lat="41.58252" lon="2.36261">
        <ele>300.4</ele>
        <time>2021-11-13 10:17:44</time>
      </trkpt>
      <trkpt lat="41.58262" lon="2.36259">
        <ele>299.8</ele>
        <time>2021-11-13 10:17:45</time>
      </trkpt>
      <trkpt lat="41.58271" lon="2.36256">
        <ele>299.2</ele>
        <time>2021-11-13 10:17:46</time>
      </trkpt>
      <trkpt lat="41.5828" lon="2.36253">
        <ele>299</ele>
        <time>2021-11-13 10:17:47</time>
      </trkpt>
      <trkpt lat="41.58289" lon="2.36248">
        <ele>298.4</ele>
        <time>2021-11-13 10:17:48</time>
      </trkpt>
      <trkpt lat="41.58298" lon="2.36241">
        <ele>297.8</ele>
        <time>2021-11-13 10:17:49</time>
      </trkpt>
      <trkpt lat="41.58304" lon="2.36233">
        <ele>297.4</ele>
        <time>2021-11-13 10:17:50</time>
      </trkpt>
      <trkpt lat="41.58309" lon="2.36222">
        <ele>296.6</ele>
        <time>2021-11-13 10:17:51</time>
      </trkpt>
      <trkpt lat="41.58311" lon="2.3621">
        <ele>296.4</ele>
        <time>2021-11-13 10:17:52</time>
      </trkpt>
      <trkpt lat="41.58313" lon="2.36197">
        <ele>295.6</ele>
        <time>2021-11-13 10:17:53</time>
      </trkpt>
      <trkpt lat="41.58313" lon="2.36184">
        <ele>295.2</ele>
        <time>2021-11-13 10:17:54</time>
      </trkpt>
      <trkpt lat="41.58314" lon="2.36171">
        <ele>294.8</ele>
        <time>2021-11-13 10:17:55</time>
      </trkpt>
      <trkpt lat="41.58314" lon="2.36157">
        <ele>294.4</ele>
        <time>2021-11-13 10:17:56</time>
      </trkpt>
      <trkpt lat="41.58315" lon="2.36143">
        <ele>294</ele>
        <time>2021-11-13 10:17:57</time>
      </trkpt>
      <trkpt lat="41.58315" lon="2.36129">
        <ele>293.4</ele>
        <time>2021-11-13 10:17:58</time>
      </trkpt>
      <trkpt lat="41.58315" lon="2.36114">
        <ele>293</ele>
        <time>2021-11-13 10:17:59</time>
      </trkpt>
      <trkpt lat="41.58314" lon="2.361">
        <ele>292</ele>
        <time>2021-11-13 10:18:00</time>
      </trkpt>
      <trkpt lat="41.58314" lon="2.36084">
        <ele>291.6</ele>
        <time>2021-11-13 10:18:01</time>
      </trkpt>
      <trkpt lat="41.58314" lon="2.36069">
        <ele>291</ele>
        <time>2021-11-13 10:18:02</time>
      </trkpt>
      <trkpt lat="41.58313" lon="2.36053">
        <ele>290.6</ele>
        <time>2021-11-13 10:18:03</time>
      </trkpt>
      <trkpt lat="41.58313" lon="2.36038">
        <ele>290.4</ele>
        <time>2021-11-13 10:18:04</time>
      </trkpt>
      <trkpt lat="41.58311" lon="2.3602">
        <ele>290.2</ele>
        <time>2021-11-13 10:18:05</time>
      </trkpt>
      <trkpt lat="41.58308" lon="2.36004">
        <ele>289.6</ele>
        <time>2021-11-13 10:18:06</time>
      </trkpt>
      <trkpt lat="41.58303" lon="2.35989">
        <ele>289</ele>
        <time>2021-11-13 10:18:07</time>
      </trkpt>
      <trkpt lat="41.58296" lon="2.35974">
        <ele>288.6</ele>
        <time>2021-11-13 10:18:08</time>
      </trkpt>
      <trkpt lat="41.58288" lon="2.35961">
        <ele>288</ele>
        <time>2021-11-13 10:18:09</time>
      </trkpt>
      <trkpt lat="41.58279" lon="2.35948">
        <ele>287.6</ele>
        <time>2021-11-13 10:18:10</time>
      </trkpt>
      <trkpt lat="41.58271" lon="2.35936">
        <ele>287</ele>
        <time>2021-11-13 10:18:11</time>
      </trkpt>
      <trkpt lat="41.58262" lon="2.35924">
        <ele>286.6</ele>
        <time>2021-11-13 10:18:12</time>
      </trkpt>
      <trkpt lat="41.58254" lon="2.35912">
        <ele>286</ele>
        <time>2021-11-13 10:18:13</time>
      </trkpt>
      <trkpt lat="41.58245" lon="2.359">
        <ele>285.4</ele>
        <time>2021-11-13 10:18:14</time>
      </trkpt>
      <trkpt lat="41.58236" lon="2.35888">
        <ele>284.6</ele>
        <time>2021-11-13 10:18:15</time>
      </trkpt>
      <trkpt lat="41.58228" lon="2.35876">
        <ele>283.8</ele>
        <time>2021-11-13 10:18:16</time>
      </trkpt>
      <trkpt lat="41.58219" lon="2.35864">
        <ele>283.4</ele>
        <time>2021-11-13 10:18:17</time>
      </trkpt>
      <trkpt lat="41.5821" lon="2.35851">
        <ele>282.4</ele>
        <time>2021-11-13 10:18:18</time>
      </trkpt>
      <trkpt lat="41.58202" lon="2.35839">
        <ele>282.2</ele>
        <time>2021-11-13 10:18:19</time>
      </trkpt>
      <trkpt lat="41.58194" lon="2.35827">
        <ele>281.4</ele>
        <time>2021-11-13 10:18:20</time>
      </trkpt>
      <trkpt lat="41.58185" lon="2.35816">
        <ele>281</ele>
        <time>2021-11-13 10:18:21</time>
      </trkpt>
      <trkpt lat="41.58176" lon="2.35804">
        <ele>280.2</ele>
        <time>2021-11-13 10:18:22</time>
      </trkpt>
      <trkpt lat="41.58166" lon="2.35794">
        <ele>279.4</ele>
        <time>2021-11-13 10:18:23</time>
      </trkpt>
      <trkpt lat="41.58156" lon="2.35785">
        <ele>279</ele>
        <time>2021-11-13 10:18:24</time>
      </trkpt>
      <trkpt lat="41.58145" lon="2.35778">
        <ele>278</ele>
        <time>2021-11-13 10:18:25</time>
      </trkpt>
      <trkpt lat="41.58134" lon="2.35771">
        <ele>277.4</ele>
        <time>2021-11-13 10:18:26</time>
      </trkpt>
      <trkpt lat="41.58123" lon="2.35764">
        <ele>276.4</ele>
        <time>2021-11-13 10:18:27</time>
      </trkpt>
      <trkpt lat="41.58112" lon="2.35757">
        <ele>275.8</ele>
        <time>2021-11-13 10:18:28</time>
      </trkpt>
      <trkpt lat="41.581" lon="2.35751">
        <ele>275</ele>
        <time>2021-11-13 10:18:29</time>
      </trkpt>
      <trkpt lat="41.58089" lon="2.35746">
        <ele>274.4</ele>
        <time>2021-11-13 10:18:30</time>
      </trkpt>
      <trkpt lat="41.58077" lon="2.35744">
        <ele>273.8</ele>
        <time>2021-11-13 10:18:31</time>
      </trkpt>
      <trkpt lat="41.58066" lon="2.35745">
        <ele>272.8</ele>
        <time>2021-11-13 10:18:32</time>
      </trkpt>
      <trkpt lat="41.58054" lon="2.35748">
        <ele>272.6</ele>
        <time>2021-11-13 10:18:33</time>
      </trkpt>
      <trkpt lat="41.58043" lon="2.35751">
        <ele>271.8</ele>
        <time>2021-11-13 10:18:34</time>
      </trkpt>
      <trkpt lat="41.58032" lon="2.35755">
        <ele>271.4</ele>
        <time>2021-11-13 10:18:35</time>
      </trkpt>
      <trkpt lat="41.58021" lon="2.35758">
        <ele>270.8</ele>
        <time>2021-11-13 10:18:36</time>
      </trkpt>
      <trkpt lat="41.5801" lon="2.35761">
        <ele>270.2</ele>
        <time>2021-11-13 10:18:37</time>
      </trkpt>
      <trkpt lat="41.57999" lon="2.35765">
        <ele>269.6</ele>
        <time>2021-11-13 10:18:38</time>
      </trkpt>
      <trkpt lat="41.57988" lon="2.35769">
        <ele>269.2</ele>
        <time>2021-11-13 10:18:39</time>
      </trkpt>
      <trkpt lat="41.57977" lon="2.35773">
        <ele>268.2</ele>
        <time>2021-11-13 10:18:40</time>
      </trkpt>
      <trkpt lat="41.57966" lon="2.35778">
        <ele>267.6</ele>
        <time>2021-11-13 10:18:41</time>
      </trkpt>
      <trkpt lat="41.57955" lon="2.35782">
        <ele>266.8</ele>
        <time>2021-11-13 10:18:42</time>
      </trkpt>
      <trkpt lat="41.57944" lon="2.35786">
        <ele>265.8</ele>
        <time>2021-11-13 10:18:43</time>
      </trkpt>
      <trkpt lat="41.57933" lon="2.35788">
        <ele>265.6</ele>
        <time>2021-11-13 10:18:44</time>
      </trkpt>
      <trkpt lat="41.57921" lon="2.35789">
        <ele>264.6</ele>
        <time>2021-11-13 10:18:45</time>
      </trkpt>
      <trkpt lat="41.5791" lon="2.35787">
        <ele>264.2</ele>
        <time>2021-11-13 10:18:46</time>
      </trkpt>
      <trkpt lat="41.579" lon="2.35781">
        <ele>263.8</ele>
        <time>2021-11-13 10:18:47</time>
      </trkpt>
      <trkpt lat="41.57895" lon="2.35769">
        <ele>263.2</ele>
        <time>2021-11-13 10:18:48</time>
      </trkpt>
      <trkpt lat="41.5789" lon="2.35756">
        <ele>262.6</ele>
        <time>2021-11-13 10:18:49</time>
      </trkpt>
      <trkpt lat="41.57886" lon="2.35743">
        <ele>261.8</ele>
        <time>2021-11-13 10:18:50</time>
      </trkpt>
      <trkpt lat="41.57881" lon="2.35731">
        <ele>261.4</ele>
        <time>2021-11-13 10:18:51</time>
      </trkpt>
      <trkpt lat="41.57875" lon="2.35719">
        <ele>261</ele>
        <time>2021-11-13 10:18:52</time>
      </trkpt>
      <trkpt lat="41.57869" lon="2.35707">
        <ele>260.8</ele>
        <time>2021-11-13 10:18:53</time>
      </trkpt>
      <trkpt lat="41.57863" lon="2.35695">
        <ele>260.4</ele>
        <time>2021-11-13 10:18:54</time>
      </trkpt>
      <trkpt lat="41.57856" lon="2.35684">
        <ele>260.2</ele>
        <time>2021-11-13 10:18:55</time>
      </trkpt>
      <trkpt lat="41.57848" lon="2.35674">
        <ele>259.6</ele>
        <time>2021-11-13 10:18:56</time>
      </trkpt>
      <trkpt lat="41.57839" lon="2.35667">
        <ele>259.2</ele>
        <time>2021-11-13 10:18:57</time>
      </trkpt>
      <trkpt lat="41.57829" lon="2.3566">
        <ele>258.8</ele>
        <time>2021-11-13 10:18:58</time>
      </trkpt>
      <trkpt lat="41.5782" lon="2.35653">
        <ele>258.2</ele>
        <time>2021-11-13 10:18:59</time>
      </trkpt>
      <trkpt lat="41.5781" lon="2.35647">
        <ele>258</ele>
        <time>2021-11-13 10:19:00</time>
      </trkpt>
      <trkpt lat="41.57801" lon="2.3564">
        <ele>257.4</ele>
        <time>2021-11-13 10:19:01</time>
      </trkpt>
      <trkpt lat="41.57791" lon="2.35633">
        <ele>257.2</ele>
        <time>2021-11-13 10:19:02</time>
      </trkpt>
      <trkpt lat="41.57782" lon="2.35627">
        <ele>256.6</ele>
        <time>2021-11-13 10:19:03</time>
      </trkpt>
      <trkpt lat="41.57772" lon="2.3562">
        <ele>256.2</ele>
        <time>2021-11-13 10:19:04</time>
      </trkpt>
      <trkpt lat="41.57763" lon="2.35614">
        <ele>255.8</ele>
        <time>2021-11-13 10:19:05</time>
      </trkpt>
      <trkpt lat="41.57753" lon="2.35608">
        <ele>254.8</ele>
        <time>2021-11-13 10:19:06</time>
      </trkpt>
      <trkpt lat="41.57744" lon="2.35602">
        <ele>254.6</ele>
        <time>2021-11-13 10:19:07</time>
      </trkpt>
      <trkpt lat="41.57734" lon="2.35597">
        <ele>254</ele>
        <time>2021-11-13 10:19:08</time>
      </trkpt>
      <trkpt lat="41.57725" lon="2.35591">
        <ele>253.8</ele>
        <time>2021-11-13 10:19:09</time>
      </trkpt>
      <trkpt lat="41.57716" lon="2.35584">
        <ele>253.2</ele>
        <time>2021-11-13 10:19:10</time>
      </trkpt>
      <trkpt lat="41.57707" lon="2.35577">
        <ele>253</ele>
        <time>2021-11-13 10:19:11</time>
      </trkpt>
      <trkpt lat="41.57698" lon="2.35569">
        <ele>252.4</ele>
        <time>2021-11-13 10:19:12</time>
      </trkpt>
      <trkpt lat="41.57691" lon="2.35559">
        <ele>251.8</ele>
        <time>2021-11-13 10:19:13</time>
      </trkpt>
      <trkpt lat="41.57685" lon="2.35547">
        <ele>251.6</ele>
        <time>2021-11-13 10:19:14</time>
      </trkpt>
      <trkpt lat="41.57683" lon="2.35535">
        <ele>251</ele>
        <time>2021-11-13 10:19:15</time>
      </trkpt>
      <trkpt lat="41.57681" lon="2.35521">
        <ele>250.8</ele>
        <time>2021-11-13 10:19:16</time>
      </trkpt>
      <trkpt lat="41.57681" lon="2.35507">
        <ele>250.4</ele>
        <time>2021-11-13 10:19:17</time>
      </trkpt>
      <trkpt lat="41.57681" lon="2.35493">
        <ele>250.2</ele>
        <time>2021-11-13 10:19:18</time>
      </trkpt>
      <trkpt lat="41.57681" lon="2.3548">
        <ele>249.6</ele>
        <time>2021-11-13 10:19:19</time>
      </trkpt>
      <trkpt lat="41.57681" lon="2.35467">
        <ele>249.4</ele>
        <time>2021-11-13 10:19:20</time>
      </trkpt>
      <trkpt lat="41.57682" lon="2.35455">
        <ele>248.8</ele>
        <time>2021-11-13 10:19:21</time>
      </trkpt>
      <trkpt lat="41.57684" lon="2.35442">
        <ele>248.2</ele>
        <time>2021-11-13 10:19:22</time>
      </trkpt>
      <trkpt lat="41.57689" lon="2.35429">
        <ele>248</ele>
        <time>2021-11-13 10:19:23</time>
      </trkpt>
      <trkpt lat="41.57695" lon="2.35417">
        <ele>247.4</ele>
        <time>2021-11-13 10:19:24</time>
      </trkpt>
      <trkpt lat="41.57703" lon="2.35407">
        <ele>247.4</ele>
        <time>2021-11-13 10:19:25</time>
      </trkpt>
      <trkpt lat="41.57713" lon="2.35401">
        <ele>246.6</ele>
        <time>2021-11-13 10:19:26</time>
      </trkpt>
      <trkpt lat="41.57723" lon="2.35398">
        <ele>246.4</ele>
        <time>2021-11-13 10:19:27</time>
      </trkpt>
      <trkpt lat="41.57735" lon="2.354">
        <ele>246</ele>
        <time>2021-11-13 10:19:28</time>
      </trkpt>
      <trkpt lat="41.57744" lon="2.35405">
        <ele>245.8</ele>
        <time>2021-11-13 10:19:29</time>
      </trkpt>
      <trkpt lat="41.57753" lon="2.35416">
        <ele>245.2</ele>
        <time>2021-11-13 10:19:30</time>
      </trkpt>
      <trkpt lat="41.57761" lon="2.3543">
        <ele>244.8</ele>
        <time>2021-11-13 10:19:31</time>
      </trkpt>
      <trkpt lat="41.57766" lon="2.35443">
        <ele>244.6</ele>
        <time>2021-11-13 10:19:32</time>
      </trkpt>
      <trkpt lat="41.57773" lon="2.35455">
        <ele>244</ele>
        <time>2021-11-13 10:19:33</time>
      </trkpt>
      <trkpt lat="41.5778" lon="2.35464">
        <ele>243.6</ele>
        <time>2021-11-13 10:19:34</time>
      </trkpt>
      <trkpt lat="41.57788" lon="2.3547">
        <ele>243</ele>
        <time>2021-11-13 10:19:35</time>
      </trkpt>
      <trkpt lat="41.57796" lon="2.35473">
        <ele>242.8</ele>
        <time>2021-11-13 10:19:36</time>
      </trkpt>
      <trkpt lat="41.57805" lon="2.35473">
        <ele>242.6</ele>
        <time>2021-11-13 10:19:37</time>
      </trkpt>
      <trkpt lat="41.57813" lon="2.3547">
        <ele>242.2</ele>
        <time>2021-11-13 10:19:38</time>
      </trkpt>
      <trkpt lat="41.57822" lon="2.35464">
        <ele>241.8</ele>
        <time>2021-11-13 10:19:39</time>
      </trkpt>
      <trkpt lat="41.57828" lon="2.35456">
        <ele>241.4</ele>
        <time>2021-11-13 10:19:40</time>
      </trkpt>
      <trkpt lat="41.57835" lon="2.35446">
        <ele>240.8</ele>
        <time>2021-11-13 10:19:41</time>
      </trkpt>
      <trkpt lat="41.57843" lon="2.35436">
        <ele>240.2</ele>
        <time>2021-11-13 10:19:42</time>
      </trkpt>
      <trkpt lat="41.5785" lon="2.35425">
        <ele>239.8</ele>
        <time>2021-11-13 10:19:43</time>
      </trkpt>
      <trkpt lat="41.57857" lon="2.35415">
        <ele>239</ele>
        <time>2021-11-13 10:19:44</time>
      </trkpt>
      <trkpt lat="41.57865" lon="2.35406">
        <ele>238.6</ele>
        <time>2021-11-13 10:19:45</time>
      </trkpt>
      <trkpt lat="41.57873" lon="2.35396">
        <ele>237.6</ele>
        <time>2021-11-13 10:19:46</time>
      </trkpt>
      <trkpt lat="41.57879" lon="2.35388">
        <ele>236.8</ele>
        <time>2021-11-13 10:19:47</time>
      </trkpt>
      <trkpt lat="41.57889" lon="2.35377">
        <ele>236.6</ele>
        <time>2021-11-13 10:19:48</time>
      </trkpt>
      <trkpt lat="41.57895" lon="2.35369">
        <ele>236</ele>
        <time>2021-11-13 10:19:49</time>
      </trkpt>
      <trkpt lat="41.57906" lon="2.35358">
        <ele>235.8</ele>
        <time>2021-11-13 10:19:50</time>
      </trkpt>
      <trkpt lat="41.57915" lon="2.35349">
        <ele>235.4</ele>
        <time>2021-11-13 10:19:51</time>
      </trkpt>
      <trkpt lat="41.57921" lon="2.35342">
        <ele>234.8</ele>
        <time>2021-11-13 10:19:52</time>
      </trkpt>
      <trkpt lat="41.57932" lon="2.35332">
        <ele>234</ele>
        <time>2021-11-13 10:19:53</time>
      </trkpt>
      <trkpt lat="41.57939" lon="2.35325">
        <ele>233.8</ele>
        <time>2021-11-13 10:19:54</time>
      </trkpt>
      <trkpt lat="41.5795" lon="2.35315">
        <ele>232.8</ele>
        <time>2021-11-13 10:19:55</time>
      </trkpt>
      <trkpt lat="41.57959" lon="2.35307">
        <ele>231.8</ele>
        <time>2021-11-13 10:19:56</time>
      </trkpt>
      <trkpt lat="41.57968" lon="2.35299">
        <ele>231.6</ele>
        <time>2021-11-13 10:19:57</time>
      </trkpt>
      <trkpt lat="41.57978" lon="2.35291">
        <ele>230.6</ele>
        <time>2021-11-13 10:19:58</time>
      </trkpt>
      <trkpt lat="41.57988" lon="2.35282">
        <ele>230</ele>
        <time>2021-11-13 10:19:59</time>
      </trkpt>
      <trkpt lat="41.57997" lon="2.35274">
        <ele>229.4</ele>
        <time>2021-11-13 10:20:00</time>
      </trkpt>
      <trkpt lat="41.58007" lon="2.35266">
        <ele>229</ele>
        <time>2021-11-13 10:20:01</time>
      </trkpt>
      <trkpt lat="41.58018" lon="2.35257">
        <ele>228.2</ele>
        <time>2021-11-13 10:20:02</time>
      </trkpt>
      <trkpt lat="41.58029" lon="2.3525">
        <ele>228</ele>
        <time>2021-11-13 10:20:03</time>
      </trkpt>
      <trkpt lat="41.5804" lon="2.35245">
        <ele>227.2</ele>
        <time>2021-11-13 10:20:04</time>
      </trkpt>
      <trkpt lat="41.58051" lon="2.35241">
        <ele>226.4</ele>
        <time>2021-11-13 10:20:05</time>
      </trkpt>
      <trkpt lat="41.58063" lon="2.3524">
        <ele>226</ele>
        <time>2021-11-13 10:20:06</time>
      </trkpt>
      <trkpt lat="41.58075" lon="2.35239">
        <ele>225.6</ele>
        <time>2021-11-13 10:20:07</time>
      </trkpt>
      <trkpt lat="41.58086" lon="2.35237">
        <ele>225</ele>
        <time>2021-11-13 10:20:08</time>
      </trkpt>
      <trkpt lat="41.58096" lon="2.35231">
        <ele>223.8</ele>
        <time>2021-11-13 10:20:09</time>
      </trkpt>
      <trkpt lat="41.58106" lon="2.35222">
        <ele>223.4</ele>
        <time>2021-11-13 10:20:10</time>
      </trkpt>
      <trkpt lat="41.58113" lon="2.3521">
        <ele>222.6</ele>
        <time>2021-11-13 10:20:11</time>
      </trkpt>
      <trkpt lat="41.58118" lon="2.35196">
        <ele>221.8</ele>
        <time>2021-11-13 10:20:12</time>
      </trkpt>
      <trkpt lat="41.58122" lon="2.35182">
        <ele>221.4</ele>
        <time>2021-11-13 10:20:13</time>
      </trkpt>
      <trkpt lat="41.58125" lon="2.3517">
        <ele>220.8</ele>
        <time>2021-11-13 10:20:14</time>
      </trkpt>
      <trkpt lat="41.5813" lon="2.35153">
        <ele>220.4</ele>
        <time>2021-11-13 10:20:15</time>
      </trkpt>
      <trkpt lat="41.58136" lon="2.35139">
        <ele>219.6</ele>
        <time>2021-11-13 10:20:16</time>
      </trkpt>
      <trkpt lat="41.58144" lon="2.35126">
        <ele>219.4</ele>
        <time>2021-11-13 10:20:17</time>
      </trkpt>
      <trkpt lat="41.58152" lon="2.35115">
        <ele>218.6</ele>
        <time>2021-11-13 10:20:18</time>
      </trkpt>
      <trkpt lat="41.58161" lon="2.35105">
        <ele>218</ele>
        <time>2021-11-13 10:20:19</time>
      </trkpt>
      <trkpt lat="41.58171" lon="2.35096">
        <ele>217.4</ele>
        <time>2021-11-13 10:20:20</time>
      </trkpt>
      <trkpt lat="41.58181" lon="2.35088">
        <ele>216.2</ele>
        <time>2021-11-13 10:20:21</time>
      </trkpt>
      <trkpt lat="41.58192" lon="2.3508">
        <ele>215.6</ele>
        <time>2021-11-13 10:20:22</time>
      </trkpt>
      <trkpt lat="41.58202" lon="2.35072">
        <ele>214.6</ele>
        <time>2021-11-13 10:20:23</time>
      </trkpt>
      <trkpt lat="41.58213" lon="2.35065">
        <ele>214.2</ele>
        <time>2021-11-13 10:20:24</time>
      </trkpt>
      <trkpt lat="41.58224" lon="2.35057">
        <ele>213.2</ele>
        <time>2021-11-13 10:20:25</time>
      </trkpt>
      <trkpt lat="41.58235" lon="2.35049">
        <ele>212.6</ele>
        <time>2021-11-13 10:20:26</time>
      </trkpt>
      <trkpt lat="41.58245" lon="2.35041">
        <ele>211.2</ele>
        <time>2021-11-13 10:20:27</time>
      </trkpt>
      <trkpt lat="41.58256" lon="2.35034">
        <ele>210.4</ele>
        <time>2021-11-13 10:20:28</time>
      </trkpt>
      <trkpt lat="41.58267" lon="2.35026">
        <ele>209.4</ele>
        <time>2021-11-13 10:20:29</time>
      </trkpt>
      <trkpt lat="41.58277" lon="2.35018">
        <ele>208.4</ele>
        <time>2021-11-13 10:20:30</time>
      </trkpt>
      <trkpt lat="41.58288" lon="2.35011">
        <ele>208</ele>
        <time>2021-11-13 10:20:31</time>
      </trkpt>
      <trkpt lat="41.58299" lon="2.35003">
        <ele>206.8</ele>
        <time>2021-11-13 10:20:32</time>
      </trkpt>
      <trkpt lat="41.5831" lon="2.34995">
        <ele>206.2</ele>
        <time>2021-11-13 10:20:33</time>
      </trkpt>
      <trkpt lat="41.5832" lon="2.34987">
        <ele>205.2</ele>
        <time>2021-11-13 10:20:34</time>
      </trkpt>
      <trkpt lat="41.5833" lon="2.34979">
        <ele>204.8</ele>
        <time>2021-11-13 10:20:35</time>
      </trkpt>
      <trkpt lat="41.58339" lon="2.3497">
        <ele>203.6</ele>
        <time>2021-11-13 10:20:36</time>
      </trkpt>
      <trkpt lat="41.58347" lon="2.3496">
        <ele>202.8</ele>
        <time>2021-11-13 10:20:37</time>
      </trkpt>
      <trkpt lat="41.58354" lon="2.34947">
        <ele>202.2</ele>
        <time>2021-11-13 10:20:38</time>
      </trkpt>
      <trkpt lat="41.58361" lon="2.34934">
        <ele>201.2</ele>
        <time>2021-11-13 10:20:39</time>
      </trkpt>
      <trkpt lat="41.58366" lon="2.34919">
        <ele>200.8</ele>
        <time>2021-11-13 10:20:40</time>
      </trkpt>
      <trkpt lat="41.58369" lon="2.34904">
        <ele>199.6</ele>
        <time>2021-11-13 10:20:41</time>
      </trkpt>
      <trkpt lat="41.58373" lon="2.34889">
        <ele>199.2</ele>
        <time>2021-11-13 10:20:42</time>
      </trkpt>
      <trkpt lat="41.58377" lon="2.34875">
        <ele>198.4</ele>
        <time>2021-11-13 10:20:43</time>
      </trkpt>
      <trkpt lat="41.58383" lon="2.34863">
        <ele>197.6</ele>
        <time>2021-11-13 10:20:44</time>
      </trkpt>
      <trkpt lat="41.58391" lon="2.34853">
        <ele>197</ele>
        <time>2021-11-13 10:20:45</time>
      </trkpt>
      <trkpt lat="41.58401" lon="2.34845">
        <ele>196.4</ele>
        <time>2021-11-13 10:20:46</time>
      </trkpt>
      <trkpt lat="41.58411" lon="2.3484">
        <ele>196.2</ele>
        <time>2021-11-13 10:20:47</time>
      </trkpt>
      <trkpt lat="41.58422" lon="2.34837">
        <ele>195.6</ele>
        <time>2021-11-13 10:20:48</time>
      </trkpt>
      <trkpt lat="41.58433" lon="2.34835">
        <ele>195.2</ele>
        <time>2021-11-13 10:20:49</time>
      </trkpt>
      <trkpt lat="41.58445" lon="2.34832">
        <ele>193.8</ele>
        <time>2021-11-13 10:20:50</time>
      </trkpt>
      <trkpt lat="41.58456" lon="2.3483">
        <ele>192.8</ele>
        <time>2021-11-13 10:20:51</time>
      </trkpt>
      <trkpt lat="41.58468" lon="2.34828">
        <ele>191.8</ele>
        <time>2021-11-13 10:20:52</time>
      </trkpt>
      <trkpt lat="41.5848" lon="2.34826">
        <ele>191.2</ele>
        <time>2021-11-13 10:20:53</time>
      </trkpt>
      <trkpt lat="41.58491" lon="2.34824">
        <ele>190.2</ele>
        <time>2021-11-13 10:20:54</time>
      </trkpt>
      <trkpt lat="41.58503" lon="2.34822">
        <ele>189.4</ele>
        <time>2021-11-13 10:20:55</time>
      </trkpt>
      <trkpt lat="41.58514" lon="2.34819">
        <ele>189</ele>
        <time>2021-11-13 10:20:56</time>
      </trkpt>
      <trkpt lat="41.58525" lon="2.34817">
        <ele>188</ele>
        <time>2021-11-13 10:20:57</time>
      </trkpt>
      <trkpt lat="41.58536" lon="2.34815">
        <ele>187.6</ele>
        <time>2021-11-13 10:20:58</time>
      </trkpt>
      <trkpt lat="41.58546" lon="2.34813">
        <ele>186.8</ele>
        <time>2021-11-13 10:20:59</time>
      </trkpt>
      <trkpt lat="41.58557" lon="2.34811">
        <ele>186.4</ele>
        <time>2021-11-13 10:21:00</time>
      </trkpt>
      <trkpt lat="41.58567" lon="2.34809">
        <ele>185.8</ele>
        <time>2021-11-13 10:21:01</time>
      </trkpt>
      <trkpt lat="41.58577" lon="2.34807">
        <ele>185.4</ele>
        <time>2021-11-13 10:21:02</time>
      </trkpt>
      <trkpt lat="41.58587" lon="2.34805">
        <ele>184.8</ele>
        <time>2021-11-13 10:21:03</time>
      </trkpt>
      <trkpt lat="41.58597" lon="2.34803">
        <ele>184.4</ele>
        <time>2021-11-13 10:21:04</time>
      </trkpt>
      <trkpt lat="41.58607" lon="2.34801">
        <ele>184.2</ele>
        <time>2021-11-13 10:21:05</time>
      </trkpt>
      <trkpt lat="41.58617" lon="2.34799">
        <ele>183.8</ele>
        <time>2021-11-13 10:21:06</time>
      </trkpt>
      <trkpt lat="41.58627" lon="2.34797">
        <ele>183.6</ele>
        <time>2021-11-13 10:21:07</time>
      </trkpt>
      <trkpt lat="41.58637" lon="2.34795">
        <ele>183.2</ele>
        <time>2021-11-13 10:21:08</time>
      </trkpt>
      <trkpt lat="41.58647" lon="2.34792">
        <ele>183</ele>
        <time>2021-11-13 10:21:09</time>
      </trkpt>
      <trkpt lat="41.58657" lon="2.3479">
        <ele>182.6</ele>
        <time>2021-11-13 10:21:10</time>
      </trkpt>
      <trkpt lat="41.58667" lon="2.34788">
        <ele>182.2</ele>
        <time>2021-11-13 10:21:11</time>
      </trkpt>
      <trkpt lat="41.58677" lon="2.34786">
        <ele>182.2</ele>
        <time>2021-11-13 10:21:12</time>
      </trkpt>
      <trkpt lat="41.58688" lon="2.34785">
        <ele>182</ele>
        <time>2021-11-13 10:21:13</time>
      </trkpt>
      <trkpt lat="41.58698" lon="2.34783">
        <ele>182</ele>
        <time>2021-11-13 10:21:14</time>
      </trkpt>
      <trkpt lat="41.58708" lon="2.34782">
        <ele>181.8</ele>
        <time>2021-11-13 10:21:15</time>
      </trkpt>
      <trkpt lat="41.58718" lon="2.34781">
        <ele>181.8</ele>
        <time>2021-11-13 10:21:16</time>
      </trkpt>
      <trkpt lat="41.58728" lon="2.3478">
        <ele>181.4</ele>
        <time>2021-11-13 10:21:17</time>
      </trkpt>
      <trkpt lat="41.58738" lon="2.34781">
        <ele>181.2</ele>
        <time>2021-11-13 10:21:18</time>
      </trkpt>
      <trkpt lat="41.58749" lon="2.34784">
        <ele>180.8</ele>
        <time>2021-11-13 10:21:19</time>
      </trkpt>
      <trkpt lat="41.58759" lon="2.34787">
        <ele>180.6</ele>
        <time>2021-11-13 10:21:20</time>
      </trkpt>
      <trkpt lat="41.58768" lon="2.34792">
        <ele>180.4</ele>
        <time>2021-11-13 10:21:21</time>
      </trkpt>
      <trkpt lat="41.58777" lon="2.34798">
        <ele>180.2</ele>
        <time>2021-11-13 10:21:22</time>
      </trkpt>
      <trkpt lat="41.58786" lon="2.34806">
        <ele>180.2</ele>
        <time>2021-11-13 10:21:23</time>
      </trkpt>
      <trkpt lat="41.58794" lon="2.34814">
        <ele>179.8</ele>
        <time>2021-11-13 10:21:24</time>
      </trkpt>
      <trkpt lat="41.58802" lon="2.34823">
        <ele>179.6</ele>
        <time>2021-11-13 10:21:25</time>
      </trkpt>
      <trkpt lat="41.58809" lon="2.34831">
        <ele>179.2</ele>
        <time>2021-11-13 10:21:26</time>
      </trkpt>
      <trkpt lat="41.58817" lon="2.3484">
        <ele>179</ele>
        <time>2021-11-13 10:21:27</time>
      </trkpt>
      <trkpt lat="41.58823" lon="2.34849">
        <ele>179</ele>
        <time>2021-11-13 10:21:28</time>
      </trkpt>
      <trkpt lat="41.5883" lon="2.34858">
        <ele>178.4</ele>
        <time>2021-11-13 10:21:29</time>
      </trkpt>
      <trkpt lat="41.58836" lon="2.34867">
        <ele>178.2</ele>
        <time>2021-11-13 10:21:30</time>
      </trkpt>
      <trkpt lat="41.58842" lon="2.34875">
        <ele>178</ele>
        <time>2021-11-13 10:21:31</time>
      </trkpt>
      <trkpt lat="41.58849" lon="2.34884">
        <ele>177.8</ele>
        <time>2021-11-13 10:21:32</time>
      </trkpt>
      <trkpt lat="41.58856" lon="2.34893">
        <ele>177.4</ele>
        <time>2021-11-13 10:21:33</time>
      </trkpt>
      <trkpt lat="41.58863" lon="2.34902">
        <ele>177.4</ele>
        <time>2021-11-13 10:21:34</time>
      </trkpt>
      <trkpt lat="41.5887" lon="2.34911">
        <ele>177.2</ele>
        <time>2021-11-13 10:21:35</time>
      </trkpt>
      <trkpt lat="41.58877" lon="2.3492">
        <ele>177</ele>
        <time>2021-11-13 10:21:36</time>
      </trkpt>
      <trkpt lat="41.58885" lon="2.34928">
        <ele>177</ele>
        <time>2021-11-13 10:21:37</time>
      </trkpt>
      <trkpt lat="41.58893" lon="2.34937">
        <ele>176.8</ele>
        <time>2021-11-13 10:21:38</time>
      </trkpt>
      <trkpt lat="41.58901" lon="2.34944">
        <ele>176.6</ele>
        <time>2021-11-13 10:21:39</time>
      </trkpt>
      <trkpt lat="41.58909" lon="2.34951">
        <ele>176.4</ele>
        <time>2021-11-13 10:21:40</time>
      </trkpt>
      <trkpt lat="41.58918" lon="2.34956">
        <ele>176.2</ele>
        <time>2021-11-13 10:21:41</time>
      </trkpt>
      <trkpt lat="41.58928" lon="2.34959">
        <ele>175.8</ele>
        <time>2021-11-13 10:21:42</time>
      </trkpt>
      <trkpt lat="41.58938" lon="2.34958">
        <ele>175.6</ele>
        <time>2021-11-13 10:21:43</time>
      </trkpt>
      <trkpt lat="41.58948" lon="2.34956">
        <ele>175</ele>
        <time>2021-11-13 10:21:44</time>
      </trkpt>
      <trkpt lat="41.58958" lon="2.34952">
        <ele>174.4</ele>
        <time>2021-11-13 10:21:45</time>
      </trkpt>
      <trkpt lat="41.58968" lon="2.34948">
        <ele>174</ele>
        <time>2021-11-13 10:21:46</time>
      </trkpt>
      <trkpt lat="41.58977" lon="2.34943">
        <ele>173.6</ele>
        <time>2021-11-13 10:21:47</time>
      </trkpt>
      <trkpt lat="41.58986" lon="2.34938">
        <ele>173.6</ele>
        <time>2021-11-13 10:21:48</time>
      </trkpt>
      <trkpt lat="41.58995" lon="2.34932">
        <ele>173</ele>
        <time>2021-11-13 10:21:49</time>
      </trkpt>
      <trkpt lat="41.59004" lon="2.34926">
        <ele>172.8</ele>
        <time>2021-11-13 10:21:50</time>
      </trkpt>
      <trkpt lat="41.59012" lon="2.34918">
        <ele>172.4</ele>
        <time>2021-11-13 10:21:51</time>
      </trkpt>
      <trkpt lat="41.5902" lon="2.3491">
        <ele>172</ele>
        <time>2021-11-13 10:21:52</time>
      </trkpt>
      <trkpt lat="41.59027" lon="2.34901">
        <ele>171.4</ele>
        <time>2021-11-13 10:21:53</time>
      </trkpt>
      <trkpt lat="41.59033" lon="2.3489">
        <ele>171</ele>
        <time>2021-11-13 10:21:54</time>
      </trkpt>
      <trkpt lat="41.59039" lon="2.34879">
        <ele>170.8</ele>
        <time>2021-11-13 10:21:55</time>
      </trkpt>
      <trkpt lat="41.59043" lon="2.34867">
        <ele>170.6</ele>
        <time>2021-11-13 10:21:56</time>
      </trkpt>
      <trkpt lat="41.59046" lon="2.34855">
        <ele>170.4</ele>
        <time>2021-11-13 10:21:57</time>
      </trkpt>
      <trkpt lat="41.59049" lon="2.34843">
        <ele>170</ele>
        <time>2021-11-13 10:21:58</time>
      </trkpt>
      <trkpt lat="41.59051" lon="2.34831">
        <ele>169.6</ele>
        <time>2021-11-13 10:21:59</time>
      </trkpt>
      <trkpt lat="41.59053" lon="2.34818">
        <ele>169.2</ele>
        <time>2021-11-13 10:22:00</time>
      </trkpt>
      <trkpt lat="41.59056" lon="2.34805">
        <ele>168.6</ele>
        <time>2021-11-13 10:22:01</time>
      </trkpt>
      <trkpt lat="41.59058" lon="2.34792">
        <ele>168.6</ele>
        <time>2021-11-13 10:22:02</time>
      </trkpt>
      <trkpt lat="41.5906" lon="2.34779">
        <ele>168.2</ele>
        <time>2021-11-13 10:22:03</time>
      </trkpt>
      <trkpt lat="41.59063" lon="2.34766">
        <ele>167.8</ele>
        <time>2021-11-13 10:22:04</time>
      </trkpt>
      <trkpt lat="41.59065" lon="2.34754">
        <ele>167.2</ele>
        <time>2021-11-13 10:22:05</time>
      </trkpt>
      <trkpt lat="41.59067" lon="2.34741">
        <ele>167</ele>
        <time>2021-11-13 10:22:06</time>
      </trkpt>
      <trkpt lat="41.59069" lon="2.34728">
        <ele>166.8</ele>
        <time>2021-11-13 10:22:07</time>
      </trkpt>
      <trkpt lat="41.59072" lon="2.34716">
        <ele>166.6</ele>
        <time>2021-11-13 10:22:08</time>
      </trkpt>
      <trkpt lat="41.59074" lon="2.34703">
        <ele>166.2</ele>
        <time>2021-11-13 10:22:09</time>
      </trkpt>
      <trkpt lat="41.59076" lon="2.34691">
        <ele>165.8</ele>
        <time>2021-11-13 10:22:10</time>
      </trkpt>
      <trkpt lat="41.59078" lon="2.34678">
        <ele>165.4</ele>
        <time>2021-11-13 10:22:11</time>
      </trkpt>
      <trkpt lat="41.5908" lon="2.34666">
        <ele>165</ele>
        <time>2021-11-13 10:22:12</time>
      </trkpt>
      <trkpt lat="41.59082" lon="2.34653">
        <ele>164.8</ele>
        <time>2021-11-13 10:22:13</time>
      </trkpt>
      <trkpt lat="41.59085" lon="2.34641">
        <ele>164.4</ele>
        <time>2021-11-13 10:22:14</time>
      </trkpt>
      <trkpt lat="41.59087" lon="2.34628">
        <ele>164.2</ele>
        <time>2021-11-13 10:22:15</time>
      </trkpt>
      <trkpt lat="41.59089" lon="2.34615">
        <ele>163.8</ele>
        <time>2021-11-13 10:22:16</time>
      </trkpt>
      <trkpt lat="41.59091" lon="2.34603">
        <ele>163.6</ele>
        <time>2021-11-13 10:22:17</time>
      </trkpt>
      <trkpt lat="41.59094" lon="2.34591">
        <ele>163.2</ele>
        <time>2021-11-13 10:22:18</time>
      </trkpt>
      <trkpt lat="41.59096" lon="2.34579">
        <ele>163</ele>
        <time>2021-11-13 10:22:19</time>
      </trkpt>
      <trkpt lat="41.59098" lon="2.34566">
        <ele>162.8</ele>
        <time>2021-11-13 10:22:20</time>
      </trkpt>
      <trkpt lat="41.59101" lon="2.34553">
        <ele>162.8</ele>
        <time>2021-11-13 10:22:21</time>
      </trkpt>
      <trkpt lat="41.59103" lon="2.34541">
        <ele>162.6</ele>
        <time>2021-11-13 10:22:22</time>
      </trkpt>
      <trkpt lat="41.59106" lon="2.34528">
        <ele>162.6</ele>
        <time>2021-11-13 10:22:23</time>
      </trkpt>
      <trkpt lat="41.59108" lon="2.34515">
        <ele>162.4</ele>
        <time>2021-11-13 10:22:24</time>
      </trkpt>
      <trkpt lat="41.5911" lon="2.34503">
        <ele>162.2</ele>
        <time>2021-11-13 10:22:25</time>
      </trkpt>
      <trkpt lat="41.59113" lon="2.34491">
        <ele>162.2</ele>
        <time>2021-11-13 10:22:26</time>
      </trkpt>
      <trkpt lat="41.59115" lon="2.34479">
        <ele>161.6</ele>
        <time>2021-11-13 10:22:27</time>
      </trkpt>
      <trkpt lat="41.59117" lon="2.34466">
        <ele>161.4</ele>
        <time>2021-11-13 10:22:28</time>
      </trkpt>
      <trkpt lat="41.59119" lon="2.34453">
        <ele>161.2</ele>
        <time>2021-11-13 10:22:29</time>
      </trkpt>
      <trkpt lat="41.59121" lon="2.34441">
        <ele>161</ele>
        <time>2021-11-13 10:22:30</time>
      </trkpt>
      <trkpt lat="41.59125" lon="2.34428">
        <ele>161</ele>
        <time>2021-11-13 10:22:31</time>
      </trkpt>
      <trkpt lat="41.59127" lon="2.34415">
        <ele>160.8</ele>
        <time>2021-11-13 10:22:32</time>
      </trkpt>
      <trkpt lat="41.5913" lon="2.34404">
        <ele>160.8</ele>
        <time>2021-11-13 10:22:33</time>
      </trkpt>
      <trkpt lat="41.59132" lon="2.34392">
        <ele>160.6</ele>
        <time>2021-11-13 10:22:34</time>
      </trkpt>
      <trkpt lat="41.59134" lon="2.3438">
        <ele>160.4</ele>
        <time>2021-11-13 10:22:35</time>
      </trkpt>
      <trkpt lat="41.59135" lon="2.34369">
        <ele>160.2</ele>
        <time>2021-11-13 10:22:36</time>
      </trkpt>
      <trkpt lat="41.59137" lon="2.34358">
        <ele>160.2</ele>
        <time>2021-11-13 10:22:37</time>
      </trkpt>
      <trkpt lat="41.59139" lon="2.34346">
        <ele>160.2</ele>
        <time>2021-11-13 10:22:38</time>
      </trkpt>
      <trkpt lat="41.59141" lon="2.34335">
        <ele>160</ele>
        <time>2021-11-13 10:22:39</time>
      </trkpt>
      <trkpt lat="41.59143" lon="2.34323">
        <ele>159.8</ele>
        <time>2021-11-13 10:22:40</time>
      </trkpt>
      <trkpt lat="41.59145" lon="2.34311">
        <ele>159.6</ele>
        <time>2021-11-13 10:22:41</time>
      </trkpt>
      <trkpt lat="41.59146" lon="2.34302">
        <ele>159.4</ele>
        <time>2021-11-13 10:22:42</time>
      </trkpt>
      <trkpt lat="41.59149" lon="2.34288">
        <ele>159.2</ele>
        <time>2021-11-13 10:22:43</time>
      </trkpt>
      <trkpt lat="41.59151" lon="2.34276">
        <ele>159.2</ele>
        <time>2021-11-13 10:22:44</time>
      </trkpt>
      <trkpt lat="41.59153" lon="2.34265">
        <ele>159</ele>
        <time>2021-11-13 10:22:45</time>
      </trkpt>
      <trkpt lat="41.59155" lon="2.34253">
        <ele>158.8</ele>
        <time>2021-11-13 10:22:46</time>
      </trkpt>
      <trkpt lat="41.59156" lon="2.34242">
        <ele>158.6</ele>
        <time>2021-11-13 10:22:47</time>
      </trkpt>
      <trkpt lat="41.59158" lon="2.3423">
        <ele>158.4</ele>
        <time>2021-11-13 10:22:48</time>
      </trkpt>
      <trkpt lat="41.5916" lon="2.34219">
        <ele>158.2</ele>
        <time>2021-11-13 10:22:49</time>
      </trkpt>
      <trkpt lat="41.59162" lon="2.34207">
        <ele>158</ele>
        <time>2021-11-13 10:22:50</time>
      </trkpt>
      <trkpt lat="41.59164" lon="2.34195">
        <ele>157.8</ele>
        <time>2021-11-13 10:22:51</time>
      </trkpt>
      <trkpt lat="41.59166" lon="2.34184">
        <ele>157.8</ele>
        <time>2021-11-13 10:22:52</time>
      </trkpt>
      <trkpt lat="41.59168" lon="2.34172">
        <ele>157.6</ele>
        <time>2021-11-13 10:22:53</time>
      </trkpt>
      <trkpt lat="41.5917" lon="2.34161">
        <ele>157.4</ele>
        <time>2021-11-13 10:22:54</time>
      </trkpt>
      <trkpt lat="41.59172" lon="2.34149">
        <ele>157</ele>
        <time>2021-11-13 10:22:55</time>
      </trkpt>
      <trkpt lat="41.59174" lon="2.34137">
        <ele>157</ele>
        <time>2021-11-13 10:22:56</time>
      </trkpt>
      <trkpt lat="41.59176" lon="2.34126">
        <ele>156.8</ele>
        <time>2021-11-13 10:22:57</time>
      </trkpt>
      <trkpt lat="41.59178" lon="2.34114">
        <ele>156.6</ele>
        <time>2021-11-13 10:22:58</time>
      </trkpt>
      <trkpt lat="41.5918" lon="2.34102">
        <ele>156.4</ele>
        <time>2021-11-13 10:22:59</time>
      </trkpt>
      <trkpt lat="41.59182" lon="2.3409">
        <ele>156.4</ele>
        <time>2021-11-13 10:23:00</time>
      </trkpt>
      <trkpt lat="41.59184" lon="2.34079">
        <ele>156.2</ele>
        <time>2021-11-13 10:23:01</time>
      </trkpt>
      <trkpt lat="41.59186" lon="2.34067">
        <ele>156</ele>
        <time>2021-11-13 10:23:02</time>
      </trkpt>
      <trkpt lat="41.59187" lon="2.34055">
        <ele>156</ele>
        <time>2021-11-13 10:23:03</time>
      </trkpt>
      <trkpt lat="41.59188" lon="2.34043">
        <ele>156</ele>
        <time>2021-11-13 10:23:04</time>
      </trkpt>
      <trkpt lat="41.59188" lon="2.3403">
        <ele>156</ele>
        <time>2021-11-13 10:23:05</time>
      </trkpt>
      <trkpt lat="41.59187" lon="2.34018">
        <ele>155.8</ele>
        <time>2021-11-13 10:23:06</time>
      </trkpt>
      <trkpt lat="41.59186" lon="2.34006">
        <ele>155.6</ele>
        <time>2021-11-13 10:23:07</time>
      </trkpt>
      <trkpt lat="41.59185" lon="2.33994">
        <ele>155.4</ele>
        <time>2021-11-13 10:23:08</time>
      </trkpt>
      <trkpt lat="41.59183" lon="2.33981">
        <ele>155.2</ele>
        <time>2021-11-13 10:23:09</time>
      </trkpt>
      <trkpt lat="41.59181" lon="2.33969">
        <ele>155</ele>
        <time>2021-11-13 10:23:10</time>
      </trkpt>
      <trkpt lat="41.59179" lon="2.33956">
        <ele>154.6</ele>
        <time>2021-11-13 10:23:11</time>
      </trkpt>
      <trkpt lat="41.59178" lon="2.33944">
        <ele>154.4</ele>
        <time>2021-11-13 10:23:12</time>
      </trkpt>
      <trkpt lat="41.59176" lon="2.33931">
        <ele>154</ele>
        <time>2021-11-13 10:23:13</time>
      </trkpt>
      <trkpt lat="41.59175" lon="2.33918">
        <ele>153.8</ele>
        <time>2021-11-13 10:23:14</time>
      </trkpt>
      <trkpt lat="41.59173" lon="2.33906">
        <ele>153.2</ele>
        <time>2021-11-13 10:23:15</time>
      </trkpt>
      <trkpt lat="41.59172" lon="2.33894">
        <ele>152.8</ele>
        <time>2021-11-13 10:23:16</time>
      </trkpt>
      <trkpt lat="41.59171" lon="2.33881">
        <ele>151.6</ele>
        <time>2021-11-13 10:23:17</time>
      </trkpt>
      <trkpt lat="41.5917" lon="2.33869">
        <ele>151.2</ele>
        <time>2021-11-13 10:23:18</time>
      </trkpt>
      <trkpt lat="41.59168" lon="2.33857">
        <ele>151</ele>
        <time>2021-11-13 10:23:19</time>
      </trkpt>
      <trkpt lat="41.59167" lon="2.33845">
        <ele>150.4</ele>
        <time>2021-11-13 10:23:20</time>
      </trkpt>
      <trkpt lat="41.59165" lon="2.33832">
        <ele>150.2</ele>
        <time>2021-11-13 10:23:21</time>
      </trkpt>
      <trkpt lat="41.59164" lon="2.3382">
        <ele>150</ele>
        <time>2021-11-13 10:23:22</time>
      </trkpt>
      <trkpt lat="41.59162" lon="2.33807">
        <ele>149.4</ele>
        <time>2021-11-13 10:23:23</time>
      </trkpt>
      <trkpt lat="41.59161" lon="2.33797">
        <ele>148.8</ele>
        <time>2021-11-13 10:23:24</time>
      </trkpt>
      <trkpt lat="41.59159" lon="2.33785">
        <ele>148.4</ele>
        <time>2021-11-13 10:23:25</time>
      </trkpt>
      <trkpt lat="41.59157" lon="2.33769">
        <ele>148</ele>
        <time>2021-11-13 10:23:26</time>
      </trkpt>
      <trkpt lat="41.59155" lon="2.33757">
        <ele>147.6</ele>
        <time>2021-11-13 10:23:27</time>
      </trkpt>
      <trkpt lat="41.59153" lon="2.33744">
        <ele>147.2</ele>
        <time>2021-11-13 10:23:28</time>
      </trkpt>
      <trkpt lat="41.59151" lon="2.33731">
        <ele>146.4</ele>
        <time>2021-11-13 10:23:29</time>
      </trkpt>
      <trkpt lat="41.5915" lon="2.33721">
        <ele>146.4</ele>
        <time>2021-11-13 10:23:30</time>
      </trkpt>
      <trkpt lat="41.59148" lon="2.33708">
        <ele>146.2</ele>
        <time>2021-11-13 10:23:31</time>
      </trkpt>
      <trkpt lat="41.59146" lon="2.33692">
        <ele>146</ele>
        <time>2021-11-13 10:23:32</time>
      </trkpt>
      <trkpt lat="41.59145" lon="2.33679">
        <ele>145.6</ele>
        <time>2021-11-13 10:23:33</time>
      </trkpt>
      <trkpt lat="41.59144" lon="2.33666">
        <ele>145</ele>
        <time>2021-11-13 10:23:34</time>
      </trkpt>
      <trkpt lat="41.59142" lon="2.33653">
        <ele>144.8</ele>
        <time>2021-11-13 10:23:35</time>
      </trkpt>
      <trkpt lat="41.59141" lon="2.3364">
        <ele>144.2</ele>
        <time>2021-11-13 10:23:36</time>
      </trkpt>
      <trkpt lat="41.59139" lon="2.33628">
        <ele>144</ele>
        <time>2021-11-13 10:23:37</time>
      </trkpt>
      <trkpt lat="41.59138" lon="2.33615">
        <ele>143.6</ele>
        <time>2021-11-13 10:23:38</time>
      </trkpt>
      <trkpt lat="41.59136" lon="2.33603">
        <ele>143.4</ele>
        <time>2021-11-13 10:23:39</time>
      </trkpt>
      <trkpt lat="41.59135" lon="2.33591">
        <ele>143</ele>
        <time>2021-11-13 10:23:40</time>
      </trkpt>
      <trkpt lat="41.59134" lon="2.33579">
        <ele>142.8</ele>
        <time>2021-11-13 10:23:41</time>
      </trkpt>
      <trkpt lat="41.59132" lon="2.33568">
        <ele>142.4</ele>
        <time>2021-11-13 10:23:42</time>
      </trkpt>
      <trkpt lat="41.59131" lon="2.33557">
        <ele>142.2</ele>
        <time>2021-11-13 10:23:43</time>
      </trkpt>
      <trkpt lat="41.59129" lon="2.33546">
        <ele>142.2</ele>
        <time>2021-11-13 10:23:44</time>
      </trkpt>
      <trkpt lat="41.59128" lon="2.33534">
        <ele>142.2</ele>
        <time>2021-11-13 10:23:45</time>
      </trkpt>
      <trkpt lat="41.59127" lon="2.33525">
        <ele>142</ele>
        <time>2021-11-13 10:23:46</time>
      </trkpt>
      <trkpt lat="41.59126" lon="2.33514">
        <ele>141.8</ele>
        <time>2021-11-13 10:23:47</time>
      </trkpt>
      <trkpt lat="41.59124" lon="2.33501">
        <ele>141.8</ele>
        <time>2021-11-13 10:23:48</time>
      </trkpt>
      <trkpt lat="41.59123" lon="2.33491">
        <ele>142</ele>
        <time>2021-11-13 10:23:49</time>
      </trkpt>
      <trkpt lat="41.59122" lon="2.3348">
        <ele>142</ele>
        <time>2021-11-13 10:23:50</time>
      </trkpt>
      <trkpt lat="41.59121" lon="2.3347">
        <ele>142.2</ele>
        <time>2021-11-13 10:23:51</time>
      </trkpt>
      <trkpt lat="41.5912" lon="2.33462">
        <ele>142.2</ele>
        <time>2021-11-13 10:23:52</time>
      </trkpt>
      <trkpt lat="41.59119" lon="2.3345">
        <ele>142.4</ele>
        <time>2021-11-13 10:23:53</time>
      </trkpt>
      <trkpt lat="41.59117" lon="2.33439">
        <ele>142.6</ele>
        <time>2021-11-13 10:23:54</time>
      </trkpt>
      <trkpt lat="41.59116" lon="2.33429">
        <ele>142.6</ele>
        <time>2021-11-13 10:23:55</time>
      </trkpt>
      <trkpt lat="41.59115" lon="2.33422">
        <ele>142.8</ele>
        <time>2021-11-13 10:23:56</time>
      </trkpt>
      <trkpt lat="41.59114" lon="2.33411">
        <ele>143</ele>
        <time>2021-11-13 10:23:57</time>
      </trkpt>
      <trkpt lat="41.59112" lon="2.33402">
        <ele>143</ele>
        <time>2021-11-13 10:23:58</time>
      </trkpt>
      <trkpt lat="41.5911" lon="2.33393">
        <ele>143</ele>
        <time>2021-11-13 10:23:59</time>
      </trkpt>
      <trkpt lat="41.59107" lon="2.33384">
        <ele>143.2</ele>
        <time>2021-11-13 10:24:00</time>
      </trkpt>
      <trkpt lat="41.59104" lon="2.33375">
        <ele>143.2</ele>
        <time>2021-11-13 10:24:01</time>
      </trkpt>
      <trkpt lat="41.59102" lon="2.33369">
        <ele>143.4</ele>
        <time>2021-11-13 10:24:02</time>
      </trkpt>
      <trkpt lat="41.59099" lon="2.33361">
        <ele>143.6</ele>
        <time>2021-11-13 10:24:03</time>
      </trkpt>
      <trkpt lat="41.59094" lon="2.33352">
        <ele>143.6</ele>
        <time>2021-11-13 10:24:04</time>
      </trkpt>
      <trkpt lat="41.5909" lon="2.33344">
        <ele>143.8</ele>
        <time>2021-11-13 10:24:05</time>
      </trkpt>
      <trkpt lat="41.59086" lon="2.33337">
        <ele>143.8</ele>
        <time>2021-11-13 10:24:06</time>
      </trkpt>
      <trkpt lat="41.59083" lon="2.33331">
        <ele>144</ele>
        <time>2021-11-13 10:24:07</time>
      </trkpt>
      <trkpt lat="41.59078" lon="2.33323">
        <ele>144.2</ele>
        <time>2021-11-13 10:24:08</time>
      </trkpt>
      <trkpt lat="41.59073" lon="2.33315">
        <ele>144.4</ele>
        <time>2021-11-13 10:24:09</time>
      </trkpt>
      <trkpt lat="41.59068" lon="2.33308">
        <ele>144.6</ele>
        <time>2021-11-13 10:24:10</time>
      </trkpt>
      <trkpt lat="41.59064" lon="2.33301">
        <ele>144.6</ele>
        <time>2021-11-13 10:24:11</time>
      </trkpt>
      <trkpt lat="41.59061" lon="2.33295">
        <ele>145</ele>
        <time>2021-11-13 10:24:12</time>
      </trkpt>
      <trkpt lat="41.59056" lon="2.33288">
        <ele>145</ele>
        <time>2021-11-13 10:24:13</time>
      </trkpt>
      <trkpt lat="41.59051" lon="2.33281">
        <ele>145.2</ele>
        <time>2021-11-13 10:24:14</time>
      </trkpt>
      <trkpt lat="41.59045" lon="2.33273">
        <ele>145.4</ele>
        <time>2021-11-13 10:24:15</time>
      </trkpt>
      <trkpt lat="41.59041" lon="2.33266">
        <ele>145.6</ele>
        <time>2021-11-13 10:24:16</time>
      </trkpt>
      <trkpt lat="41.59036" lon="2.33259">
        <ele>145.8</ele>
        <time>2021-11-13 10:24:17</time>
      </trkpt>
      <trkpt lat="41.59032" lon="2.33251">
        <ele>146</ele>
        <time>2021-11-13 10:24:18</time>
      </trkpt>
      <trkpt lat="41.59028" lon="2.33246">
        <ele>146.2</ele>
        <time>2021-11-13 10:24:19</time>
      </trkpt>
      <trkpt lat="41.59023" lon="2.33238">
        <ele>146.2</ele>
        <time>2021-11-13 10:24:20</time>
      </trkpt>
      <trkpt lat="41.59018" lon="2.33231">
        <ele>146.4</ele>
        <time>2021-11-13 10:24:21</time>
      </trkpt>
      <trkpt lat="41.59014" lon="2.33225">
        <ele>146.4</ele>
        <time>2021-11-13 10:24:22</time>
      </trkpt>
      <trkpt lat="41.5901" lon="2.33219">
        <ele>146.8</ele>
        <time>2021-11-13 10:24:23</time>
      </trkpt>
      <trkpt lat="41.59007" lon="2.33212">
        <ele>147</ele>
        <time>2021-11-13 10:24:24</time>
      </trkpt>
      <trkpt lat="41.59003" lon="2.33205">
        <ele>147.2</ele>
        <time>2021-11-13 10:24:25</time>
      </trkpt>
      <trkpt lat="41.58999" lon="2.33199">
        <ele>147.4</ele>
        <time>2021-11-13 10:24:26</time>
      </trkpt>
      <trkpt lat="41.58995" lon="2.33192">
        <ele>147.4</ele>
        <time>2021-11-13 10:24:27</time>
      </trkpt>
      <trkpt lat="41.58991" lon="2.33186">
        <ele>147.8</ele>
        <time>2021-11-13 10:24:28</time>
      </trkpt>
      <trkpt lat="41.58988" lon="2.33181">
        <ele>148</ele>
        <time>2021-11-13 10:24:29</time>
      </trkpt>
      <trkpt lat="41.58983" lon="2.33173">
        <ele>148.4</ele>
        <time>2021-11-13 10:24:30</time>
      </trkpt>
      <trkpt lat="41.5898" lon="2.33167">
        <ele>148.6</ele>
        <time>2021-11-13 10:24:31</time>
      </trkpt>
      <trkpt lat="41.58977" lon="2.3316">
        <ele>148.8</ele>
        <time>2021-11-13 10:24:32</time>
      </trkpt>
      <trkpt lat="41.58975" lon="2.33155">
        <ele>149.4</ele>
        <time>2021-11-13 10:24:33</time>
      </trkpt>
      <trkpt lat="41.58972" lon="2.33147">
        <ele>149.6</ele>
        <time>2021-11-13 10:24:34</time>
      </trkpt>
      <trkpt lat="41.58969" lon="2.33141">
        <ele>150</ele>
        <time>2021-11-13 10:24:35</time>
      </trkpt>
      <trkpt lat="41.58965" lon="2.33132">
        <ele>150</ele>
        <time>2021-11-13 10:24:36</time>
      </trkpt>
      <trkpt lat="41.58962" lon="2.33125">
        <ele>150.4</ele>
        <time>2021-11-13 10:24:37</time>
      </trkpt>
      <trkpt lat="41.58959" lon="2.33119">
        <ele>150.6</ele>
        <time>2021-11-13 10:24:38</time>
      </trkpt>
      <trkpt lat="41.58956" lon="2.33114">
        <ele>151</ele>
        <time>2021-11-13 10:24:39</time>
      </trkpt>
      <trkpt lat="41.58952" lon="2.33106">
        <ele>151.2</ele>
        <time>2021-11-13 10:24:40</time>
      </trkpt>
      <trkpt lat="41.58949" lon="2.33099">
        <ele>151.8</ele>
        <time>2021-11-13 10:24:41</time>
      </trkpt>
      <trkpt lat="41.58946" lon="2.33093">
        <ele>152.2</ele>
        <time>2021-11-13 10:24:42</time>
      </trkpt>
      <trkpt lat="41.58943" lon="2.33086">
        <ele>152.4</ele>
        <time>2021-11-13 10:24:43</time>
      </trkpt>
      <trkpt lat="41.58941" lon="2.33082">
        <ele>152.8</ele>
        <time>2021-11-13 10:24:44</time>
      </trkpt>
      <trkpt lat="41.58937" lon="2.33075">
        <ele>152.8</ele>
        <time>2021-11-13 10:24:45</time>
      </trkpt>
      <trkpt lat="41.58934" lon="2.33068">
        <ele>153.4</ele>
        <time>2021-11-13 10:24:46</time>
      </trkpt>
      <trkpt lat="41.58931" lon="2.33062">
        <ele>153.6</ele>
        <time>2021-11-13 10:24:47</time>
      </trkpt>
      <trkpt lat="41.58928" lon="2.33056">
        <ele>154</ele>
        <time>2021-11-13 10:24:48</time>
      </trkpt>
      <trkpt lat="41.58925" lon="2.3305">
        <ele>154.6</ele>
        <time>2021-11-13 10:24:49</time>
      </trkpt>
      <trkpt lat="41.58922" lon="2.33044">
        <ele>154.8</ele>
        <time>2021-11-13 10:24:50</time>
      </trkpt>
      <trkpt lat="41.5892" lon="2.33039">
        <ele>155.2</ele>
        <time>2021-11-13 10:24:51</time>
      </trkpt>
      <trkpt lat="41.58916" lon="2.33032">
        <ele>155.4</ele>
        <time>2021-11-13 10:24:52</time>
      </trkpt>
      <trkpt lat="41.58913" lon="2.33025">
        <ele>155.6</ele>
        <time>2021-11-13 10:24:53</time>
      </trkpt>
      <trkpt lat="41.5891" lon="2.33018">
        <ele>155.8</ele>
        <time>2021-11-13 10:24:54</time>
      </trkpt>
      <trkpt lat="41.58908" lon="2.33012">
        <ele>156.2</ele>
        <time>2021-11-13 10:24:55</time>
      </trkpt>
      <trkpt lat="41.58904" lon="2.33004">
        <ele>156.4</ele>
        <time>2021-11-13 10:24:56</time>
      </trkpt>
      <trkpt lat="41.58901" lon="2.32997">
        <ele>156.6</ele>
        <time>2021-11-13 10:24:57</time>
      </trkpt>
      <trkpt lat="41.58898" lon="2.3299">
        <ele>156.8</ele>
        <time>2021-11-13 10:24:58</time>
      </trkpt>
      <trkpt lat="41.58895" lon="2.32983">
        <ele>157</ele>
        <time>2021-11-13 10:24:59</time>
      </trkpt>
      <trkpt lat="41.58891" lon="2.32975">
        <ele>157</ele>
        <time>2021-11-13 10:25:00</time>
      </trkpt>
      <trkpt lat="41.58888" lon="2.32967">
        <ele>157</ele>
        <time>2021-11-13 10:25:01</time>
      </trkpt>
      <trkpt lat="41.58884" lon="2.32958">
        <ele>157.2</ele>
        <time>2021-11-13 10:25:02</time>
      </trkpt>
      <trkpt lat="41.5888" lon="2.32949">
        <ele>157.2</ele>
        <time>2021-11-13 10:25:03</time>
      </trkpt>
      <trkpt lat="41.58876" lon="2.3294">
        <ele>157.2</ele>
        <time>2021-11-13 10:25:04</time>
      </trkpt>
      <trkpt lat="41.58872" lon="2.3293">
        <ele>157.2</ele>
        <time>2021-11-13 10:25:05</time>
      </trkpt>
      <trkpt lat="41.58868" lon="2.3292">
        <ele>157</ele>
        <time>2021-11-13 10:25:06</time>
      </trkpt>
      <trkpt lat="41.58863" lon="2.32909">
        <ele>156.8</ele>
        <time>2021-11-13 10:25:07</time>
      </trkpt>
      <trkpt lat="41.58858" lon="2.32899">
        <ele>156.6</ele>
        <time>2021-11-13 10:25:08</time>
      </trkpt>
      <trkpt lat="41.58853" lon="2.32888">
        <ele>156.2</ele>
        <time>2021-11-13 10:25:09</time>
      </trkpt>
      <trkpt lat="41.58849" lon="2.3288">
        <ele>156</ele>
        <time>2021-11-13 10:25:10</time>
      </trkpt>
      <trkpt lat="41.58844" lon="2.32867">
        <ele>155.2</ele>
        <time>2021-11-13 10:25:11</time>
      </trkpt>
      <trkpt lat="41.58839" lon="2.32857">
        <ele>155</ele>
        <time>2021-11-13 10:25:12</time>
      </trkpt>
      <trkpt lat="41.58835" lon="2.32847">
        <ele>154.2</ele>
        <time>2021-11-13 10:25:13</time>
      </trkpt>
      <trkpt lat="41.58831" lon="2.32837">
        <ele>153.8</ele>
        <time>2021-11-13 10:25:14</time>
      </trkpt>
      <trkpt lat="41.58827" lon="2.32828">
        <ele>153.2</ele>
        <time>2021-11-13 10:25:15</time>
      </trkpt>
      <trkpt lat="41.58824" lon="2.32821">
        <ele>152.2</ele>
        <time>2021-11-13 10:25:16</time>
      </trkpt>
      <trkpt lat="41.58819" lon="2.32811">
        <ele>151.8</ele>
        <time>2021-11-13 10:25:17</time>
      </trkpt>
      <trkpt lat="41.58816" lon="2.32803">
        <ele>151</ele>
        <time>2021-11-13 10:25:18</time>
      </trkpt>
      <trkpt lat="41.58813" lon="2.32796">
        <ele>150.6</ele>
        <time>2021-11-13 10:25:19</time>
      </trkpt>
      <trkpt lat="41.5881" lon="2.32788">
        <ele>150</ele>
        <time>2021-11-13 10:25:20</time>
      </trkpt>
      <trkpt lat="41.58808" lon="2.32782">
        <ele>149.8</ele>
        <time>2021-11-13 10:25:21</time>
      </trkpt>
      <trkpt lat="41.58806" lon="2.32777">
        <ele>149</ele>
        <time>2021-11-13 10:25:22</time>
      </trkpt>
      <trkpt lat="41.58803" lon="2.32771">
        <ele>148.4</ele>
        <time>2021-11-13 10:25:23</time>
      </trkpt>
      <trkpt lat="41.58801" lon="2.32766">
        <ele>148.2</ele>
        <time>2021-11-13 10:25:24</time>
      </trkpt>
      <trkpt lat="41.58799" lon="2.32761">
        <ele>148</ele>
        <time>2021-11-13 10:25:25</time>
      </trkpt>
      <trkpt lat="41.58798" lon="2.32758">
        <ele>147.6</ele>
        <time>2021-11-13 10:25:26</time>
      </trkpt>
      <trkpt lat="41.58797" lon="2.32756">
        <ele>147.2</ele>
        <time>2021-11-13 10:25:27</time>
      </trkpt>
      <trkpt lat="41.58797" lon="2.32755">
        <ele>147</ele>
        <time>2021-11-13 10:25:28</time>
      </trkpt>
      <trkpt lat="41.58796" lon="2.32754">
        <ele>146.6</ele>
        <time>2021-11-13 10:25:29</time>
      </trkpt>
      <trkpt lat="41.58796" lon="2.32754">
        <ele>146.4</ele>
        <time>2021-11-13 10:25:30</time>
      </trkpt>
      <trkpt lat="41.58796" lon="2.32754">
        <ele>146</ele>
        <time>2021-11-13 10:25:31</time>
      </trkpt>
      <trkpt lat="41.58795" lon="2.32751">
        <ele>143.8</ele>
        <time>2021-11-13 10:26:47</time>
      </trkpt>
      <trkpt lat="41.58793" lon="2.32747">
        <ele>143.8</ele>
        <time>2021-11-13 10:26:48</time>
      </trkpt>
      <trkpt lat="41.58791" lon="2.32743">
        <ele>143.8</ele>
        <time>2021-11-13 10:26:49</time>
      </trkpt>
      <trkpt lat="41.5879" lon="2.32738">
        <ele>143.8</ele>
        <time>2021-11-13 10:26:50</time>
      </trkpt>
      <trkpt lat="41.58788" lon="2.32733">
        <ele>143.8</ele>
        <time>2021-11-13 10:26:51</time>
      </trkpt>
      <trkpt lat="41.58787" lon="2.32727">
        <ele>143.8</ele>
        <time>2021-11-13 10:26:52</time>
      </trkpt>
      <trkpt lat="41.58786" lon="2.3272">
        <ele>143.8</ele>
        <time>2021-11-13 10:26:53</time>
      </trkpt>
      <trkpt lat="41.58787" lon="2.32712">
        <ele>143.6</ele>
        <time>2021-11-13 10:26:54</time>
      </trkpt>
      <trkpt lat="41.58788" lon="2.32704">
        <ele>143.6</ele>
        <time>2021-11-13 10:26:55</time>
      </trkpt>
      <trkpt lat="41.5879" lon="2.32696">
        <ele>143.2</ele>
        <time>2021-11-13 10:26:56</time>
      </trkpt>
      <trkpt lat="41.58793" lon="2.32688">
        <ele>143</ele>
        <time>2021-11-13 10:26:57</time>
      </trkpt>
      <trkpt lat="41.58797" lon="2.32681">
        <ele>142.6</ele>
        <time>2021-11-13 10:26:58</time>
      </trkpt>
      <trkpt lat="41.58801" lon="2.32673">
        <ele>142.4</ele>
        <time>2021-11-13 10:26:59</time>
      </trkpt>
      <trkpt lat="41.58805" lon="2.32665">
        <ele>142.2</ele>
        <time>2021-11-13 10:27:00</time>
      </trkpt>
      <trkpt lat="41.58809" lon="2.32658">
        <ele>142</ele>
        <time>2021-11-13 10:27:01</time>
      </trkpt>
      <trkpt lat="41.58814" lon="2.32649">
        <ele>141.8</ele>
        <time>2021-11-13 10:27:02</time>
      </trkpt>
      <trkpt lat="41.58819" lon="2.32641">
        <ele>141.6</ele>
        <time>2021-11-13 10:27:03</time>
      </trkpt>
      <trkpt lat="41.58823" lon="2.32633">
        <ele>141.2</ele>
        <time>2021-11-13 10:27:04</time>
      </trkpt>
      <trkpt lat="41.58828" lon="2.32624">
        <ele>140.8</ele>
        <time>2021-11-13 10:27:05</time>
      </trkpt>
      <trkpt lat="41.58833" lon="2.32616">
        <ele>140.6</ele>
        <time>2021-11-13 10:27:06</time>
      </trkpt>
      <trkpt lat="41.58837" lon="2.32609">
        <ele>140</ele>
        <time>2021-11-13 10:27:07</time>
      </trkpt>
      <trkpt lat="41.58843" lon="2.32598">
        <ele>139.8</ele>
        <time>2021-11-13 10:27:08</time>
      </trkpt>
      <trkpt lat="41.58848" lon="2.32589">
        <ele>139.2</ele>
        <time>2021-11-13 10:27:09</time>
      </trkpt>
      <trkpt lat="41.58853" lon="2.32579">
        <ele>139</ele>
        <time>2021-11-13 10:27:10</time>
      </trkpt>
      <trkpt lat="41.58858" lon="2.32571">
        <ele>138.4</ele>
        <time>2021-11-13 10:27:11</time>
      </trkpt>
      <trkpt lat="41.58864" lon="2.3256">
        <ele>138.2</ele>
        <time>2021-11-13 10:27:12</time>
      </trkpt>
      <trkpt lat="41.58868" lon="2.32552">
        <ele>137.8</ele>
        <time>2021-11-13 10:27:13</time>
      </trkpt>
      <trkpt lat="41.58875" lon="2.3254">
        <ele>137.2</ele>
        <time>2021-11-13 10:27:14</time>
      </trkpt>
      <trkpt lat="41.5888" lon="2.32529">
        <ele>136.8</ele>
        <time>2021-11-13 10:27:15</time>
      </trkpt>
      <trkpt lat="41.58885" lon="2.32521">
        <ele>136.2</ele>
        <time>2021-11-13 10:27:16</time>
      </trkpt>
      <trkpt lat="41.58891" lon="2.3251">
        <ele>136.2</ele>
        <time>2021-11-13 10:27:17</time>
      </trkpt>
      <trkpt lat="41.58897" lon="2.32498">
        <ele>135.6</ele>
        <time>2021-11-13 10:27:18</time>
      </trkpt>
      <trkpt lat="41.58903" lon="2.32487">
        <ele>135.2</ele>
        <time>2021-11-13 10:27:19</time>
      </trkpt>
      <trkpt lat="41.58909" lon="2.32477">
        <ele>134.4</ele>
        <time>2021-11-13 10:27:20</time>
      </trkpt>
      <trkpt lat="41.58914" lon="2.32468">
        <ele>133.8</ele>
        <time>2021-11-13 10:27:21</time>
      </trkpt>
      <trkpt lat="41.5892" lon="2.32458">
        <ele>133.6</ele>
        <time>2021-11-13 10:27:22</time>
      </trkpt>
      <trkpt lat="41.58925" lon="2.32449">
        <ele>133.2</ele>
        <time>2021-11-13 10:27:23</time>
      </trkpt>
      <trkpt lat="41.58932" lon="2.32437">
        <ele>132.8</ele>
        <time>2021-11-13 10:27:24</time>
      </trkpt>
      <trkpt lat="41.58938" lon="2.32428">
        <ele>132.2</ele>
        <time>2021-11-13 10:27:25</time>
      </trkpt>
      <trkpt lat="41.58942" lon="2.3242">
        <ele>131.8</ele>
        <time>2021-11-13 10:27:26</time>
      </trkpt>
      <trkpt lat="41.58948" lon="2.32412">
        <ele>131.6</ele>
        <time>2021-11-13 10:27:27</time>
      </trkpt>
      <trkpt lat="41.58953" lon="2.32403">
        <ele>131.4</ele>
        <time>2021-11-13 10:27:28</time>
      </trkpt>
      <trkpt lat="41.58959" lon="2.32395">
        <ele>131</ele>
        <time>2021-11-13 10:27:29</time>
      </trkpt>
      <trkpt lat="41.58965" lon="2.32385">
        <ele>130.8</ele>
        <time>2021-11-13 10:27:30</time>
      </trkpt>
      <trkpt lat="41.58969" lon="2.3238">
        <ele>130.8</ele>
        <time>2021-11-13 10:27:31</time>
      </trkpt>
      <trkpt lat="41.58974" lon="2.32372">
        <ele>130.6</ele>
        <time>2021-11-13 10:27:32</time>
      </trkpt>
      <trkpt lat="41.58978" lon="2.32368">
        <ele>130.6</ele>
        <time>2021-11-13 10:27:33</time>
      </trkpt>
      <trkpt lat="41.58985" lon="2.32364">
        <ele>130.6</ele>
        <time>2021-11-13 10:27:34</time>
      </trkpt>
      <trkpt lat="41.5899" lon="2.32362">
        <ele>130.6</ele>
        <time>2021-11-13 10:27:35</time>
      </trkpt>
      <trkpt lat="41.58995" lon="2.32361">
        <ele>130.6</ele>
        <time>2021-11-13 10:27:36</time>
      </trkpt>
      <trkpt lat="41.59" lon="2.32358">
        <ele>130.6</ele>
        <time>2021-11-13 10:27:37</time>
      </trkpt>
      <trkpt lat="41.59004" lon="2.32354">
        <ele>130.6</ele>
        <time>2021-11-13 10:27:38</time>
      </trkpt>
      <trkpt lat="41.59007" lon="2.32349">
        <ele>130.6</ele>
        <time>2021-11-13 10:27:39</time>
      </trkpt>
      <trkpt lat="41.59009" lon="2.32341">
        <ele>130.8</ele>
        <time>2021-11-13 10:27:40</time>
      </trkpt>
      <trkpt lat="41.59008" lon="2.32334">
        <ele>130.8</ele>
        <time>2021-11-13 10:27:41</time>
      </trkpt>
      <trkpt lat="41.59006" lon="2.32329">
        <ele>130.8</ele>
        <time>2021-11-13 10:27:42</time>
      </trkpt>
      <trkpt lat="41.59004" lon="2.32324">
        <ele>130.8</ele>
        <time>2021-11-13 10:27:43</time>
      </trkpt>
      <trkpt lat="41.58998" lon="2.3232">
        <ele>131</ele>
        <time>2021-11-13 10:27:44</time>
      </trkpt>
      <trkpt lat="41.58993" lon="2.3232">
        <ele>131.2</ele>
        <time>2021-11-13 10:27:45</time>
      </trkpt>
      <trkpt lat="41.58987" lon="2.32321">
        <ele>131.2</ele>
        <time>2021-11-13 10:27:46</time>
      </trkpt>
      <trkpt lat="41.58983" lon="2.32323">
        <ele>131.2</ele>
        <time>2021-11-13 10:27:47</time>
      </trkpt>
      <trkpt lat="41.58977" lon="2.32325">
        <ele>131.2</ele>
        <time>2021-11-13 10:27:48</time>
      </trkpt>
      <trkpt lat="41.58971" lon="2.32328">
        <ele>131.2</ele>
        <time>2021-11-13 10:27:49</time>
      </trkpt>
      <trkpt lat="41.58963" lon="2.32329">
        <ele>131.2</ele>
        <time>2021-11-13 10:27:50</time>
      </trkpt>
      <trkpt lat="41.58955" lon="2.32328">
        <ele>131.2</ele>
        <time>2021-11-13 10:27:51</time>
      </trkpt>
      <trkpt lat="41.58949" lon="2.32327">
        <ele>131.2</ele>
        <time>2021-11-13 10:27:52</time>
      </trkpt>
      <trkpt lat="41.58942" lon="2.32325">
        <ele>131.2</ele>
        <time>2021-11-13 10:27:53</time>
      </trkpt>
      <trkpt lat="41.58935" lon="2.32323">
        <ele>131.2</ele>
        <time>2021-11-13 10:27:54</time>
      </trkpt>
      <trkpt lat="41.58926" lon="2.32321">
        <ele>131</ele>
        <time>2021-11-13 10:27:55</time>
      </trkpt>
      <trkpt lat="41.58919" lon="2.32319">
        <ele>130.8</ele>
        <time>2021-11-13 10:27:56</time>
      </trkpt>
      <trkpt lat="41.58913" lon="2.32317">
        <ele>130.6</ele>
        <time>2021-11-13 10:27:57</time>
      </trkpt>
      <trkpt lat="41.58905" lon="2.32315">
        <ele>130.4</ele>
        <time>2021-11-13 10:27:58</time>
      </trkpt>
      <trkpt lat="41.58897" lon="2.32313">
        <ele>130.2</ele>
        <time>2021-11-13 10:27:59</time>
      </trkpt>
      <trkpt lat="41.5889" lon="2.32312">
        <ele>130</ele>
        <time>2021-11-13 10:28:00</time>
      </trkpt>
      <trkpt lat="41.58882" lon="2.3231">
        <ele>129.6</ele>
        <time>2021-11-13 10:28:01</time>
      </trkpt>
      <trkpt lat="41.58874" lon="2.32307">
        <ele>129.6</ele>
        <time>2021-11-13 10:28:02</time>
      </trkpt>
      <trkpt lat="41.58868" lon="2.32306">
        <ele>129.4</ele>
        <time>2021-11-13 10:28:03</time>
      </trkpt>
      <trkpt lat="41.58859" lon="2.32304">
        <ele>129</ele>
        <time>2021-11-13 10:28:04</time>
      </trkpt>
      <trkpt lat="41.58851" lon="2.32302">
        <ele>128.8</ele>
        <time>2021-11-13 10:28:05</time>
      </trkpt>
      <trkpt lat="41.58844" lon="2.323">
        <ele>128.6</ele>
        <time>2021-11-13 10:28:06</time>
      </trkpt>
      <trkpt lat="41.58836" lon="2.32298">
        <ele>128.6</ele>
        <time>2021-11-13 10:28:07</time>
      </trkpt>
      <trkpt lat="41.58831" lon="2.32297">
        <ele>128.4</ele>
        <time>2021-11-13 10:28:08</time>
      </trkpt>
      <trkpt lat="41.58823" lon="2.32295">
        <ele>128.4</ele>
        <time>2021-11-13 10:28:09</time>
      </trkpt>
      <trkpt lat="41.58815" lon="2.32293">
        <ele>128.2</ele>
        <time>2021-11-13 10:28:10</time>
      </trkpt>
      <trkpt lat="41.58807" lon="2.32291">
        <ele>128</ele>
        <time>2021-11-13 10:28:11</time>
      </trkpt>
      <trkpt lat="41.58801" lon="2.32289">
        <ele>127.8</ele>
        <time>2021-11-13 10:28:12</time>
      </trkpt>
      <trkpt lat="41.58794" lon="2.32287">
        <ele>127.8</ele>
        <time>2021-11-13 10:28:13</time>
      </trkpt>
      <trkpt lat="41.58787" lon="2.32286">
        <ele>127.8</ele>
        <time>2021-11-13 10:28:14</time>
      </trkpt>
      <trkpt lat="41.58778" lon="2.32284">
        <ele>127.8</ele>
        <time>2021-11-13 10:28:15</time>
      </trkpt>
      <trkpt lat="41.5877" lon="2.32283">
        <ele>127.8</ele>
        <time>2021-11-13 10:28:16</time>
      </trkpt>
      <trkpt lat="41.58764" lon="2.32281">
        <ele>127.6</ele>
        <time>2021-11-13 10:28:17</time>
      </trkpt>
      <trkpt lat="41.58755" lon="2.32279">
        <ele>127.6</ele>
        <time>2021-11-13 10:28:18</time>
      </trkpt>
      <trkpt lat="41.58748" lon="2.32277">
        <ele>127.6</ele>
        <time>2021-11-13 10:28:19</time>
      </trkpt>
      <trkpt lat="41.5874" lon="2.32276">
        <ele>127.6</ele>
        <time>2021-11-13 10:28:20</time>
      </trkpt>
      <trkpt lat="41.58732" lon="2.32274">
        <ele>127.6</ele>
        <time>2021-11-13 10:28:21</time>
      </trkpt>
      <trkpt lat="41.58727" lon="2.32272">
        <ele>127.6</ele>
        <time>2021-11-13 10:28:22</time>
      </trkpt>
      <trkpt lat="41.58718" lon="2.3227">
        <ele>127.6</ele>
        <time>2021-11-13 10:28:23</time>
      </trkpt>
      <trkpt lat="41.58713" lon="2.32268">
        <ele>127.6</ele>
        <time>2021-11-13 10:28:24</time>
      </trkpt>
      <trkpt lat="41.58706" lon="2.32266">
        <ele>127.6</ele>
        <time>2021-11-13 10:28:25</time>
      </trkpt>
      <trkpt lat="41.58697" lon="2.32264">
        <ele>127.6</ele>
        <time>2021-11-13 10:28:26</time>
      </trkpt>
      <trkpt lat="41.5869" lon="2.32263">
        <ele>127.6</ele>
        <time>2021-11-13 10:28:27</time>
      </trkpt>
      <trkpt lat="41.58684" lon="2.32261">
        <ele>127.6</ele>
        <time>2021-11-13 10:28:28</time>
      </trkpt>
      <trkpt lat="41.58677" lon="2.32259">
        <ele>127.6</ele>
        <time>2021-11-13 10:28:29</time>
      </trkpt>
      <trkpt lat="41.58669" lon="2.32257">
        <ele>127.6</ele>
        <time>2021-11-13 10:28:30</time>
      </trkpt>
      <trkpt lat="41.58662" lon="2.32255">
        <ele>127.6</ele>
        <time>2021-11-13 10:28:31</time>
      </trkpt>
      <trkpt lat="41.58656" lon="2.32253">
        <ele>127.6</ele>
        <time>2021-11-13 10:28:32</time>
      </trkpt>
      <trkpt lat="41.58649" lon="2.32251">
        <ele>127.6</ele>
        <time>2021-11-13 10:28:33</time>
      </trkpt>
      <trkpt lat="41.58644" lon="2.32249">
        <ele>127.4</ele>
        <time>2021-11-13 10:28:34</time>
      </trkpt>
      <trkpt lat="41.58638" lon="2.32247">
        <ele>127.4</ele>
        <time>2021-11-13 10:28:35</time>
      </trkpt>
      <trkpt lat="41.58632" lon="2.32245">
        <ele>127.4</ele>
        <time>2021-11-13 10:28:36</time>
      </trkpt>
      <trkpt lat="41.58626" lon="2.32244">
        <ele>127.4</ele>
        <time>2021-11-13 10:28:37</time>
      </trkpt>
      <trkpt lat="41.58619" lon="2.32242">
        <ele>127.2</ele>
        <time>2021-11-13 10:28:38</time>
      </trkpt>
      <trkpt lat="41.58614" lon="2.3224">
        <ele>127.2</ele>
        <time>2021-11-13 10:28:39</time>
      </trkpt>
      <trkpt lat="41.58608" lon="2.32239">
        <ele>127.2</ele>
        <time>2021-11-13 10:28:40</time>
      </trkpt>
      <trkpt lat="41.586" lon="2.32237">
        <ele>127.2</ele>
        <time>2021-11-13 10:28:41</time>
      </trkpt>
      <trkpt lat="41.58594" lon="2.32235">
        <ele>127.4</ele>
        <time>2021-11-13 10:28:42</time>
      </trkpt>
      <trkpt lat="41.58588" lon="2.32234">
        <ele>127.4</ele>
        <time>2021-11-13 10:28:43</time>
      </trkpt>
      <trkpt lat="41.5858" lon="2.32232">
        <ele>127.2</ele>
        <time>2021-11-13 10:28:44</time>
      </trkpt>
      <trkpt lat="41.58574" lon="2.3223">
        <ele>127.2</ele>
        <time>2021-11-13 10:28:45</time>
      </trkpt>
      <trkpt lat="41.58567" lon="2.32228">
        <ele>127.2</ele>
        <time>2021-11-13 10:28:46</time>
      </trkpt>
      <trkpt lat="41.5856" lon="2.32227">
        <ele>127.2</ele>
        <time>2021-11-13 10:28:47</time>
      </trkpt>
      <trkpt lat="41.58554" lon="2.32225">
        <ele>127.2</ele>
        <time>2021-11-13 10:28:48</time>
      </trkpt>
      <trkpt lat="41.58547" lon="2.32223">
        <ele>127.2</ele>
        <time>2021-11-13 10:28:49</time>
      </trkpt>
      <trkpt lat="41.58542" lon="2.32222">
        <ele>127.2</ele>
        <time>2021-11-13 10:28:50</time>
      </trkpt>
      <trkpt lat="41.58534" lon="2.3222">
        <ele>127.2</ele>
        <time>2021-11-13 10:28:51</time>
      </trkpt>
      <trkpt lat="41.58527" lon="2.32219">
        <ele>127.2</ele>
        <time>2021-11-13 10:28:52</time>
      </trkpt>
      <trkpt lat="41.58521" lon="2.32217">
        <ele>127.2</ele>
        <time>2021-11-13 10:28:53</time>
      </trkpt>
      <trkpt lat="41.58515" lon="2.32216">
        <ele>127.2</ele>
        <time>2021-11-13 10:28:54</time>
      </trkpt>
      <trkpt lat="41.5851" lon="2.32214">
        <ele>127.2</ele>
        <time>2021-11-13 10:28:55</time>
      </trkpt>
      <trkpt lat="41.58502" lon="2.32212">
        <ele>127.2</ele>
        <time>2021-11-13 10:28:56</time>
      </trkpt>
      <trkpt lat="41.58495" lon="2.32211">
        <ele>127.2</ele>
        <time>2021-11-13 10:28:57</time>
      </trkpt>
      <trkpt lat="41.58489" lon="2.32209">
        <ele>127.2</ele>
        <time>2021-11-13 10:28:58</time>
      </trkpt>
      <trkpt lat="41.58484" lon="2.32208">
        <ele>127.2</ele>
        <time>2021-11-13 10:28:59</time>
      </trkpt>
      <trkpt lat="41.58476" lon="2.32206">
        <ele>127</ele>
        <time>2021-11-13 10:29:00</time>
      </trkpt>
      <trkpt lat="41.58469" lon="2.32204">
        <ele>127</ele>
        <time>2021-11-13 10:29:01</time>
      </trkpt>
      <trkpt lat="41.58461" lon="2.32202">
        <ele>126.8</ele>
        <time>2021-11-13 10:29:02</time>
      </trkpt>
      <trkpt lat="41.58454" lon="2.32201">
        <ele>126.6</ele>
        <time>2021-11-13 10:29:03</time>
      </trkpt>
      <trkpt lat="41.58447" lon="2.32199">
        <ele>126.6</ele>
        <time>2021-11-13 10:29:04</time>
      </trkpt>
      <trkpt lat="41.58441" lon="2.32198">
        <ele>126.6</ele>
        <time>2021-11-13 10:29:05</time>
      </trkpt>
      <trkpt lat="41.58432" lon="2.32195">
        <ele>126.6</ele>
        <time>2021-11-13 10:29:06</time>
      </trkpt>
      <trkpt lat="41.58425" lon="2.32194">
        <ele>126.6</ele>
        <time>2021-11-13 10:29:07</time>
      </trkpt>
      <trkpt lat="41.58419" lon="2.32193">
        <ele>126.4</ele>
        <time>2021-11-13 10:29:08</time>
      </trkpt>
      <trkpt lat="41.58412" lon="2.32193">
        <ele>126.4</ele>
        <time>2021-11-13 10:29:09</time>
      </trkpt>
      <trkpt lat="41.58406" lon="2.32196">
        <ele>126.2</ele>
        <time>2021-11-13 10:29:10</time>
      </trkpt>
      <trkpt lat="41.58401" lon="2.32201">
        <ele>126.2</ele>
        <time>2021-11-13 10:29:11</time>
      </trkpt>
      <trkpt lat="41.58397" lon="2.32207">
        <ele>126</ele>
        <time>2021-11-13 10:29:12</time>
      </trkpt>
      <trkpt lat="41.58394" lon="2.32212">
        <ele>126</ele>
        <time>2021-11-13 10:29:13</time>
      </trkpt>
      <trkpt lat="41.5839" lon="2.32218">
        <ele>126</ele>
        <time>2021-11-13 10:29:14</time>
      </trkpt>
      <trkpt lat="41.58387" lon="2.32225">
        <ele>126</ele>
        <time>2021-11-13 10:29:15</time>
      </trkpt>
      <trkpt lat="41.58383" lon="2.32233">
        <ele>126</ele>
        <time>2021-11-13 10:29:16</time>
      </trkpt>
      <trkpt lat="41.58383" lon="2.32233">
        <ele>126</ele>
        <time>2021-11-13 10:29:17</time>
      </trkpt>
      <trkpt lat="41.58377" lon="2.32246">
        <ele>126</ele>
        <time>2021-11-13 10:29:18</time>
      </trkpt>
      <trkpt lat="41.58374" lon="2.32252">
        <ele>126</ele>
        <time>2021-11-13 10:29:19</time>
      </trkpt>
      <trkpt lat="41.5837" lon="2.32259">
        <ele>126</ele>
        <time>2021-11-13 10:29:20</time>
      </trkpt>
      <trkpt lat="41.58366" lon="2.32266">
        <ele>126.2</ele>
        <time>2021-11-13 10:29:21</time>
      </trkpt>
      <trkpt lat="41.58362" lon="2.32272">
        <ele>126.4</ele>
        <time>2021-11-13 10:29:22</time>
      </trkpt>
      <trkpt lat="41.58359" lon="2.32277">
        <ele>126.6</ele>
        <time>2021-11-13 10:29:23</time>
      </trkpt>
      <trkpt lat="41.58355" lon="2.32282">
        <ele>126.6</ele>
        <time>2021-11-13 10:29:24</time>
      </trkpt>
      <trkpt lat="41.58353" lon="2.32286">
        <ele>126.8</ele>
        <time>2021-11-13 10:29:25</time>
      </trkpt>
      <trkpt lat="41.58349" lon="2.3229">
        <ele>126.8</ele>
        <time>2021-11-13 10:29:26</time>
      </trkpt>
      <trkpt lat="41.58345" lon="2.32296">
        <ele>127</ele>
        <time>2021-11-13 10:29:27</time>
      </trkpt>
      <trkpt lat="41.58343" lon="2.32303">
        <ele>127</ele>
        <time>2021-11-13 10:29:28</time>
      </trkpt>
      <trkpt lat="41.58341" lon="2.32308">
        <ele>127</ele>
        <time>2021-11-13 10:29:29</time>
      </trkpt>
      <trkpt lat="41.58339" lon="2.32313">
        <ele>127.4</ele>
        <time>2021-11-13 10:29:30</time>
      </trkpt>
      <trkpt lat="41.58336" lon="2.3232">
        <ele>127.4</ele>
        <time>2021-11-13 10:29:31</time>
      </trkpt>
      <trkpt lat="41.58333" lon="2.32326">
        <ele>127.6</ele>
        <time>2021-11-13 10:29:32</time>
      </trkpt>
      <trkpt lat="41.58329" lon="2.32333">
        <ele>127.6</ele>
        <time>2021-11-13 10:29:33</time>
      </trkpt>
      <trkpt lat="41.58325" lon="2.32341">
        <ele>127.8</ele>
        <time>2021-11-13 10:29:34</time>
      </trkpt>
      <trkpt lat="41.58323" lon="2.32345">
        <ele>128</ele>
        <time>2021-11-13 10:29:35</time>
      </trkpt>
      <trkpt lat="41.58318" lon="2.32354">
        <ele>128</ele>
        <time>2021-11-13 10:29:36</time>
      </trkpt>
      <trkpt lat="41.58314" lon="2.3236">
        <ele>128.2</ele>
        <time>2021-11-13 10:29:37</time>
      </trkpt>
      <trkpt lat="41.5831" lon="2.32367">
        <ele>128.2</ele>
        <time>2021-11-13 10:29:38</time>
      </trkpt>
      <trkpt lat="41.58307" lon="2.32372">
        <ele>128.4</ele>
        <time>2021-11-13 10:29:39</time>
      </trkpt>
      <trkpt lat="41.58305" lon="2.32377">
        <ele>128.4</ele>
        <time>2021-11-13 10:29:40</time>
      </trkpt>
      <trkpt lat="41.58301" lon="2.32384">
        <ele>128.6</ele>
        <time>2021-11-13 10:29:41</time>
      </trkpt>
      <trkpt lat="41.58297" lon="2.32391">
        <ele>128.8</ele>
        <time>2021-11-13 10:29:42</time>
      </trkpt>
      <trkpt lat="41.58294" lon="2.32397">
        <ele>128.8</ele>
        <time>2021-11-13 10:29:43</time>
      </trkpt>
      <trkpt lat="41.58291" lon="2.32401">
        <ele>129</ele>
        <time>2021-11-13 10:29:44</time>
      </trkpt>
      <trkpt lat="41.58288" lon="2.32405">
        <ele>129.2</ele>
        <time>2021-11-13 10:29:45</time>
      </trkpt>
      <trkpt lat="41.58285" lon="2.32409">
        <ele>129.4</ele>
        <time>2021-11-13 10:29:46</time>
      </trkpt>
      <trkpt lat="41.58283" lon="2.32412">
        <ele>129.4</ele>
        <time>2021-11-13 10:29:47</time>
      </trkpt>
      <trkpt lat="41.58283" lon="2.32414">
        <ele>129.6</ele>
        <time>2021-11-13 10:29:48</time>
      </trkpt>
      <trkpt lat="41.58281" lon="2.32415">
        <ele>129.6</ele>
        <time>2021-11-13 10:29:49</time>
      </trkpt>
      <trkpt lat="41.5828" lon="2.32415">
        <ele>129.8</ele>
        <time>2021-11-13 10:29:50</time>
      </trkpt>
      <trkpt lat="41.58278" lon="2.32416">
        <ele>130</ele>
        <time>2021-11-13 10:29:51</time>
      </trkpt>
      <trkpt lat="41.58277" lon="2.32415">
        <ele>130</ele>
        <time>2021-11-13 10:29:52</time>
      </trkpt>
      <trkpt lat="41.58277" lon="2.32415">
        <ele>130</ele>
        <time>2021-11-13 10:29:53</time>
      </trkpt>
      <trkpt lat="41.58277" lon="2.32415">
        <ele>130</ele>
        <time>2021-11-13 10:29:54</time>
      </trkpt>
      <trkpt lat="41.58277" lon="2.32415">
        <ele>130</ele>
        <time>2021-11-13 10:29:55</time>
      </trkpt>
      <trkpt lat="41.58274" lon="2.32415">
        <ele>129.4</ele>
        <time>2021-11-13 10:32:19</time>
      </trkpt>
      <trkpt lat="41.58272" lon="2.32414">
        <ele>129.4</ele>
        <time>2021-11-13 10:32:20</time>
      </trkpt>
      <trkpt lat="41.58269" lon="2.32412">
        <ele>129.4</ele>
        <time>2021-11-13 10:32:21</time>
      </trkpt>
      <trkpt lat="41.58266" lon="2.3241">
        <ele>129.4</ele>
        <time>2021-11-13 10:32:22</time>
      </trkpt>
      <trkpt lat="41.58263" lon="2.32408">
        <ele>129.4</ele>
        <time>2021-11-13 10:32:23</time>
      </trkpt>
      <trkpt lat="41.58259" lon="2.32406">
        <ele>129.4</ele>
        <time>2021-11-13 10:32:24</time>
      </trkpt>
      <trkpt lat="41.58254" lon="2.32404">
        <ele>129.4</ele>
        <time>2021-11-13 10:32:25</time>
      </trkpt>
      <trkpt lat="41.5825" lon="2.32402">
        <ele>129.2</ele>
        <time>2021-11-13 10:32:26</time>
      </trkpt>
      <trkpt lat="41.58245" lon="2.324">
        <ele>129.2</ele>
        <time>2021-11-13 10:32:27</time>
      </trkpt>
      <trkpt lat="41.5824" lon="2.32397">
        <ele>129.2</ele>
        <time>2021-11-13 10:32:28</time>
      </trkpt>
      <trkpt lat="41.58236" lon="2.32394">
        <ele>129.2</ele>
        <time>2021-11-13 10:32:29</time>
      </trkpt>
      <trkpt lat="41.5823" lon="2.32391">
        <ele>129.2</ele>
        <time>2021-11-13 10:32:30</time>
      </trkpt>
      <trkpt lat="41.58225" lon="2.32387">
        <ele>129</ele>
        <time>2021-11-13 10:32:31</time>
      </trkpt>
      <trkpt lat="41.58219" lon="2.32383">
        <ele>129</ele>
        <time>2021-11-13 10:32:32</time>
      </trkpt>
      <trkpt lat="41.58215" lon="2.32378">
        <ele>129</ele>
        <time>2021-11-13 10:32:33</time>
      </trkpt>
      <trkpt lat="41.58209" lon="2.32374">
        <ele>129</ele>
        <time>2021-11-13 10:32:34</time>
      </trkpt>
      <trkpt lat="41.58202" lon="2.3237">
        <ele>129</ele>
        <time>2021-11-13 10:32:35</time>
      </trkpt>
      <trkpt lat="41.58197" lon="2.32365">
        <ele>128.8</ele>
        <time>2021-11-13 10:32:36</time>
      </trkpt>
      <trkpt lat="41.58192" lon="2.3236">
        <ele>128.8</ele>
        <time>2021-11-13 10:32:37</time>
      </trkpt>
      <trkpt lat="41.58186" lon="2.32355">
        <ele>128.8</ele>
        <time>2021-11-13 10:32:38</time>
      </trkpt>
      <trkpt lat="41.5818" lon="2.32351">
        <ele>128.8</ele>
        <time>2021-11-13 10:32:39</time>
      </trkpt>
      <trkpt lat="41.58174" lon="2.32346">
        <ele>128.6</ele>
        <time>2021-11-13 10:32:40</time>
      </trkpt>
      <trkpt lat="41.58168" lon="2.32341">
        <ele>128.6</ele>
        <time>2021-11-13 10:32:41</time>
      </trkpt>
      <trkpt lat="41.58161" lon="2.32337">
        <ele>128.6</ele>
        <time>2021-11-13 10:32:42</time>
      </trkpt>
      <trkpt lat="41.58155" lon="2.32332">
        <ele>128.6</ele>
        <time>2021-11-13 10:32:43</time>
      </trkpt>
      <trkpt lat="41.58148" lon="2.32327">
        <ele>128.6</ele>
        <time>2021-11-13 10:32:44</time>
      </trkpt>
      <trkpt lat="41.58142" lon="2.32322">
        <ele>128.6</ele>
        <time>2021-11-13 10:32:45</time>
      </trkpt>
      <trkpt lat="41.58136" lon="2.32317">
        <ele>128.4</ele>
        <time>2021-11-13 10:32:46</time>
      </trkpt>
      <trkpt lat="41.5813" lon="2.32312">
        <ele>128.4</ele>
        <time>2021-11-13 10:32:47</time>
      </trkpt>
      <trkpt lat="41.58123" lon="2.32307">
        <ele>128.4</ele>
        <time>2021-11-13 10:32:48</time>
      </trkpt>
      <trkpt lat="41.58117" lon="2.32303">
        <ele>128.4</ele>
        <time>2021-11-13 10:32:49</time>
      </trkpt>
      <trkpt lat="41.5811" lon="2.32298">
        <ele>128.4</ele>
        <time>2021-11-13 10:32:50</time>
      </trkpt>
      <trkpt lat="41.58104" lon="2.32293">
        <ele>128.4</ele>
        <time>2021-11-13 10:32:51</time>
      </trkpt>
      <trkpt lat="41.58098" lon="2.32288">
        <ele>128.2</ele>
        <time>2021-11-13 10:32:52</time>
      </trkpt>
      <trkpt lat="41.58091" lon="2.32283">
        <ele>128.2</ele>
        <time>2021-11-13 10:32:53</time>
      </trkpt>
      <trkpt lat="41.58085" lon="2.32277">
        <ele>128.2</ele>
        <time>2021-11-13 10:32:54</time>
      </trkpt>
      <trkpt lat="41.58078" lon="2.32272">
        <ele>128.2</ele>
        <time>2021-11-13 10:32:55</time>
      </trkpt>
      <trkpt lat="41.58071" lon="2.32267">
        <ele>128.2</ele>
        <time>2021-11-13 10:32:56</time>
      </trkpt>
      <trkpt lat="41.58064" lon="2.32262">
        <ele>128.2</ele>
        <time>2021-11-13 10:32:57</time>
      </trkpt>
      <trkpt lat="41.58057" lon="2.32257">
        <ele>128.2</ele>
        <time>2021-11-13 10:32:58</time>
      </trkpt>
      <trkpt lat="41.58049" lon="2.32252">
        <ele>128.2</ele>
        <time>2021-11-13 10:32:59</time>
      </trkpt>
      <trkpt lat="41.58042" lon="2.32247">
        <ele>128</ele>
        <time>2021-11-13 10:33:00</time>
      </trkpt>
      <trkpt lat="41.58035" lon="2.32242">
        <ele>128</ele>
        <time>2021-11-13 10:33:01</time>
      </trkpt>
      <trkpt lat="41.58027" lon="2.32236">
        <ele>128</ele>
        <time>2021-11-13 10:33:02</time>
      </trkpt>
      <trkpt lat="41.5802" lon="2.32231">
        <ele>128</ele>
        <time>2021-11-13 10:33:03</time>
      </trkpt>
      <trkpt lat="41.58013" lon="2.32225">
        <ele>127.8</ele>
        <time>2021-11-13 10:33:04</time>
      </trkpt>
      <trkpt lat="41.58005" lon="2.3222">
        <ele>127.8</ele>
        <time>2021-11-13 10:33:05</time>
      </trkpt>
      <trkpt lat="41.57997" lon="2.32215">
        <ele>127.8</ele>
        <time>2021-11-13 10:33:06</time>
      </trkpt>
      <trkpt lat="41.57989" lon="2.32209">
        <ele>127.6</ele>
        <time>2021-11-13 10:33:07</time>
      </trkpt>
      <trkpt lat="41.57982" lon="2.32203">
        <ele>127.4</ele>
        <time>2021-11-13 10:33:08</time>
      </trkpt>
      <trkpt lat="41.57974" lon="2.32198">
        <ele>127.2</ele>
        <time>2021-11-13 10:33:09</time>
      </trkpt>
      <trkpt lat="41.57966" lon="2.32192">
        <ele>127.2</ele>
        <time>2021-11-13 10:33:10</time>
      </trkpt>
      <trkpt lat="41.57959" lon="2.32186">
        <ele>127</ele>
        <time>2021-11-13 10:33:11</time>
      </trkpt>
      <trkpt lat="41.57951" lon="2.32181">
        <ele>127</ele>
        <time>2021-11-13 10:33:12</time>
      </trkpt>
      <trkpt lat="41.57943" lon="2.32175">
        <ele>126.8</ele>
        <time>2021-11-13 10:33:13</time>
      </trkpt>
      <trkpt lat="41.57935" lon="2.32169">
        <ele>126.8</ele>
        <time>2021-11-13 10:33:14</time>
      </trkpt>
      <trkpt lat="41.57928" lon="2.32164">
        <ele>126.8</ele>
        <time>2021-11-13 10:33:15</time>
      </trkpt>
      <trkpt lat="41.5792" lon="2.32158">
        <ele>126.6</ele>
        <time>2021-11-13 10:33:16</time>
      </trkpt>
      <trkpt lat="41.57912" lon="2.32152">
        <ele>126.4</ele>
        <time>2021-11-13 10:33:17</time>
      </trkpt>
      <trkpt lat="41.57904" lon="2.32146">
        <ele>126.2</ele>
        <time>2021-11-13 10:33:18</time>
      </trkpt>
      <trkpt lat="41.57896" lon="2.32141">
        <ele>126.2</ele>
        <time>2021-11-13 10:33:19</time>
      </trkpt>
      <trkpt lat="41.57889" lon="2.32135">
        <ele>126</ele>
        <time>2021-11-13 10:33:20</time>
      </trkpt>
      <trkpt lat="41.57881" lon="2.32129">
        <ele>125.8</ele>
        <time>2021-11-13 10:33:21</time>
      </trkpt>
      <trkpt lat="41.57873" lon="2.32123">
        <ele>125.4</ele>
        <time>2021-11-13 10:33:22</time>
      </trkpt>
      <trkpt lat="41.57866" lon="2.32117">
        <ele>125.2</ele>
        <time>2021-11-13 10:33:23</time>
      </trkpt>
      <trkpt lat="41.57858" lon="2.32112">
        <ele>125.2</ele>
        <time>2021-11-13 10:33:24</time>
      </trkpt>
      <trkpt lat="41.5785" lon="2.32106">
        <ele>125.2</ele>
        <time>2021-11-13 10:33:25</time>
      </trkpt>
      <trkpt lat="41.57843" lon="2.32101">
        <ele>125.2</ele>
        <time>2021-11-13 10:33:26</time>
      </trkpt>
      <trkpt lat="41.57835" lon="2.32095">
        <ele>125</ele>
        <time>2021-11-13 10:33:27</time>
      </trkpt>
      <trkpt lat="41.57828" lon="2.32089">
        <ele>125</ele>
        <time>2021-11-13 10:33:28</time>
      </trkpt>
      <trkpt lat="41.5782" lon="2.32084">
        <ele>125</ele>
        <time>2021-11-13 10:33:29</time>
      </trkpt>
      <trkpt lat="41.57813" lon="2.32078">
        <ele>125</ele>
        <time>2021-11-13 10:33:30</time>
      </trkpt>
      <trkpt lat="41.57805" lon="2.32073">
        <ele>125.2</ele>
        <time>2021-11-13 10:33:31</time>
      </trkpt>
      <trkpt lat="41.57798" lon="2.32067">
        <ele>125</ele>
        <time>2021-11-13 10:33:32</time>
      </trkpt>
      <trkpt lat="41.5779" lon="2.32062">
        <ele>125</ele>
        <time>2021-11-13 10:33:33</time>
      </trkpt>
      <trkpt lat="41.57783" lon="2.32056">
        <ele>125</ele>
        <time>2021-11-13 10:33:34</time>
      </trkpt>
      <trkpt lat="41.57775" lon="2.32051">
        <ele>125</ele>
        <time>2021-11-13 10:33:35</time>
      </trkpt>
      <trkpt lat="41.57768" lon="2.32045">
        <ele>125</ele>
        <time>2021-11-13 10:33:36</time>
      </trkpt>
      <trkpt lat="41.5776" lon="2.3204">
        <ele>125</ele>
        <time>2021-11-13 10:33:37</time>
      </trkpt>
      <trkpt lat="41.57753" lon="2.32034">
        <ele>125</ele>
        <time>2021-11-13 10:33:38</time>
      </trkpt>
      <trkpt lat="41.57746" lon="2.32029">
        <ele>125</ele>
        <time>2021-11-13 10:33:39</time>
      </trkpt>
      <trkpt lat="41.57739" lon="2.32024">
        <ele>125</ele>
        <time>2021-11-13 10:33:40</time>
      </trkpt>
      <trkpt lat="41.57732" lon="2.32018">
        <ele>124.8</ele>
        <time>2021-11-13 10:33:41</time>
      </trkpt>
      <trkpt lat="41.57724" lon="2.32013">
        <ele>124.8</ele>
        <time>2021-11-13 10:33:42</time>
      </trkpt>
      <trkpt lat="41.57717" lon="2.32008">
        <ele>124.8</ele>
        <time>2021-11-13 10:33:43</time>
      </trkpt>
      <trkpt lat="41.5771" lon="2.32003">
        <ele>124.8</ele>
        <time>2021-11-13 10:33:44</time>
      </trkpt>
      <trkpt lat="41.57703" lon="2.31998">
        <ele>124.6</ele>
        <time>2021-11-13 10:33:45</time>
      </trkpt>
      <trkpt lat="41.57696" lon="2.31993">
        <ele>124.6</ele>
        <time>2021-11-13 10:33:46</time>
      </trkpt>
      <trkpt lat="41.57689" lon="2.31988">
        <ele>124.6</ele>
        <time>2021-11-13 10:33:47</time>
      </trkpt>
      <trkpt lat="41.57682" lon="2.31982">
        <ele>124.6</ele>
        <time>2021-11-13 10:33:48</time>
      </trkpt>
      <trkpt lat="41.57675" lon="2.31977">
        <ele>124.4</ele>
        <time>2021-11-13 10:33:49</time>
      </trkpt>
      <trkpt lat="41.57668" lon="2.31972">
        <ele>124.4</ele>
        <time>2021-11-13 10:33:50</time>
      </trkpt>
      <trkpt lat="41.57661" lon="2.31967">
        <ele>124.4</ele>
        <time>2021-11-13 10:33:51</time>
      </trkpt>
      <trkpt lat="41.57655" lon="2.31962">
        <ele>124.4</ele>
        <time>2021-11-13 10:33:52</time>
      </trkpt>
      <trkpt lat="41.57648" lon="2.31957">
        <ele>124.4</ele>
        <time>2021-11-13 10:33:53</time>
      </trkpt>
      <trkpt lat="41.57641" lon="2.31952">
        <ele>124.4</ele>
        <time>2021-11-13 10:33:54</time>
      </trkpt>
      <trkpt lat="41.57633" lon="2.31948">
        <ele>124.4</ele>
        <time>2021-11-13 10:33:55</time>
      </trkpt>
      <trkpt lat="41.57626" lon="2.31944">
        <ele>124.4</ele>
        <time>2021-11-13 10:33:56</time>
      </trkpt>
      <trkpt lat="41.57619" lon="2.3194">
        <ele>124.4</ele>
        <time>2021-11-13 10:33:57</time>
      </trkpt>
      <trkpt lat="41.57611" lon="2.31937">
        <ele>124.4</ele>
        <time>2021-11-13 10:33:58</time>
      </trkpt>
      <trkpt lat="41.57603" lon="2.31933">
        <ele>124.2</ele>
        <time>2021-11-13 10:33:59</time>
      </trkpt>
      <trkpt lat="41.57596" lon="2.3193">
        <ele>124.2</ele>
        <time>2021-11-13 10:34:00</time>
      </trkpt>
      <trkpt lat="41.57587" lon="2.31926">
        <ele>124.2</ele>
        <time>2021-11-13 10:34:01</time>
      </trkpt>
      <trkpt lat="41.57579" lon="2.31922">
        <ele>124.2</ele>
        <time>2021-11-13 10:34:02</time>
      </trkpt>
      <trkpt lat="41.57571" lon="2.31919">
        <ele>124.2</ele>
        <time>2021-11-13 10:34:03</time>
      </trkpt>
      <trkpt lat="41.57562" lon="2.31915">
        <ele>124</ele>
        <time>2021-11-13 10:34:04</time>
      </trkpt>
      <trkpt lat="41.57554" lon="2.31911">
        <ele>124</ele>
        <time>2021-11-13 10:34:05</time>
      </trkpt>
      <trkpt lat="41.57547" lon="2.31908">
        <ele>123.8</ele>
        <time>2021-11-13 10:34:06</time>
      </trkpt>
      <trkpt lat="41.57539" lon="2.31904">
        <ele>123.8</ele>
        <time>2021-11-13 10:34:07</time>
      </trkpt>
      <trkpt lat="41.57528" lon="2.31899">
        <ele>123.6</ele>
        <time>2021-11-13 10:34:08</time>
      </trkpt>
      <trkpt lat="41.5752" lon="2.31895">
        <ele>123.6</ele>
        <time>2021-11-13 10:34:09</time>
      </trkpt>
      <trkpt lat="41.57512" lon="2.31891">
        <ele>123.4</ele>
        <time>2021-11-13 10:34:10</time>
      </trkpt>
      <trkpt lat="41.57505" lon="2.31888">
        <ele>123.4</ele>
        <time>2021-11-13 10:34:11</time>
      </trkpt>
      <trkpt lat="41.57497" lon="2.31883">
        <ele>123.2</ele>
        <time>2021-11-13 10:34:12</time>
      </trkpt>
      <trkpt lat="41.57488" lon="2.31877">
        <ele>123.2</ele>
        <time>2021-11-13 10:34:13</time>
      </trkpt>
      <trkpt lat="41.5748" lon="2.31872">
        <ele>123</ele>
        <time>2021-11-13 10:34:14</time>
      </trkpt>
      <trkpt lat="41.57473" lon="2.31868">
        <ele>122.8</ele>
        <time>2021-11-13 10:34:15</time>
      </trkpt>
      <trkpt lat="41.57465" lon="2.31863">
        <ele>122.8</ele>
        <time>2021-11-13 10:34:16</time>
      </trkpt>
      <trkpt lat="41.57457" lon="2.31858">
        <ele>122.8</ele>
        <time>2021-11-13 10:34:17</time>
      </trkpt>
      <trkpt lat="41.57448" lon="2.31852">
        <ele>122.6</ele>
        <time>2021-11-13 10:34:18</time>
      </trkpt>
      <trkpt lat="41.5744" lon="2.31847">
        <ele>122.6</ele>
        <time>2021-11-13 10:34:19</time>
      </trkpt>
      <trkpt lat="41.57434" lon="2.31843">
        <ele>122.4</ele>
        <time>2021-11-13 10:34:20</time>
      </trkpt>
      <trkpt lat="41.57425" lon="2.31837">
        <ele>122.4</ele>
        <time>2021-11-13 10:34:21</time>
      </trkpt>
      <trkpt lat="41.57417" lon="2.31832">
        <ele>122.2</ele>
        <time>2021-11-13 10:34:22</time>
      </trkpt>
      <trkpt lat="41.57409" lon="2.31827">
        <ele>122.2</ele>
        <time>2021-11-13 10:34:23</time>
      </trkpt>
      <trkpt lat="41.57401" lon="2.31822">
        <ele>122</ele>
        <time>2021-11-13 10:34:24</time>
      </trkpt>
      <trkpt lat="41.57395" lon="2.31818">
        <ele>122</ele>
        <time>2021-11-13 10:34:25</time>
      </trkpt>
      <trkpt lat="41.57386" lon="2.31812">
        <ele>121.8</ele>
        <time>2021-11-13 10:34:26</time>
      </trkpt>
      <trkpt lat="41.57378" lon="2.31807">
        <ele>121.8</ele>
        <time>2021-11-13 10:34:27</time>
      </trkpt>
      <trkpt lat="41.5737" lon="2.31802">
        <ele>121.8</ele>
        <time>2021-11-13 10:34:28</time>
      </trkpt>
      <trkpt lat="41.57362" lon="2.31797">
        <ele>121.8</ele>
        <time>2021-11-13 10:34:29</time>
      </trkpt>
      <trkpt lat="41.57354" lon="2.31792">
        <ele>121.8</ele>
        <time>2021-11-13 10:34:30</time>
      </trkpt>
      <trkpt lat="41.57346" lon="2.31786">
        <ele>121.8</ele>
        <time>2021-11-13 10:34:31</time>
      </trkpt>
      <trkpt lat="41.57337" lon="2.31781">
        <ele>121.6</ele>
        <time>2021-11-13 10:34:32</time>
      </trkpt>
      <trkpt lat="41.57329" lon="2.31776">
        <ele>121.6</ele>
        <time>2021-11-13 10:34:33</time>
      </trkpt>
      <trkpt lat="41.57321" lon="2.31771">
        <ele>121.6</ele>
        <time>2021-11-13 10:34:34</time>
      </trkpt>
      <trkpt lat="41.57315" lon="2.31767">
        <ele>121.4</ele>
        <time>2021-11-13 10:34:35</time>
      </trkpt>
      <trkpt lat="41.57305" lon="2.31761">
        <ele>121.2</ele>
        <time>2021-11-13 10:34:36</time>
      </trkpt>
      <trkpt lat="41.57297" lon="2.31756">
        <ele>120.8</ele>
        <time>2021-11-13 10:34:37</time>
      </trkpt>
      <trkpt lat="41.57289" lon="2.31751">
        <ele>120.8</ele>
        <time>2021-11-13 10:34:38</time>
      </trkpt>
      <trkpt lat="41.57281" lon="2.31746">
        <ele>120.6</ele>
        <time>2021-11-13 10:34:39</time>
      </trkpt>
      <trkpt lat="41.57273" lon="2.31741">
        <ele>120.6</ele>
        <time>2021-11-13 10:34:40</time>
      </trkpt>
      <trkpt lat="41.57265" lon="2.31736">
        <ele>120.6</ele>
        <time>2021-11-13 10:34:41</time>
      </trkpt>
      <trkpt lat="41.57257" lon="2.31731">
        <ele>120.4</ele>
        <time>2021-11-13 10:34:42</time>
      </trkpt>
      <trkpt lat="41.57249" lon="2.31726">
        <ele>120.4</ele>
        <time>2021-11-13 10:34:43</time>
      </trkpt>
      <trkpt lat="41.57241" lon="2.31721">
        <ele>120.4</ele>
        <time>2021-11-13 10:34:44</time>
      </trkpt>
      <trkpt lat="41.57233" lon="2.31716">
        <ele>120.2</ele>
        <time>2021-11-13 10:34:45</time>
      </trkpt>
      <trkpt lat="41.57225" lon="2.31711">
        <ele>120.2</ele>
        <time>2021-11-13 10:34:46</time>
      </trkpt>
      <trkpt lat="41.57218" lon="2.31706">
        <ele>120.2</ele>
        <time>2021-11-13 10:34:47</time>
      </trkpt>
      <trkpt lat="41.5721" lon="2.31701">
        <ele>120.2</ele>
        <time>2021-11-13 10:34:48</time>
      </trkpt>
      <trkpt lat="41.57203" lon="2.31696">
        <ele>120.2</ele>
        <time>2021-11-13 10:34:49</time>
      </trkpt>
      <trkpt lat="41.57196" lon="2.31692">
        <ele>120.2</ele>
        <time>2021-11-13 10:34:50</time>
      </trkpt>
      <trkpt lat="41.57189" lon="2.31687">
        <ele>120.2</ele>
        <time>2021-11-13 10:34:51</time>
      </trkpt>
      <trkpt lat="41.57182" lon="2.31683">
        <ele>120.2</ele>
        <time>2021-11-13 10:34:52</time>
      </trkpt>
      <trkpt lat="41.57175" lon="2.31678">
        <ele>120.2</ele>
        <time>2021-11-13 10:34:53</time>
      </trkpt>
      <trkpt lat="41.57168" lon="2.31674">
        <ele>120.2</ele>
        <time>2021-11-13 10:34:54</time>
      </trkpt>
      <trkpt lat="41.5716" lon="2.3167">
        <ele>120.2</ele>
        <time>2021-11-13 10:34:55</time>
      </trkpt>
      <trkpt lat="41.57153" lon="2.31666">
        <ele>120.2</ele>
        <time>2021-11-13 10:34:56</time>
      </trkpt>
      <trkpt lat="41.57145" lon="2.31662">
        <ele>120.4</ele>
        <time>2021-11-13 10:34:57</time>
      </trkpt>
      <trkpt lat="41.57137" lon="2.31659">
        <ele>120.6</ele>
        <time>2021-11-13 10:34:58</time>
      </trkpt>
      <trkpt lat="41.57129" lon="2.31655">
        <ele>120.6</ele>
        <time>2021-11-13 10:34:59</time>
      </trkpt>
      <trkpt lat="41.57122" lon="2.31652">
        <ele>120.6</ele>
        <time>2021-11-13 10:35:00</time>
      </trkpt>
      <trkpt lat="41.57114" lon="2.31649">
        <ele>120.6</ele>
        <time>2021-11-13 10:35:01</time>
      </trkpt>
      <trkpt lat="41.57107" lon="2.31646">
        <ele>120.8</ele>
        <time>2021-11-13 10:35:02</time>
      </trkpt>
      <trkpt lat="41.57099" lon="2.31642">
        <ele>120.8</ele>
        <time>2021-11-13 10:35:03</time>
      </trkpt>
      <trkpt lat="41.57092" lon="2.31639">
        <ele>121</ele>
        <time>2021-11-13 10:35:04</time>
      </trkpt>
      <trkpt lat="41.57085" lon="2.31636">
        <ele>121</ele>
        <time>2021-11-13 10:35:05</time>
      </trkpt>
      <trkpt lat="41.57077" lon="2.31633">
        <ele>121</ele>
        <time>2021-11-13 10:35:06</time>
      </trkpt>
      <trkpt lat="41.5707" lon="2.3163">
        <ele>121</ele>
        <time>2021-11-13 10:35:07</time>
      </trkpt>
      <trkpt lat="41.57063" lon="2.31627">
        <ele>121</ele>
        <time>2021-11-13 10:35:08</time>
      </trkpt>
      <trkpt lat="41.57055" lon="2.31624">
        <ele>121</ele>
        <time>2021-11-13 10:35:09</time>
      </trkpt>
      <trkpt lat="41.57048" lon="2.3162">
        <ele>121</ele>
        <time>2021-11-13 10:35:10</time>
      </trkpt>
      <trkpt lat="41.57041" lon="2.31617">
        <ele>121.2</ele>
        <time>2021-11-13 10:35:11</time>
      </trkpt>
      <trkpt lat="41.57034" lon="2.31614">
        <ele>121.2</ele>
        <time>2021-11-13 10:35:12</time>
      </trkpt>
      <trkpt lat="41.57026" lon="2.31611">
        <ele>121.2</ele>
        <time>2021-11-13 10:35:13</time>
      </trkpt>
      <trkpt lat="41.57018" lon="2.31607">
        <ele>121.2</ele>
        <time>2021-11-13 10:35:14</time>
      </trkpt>
      <trkpt lat="41.57011" lon="2.31604">
        <ele>121.4</ele>
        <time>2021-11-13 10:35:15</time>
      </trkpt>
      <trkpt lat="41.57003" lon="2.31601">
        <ele>121.4</ele>
        <time>2021-11-13 10:35:16</time>
      </trkpt>
      <trkpt lat="41.56996" lon="2.31597">
        <ele>121.4</ele>
        <time>2021-11-13 10:35:17</time>
      </trkpt>
      <trkpt lat="41.56989" lon="2.31594">
        <ele>121.6</ele>
        <time>2021-11-13 10:35:18</time>
      </trkpt>
      <trkpt lat="41.56981" lon="2.31591">
        <ele>121.6</ele>
        <time>2021-11-13 10:35:19</time>
      </trkpt>
      <trkpt lat="41.56974" lon="2.31588">
        <ele>121.6</ele>
        <time>2021-11-13 10:35:20</time>
      </trkpt>
      <trkpt lat="41.56966" lon="2.31584">
        <ele>121.6</ele>
        <time>2021-11-13 10:35:21</time>
      </trkpt>
      <trkpt lat="41.56958" lon="2.31581">
        <ele>121.6</ele>
        <time>2021-11-13 10:35:22</time>
      </trkpt>
      <trkpt lat="41.56951" lon="2.31577">
        <ele>121.6</ele>
        <time>2021-11-13 10:35:23</time>
      </trkpt>
      <trkpt lat="41.56943" lon="2.31573">
        <ele>121.6</ele>
        <time>2021-11-13 10:35:24</time>
      </trkpt>
      <trkpt lat="41.56936" lon="2.31569">
        <ele>121.8</ele>
        <time>2021-11-13 10:35:25</time>
      </trkpt>
      <trkpt lat="41.56928" lon="2.31565">
        <ele>121.8</ele>
        <time>2021-11-13 10:35:26</time>
      </trkpt>
      <trkpt lat="41.56921" lon="2.3156">
        <ele>121.8</ele>
        <time>2021-11-13 10:35:27</time>
      </trkpt>
      <trkpt lat="41.56914" lon="2.31555">
        <ele>121.8</ele>
        <time>2021-11-13 10:35:28</time>
      </trkpt>
      <trkpt lat="41.56908" lon="2.3155">
        <ele>121.8</ele>
        <time>2021-11-13 10:35:29</time>
      </trkpt>
      <trkpt lat="41.56901" lon="2.31545">
        <ele>121.8</ele>
        <time>2021-11-13 10:35:30</time>
      </trkpt>
      <trkpt lat="41.56894" lon="2.3154">
        <ele>121.8</ele>
        <time>2021-11-13 10:35:31</time>
      </trkpt>
      <trkpt lat="41.56887" lon="2.31535">
        <ele>122</ele>
        <time>2021-11-13 10:35:32</time>
      </trkpt>
      <trkpt lat="41.5688" lon="2.3153">
        <ele>122</ele>
        <time>2021-11-13 10:35:33</time>
      </trkpt>
      <trkpt lat="41.56873" lon="2.31525">
        <ele>122</ele>
        <time>2021-11-13 10:35:34</time>
      </trkpt>
      <trkpt lat="41.56866" lon="2.3152">
        <ele>122</ele>
        <time>2021-11-13 10:35:35</time>
      </trkpt>
      <trkpt lat="41.56859" lon="2.31515">
        <ele>122.2</ele>
        <time>2021-11-13 10:35:36</time>
      </trkpt>
      <trkpt lat="41.56853" lon="2.31511">
        <ele>122.2</ele>
        <time>2021-11-13 10:35:37</time>
      </trkpt>
      <trkpt lat="41.56846" lon="2.31505">
        <ele>122.2</ele>
        <time>2021-11-13 10:35:38</time>
      </trkpt>
      <trkpt lat="41.56839" lon="2.315">
        <ele>122.2</ele>
        <time>2021-11-13 10:35:39</time>
      </trkpt>
      <trkpt lat="41.56832" lon="2.31495">
        <ele>122.2</ele>
        <time>2021-11-13 10:35:40</time>
      </trkpt>
      <trkpt lat="41.56825" lon="2.3149">
        <ele>122.2</ele>
        <time>2021-11-13 10:35:41</time>
      </trkpt>
      <trkpt lat="41.56818" lon="2.31485">
        <ele>122.2</ele>
        <time>2021-11-13 10:35:42</time>
      </trkpt>
      <trkpt lat="41.56811" lon="2.3148">
        <ele>122.2</ele>
        <time>2021-11-13 10:35:43</time>
      </trkpt>
      <trkpt lat="41.56804" lon="2.31475">
        <ele>122.2</ele>
        <time>2021-11-13 10:35:44</time>
      </trkpt>
      <trkpt lat="41.56797" lon="2.3147">
        <ele>122.2</ele>
        <time>2021-11-13 10:35:45</time>
      </trkpt>
      <trkpt lat="41.5679" lon="2.31465">
        <ele>122.2</ele>
        <time>2021-11-13 10:35:46</time>
      </trkpt>
      <trkpt lat="41.56783" lon="2.31459">
        <ele>122.2</ele>
        <time>2021-11-13 10:35:47</time>
      </trkpt>
      <trkpt lat="41.56777" lon="2.31454">
        <ele>122.2</ele>
        <time>2021-11-13 10:35:48</time>
      </trkpt>
      <trkpt lat="41.5677" lon="2.31449">
        <ele>122.4</ele>
        <time>2021-11-13 10:35:49</time>
      </trkpt>
      <trkpt lat="41.56763" lon="2.31444">
        <ele>122.4</ele>
        <time>2021-11-13 10:35:50</time>
      </trkpt>
      <trkpt lat="41.56756" lon="2.31439">
        <ele>122.4</ele>
        <time>2021-11-13 10:35:51</time>
      </trkpt>
      <trkpt lat="41.56749" lon="2.31434">
        <ele>122.6</ele>
        <time>2021-11-13 10:35:52</time>
      </trkpt>
      <trkpt lat="41.56743" lon="2.31429">
        <ele>122.6</ele>
        <time>2021-11-13 10:35:53</time>
      </trkpt>
      <trkpt lat="41.56736" lon="2.31423">
        <ele>122.8</ele>
        <time>2021-11-13 10:35:54</time>
      </trkpt>
      <trkpt lat="41.56729" lon="2.31418">
        <ele>122.8</ele>
        <time>2021-11-13 10:35:55</time>
      </trkpt>
      <trkpt lat="41.56722" lon="2.31414">
        <ele>123</ele>
        <time>2021-11-13 10:35:56</time>
      </trkpt>
      <trkpt lat="41.56715" lon="2.31409">
        <ele>123</ele>
        <time>2021-11-13 10:35:57</time>
      </trkpt>
      <trkpt lat="41.56708" lon="2.31404">
        <ele>123.2</ele>
        <time>2021-11-13 10:35:58</time>
      </trkpt>
      <trkpt lat="41.56701" lon="2.31399">
        <ele>123.2</ele>
        <time>2021-11-13 10:35:59</time>
      </trkpt>
      <trkpt lat="41.56694" lon="2.31394">
        <ele>123.2</ele>
        <time>2021-11-13 10:36:00</time>
      </trkpt>
      <trkpt lat="41.56687" lon="2.31389">
        <ele>123.4</ele>
        <time>2021-11-13 10:36:01</time>
      </trkpt>
      <trkpt lat="41.56681" lon="2.31384">
        <ele>123.6</ele>
        <time>2021-11-13 10:36:02</time>
      </trkpt>
      <trkpt lat="41.56674" lon="2.31379">
        <ele>123.6</ele>
        <time>2021-11-13 10:36:03</time>
      </trkpt>
      <trkpt lat="41.56667" lon="2.31373">
        <ele>123.8</ele>
        <time>2021-11-13 10:36:04</time>
      </trkpt>
      <trkpt lat="41.5666" lon="2.31368">
        <ele>123.8</ele>
        <time>2021-11-13 10:36:05</time>
      </trkpt>
      <trkpt lat="41.56654" lon="2.31363">
        <ele>123.8</ele>
        <time>2021-11-13 10:36:06</time>
      </trkpt>
      <trkpt lat="41.56647" lon="2.31358">
        <ele>124</ele>
        <time>2021-11-13 10:36:07</time>
      </trkpt>
      <trkpt lat="41.56639" lon="2.31352">
        <ele>124</ele>
        <time>2021-11-13 10:36:08</time>
      </trkpt>
      <trkpt lat="41.56633" lon="2.31346">
        <ele>124</ele>
        <time>2021-11-13 10:36:09</time>
      </trkpt>
      <trkpt lat="41.56626" lon="2.3134">
        <ele>124.2</ele>
        <time>2021-11-13 10:36:10</time>
      </trkpt>
      <trkpt lat="41.56621" lon="2.31335">
        <ele>124.2</ele>
        <time>2021-11-13 10:36:11</time>
      </trkpt>
      <trkpt lat="41.56613" lon="2.31326">
        <ele>124.2</ele>
        <time>2021-11-13 10:36:12</time>
      </trkpt>
      <trkpt lat="41.56608" lon="2.31318">
        <ele>124.2</ele>
        <time>2021-11-13 10:36:13</time>
      </trkpt>
      <trkpt lat="41.56603" lon="2.31308">
        <ele>124.2</ele>
        <time>2021-11-13 10:36:14</time>
      </trkpt>
      <trkpt lat="41.56599" lon="2.31298">
        <ele>124.4</ele>
        <time>2021-11-13 10:36:15</time>
      </trkpt>
      <trkpt lat="41.56595" lon="2.31287">
        <ele>124.4</ele>
        <time>2021-11-13 10:36:16</time>
      </trkpt>
      <trkpt lat="41.56591" lon="2.31276">
        <ele>124.2</ele>
        <time>2021-11-13 10:36:17</time>
      </trkpt>
      <trkpt lat="41.56587" lon="2.31265">
        <ele>124</ele>
        <time>2021-11-13 10:36:18</time>
      </trkpt>
      <trkpt lat="41.56583" lon="2.31254">
        <ele>124</ele>
        <time>2021-11-13 10:36:19</time>
      </trkpt>
      <trkpt lat="41.56579" lon="2.31246">
        <ele>124</ele>
        <time>2021-11-13 10:36:20</time>
      </trkpt>
      <trkpt lat="41.56574" lon="2.31233">
        <ele>123.8</ele>
        <time>2021-11-13 10:36:21</time>
      </trkpt>
      <trkpt lat="41.5657" lon="2.31225">
        <ele>123.6</ele>
        <time>2021-11-13 10:36:22</time>
      </trkpt>
      <trkpt lat="41.56565" lon="2.31212">
        <ele>123.4</ele>
        <time>2021-11-13 10:36:23</time>
      </trkpt>
      <trkpt lat="41.56561" lon="2.31203">
        <ele>123.2</ele>
        <time>2021-11-13 10:36:24</time>
      </trkpt>
      <trkpt lat="41.56555" lon="2.31191">
        <ele>123</ele>
        <time>2021-11-13 10:36:25</time>
      </trkpt>
      <trkpt lat="41.5655" lon="2.3118">
        <ele>122.8</ele>
        <time>2021-11-13 10:36:26</time>
      </trkpt>
      <trkpt lat="41.56546" lon="2.31169">
        <ele>122.6</ele>
        <time>2021-11-13 10:36:27</time>
      </trkpt>
      <trkpt lat="41.56541" lon="2.31159">
        <ele>122.6</ele>
        <time>2021-11-13 10:36:28</time>
      </trkpt>
      <trkpt lat="41.56535" lon="2.31149">
        <ele>122.4</ele>
        <time>2021-11-13 10:36:29</time>
      </trkpt>
      <trkpt lat="41.5653" lon="2.31139">
        <ele>122.2</ele>
        <time>2021-11-13 10:36:30</time>
      </trkpt>
      <trkpt lat="41.56524" lon="2.31129">
        <ele>122.2</ele>
        <time>2021-11-13 10:36:31</time>
      </trkpt>
      <trkpt lat="41.56518" lon="2.31119">
        <ele>122.2</ele>
        <time>2021-11-13 10:36:32</time>
      </trkpt>
      <trkpt lat="41.56513" lon="2.31109">
        <ele>121.8</ele>
        <time>2021-11-13 10:36:33</time>
      </trkpt>
      <trkpt lat="41.56507" lon="2.31099">
        <ele>121.8</ele>
        <time>2021-11-13 10:36:34</time>
      </trkpt>
      <trkpt lat="41.56501" lon="2.31089">
        <ele>121.4</ele>
        <time>2021-11-13 10:36:35</time>
      </trkpt>
      <trkpt lat="41.56496" lon="2.31082">
        <ele>121.2</ele>
        <time>2021-11-13 10:36:36</time>
      </trkpt>
      <trkpt lat="41.5649" lon="2.31072">
        <ele>121</ele>
        <time>2021-11-13 10:36:37</time>
      </trkpt>
      <trkpt lat="41.56483" lon="2.3106">
        <ele>120.8</ele>
        <time>2021-11-13 10:36:38</time>
      </trkpt>
      <trkpt lat="41.56478" lon="2.31051">
        <ele>120.6</ele>
        <time>2021-11-13 10:36:39</time>
      </trkpt>
      <trkpt lat="41.56471" lon="2.31039">
        <ele>120.4</ele>
        <time>2021-11-13 10:36:40</time>
      </trkpt>
      <trkpt lat="41.56466" lon="2.31031">
        <ele>120.2</ele>
        <time>2021-11-13 10:36:41</time>
      </trkpt>
      <trkpt lat="41.5646" lon="2.31022">
        <ele>120.2</ele>
        <time>2021-11-13 10:36:42</time>
      </trkpt>
      <trkpt lat="41.56453" lon="2.3101">
        <ele>120</ele>
        <time>2021-11-13 10:36:43</time>
      </trkpt>
      <trkpt lat="41.56448" lon="2.31">
        <ele>119.8</ele>
        <time>2021-11-13 10:36:44</time>
      </trkpt>
      <trkpt lat="41.56443" lon="2.3099">
        <ele>119.6</ele>
        <time>2021-11-13 10:36:45</time>
      </trkpt>
      <trkpt lat="41.56439" lon="2.30979">
        <ele>119.4</ele>
        <time>2021-11-13 10:36:46</time>
      </trkpt>
      <trkpt lat="41.56435" lon="2.30968">
        <ele>119.4</ele>
        <time>2021-11-13 10:36:47</time>
      </trkpt>
      <trkpt lat="41.56432" lon="2.30957">
        <ele>119.2</ele>
        <time>2021-11-13 10:36:48</time>
      </trkpt>
      <trkpt lat="41.56431" lon="2.30945">
        <ele>119</ele>
        <time>2021-11-13 10:36:49</time>
      </trkpt>
      <trkpt lat="41.56429" lon="2.30933">
        <ele>119</ele>
        <time>2021-11-13 10:36:50</time>
      </trkpt>
      <trkpt lat="41.56428" lon="2.30922">
        <ele>118.8</ele>
        <time>2021-11-13 10:36:51</time>
      </trkpt>
      <trkpt lat="41.56426" lon="2.3091">
        <ele>118.8</ele>
        <time>2021-11-13 10:36:52</time>
      </trkpt>
      <trkpt lat="41.56425" lon="2.30898">
        <ele>118.6</ele>
        <time>2021-11-13 10:36:53</time>
      </trkpt>
      <trkpt lat="41.56425" lon="2.30886">
        <ele>118.6</ele>
        <time>2021-11-13 10:36:54</time>
      </trkpt>
      <trkpt lat="41.56425" lon="2.30875">
        <ele>118.6</ele>
        <time>2021-11-13 10:36:55</time>
      </trkpt>
      <trkpt lat="41.56425" lon="2.30863">
        <ele>118.6</ele>
        <time>2021-11-13 10:36:56</time>
      </trkpt>
      <trkpt lat="41.56427" lon="2.30852">
        <ele>118.6</ele>
        <time>2021-11-13 10:36:57</time>
      </trkpt>
      <trkpt lat="41.56429" lon="2.30841">
        <ele>118.6</ele>
        <time>2021-11-13 10:36:58</time>
      </trkpt>
      <trkpt lat="41.56432" lon="2.30831">
        <ele>118.6</ele>
        <time>2021-11-13 10:36:59</time>
      </trkpt>
      <trkpt lat="41.56434" lon="2.3082">
        <ele>118.6</ele>
        <time>2021-11-13 10:37:00</time>
      </trkpt>
      <trkpt lat="41.56436" lon="2.30808">
        <ele>118.4</ele>
        <time>2021-11-13 10:37:01</time>
      </trkpt>
      <trkpt lat="41.56437" lon="2.30797">
        <ele>118.4</ele>
        <time>2021-11-13 10:37:02</time>
      </trkpt>
      <trkpt lat="41.56438" lon="2.30787">
        <ele>118.4</ele>
        <time>2021-11-13 10:37:03</time>
      </trkpt>
      <trkpt lat="41.56438" lon="2.30775">
        <ele>118.4</ele>
        <time>2021-11-13 10:37:04</time>
      </trkpt>
      <trkpt lat="41.56437" lon="2.30764">
        <ele>118.4</ele>
        <time>2021-11-13 10:37:05</time>
      </trkpt>
      <trkpt lat="41.56434" lon="2.30753">
        <ele>118.4</ele>
        <time>2021-11-13 10:37:06</time>
      </trkpt>
      <trkpt lat="41.56431" lon="2.30743">
        <ele>118.4</ele>
        <time>2021-11-13 10:37:07</time>
      </trkpt>
      <trkpt lat="41.56426" lon="2.30734">
        <ele>118.4</ele>
        <time>2021-11-13 10:37:08</time>
      </trkpt>
      <trkpt lat="41.5642" lon="2.30726">
        <ele>118.4</ele>
        <time>2021-11-13 10:37:09</time>
      </trkpt>
      <trkpt lat="41.56414" lon="2.30718">
        <ele>118.4</ele>
        <time>2021-11-13 10:37:10</time>
      </trkpt>
      <trkpt lat="41.56408" lon="2.30711">
        <ele>118.4</ele>
        <time>2021-11-13 10:37:11</time>
      </trkpt>
      <trkpt lat="41.56401" lon="2.30704">
        <ele>118.4</ele>
        <time>2021-11-13 10:37:12</time>
      </trkpt>
      <trkpt lat="41.56395" lon="2.30696">
        <ele>118.4</ele>
        <time>2021-11-13 10:37:13</time>
      </trkpt>
      <trkpt lat="41.56389" lon="2.30689">
        <ele>118.4</ele>
        <time>2021-11-13 10:37:14</time>
      </trkpt>
      <trkpt lat="41.56383" lon="2.30682">
        <ele>118.4</ele>
        <time>2021-11-13 10:37:15</time>
      </trkpt>
      <trkpt lat="41.56378" lon="2.30676">
        <ele>118.4</ele>
        <time>2021-11-13 10:37:16</time>
      </trkpt>
      <trkpt lat="41.56373" lon="2.30668">
        <ele>118.4</ele>
        <time>2021-11-13 10:37:17</time>
      </trkpt>
      <trkpt lat="41.56366" lon="2.30658">
        <ele>118.4</ele>
        <time>2021-11-13 10:37:18</time>
      </trkpt>
      <trkpt lat="41.56361" lon="2.30649">
        <ele>118.4</ele>
        <time>2021-11-13 10:37:19</time>
      </trkpt>
      <trkpt lat="41.56355" lon="2.30641">
        <ele>118.4</ele>
        <time>2021-11-13 10:37:20</time>
      </trkpt>
      <trkpt lat="41.56348" lon="2.30634">
        <ele>118.4</ele>
        <time>2021-11-13 10:37:21</time>
      </trkpt>
      <trkpt lat="41.56342" lon="2.30627">
        <ele>118.6</ele>
        <time>2021-11-13 10:37:22</time>
      </trkpt>
      <trkpt lat="41.56335" lon="2.3062">
        <ele>118.6</ele>
        <time>2021-11-13 10:37:23</time>
      </trkpt>
      <trkpt lat="41.56328" lon="2.30614">
        <ele>118.6</ele>
        <time>2021-11-13 10:37:24</time>
      </trkpt>
      <trkpt lat="41.56321" lon="2.30608">
        <ele>118.6</ele>
        <time>2021-11-13 10:37:25</time>
      </trkpt>
      <trkpt lat="41.56313" lon="2.30603">
        <ele>118.6</ele>
        <time>2021-11-13 10:37:26</time>
      </trkpt>
      <trkpt lat="41.56304" lon="2.30599">
        <ele>118.6</ele>
        <time>2021-11-13 10:37:27</time>
      </trkpt>
      <trkpt lat="41.56297" lon="2.30594">
        <ele>118.6</ele>
        <time>2021-11-13 10:37:28</time>
      </trkpt>
      <trkpt lat="41.56289" lon="2.30591">
        <ele>118.6</ele>
        <time>2021-11-13 10:37:29</time>
      </trkpt>
      <trkpt lat="41.5628" lon="2.30588">
        <ele>118.6</ele>
        <time>2021-11-13 10:37:30</time>
      </trkpt>
      <trkpt lat="41.56271" lon="2.30585">
        <ele>118.6</ele>
        <time>2021-11-13 10:37:31</time>
      </trkpt>
      <trkpt lat="41.56263" lon="2.30582">
        <ele>118.4</ele>
        <time>2021-11-13 10:37:32</time>
      </trkpt>
      <trkpt lat="41.56254" lon="2.30579">
        <ele>118.4</ele>
        <time>2021-11-13 10:37:33</time>
      </trkpt>
      <trkpt lat="41.56245" lon="2.30577">
        <ele>118.4</ele>
        <time>2021-11-13 10:37:34</time>
      </trkpt>
      <trkpt lat="41.56236" lon="2.30575">
        <ele>118.2</ele>
        <time>2021-11-13 10:37:35</time>
      </trkpt>
      <trkpt lat="41.56226" lon="2.30575">
        <ele>118.2</ele>
        <time>2021-11-13 10:37:36</time>
      </trkpt>
      <trkpt lat="41.56217" lon="2.30577">
        <ele>118</ele>
        <time>2021-11-13 10:37:37</time>
      </trkpt>
      <trkpt lat="41.56209" lon="2.3058">
        <ele>118</ele>
        <time>2021-11-13 10:37:38</time>
      </trkpt>
      <trkpt lat="41.56201" lon="2.30585">
        <ele>117.8</ele>
        <time>2021-11-13 10:37:39</time>
      </trkpt>
      <trkpt lat="41.56193" lon="2.30591">
        <ele>117.6</ele>
        <time>2021-11-13 10:37:40</time>
      </trkpt>
      <trkpt lat="41.56186" lon="2.30599">
        <ele>117.4</ele>
        <time>2021-11-13 10:37:41</time>
      </trkpt>
      <trkpt lat="41.5618" lon="2.30607">
        <ele>117</ele>
        <time>2021-11-13 10:37:42</time>
      </trkpt>
      <trkpt lat="41.56173" lon="2.30615">
        <ele>117</ele>
        <time>2021-11-13 10:37:43</time>
      </trkpt>
      <trkpt lat="41.56167" lon="2.30622">
        <ele>116.6</ele>
        <time>2021-11-13 10:37:44</time>
      </trkpt>
      <trkpt lat="41.56159" lon="2.30629">
        <ele>116.6</ele>
        <time>2021-11-13 10:37:45</time>
      </trkpt>
      <trkpt lat="41.56151" lon="2.30634">
        <ele>116.4</ele>
        <time>2021-11-13 10:37:46</time>
      </trkpt>
      <trkpt lat="41.56143" lon="2.30637">
        <ele>116.2</ele>
        <time>2021-11-13 10:37:47</time>
      </trkpt>
      <trkpt lat="41.56134" lon="2.30639">
        <ele>115.8</ele>
        <time>2021-11-13 10:37:48</time>
      </trkpt>
      <trkpt lat="41.56126" lon="2.30638">
        <ele>115.6</ele>
        <time>2021-11-13 10:37:49</time>
      </trkpt>
      <trkpt lat="41.56118" lon="2.30634">
        <ele>115.6</ele>
        <time>2021-11-13 10:37:50</time>
      </trkpt>
      <trkpt lat="41.56112" lon="2.30627">
        <ele>115.4</ele>
        <time>2021-11-13 10:37:51</time>
      </trkpt>
      <trkpt lat="41.56106" lon="2.30619">
        <ele>115.2</ele>
        <time>2021-11-13 10:37:52</time>
      </trkpt>
      <trkpt lat="41.56102" lon="2.30611">
        <ele>115.2</ele>
        <time>2021-11-13 10:37:53</time>
      </trkpt>
      <trkpt lat="41.56099" lon="2.30601">
        <ele>115.2</ele>
        <time>2021-11-13 10:37:54</time>
      </trkpt>
      <trkpt lat="41.56095" lon="2.30592">
        <ele>115</ele>
        <time>2021-11-13 10:37:55</time>
      </trkpt>
      <trkpt lat="41.56092" lon="2.30582">
        <ele>115.2</ele>
        <time>2021-11-13 10:37:56</time>
      </trkpt>
      <trkpt lat="41.56089" lon="2.30572">
        <ele>115</ele>
        <time>2021-11-13 10:37:57</time>
      </trkpt>
      <trkpt lat="41.56086" lon="2.30562">
        <ele>114.8</ele>
        <time>2021-11-13 10:37:58</time>
      </trkpt>
      <trkpt lat="41.56083" lon="2.30552">
        <ele>114.8</ele>
        <time>2021-11-13 10:37:59</time>
      </trkpt>
      <trkpt lat="41.5608" lon="2.30542">
        <ele>114.8</ele>
        <time>2021-11-13 10:38:00</time>
      </trkpt>
      <trkpt lat="41.56077" lon="2.30531">
        <ele>114.8</ele>
        <time>2021-11-13 10:38:01</time>
      </trkpt>
      <trkpt lat="41.56074" lon="2.30521">
        <ele>115</ele>
        <time>2021-11-13 10:38:02</time>
      </trkpt>
      <trkpt lat="41.56071" lon="2.3051">
        <ele>115</ele>
        <time>2021-11-13 10:38:03</time>
      </trkpt>
      <trkpt lat="41.56068" lon="2.305">
        <ele>115</ele>
        <time>2021-11-13 10:38:04</time>
      </trkpt>
      <trkpt lat="41.56065" lon="2.3049">
        <ele>115</ele>
        <time>2021-11-13 10:38:05</time>
      </trkpt>
      <trkpt lat="41.56062" lon="2.30479">
        <ele>115</ele>
        <time>2021-11-13 10:38:06</time>
      </trkpt>
      <trkpt lat="41.5606" lon="2.30471">
        <ele>115.2</ele>
        <time>2021-11-13 10:38:07</time>
      </trkpt>
      <trkpt lat="41.56056" lon="2.3046">
        <ele>115.2</ele>
        <time>2021-11-13 10:38:08</time>
      </trkpt>
      <trkpt lat="41.56053" lon="2.3045">
        <ele>115.2</ele>
        <time>2021-11-13 10:38:09</time>
      </trkpt>
      <trkpt lat="41.5605" lon="2.3044">
        <ele>115.2</ele>
        <time>2021-11-13 10:38:10</time>
      </trkpt>
      <trkpt lat="41.56047" lon="2.3043">
        <ele>115.2</ele>
        <time>2021-11-13 10:38:11</time>
      </trkpt>
      <trkpt lat="41.56045" lon="2.30422">
        <ele>115.2</ele>
        <time>2021-11-13 10:38:12</time>
      </trkpt>
      <trkpt lat="41.56041" lon="2.3041">
        <ele>115.2</ele>
        <time>2021-11-13 10:38:13</time>
      </trkpt>
      <trkpt lat="41.56038" lon="2.304">
        <ele>115.2</ele>
        <time>2021-11-13 10:38:14</time>
      </trkpt>
      <trkpt lat="41.56036" lon="2.3039">
        <ele>115.2</ele>
        <time>2021-11-13 10:38:15</time>
      </trkpt>
      <trkpt lat="41.56033" lon="2.30383">
        <ele>115.4</ele>
        <time>2021-11-13 10:38:16</time>
      </trkpt>
      <trkpt lat="41.56031" lon="2.30373">
        <ele>115.4</ele>
        <time>2021-11-13 10:38:17</time>
      </trkpt>
      <trkpt lat="41.56028" lon="2.30361">
        <ele>115.4</ele>
        <time>2021-11-13 10:38:18</time>
      </trkpt>
      <trkpt lat="41.56025" lon="2.30352">
        <ele>115.4</ele>
        <time>2021-11-13 10:38:19</time>
      </trkpt>
      <trkpt lat="41.56022" lon="2.30343">
        <ele>115.6</ele>
        <time>2021-11-13 10:38:20</time>
      </trkpt>
      <trkpt lat="41.56019" lon="2.30335">
        <ele>115.6</ele>
        <time>2021-11-13 10:38:21</time>
      </trkpt>
      <trkpt lat="41.56015" lon="2.30323">
        <ele>115.8</ele>
        <time>2021-11-13 10:38:22</time>
      </trkpt>
      <trkpt lat="41.56012" lon="2.30313">
        <ele>115.8</ele>
        <time>2021-11-13 10:38:23</time>
      </trkpt>
      <trkpt lat="41.56009" lon="2.30302">
        <ele>115.8</ele>
        <time>2021-11-13 10:38:24</time>
      </trkpt>
      <trkpt lat="41.56006" lon="2.30292">
        <ele>115.8</ele>
        <time>2021-11-13 10:38:25</time>
      </trkpt>
      <trkpt lat="41.56003" lon="2.30282">
        <ele>115.8</ele>
        <time>2021-11-13 10:38:26</time>
      </trkpt>
      <trkpt lat="41.55999" lon="2.30271">
        <ele>115.8</ele>
        <time>2021-11-13 10:38:27</time>
      </trkpt>
      <trkpt lat="41.55996" lon="2.30261">
        <ele>115.8</ele>
        <time>2021-11-13 10:38:28</time>
      </trkpt>
      <trkpt lat="41.55993" lon="2.3025">
        <ele>115.6</ele>
        <time>2021-11-13 10:38:29</time>
      </trkpt>
      <trkpt lat="41.5599" lon="2.30239">
        <ele>115.6</ele>
        <time>2021-11-13 10:38:30</time>
      </trkpt>
      <trkpt lat="41.55988" lon="2.3023">
        <ele>115.6</ele>
        <time>2021-11-13 10:38:31</time>
      </trkpt>
      <trkpt lat="41.55984" lon="2.30219">
        <ele>115.6</ele>
        <time>2021-11-13 10:38:32</time>
      </trkpt>
      <trkpt lat="41.5598" lon="2.30206">
        <ele>115.6</ele>
        <time>2021-11-13 10:38:33</time>
      </trkpt>
      <trkpt lat="41.55977" lon="2.30195">
        <ele>115.4</ele>
        <time>2021-11-13 10:38:34</time>
      </trkpt>
      <trkpt lat="41.55974" lon="2.30186">
        <ele>115.4</ele>
        <time>2021-11-13 10:38:35</time>
      </trkpt>
      <trkpt lat="41.5597" lon="2.30175">
        <ele>115.2</ele>
        <time>2021-11-13 10:38:36</time>
      </trkpt>
      <trkpt lat="41.55966" lon="2.30165">
        <ele>115.2</ele>
        <time>2021-11-13 10:38:37</time>
      </trkpt>
      <trkpt lat="41.55961" lon="2.30152">
        <ele>115</ele>
        <time>2021-11-13 10:38:38</time>
      </trkpt>
      <trkpt lat="41.55957" lon="2.30141">
        <ele>114.6</ele>
        <time>2021-11-13 10:38:39</time>
      </trkpt>
      <trkpt lat="41.55953" lon="2.30131">
        <ele>114.6</ele>
        <time>2021-11-13 10:38:40</time>
      </trkpt>
      <trkpt lat="41.55949" lon="2.30122">
        <ele>114.4</ele>
        <time>2021-11-13 10:38:41</time>
      </trkpt>
      <trkpt lat="41.55945" lon="2.30111">
        <ele>114.4</ele>
        <time>2021-11-13 10:38:42</time>
      </trkpt>
      <trkpt lat="41.5594" lon="2.30098">
        <ele>114.4</ele>
        <time>2021-11-13 10:38:43</time>
      </trkpt>
      <trkpt lat="41.55935" lon="2.30087">
        <ele>114.2</ele>
        <time>2021-11-13 10:38:44</time>
      </trkpt>
      <trkpt lat="41.5593" lon="2.30077">
        <ele>114.2</ele>
        <time>2021-11-13 10:38:45</time>
      </trkpt>
      <trkpt lat="41.55926" lon="2.30068">
        <ele>114</ele>
        <time>2021-11-13 10:38:46</time>
      </trkpt>
      <trkpt lat="41.55922" lon="2.30057">
        <ele>114</ele>
        <time>2021-11-13 10:38:47</time>
      </trkpt>
      <trkpt lat="41.55916" lon="2.30044">
        <ele>113.8</ele>
        <time>2021-11-13 10:38:48</time>
      </trkpt>
      <trkpt lat="41.55911" lon="2.30033">
        <ele>113.6</ele>
        <time>2021-11-13 10:38:49</time>
      </trkpt>
      <trkpt lat="41.55907" lon="2.30022">
        <ele>113.6</ele>
        <time>2021-11-13 10:38:50</time>
      </trkpt>
      <trkpt lat="41.55903" lon="2.30013">
        <ele>113.4</ele>
        <time>2021-11-13 10:38:51</time>
      </trkpt>
      <trkpt lat="41.55898" lon="2.30002">
        <ele>113.4</ele>
        <time>2021-11-13 10:38:52</time>
      </trkpt>
      <trkpt lat="41.55893" lon="2.29988">
        <ele>113.2</ele>
        <time>2021-11-13 10:38:53</time>
      </trkpt>
      <trkpt lat="41.55888" lon="2.29977">
        <ele>113</ele>
        <time>2021-11-13 10:38:54</time>
      </trkpt>
      <trkpt lat="41.55884" lon="2.29967">
        <ele>112.8</ele>
        <time>2021-11-13 10:38:55</time>
      </trkpt>
      <trkpt lat="41.55879" lon="2.29956">
        <ele>112.6</ele>
        <time>2021-11-13 10:38:56</time>
      </trkpt>
      <trkpt lat="41.55874" lon="2.29944">
        <ele>112.4</ele>
        <time>2021-11-13 10:38:57</time>
      </trkpt>
      <trkpt lat="41.55868" lon="2.29931">
        <ele>112.4</ele>
        <time>2021-11-13 10:38:58</time>
      </trkpt>
      <trkpt lat="41.55865" lon="2.29922">
        <ele>112.2</ele>
        <time>2021-11-13 10:38:59</time>
      </trkpt>
      <trkpt lat="41.5586" lon="2.29911">
        <ele>112</ele>
        <time>2021-11-13 10:39:00</time>
      </trkpt>
      <trkpt lat="41.55855" lon="2.29899">
        <ele>111.6</ele>
        <time>2021-11-13 10:39:01</time>
      </trkpt>
      <trkpt lat="41.5585" lon="2.29888">
        <ele>111.4</ele>
        <time>2021-11-13 10:39:02</time>
      </trkpt>
      <trkpt lat="41.55845" lon="2.29876">
        <ele>111</ele>
        <time>2021-11-13 10:39:03</time>
      </trkpt>
      <trkpt lat="41.55839" lon="2.29862">
        <ele>110.8</ele>
        <time>2021-11-13 10:39:04</time>
      </trkpt>
      <trkpt lat="41.55834" lon="2.29851">
        <ele>110.6</ele>
        <time>2021-11-13 10:39:05</time>
      </trkpt>
      <trkpt lat="41.55829" lon="2.29839">
        <ele>110.2</ele>
        <time>2021-11-13 10:39:06</time>
      </trkpt>
      <trkpt lat="41.55824" lon="2.29828">
        <ele>110.2</ele>
        <time>2021-11-13 10:39:07</time>
      </trkpt>
      <trkpt lat="41.55819" lon="2.29816">
        <ele>110</ele>
        <time>2021-11-13 10:39:08</time>
      </trkpt>
      <trkpt lat="41.55813" lon="2.29806">
        <ele>110</ele>
        <time>2021-11-13 10:39:09</time>
      </trkpt>
      <trkpt lat="41.55807" lon="2.29796">
        <ele>109.8</ele>
        <time>2021-11-13 10:39:10</time>
      </trkpt>
      <trkpt lat="41.558" lon="2.29786">
        <ele>109.8</ele>
        <time>2021-11-13 10:39:11</time>
      </trkpt>
      <trkpt lat="41.55793" lon="2.29775">
        <ele>109.4</ele>
        <time>2021-11-13 10:39:12</time>
      </trkpt>
      <trkpt lat="41.55787" lon="2.29764">
        <ele>109.2</ele>
        <time>2021-11-13 10:39:13</time>
      </trkpt>
      <trkpt lat="41.55781" lon="2.29753">
        <ele>109</ele>
        <time>2021-11-13 10:39:14</time>
      </trkpt>
      <trkpt lat="41.55776" lon="2.29741">
        <ele>108.6</ele>
        <time>2021-11-13 10:39:15</time>
      </trkpt>
      <trkpt lat="41.55771" lon="2.29729">
        <ele>108.6</ele>
        <time>2021-11-13 10:39:16</time>
      </trkpt>
      <trkpt lat="41.55766" lon="2.29717">
        <ele>108.2</ele>
        <time>2021-11-13 10:39:17</time>
      </trkpt>
      <trkpt lat="41.55762" lon="2.29705">
        <ele>108.2</ele>
        <time>2021-11-13 10:39:18</time>
      </trkpt>
      <trkpt lat="41.55759" lon="2.29692">
        <ele>108</ele>
        <time>2021-11-13 10:39:19</time>
      </trkpt>
      <trkpt lat="41.55756" lon="2.29679">
        <ele>107.8</ele>
        <time>2021-11-13 10:39:20</time>
      </trkpt>
      <trkpt lat="41.55755" lon="2.29666">
        <ele>107.8</ele>
        <time>2021-11-13 10:39:21</time>
      </trkpt>
      <trkpt lat="41.55754" lon="2.29653">
        <ele>107.4</ele>
        <time>2021-11-13 10:39:22</time>
      </trkpt>
      <trkpt lat="41.55753" lon="2.2964">
        <ele>107.4</ele>
        <time>2021-11-13 10:39:23</time>
      </trkpt>
      <trkpt lat="41.55752" lon="2.29628">
        <ele>107.2</ele>
        <time>2021-11-13 10:39:24</time>
      </trkpt>
      <trkpt lat="41.55751" lon="2.29615">
        <ele>107.2</ele>
        <time>2021-11-13 10:39:25</time>
      </trkpt>
      <trkpt lat="41.55751" lon="2.29602">
        <ele>107.2</ele>
        <time>2021-11-13 10:39:26</time>
      </trkpt>
      <trkpt lat="41.5575" lon="2.2959">
        <ele>107</ele>
        <time>2021-11-13 10:39:27</time>
      </trkpt>
      <trkpt lat="41.55749" lon="2.29577">
        <ele>107</ele>
        <time>2021-11-13 10:39:28</time>
      </trkpt>
      <trkpt lat="41.55748" lon="2.29565">
        <ele>107</ele>
        <time>2021-11-13 10:39:29</time>
      </trkpt>
      <trkpt lat="41.55747" lon="2.29552">
        <ele>106.8</ele>
        <time>2021-11-13 10:39:30</time>
      </trkpt>
      <trkpt lat="41.55746" lon="2.2954">
        <ele>106.4</ele>
        <time>2021-11-13 10:39:31</time>
      </trkpt>
      <trkpt lat="41.55745" lon="2.29527">
        <ele>106.4</ele>
        <time>2021-11-13 10:39:32</time>
      </trkpt>
      <trkpt lat="41.55745" lon="2.29515">
        <ele>106.2</ele>
        <time>2021-11-13 10:39:33</time>
      </trkpt>
      <trkpt lat="41.55744" lon="2.29502">
        <ele>106</ele>
        <time>2021-11-13 10:39:34</time>
      </trkpt>
      <trkpt lat="41.55743" lon="2.29489">
        <ele>105.8</ele>
        <time>2021-11-13 10:39:35</time>
      </trkpt>
      <trkpt lat="41.55742" lon="2.29477">
        <ele>105.8</ele>
        <time>2021-11-13 10:39:36</time>
      </trkpt>
      <trkpt lat="41.5574" lon="2.29464">
        <ele>105.6</ele>
        <time>2021-11-13 10:39:37</time>
      </trkpt>
      <trkpt lat="41.55738" lon="2.29452">
        <ele>105.6</ele>
        <time>2021-11-13 10:39:38</time>
      </trkpt>
      <trkpt lat="41.55736" lon="2.29439">
        <ele>105.6</ele>
        <time>2021-11-13 10:39:39</time>
      </trkpt>
      <trkpt lat="41.55734" lon="2.29427">
        <ele>105.4</ele>
        <time>2021-11-13 10:39:40</time>
      </trkpt>
      <trkpt lat="41.55732" lon="2.29414">
        <ele>105.2</ele>
        <time>2021-11-13 10:39:41</time>
      </trkpt>
      <trkpt lat="41.5573" lon="2.29402">
        <ele>105.2</ele>
        <time>2021-11-13 10:39:42</time>
      </trkpt>
      <trkpt lat="41.55728" lon="2.2939">
        <ele>105.2</ele>
        <time>2021-11-13 10:39:43</time>
      </trkpt>
      <trkpt lat="41.55726" lon="2.29377">
        <ele>105</ele>
        <time>2021-11-13 10:39:44</time>
      </trkpt>
      <trkpt lat="41.55723" lon="2.29365">
        <ele>105</ele>
        <time>2021-11-13 10:39:45</time>
      </trkpt>
      <trkpt lat="41.55721" lon="2.29353">
        <ele>105</ele>
        <time>2021-11-13 10:39:46</time>
      </trkpt>
      <trkpt lat="41.55718" lon="2.29341">
        <ele>104.8</ele>
        <time>2021-11-13 10:39:47</time>
      </trkpt>
      <trkpt lat="41.55715" lon="2.2933">
        <ele>104.6</ele>
        <time>2021-11-13 10:39:48</time>
      </trkpt>
      <trkpt lat="41.5571" lon="2.29319">
        <ele>104.6</ele>
        <time>2021-11-13 10:39:49</time>
      </trkpt>
      <trkpt lat="41.55705" lon="2.29308">
        <ele>104.4</ele>
        <time>2021-11-13 10:39:50</time>
      </trkpt>
      <trkpt lat="41.557" lon="2.29298">
        <ele>104.4</ele>
        <time>2021-11-13 10:39:51</time>
      </trkpt>
      <trkpt lat="41.55693" lon="2.29289">
        <ele>104.2</ele>
        <time>2021-11-13 10:39:52</time>
      </trkpt>
      <trkpt lat="41.55687" lon="2.29279">
        <ele>104.2</ele>
        <time>2021-11-13 10:39:53</time>
      </trkpt>
      <trkpt lat="41.55681" lon="2.2927">
        <ele>104.2</ele>
        <time>2021-11-13 10:39:54</time>
      </trkpt>
      <trkpt lat="41.55675" lon="2.2926">
        <ele>104</ele>
        <time>2021-11-13 10:39:55</time>
      </trkpt>
      <trkpt lat="41.55669" lon="2.29251">
        <ele>104</ele>
        <time>2021-11-13 10:39:56</time>
      </trkpt>
      <trkpt lat="41.55662" lon="2.29242">
        <ele>103.8</ele>
        <time>2021-11-13 10:39:57</time>
      </trkpt>
      <trkpt lat="41.55657" lon="2.29233">
        <ele>103.8</ele>
        <time>2021-11-13 10:39:58</time>
      </trkpt>
      <trkpt lat="41.55651" lon="2.29224">
        <ele>103.8</ele>
        <time>2021-11-13 10:39:59</time>
      </trkpt>
      <trkpt lat="41.55645" lon="2.29215">
        <ele>103.6</ele>
        <time>2021-11-13 10:40:00</time>
      </trkpt>
      <trkpt lat="41.55639" lon="2.29206">
        <ele>103.6</ele>
        <time>2021-11-13 10:40:01</time>
      </trkpt>
      <trkpt lat="41.55633" lon="2.29197">
        <ele>103.6</ele>
        <time>2021-11-13 10:40:02</time>
      </trkpt>
      <trkpt lat="41.55627" lon="2.29189">
        <ele>103.6</ele>
        <time>2021-11-13 10:40:03</time>
      </trkpt>
      <trkpt lat="41.55621" lon="2.2918">
        <ele>103.6</ele>
        <time>2021-11-13 10:40:04</time>
      </trkpt>
      <trkpt lat="41.55615" lon="2.29172">
        <ele>103.8</ele>
        <time>2021-11-13 10:40:05</time>
      </trkpt>
      <trkpt lat="41.55608" lon="2.29164">
        <ele>103.8</ele>
        <time>2021-11-13 10:40:06</time>
      </trkpt>
      <trkpt lat="41.55601" lon="2.29156">
        <ele>103.8</ele>
        <time>2021-11-13 10:40:07</time>
      </trkpt>
      <trkpt lat="41.55594" lon="2.29148">
        <ele>103.8</ele>
        <time>2021-11-13 10:40:08</time>
      </trkpt>
      <trkpt lat="41.55587" lon="2.29141">
        <ele>103.8</ele>
        <time>2021-11-13 10:40:09</time>
      </trkpt>
      <trkpt lat="41.5558" lon="2.29133">
        <ele>103.8</ele>
        <time>2021-11-13 10:40:10</time>
      </trkpt>
      <trkpt lat="41.55573" lon="2.29126">
        <ele>103.8</ele>
        <time>2021-11-13 10:40:11</time>
      </trkpt>
      <trkpt lat="41.55566" lon="2.29118">
        <ele>103.8</ele>
        <time>2021-11-13 10:40:12</time>
      </trkpt>
      <trkpt lat="41.55558" lon="2.29111">
        <ele>103.8</ele>
        <time>2021-11-13 10:40:13</time>
      </trkpt>
      <trkpt lat="41.55551" lon="2.29104">
        <ele>103.8</ele>
        <time>2021-11-13 10:40:14</time>
      </trkpt>
      <trkpt lat="41.55544" lon="2.29098">
        <ele>103.6</ele>
        <time>2021-11-13 10:40:15</time>
      </trkpt>
      <trkpt lat="41.55536" lon="2.29091">
        <ele>103.6</ele>
        <time>2021-11-13 10:40:16</time>
      </trkpt>
      <trkpt lat="41.55528" lon="2.29084">
        <ele>103.6</ele>
        <time>2021-11-13 10:40:17</time>
      </trkpt>
      <trkpt lat="41.55521" lon="2.29077">
        <ele>103.6</ele>
        <time>2021-11-13 10:40:18</time>
      </trkpt>
      <trkpt lat="41.55513" lon="2.2907">
        <ele>103.6</ele>
        <time>2021-11-13 10:40:19</time>
      </trkpt>
      <trkpt lat="41.55506" lon="2.29062">
        <ele>103.6</ele>
        <time>2021-11-13 10:40:20</time>
      </trkpt>
      <trkpt lat="41.55499" lon="2.29055">
        <ele>103.6</ele>
        <time>2021-11-13 10:40:21</time>
      </trkpt>
      <trkpt lat="41.55492" lon="2.29047">
        <ele>103.4</ele>
        <time>2021-11-13 10:40:22</time>
      </trkpt>
      <trkpt lat="41.55486" lon="2.29038">
        <ele>103.4</ele>
        <time>2021-11-13 10:40:23</time>
      </trkpt>
      <trkpt lat="41.55481" lon="2.29029">
        <ele>103.4</ele>
        <time>2021-11-13 10:40:24</time>
      </trkpt>
      <trkpt lat="41.55477" lon="2.2902">
        <ele>103.4</ele>
        <time>2021-11-13 10:40:25</time>
      </trkpt>
      <trkpt lat="41.55471" lon="2.29011">
        <ele>103.2</ele>
        <time>2021-11-13 10:40:26</time>
      </trkpt>
      <trkpt lat="41.55466" lon="2.29004">
        <ele>103.2</ele>
        <time>2021-11-13 10:40:27</time>
      </trkpt>
      <trkpt lat="41.5546" lon="2.28999">
        <ele>103.2</ele>
        <time>2021-11-13 10:40:28</time>
      </trkpt>
      <trkpt lat="41.55455" lon="2.28995">
        <ele>103.2</ele>
        <time>2021-11-13 10:40:29</time>
      </trkpt>
      <trkpt lat="41.5545" lon="2.28991">
        <ele>103</ele>
        <time>2021-11-13 10:40:30</time>
      </trkpt>
      <trkpt lat="41.55446" lon="2.28986">
        <ele>103</ele>
        <time>2021-11-13 10:40:31</time>
      </trkpt>
      <trkpt lat="41.5544" lon="2.28982">
        <ele>103</ele>
        <time>2021-11-13 10:40:32</time>
      </trkpt>
      <trkpt lat="41.55434" lon="2.28977">
        <ele>103</ele>
        <time>2021-11-13 10:40:33</time>
      </trkpt>
      <trkpt lat="41.55426" lon="2.28973">
        <ele>103</ele>
        <time>2021-11-13 10:40:34</time>
      </trkpt>
      <trkpt lat="41.55419" lon="2.28968">
        <ele>102.8</ele>
        <time>2021-11-13 10:40:35</time>
      </trkpt>
      <trkpt lat="41.55413" lon="2.28962">
        <ele>102.8</ele>
        <time>2021-11-13 10:40:36</time>
      </trkpt>
      <trkpt lat="41.55406" lon="2.28954">
        <ele>102.8</ele>
        <time>2021-11-13 10:40:37</time>
      </trkpt>
      <trkpt lat="41.55401" lon="2.28946">
        <ele>102.6</ele>
        <time>2021-11-13 10:40:38</time>
      </trkpt>
      <trkpt lat="41.55396" lon="2.28937">
        <ele>102.4</ele>
        <time>2021-11-13 10:40:39</time>
      </trkpt>
      <trkpt lat="41.55391" lon="2.28929">
        <ele>102.4</ele>
        <time>2021-11-13 10:40:40</time>
      </trkpt>
      <trkpt lat="41.55387" lon="2.2892">
        <ele>102.2</ele>
        <time>2021-11-13 10:40:41</time>
      </trkpt>
      <trkpt lat="41.55382" lon="2.28911">
        <ele>102.2</ele>
        <time>2021-11-13 10:40:42</time>
      </trkpt>
      <trkpt lat="41.55378" lon="2.28902">
        <ele>102.2</ele>
        <time>2021-11-13 10:40:43</time>
      </trkpt>
      <trkpt lat="41.55373" lon="2.28894">
        <ele>102</ele>
        <time>2021-11-13 10:40:44</time>
      </trkpt>
      <trkpt lat="41.55369" lon="2.28886">
        <ele>102</ele>
        <time>2021-11-13 10:40:45</time>
      </trkpt>
      <trkpt lat="41.55364" lon="2.28877">
        <ele>101.8</ele>
        <time>2021-11-13 10:40:46</time>
      </trkpt>
      <trkpt lat="41.5536" lon="2.2887">
        <ele>101.8</ele>
        <time>2021-11-13 10:40:47</time>
      </trkpt>
      <trkpt lat="41.55355" lon="2.28862">
        <ele>101.8</ele>
        <time>2021-11-13 10:40:48</time>
      </trkpt>
      <trkpt lat="41.55351" lon="2.28854">
        <ele>101.8</ele>
        <time>2021-11-13 10:40:49</time>
      </trkpt>
      <trkpt lat="41.55347" lon="2.28847">
        <ele>101.8</ele>
        <time>2021-11-13 10:40:50</time>
      </trkpt>
      <trkpt lat="41.55344" lon="2.28841">
        <ele>102</ele>
        <time>2021-11-13 10:40:51</time>
      </trkpt>
      <trkpt lat="41.5534" lon="2.28835">
        <ele>102</ele>
        <time>2021-11-13 10:40:52</time>
      </trkpt>
      <trkpt lat="41.55337" lon="2.28829">
        <ele>102.2</ele>
        <time>2021-11-13 10:40:53</time>
      </trkpt>
      <trkpt lat="41.55333" lon="2.28822">
        <ele>102.2</ele>
        <time>2021-11-13 10:40:54</time>
      </trkpt>
      <trkpt lat="41.5533" lon="2.28816">
        <ele>102.4</ele>
        <time>2021-11-13 10:40:55</time>
      </trkpt>
      <trkpt lat="41.55327" lon="2.28811">
        <ele>102.4</ele>
        <time>2021-11-13 10:40:56</time>
      </trkpt>
      <trkpt lat="41.55323" lon="2.28805">
        <ele>102.6</ele>
        <time>2021-11-13 10:40:57</time>
      </trkpt>
      <trkpt lat="41.55321" lon="2.288">
        <ele>102.6</ele>
        <time>2021-11-13 10:40:58</time>
      </trkpt>
      <trkpt lat="41.55318" lon="2.28795">
        <ele>102.8</ele>
        <time>2021-11-13 10:40:59</time>
      </trkpt>
      <trkpt lat="41.55315" lon="2.2879">
        <ele>102.8</ele>
        <time>2021-11-13 10:41:00</time>
      </trkpt>
      <trkpt lat="41.55312" lon="2.28783">
        <ele>103</ele>
        <time>2021-11-13 10:41:01</time>
      </trkpt>
      <trkpt lat="41.5531" lon="2.28779">
        <ele>103</ele>
        <time>2021-11-13 10:41:02</time>
      </trkpt>
      <trkpt lat="41.55307" lon="2.28774">
        <ele>103.2</ele>
        <time>2021-11-13 10:41:03</time>
      </trkpt>
      <trkpt lat="41.55305" lon="2.28768">
        <ele>103.2</ele>
        <time>2021-11-13 10:41:04</time>
      </trkpt>
      <trkpt lat="41.55302" lon="2.28763">
        <ele>103.4</ele>
        <time>2021-11-13 10:41:05</time>
      </trkpt>
      <trkpt lat="41.55299" lon="2.28757">
        <ele>103.4</ele>
        <time>2021-11-13 10:41:06</time>
      </trkpt>
      <trkpt lat="41.55297" lon="2.28753">
        <ele>103.4</ele>
        <time>2021-11-13 10:41:07</time>
      </trkpt>
      <trkpt lat="41.55296" lon="2.28749">
        <ele>103.4</ele>
        <time>2021-11-13 10:41:08</time>
      </trkpt>
      <trkpt lat="41.55294" lon="2.28747">
        <ele>103.4</ele>
        <time>2021-11-13 10:41:09</time>
      </trkpt>
      <trkpt lat="41.55293" lon="2.28744">
        <ele>103.4</ele>
        <time>2021-11-13 10:41:10</time>
      </trkpt>
      <trkpt lat="41.55292" lon="2.28742">
        <ele>103.6</ele>
        <time>2021-11-13 10:41:11</time>
      </trkpt>
      <trkpt lat="41.55292" lon="2.28742">
        <ele>103.6</ele>
        <time>2021-11-13 10:41:12</time>
      </trkpt>
      <trkpt lat="41.55292" lon="2.28742">
        <ele>103.6</ele>
        <time>2021-11-13 10:41:13</time>
      </trkpt>
      <trkpt lat="41.55289" lon="2.28737">
        <ele>102.2</ele>
        <time>2021-11-13 10:41:53</time>
      </trkpt>
      <trkpt lat="41.55288" lon="2.28735">
        <ele>102.2</ele>
        <time>2021-11-13 10:41:54</time>
      </trkpt>
      <trkpt lat="41.55286" lon="2.28731">
        <ele>102</ele>
        <time>2021-11-13 10:41:55</time>
      </trkpt>
      <trkpt lat="41.55283" lon="2.28728">
        <ele>102</ele>
        <time>2021-11-13 10:41:56</time>
      </trkpt>
      <trkpt lat="41.55279" lon="2.28723">
        <ele>102</ele>
        <time>2021-11-13 10:41:57</time>
      </trkpt>
      <trkpt lat="41.55276" lon="2.28718">
        <ele>102</ele>
        <time>2021-11-13 10:41:58</time>
      </trkpt>
      <trkpt lat="41.55273" lon="2.28714">
        <ele>102</ele>
        <time>2021-11-13 10:41:59</time>
      </trkpt>
      <trkpt lat="41.5527" lon="2.28709">
        <ele>102</ele>
        <time>2021-11-13 10:42:00</time>
      </trkpt>
      <trkpt lat="41.55266" lon="2.28703">
        <ele>101.8</ele>
        <time>2021-11-13 10:42:01</time>
      </trkpt>
      <trkpt lat="41.55262" lon="2.28696">
        <ele>101.8</ele>
        <time>2021-11-13 10:42:02</time>
      </trkpt>
      <trkpt lat="41.55259" lon="2.28689">
        <ele>101.8</ele>
        <time>2021-11-13 10:42:03</time>
      </trkpt>
      <trkpt lat="41.55256" lon="2.28684">
        <ele>101.8</ele>
        <time>2021-11-13 10:42:04</time>
      </trkpt>
      <trkpt lat="41.55253" lon="2.28677">
        <ele>101.8</ele>
        <time>2021-11-13 10:42:05</time>
      </trkpt>
      <trkpt lat="41.55249" lon="2.2867">
        <ele>102</ele>
        <time>2021-11-13 10:42:06</time>
      </trkpt>
      <trkpt lat="41.55245" lon="2.28662">
        <ele>102</ele>
        <time>2021-11-13 10:42:07</time>
      </trkpt>
      <trkpt lat="41.55242" lon="2.28655">
        <ele>102.2</ele>
        <time>2021-11-13 10:42:08</time>
      </trkpt>
      <trkpt lat="41.55239" lon="2.28649">
        <ele>102.2</ele>
        <time>2021-11-13 10:42:09</time>
      </trkpt>
      <trkpt lat="41.55236" lon="2.28642">
        <ele>102.2</ele>
        <time>2021-11-13 10:42:10</time>
      </trkpt>
      <trkpt lat="41.55232" lon="2.28635">
        <ele>102</ele>
        <time>2021-11-13 10:42:11</time>
      </trkpt>
      <trkpt lat="41.55227" lon="2.28626">
        <ele>102.2</ele>
        <time>2021-11-13 10:42:12</time>
      </trkpt>
      <trkpt lat="41.55223" lon="2.28618">
        <ele>102.2</ele>
        <time>2021-11-13 10:42:13</time>
      </trkpt>
      <trkpt lat="41.5522" lon="2.28612">
        <ele>102.2</ele>
        <time>2021-11-13 10:42:14</time>
      </trkpt>
      <trkpt lat="41.55216" lon="2.28605">
        <ele>102.2</ele>
        <time>2021-11-13 10:42:15</time>
      </trkpt>
      <trkpt lat="41.55212" lon="2.28597">
        <ele>102.2</ele>
        <time>2021-11-13 10:42:16</time>
      </trkpt>
      <trkpt lat="41.55207" lon="2.28588">
        <ele>102.2</ele>
        <time>2021-11-13 10:42:17</time>
      </trkpt>
      <trkpt lat="41.55203" lon="2.28581">
        <ele>102.4</ele>
        <time>2021-11-13 10:42:18</time>
      </trkpt>
      <trkpt lat="41.55199" lon="2.28574">
        <ele>102.6</ele>
        <time>2021-11-13 10:42:19</time>
      </trkpt>
      <trkpt lat="41.55195" lon="2.28567">
        <ele>102.6</ele>
        <time>2021-11-13 10:42:20</time>
      </trkpt>
      <trkpt lat="41.55191" lon="2.2856">
        <ele>102.8</ele>
        <time>2021-11-13 10:42:21</time>
      </trkpt>
      <trkpt lat="41.55186" lon="2.28551">
        <ele>102.8</ele>
        <time>2021-11-13 10:42:22</time>
      </trkpt>
      <trkpt lat="41.55182" lon="2.28544">
        <ele>103</ele>
        <time>2021-11-13 10:42:23</time>
      </trkpt>
      <trkpt lat="41.55179" lon="2.28538">
        <ele>103.2</ele>
        <time>2021-11-13 10:42:24</time>
      </trkpt>
      <trkpt lat="41.55176" lon="2.2853">
        <ele>103.2</ele>
        <time>2021-11-13 10:42:25</time>
      </trkpt>
      <trkpt lat="41.55173" lon="2.28523">
        <ele>103.4</ele>
        <time>2021-11-13 10:42:26</time>
      </trkpt>
      <trkpt lat="41.55169" lon="2.28513">
        <ele>103.6</ele>
        <time>2021-11-13 10:42:27</time>
      </trkpt>
      <trkpt lat="41.55167" lon="2.28505">
        <ele>103.8</ele>
        <time>2021-11-13 10:42:28</time>
      </trkpt>
      <trkpt lat="41.55164" lon="2.28498">
        <ele>103.8</ele>
        <time>2021-11-13 10:42:29</time>
      </trkpt>
      <trkpt lat="41.55161" lon="2.2849">
        <ele>104</ele>
        <time>2021-11-13 10:42:30</time>
      </trkpt>
      <trkpt lat="41.55157" lon="2.28482">
        <ele>104</ele>
        <time>2021-11-13 10:42:31</time>
      </trkpt>
      <trkpt lat="41.55151" lon="2.28473">
        <ele>104</ele>
        <time>2021-11-13 10:42:32</time>
      </trkpt>
      <trkpt lat="41.55147" lon="2.28465">
        <ele>104.2</ele>
        <time>2021-11-13 10:42:33</time>
      </trkpt>
      <trkpt lat="41.55144" lon="2.28459">
        <ele>104.2</ele>
        <time>2021-11-13 10:42:34</time>
      </trkpt>
      <trkpt lat="41.5514" lon="2.28451">
        <ele>104.2</ele>
        <time>2021-11-13 10:42:35</time>
      </trkpt>
      <trkpt lat="41.55137" lon="2.28443">
        <ele>104.2</ele>
        <time>2021-11-13 10:42:36</time>
      </trkpt>
      <trkpt lat="41.55133" lon="2.28432">
        <ele>104.4</ele>
        <time>2021-11-13 10:42:37</time>
      </trkpt>
      <trkpt lat="41.5513" lon="2.28424">
        <ele>104.4</ele>
        <time>2021-11-13 10:42:38</time>
      </trkpt>
      <trkpt lat="41.55127" lon="2.28417">
        <ele>104.4</ele>
        <time>2021-11-13 10:42:39</time>
      </trkpt>
      <trkpt lat="41.55124" lon="2.28408">
        <ele>104.4</ele>
        <time>2021-11-13 10:42:40</time>
      </trkpt>
      <trkpt lat="41.5512" lon="2.28399">
        <ele>104.4</ele>
        <time>2021-11-13 10:42:41</time>
      </trkpt>
      <trkpt lat="41.55116" lon="2.28389">
        <ele>104.4</ele>
        <time>2021-11-13 10:42:42</time>
      </trkpt>
      <trkpt lat="41.55113" lon="2.2838">
        <ele>104.4</ele>
        <time>2021-11-13 10:42:43</time>
      </trkpt>
      <trkpt lat="41.5511" lon="2.28373">
        <ele>104.4</ele>
        <time>2021-11-13 10:42:44</time>
      </trkpt>
      <trkpt lat="41.55107" lon="2.28365">
        <ele>104.4</ele>
        <time>2021-11-13 10:42:45</time>
      </trkpt>
      <trkpt lat="41.55104" lon="2.28356">
        <ele>104.4</ele>
        <time>2021-11-13 10:42:46</time>
      </trkpt>
      <trkpt lat="41.551" lon="2.28346">
        <ele>104.6</ele>
        <time>2021-11-13 10:42:47</time>
      </trkpt>
      <trkpt lat="41.55097" lon="2.28337">
        <ele>104.6</ele>
        <time>2021-11-13 10:42:48</time>
      </trkpt>
      <trkpt lat="41.55093" lon="2.28328">
        <ele>104.6</ele>
        <time>2021-11-13 10:42:49</time>
      </trkpt>
      <trkpt lat="41.5509" lon="2.2832">
        <ele>104.6</ele>
        <time>2021-11-13 10:42:50</time>
      </trkpt>
      <trkpt lat="41.55087" lon="2.28311">
        <ele>104.6</ele>
        <time>2021-11-13 10:42:51</time>
      </trkpt>
      <trkpt lat="41.55083" lon="2.28302">
        <ele>104.6</ele>
        <time>2021-11-13 10:42:52</time>
      </trkpt>
      <trkpt lat="41.55081" lon="2.28293">
        <ele>104.8</ele>
        <time>2021-11-13 10:42:53</time>
      </trkpt>
      <trkpt lat="41.55079" lon="2.28284">
        <ele>104.8</ele>
        <time>2021-11-13 10:42:54</time>
      </trkpt>
      <trkpt lat="41.55078" lon="2.28274">
        <ele>104.8</ele>
        <time>2021-11-13 10:42:55</time>
      </trkpt>
      <trkpt lat="41.55078" lon="2.28264">
        <ele>104.8</ele>
        <time>2021-11-13 10:42:56</time>
      </trkpt>
      <trkpt lat="41.55077" lon="2.28255">
        <ele>104.8</ele>
        <time>2021-11-13 10:42:57</time>
      </trkpt>
      <trkpt lat="41.55075" lon="2.28245">
        <ele>104.8</ele>
        <time>2021-11-13 10:42:58</time>
      </trkpt>
      <trkpt lat="41.5507" lon="2.28237">
        <ele>104.8</ele>
        <time>2021-11-13 10:42:59</time>
      </trkpt>
      <trkpt lat="41.55064" lon="2.28231">
        <ele>104.8</ele>
        <time>2021-11-13 10:43:00</time>
      </trkpt>
      <trkpt lat="41.55059" lon="2.28225">
        <ele>104.8</ele>
        <time>2021-11-13 10:43:01</time>
      </trkpt>
      <trkpt lat="41.55054" lon="2.28218">
        <ele>105</ele>
        <time>2021-11-13 10:43:02</time>
      </trkpt>
      <trkpt lat="41.55049" lon="2.2821">
        <ele>105</ele>
        <time>2021-11-13 10:43:03</time>
      </trkpt>
      <trkpt lat="41.55046" lon="2.28202">
        <ele>105</ele>
        <time>2021-11-13 10:43:04</time>
      </trkpt>
      <trkpt lat="41.55043" lon="2.28192">
        <ele>105</ele>
        <time>2021-11-13 10:43:05</time>
      </trkpt>
      <trkpt lat="41.5504" lon="2.28183">
        <ele>105</ele>
        <time>2021-11-13 10:43:06</time>
      </trkpt>
      <trkpt lat="41.55036" lon="2.28174">
        <ele>105</ele>
        <time>2021-11-13 10:43:07</time>
      </trkpt>
      <trkpt lat="41.55033" lon="2.28165">
        <ele>105</ele>
        <time>2021-11-13 10:43:08</time>
      </trkpt>
      <trkpt lat="41.5503" lon="2.28156">
        <ele>105.2</ele>
        <time>2021-11-13 10:43:09</time>
      </trkpt>
      <trkpt lat="41.55027" lon="2.28147">
        <ele>105.2</ele>
        <time>2021-11-13 10:43:10</time>
      </trkpt>
      <trkpt lat="41.55023" lon="2.28137">
        <ele>105.2</ele>
        <time>2021-11-13 10:43:11</time>
      </trkpt>
      <trkpt lat="41.5502" lon="2.28128">
        <ele>105.2</ele>
        <time>2021-11-13 10:43:12</time>
      </trkpt>
      <trkpt lat="41.55016" lon="2.28119">
        <ele>105.4</ele>
        <time>2021-11-13 10:43:13</time>
      </trkpt>
      <trkpt lat="41.55011" lon="2.28111">
        <ele>105.4</ele>
        <time>2021-11-13 10:43:14</time>
      </trkpt>
      <trkpt lat="41.55006" lon="2.28102">
        <ele>105.4</ele>
        <time>2021-11-13 10:43:15</time>
      </trkpt>
      <trkpt lat="41.55" lon="2.28094">
        <ele>105.6</ele>
        <time>2021-11-13 10:43:16</time>
      </trkpt>
      <trkpt lat="41.54994" lon="2.28086">
        <ele>105.6</ele>
        <time>2021-11-13 10:43:17</time>
      </trkpt>
      <trkpt lat="41.54987" lon="2.28079">
        <ele>105.2</ele>
        <time>2021-11-13 10:43:18</time>
      </trkpt>
      <trkpt lat="41.54981" lon="2.28071">
        <ele>105.2</ele>
        <time>2021-11-13 10:43:19</time>
      </trkpt>
      <trkpt lat="41.54974" lon="2.28063">
        <ele>105</ele>
        <time>2021-11-13 10:43:20</time>
      </trkpt>
      <trkpt lat="41.54968" lon="2.28055">
        <ele>105</ele>
        <time>2021-11-13 10:43:21</time>
      </trkpt>
      <trkpt lat="41.54961" lon="2.28046">
        <ele>104.6</ele>
        <time>2021-11-13 10:43:22</time>
      </trkpt>
      <trkpt lat="41.54955" lon="2.28038">
        <ele>104.6</ele>
        <time>2021-11-13 10:43:23</time>
      </trkpt>
      <trkpt lat="41.54949" lon="2.2803">
        <ele>104.4</ele>
        <time>2021-11-13 10:43:24</time>
      </trkpt>
      <trkpt lat="41.54942" lon="2.28021">
        <ele>104.4</ele>
        <time>2021-11-13 10:43:25</time>
      </trkpt>
      <trkpt lat="41.54936" lon="2.28013">
        <ele>104.2</ele>
        <time>2021-11-13 10:43:26</time>
      </trkpt>
      <trkpt lat="41.54929" lon="2.28005">
        <ele>104</ele>
        <time>2021-11-13 10:43:27</time>
      </trkpt>
      <trkpt lat="41.54922" lon="2.27997">
        <ele>104</ele>
        <time>2021-11-13 10:43:28</time>
      </trkpt>
      <trkpt lat="41.54916" lon="2.27989">
        <ele>104</ele>
        <time>2021-11-13 10:43:29</time>
      </trkpt>
      <trkpt lat="41.54909" lon="2.27982">
        <ele>104</ele>
        <time>2021-11-13 10:43:30</time>
      </trkpt>
      <trkpt lat="41.54903" lon="2.27974">
        <ele>103.8</ele>
        <time>2021-11-13 10:43:31</time>
      </trkpt>
      <trkpt lat="41.54897" lon="2.27966">
        <ele>103.6</ele>
        <time>2021-11-13 10:43:32</time>
      </trkpt>
      <trkpt lat="41.54891" lon="2.27959">
        <ele>103.6</ele>
        <time>2021-11-13 10:43:33</time>
      </trkpt>
      <trkpt lat="41.54884" lon="2.27951">
        <ele>103.6</ele>
        <time>2021-11-13 10:43:34</time>
      </trkpt>
      <trkpt lat="41.54878" lon="2.27944">
        <ele>103.6</ele>
        <time>2021-11-13 10:43:35</time>
      </trkpt>
      <trkpt lat="41.54871" lon="2.27938">
        <ele>103.4</ele>
        <time>2021-11-13 10:43:36</time>
      </trkpt>
      <trkpt lat="41.54865" lon="2.27932">
        <ele>103.4</ele>
        <time>2021-11-13 10:43:37</time>
      </trkpt>
      <trkpt lat="41.54858" lon="2.27926">
        <ele>103.4</ele>
        <time>2021-11-13 10:43:38</time>
      </trkpt>
      <trkpt lat="41.54852" lon="2.27921">
        <ele>103.4</ele>
        <time>2021-11-13 10:43:39</time>
      </trkpt>
      <trkpt lat="41.54845" lon="2.27916">
        <ele>103.4</ele>
        <time>2021-11-13 10:43:40</time>
      </trkpt>
      <trkpt lat="41.54837" lon="2.27913">
        <ele>103.4</ele>
        <time>2021-11-13 10:43:41</time>
      </trkpt>
      <trkpt lat="41.5483" lon="2.27909">
        <ele>103.6</ele>
        <time>2021-11-13 10:43:42</time>
      </trkpt>
      <trkpt lat="41.54823" lon="2.27906">
        <ele>103.8</ele>
        <time>2021-11-13 10:43:43</time>
      </trkpt>
      <trkpt lat="41.54816" lon="2.27904">
        <ele>103.8</ele>
        <time>2021-11-13 10:43:44</time>
      </trkpt>
      <trkpt lat="41.54808" lon="2.27903">
        <ele>104</ele>
        <time>2021-11-13 10:43:45</time>
      </trkpt>
      <trkpt lat="41.54801" lon="2.27902">
        <ele>104</ele>
        <time>2021-11-13 10:43:46</time>
      </trkpt>
      <trkpt lat="41.54794" lon="2.27901">
        <ele>104.2</ele>
        <time>2021-11-13 10:43:47</time>
      </trkpt>
      <trkpt lat="41.54787" lon="2.27901">
        <ele>104.4</ele>
        <time>2021-11-13 10:43:48</time>
      </trkpt>
      <trkpt lat="41.5478" lon="2.27901">
        <ele>104.6</ele>
        <time>2021-11-13 10:43:49</time>
      </trkpt>
      <trkpt lat="41.54773" lon="2.27901">
        <ele>104.8</ele>
        <time>2021-11-13 10:43:50</time>
      </trkpt>
      <trkpt lat="41.54766" lon="2.27901">
        <ele>104.8</ele>
        <time>2021-11-13 10:43:51</time>
      </trkpt>
      <trkpt lat="41.54759" lon="2.279">
        <ele>105.2</ele>
        <time>2021-11-13 10:43:52</time>
      </trkpt>
      <trkpt lat="41.54752" lon="2.27898">
        <ele>105.4</ele>
        <time>2021-11-13 10:43:53</time>
      </trkpt>
      <trkpt lat="41.54744" lon="2.27896">
        <ele>105.6</ele>
        <time>2021-11-13 10:43:54</time>
      </trkpt>
      <trkpt lat="41.54737" lon="2.27894">
        <ele>105.8</ele>
        <time>2021-11-13 10:43:55</time>
      </trkpt>
      <trkpt lat="41.54729" lon="2.27892">
        <ele>105.8</ele>
        <time>2021-11-13 10:43:56</time>
      </trkpt>
      <trkpt lat="41.54722" lon="2.2789">
        <ele>106</ele>
        <time>2021-11-13 10:43:57</time>
      </trkpt>
      <trkpt lat="41.54715" lon="2.27886">
        <ele>106</ele>
        <time>2021-11-13 10:43:58</time>
      </trkpt>
      <trkpt lat="41.54708" lon="2.27882">
        <ele>106</ele>
        <time>2021-11-13 10:43:59</time>
      </trkpt>
      <trkpt lat="41.54701" lon="2.27878">
        <ele>106.2</ele>
        <time>2021-11-13 10:44:00</time>
      </trkpt>
      <trkpt lat="41.54695" lon="2.27872">
        <ele>106.2</ele>
        <time>2021-11-13 10:44:01</time>
      </trkpt>
      <trkpt lat="41.54688" lon="2.27867">
        <ele>106.2</ele>
        <time>2021-11-13 10:44:02</time>
      </trkpt>
      <trkpt lat="41.54683" lon="2.27861">
        <ele>106.2</ele>
        <time>2021-11-13 10:44:03</time>
      </trkpt>
      <trkpt lat="41.54678" lon="2.27854">
        <ele>106.4</ele>
        <time>2021-11-13 10:44:04</time>
      </trkpt>
      <trkpt lat="41.54672" lon="2.27847">
        <ele>106.4</ele>
        <time>2021-11-13 10:44:05</time>
      </trkpt>
      <trkpt lat="41.54667" lon="2.27839">
        <ele>106.4</ele>
        <time>2021-11-13 10:44:06</time>
      </trkpt>
      <trkpt lat="41.54663" lon="2.27831">
        <ele>106.4</ele>
        <time>2021-11-13 10:44:07</time>
      </trkpt>
      <trkpt lat="41.54658" lon="2.27822">
        <ele>106.4</ele>
        <time>2021-11-13 10:44:08</time>
      </trkpt>
      <trkpt lat="41.54655" lon="2.27813">
        <ele>106.6</ele>
        <time>2021-11-13 10:44:09</time>
      </trkpt>
      <trkpt lat="41.54652" lon="2.27804">
        <ele>106.8</ele>
        <time>2021-11-13 10:44:10</time>
      </trkpt>
      <trkpt lat="41.54649" lon="2.27795">
        <ele>106.8</ele>
        <time>2021-11-13 10:44:11</time>
      </trkpt>
      <trkpt lat="41.54647" lon="2.27786">
        <ele>107</ele>
        <time>2021-11-13 10:44:12</time>
      </trkpt>
      <trkpt lat="41.54644" lon="2.27775">
        <ele>107</ele>
        <time>2021-11-13 10:44:13</time>
      </trkpt>
      <trkpt lat="41.54643" lon="2.27767">
        <ele>107.2</ele>
        <time>2021-11-13 10:44:14</time>
      </trkpt>
      <trkpt lat="41.54642" lon="2.27759">
        <ele>107.2</ele>
        <time>2021-11-13 10:44:15</time>
      </trkpt>
      <trkpt lat="41.54641" lon="2.2775">
        <ele>107.4</ele>
        <time>2021-11-13 10:44:16</time>
      </trkpt>
      <trkpt lat="41.5464" lon="2.27741">
        <ele>107.6</ele>
        <time>2021-11-13 10:44:17</time>
      </trkpt>
      <trkpt lat="41.54639" lon="2.27732">
        <ele>107.6</ele>
        <time>2021-11-13 10:44:18</time>
      </trkpt>
      <trkpt lat="41.54639" lon="2.27723">
        <ele>108</ele>
        <time>2021-11-13 10:44:19</time>
      </trkpt>
      <trkpt lat="41.54638" lon="2.27714">
        <ele>108.2</ele>
        <time>2021-11-13 10:44:20</time>
      </trkpt>
      <trkpt lat="41.54638" lon="2.27705">
        <ele>108.4</ele>
        <time>2021-11-13 10:44:21</time>
      </trkpt>
      <trkpt lat="41.54638" lon="2.27696">
        <ele>108.6</ele>
        <time>2021-11-13 10:44:22</time>
      </trkpt>
      <trkpt lat="41.54638" lon="2.27686">
        <ele>108.6</ele>
        <time>2021-11-13 10:44:23</time>
      </trkpt>
      <trkpt lat="41.54637" lon="2.27677">
        <ele>108.8</ele>
        <time>2021-11-13 10:44:24</time>
      </trkpt>
      <trkpt lat="41.54637" lon="2.27667">
        <ele>108.8</ele>
        <time>2021-11-13 10:44:25</time>
      </trkpt>
      <trkpt lat="41.54637" lon="2.27657">
        <ele>108.8</ele>
        <time>2021-11-13 10:44:26</time>
      </trkpt>
      <trkpt lat="41.54637" lon="2.27647">
        <ele>109</ele>
        <time>2021-11-13 10:44:27</time>
      </trkpt>
      <trkpt lat="41.54637" lon="2.27638">
        <ele>109</ele>
        <time>2021-11-13 10:44:28</time>
      </trkpt>
      <trkpt lat="41.54636" lon="2.27628">
        <ele>109.2</ele>
        <time>2021-11-13 10:44:29</time>
      </trkpt>
      <trkpt lat="41.54636" lon="2.27618">
        <ele>109.2</ele>
        <time>2021-11-13 10:44:30</time>
      </trkpt>
      <trkpt lat="41.54636" lon="2.27608">
        <ele>109.4</ele>
        <time>2021-11-13 10:44:31</time>
      </trkpt>
      <trkpt lat="41.54636" lon="2.27599">
        <ele>109.4</ele>
        <time>2021-11-13 10:44:32</time>
      </trkpt>
      <trkpt lat="41.54636" lon="2.27589">
        <ele>109.4</ele>
        <time>2021-11-13 10:44:33</time>
      </trkpt>
      <trkpt lat="41.54635" lon="2.2758">
        <ele>109.4</ele>
        <time>2021-11-13 10:44:34</time>
      </trkpt>
      <trkpt lat="41.54636" lon="2.2757">
        <ele>109.6</ele>
        <time>2021-11-13 10:44:35</time>
      </trkpt>
      <trkpt lat="41.54636" lon="2.27561">
        <ele>109.6</ele>
        <time>2021-11-13 10:44:36</time>
      </trkpt>
      <trkpt lat="41.54636" lon="2.27551">
        <ele>109.8</ele>
        <time>2021-11-13 10:44:37</time>
      </trkpt>
      <trkpt lat="41.54636" lon="2.27542">
        <ele>110</ele>
        <time>2021-11-13 10:44:38</time>
      </trkpt>
      <trkpt lat="41.54636" lon="2.27532">
        <ele>110</ele>
        <time>2021-11-13 10:44:39</time>
      </trkpt>
      <trkpt lat="41.54635" lon="2.27522">
        <ele>110</ele>
        <time>2021-11-13 10:44:40</time>
      </trkpt>
      <trkpt lat="41.54635" lon="2.27512">
        <ele>110.2</ele>
        <time>2021-11-13 10:44:41</time>
      </trkpt>
      <trkpt lat="41.54635" lon="2.27502">
        <ele>110.2</ele>
        <time>2021-11-13 10:44:42</time>
      </trkpt>
      <trkpt lat="41.54635" lon="2.27493">
        <ele>110.2</ele>
        <time>2021-11-13 10:44:43</time>
      </trkpt>
      <trkpt lat="41.54635" lon="2.27483">
        <ele>110.2</ele>
        <time>2021-11-13 10:44:44</time>
      </trkpt>
      <trkpt lat="41.54635" lon="2.27474">
        <ele>110.4</ele>
        <time>2021-11-13 10:44:45</time>
      </trkpt>
      <trkpt lat="41.54635" lon="2.27464">
        <ele>110.4</ele>
        <time>2021-11-13 10:44:46</time>
      </trkpt>
      <trkpt lat="41.54635" lon="2.27455">
        <ele>110.6</ele>
        <time>2021-11-13 10:44:47</time>
      </trkpt>
      <trkpt lat="41.54634" lon="2.27446">
        <ele>110.6</ele>
        <time>2021-11-13 10:44:48</time>
      </trkpt>
      <trkpt lat="41.54634" lon="2.27437">
        <ele>110.6</ele>
        <time>2021-11-13 10:44:49</time>
      </trkpt>
      <trkpt lat="41.54633" lon="2.27428">
        <ele>110.8</ele>
        <time>2021-11-13 10:44:50</time>
      </trkpt>
      <trkpt lat="41.54632" lon="2.2742">
        <ele>110.8</ele>
        <time>2021-11-13 10:44:51</time>
      </trkpt>
      <trkpt lat="41.54631" lon="2.27411">
        <ele>111</ele>
        <time>2021-11-13 10:44:52</time>
      </trkpt>
      <trkpt lat="41.54629" lon="2.27402">
        <ele>110.8</ele>
        <time>2021-11-13 10:44:53</time>
      </trkpt>
      <trkpt lat="41.54627" lon="2.27392">
        <ele>110.8</ele>
        <time>2021-11-13 10:44:54</time>
      </trkpt>
      <trkpt lat="41.54625" lon="2.27383">
        <ele>110.8</ele>
        <time>2021-11-13 10:44:55</time>
      </trkpt>
      <trkpt lat="41.54623" lon="2.27374">
        <ele>110.8</ele>
        <time>2021-11-13 10:44:56</time>
      </trkpt>
      <trkpt lat="41.5462" lon="2.27364">
        <ele>110.8</ele>
        <time>2021-11-13 10:44:57</time>
      </trkpt>
      <trkpt lat="41.54618" lon="2.27355">
        <ele>110.8</ele>
        <time>2021-11-13 10:44:58</time>
      </trkpt>
      <trkpt lat="41.54616" lon="2.27345">
        <ele>110.8</ele>
        <time>2021-11-13 10:44:59</time>
      </trkpt>
      <trkpt lat="41.54613" lon="2.27336">
        <ele>110.8</ele>
        <time>2021-11-13 10:45:00</time>
      </trkpt>
      <trkpt lat="41.54611" lon="2.27326">
        <ele>110.8</ele>
        <time>2021-11-13 10:45:01</time>
      </trkpt>
      <trkpt lat="41.54609" lon="2.27316">
        <ele>110.6</ele>
        <time>2021-11-13 10:45:02</time>
      </trkpt>
      <trkpt lat="41.54606" lon="2.27307">
        <ele>110.6</ele>
        <time>2021-11-13 10:45:03</time>
      </trkpt>
      <trkpt lat="41.54604" lon="2.27295">
        <ele>110.6</ele>
        <time>2021-11-13 10:45:04</time>
      </trkpt>
      <trkpt lat="41.54602" lon="2.27288">
        <ele>110.8</ele>
        <time>2021-11-13 10:45:05</time>
      </trkpt>
      <trkpt lat="41.54599" lon="2.27277">
        <ele>110.8</ele>
        <time>2021-11-13 10:45:06</time>
      </trkpt>
      <trkpt lat="41.54598" lon="2.27268">
        <ele>110.8</ele>
        <time>2021-11-13 10:45:07</time>
      </trkpt>
      <trkpt lat="41.54596" lon="2.27259">
        <ele>110.8</ele>
        <time>2021-11-13 10:45:08</time>
      </trkpt>
      <trkpt lat="41.54594" lon="2.2725">
        <ele>111</ele>
        <time>2021-11-13 10:45:09</time>
      </trkpt>
      <trkpt lat="41.54591" lon="2.27241">
        <ele>111.2</ele>
        <time>2021-11-13 10:45:10</time>
      </trkpt>
      <trkpt lat="41.54587" lon="2.27233">
        <ele>111.4</ele>
        <time>2021-11-13 10:45:11</time>
      </trkpt>
      <trkpt lat="41.54583" lon="2.27224">
        <ele>111.6</ele>
        <time>2021-11-13 10:45:12</time>
      </trkpt>
      <trkpt lat="41.54579" lon="2.27218">
        <ele>111.6</ele>
        <time>2021-11-13 10:45:13</time>
      </trkpt>
      <trkpt lat="41.54573" lon="2.27208">
        <ele>111.6</ele>
        <time>2021-11-13 10:45:14</time>
      </trkpt>
      <trkpt lat="41.54568" lon="2.272">
        <ele>111.8</ele>
        <time>2021-11-13 10:45:15</time>
      </trkpt>
      <trkpt lat="41.54562" lon="2.27191">
        <ele>111.8</ele>
        <time>2021-11-13 10:45:16</time>
      </trkpt>
      <trkpt lat="41.54556" lon="2.27183">
        <ele>111.8</ele>
        <time>2021-11-13 10:45:17</time>
      </trkpt>
      <trkpt lat="41.54552" lon="2.27176">
        <ele>111.8</ele>
        <time>2021-11-13 10:45:18</time>
      </trkpt>
      <trkpt lat="41.54545" lon="2.27166">
        <ele>111.8</ele>
        <time>2021-11-13 10:45:19</time>
      </trkpt>
      <trkpt lat="41.5454" lon="2.27158">
        <ele>111.8</ele>
        <time>2021-11-13 10:45:20</time>
      </trkpt>
      <trkpt lat="41.54535" lon="2.27149">
        <ele>111.6</ele>
        <time>2021-11-13 10:45:21</time>
      </trkpt>
      <trkpt lat="41.54531" lon="2.27142">
        <ele>111.4</ele>
        <time>2021-11-13 10:45:22</time>
      </trkpt>
      <trkpt lat="41.54525" lon="2.27131">
        <ele>111.2</ele>
        <time>2021-11-13 10:45:23</time>
      </trkpt>
      <trkpt lat="41.54521" lon="2.2712">
        <ele>111.2</ele>
        <time>2021-11-13 10:45:24</time>
      </trkpt>
      <trkpt lat="41.54519" lon="2.27109">
        <ele>110.8</ele>
        <time>2021-11-13 10:45:25</time>
      </trkpt>
      <trkpt lat="41.54517" lon="2.27097">
        <ele>110.8</ele>
        <time>2021-11-13 10:45:26</time>
      </trkpt>
      <trkpt lat="41.54517" lon="2.27086">
        <ele>110.6</ele>
        <time>2021-11-13 10:45:27</time>
      </trkpt>
      <trkpt lat="41.54517" lon="2.27076">
        <ele>110.2</ele>
        <time>2021-11-13 10:45:28</time>
      </trkpt>
      <trkpt lat="41.54518" lon="2.27062">
        <ele>110</ele>
        <time>2021-11-13 10:45:29</time>
      </trkpt>
      <trkpt lat="41.54519" lon="2.27051">
        <ele>109.8</ele>
        <time>2021-11-13 10:45:30</time>
      </trkpt>
      <trkpt lat="41.54519" lon="2.27041">
        <ele>109.6</ele>
        <time>2021-11-13 10:45:31</time>
      </trkpt>
      <trkpt lat="41.5452" lon="2.27027">
        <ele>109.2</ele>
        <time>2021-11-13 10:45:32</time>
      </trkpt>
      <trkpt lat="41.54521" lon="2.27016">
        <ele>109</ele>
        <time>2021-11-13 10:45:33</time>
      </trkpt>
      <trkpt lat="41.54522" lon="2.27006">
        <ele>108.8</ele>
        <time>2021-11-13 10:45:34</time>
      </trkpt>
      <trkpt lat="41.54523" lon="2.26997">
        <ele>108.6</ele>
        <time>2021-11-13 10:45:35</time>
      </trkpt>
      <trkpt lat="41.54523" lon="2.2699">
        <ele>108.4</ele>
        <time>2021-11-13 10:45:36</time>
      </trkpt>
      <trkpt lat="41.54524" lon="2.26985">
        <ele>108</ele>
        <time>2021-11-13 10:45:37</time>
      </trkpt>
      <trkpt lat="41.54524" lon="2.26981">
        <ele>107.8</ele>
        <time>2021-11-13 10:45:38</time>
      </trkpt>
      <trkpt lat="41.54524" lon="2.26979">
        <ele>107.4</ele>
        <time>2021-11-13 10:45:39</time>
      </trkpt>
      <trkpt lat="41.54524" lon="2.26977">
        <ele>107.4</ele>
        <time>2021-11-13 10:45:40</time>
      </trkpt>
      <trkpt lat="41.54524" lon="2.26974">
        <ele>107</ele>
        <time>2021-11-13 10:45:41</time>
      </trkpt>
      <trkpt lat="41.54525" lon="2.26971">
        <ele>107</ele>
        <time>2021-11-13 10:45:42</time>
      </trkpt>
      <trkpt lat="41.54525" lon="2.26967">
        <ele>106.8</ele>
        <time>2021-11-13 10:45:43</time>
      </trkpt>
      <trkpt lat="41.54526" lon="2.26963">
        <ele>106.8</ele>
        <time>2021-11-13 10:45:44</time>
      </trkpt>
      <trkpt lat="41.54526" lon="2.26956">
        <ele>106.6</ele>
        <time>2021-11-13 10:45:45</time>
      </trkpt>
      <trkpt lat="41.54526" lon="2.26949">
        <ele>106.6</ele>
        <time>2021-11-13 10:45:46</time>
      </trkpt>
      <trkpt lat="41.54526" lon="2.26941">
        <ele>106.6</ele>
        <time>2021-11-13 10:45:47</time>
      </trkpt>
      <trkpt lat="41.54526" lon="2.26935">
        <ele>106.4</ele>
        <time>2021-11-13 10:45:48</time>
      </trkpt>
      <trkpt lat="41.54526" lon="2.26927">
        <ele>106.4</ele>
        <time>2021-11-13 10:45:49</time>
      </trkpt>
      <trkpt lat="41.54526" lon="2.26917">
        <ele>106</ele>
        <time>2021-11-13 10:45:50</time>
      </trkpt>
      <trkpt lat="41.54525" lon="2.26908">
        <ele>106</ele>
        <time>2021-11-13 10:45:51</time>
      </trkpt>
      <trkpt lat="41.54525" lon="2.26899">
        <ele>105.8</ele>
        <time>2021-11-13 10:45:52</time>
      </trkpt>
      <trkpt lat="41.54524" lon="2.26892">
        <ele>105.4</ele>
        <time>2021-11-13 10:45:53</time>
      </trkpt>
      <trkpt lat="41.54523" lon="2.26881">
        <ele>105.2</ele>
        <time>2021-11-13 10:45:54</time>
      </trkpt>
      <trkpt lat="41.54523" lon="2.26873">
        <ele>105</ele>
        <time>2021-11-13 10:45:55</time>
      </trkpt>
      <trkpt lat="41.54522" lon="2.26864">
        <ele>105</ele>
        <time>2021-11-13 10:45:56</time>
      </trkpt>
      <trkpt lat="41.54522" lon="2.26854">
        <ele>104.6</ele>
        <time>2021-11-13 10:45:57</time>
      </trkpt>
      <trkpt lat="41.54521" lon="2.26844">
        <ele>104.4</ele>
        <time>2021-11-13 10:45:58</time>
      </trkpt>
      <trkpt lat="41.5452" lon="2.26833">
        <ele>104</ele>
        <time>2021-11-13 10:45:59</time>
      </trkpt>
      <trkpt lat="41.54518" lon="2.26824">
        <ele>103.8</ele>
        <time>2021-11-13 10:46:00</time>
      </trkpt>
      <trkpt lat="41.54517" lon="2.26815">
        <ele>103.6</ele>
        <time>2021-11-13 10:46:01</time>
      </trkpt>
      <trkpt lat="41.54514" lon="2.26807">
        <ele>103.2</ele>
        <time>2021-11-13 10:46:02</time>
      </trkpt>
      <trkpt lat="41.54512" lon="2.268">
        <ele>103.2</ele>
        <time>2021-11-13 10:46:03</time>
      </trkpt>
      <trkpt lat="41.54509" lon="2.26792">
        <ele>102.8</ele>
        <time>2021-11-13 10:46:04</time>
      </trkpt>
      <trkpt lat="41.54505" lon="2.26782">
        <ele>102.6</ele>
        <time>2021-11-13 10:46:05</time>
      </trkpt>
      <trkpt lat="41.54503" lon="2.26775">
        <ele>102</ele>
        <time>2021-11-13 10:46:06</time>
      </trkpt>
      <trkpt lat="41.54501" lon="2.26767">
        <ele>101.8</ele>
        <time>2021-11-13 10:46:07</time>
      </trkpt>
      <trkpt lat="41.54497" lon="2.26757">
        <ele>101.4</ele>
        <time>2021-11-13 10:46:08</time>
      </trkpt>
      <trkpt lat="41.54495" lon="2.26749">
        <ele>101</ele>
        <time>2021-11-13 10:46:09</time>
      </trkpt>
      <trkpt lat="41.54492" lon="2.26742">
        <ele>100.8</ele>
        <time>2021-11-13 10:46:10</time>
      </trkpt>
      <trkpt lat="41.5449" lon="2.26736">
        <ele>100.6</ele>
        <time>2021-11-13 10:46:11</time>
      </trkpt>
      <trkpt lat="41.54488" lon="2.26729">
        <ele>100.4</ele>
        <time>2021-11-13 10:46:12</time>
      </trkpt>
      <trkpt lat="41.54486" lon="2.26722">
        <ele>100.2</ele>
        <time>2021-11-13 10:46:13</time>
      </trkpt>
      <trkpt lat="41.54483" lon="2.26713">
        <ele>100</ele>
        <time>2021-11-13 10:46:14</time>
      </trkpt>
      <trkpt lat="41.54481" lon="2.26707">
        <ele>99.4</ele>
        <time>2021-11-13 10:46:15</time>
      </trkpt>
      <trkpt lat="41.54479" lon="2.267">
        <ele>98.8</ele>
        <time>2021-11-13 10:46:16</time>
      </trkpt>
      <trkpt lat="41.54476" lon="2.26693">
        <ele>98.6</ele>
        <time>2021-11-13 10:46:17</time>
      </trkpt>
      <trkpt lat="41.54474" lon="2.26686">
        <ele>98.4</ele>
        <time>2021-11-13 10:46:18</time>
      </trkpt>
      <trkpt lat="41.54473" lon="2.26678">
        <ele>98.4</ele>
        <time>2021-11-13 10:46:19</time>
      </trkpt>
      <trkpt lat="41.54474" lon="2.2667">
        <ele>98</ele>
        <time>2021-11-13 10:46:20</time>
      </trkpt>
      <trkpt lat="41.54477" lon="2.26662">
        <ele>97.8</ele>
        <time>2021-11-13 10:46:21</time>
      </trkpt>
      <trkpt lat="41.54482" lon="2.26657">
        <ele>97.6</ele>
        <time>2021-11-13 10:46:22</time>
      </trkpt>
      <trkpt lat="41.5449" lon="2.26653">
        <ele>97.4</ele>
        <time>2021-11-13 10:46:23</time>
      </trkpt>
      <trkpt lat="41.54498" lon="2.26653">
        <ele>96.8</ele>
        <time>2021-11-13 10:46:24</time>
      </trkpt>
      <trkpt lat="41.54504" lon="2.26652">
        <ele>96.2</ele>
        <time>2021-11-13 10:46:25</time>
      </trkpt>
      <trkpt lat="41.54513" lon="2.26651">
        <ele>96</ele>
        <time>2021-11-13 10:46:26</time>
      </trkpt>
      <trkpt lat="41.54521" lon="2.26649">
        <ele>95.8</ele>
        <time>2021-11-13 10:46:27</time>
      </trkpt>
      <trkpt lat="41.54528" lon="2.26647">
        <ele>95.6</ele>
        <time>2021-11-13 10:46:28</time>
      </trkpt>
      <trkpt lat="41.54536" lon="2.26644">
        <ele>95.4</ele>
        <time>2021-11-13 10:46:29</time>
      </trkpt>
      <trkpt lat="41.54544" lon="2.26639">
        <ele>95.4</ele>
        <time>2021-11-13 10:46:30</time>
      </trkpt>
      <trkpt lat="41.54553" lon="2.26633">
        <ele>95</ele>
        <time>2021-11-13 10:46:31</time>
      </trkpt>
      <trkpt lat="41.5456" lon="2.26627">
        <ele>94.4</ele>
        <time>2021-11-13 10:46:32</time>
      </trkpt>
      <trkpt lat="41.54566" lon="2.26622">
        <ele>94</ele>
        <time>2021-11-13 10:46:33</time>
      </trkpt>
      <trkpt lat="41.54573" lon="2.26616">
        <ele>93.6</ele>
        <time>2021-11-13 10:46:34</time>
      </trkpt>
      <trkpt lat="41.54581" lon="2.26609">
        <ele>93.4</ele>
        <time>2021-11-13 10:46:35</time>
      </trkpt>
      <trkpt lat="41.54587" lon="2.26605">
        <ele>93</ele>
        <time>2021-11-13 10:46:36</time>
      </trkpt>
      <trkpt lat="41.54596" lon="2.26599">
        <ele>92.8</ele>
        <time>2021-11-13 10:46:37</time>
      </trkpt>
      <trkpt lat="41.54602" lon="2.26596">
        <ele>92.6</ele>
        <time>2021-11-13 10:46:38</time>
      </trkpt>
      <trkpt lat="41.54608" lon="2.26591">
        <ele>92.4</ele>
        <time>2021-11-13 10:46:39</time>
      </trkpt>
      <trkpt lat="41.54612" lon="2.26585">
        <ele>91.8</ele>
        <time>2021-11-13 10:46:40</time>
      </trkpt>
      <trkpt lat="41.54615" lon="2.26577">
        <ele>91.4</ele>
        <time>2021-11-13 10:46:41</time>
      </trkpt>
      <trkpt lat="41.54619" lon="2.26572">
        <ele>91.2</ele>
        <time>2021-11-13 10:46:42</time>
      </trkpt>
      <trkpt lat="41.54622" lon="2.26569">
        <ele>91</ele>
        <time>2021-11-13 10:46:43</time>
      </trkpt>
      <trkpt lat="41.54626" lon="2.26565">
        <ele>90.8</ele>
        <time>2021-11-13 10:46:44</time>
      </trkpt>
      <trkpt lat="41.54631" lon="2.26561">
        <ele>90.8</ele>
        <time>2021-11-13 10:46:45</time>
      </trkpt>
      <trkpt lat="41.54636" lon="2.26557">
        <ele>90.8</ele>
        <time>2021-11-13 10:46:46</time>
      </trkpt>
      <trkpt lat="41.5464" lon="2.26553">
        <ele>90.6</ele>
        <time>2021-11-13 10:46:47</time>
      </trkpt>
      <trkpt lat="41.54644" lon="2.26549">
        <ele>90.6</ele>
        <time>2021-11-13 10:46:48</time>
      </trkpt>
      <trkpt lat="41.5465" lon="2.26544">
        <ele>90.6</ele>
        <time>2021-11-13 10:46:49</time>
      </trkpt>
      <trkpt lat="41.54655" lon="2.26539">
        <ele>90.6</ele>
        <time>2021-11-13 10:46:50</time>
      </trkpt>
      <trkpt lat="41.54659" lon="2.26536">
        <ele>90.6</ele>
        <time>2021-11-13 10:46:51</time>
      </trkpt>
      <trkpt lat="41.54663" lon="2.26533">
        <ele>90.6</ele>
        <time>2021-11-13 10:46:52</time>
      </trkpt>
      <trkpt lat="41.54668" lon="2.26529">
        <ele>90.6</ele>
        <time>2021-11-13 10:46:53</time>
      </trkpt>
      <trkpt lat="41.54672" lon="2.26525">
        <ele>90.6</ele>
        <time>2021-11-13 10:46:54</time>
      </trkpt>
      <trkpt lat="41.54678" lon="2.2652">
        <ele>90.6</ele>
        <time>2021-11-13 10:46:55</time>
      </trkpt>
      <trkpt lat="41.54681" lon="2.26516">
        <ele>90.6</ele>
        <time>2021-11-13 10:46:56</time>
      </trkpt>
      <trkpt lat="41.54686" lon="2.26512">
        <ele>90.6</ele>
        <time>2021-11-13 10:46:57</time>
      </trkpt>
      <trkpt lat="41.54692" lon="2.26508">
        <ele>90.6</ele>
        <time>2021-11-13 10:46:58</time>
      </trkpt>
      <trkpt lat="41.54696" lon="2.26506">
        <ele>90.8</ele>
        <time>2021-11-13 10:46:59</time>
      </trkpt>
      <trkpt lat="41.54701" lon="2.26503">
        <ele>90.8</ele>
        <time>2021-11-13 10:47:00</time>
      </trkpt>
      <trkpt lat="41.54707" lon="2.26501">
        <ele>90.8</ele>
        <time>2021-11-13 10:47:01</time>
      </trkpt>
      <trkpt lat="41.54712" lon="2.26497">
        <ele>91</ele>
        <time>2021-11-13 10:47:02</time>
      </trkpt>
      <trkpt lat="41.54716" lon="2.2649">
        <ele>91</ele>
        <time>2021-11-13 10:47:03</time>
      </trkpt>
      <trkpt lat="41.54718" lon="2.26483">
        <ele>91</ele>
        <time>2021-11-13 10:47:04</time>
      </trkpt>
      <trkpt lat="41.54716" lon="2.26474">
        <ele>91</ele>
        <time>2021-11-13 10:47:05</time>
      </trkpt>
      <trkpt lat="41.54713" lon="2.26469">
        <ele>90.6</ele>
        <time>2021-11-13 10:47:06</time>
      </trkpt>
      <trkpt lat="41.54709" lon="2.26463">
        <ele>90.8</ele>
        <time>2021-11-13 10:47:07</time>
      </trkpt>
      <trkpt lat="41.54706" lon="2.26456">
        <ele>90.4</ele>
        <time>2021-11-13 10:47:08</time>
      </trkpt>
      <trkpt lat="41.54702" lon="2.26449">
        <ele>90.6</ele>
        <time>2021-11-13 10:47:09</time>
      </trkpt>
      <trkpt lat="41.54699" lon="2.26442">
        <ele>90.4</ele>
        <time>2021-11-13 10:47:10</time>
      </trkpt>
      <trkpt lat="41.54695" lon="2.26434">
        <ele>90.4</ele>
        <time>2021-11-13 10:47:11</time>
      </trkpt>
      <trkpt lat="41.54692" lon="2.26426">
        <ele>90</ele>
        <time>2021-11-13 10:47:12</time>
      </trkpt>
      <trkpt lat="41.54689" lon="2.26419">
        <ele>90</ele>
        <time>2021-11-13 10:47:13</time>
      </trkpt>
      <trkpt lat="41.54685" lon="2.26411">
        <ele>89.6</ele>
        <time>2021-11-13 10:47:14</time>
      </trkpt>
      <trkpt lat="41.54682" lon="2.26403">
        <ele>89.4</ele>
        <time>2021-11-13 10:47:15</time>
      </trkpt>
      <trkpt lat="41.54679" lon="2.26395">
        <ele>89.4</ele>
        <time>2021-11-13 10:47:16</time>
      </trkpt>
      <trkpt lat="41.54675" lon="2.26387">
        <ele>89.2</ele>
        <time>2021-11-13 10:47:17</time>
      </trkpt>
      <trkpt lat="41.54672" lon="2.26379">
        <ele>89.2</ele>
        <time>2021-11-13 10:47:18</time>
      </trkpt>
      <trkpt lat="41.54669" lon="2.2637">
        <ele>89</ele>
        <time>2021-11-13 10:47:19</time>
      </trkpt>
      <trkpt lat="41.54666" lon="2.26362">
        <ele>89</ele>
        <time>2021-11-13 10:47:20</time>
      </trkpt>
      <trkpt lat="41.54665" lon="2.26353">
        <ele>88.8</ele>
        <time>2021-11-13 10:47:21</time>
      </trkpt>
      <trkpt lat="41.54665" lon="2.26344">
        <ele>88.6</ele>
        <time>2021-11-13 10:47:22</time>
      </trkpt>
      <trkpt lat="41.54666" lon="2.26334">
        <ele>88.6</ele>
        <time>2021-11-13 10:47:23</time>
      </trkpt>
      <trkpt lat="41.54667" lon="2.26327">
        <ele>88.4</ele>
        <time>2021-11-13 10:47:24</time>
      </trkpt>
      <trkpt lat="41.54668" lon="2.26318">
        <ele>88.4</ele>
        <time>2021-11-13 10:47:25</time>
      </trkpt>
      <trkpt lat="41.5467" lon="2.26309">
        <ele>88.4</ele>
        <time>2021-11-13 10:47:26</time>
      </trkpt>
      <trkpt lat="41.54672" lon="2.26299">
        <ele>88.2</ele>
        <time>2021-11-13 10:47:27</time>
      </trkpt>
      <trkpt lat="41.54674" lon="2.2629">
        <ele>88.2</ele>
        <time>2021-11-13 10:47:28</time>
      </trkpt>
      <trkpt lat="41.54675" lon="2.26281">
        <ele>88</ele>
        <time>2021-11-13 10:47:29</time>
      </trkpt>
      <trkpt lat="41.54677" lon="2.26272">
        <ele>88</ele>
        <time>2021-11-13 10:47:30</time>
      </trkpt>
      <trkpt lat="41.54678" lon="2.26263">
        <ele>87.8</ele>
        <time>2021-11-13 10:47:31</time>
      </trkpt>
      <trkpt lat="41.54679" lon="2.26254">
        <ele>87.8</ele>
        <time>2021-11-13 10:47:32</time>
      </trkpt>
      <trkpt lat="41.54681" lon="2.26245">
        <ele>87.8</ele>
        <time>2021-11-13 10:47:33</time>
      </trkpt>
      <trkpt lat="41.54682" lon="2.26236">
        <ele>87.8</ele>
        <time>2021-11-13 10:47:34</time>
      </trkpt>
      <trkpt lat="41.54684" lon="2.26226">
        <ele>87.8</ele>
        <time>2021-11-13 10:47:35</time>
      </trkpt>
      <trkpt lat="41.54686" lon="2.26217">
        <ele>87.8</ele>
        <time>2021-11-13 10:47:36</time>
      </trkpt>
      <trkpt lat="41.54687" lon="2.26207">
        <ele>87.6</ele>
        <time>2021-11-13 10:47:37</time>
      </trkpt>
      <trkpt lat="41.54689" lon="2.26198">
        <ele>87.6</ele>
        <time>2021-11-13 10:47:38</time>
      </trkpt>
      <trkpt lat="41.5469" lon="2.26189">
        <ele>87.6</ele>
        <time>2021-11-13 10:47:39</time>
      </trkpt>
      <trkpt lat="41.54692" lon="2.26179">
        <ele>87.6</ele>
        <time>2021-11-13 10:47:40</time>
      </trkpt>
      <trkpt lat="41.54694" lon="2.2617">
        <ele>87.4</ele>
        <time>2021-11-13 10:47:41</time>
      </trkpt>
      <trkpt lat="41.54695" lon="2.26161">
        <ele>87.4</ele>
        <time>2021-11-13 10:47:42</time>
      </trkpt>
      <trkpt lat="41.54697" lon="2.26151">
        <ele>87.4</ele>
        <time>2021-11-13 10:47:43</time>
      </trkpt>
      <trkpt lat="41.54699" lon="2.26141">
        <ele>87.4</ele>
        <time>2021-11-13 10:47:44</time>
      </trkpt>
      <trkpt lat="41.54701" lon="2.26132">
        <ele>87.4</ele>
        <time>2021-11-13 10:47:45</time>
      </trkpt>
      <trkpt lat="41.54702" lon="2.26122">
        <ele>87.4</ele>
        <time>2021-11-13 10:47:46</time>
      </trkpt>
      <trkpt lat="41.54704" lon="2.26112">
        <ele>87.4</ele>
        <time>2021-11-13 10:47:47</time>
      </trkpt>
      <trkpt lat="41.54705" lon="2.26102">
        <ele>87.2</ele>
        <time>2021-11-13 10:47:48</time>
      </trkpt>
      <trkpt lat="41.54707" lon="2.26093">
        <ele>87.2</ele>
        <time>2021-11-13 10:47:49</time>
      </trkpt>
      <trkpt lat="41.54708" lon="2.26083">
        <ele>87.2</ele>
        <time>2021-11-13 10:47:50</time>
      </trkpt>
      <trkpt lat="41.5471" lon="2.26073">
        <ele>87</ele>
        <time>2021-11-13 10:47:51</time>
      </trkpt>
      <trkpt lat="41.54712" lon="2.26063">
        <ele>86.8</ele>
        <time>2021-11-13 10:47:52</time>
      </trkpt>
      <trkpt lat="41.54713" lon="2.26053">
        <ele>86.6</ele>
        <time>2021-11-13 10:47:53</time>
      </trkpt>
      <trkpt lat="41.54715" lon="2.26044">
        <ele>86.4</ele>
        <time>2021-11-13 10:47:54</time>
      </trkpt>
      <trkpt lat="41.54716" lon="2.26034">
        <ele>86.4</ele>
        <time>2021-11-13 10:47:55</time>
      </trkpt>
      <trkpt lat="41.54718" lon="2.26024">
        <ele>86.2</ele>
        <time>2021-11-13 10:47:56</time>
      </trkpt>
      <trkpt lat="41.5472" lon="2.26014">
        <ele>86.2</ele>
        <time>2021-11-13 10:47:57</time>
      </trkpt>
      <trkpt lat="41.54721" lon="2.26004">
        <ele>86.2</ele>
        <time>2021-11-13 10:47:58</time>
      </trkpt>
      <trkpt lat="41.54723" lon="2.25994">
        <ele>86.2</ele>
        <time>2021-11-13 10:47:59</time>
      </trkpt>
      <trkpt lat="41.54725" lon="2.25985">
        <ele>86.2</ele>
        <time>2021-11-13 10:48:00</time>
      </trkpt>
      <trkpt lat="41.54726" lon="2.25975">
        <ele>86.2</ele>
        <time>2021-11-13 10:48:01</time>
      </trkpt>
      <trkpt lat="41.54728" lon="2.25965">
        <ele>86</ele>
        <time>2021-11-13 10:48:02</time>
      </trkpt>
      <trkpt lat="41.5473" lon="2.25955">
        <ele>86</ele>
        <time>2021-11-13 10:48:03</time>
      </trkpt>
      <trkpt lat="41.54731" lon="2.25945">
        <ele>86</ele>
        <time>2021-11-13 10:48:04</time>
      </trkpt>
      <trkpt lat="41.54733" lon="2.25935">
        <ele>85.8</ele>
        <time>2021-11-13 10:48:05</time>
      </trkpt>
      <trkpt lat="41.54735" lon="2.25925">
        <ele>85.8</ele>
        <time>2021-11-13 10:48:06</time>
      </trkpt>
      <trkpt lat="41.54737" lon="2.25915">
        <ele>85.8</ele>
        <time>2021-11-13 10:48:07</time>
      </trkpt>
      <trkpt lat="41.54738" lon="2.25905">
        <ele>85.8</ele>
        <time>2021-11-13 10:48:08</time>
      </trkpt>
      <trkpt lat="41.5474" lon="2.25895">
        <ele>85.8</ele>
        <time>2021-11-13 10:48:09</time>
      </trkpt>
      <trkpt lat="41.54742" lon="2.25885">
        <ele>85.6</ele>
        <time>2021-11-13 10:48:10</time>
      </trkpt>
      <trkpt lat="41.54743" lon="2.25875">
        <ele>85.6</ele>
        <time>2021-11-13 10:48:11</time>
      </trkpt>
      <trkpt lat="41.54745" lon="2.25865">
        <ele>85.6</ele>
        <time>2021-11-13 10:48:12</time>
      </trkpt>
      <trkpt lat="41.54747" lon="2.25855">
        <ele>85.6</ele>
        <time>2021-11-13 10:48:13</time>
      </trkpt>
      <trkpt lat="41.54749" lon="2.25845">
        <ele>85.6</ele>
        <time>2021-11-13 10:48:14</time>
      </trkpt>
      <trkpt lat="41.5475" lon="2.25834">
        <ele>85.6</ele>
        <time>2021-11-13 10:48:15</time>
      </trkpt>
      <trkpt lat="41.54752" lon="2.25824">
        <ele>85.6</ele>
        <time>2021-11-13 10:48:16</time>
      </trkpt>
      <trkpt lat="41.54753" lon="2.25812">
        <ele>85.4</ele>
        <time>2021-11-13 10:48:17</time>
      </trkpt>
      <trkpt lat="41.54755" lon="2.25804">
        <ele>85.4</ele>
        <time>2021-11-13 10:48:18</time>
      </trkpt>
      <trkpt lat="41.54756" lon="2.25794">
        <ele>85.4</ele>
        <time>2021-11-13 10:48:19</time>
      </trkpt>
      <trkpt lat="41.54757" lon="2.25784">
        <ele>85.2</ele>
        <time>2021-11-13 10:48:20</time>
      </trkpt>
      <trkpt lat="41.54759" lon="2.25774">
        <ele>85.2</ele>
        <time>2021-11-13 10:48:21</time>
      </trkpt>
      <trkpt lat="41.54761" lon="2.25764">
        <ele>85</ele>
        <time>2021-11-13 10:48:22</time>
      </trkpt>
      <trkpt lat="41.54762" lon="2.25755">
        <ele>84.8</ele>
        <time>2021-11-13 10:48:23</time>
      </trkpt>
      <trkpt lat="41.54764" lon="2.25745">
        <ele>84.8</ele>
        <time>2021-11-13 10:48:24</time>
      </trkpt>
      <trkpt lat="41.54766" lon="2.25735">
        <ele>84.6</ele>
        <time>2021-11-13 10:48:25</time>
      </trkpt>
      <trkpt lat="41.54767" lon="2.25725">
        <ele>84.6</ele>
        <time>2021-11-13 10:48:26</time>
      </trkpt>
      <trkpt lat="41.54769" lon="2.25716">
        <ele>84.6</ele>
        <time>2021-11-13 10:48:27</time>
      </trkpt>
      <trkpt lat="41.5477" lon="2.25705">
        <ele>84.6</ele>
        <time>2021-11-13 10:48:28</time>
      </trkpt>
      <trkpt lat="41.54772" lon="2.25695">
        <ele>84.6</ele>
        <time>2021-11-13 10:48:29</time>
      </trkpt>
      <trkpt lat="41.54774" lon="2.25685">
        <ele>84.6</ele>
        <time>2021-11-13 10:48:30</time>
      </trkpt>
      <trkpt lat="41.54775" lon="2.25675">
        <ele>84.6</ele>
        <time>2021-11-13 10:48:31</time>
      </trkpt>
      <trkpt lat="41.54777" lon="2.25665">
        <ele>84.6</ele>
        <time>2021-11-13 10:48:32</time>
      </trkpt>
      <trkpt lat="41.54779" lon="2.25655">
        <ele>84.4</ele>
        <time>2021-11-13 10:48:33</time>
      </trkpt>
      <trkpt lat="41.5478" lon="2.25645">
        <ele>84.4</ele>
        <time>2021-11-13 10:48:34</time>
      </trkpt>
      <trkpt lat="41.54782" lon="2.25635">
        <ele>84.4</ele>
        <time>2021-11-13 10:48:35</time>
      </trkpt>
      <trkpt lat="41.54783" lon="2.25625">
        <ele>84.4</ele>
        <time>2021-11-13 10:48:36</time>
      </trkpt>
      <trkpt lat="41.54785" lon="2.25615">
        <ele>84.4</ele>
        <time>2021-11-13 10:48:37</time>
      </trkpt>
      <trkpt lat="41.54787" lon="2.25605">
        <ele>84.4</ele>
        <time>2021-11-13 10:48:38</time>
      </trkpt>
      <trkpt lat="41.54789" lon="2.25595">
        <ele>84.2</ele>
        <time>2021-11-13 10:48:39</time>
      </trkpt>
      <trkpt lat="41.5479" lon="2.25586">
        <ele>84.2</ele>
        <time>2021-11-13 10:48:40</time>
      </trkpt>
      <trkpt lat="41.54792" lon="2.25576">
        <ele>84</ele>
        <time>2021-11-13 10:48:41</time>
      </trkpt>
      <trkpt lat="41.54794" lon="2.25566">
        <ele>84</ele>
        <time>2021-11-13 10:48:42</time>
      </trkpt>
      <trkpt lat="41.54795" lon="2.25556">
        <ele>84</ele>
        <time>2021-11-13 10:48:43</time>
      </trkpt>
      <trkpt lat="41.54797" lon="2.25546">
        <ele>84</ele>
        <time>2021-11-13 10:48:44</time>
      </trkpt>
      <trkpt lat="41.54798" lon="2.25536">
        <ele>84</ele>
        <time>2021-11-13 10:48:45</time>
      </trkpt>
      <trkpt lat="41.548" lon="2.25526">
        <ele>84</ele>
        <time>2021-11-13 10:48:46</time>
      </trkpt>
      <trkpt lat="41.54801" lon="2.25516">
        <ele>84</ele>
        <time>2021-11-13 10:48:47</time>
      </trkpt>
      <trkpt lat="41.54803" lon="2.25506">
        <ele>84</ele>
        <time>2021-11-13 10:48:48</time>
      </trkpt>
      <trkpt lat="41.54804" lon="2.25496">
        <ele>83.8</ele>
        <time>2021-11-13 10:48:49</time>
      </trkpt>
      <trkpt lat="41.54806" lon="2.25486">
        <ele>83.8</ele>
        <time>2021-11-13 10:48:50</time>
      </trkpt>
      <trkpt lat="41.54808" lon="2.25476">
        <ele>83.8</ele>
        <time>2021-11-13 10:48:51</time>
      </trkpt>
      <trkpt lat="41.5481" lon="2.25466">
        <ele>83.8</ele>
        <time>2021-11-13 10:48:52</time>
      </trkpt>
      <trkpt lat="41.54812" lon="2.25456">
        <ele>83.8</ele>
        <time>2021-11-13 10:48:53</time>
      </trkpt>
      <trkpt lat="41.54813" lon="2.25446">
        <ele>83.8</ele>
        <time>2021-11-13 10:48:54</time>
      </trkpt>
      <trkpt lat="41.54815" lon="2.25436">
        <ele>83.6</ele>
        <time>2021-11-13 10:48:55</time>
      </trkpt>
      <trkpt lat="41.54817" lon="2.25426">
        <ele>83.6</ele>
        <time>2021-11-13 10:48:56</time>
      </trkpt>
      <trkpt lat="41.54819" lon="2.25416">
        <ele>83.6</ele>
        <time>2021-11-13 10:48:57</time>
      </trkpt>
      <trkpt lat="41.5482" lon="2.25406">
        <ele>83.6</ele>
        <time>2021-11-13 10:48:58</time>
      </trkpt>
      <trkpt lat="41.54822" lon="2.25396">
        <ele>83.4</ele>
        <time>2021-11-13 10:48:59</time>
      </trkpt>
      <trkpt lat="41.54824" lon="2.25386">
        <ele>83.4</ele>
        <time>2021-11-13 10:49:00</time>
      </trkpt>
      <trkpt lat="41.54825" lon="2.25377">
        <ele>83.4</ele>
        <time>2021-11-13 10:49:01</time>
      </trkpt>
      <trkpt lat="41.54827" lon="2.25367">
        <ele>83.4</ele>
        <time>2021-11-13 10:49:02</time>
      </trkpt>
      <trkpt lat="41.54829" lon="2.25357">
        <ele>83.4</ele>
        <time>2021-11-13 10:49:03</time>
      </trkpt>
      <trkpt lat="41.5483" lon="2.25347">
        <ele>83.4</ele>
        <time>2021-11-13 10:49:04</time>
      </trkpt>
      <trkpt lat="41.54832" lon="2.25337">
        <ele>83.4</ele>
        <time>2021-11-13 10:49:05</time>
      </trkpt>
      <trkpt lat="41.54833" lon="2.25327">
        <ele>83.4</ele>
        <time>2021-11-13 10:49:06</time>
      </trkpt>
      <trkpt lat="41.54835" lon="2.25317">
        <ele>83.4</ele>
        <time>2021-11-13 10:49:07</time>
      </trkpt>
      <trkpt lat="41.54837" lon="2.25307">
        <ele>83.4</ele>
        <time>2021-11-13 10:49:08</time>
      </trkpt>
      <trkpt lat="41.54838" lon="2.25297">
        <ele>83.2</ele>
        <time>2021-11-13 10:49:09</time>
      </trkpt>
      <trkpt lat="41.5484" lon="2.25288">
        <ele>83.2</ele>
        <time>2021-11-13 10:49:10</time>
      </trkpt>
      <trkpt lat="41.54841" lon="2.25278">
        <ele>83.2</ele>
        <time>2021-11-13 10:49:11</time>
      </trkpt>
      <trkpt lat="41.54843" lon="2.25268">
        <ele>83.2</ele>
        <time>2021-11-13 10:49:12</time>
      </trkpt>
      <trkpt lat="41.54845" lon="2.25259">
        <ele>83.2</ele>
        <time>2021-11-13 10:49:13</time>
      </trkpt>
      <trkpt lat="41.54848" lon="2.25251">
        <ele>83.2</ele>
        <time>2021-11-13 10:49:14</time>
      </trkpt>
      <trkpt lat="41.54853" lon="2.25244">
        <ele>83.2</ele>
        <time>2021-11-13 10:49:15</time>
      </trkpt>
      <trkpt lat="41.54858" lon="2.25241">
        <ele>83</ele>
        <time>2021-11-13 10:49:16</time>
      </trkpt>
      <trkpt lat="41.54865" lon="2.25241">
        <ele>83</ele>
        <time>2021-11-13 10:49:17</time>
      </trkpt>
      <trkpt lat="41.54871" lon="2.25243">
        <ele>83</ele>
        <time>2021-11-13 10:49:18</time>
      </trkpt>
      <trkpt lat="41.54878" lon="2.25246">
        <ele>83</ele>
        <time>2021-11-13 10:49:19</time>
      </trkpt>
      <trkpt lat="41.54884" lon="2.25249">
        <ele>83</ele>
        <time>2021-11-13 10:49:20</time>
      </trkpt>
      <trkpt lat="41.54891" lon="2.25252">
        <ele>83</ele>
        <time>2021-11-13 10:49:21</time>
      </trkpt>
      <trkpt lat="41.54898" lon="2.25254">
        <ele>83</ele>
        <time>2021-11-13 10:49:22</time>
      </trkpt>
      <trkpt lat="41.54905" lon="2.25256">
        <ele>83</ele>
        <time>2021-11-13 10:49:23</time>
      </trkpt>
      <trkpt lat="41.54911" lon="2.25258">
        <ele>83.2</ele>
        <time>2021-11-13 10:49:24</time>
      </trkpt>
      <trkpt lat="41.54918" lon="2.2526">
        <ele>83.2</ele>
        <time>2021-11-13 10:49:25</time>
      </trkpt>
      <trkpt lat="41.54925" lon="2.25262">
        <ele>83.6</ele>
        <time>2021-11-13 10:49:26</time>
      </trkpt>
      <trkpt lat="41.54932" lon="2.25264">
        <ele>83.6</ele>
        <time>2021-11-13 10:49:27</time>
      </trkpt>
      <trkpt lat="41.54938" lon="2.25266">
        <ele>83.6</ele>
        <time>2021-11-13 10:49:28</time>
      </trkpt>
      <trkpt lat="41.54945" lon="2.25268">
        <ele>83.6</ele>
        <time>2021-11-13 10:49:29</time>
      </trkpt>
      <trkpt lat="41.54952" lon="2.2527">
        <ele>83.6</ele>
        <time>2021-11-13 10:49:30</time>
      </trkpt>
      <trkpt lat="41.54958" lon="2.25272">
        <ele>83.6</ele>
        <time>2021-11-13 10:49:31</time>
      </trkpt>
      <trkpt lat="41.54965" lon="2.25273">
        <ele>83.6</ele>
        <time>2021-11-13 10:49:32</time>
      </trkpt>
      <trkpt lat="41.54971" lon="2.25275">
        <ele>83.8</ele>
        <time>2021-11-13 10:49:33</time>
      </trkpt>
      <trkpt lat="41.54977" lon="2.25277">
        <ele>83.8</ele>
        <time>2021-11-13 10:49:34</time>
      </trkpt>
      <trkpt lat="41.54983" lon="2.25278">
        <ele>83.8</ele>
        <time>2021-11-13 10:49:35</time>
      </trkpt>
      <trkpt lat="41.54989" lon="2.25278">
        <ele>83.8</ele>
        <time>2021-11-13 10:49:36</time>
      </trkpt>
      <trkpt lat="41.54993" lon="2.25276">
        <ele>83.8</ele>
        <time>2021-11-13 10:49:37</time>
      </trkpt>
      <trkpt lat="41.54997" lon="2.25273">
        <ele>83.8</ele>
        <time>2021-11-13 10:49:38</time>
      </trkpt>
      <trkpt lat="41.54999" lon="2.25269">
        <ele>84.2</ele>
        <time>2021-11-13 10:49:39</time>
      </trkpt>
      <trkpt lat="41.55001" lon="2.25263">
        <ele>84.2</ele>
        <time>2021-11-13 10:49:40</time>
      </trkpt>
      <trkpt lat="41.55002" lon="2.25257">
        <ele>84.2</ele>
        <time>2021-11-13 10:49:41</time>
      </trkpt>
      <trkpt lat="41.55004" lon="2.2525">
        <ele>84.2</ele>
        <time>2021-11-13 10:49:42</time>
      </trkpt>
      <trkpt lat="41.55005" lon="2.25244">
        <ele>84.2</ele>
        <time>2021-11-13 10:49:43</time>
      </trkpt>
      <trkpt lat="41.55007" lon="2.25237">
        <ele>84.6</ele>
        <time>2021-11-13 10:49:44</time>
      </trkpt>
      <trkpt lat="41.55008" lon="2.25231">
        <ele>84.8</ele>
        <time>2021-11-13 10:49:45</time>
      </trkpt>
      <trkpt lat="41.5501" lon="2.25224">
        <ele>85</ele>
        <time>2021-11-13 10:49:46</time>
      </trkpt>
      <trkpt lat="41.55012" lon="2.25215">
        <ele>85.2</ele>
        <time>2021-11-13 10:49:47</time>
      </trkpt>
      <trkpt lat="41.55014" lon="2.25209">
        <ele>85.4</ele>
        <time>2021-11-13 10:49:48</time>
      </trkpt>
      <trkpt lat="41.55017" lon="2.25202">
        <ele>85.4</ele>
        <time>2021-11-13 10:49:49</time>
      </trkpt>
      <trkpt lat="41.55021" lon="2.25196">
        <ele>85.6</ele>
        <time>2021-11-13 10:49:50</time>
      </trkpt>
      <trkpt lat="41.55025" lon="2.25191">
        <ele>85.6</ele>
        <time>2021-11-13 10:49:51</time>
      </trkpt>
      <trkpt lat="41.55028" lon="2.25184">
        <ele>85.6</ele>
        <time>2021-11-13 10:49:52</time>
      </trkpt>
      <trkpt lat="41.55029" lon="2.25177">
        <ele>85.4</ele>
        <time>2021-11-13 10:49:53</time>
      </trkpt>
      <trkpt lat="41.55027" lon="2.25169">
        <ele>85.4</ele>
        <time>2021-11-13 10:49:54</time>
      </trkpt>
      <trkpt lat="41.55023" lon="2.25164">
        <ele>85.4</ele>
        <time>2021-11-13 10:49:55</time>
      </trkpt>
      <trkpt lat="41.55019" lon="2.25163">
        <ele>85.2</ele>
        <time>2021-11-13 10:49:56</time>
      </trkpt>
      <trkpt lat="41.55014" lon="2.25166">
        <ele>85.2</ele>
        <time>2021-11-13 10:49:57</time>
      </trkpt>
      <trkpt lat="41.5501" lon="2.25171">
        <ele>85</ele>
        <time>2021-11-13 10:49:58</time>
      </trkpt>
      <trkpt lat="41.55005" lon="2.25174">
        <ele>85</ele>
        <time>2021-11-13 10:49:59</time>
      </trkpt>
      <trkpt lat="41.55" lon="2.25176">
        <ele>84.8</ele>
        <time>2021-11-13 10:50:00</time>
      </trkpt>
      <trkpt lat="41.54993" lon="2.25176">
        <ele>84.6</ele>
        <time>2021-11-13 10:50:01</time>
      </trkpt>
      <trkpt lat="41.54989" lon="2.25175">
        <ele>84.6</ele>
        <time>2021-11-13 10:50:02</time>
      </trkpt>
      <trkpt lat="41.54984" lon="2.25175">
        <ele>84.6</ele>
        <time>2021-11-13 10:50:03</time>
      </trkpt>
      <trkpt lat="41.54979" lon="2.25175">
        <ele>84.6</ele>
        <time>2021-11-13 10:50:04</time>
      </trkpt>
      <trkpt lat="41.54974" lon="2.25174">
        <ele>85</ele>
        <time>2021-11-13 10:50:05</time>
      </trkpt>
      <trkpt lat="41.54968" lon="2.25174">
        <ele>85</ele>
        <time>2021-11-13 10:50:06</time>
      </trkpt>
      <trkpt lat="41.54963" lon="2.25173">
        <ele>85</ele>
        <time>2021-11-13 10:50:07</time>
      </trkpt>
      <trkpt lat="41.54957" lon="2.25172">
        <ele>85</ele>
        <time>2021-11-13 10:50:08</time>
      </trkpt>
      <trkpt lat="41.54951" lon="2.25171">
        <ele>85.2</ele>
        <time>2021-11-13 10:50:09</time>
      </trkpt>
      <trkpt lat="41.54945" lon="2.25171">
        <ele>85.4</ele>
        <time>2021-11-13 10:50:10</time>
      </trkpt>
      <trkpt lat="41.5494" lon="2.25169">
        <ele>85.4</ele>
        <time>2021-11-13 10:50:11</time>
      </trkpt>
      <trkpt lat="41.54934" lon="2.25168">
        <ele>85.4</ele>
        <time>2021-11-13 10:50:12</time>
      </trkpt>
      <trkpt lat="41.54928" lon="2.25166">
        <ele>85.4</ele>
        <time>2021-11-13 10:50:13</time>
      </trkpt>
      <trkpt lat="41.54921" lon="2.25166">
        <ele>85.6</ele>
        <time>2021-11-13 10:50:14</time>
      </trkpt>
      <trkpt lat="41.54916" lon="2.25164">
        <ele>85.6</ele>
        <time>2021-11-13 10:50:15</time>
      </trkpt>
      <trkpt lat="41.5491" lon="2.25163">
        <ele>85.6</ele>
        <time>2021-11-13 10:50:16</time>
      </trkpt>
      <trkpt lat="41.54905" lon="2.25161">
        <ele>85.6</ele>
        <time>2021-11-13 10:50:17</time>
      </trkpt>
      <trkpt lat="41.54899" lon="2.2516">
        <ele>85.6</ele>
        <time>2021-11-13 10:50:18</time>
      </trkpt>
      <trkpt lat="41.54893" lon="2.25158">
        <ele>85.8</ele>
        <time>2021-11-13 10:50:19</time>
      </trkpt>
      <trkpt lat="41.54887" lon="2.25156">
        <ele>85.8</ele>
        <time>2021-11-13 10:50:20</time>
      </trkpt>
      <trkpt lat="41.54881" lon="2.25154">
        <ele>86</ele>
        <time>2021-11-13 10:50:21</time>
      </trkpt>
      <trkpt lat="41.54874" lon="2.25151">
        <ele>86</ele>
        <time>2021-11-13 10:50:22</time>
      </trkpt>
      <trkpt lat="41.54868" lon="2.25149">
        <ele>86.2</ele>
        <time>2021-11-13 10:50:23</time>
      </trkpt>
      <trkpt lat="41.54862" lon="2.25147">
        <ele>86.2</ele>
        <time>2021-11-13 10:50:24</time>
      </trkpt>
      <trkpt lat="41.54856" lon="2.25145">
        <ele>86.4</ele>
        <time>2021-11-13 10:50:25</time>
      </trkpt>
      <trkpt lat="41.5485" lon="2.25143">
        <ele>86.4</ele>
        <time>2021-11-13 10:50:26</time>
      </trkpt>
      <trkpt lat="41.54843" lon="2.25141">
        <ele>86.4</ele>
        <time>2021-11-13 10:50:27</time>
      </trkpt>
      <trkpt lat="41.54837" lon="2.25139">
        <ele>86.4</ele>
        <time>2021-11-13 10:50:28</time>
      </trkpt>
      <trkpt lat="41.5483" lon="2.25136">
        <ele>86.6</ele>
        <time>2021-11-13 10:50:29</time>
      </trkpt>
      <trkpt lat="41.54824" lon="2.25134">
        <ele>86.6</ele>
        <time>2021-11-13 10:50:30</time>
      </trkpt>
      <trkpt lat="41.54818" lon="2.2513">
        <ele>86.6</ele>
        <time>2021-11-13 10:50:31</time>
      </trkpt>
      <trkpt lat="41.54813" lon="2.25127">
        <ele>86.8</ele>
        <time>2021-11-13 10:50:32</time>
      </trkpt>
      <trkpt lat="41.54807" lon="2.25123">
        <ele>86.8</ele>
        <time>2021-11-13 10:50:33</time>
      </trkpt>
      <trkpt lat="41.54801" lon="2.25119">
        <ele>86.8</ele>
        <time>2021-11-13 10:50:34</time>
      </trkpt>
      <trkpt lat="41.54795" lon="2.25114">
        <ele>87</ele>
        <time>2021-11-13 10:50:35</time>
      </trkpt>
      <trkpt lat="41.5479" lon="2.25109">
        <ele>87</ele>
        <time>2021-11-13 10:50:36</time>
      </trkpt>
      <trkpt lat="41.54785" lon="2.25103">
        <ele>87</ele>
        <time>2021-11-13 10:50:37</time>
      </trkpt>
      <trkpt lat="41.5478" lon="2.25097">
        <ele>87</ele>
        <time>2021-11-13 10:50:38</time>
      </trkpt>
      <trkpt lat="41.54775" lon="2.25091">
        <ele>87</ele>
        <time>2021-11-13 10:50:39</time>
      </trkpt>
      <trkpt lat="41.54771" lon="2.25084">
        <ele>87.2</ele>
        <time>2021-11-13 10:50:40</time>
      </trkpt>
      <trkpt lat="41.54768" lon="2.25076">
        <ele>87.2</ele>
        <time>2021-11-13 10:50:41</time>
      </trkpt>
      <trkpt lat="41.54764" lon="2.25069">
        <ele>87.4</ele>
        <time>2021-11-13 10:50:42</time>
      </trkpt>
      <trkpt lat="41.54762" lon="2.25061">
        <ele>87.4</ele>
        <time>2021-11-13 10:50:43</time>
      </trkpt>
      <trkpt lat="41.54759" lon="2.25053">
        <ele>87.6</ele>
        <time>2021-11-13 10:50:44</time>
      </trkpt>
      <trkpt lat="41.54757" lon="2.25045">
        <ele>87.6</ele>
        <time>2021-11-13 10:50:45</time>
      </trkpt>
      <trkpt lat="41.54756" lon="2.25037">
        <ele>87.8</ele>
        <time>2021-11-13 10:50:46</time>
      </trkpt>
      <trkpt lat="41.54755" lon="2.2503">
        <ele>87.8</ele>
        <time>2021-11-13 10:50:47</time>
      </trkpt>
      <trkpt lat="41.54755" lon="2.25022">
        <ele>88</ele>
        <time>2021-11-13 10:50:48</time>
      </trkpt>
      <trkpt lat="41.54755" lon="2.25015">
        <ele>88.2</ele>
        <time>2021-11-13 10:50:49</time>
      </trkpt>
      <trkpt lat="41.54757" lon="2.25008">
        <ele>88.4</ele>
        <time>2021-11-13 10:50:50</time>
      </trkpt>
      <trkpt lat="41.54758" lon="2.25">
        <ele>89</ele>
        <time>2021-11-13 10:50:51</time>
      </trkpt>
      <trkpt lat="41.54758" lon="2.24993">
        <ele>89</ele>
        <time>2021-11-13 10:50:52</time>
      </trkpt>
      <trkpt lat="41.54756" lon="2.24986">
        <ele>89.4</ele>
        <time>2021-11-13 10:50:53</time>
      </trkpt>
      <trkpt lat="41.54752" lon="2.2498">
        <ele>89.6</ele>
        <time>2021-11-13 10:50:54</time>
      </trkpt>
      <trkpt lat="41.54747" lon="2.24978">
        <ele>90</ele>
        <time>2021-11-13 10:50:55</time>
      </trkpt>
      <trkpt lat="41.54742" lon="2.24979">
        <ele>90</ele>
        <time>2021-11-13 10:50:56</time>
      </trkpt>
      <trkpt lat="41.54737" lon="2.24983">
        <ele>90.2</ele>
        <time>2021-11-13 10:50:57</time>
      </trkpt>
      <trkpt lat="41.54732" lon="2.24988">
        <ele>90.2</ele>
        <time>2021-11-13 10:50:58</time>
      </trkpt>
      <trkpt lat="41.54727" lon="2.24991">
        <ele>90.4</ele>
        <time>2021-11-13 10:50:59</time>
      </trkpt>
      <trkpt lat="41.54721" lon="2.24994">
        <ele>90.6</ele>
        <time>2021-11-13 10:51:00</time>
      </trkpt>
      <trkpt lat="41.54715" lon="2.24995">
        <ele>90.6</ele>
        <time>2021-11-13 10:51:01</time>
      </trkpt>
      <trkpt lat="41.54709" lon="2.24997">
        <ele>91</ele>
        <time>2021-11-13 10:51:02</time>
      </trkpt>
      <trkpt lat="41.54703" lon="2.24999">
        <ele>91</ele>
        <time>2021-11-13 10:51:03</time>
      </trkpt>
      <trkpt lat="41.54697" lon="2.25">
        <ele>91.2</ele>
        <time>2021-11-13 10:51:04</time>
      </trkpt>
      <trkpt lat="41.54691" lon="2.25001">
        <ele>91.2</ele>
        <time>2021-11-13 10:51:05</time>
      </trkpt>
      <trkpt lat="41.54686" lon="2.25003">
        <ele>91.2</ele>
        <time>2021-11-13 10:51:06</time>
      </trkpt>
      <trkpt lat="41.54679" lon="2.25004">
        <ele>91.2</ele>
        <time>2021-11-13 10:51:07</time>
      </trkpt>
      <trkpt lat="41.54673" lon="2.25005">
        <ele>91.2</ele>
        <time>2021-11-13 10:51:08</time>
      </trkpt>
      <trkpt lat="41.54667" lon="2.25007">
        <ele>91.2</ele>
        <time>2021-11-13 10:51:09</time>
      </trkpt>
      <trkpt lat="41.5466" lon="2.25008">
        <ele>91.2</ele>
        <time>2021-11-13 10:51:10</time>
      </trkpt>
      <trkpt lat="41.54654" lon="2.25009">
        <ele>91.2</ele>
        <time>2021-11-13 10:51:11</time>
      </trkpt>
      <trkpt lat="41.54648" lon="2.25011">
        <ele>91.4</ele>
        <time>2021-11-13 10:51:12</time>
      </trkpt>
      <trkpt lat="41.54642" lon="2.25012">
        <ele>91.4</ele>
        <time>2021-11-13 10:51:13</time>
      </trkpt>
      <trkpt lat="41.54636" lon="2.25013">
        <ele>91.4</ele>
        <time>2021-11-13 10:51:14</time>
      </trkpt>
      <trkpt lat="41.54631" lon="2.25015">
        <ele>91.4</ele>
        <time>2021-11-13 10:51:15</time>
      </trkpt>
      <trkpt lat="41.54625" lon="2.25016">
        <ele>91.4</ele>
        <time>2021-11-13 10:51:16</time>
      </trkpt>
      <trkpt lat="41.54619" lon="2.25017">
        <ele>91.4</ele>
        <time>2021-11-13 10:51:17</time>
      </trkpt>
      <trkpt lat="41.54614" lon="2.25016">
        <ele>91.4</ele>
        <time>2021-11-13 10:51:18</time>
      </trkpt>
      <trkpt lat="41.5461" lon="2.25015">
        <ele>91.6</ele>
        <time>2021-11-13 10:51:19</time>
      </trkpt>
      <trkpt lat="41.54607" lon="2.25012">
        <ele>91.6</ele>
        <time>2021-11-13 10:51:20</time>
      </trkpt>
      <trkpt lat="41.54604" lon="2.25008">
        <ele>91.8</ele>
        <time>2021-11-13 10:51:21</time>
      </trkpt>
      <trkpt lat="41.54603" lon="2.25003">
        <ele>91.8</ele>
        <time>2021-11-13 10:51:22</time>
      </trkpt>
      <trkpt lat="41.54603" lon="2.24997">
        <ele>92</ele>
        <time>2021-11-13 10:51:23</time>
      </trkpt>
      <trkpt lat="41.54603" lon="2.2499">
        <ele>92</ele>
        <time>2021-11-13 10:51:24</time>
      </trkpt>
      <trkpt lat="41.54603" lon="2.24982">
        <ele>92</ele>
        <time>2021-11-13 10:51:25</time>
      </trkpt>
      <trkpt lat="41.54604" lon="2.24974">
        <ele>92.2</ele>
        <time>2021-11-13 10:51:26</time>
      </trkpt>
      <trkpt lat="41.54604" lon="2.24966">
        <ele>92.2</ele>
        <time>2021-11-13 10:51:27</time>
      </trkpt>
      <trkpt lat="41.54603" lon="2.24958">
        <ele>92.2</ele>
        <time>2021-11-13 10:51:28</time>
      </trkpt>
      <trkpt lat="41.54602" lon="2.2495">
        <ele>92.2</ele>
        <time>2021-11-13 10:51:29</time>
      </trkpt>
      <trkpt lat="41.546" lon="2.24939">
        <ele>92.2</ele>
        <time>2021-11-13 10:51:30</time>
      </trkpt>
      <trkpt lat="41.54598" lon="2.2493">
        <ele>92.2</ele>
        <time>2021-11-13 10:51:31</time>
      </trkpt>
      <trkpt lat="41.54595" lon="2.2492">
        <ele>92.2</ele>
        <time>2021-11-13 10:51:32</time>
      </trkpt>
      <trkpt lat="41.54593" lon="2.24911">
        <ele>92.2</ele>
        <time>2021-11-13 10:51:33</time>
      </trkpt>
      <trkpt lat="41.54591" lon="2.24903">
        <ele>92</ele>
        <time>2021-11-13 10:51:34</time>
      </trkpt>
      <trkpt lat="41.54588" lon="2.2489">
        <ele>92</ele>
        <time>2021-11-13 10:51:35</time>
      </trkpt>
      <trkpt lat="41.54585" lon="2.2488">
        <ele>91.8</ele>
        <time>2021-11-13 10:51:36</time>
      </trkpt>
      <trkpt lat="41.54581" lon="2.2487">
        <ele>91.8</ele>
        <time>2021-11-13 10:51:37</time>
      </trkpt>
      <trkpt lat="41.54576" lon="2.24861">
        <ele>91.6</ele>
        <time>2021-11-13 10:51:38</time>
      </trkpt>
      <trkpt lat="41.54571" lon="2.24852">
        <ele>91.4</ele>
        <time>2021-11-13 10:51:39</time>
      </trkpt>
      <trkpt lat="41.54565" lon="2.24844">
        <ele>91.2</ele>
        <time>2021-11-13 10:51:40</time>
      </trkpt>
      <trkpt lat="41.54559" lon="2.24836">
        <ele>91.2</ele>
        <time>2021-11-13 10:51:41</time>
      </trkpt>
      <trkpt lat="41.54552" lon="2.24829">
        <ele>91</ele>
        <time>2021-11-13 10:51:42</time>
      </trkpt>
      <trkpt lat="41.54546" lon="2.24823">
        <ele>90.8</ele>
        <time>2021-11-13 10:51:43</time>
      </trkpt>
      <trkpt lat="41.54539" lon="2.24816">
        <ele>90.8</ele>
        <time>2021-11-13 10:51:44</time>
      </trkpt>
      <trkpt lat="41.54531" lon="2.24808">
        <ele>90.6</ele>
        <time>2021-11-13 10:51:45</time>
      </trkpt>
      <trkpt lat="41.54524" lon="2.24802">
        <ele>90.6</ele>
        <time>2021-11-13 10:51:46</time>
      </trkpt>
      <trkpt lat="41.54516" lon="2.24795">
        <ele>90.6</ele>
        <time>2021-11-13 10:51:47</time>
      </trkpt>
      <trkpt lat="41.54509" lon="2.24789">
        <ele>90.4</ele>
        <time>2021-11-13 10:51:48</time>
      </trkpt>
      <trkpt lat="41.54501" lon="2.24784">
        <ele>90.2</ele>
        <time>2021-11-13 10:51:49</time>
      </trkpt>
      <trkpt lat="41.54492" lon="2.24778">
        <ele>89.8</ele>
        <time>2021-11-13 10:51:50</time>
      </trkpt>
      <trkpt lat="41.54483" lon="2.24774">
        <ele>89.6</ele>
        <time>2021-11-13 10:51:51</time>
      </trkpt>
      <trkpt lat="41.54474" lon="2.24769">
        <ele>89.4</ele>
        <time>2021-11-13 10:51:52</time>
      </trkpt>
      <trkpt lat="41.54466" lon="2.24765">
        <ele>89.4</ele>
        <time>2021-11-13 10:51:53</time>
      </trkpt>
      <trkpt lat="41.54457" lon="2.24761">
        <ele>89</ele>
        <time>2021-11-13 10:51:54</time>
      </trkpt>
      <trkpt lat="41.54445" lon="2.24756">
        <ele>88.8</ele>
        <time>2021-11-13 10:51:55</time>
      </trkpt>
      <trkpt lat="41.54435" lon="2.24752">
        <ele>88.4</ele>
        <time>2021-11-13 10:51:56</time>
      </trkpt>
      <trkpt lat="41.54427" lon="2.24748">
        <ele>88</ele>
        <time>2021-11-13 10:51:57</time>
      </trkpt>
      <trkpt lat="41.54418" lon="2.24744">
        <ele>87.8</ele>
        <time>2021-11-13 10:51:58</time>
      </trkpt>
      <trkpt lat="41.54408" lon="2.24739">
        <ele>87.2</ele>
        <time>2021-11-13 10:51:59</time>
      </trkpt>
      <trkpt lat="41.54397" lon="2.24731">
        <ele>87</ele>
        <time>2021-11-13 10:52:00</time>
      </trkpt>
      <trkpt lat="41.54388" lon="2.24724">
        <ele>86.6</ele>
        <time>2021-11-13 10:52:01</time>
      </trkpt>
      <trkpt lat="41.5438" lon="2.24715">
        <ele>86.2</ele>
        <time>2021-11-13 10:52:02</time>
      </trkpt>
      <trkpt lat="41.54373" lon="2.24706">
        <ele>85.8</ele>
        <time>2021-11-13 10:52:03</time>
      </trkpt>
      <trkpt lat="41.54366" lon="2.24696">
        <ele>85.6</ele>
        <time>2021-11-13 10:52:04</time>
      </trkpt>
      <trkpt lat="41.54359" lon="2.24686">
        <ele>85</ele>
        <time>2021-11-13 10:52:05</time>
      </trkpt>
      <trkpt lat="41.54352" lon="2.24676">
        <ele>84.8</ele>
        <time>2021-11-13 10:52:06</time>
      </trkpt>
      <trkpt lat="41.54346" lon="2.24666">
        <ele>84.6</ele>
        <time>2021-11-13 10:52:07</time>
      </trkpt>
      <trkpt lat="41.5434" lon="2.24656">
        <ele>84.4</ele>
        <time>2021-11-13 10:52:08</time>
      </trkpt>
      <trkpt lat="41.54333" lon="2.24647">
        <ele>84.2</ele>
        <time>2021-11-13 10:52:09</time>
      </trkpt>
      <trkpt lat="41.54326" lon="2.24638">
        <ele>84</ele>
        <time>2021-11-13 10:52:10</time>
      </trkpt>
      <trkpt lat="41.54318" lon="2.2463">
        <ele>84</ele>
        <time>2021-11-13 10:52:11</time>
      </trkpt>
      <trkpt lat="41.54311" lon="2.24622">
        <ele>84</ele>
        <time>2021-11-13 10:52:12</time>
      </trkpt>
      <trkpt lat="41.54303" lon="2.24616">
        <ele>83.8</ele>
        <time>2021-11-13 10:52:13</time>
      </trkpt>
      <trkpt lat="41.54295" lon="2.2461">
        <ele>83.8</ele>
        <time>2021-11-13 10:52:14</time>
      </trkpt>
      <trkpt lat="41.54287" lon="2.24604">
        <ele>83.8</ele>
        <time>2021-11-13 10:52:15</time>
      </trkpt>
      <trkpt lat="41.54279" lon="2.24598">
        <ele>83.6</ele>
        <time>2021-11-13 10:52:16</time>
      </trkpt>
      <trkpt lat="41.5427" lon="2.24592">
        <ele>83.6</ele>
        <time>2021-11-13 10:52:17</time>
      </trkpt>
      <trkpt lat="41.54262" lon="2.24587">
        <ele>83.6</ele>
        <time>2021-11-13 10:52:18</time>
      </trkpt>
      <trkpt lat="41.54254" lon="2.24582">
        <ele>83.6</ele>
        <time>2021-11-13 10:52:19</time>
      </trkpt>
      <trkpt lat="41.54245" lon="2.24577">
        <ele>83.6</ele>
        <time>2021-11-13 10:52:20</time>
      </trkpt>
      <trkpt lat="41.54237" lon="2.24571">
        <ele>83.4</ele>
        <time>2021-11-13 10:52:21</time>
      </trkpt>
      <trkpt lat="41.54229" lon="2.24566">
        <ele>83.4</ele>
        <time>2021-11-13 10:52:22</time>
      </trkpt>
      <trkpt lat="41.54221" lon="2.24561">
        <ele>83.4</ele>
        <time>2021-11-13 10:52:23</time>
      </trkpt>
      <trkpt lat="41.54213" lon="2.24556">
        <ele>83.2</ele>
        <time>2021-11-13 10:52:24</time>
      </trkpt>
      <trkpt lat="41.54205" lon="2.24551">
        <ele>83.2</ele>
        <time>2021-11-13 10:52:25</time>
      </trkpt>
      <trkpt lat="41.54197" lon="2.24546">
        <ele>83.2</ele>
        <time>2021-11-13 10:52:26</time>
      </trkpt>
      <trkpt lat="41.54188" lon="2.24541">
        <ele>83.2</ele>
        <time>2021-11-13 10:52:27</time>
      </trkpt>
      <trkpt lat="41.54181" lon="2.24536">
        <ele>83.2</ele>
        <time>2021-11-13 10:52:28</time>
      </trkpt>
      <trkpt lat="41.54173" lon="2.24531">
        <ele>83.2</ele>
        <time>2021-11-13 10:52:29</time>
      </trkpt>
      <trkpt lat="41.54165" lon="2.24526">
        <ele>83.2</ele>
        <time>2021-11-13 10:52:30</time>
      </trkpt>
      <trkpt lat="41.54157" lon="2.24521">
        <ele>83.2</ele>
        <time>2021-11-13 10:52:31</time>
      </trkpt>
      <trkpt lat="41.54149" lon="2.24517">
        <ele>83.2</ele>
        <time>2021-11-13 10:52:32</time>
      </trkpt>
      <trkpt lat="41.54141" lon="2.24513">
        <ele>83.2</ele>
        <time>2021-11-13 10:52:33</time>
      </trkpt>
      <trkpt lat="41.54133" lon="2.24509">
        <ele>83.2</ele>
        <time>2021-11-13 10:52:34</time>
      </trkpt>
      <trkpt lat="41.54126" lon="2.24506">
        <ele>83.2</ele>
        <time>2021-11-13 10:52:35</time>
      </trkpt>
      <trkpt lat="41.54118" lon="2.24502">
        <ele>83.2</ele>
        <time>2021-11-13 10:52:36</time>
      </trkpt>
      <trkpt lat="41.54111" lon="2.24498">
        <ele>83.2</ele>
        <time>2021-11-13 10:52:37</time>
      </trkpt>
      <trkpt lat="41.54104" lon="2.24491">
        <ele>83.2</ele>
        <time>2021-11-13 10:52:38</time>
      </trkpt>
      <trkpt lat="41.54096" lon="2.24485">
        <ele>83.2</ele>
        <time>2021-11-13 10:52:39</time>
      </trkpt>
      <trkpt lat="41.54088" lon="2.24482">
        <ele>83.2</ele>
        <time>2021-11-13 10:52:40</time>
      </trkpt>
      <trkpt lat="41.5408" lon="2.24481">
        <ele>83.2</ele>
        <time>2021-11-13 10:52:41</time>
      </trkpt>
      <trkpt lat="41.54072" lon="2.24482">
        <ele>83</ele>
        <time>2021-11-13 10:52:42</time>
      </trkpt>
      <trkpt lat="41.54063" lon="2.24483">
        <ele>83</ele>
        <time>2021-11-13 10:52:43</time>
      </trkpt>
      <trkpt lat="41.54055" lon="2.24482">
        <ele>83</ele>
        <time>2021-11-13 10:52:44</time>
      </trkpt>
      <trkpt lat="41.54047" lon="2.2448">
        <ele>83</ele>
        <time>2021-11-13 10:52:45</time>
      </trkpt>
      <trkpt lat="41.54039" lon="2.24477">
        <ele>83</ele>
        <time>2021-11-13 10:52:46</time>
      </trkpt>
      <trkpt lat="41.54032" lon="2.24472">
        <ele>82.8</ele>
        <time>2021-11-13 10:52:47</time>
      </trkpt>
      <trkpt lat="41.54025" lon="2.24468">
        <ele>82.8</ele>
        <time>2021-11-13 10:52:48</time>
      </trkpt>
      <trkpt lat="41.54018" lon="2.24464">
        <ele>82.8</ele>
        <time>2021-11-13 10:52:49</time>
      </trkpt>
      <trkpt lat="41.54011" lon="2.2446">
        <ele>82.8</ele>
        <time>2021-11-13 10:52:50</time>
      </trkpt>
      <trkpt lat="41.54004" lon="2.24456">
        <ele>83</ele>
        <time>2021-11-13 10:52:51</time>
      </trkpt>
      <trkpt lat="41.53998" lon="2.24453">
        <ele>83</ele>
        <time>2021-11-13 10:52:52</time>
      </trkpt>
      <trkpt lat="41.53989" lon="2.24448">
        <ele>83.2</ele>
        <time>2021-11-13 10:52:53</time>
      </trkpt>
      <trkpt lat="41.53982" lon="2.24444">
        <ele>83.4</ele>
        <time>2021-11-13 10:52:54</time>
      </trkpt>
      <trkpt lat="41.53975" lon="2.2444">
        <ele>83.6</ele>
        <time>2021-11-13 10:52:55</time>
      </trkpt>
      <trkpt lat="41.53967" lon="2.24436">
        <ele>83.8</ele>
        <time>2021-11-13 10:52:56</time>
      </trkpt>
      <trkpt lat="41.53962" lon="2.24433">
        <ele>83.8</ele>
        <time>2021-11-13 10:52:57</time>
      </trkpt>
      <trkpt lat="41.53953" lon="2.24427">
        <ele>84</ele>
        <time>2021-11-13 10:52:58</time>
      </trkpt>
      <trkpt lat="41.53945" lon="2.24422">
        <ele>84</ele>
        <time>2021-11-13 10:52:59</time>
      </trkpt>
      <trkpt lat="41.53936" lon="2.24415">
        <ele>84</ele>
        <time>2021-11-13 10:53:00</time>
      </trkpt>
      <trkpt lat="41.53931" lon="2.24411">
        <ele>84.2</ele>
        <time>2021-11-13 10:53:01</time>
      </trkpt>
      <trkpt lat="41.53923" lon="2.24405">
        <ele>84.2</ele>
        <time>2021-11-13 10:53:02</time>
      </trkpt>
      <trkpt lat="41.53916" lon="2.244">
        <ele>84.2</ele>
        <time>2021-11-13 10:53:03</time>
      </trkpt>
      <trkpt lat="41.53908" lon="2.24394">
        <ele>84.2</ele>
        <time>2021-11-13 10:53:04</time>
      </trkpt>
      <trkpt lat="41.53901" lon="2.24388">
        <ele>84.2</ele>
        <time>2021-11-13 10:53:05</time>
      </trkpt>
      <trkpt lat="41.53894" lon="2.2438">
        <ele>84.2</ele>
        <time>2021-11-13 10:53:06</time>
      </trkpt>
      <trkpt lat="41.53887" lon="2.24372">
        <ele>84</ele>
        <time>2021-11-13 10:53:07</time>
      </trkpt>
      <trkpt lat="41.53881" lon="2.24364">
        <ele>84</ele>
        <time>2021-11-13 10:53:08</time>
      </trkpt>
      <trkpt lat="41.53875" lon="2.24356">
        <ele>84</ele>
        <time>2021-11-13 10:53:09</time>
      </trkpt>
      <trkpt lat="41.53869" lon="2.24347">
        <ele>83.8</ele>
        <time>2021-11-13 10:53:10</time>
      </trkpt>
      <trkpt lat="41.53864" lon="2.24338">
        <ele>83.8</ele>
        <time>2021-11-13 10:53:11</time>
      </trkpt>
      <trkpt lat="41.53858" lon="2.24328">
        <ele>83.4</ele>
        <time>2021-11-13 10:53:12</time>
      </trkpt>
      <trkpt lat="41.53853" lon="2.24318">
        <ele>83.4</ele>
        <time>2021-11-13 10:53:13</time>
      </trkpt>
      <trkpt lat="41.53848" lon="2.24309">
        <ele>83.4</ele>
        <time>2021-11-13 10:53:14</time>
      </trkpt>
      <trkpt lat="41.53843" lon="2.243">
        <ele>83.2</ele>
        <time>2021-11-13 10:53:15</time>
      </trkpt>
      <trkpt lat="41.53837" lon="2.2429">
        <ele>83.2</ele>
        <time>2021-11-13 10:53:16</time>
      </trkpt>
      <trkpt lat="41.53832" lon="2.24281">
        <ele>83.2</ele>
        <time>2021-11-13 10:53:17</time>
      </trkpt>
      <trkpt lat="41.53826" lon="2.24273">
        <ele>83.2</ele>
        <time>2021-11-13 10:53:18</time>
      </trkpt>
      <trkpt lat="41.53821" lon="2.24264">
        <ele>83</ele>
        <time>2021-11-13 10:53:19</time>
      </trkpt>
      <trkpt lat="41.53815" lon="2.24256">
        <ele>83</ele>
        <time>2021-11-13 10:53:20</time>
      </trkpt>
      <trkpt lat="41.53809" lon="2.24249">
        <ele>82.8</ele>
        <time>2021-11-13 10:53:21</time>
      </trkpt>
      <trkpt lat="41.53803" lon="2.24241">
        <ele>82.8</ele>
        <time>2021-11-13 10:53:22</time>
      </trkpt>
      <trkpt lat="41.53796" lon="2.24234">
        <ele>82.6</ele>
        <time>2021-11-13 10:53:23</time>
      </trkpt>
      <trkpt lat="41.5379" lon="2.24226">
        <ele>82.6</ele>
        <time>2021-11-13 10:53:24</time>
      </trkpt>
      <trkpt lat="41.53784" lon="2.24219">
        <ele>82.6</ele>
        <time>2021-11-13 10:53:25</time>
      </trkpt>
      <trkpt lat="41.53778" lon="2.24212">
        <ele>82.6</ele>
        <time>2021-11-13 10:53:26</time>
      </trkpt>
      <trkpt lat="41.53772" lon="2.24204">
        <ele>82.4</ele>
        <time>2021-11-13 10:53:27</time>
      </trkpt>
      <trkpt lat="41.53766" lon="2.24197">
        <ele>82.4</ele>
        <time>2021-11-13 10:53:28</time>
      </trkpt>
      <trkpt lat="41.5376" lon="2.24189">
        <ele>82.4</ele>
        <time>2021-11-13 10:53:29</time>
      </trkpt>
      <trkpt lat="41.53755" lon="2.24182">
        <ele>82.4</ele>
        <time>2021-11-13 10:53:30</time>
      </trkpt>
      <trkpt lat="41.5375" lon="2.24174">
        <ele>82.6</ele>
        <time>2021-11-13 10:53:31</time>
      </trkpt>
      <trkpt lat="41.53745" lon="2.24166">
        <ele>82.8</ele>
        <time>2021-11-13 10:53:32</time>
      </trkpt>
      <trkpt lat="41.5374" lon="2.24159">
        <ele>82.8</ele>
        <time>2021-11-13 10:53:33</time>
      </trkpt>
      <trkpt lat="41.53736" lon="2.24153">
        <ele>82.8</ele>
        <time>2021-11-13 10:53:34</time>
      </trkpt>
      <trkpt lat="41.53732" lon="2.24146">
        <ele>82.8</ele>
        <time>2021-11-13 10:53:35</time>
      </trkpt>
      <trkpt lat="41.53728" lon="2.24138">
        <ele>83</ele>
        <time>2021-11-13 10:53:36</time>
      </trkpt>
      <trkpt lat="41.53723" lon="2.2413">
        <ele>83.2</ele>
        <time>2021-11-13 10:53:37</time>
      </trkpt>
      <trkpt lat="41.53718" lon="2.24122">
        <ele>83.4</ele>
        <time>2021-11-13 10:53:38</time>
      </trkpt>
      <trkpt lat="41.53714" lon="2.24115">
        <ele>83.6</ele>
        <time>2021-11-13 10:53:39</time>
      </trkpt>
      <trkpt lat="41.5371" lon="2.2411">
        <ele>84</ele>
        <time>2021-11-13 10:53:40</time>
      </trkpt>
      <trkpt lat="41.53705" lon="2.24103">
        <ele>84.4</ele>
        <time>2021-11-13 10:53:41</time>
      </trkpt>
      <trkpt lat="41.53699" lon="2.24097">
        <ele>84.6</ele>
        <time>2021-11-13 10:53:42</time>
      </trkpt>
      <trkpt lat="41.53694" lon="2.24091">
        <ele>85</ele>
        <time>2021-11-13 10:53:43</time>
      </trkpt>
      <trkpt lat="41.53688" lon="2.24086">
        <ele>85.2</ele>
        <time>2021-11-13 10:53:44</time>
      </trkpt>
      <trkpt lat="41.53683" lon="2.2408">
        <ele>85.4</ele>
        <time>2021-11-13 10:53:45</time>
      </trkpt>
      <trkpt lat="41.53677" lon="2.24075">
        <ele>85.6</ele>
        <time>2021-11-13 10:53:46</time>
      </trkpt>
      <trkpt lat="41.53671" lon="2.24069">
        <ele>85.8</ele>
        <time>2021-11-13 10:53:47</time>
      </trkpt>
      <trkpt lat="41.53665" lon="2.24063">
        <ele>85.8</ele>
        <time>2021-11-13 10:53:48</time>
      </trkpt>
      <trkpt lat="41.53658" lon="2.24057">
        <ele>85.8</ele>
        <time>2021-11-13 10:53:49</time>
      </trkpt>
      <trkpt lat="41.53652" lon="2.24051">
        <ele>86</ele>
        <time>2021-11-13 10:53:50</time>
      </trkpt>
      <trkpt lat="41.53644" lon="2.24046">
        <ele>86</ele>
        <time>2021-11-13 10:53:51</time>
      </trkpt>
      <trkpt lat="41.53637" lon="2.24042">
        <ele>86</ele>
        <time>2021-11-13 10:53:52</time>
      </trkpt>
      <trkpt lat="41.53628" lon="2.24039">
        <ele>85.8</ele>
        <time>2021-11-13 10:53:53</time>
      </trkpt>
      <trkpt lat="41.5362" lon="2.24037">
        <ele>85.8</ele>
        <time>2021-11-13 10:53:54</time>
      </trkpt>
      <trkpt lat="41.53611" lon="2.24034">
        <ele>85.8</ele>
        <time>2021-11-13 10:53:55</time>
      </trkpt>
      <trkpt lat="41.53603" lon="2.24031">
        <ele>85.8</ele>
        <time>2021-11-13 10:53:56</time>
      </trkpt>
      <trkpt lat="41.53596" lon="2.24027">
        <ele>85.4</ele>
        <time>2021-11-13 10:53:57</time>
      </trkpt>
      <trkpt lat="41.53586" lon="2.24021">
        <ele>85</ele>
        <time>2021-11-13 10:53:58</time>
      </trkpt>
      <trkpt lat="41.53578" lon="2.24014">
        <ele>84.4</ele>
        <time>2021-11-13 10:53:59</time>
      </trkpt>
      <trkpt lat="41.53571" lon="2.24007">
        <ele>84.2</ele>
        <time>2021-11-13 10:54:00</time>
      </trkpt>
      <trkpt lat="41.53564" lon="2.23999">
        <ele>84</ele>
        <time>2021-11-13 10:54:01</time>
      </trkpt>
      <trkpt lat="41.53558" lon="2.23992">
        <ele>83.6</ele>
        <time>2021-11-13 10:54:02</time>
      </trkpt>
      <trkpt lat="41.5355" lon="2.23982">
        <ele>83.4</ele>
        <time>2021-11-13 10:54:03</time>
      </trkpt>
      <trkpt lat="41.53542" lon="2.23974">
        <ele>83</ele>
        <time>2021-11-13 10:54:04</time>
      </trkpt>
      <trkpt lat="41.53536" lon="2.23969">
        <ele>82.8</ele>
        <time>2021-11-13 10:54:05</time>
      </trkpt>
      <trkpt lat="41.53526" lon="2.2396">
        <ele>82.6</ele>
        <time>2021-11-13 10:54:06</time>
      </trkpt>
      <trkpt lat="41.53517" lon="2.23954">
        <ele>82.4</ele>
        <time>2021-11-13 10:54:07</time>
      </trkpt>
      <trkpt lat="41.53509" lon="2.23949">
        <ele>81.8</ele>
        <time>2021-11-13 10:54:08</time>
      </trkpt>
      <trkpt lat="41.535" lon="2.23944">
        <ele>81.2</ele>
        <time>2021-11-13 10:54:09</time>
      </trkpt>
      <trkpt lat="41.53491" lon="2.23938">
        <ele>81.2</ele>
        <time>2021-11-13 10:54:10</time>
      </trkpt>
      <trkpt lat="41.53483" lon="2.23933">
        <ele>80.8</ele>
        <time>2021-11-13 10:54:11</time>
      </trkpt>
      <trkpt lat="41.53474" lon="2.23928">
        <ele>80.6</ele>
        <time>2021-11-13 10:54:12</time>
      </trkpt>
      <trkpt lat="41.53466" lon="2.23922">
        <ele>80.6</ele>
        <time>2021-11-13 10:54:13</time>
      </trkpt>
      <trkpt lat="41.53458" lon="2.23916">
        <ele>80.4</ele>
        <time>2021-11-13 10:54:14</time>
      </trkpt>
      <trkpt lat="41.5345" lon="2.23909">
        <ele>80.2</ele>
        <time>2021-11-13 10:54:15</time>
      </trkpt>
      <trkpt lat="41.53445" lon="2.23903">
        <ele>80.2</ele>
        <time>2021-11-13 10:54:16</time>
      </trkpt>
      <trkpt lat="41.53437" lon="2.23893">
        <ele>80.2</ele>
        <time>2021-11-13 10:54:17</time>
      </trkpt>
      <trkpt lat="41.53431" lon="2.23883">
        <ele>80</ele>
        <time>2021-11-13 10:54:18</time>
      </trkpt>
      <trkpt lat="41.53427" lon="2.23875">
        <ele>80</ele>
        <time>2021-11-13 10:54:19</time>
      </trkpt>
      <trkpt lat="41.53422" lon="2.23865">
        <ele>79.8</ele>
        <time>2021-11-13 10:54:20</time>
      </trkpt>
      <trkpt lat="41.53416" lon="2.23854">
        <ele>79.8</ele>
        <time>2021-11-13 10:54:21</time>
      </trkpt>
      <trkpt lat="41.5341" lon="2.23842">
        <ele>79.8</ele>
        <time>2021-11-13 10:54:22</time>
      </trkpt>
      <trkpt lat="41.53405" lon="2.23831">
        <ele>79.6</ele>
        <time>2021-11-13 10:54:23</time>
      </trkpt>
      <trkpt lat="41.534" lon="2.2382">
        <ele>79.4</ele>
        <time>2021-11-13 10:54:24</time>
      </trkpt>
      <trkpt lat="41.53394" lon="2.2381">
        <ele>79.4</ele>
        <time>2021-11-13 10:54:25</time>
      </trkpt>
      <trkpt lat="41.53389" lon="2.23799">
        <ele>79.2</ele>
        <time>2021-11-13 10:54:26</time>
      </trkpt>
      <trkpt lat="41.53384" lon="2.23788">
        <ele>79</ele>
        <time>2021-11-13 10:54:27</time>
      </trkpt>
      <trkpt lat="41.53378" lon="2.23777">
        <ele>79</ele>
        <time>2021-11-13 10:54:28</time>
      </trkpt>
      <trkpt lat="41.53373" lon="2.23767">
        <ele>78.8</ele>
        <time>2021-11-13 10:54:29</time>
      </trkpt>
      <trkpt lat="41.53368" lon="2.23756">
        <ele>78.4</ele>
        <time>2021-11-13 10:54:30</time>
      </trkpt>
      <trkpt lat="41.53363" lon="2.23745">
        <ele>78.2</ele>
        <time>2021-11-13 10:54:31</time>
      </trkpt>
      <trkpt lat="41.53358" lon="2.23734">
        <ele>78</ele>
        <time>2021-11-13 10:54:32</time>
      </trkpt>
      <trkpt lat="41.53353" lon="2.23724">
        <ele>77.6</ele>
        <time>2021-11-13 10:54:33</time>
      </trkpt>
      <trkpt lat="41.53348" lon="2.23713">
        <ele>77.4</ele>
        <time>2021-11-13 10:54:34</time>
      </trkpt>
      <trkpt lat="41.53344" lon="2.23703">
        <ele>77.2</ele>
        <time>2021-11-13 10:54:35</time>
      </trkpt>
      <trkpt lat="41.53339" lon="2.23693">
        <ele>76.8</ele>
        <time>2021-11-13 10:54:36</time>
      </trkpt>
      <trkpt lat="41.53335" lon="2.23683">
        <ele>76.6</ele>
        <time>2021-11-13 10:54:37</time>
      </trkpt>
      <trkpt lat="41.53331" lon="2.23673">
        <ele>76.4</ele>
        <time>2021-11-13 10:54:38</time>
      </trkpt>
      <trkpt lat="41.53327" lon="2.23663">
        <ele>76.2</ele>
        <time>2021-11-13 10:54:39</time>
      </trkpt>
      <trkpt lat="41.53323" lon="2.23653">
        <ele>76</ele>
        <time>2021-11-13 10:54:40</time>
      </trkpt>
      <trkpt lat="41.5332" lon="2.23643">
        <ele>76</ele>
        <time>2021-11-13 10:54:41</time>
      </trkpt>
      <trkpt lat="41.53316" lon="2.23633">
        <ele>75.8</ele>
        <time>2021-11-13 10:54:42</time>
      </trkpt>
      <trkpt lat="41.53314" lon="2.23622">
        <ele>75.6</ele>
        <time>2021-11-13 10:54:43</time>
      </trkpt>
      <trkpt lat="41.53312" lon="2.23611">
        <ele>75.6</ele>
        <time>2021-11-13 10:54:44</time>
      </trkpt>
      <trkpt lat="41.53312" lon="2.236">
        <ele>75.6</ele>
        <time>2021-11-13 10:54:45</time>
      </trkpt>
      <trkpt lat="41.53313" lon="2.23588">
        <ele>75.4</ele>
        <time>2021-11-13 10:54:46</time>
      </trkpt>
      <trkpt lat="41.53313" lon="2.23576">
        <ele>75.4</ele>
        <time>2021-11-13 10:54:47</time>
      </trkpt>
      <trkpt lat="41.53312" lon="2.23564">
        <ele>75.2</ele>
        <time>2021-11-13 10:54:48</time>
      </trkpt>
      <trkpt lat="41.53307" lon="2.23554">
        <ele>75</ele>
        <time>2021-11-13 10:54:49</time>
      </trkpt>
      <trkpt lat="41.533" lon="2.23546">
        <ele>74.8</ele>
        <time>2021-11-13 10:54:50</time>
      </trkpt>
      <trkpt lat="41.53293" lon="2.23542">
        <ele>74.6</ele>
        <time>2021-11-13 10:54:51</time>
      </trkpt>
      <trkpt lat="41.53283" lon="2.23538">
        <ele>73.6</ele>
        <time>2021-11-13 10:54:52</time>
      </trkpt>
      <trkpt lat="41.53275" lon="2.23535">
        <ele>73.4</ele>
        <time>2021-11-13 10:54:53</time>
      </trkpt>
      <trkpt lat="41.53268" lon="2.23532">
        <ele>73</ele>
        <time>2021-11-13 10:54:54</time>
      </trkpt>
      <trkpt lat="41.53261" lon="2.23528">
        <ele>72.8</ele>
        <time>2021-11-13 10:54:55</time>
      </trkpt>
      <trkpt lat="41.53255" lon="2.23523">
        <ele>72.8</ele>
        <time>2021-11-13 10:54:56</time>
      </trkpt>
      <trkpt lat="41.53249" lon="2.23518">
        <ele>72.8</ele>
        <time>2021-11-13 10:54:57</time>
      </trkpt>
      <trkpt lat="41.53243" lon="2.23511">
        <ele>72.8</ele>
        <time>2021-11-13 10:54:58</time>
      </trkpt>
      <trkpt lat="41.53238" lon="2.23505">
        <ele>72.8</ele>
        <time>2021-11-13 10:54:59</time>
      </trkpt>
      <trkpt lat="41.53234" lon="2.23501">
        <ele>73</ele>
        <time>2021-11-13 10:55:00</time>
      </trkpt>
      <trkpt lat="41.53228" lon="2.23495">
        <ele>73</ele>
        <time>2021-11-13 10:55:01</time>
      </trkpt>
      <trkpt lat="41.53221" lon="2.23489">
        <ele>73</ele>
        <time>2021-11-13 10:55:02</time>
      </trkpt>
      <trkpt lat="41.53216" lon="2.23484">
        <ele>73.2</ele>
        <time>2021-11-13 10:55:03</time>
      </trkpt>
      <trkpt lat="41.5321" lon="2.23479">
        <ele>73.4</ele>
        <time>2021-11-13 10:55:04</time>
      </trkpt>
      <trkpt lat="41.53206" lon="2.23476">
        <ele>73.6</ele>
        <time>2021-11-13 10:55:05</time>
      </trkpt>
      <trkpt lat="41.53199" lon="2.2347">
        <ele>73.8</ele>
        <time>2021-11-13 10:55:06</time>
      </trkpt>
      <trkpt lat="41.53194" lon="2.23465">
        <ele>74.6</ele>
        <time>2021-11-13 10:55:07</time>
      </trkpt>
      <trkpt lat="41.53189" lon="2.23458">
        <ele>75.2</ele>
        <time>2021-11-13 10:55:08</time>
      </trkpt>
      <trkpt lat="41.53185" lon="2.23451">
        <ele>75.4</ele>
        <time>2021-11-13 10:55:09</time>
      </trkpt>
      <trkpt lat="41.53181" lon="2.23445">
        <ele>76</ele>
        <time>2021-11-13 10:55:10</time>
      </trkpt>
      <trkpt lat="41.53177" lon="2.23437">
        <ele>76</ele>
        <time>2021-11-13 10:55:11</time>
      </trkpt>
      <trkpt lat="41.53173" lon="2.23428">
        <ele>76.6</ele>
        <time>2021-11-13 10:55:12</time>
      </trkpt>
      <trkpt lat="41.5317" lon="2.23421">
        <ele>77</ele>
        <time>2021-11-13 10:55:13</time>
      </trkpt>
      <trkpt lat="41.53167" lon="2.23414">
        <ele>77.6</ele>
        <time>2021-11-13 10:55:14</time>
      </trkpt>
      <trkpt lat="41.53165" lon="2.23406">
        <ele>78.2</ele>
        <time>2021-11-13 10:55:15</time>
      </trkpt>
      <trkpt lat="41.53163" lon="2.234">
        <ele>78.6</ele>
        <time>2021-11-13 10:55:16</time>
      </trkpt>
      <trkpt lat="41.53159" lon="2.23391">
        <ele>79</ele>
        <time>2021-11-13 10:55:17</time>
      </trkpt>
      <trkpt lat="41.53156" lon="2.23384">
        <ele>79.2</ele>
        <time>2021-11-13 10:55:18</time>
      </trkpt>
      <trkpt lat="41.53154" lon="2.23377">
        <ele>79.8</ele>
        <time>2021-11-13 10:55:19</time>
      </trkpt>
      <trkpt lat="41.53151" lon="2.23369">
        <ele>80</ele>
        <time>2021-11-13 10:55:20</time>
      </trkpt>
      <trkpt lat="41.53148" lon="2.23359">
        <ele>80.4</ele>
        <time>2021-11-13 10:55:21</time>
      </trkpt>
      <trkpt lat="41.53146" lon="2.2335">
        <ele>80.6</ele>
        <time>2021-11-13 10:55:22</time>
      </trkpt>
      <trkpt lat="41.53144" lon="2.23341">
        <ele>80.6</ele>
        <time>2021-11-13 10:55:23</time>
      </trkpt>
      <trkpt lat="41.53142" lon="2.23332">
        <ele>80.8</ele>
        <time>2021-11-13 10:55:24</time>
      </trkpt>
      <trkpt lat="41.53141" lon="2.23324">
        <ele>80.8</ele>
        <time>2021-11-13 10:55:25</time>
      </trkpt>
      <trkpt lat="41.5314" lon="2.23313">
        <ele>80.8</ele>
        <time>2021-11-13 10:55:26</time>
      </trkpt>
      <trkpt lat="41.53138" lon="2.23301">
        <ele>80.8</ele>
        <time>2021-11-13 10:55:27</time>
      </trkpt>
      <trkpt lat="41.53136" lon="2.23291">
        <ele>80.8</ele>
        <time>2021-11-13 10:55:28</time>
      </trkpt>
      <trkpt lat="41.53132" lon="2.23281">
        <ele>80.8</ele>
        <time>2021-11-13 10:55:29</time>
      </trkpt>
      <trkpt lat="41.53128" lon="2.23272">
        <ele>80.8</ele>
        <time>2021-11-13 10:55:30</time>
      </trkpt>
      <trkpt lat="41.53124" lon="2.23265">
        <ele>80.8</ele>
        <time>2021-11-13 10:55:31</time>
      </trkpt>
      <trkpt lat="41.53117" lon="2.23255">
        <ele>80.8</ele>
        <time>2021-11-13 10:55:32</time>
      </trkpt>
      <trkpt lat="41.53112" lon="2.23247">
        <ele>80.8</ele>
        <time>2021-11-13 10:55:33</time>
      </trkpt>
      <trkpt lat="41.53106" lon="2.2324">
        <ele>80.6</ele>
        <time>2021-11-13 10:55:34</time>
      </trkpt>
      <trkpt lat="41.53101" lon="2.23234">
        <ele>80.4</ele>
        <time>2021-11-13 10:55:35</time>
      </trkpt>
      <trkpt lat="41.53095" lon="2.23227">
        <ele>80.4</ele>
        <time>2021-11-13 10:55:36</time>
      </trkpt>
      <trkpt lat="41.53087" lon="2.2322">
        <ele>80.2</ele>
        <time>2021-11-13 10:55:37</time>
      </trkpt>
      <trkpt lat="41.5308" lon="2.23214">
        <ele>80</ele>
        <time>2021-11-13 10:55:38</time>
      </trkpt>
      <trkpt lat="41.53073" lon="2.23207">
        <ele>79.8</ele>
        <time>2021-11-13 10:55:39</time>
      </trkpt>
      <trkpt lat="41.53067" lon="2.23198">
        <ele>79.8</ele>
        <time>2021-11-13 10:55:40</time>
      </trkpt>
      <trkpt lat="41.53061" lon="2.23189">
        <ele>79.8</ele>
        <time>2021-11-13 10:55:41</time>
      </trkpt>
      <trkpt lat="41.53057" lon="2.23179">
        <ele>79.8</ele>
        <time>2021-11-13 10:55:42</time>
      </trkpt>
      <trkpt lat="41.53053" lon="2.23169">
        <ele>79.6</ele>
        <time>2021-11-13 10:55:43</time>
      </trkpt>
      <trkpt lat="41.5305" lon="2.23159">
        <ele>79.6</ele>
        <time>2021-11-13 10:55:44</time>
      </trkpt>
      <trkpt lat="41.53047" lon="2.23149">
        <ele>79.4</ele>
        <time>2021-11-13 10:55:45</time>
      </trkpt>
      <trkpt lat="41.53045" lon="2.23138">
        <ele>79.2</ele>
        <time>2021-11-13 10:55:46</time>
      </trkpt>
      <trkpt lat="41.53042" lon="2.23128">
        <ele>79.2</ele>
        <time>2021-11-13 10:55:47</time>
      </trkpt>
      <trkpt lat="41.53039" lon="2.23118">
        <ele>79</ele>
        <time>2021-11-13 10:55:48</time>
      </trkpt>
      <trkpt lat="41.53036" lon="2.23108">
        <ele>78.8</ele>
        <time>2021-11-13 10:55:49</time>
      </trkpt>
      <trkpt lat="41.53033" lon="2.231">
        <ele>78.8</ele>
        <time>2021-11-13 10:55:50</time>
      </trkpt>
      <trkpt lat="41.53029" lon="2.23091">
        <ele>78.8</ele>
        <time>2021-11-13 10:55:51</time>
      </trkpt>
      <trkpt lat="41.53023" lon="2.2308">
        <ele>78.6</ele>
        <time>2021-11-13 10:55:52</time>
      </trkpt>
      <trkpt lat="41.53018" lon="2.23072">
        <ele>78.6</ele>
        <time>2021-11-13 10:55:53</time>
      </trkpt>
      <trkpt lat="41.53013" lon="2.23063">
        <ele>78.6</ele>
        <time>2021-11-13 10:55:54</time>
      </trkpt>
      <trkpt lat="41.53007" lon="2.23055">
        <ele>78.6</ele>
        <time>2021-11-13 10:55:55</time>
      </trkpt>
      <trkpt lat="41.53003" lon="2.23048">
        <ele>78.6</ele>
        <time>2021-11-13 10:55:56</time>
      </trkpt>
      <trkpt lat="41.52998" lon="2.2304">
        <ele>78.4</ele>
        <time>2021-11-13 10:55:57</time>
      </trkpt>
      <trkpt lat="41.52991" lon="2.2303">
        <ele>78.2</ele>
        <time>2021-11-13 10:55:58</time>
      </trkpt>
      <trkpt lat="41.52986" lon="2.23022">
        <ele>78.2</ele>
        <time>2021-11-13 10:55:59</time>
      </trkpt>
      <trkpt lat="41.52981" lon="2.23016">
        <ele>78</ele>
        <time>2021-11-13 10:56:00</time>
      </trkpt>
      <trkpt lat="41.52974" lon="2.23008">
        <ele>78</ele>
        <time>2021-11-13 10:56:01</time>
      </trkpt>
      <trkpt lat="41.52968" lon="2.23002">
        <ele>77.8</ele>
        <time>2021-11-13 10:56:02</time>
      </trkpt>
      <trkpt lat="41.52959" lon="2.22994">
        <ele>77.6</ele>
        <time>2021-11-13 10:56:03</time>
      </trkpt>
      <trkpt lat="41.52952" lon="2.22989">
        <ele>77.4</ele>
        <time>2021-11-13 10:56:04</time>
      </trkpt>
      <trkpt lat="41.52946" lon="2.22985">
        <ele>77.4</ele>
        <time>2021-11-13 10:56:05</time>
      </trkpt>
      <trkpt lat="41.52939" lon="2.2298">
        <ele>77.4</ele>
        <time>2021-11-13 10:56:06</time>
      </trkpt>
      <trkpt lat="41.52931" lon="2.22974">
        <ele>77.2</ele>
        <time>2021-11-13 10:56:07</time>
      </trkpt>
      <trkpt lat="41.52923" lon="2.22969">
        <ele>77.2</ele>
        <time>2021-11-13 10:56:08</time>
      </trkpt>
      <trkpt lat="41.52914" lon="2.22962">
        <ele>76.8</ele>
        <time>2021-11-13 10:56:09</time>
      </trkpt>
      <trkpt lat="41.52908" lon="2.22958">
        <ele>76.8</ele>
        <time>2021-11-13 10:56:10</time>
      </trkpt>
      <trkpt lat="41.529" lon="2.22953">
        <ele>76.4</ele>
        <time>2021-11-13 10:56:11</time>
      </trkpt>
      <trkpt lat="41.52892" lon="2.22948">
        <ele>76.4</ele>
        <time>2021-11-13 10:56:12</time>
      </trkpt>
      <trkpt lat="41.52883" lon="2.22942">
        <ele>76</ele>
        <time>2021-11-13 10:56:13</time>
      </trkpt>
      <trkpt lat="41.52875" lon="2.22936">
        <ele>75.6</ele>
        <time>2021-11-13 10:56:14</time>
      </trkpt>
      <trkpt lat="41.52868" lon="2.2293">
        <ele>75.6</ele>
        <time>2021-11-13 10:56:15</time>
      </trkpt>
      <trkpt lat="41.52862" lon="2.22925">
        <ele>75.4</ele>
        <time>2021-11-13 10:56:16</time>
      </trkpt>
      <trkpt lat="41.52855" lon="2.22915">
        <ele>75.2</ele>
        <time>2021-11-13 10:56:17</time>
      </trkpt>
      <trkpt lat="41.5285" lon="2.22905">
        <ele>75</ele>
        <time>2021-11-13 10:56:18</time>
      </trkpt>
      <trkpt lat="41.52847" lon="2.22893">
        <ele>75</ele>
        <time>2021-11-13 10:56:19</time>
      </trkpt>
      <trkpt lat="41.52845" lon="2.22883">
        <ele>74.8</ele>
        <time>2021-11-13 10:56:20</time>
      </trkpt>
      <trkpt lat="41.52843" lon="2.22871">
        <ele>74.6</ele>
        <time>2021-11-13 10:56:21</time>
      </trkpt>
      <trkpt lat="41.52842" lon="2.22858">
        <ele>74.4</ele>
        <time>2021-11-13 10:56:22</time>
      </trkpt>
      <trkpt lat="41.52841" lon="2.22843">
        <ele>74</ele>
        <time>2021-11-13 10:56:23</time>
      </trkpt>
      <trkpt lat="41.5284" lon="2.22831">
        <ele>74</ele>
        <time>2021-11-13 10:56:24</time>
      </trkpt>
      <trkpt lat="41.52838" lon="2.22821">
        <ele>73.6</ele>
        <time>2021-11-13 10:56:25</time>
      </trkpt>
      <trkpt lat="41.52834" lon="2.2281">
        <ele>73.4</ele>
        <time>2021-11-13 10:56:26</time>
      </trkpt>
      <trkpt lat="41.52828" lon="2.22801">
        <ele>72.8</ele>
        <time>2021-11-13 10:56:27</time>
      </trkpt>
      <trkpt lat="41.52821" lon="2.22791">
        <ele>72.8</ele>
        <time>2021-11-13 10:56:28</time>
      </trkpt>
      <trkpt lat="41.52815" lon="2.22784">
        <ele>72.4</ele>
        <time>2021-11-13 10:56:29</time>
      </trkpt>
      <trkpt lat="41.52811" lon="2.22778">
        <ele>72.2</ele>
        <time>2021-11-13 10:56:30</time>
      </trkpt>
      <trkpt lat="41.52806" lon="2.22772">
        <ele>72</ele>
        <time>2021-11-13 10:56:31</time>
      </trkpt>
      <trkpt lat="41.52802" lon="2.22767">
        <ele>71.8</ele>
        <time>2021-11-13 10:56:32</time>
      </trkpt>
      <trkpt lat="41.52798" lon="2.22763">
        <ele>71.8</ele>
        <time>2021-11-13 10:56:33</time>
      </trkpt>
      <trkpt lat="41.52794" lon="2.22759">
        <ele>71.8</ele>
        <time>2021-11-13 10:56:34</time>
      </trkpt>
      <trkpt lat="41.52791" lon="2.22756">
        <ele>71.6</ele>
        <time>2021-11-13 10:56:35</time>
      </trkpt>
      <trkpt lat="41.52788" lon="2.22753">
        <ele>71.6</ele>
        <time>2021-11-13 10:56:36</time>
      </trkpt>
      <trkpt lat="41.52786" lon="2.2275">
        <ele>71.6</ele>
        <time>2021-11-13 10:56:37</time>
      </trkpt>
      <trkpt lat="41.52784" lon="2.22747">
        <ele>71.6</ele>
        <time>2021-11-13 10:56:38</time>
      </trkpt>
      <trkpt lat="41.52781" lon="2.22745">
        <ele>71.6</ele>
        <time>2021-11-13 10:56:39</time>
      </trkpt>
      <trkpt lat="41.52778" lon="2.22741">
        <ele>71.6</ele>
        <time>2021-11-13 10:56:40</time>
      </trkpt>
      <trkpt lat="41.52775" lon="2.22737">
        <ele>71.4</ele>
        <time>2021-11-13 10:56:41</time>
      </trkpt>
      <trkpt lat="41.52771" lon="2.22732">
        <ele>71.4</ele>
        <time>2021-11-13 10:56:42</time>
      </trkpt>
      <trkpt lat="41.52767" lon="2.22727">
        <ele>71.4</ele>
        <time>2021-11-13 10:56:43</time>
      </trkpt>
      <trkpt lat="41.52762" lon="2.2272">
        <ele>71.2</ele>
        <time>2021-11-13 10:56:44</time>
      </trkpt>
      <trkpt lat="41.52759" lon="2.22716">
        <ele>71</ele>
        <time>2021-11-13 10:56:45</time>
      </trkpt>
      <trkpt lat="41.52754" lon="2.2271">
        <ele>71</ele>
        <time>2021-11-13 10:56:46</time>
      </trkpt>
      <trkpt lat="41.52749" lon="2.22705">
        <ele>70.8</ele>
        <time>2021-11-13 10:56:47</time>
      </trkpt>
      <trkpt lat="41.52745" lon="2.22699">
        <ele>70.8</ele>
        <time>2021-11-13 10:56:48</time>
      </trkpt>
      <trkpt lat="41.52741" lon="2.22694">
        <ele>70.8</ele>
        <time>2021-11-13 10:56:49</time>
      </trkpt>
      <trkpt lat="41.52736" lon="2.22689">
        <ele>70.8</ele>
        <time>2021-11-13 10:56:50</time>
      </trkpt>
      <trkpt lat="41.52732" lon="2.22683">
        <ele>70.8</ele>
        <time>2021-11-13 10:56:51</time>
      </trkpt>
      <trkpt lat="41.52727" lon="2.22678">
        <ele>70.8</ele>
        <time>2021-11-13 10:56:52</time>
      </trkpt>
      <trkpt lat="41.52722" lon="2.22672">
        <ele>70.8</ele>
        <time>2021-11-13 10:56:53</time>
      </trkpt>
      <trkpt lat="41.52717" lon="2.22667">
        <ele>70.8</ele>
        <time>2021-11-13 10:56:54</time>
      </trkpt>
      <trkpt lat="41.52712" lon="2.2266">
        <ele>70.8</ele>
        <time>2021-11-13 10:56:55</time>
      </trkpt>
      <trkpt lat="41.52708" lon="2.22656">
        <ele>70.8</ele>
        <time>2021-11-13 10:56:56</time>
      </trkpt>
      <trkpt lat="41.52702" lon="2.2265">
        <ele>71</ele>
        <time>2021-11-13 10:56:57</time>
      </trkpt>
      <trkpt lat="41.52697" lon="2.22645">
        <ele>71</ele>
        <time>2021-11-13 10:56:58</time>
      </trkpt>
      <trkpt lat="41.52691" lon="2.2264">
        <ele>71</ele>
        <time>2021-11-13 10:56:59</time>
      </trkpt>
      <trkpt lat="41.52684" lon="2.22636">
        <ele>71.2</ele>
        <time>2021-11-13 10:57:00</time>
      </trkpt>
      <trkpt lat="41.52677" lon="2.22633">
        <ele>71.2</ele>
        <time>2021-11-13 10:57:01</time>
      </trkpt>
      <trkpt lat="41.5267" lon="2.22631">
        <ele>71.2</ele>
        <time>2021-11-13 10:57:02</time>
      </trkpt>
      <trkpt lat="41.52663" lon="2.22628">
        <ele>71.2</ele>
        <time>2021-11-13 10:57:03</time>
      </trkpt>
      <trkpt lat="41.52656" lon="2.22626">
        <ele>71.2</ele>
        <time>2021-11-13 10:57:04</time>
      </trkpt>
      <trkpt lat="41.52649" lon="2.22624">
        <ele>71.2</ele>
        <time>2021-11-13 10:57:05</time>
      </trkpt>
      <trkpt lat="41.52642" lon="2.22622">
        <ele>71.2</ele>
        <time>2021-11-13 10:57:06</time>
      </trkpt>
      <trkpt lat="41.52635" lon="2.22621">
        <ele>71.4</ele>
        <time>2021-11-13 10:57:07</time>
      </trkpt>
      <trkpt lat="41.52628" lon="2.22619">
        <ele>71.4</ele>
        <time>2021-11-13 10:57:08</time>
      </trkpt>
      <trkpt lat="41.52622" lon="2.22617">
        <ele>71.4</ele>
        <time>2021-11-13 10:57:09</time>
      </trkpt>
      <trkpt lat="41.52616" lon="2.22616">
        <ele>71.4</ele>
        <time>2021-11-13 10:57:10</time>
      </trkpt>
      <trkpt lat="41.52611" lon="2.22615">
        <ele>71.4</ele>
        <time>2021-11-13 10:57:11</time>
      </trkpt>
      <trkpt lat="41.52607" lon="2.22614">
        <ele>71.4</ele>
        <time>2021-11-13 10:57:12</time>
      </trkpt>
      <trkpt lat="41.52604" lon="2.22613">
        <ele>71.6</ele>
        <time>2021-11-13 10:57:13</time>
      </trkpt>
      <trkpt lat="41.52601" lon="2.22612">
        <ele>71.6</ele>
        <time>2021-11-13 10:57:14</time>
      </trkpt>
      <trkpt lat="41.52598" lon="2.22611">
        <ele>71.6</ele>
        <time>2021-11-13 10:57:15</time>
      </trkpt>
      <trkpt lat="41.52593" lon="2.2261">
        <ele>71.6</ele>
        <time>2021-11-13 10:57:16</time>
      </trkpt>
      <trkpt lat="41.52588" lon="2.22609">
        <ele>72</ele>
        <time>2021-11-13 10:57:17</time>
      </trkpt>
      <trkpt lat="41.52583" lon="2.22607">
        <ele>72</ele>
        <time>2021-11-13 10:57:18</time>
      </trkpt>
      <trkpt lat="41.52578" lon="2.22605">
        <ele>72.2</ele>
        <time>2021-11-13 10:57:19</time>
      </trkpt>
      <trkpt lat="41.52571" lon="2.22603">
        <ele>72.4</ele>
        <time>2021-11-13 10:57:20</time>
      </trkpt>
      <trkpt lat="41.52567" lon="2.22602">
        <ele>72.4</ele>
        <time>2021-11-13 10:57:21</time>
      </trkpt>
      <trkpt lat="41.52561" lon="2.22601">
        <ele>72.6</ele>
        <time>2021-11-13 10:57:22</time>
      </trkpt>
      <trkpt lat="41.52556" lon="2.22599">
        <ele>72.6</ele>
        <time>2021-11-13 10:57:23</time>
      </trkpt>
      <trkpt lat="41.5255" lon="2.22597">
        <ele>72.8</ele>
        <time>2021-11-13 10:57:24</time>
      </trkpt>
      <trkpt lat="41.52544" lon="2.22596">
        <ele>72.8</ele>
        <time>2021-11-13 10:57:25</time>
      </trkpt>
      <trkpt lat="41.52537" lon="2.22594">
        <ele>72.8</ele>
        <time>2021-11-13 10:57:26</time>
      </trkpt>
      <trkpt lat="41.5253" lon="2.22593">
        <ele>72.8</ele>
        <time>2021-11-13 10:57:27</time>
      </trkpt>
      <trkpt lat="41.52523" lon="2.22591">
        <ele>72.8</ele>
        <time>2021-11-13 10:57:28</time>
      </trkpt>
      <trkpt lat="41.52515" lon="2.22589">
        <ele>72.8</ele>
        <time>2021-11-13 10:57:29</time>
      </trkpt>
      <trkpt lat="41.52508" lon="2.22587">
        <ele>72.8</ele>
        <time>2021-11-13 10:57:30</time>
      </trkpt>
      <trkpt lat="41.525" lon="2.22585">
        <ele>72.4</ele>
        <time>2021-11-13 10:57:31</time>
      </trkpt>
      <trkpt lat="41.52492" lon="2.22583">
        <ele>72.4</ele>
        <time>2021-11-13 10:57:32</time>
      </trkpt>
      <trkpt lat="41.52485" lon="2.22581">
        <ele>72.4</ele>
        <time>2021-11-13 10:57:33</time>
      </trkpt>
      <trkpt lat="41.52476" lon="2.22579">
        <ele>72.2</ele>
        <time>2021-11-13 10:57:34</time>
      </trkpt>
      <trkpt lat="41.52468" lon="2.22577">
        <ele>71.8</ele>
        <time>2021-11-13 10:57:35</time>
      </trkpt>
      <trkpt lat="41.5246" lon="2.22574">
        <ele>71.6</ele>
        <time>2021-11-13 10:57:36</time>
      </trkpt>
      <trkpt lat="41.52452" lon="2.22572">
        <ele>71.6</ele>
        <time>2021-11-13 10:57:37</time>
      </trkpt>
      <trkpt lat="41.52444" lon="2.2257">
        <ele>71.2</ele>
        <time>2021-11-13 10:57:38</time>
      </trkpt>
      <trkpt lat="41.52436" lon="2.22567">
        <ele>71</ele>
        <time>2021-11-13 10:57:39</time>
      </trkpt>
      <trkpt lat="41.52427" lon="2.22565">
        <ele>70.6</ele>
        <time>2021-11-13 10:57:40</time>
      </trkpt>
      <trkpt lat="41.52419" lon="2.22563">
        <ele>70.4</ele>
        <time>2021-11-13 10:57:41</time>
      </trkpt>
      <trkpt lat="41.52411" lon="2.22562">
        <ele>70</ele>
        <time>2021-11-13 10:57:42</time>
      </trkpt>
      <trkpt lat="41.52403" lon="2.2256">
        <ele>69.8</ele>
        <time>2021-11-13 10:57:43</time>
      </trkpt>
      <trkpt lat="41.52395" lon="2.22558">
        <ele>69.6</ele>
        <time>2021-11-13 10:57:44</time>
      </trkpt>
      <trkpt lat="41.52387" lon="2.22556">
        <ele>69.2</ele>
        <time>2021-11-13 10:57:45</time>
      </trkpt>
      <trkpt lat="41.52379" lon="2.22554">
        <ele>69.2</ele>
        <time>2021-11-13 10:57:46</time>
      </trkpt>
      <trkpt lat="41.52372" lon="2.22551">
        <ele>69</ele>
        <time>2021-11-13 10:57:47</time>
      </trkpt>
      <trkpt lat="41.52369" lon="2.2255">
        <ele>69</ele>
        <time>2021-11-13 10:57:48</time>
      </trkpt>
      <trkpt lat="41.52367" lon="2.22548">
        <ele>68.6</ele>
        <time>2021-11-13 10:57:49</time>
      </trkpt>
      <trkpt lat="41.52365" lon="2.22546">
        <ele>68.4</ele>
        <time>2021-11-13 10:57:50</time>
      </trkpt>
      <trkpt lat="41.52364" lon="2.22545">
        <ele>68.2</ele>
        <time>2021-11-13 10:57:51</time>
      </trkpt>
      <trkpt lat="41.52364" lon="2.22543">
        <ele>68.2</ele>
        <time>2021-11-13 10:57:52</time>
      </trkpt>
      <trkpt lat="41.52362" lon="2.22541">
        <ele>68</ele>
        <time>2021-11-13 10:57:53</time>
      </trkpt>
      <trkpt lat="41.5236" lon="2.22539">
        <ele>67.8</ele>
        <time>2021-11-13 10:57:54</time>
      </trkpt>
      <trkpt lat="41.52357" lon="2.22536">
        <ele>67.8</ele>
        <time>2021-11-13 10:57:55</time>
      </trkpt>
      <trkpt lat="41.52353" lon="2.22535">
        <ele>67.6</ele>
        <time>2021-11-13 10:57:56</time>
      </trkpt>
      <trkpt lat="41.52348" lon="2.22535">
        <ele>67.6</ele>
        <time>2021-11-13 10:57:57</time>
      </trkpt>
      <trkpt lat="41.52342" lon="2.22536">
        <ele>67.4</ele>
        <time>2021-11-13 10:57:58</time>
      </trkpt>
      <trkpt lat="41.52336" lon="2.22537">
        <ele>67.4</ele>
        <time>2021-11-13 10:57:59</time>
      </trkpt>
      <trkpt lat="41.52329" lon="2.22539">
        <ele>67</ele>
        <time>2021-11-13 10:58:00</time>
      </trkpt>
      <trkpt lat="41.52322" lon="2.22539">
        <ele>66.8</ele>
        <time>2021-11-13 10:58:01</time>
      </trkpt>
      <trkpt lat="41.52315" lon="2.22537">
        <ele>66.8</ele>
        <time>2021-11-13 10:58:02</time>
      </trkpt>
      <trkpt lat="41.52307" lon="2.22535">
        <ele>66.6</ele>
        <time>2021-11-13 10:58:03</time>
      </trkpt>
      <trkpt lat="41.52302" lon="2.22532">
        <ele>66.4</ele>
        <time>2021-11-13 10:58:04</time>
      </trkpt>
      <trkpt lat="41.52295" lon="2.2253">
        <ele>66.4</ele>
        <time>2021-11-13 10:58:05</time>
      </trkpt>
      <trkpt lat="41.52289" lon="2.22526">
        <ele>66.4</ele>
        <time>2021-11-13 10:58:06</time>
      </trkpt>
      <trkpt lat="41.52281" lon="2.22521">
        <ele>66.4</ele>
        <time>2021-11-13 10:58:07</time>
      </trkpt>
      <trkpt lat="41.52274" lon="2.22515">
        <ele>66.4</ele>
        <time>2021-11-13 10:58:08</time>
      </trkpt>
      <trkpt lat="41.5227" lon="2.2251">
        <ele>66.4</ele>
        <time>2021-11-13 10:58:09</time>
      </trkpt>
      <trkpt lat="41.52264" lon="2.22504">
        <ele>66.4</ele>
        <time>2021-11-13 10:58:10</time>
      </trkpt>
      <trkpt lat="41.52259" lon="2.22497">
        <ele>66.4</ele>
        <time>2021-11-13 10:58:11</time>
      </trkpt>
      <trkpt lat="41.52254" lon="2.22487">
        <ele>66.4</ele>
        <time>2021-11-13 10:58:12</time>
      </trkpt>
      <trkpt lat="41.5225" lon="2.22478">
        <ele>66.4</ele>
        <time>2021-11-13 10:58:13</time>
      </trkpt>
      <trkpt lat="41.52246" lon="2.22471">
        <ele>66.4</ele>
        <time>2021-11-13 10:58:14</time>
      </trkpt>
      <trkpt lat="41.52242" lon="2.22461">
        <ele>66.6</ele>
        <time>2021-11-13 10:58:15</time>
      </trkpt>
      <trkpt lat="41.52238" lon="2.22453">
        <ele>66.8</ele>
        <time>2021-11-13 10:58:16</time>
      </trkpt>
      <trkpt lat="41.52234" lon="2.22444">
        <ele>66.8</ele>
        <time>2021-11-13 10:58:17</time>
      </trkpt>
      <trkpt lat="41.5223" lon="2.22435">
        <ele>67</ele>
        <time>2021-11-13 10:58:18</time>
      </trkpt>
      <trkpt lat="41.52226" lon="2.22428">
        <ele>67</ele>
        <time>2021-11-13 10:58:19</time>
      </trkpt>
      <trkpt lat="41.52222" lon="2.2242">
        <ele>67</ele>
        <time>2021-11-13 10:58:20</time>
      </trkpt>
      <trkpt lat="41.52217" lon="2.22411">
        <ele>67.2</ele>
        <time>2021-11-13 10:58:21</time>
      </trkpt>
      <trkpt lat="41.52212" lon="2.22402">
        <ele>67.2</ele>
        <time>2021-11-13 10:58:22</time>
      </trkpt>
      <trkpt lat="41.52207" lon="2.22394">
        <ele>67.4</ele>
        <time>2021-11-13 10:58:23</time>
      </trkpt>
      <trkpt lat="41.52201" lon="2.22386">
        <ele>67.6</ele>
        <time>2021-11-13 10:58:24</time>
      </trkpt>
      <trkpt lat="41.52196" lon="2.22379">
        <ele>67.8</ele>
        <time>2021-11-13 10:58:25</time>
      </trkpt>
      <trkpt lat="41.52192" lon="2.22373">
        <ele>67.8</ele>
        <time>2021-11-13 10:58:26</time>
      </trkpt>
      <trkpt lat="41.52185" lon="2.22364">
        <ele>67.8</ele>
        <time>2021-11-13 10:58:27</time>
      </trkpt>
      <trkpt lat="41.52179" lon="2.22356">
        <ele>68</ele>
        <time>2021-11-13 10:58:28</time>
      </trkpt>
      <trkpt lat="41.52175" lon="2.22351">
        <ele>68</ele>
        <time>2021-11-13 10:58:29</time>
      </trkpt>
      <trkpt lat="41.5217" lon="2.22344">
        <ele>68</ele>
        <time>2021-11-13 10:58:30</time>
      </trkpt>
      <trkpt lat="41.52165" lon="2.22336">
        <ele>68</ele>
        <time>2021-11-13 10:58:31</time>
      </trkpt>
      <trkpt lat="41.52161" lon="2.22326">
        <ele>68</ele>
        <time>2021-11-13 10:58:32</time>
      </trkpt>
      <trkpt lat="41.52156" lon="2.22318">
        <ele>68</ele>
        <time>2021-11-13 10:58:33</time>
      </trkpt>
      <trkpt lat="41.5215" lon="2.22311">
        <ele>68</ele>
        <time>2021-11-13 10:58:34</time>
      </trkpt>
      <trkpt lat="41.52143" lon="2.22307">
        <ele>68</ele>
        <time>2021-11-13 10:58:35</time>
      </trkpt>
      <trkpt lat="41.52137" lon="2.22303">
        <ele>67.8</ele>
        <time>2021-11-13 10:58:36</time>
      </trkpt>
      <trkpt lat="41.5213" lon="2.22298">
        <ele>67.8</ele>
        <time>2021-11-13 10:58:37</time>
      </trkpt>
      <trkpt lat="41.52124" lon="2.22293">
        <ele>67.8</ele>
        <time>2021-11-13 10:58:38</time>
      </trkpt>
      <trkpt lat="41.52118" lon="2.22288">
        <ele>67.6</ele>
        <time>2021-11-13 10:58:39</time>
      </trkpt>
      <trkpt lat="41.52112" lon="2.22282">
        <ele>67.6</ele>
        <time>2021-11-13 10:58:40</time>
      </trkpt>
      <trkpt lat="41.52107" lon="2.22276">
        <ele>67.6</ele>
        <time>2021-11-13 10:58:41</time>
      </trkpt>
      <trkpt lat="41.52101" lon="2.2227">
        <ele>67.6</ele>
        <time>2021-11-13 10:58:42</time>
      </trkpt>
      <trkpt lat="41.52096" lon="2.22264">
        <ele>67.6</ele>
        <time>2021-11-13 10:58:43</time>
      </trkpt>
      <trkpt lat="41.5209" lon="2.22258">
        <ele>67.4</ele>
        <time>2021-11-13 10:58:44</time>
      </trkpt>
      <trkpt lat="41.52084" lon="2.22252">
        <ele>67.4</ele>
        <time>2021-11-13 10:58:45</time>
      </trkpt>
      <trkpt lat="41.52079" lon="2.22246">
        <ele>67.6</ele>
        <time>2021-11-13 10:58:46</time>
      </trkpt>
      <trkpt lat="41.52074" lon="2.22239">
        <ele>67.6</ele>
        <time>2021-11-13 10:58:47</time>
      </trkpt>
      <trkpt lat="41.52069" lon="2.22232">
        <ele>67.6</ele>
        <time>2021-11-13 10:58:48</time>
      </trkpt>
      <trkpt lat="41.52065" lon="2.22225">
        <ele>67.8</ele>
        <time>2021-11-13 10:58:49</time>
      </trkpt>
      <trkpt lat="41.52061" lon="2.22218">
        <ele>68</ele>
        <time>2021-11-13 10:58:50</time>
      </trkpt>
      <trkpt lat="41.52057" lon="2.22211">
        <ele>68.2</ele>
        <time>2021-11-13 10:58:51</time>
      </trkpt>
      <trkpt lat="41.52052" lon="2.22204">
        <ele>68.4</ele>
        <time>2021-11-13 10:58:52</time>
      </trkpt>
      <trkpt lat="41.52048" lon="2.22196">
        <ele>68.6</ele>
        <time>2021-11-13 10:58:53</time>
      </trkpt>
      <trkpt lat="41.52044" lon="2.22189">
        <ele>68.6</ele>
        <time>2021-11-13 10:58:54</time>
      </trkpt>
      <trkpt lat="41.5204" lon="2.22181">
        <ele>69</ele>
        <time>2021-11-13 10:58:55</time>
      </trkpt>
      <trkpt lat="41.52036" lon="2.22174">
        <ele>69.2</ele>
        <time>2021-11-13 10:58:56</time>
      </trkpt>
      <trkpt lat="41.52032" lon="2.22167">
        <ele>69.4</ele>
        <time>2021-11-13 10:58:57</time>
      </trkpt>
      <trkpt lat="41.52029" lon="2.22159">
        <ele>69.8</ele>
        <time>2021-11-13 10:58:58</time>
      </trkpt>
      <trkpt lat="41.52025" lon="2.2215">
        <ele>70.2</ele>
        <time>2021-11-13 10:58:59</time>
      </trkpt>
      <trkpt lat="41.52022" lon="2.22144">
        <ele>70.6</ele>
        <time>2021-11-13 10:59:00</time>
      </trkpt>
      <trkpt lat="41.52018" lon="2.22134">
        <ele>70.6</ele>
        <time>2021-11-13 10:59:01</time>
      </trkpt>
      <trkpt lat="41.52014" lon="2.22125">
        <ele>71</ele>
        <time>2021-11-13 10:59:02</time>
      </trkpt>
      <trkpt lat="41.52011" lon="2.22116">
        <ele>71.2</ele>
        <time>2021-11-13 10:59:03</time>
      </trkpt>
      <trkpt lat="41.52008" lon="2.22107">
        <ele>71.4</ele>
        <time>2021-11-13 10:59:04</time>
      </trkpt>
      <trkpt lat="41.52005" lon="2.22098">
        <ele>71.4</ele>
        <time>2021-11-13 10:59:05</time>
      </trkpt>
      <trkpt lat="41.52003" lon="2.2209">
        <ele>71.6</ele>
        <time>2021-11-13 10:59:06</time>
      </trkpt>
      <trkpt lat="41.52" lon="2.22079">
        <ele>71.8</ele>
        <time>2021-11-13 10:59:07</time>
      </trkpt>
      <trkpt lat="41.51997" lon="2.22069">
        <ele>71.6</ele>
        <time>2021-11-13 10:59:08</time>
      </trkpt>
      <trkpt lat="41.51995" lon="2.22061">
        <ele>71.6</ele>
        <time>2021-11-13 10:59:09</time>
      </trkpt>
      <trkpt lat="41.51992" lon="2.22048">
        <ele>71.8</ele>
        <time>2021-11-13 10:59:10</time>
      </trkpt>
      <trkpt lat="41.51989" lon="2.22038">
        <ele>71.8</ele>
        <time>2021-11-13 10:59:11</time>
      </trkpt>
      <trkpt lat="41.51985" lon="2.22028">
        <ele>72</ele>
        <time>2021-11-13 10:59:12</time>
      </trkpt>
      <trkpt lat="41.51981" lon="2.22019">
        <ele>71.8</ele>
        <time>2021-11-13 10:59:13</time>
      </trkpt>
      <trkpt lat="41.51976" lon="2.22011">
        <ele>71.8</ele>
        <time>2021-11-13 10:59:14</time>
      </trkpt>
      <trkpt lat="41.5197" lon="2.22002">
        <ele>71.6</ele>
        <time>2021-11-13 10:59:15</time>
      </trkpt>
      <trkpt lat="41.51964" lon="2.21995">
        <ele>71.6</ele>
        <time>2021-11-13 10:59:16</time>
      </trkpt>
      <trkpt lat="41.51958" lon="2.21987">
        <ele>71.6</ele>
        <time>2021-11-13 10:59:17</time>
      </trkpt>
      <trkpt lat="41.51951" lon="2.21979">
        <ele>71.6</ele>
        <time>2021-11-13 10:59:18</time>
      </trkpt>
      <trkpt lat="41.51944" lon="2.21972">
        <ele>71.4</ele>
        <time>2021-11-13 10:59:19</time>
      </trkpt>
      <trkpt lat="41.51938" lon="2.21964">
        <ele>71.4</ele>
        <time>2021-11-13 10:59:20</time>
      </trkpt>
      <trkpt lat="41.51931" lon="2.21957">
        <ele>71.2</ele>
        <time>2021-11-13 10:59:21</time>
      </trkpt>
      <trkpt lat="41.51924" lon="2.21949">
        <ele>70.6</ele>
        <time>2021-11-13 10:59:22</time>
      </trkpt>
      <trkpt lat="41.51917" lon="2.21942">
        <ele>70.4</ele>
        <time>2021-11-13 10:59:23</time>
      </trkpt>
      <trkpt lat="41.51911" lon="2.21934">
        <ele>70.2</ele>
        <time>2021-11-13 10:59:24</time>
      </trkpt>
      <trkpt lat="41.51904" lon="2.21926">
        <ele>70</ele>
        <time>2021-11-13 10:59:25</time>
      </trkpt>
      <trkpt lat="41.51897" lon="2.21918">
        <ele>69.8</ele>
        <time>2021-11-13 10:59:26</time>
      </trkpt>
      <trkpt lat="41.51891" lon="2.2191">
        <ele>69.6</ele>
        <time>2021-11-13 10:59:27</time>
      </trkpt>
      <trkpt lat="41.51885" lon="2.21901">
        <ele>69.6</ele>
        <time>2021-11-13 10:59:28</time>
      </trkpt>
      <trkpt lat="41.5188" lon="2.21891">
        <ele>69.6</ele>
        <time>2021-11-13 10:59:29</time>
      </trkpt>
      <trkpt lat="41.51874" lon="2.21882">
        <ele>69.6</ele>
        <time>2021-11-13 10:59:30</time>
      </trkpt>
      <trkpt lat="41.51869" lon="2.21872">
        <ele>69.4</ele>
        <time>2021-11-13 10:59:31</time>
      </trkpt>
      <trkpt lat="41.51864" lon="2.21863">
        <ele>69.2</ele>
        <time>2021-11-13 10:59:32</time>
      </trkpt>
      <trkpt lat="41.51859" lon="2.21854">
        <ele>69.4</ele>
        <time>2021-11-13 10:59:33</time>
      </trkpt>
      <trkpt lat="41.51853" lon="2.21846">
        <ele>69.2</ele>
        <time>2021-11-13 10:59:34</time>
      </trkpt>
      <trkpt lat="41.51847" lon="2.21838">
        <ele>69.2</ele>
        <time>2021-11-13 10:59:35</time>
      </trkpt>
      <trkpt lat="41.51841" lon="2.2183">
        <ele>69.2</ele>
        <time>2021-11-13 10:59:36</time>
      </trkpt>
      <trkpt lat="41.51834" lon="2.21823">
        <ele>69.2</ele>
        <time>2021-11-13 10:59:37</time>
      </trkpt>
      <trkpt lat="41.51827" lon="2.21817">
        <ele>69.2</ele>
        <time>2021-11-13 10:59:38</time>
      </trkpt>
      <trkpt lat="41.51819" lon="2.21812">
        <ele>69.2</ele>
        <time>2021-11-13 10:59:39</time>
      </trkpt>
      <trkpt lat="41.51812" lon="2.21806">
        <ele>69</ele>
        <time>2021-11-13 10:59:40</time>
      </trkpt>
      <trkpt lat="41.51804" lon="2.21802">
        <ele>69</ele>
        <time>2021-11-13 10:59:41</time>
      </trkpt>
      <trkpt lat="41.51796" lon="2.21799">
        <ele>69</ele>
        <time>2021-11-13 10:59:42</time>
      </trkpt>
      <trkpt lat="41.51788" lon="2.21796">
        <ele>69.2</ele>
        <time>2021-11-13 10:59:43</time>
      </trkpt>
      <trkpt lat="41.51782" lon="2.21795">
        <ele>69.2</ele>
        <time>2021-11-13 10:59:44</time>
      </trkpt>
      <trkpt lat="41.51773" lon="2.21795">
        <ele>69.2</ele>
        <time>2021-11-13 10:59:45</time>
      </trkpt>
      <trkpt lat="41.51765" lon="2.21794">
        <ele>69</ele>
        <time>2021-11-13 10:59:46</time>
      </trkpt>
      <trkpt lat="41.51755" lon="2.21794">
        <ele>69</ele>
        <time>2021-11-13 10:59:47</time>
      </trkpt>
      <trkpt lat="41.51746" lon="2.21792">
        <ele>69</ele>
        <time>2021-11-13 10:59:48</time>
      </trkpt>
      <trkpt lat="41.5174" lon="2.21791">
        <ele>68.8</ele>
        <time>2021-11-13 10:59:49</time>
      </trkpt>
      <trkpt lat="41.51731" lon="2.21788">
        <ele>68.6</ele>
        <time>2021-11-13 10:59:50</time>
      </trkpt>
      <trkpt lat="41.51723" lon="2.21784">
        <ele>68.6</ele>
        <time>2021-11-13 10:59:51</time>
      </trkpt>
      <trkpt lat="41.51714" lon="2.21779">
        <ele>68.6</ele>
        <time>2021-11-13 10:59:52</time>
      </trkpt>
      <trkpt lat="41.51706" lon="2.21775">
        <ele>68.6</ele>
        <time>2021-11-13 10:59:53</time>
      </trkpt>
      <trkpt lat="41.51698" lon="2.2177">
        <ele>68.4</ele>
        <time>2021-11-13 10:59:54</time>
      </trkpt>
      <trkpt lat="41.51691" lon="2.21766">
        <ele>68.4</ele>
        <time>2021-11-13 10:59:55</time>
      </trkpt>
      <trkpt lat="41.51683" lon="2.21761">
        <ele>68.2</ele>
        <time>2021-11-13 10:59:56</time>
      </trkpt>
      <trkpt lat="41.51674" lon="2.21755">
        <ele>68</ele>
        <time>2021-11-13 10:59:57</time>
      </trkpt>
      <trkpt lat="41.51666" lon="2.2175">
        <ele>68</ele>
        <time>2021-11-13 10:59:58</time>
      </trkpt>
      <trkpt lat="41.51658" lon="2.21745">
        <ele>67.8</ele>
        <time>2021-11-13 10:59:59</time>
      </trkpt>
      <trkpt lat="41.51651" lon="2.21741">
        <ele>67.8</ele>
        <time>2021-11-13 11:00:00</time>
      </trkpt>
      <trkpt lat="41.51643" lon="2.21736">
        <ele>67.8</ele>
        <time>2021-11-13 11:00:01</time>
      </trkpt>
      <trkpt lat="41.51635" lon="2.21731">
        <ele>67.8</ele>
        <time>2021-11-13 11:00:02</time>
      </trkpt>
      <trkpt lat="41.51626" lon="2.21725">
        <ele>67.8</ele>
        <time>2021-11-13 11:00:03</time>
      </trkpt>
      <trkpt lat="41.51618" lon="2.2172">
        <ele>67.8</ele>
        <time>2021-11-13 11:00:04</time>
      </trkpt>
      <trkpt lat="41.51611" lon="2.21715">
        <ele>67.6</ele>
        <time>2021-11-13 11:00:05</time>
      </trkpt>
      <trkpt lat="41.51604" lon="2.21709">
        <ele>67.6</ele>
        <time>2021-11-13 11:00:06</time>
      </trkpt>
      <trkpt lat="41.51596" lon="2.21702">
        <ele>67.6</ele>
        <time>2021-11-13 11:00:07</time>
      </trkpt>
      <trkpt lat="41.51588" lon="2.21692">
        <ele>67.4</ele>
        <time>2021-11-13 11:00:08</time>
      </trkpt>
      <trkpt lat="41.51582" lon="2.21682">
        <ele>67.4</ele>
        <time>2021-11-13 11:00:09</time>
      </trkpt>
      <trkpt lat="41.51577" lon="2.21672">
        <ele>67.4</ele>
        <time>2021-11-13 11:00:10</time>
      </trkpt>
      <trkpt lat="41.51573" lon="2.21664">
        <ele>67.2</ele>
        <time>2021-11-13 11:00:11</time>
      </trkpt>
      <trkpt lat="41.51567" lon="2.21651">
        <ele>67.2</ele>
        <time>2021-11-13 11:00:12</time>
      </trkpt>
      <trkpt lat="41.51562" lon="2.21641">
        <ele>66.8</ele>
        <time>2021-11-13 11:00:13</time>
      </trkpt>
      <trkpt lat="41.51557" lon="2.2163">
        <ele>66.8</ele>
        <time>2021-11-13 11:00:14</time>
      </trkpt>
      <trkpt lat="41.51553" lon="2.21619">
        <ele>66.6</ele>
        <time>2021-11-13 11:00:15</time>
      </trkpt>
      <trkpt lat="41.51549" lon="2.2161">
        <ele>66.4</ele>
        <time>2021-11-13 11:00:16</time>
      </trkpt>
      <trkpt lat="41.51543" lon="2.21597">
        <ele>66.2</ele>
        <time>2021-11-13 11:00:17</time>
      </trkpt>
      <trkpt lat="41.51538" lon="2.21586">
        <ele>66.2</ele>
        <time>2021-11-13 11:00:18</time>
      </trkpt>
      <trkpt lat="41.51533" lon="2.21575">
        <ele>66</ele>
        <time>2021-11-13 11:00:19</time>
      </trkpt>
      <trkpt lat="41.51528" lon="2.21565">
        <ele>66</ele>
        <time>2021-11-13 11:00:20</time>
      </trkpt>
      <trkpt lat="41.51523" lon="2.21554">
        <ele>65.8</ele>
        <time>2021-11-13 11:00:21</time>
      </trkpt>
      <trkpt lat="41.51519" lon="2.21544">
        <ele>65.8</ele>
        <time>2021-11-13 11:00:22</time>
      </trkpt>
      <trkpt lat="41.51514" lon="2.21533">
        <ele>65.6</ele>
        <time>2021-11-13 11:00:23</time>
      </trkpt>
      <trkpt lat="41.51509" lon="2.21523">
        <ele>65.6</ele>
        <time>2021-11-13 11:00:24</time>
      </trkpt>
      <trkpt lat="41.51504" lon="2.21512">
        <ele>65.6</ele>
        <time>2021-11-13 11:00:25</time>
      </trkpt>
      <trkpt lat="41.51499" lon="2.21501">
        <ele>65.4</ele>
        <time>2021-11-13 11:00:26</time>
      </trkpt>
      <trkpt lat="41.51494" lon="2.2149">
        <ele>65.4</ele>
        <time>2021-11-13 11:00:27</time>
      </trkpt>
      <trkpt lat="41.51489" lon="2.2148">
        <ele>65.2</ele>
        <time>2021-11-13 11:00:28</time>
      </trkpt>
      <trkpt lat="41.51484" lon="2.21469">
        <ele>65.2</ele>
        <time>2021-11-13 11:00:29</time>
      </trkpt>
      <trkpt lat="41.51479" lon="2.21459">
        <ele>65</ele>
        <time>2021-11-13 11:00:30</time>
      </trkpt>
      <trkpt lat="41.51474" lon="2.21448">
        <ele>64.8</ele>
        <time>2021-11-13 11:00:31</time>
      </trkpt>
      <trkpt lat="41.51469" lon="2.21438">
        <ele>64.8</ele>
        <time>2021-11-13 11:00:32</time>
      </trkpt>
      <trkpt lat="41.51465" lon="2.21427">
        <ele>64.6</ele>
        <time>2021-11-13 11:00:33</time>
      </trkpt>
      <trkpt lat="41.51459" lon="2.21417">
        <ele>64.6</ele>
        <time>2021-11-13 11:00:34</time>
      </trkpt>
      <trkpt lat="41.51454" lon="2.21407">
        <ele>64.4</ele>
        <time>2021-11-13 11:00:35</time>
      </trkpt>
      <trkpt lat="41.51449" lon="2.21396">
        <ele>64.4</ele>
        <time>2021-11-13 11:00:36</time>
      </trkpt>
      <trkpt lat="41.51443" lon="2.21386">
        <ele>64.2</ele>
        <time>2021-11-13 11:00:37</time>
      </trkpt>
      <trkpt lat="41.51437" lon="2.21377">
        <ele>64.2</ele>
        <time>2021-11-13 11:00:38</time>
      </trkpt>
      <trkpt lat="41.51432" lon="2.2137">
        <ele>64</ele>
        <time>2021-11-13 11:00:39</time>
      </trkpt>
      <trkpt lat="41.51424" lon="2.2136">
        <ele>64</ele>
        <time>2021-11-13 11:00:40</time>
      </trkpt>
      <trkpt lat="41.51417" lon="2.21352">
        <ele>64</ele>
        <time>2021-11-13 11:00:41</time>
      </trkpt>
      <trkpt lat="41.51408" lon="2.21342">
        <ele>63.8</ele>
        <time>2021-11-13 11:00:42</time>
      </trkpt>
      <trkpt lat="41.51403" lon="2.21336">
        <ele>63.8</ele>
        <time>2021-11-13 11:00:43</time>
      </trkpt>
      <trkpt lat="41.51395" lon="2.21329">
        <ele>63.4</ele>
        <time>2021-11-13 11:00:44</time>
      </trkpt>
      <trkpt lat="41.51388" lon="2.21323">
        <ele>63.2</ele>
        <time>2021-11-13 11:00:45</time>
      </trkpt>
      <trkpt lat="41.51381" lon="2.21316">
        <ele>63</ele>
        <time>2021-11-13 11:00:46</time>
      </trkpt>
      <trkpt lat="41.51373" lon="2.2131">
        <ele>62.8</ele>
        <time>2021-11-13 11:00:47</time>
      </trkpt>
      <trkpt lat="41.51365" lon="2.21304">
        <ele>62.6</ele>
        <time>2021-11-13 11:00:48</time>
      </trkpt>
      <trkpt lat="41.51358" lon="2.21297">
        <ele>62.6</ele>
        <time>2021-11-13 11:00:49</time>
      </trkpt>
      <trkpt lat="41.5135" lon="2.21291">
        <ele>62.4</ele>
        <time>2021-11-13 11:00:50</time>
      </trkpt>
      <trkpt lat="41.51343" lon="2.21285">
        <ele>62.4</ele>
        <time>2021-11-13 11:00:51</time>
      </trkpt>
      <trkpt lat="41.51335" lon="2.21278">
        <ele>62.2</ele>
        <time>2021-11-13 11:00:52</time>
      </trkpt>
      <trkpt lat="41.51327" lon="2.21272">
        <ele>62</ele>
        <time>2021-11-13 11:00:53</time>
      </trkpt>
      <trkpt lat="41.5132" lon="2.21266">
        <ele>62</ele>
        <time>2021-11-13 11:00:54</time>
      </trkpt>
      <trkpt lat="41.51312" lon="2.2126">
        <ele>61.8</ele>
        <time>2021-11-13 11:00:55</time>
      </trkpt>
      <trkpt lat="41.51305" lon="2.21253">
        <ele>61.8</ele>
        <time>2021-11-13 11:00:56</time>
      </trkpt>
      <trkpt lat="41.51298" lon="2.21245">
        <ele>61.8</ele>
        <time>2021-11-13 11:00:57</time>
      </trkpt>
      <trkpt lat="41.5129" lon="2.21236">
        <ele>61.8</ele>
        <time>2021-11-13 11:00:58</time>
      </trkpt>
      <trkpt lat="41.51284" lon="2.2123">
        <ele>61.6</ele>
        <time>2021-11-13 11:00:59</time>
      </trkpt>
      <trkpt lat="41.51278" lon="2.21222">
        <ele>61.6</ele>
        <time>2021-11-13 11:01:00</time>
      </trkpt>
      <trkpt lat="41.51271" lon="2.21214">
        <ele>61.6</ele>
        <time>2021-11-13 11:01:01</time>
      </trkpt>
      <trkpt lat="41.51265" lon="2.21206">
        <ele>61.6</ele>
        <time>2021-11-13 11:01:02</time>
      </trkpt>
      <trkpt lat="41.51259" lon="2.21197">
        <ele>61.6</ele>
        <time>2021-11-13 11:01:03</time>
      </trkpt>
      <trkpt lat="41.51253" lon="2.2119">
        <ele>61.6</ele>
        <time>2021-11-13 11:01:04</time>
      </trkpt>
      <trkpt lat="41.51246" lon="2.21182">
        <ele>61.4</ele>
        <time>2021-11-13 11:01:05</time>
      </trkpt>
      <trkpt lat="41.5124" lon="2.21174">
        <ele>61.4</ele>
        <time>2021-11-13 11:01:06</time>
      </trkpt>
      <trkpt lat="41.51234" lon="2.21166">
        <ele>61.4</ele>
        <time>2021-11-13 11:01:07</time>
      </trkpt>
      <trkpt lat="41.51228" lon="2.21158">
        <ele>61.4</ele>
        <time>2021-11-13 11:01:08</time>
      </trkpt>
      <trkpt lat="41.51221" lon="2.21149">
        <ele>61.4</ele>
        <time>2021-11-13 11:01:09</time>
      </trkpt>
      <trkpt lat="41.51215" lon="2.21141">
        <ele>61.2</ele>
        <time>2021-11-13 11:01:10</time>
      </trkpt>
      <trkpt lat="41.51209" lon="2.21132">
        <ele>61.2</ele>
        <time>2021-11-13 11:01:11</time>
      </trkpt>
      <trkpt lat="41.51203" lon="2.21124">
        <ele>61.2</ele>
        <time>2021-11-13 11:01:12</time>
      </trkpt>
      <trkpt lat="41.51196" lon="2.21116">
        <ele>61.2</ele>
        <time>2021-11-13 11:01:13</time>
      </trkpt>
      <trkpt lat="41.5119" lon="2.21109">
        <ele>61.2</ele>
        <time>2021-11-13 11:01:14</time>
      </trkpt>
      <trkpt lat="41.51184" lon="2.21101">
        <ele>61.2</ele>
        <time>2021-11-13 11:01:15</time>
      </trkpt>
      <trkpt lat="41.51178" lon="2.21095">
        <ele>61</ele>
        <time>2021-11-13 11:01:16</time>
      </trkpt>
      <trkpt lat="41.5117" lon="2.21088">
        <ele>61</ele>
        <time>2021-11-13 11:01:17</time>
      </trkpt>
      <trkpt lat="41.51162" lon="2.21082">
        <ele>61</ele>
        <time>2021-11-13 11:01:18</time>
      </trkpt>
      <trkpt lat="41.51155" lon="2.21078">
        <ele>61</ele>
        <time>2021-11-13 11:01:19</time>
      </trkpt>
      <trkpt lat="41.51147" lon="2.21074">
        <ele>61</ele>
        <time>2021-11-13 11:01:20</time>
      </trkpt>
      <trkpt lat="41.5114" lon="2.21072">
        <ele>60.8</ele>
        <time>2021-11-13 11:01:21</time>
      </trkpt>
      <trkpt lat="41.51132" lon="2.2107">
        <ele>60.8</ele>
        <time>2021-11-13 11:01:22</time>
      </trkpt>
      <trkpt lat="41.51123" lon="2.21068">
        <ele>60.8</ele>
        <time>2021-11-13 11:01:23</time>
      </trkpt>
      <trkpt lat="41.51115" lon="2.21067">
        <ele>60.8</ele>
        <time>2021-11-13 11:01:24</time>
      </trkpt>
      <trkpt lat="41.51106" lon="2.21065">
        <ele>60.6</ele>
        <time>2021-11-13 11:01:25</time>
      </trkpt>
      <trkpt lat="41.51098" lon="2.21063">
        <ele>60.6</ele>
        <time>2021-11-13 11:01:26</time>
      </trkpt>
      <trkpt lat="41.51089" lon="2.21061">
        <ele>60.4</ele>
        <time>2021-11-13 11:01:27</time>
      </trkpt>
      <trkpt lat="41.5108" lon="2.21059">
        <ele>60.4</ele>
        <time>2021-11-13 11:01:28</time>
      </trkpt>
      <trkpt lat="41.51072" lon="2.21057">
        <ele>60.4</ele>
        <time>2021-11-13 11:01:29</time>
      </trkpt>
      <trkpt lat="41.51061" lon="2.21055">
        <ele>60.2</ele>
        <time>2021-11-13 11:01:30</time>
      </trkpt>
      <trkpt lat="41.51054" lon="2.21053">
        <ele>60.2</ele>
        <time>2021-11-13 11:01:31</time>
      </trkpt>
      <trkpt lat="41.51046" lon="2.21051">
        <ele>60.2</ele>
        <time>2021-11-13 11:01:32</time>
      </trkpt>
      <trkpt lat="41.51036" lon="2.21048">
        <ele>60</ele>
        <time>2021-11-13 11:01:33</time>
      </trkpt>
      <trkpt lat="41.51029" lon="2.21046">
        <ele>60</ele>
        <time>2021-11-13 11:01:34</time>
      </trkpt>
      <trkpt lat="41.5102" lon="2.21043">
        <ele>60</ele>
        <time>2021-11-13 11:01:35</time>
      </trkpt>
      <trkpt lat="41.51011" lon="2.2104">
        <ele>59.8</ele>
        <time>2021-11-13 11:01:36</time>
      </trkpt>
      <trkpt lat="41.51003" lon="2.21036">
        <ele>59.8</ele>
        <time>2021-11-13 11:01:37</time>
      </trkpt>
      <trkpt lat="41.50995" lon="2.21033">
        <ele>59.8</ele>
        <time>2021-11-13 11:01:38</time>
      </trkpt>
      <trkpt lat="41.50985" lon="2.21028">
        <ele>59.6</ele>
        <time>2021-11-13 11:01:39</time>
      </trkpt>
      <trkpt lat="41.50977" lon="2.21023">
        <ele>59.6</ele>
        <time>2021-11-13 11:01:40</time>
      </trkpt>
      <trkpt lat="41.50971" lon="2.21019">
        <ele>59.4</ele>
        <time>2021-11-13 11:01:41</time>
      </trkpt>
      <trkpt lat="41.50963" lon="2.21013">
        <ele>59.2</ele>
        <time>2021-11-13 11:01:42</time>
      </trkpt>
      <trkpt lat="41.50956" lon="2.21007">
        <ele>59</ele>
        <time>2021-11-13 11:01:43</time>
      </trkpt>
      <trkpt lat="41.50947" lon="2.20999">
        <ele>59</ele>
        <time>2021-11-13 11:01:44</time>
      </trkpt>
      <trkpt lat="41.50941" lon="2.20993">
        <ele>59</ele>
        <time>2021-11-13 11:01:45</time>
      </trkpt>
      <trkpt lat="41.50934" lon="2.20987">
        <ele>58.8</ele>
        <time>2021-11-13 11:01:46</time>
      </trkpt>
      <trkpt lat="41.50927" lon="2.2098">
        <ele>58.8</ele>
        <time>2021-11-13 11:01:47</time>
      </trkpt>
      <trkpt lat="41.50919" lon="2.20974">
        <ele>58.8</ele>
        <time>2021-11-13 11:01:48</time>
      </trkpt>
      <trkpt lat="41.50912" lon="2.20967">
        <ele>58.8</ele>
        <time>2021-11-13 11:01:49</time>
      </trkpt>
      <trkpt lat="41.50904" lon="2.20961">
        <ele>58.8</ele>
        <time>2021-11-13 11:01:50</time>
      </trkpt>
      <trkpt lat="41.50897" lon="2.20954">
        <ele>58.6</ele>
        <time>2021-11-13 11:01:51</time>
      </trkpt>
      <trkpt lat="41.50889" lon="2.20947">
        <ele>58.6</ele>
        <time>2021-11-13 11:01:52</time>
      </trkpt>
      <trkpt lat="41.50882" lon="2.2094">
        <ele>58.4</ele>
        <time>2021-11-13 11:01:53</time>
      </trkpt>
      <trkpt lat="41.50874" lon="2.20934">
        <ele>58.4</ele>
        <time>2021-11-13 11:01:54</time>
      </trkpt>
      <trkpt lat="41.50867" lon="2.20927">
        <ele>58.2</ele>
        <time>2021-11-13 11:01:55</time>
      </trkpt>
      <trkpt lat="41.50858" lon="2.20919">
        <ele>58</ele>
        <time>2021-11-13 11:01:56</time>
      </trkpt>
      <trkpt lat="41.50853" lon="2.20914">
        <ele>57.8</ele>
        <time>2021-11-13 11:01:57</time>
      </trkpt>
      <trkpt lat="41.50845" lon="2.20907">
        <ele>57.8</ele>
        <time>2021-11-13 11:01:58</time>
      </trkpt>
      <trkpt lat="41.50838" lon="2.20901">
        <ele>57.6</ele>
        <time>2021-11-13 11:01:59</time>
      </trkpt>
      <trkpt lat="41.50831" lon="2.20893">
        <ele>57.6</ele>
        <time>2021-11-13 11:02:00</time>
      </trkpt>
      <trkpt lat="41.50823" lon="2.20884">
        <ele>57.6</ele>
        <time>2021-11-13 11:02:01</time>
      </trkpt>
      <trkpt lat="41.50817" lon="2.20876">
        <ele>57.4</ele>
        <time>2021-11-13 11:02:02</time>
      </trkpt>
      <trkpt lat="41.50812" lon="2.2087">
        <ele>57.4</ele>
        <time>2021-11-13 11:02:03</time>
      </trkpt>
      <trkpt lat="41.50806" lon="2.20862">
        <ele>57.2</ele>
        <time>2021-11-13 11:02:04</time>
      </trkpt>
      <trkpt lat="41.50798" lon="2.20852">
        <ele>57.2</ele>
        <time>2021-11-13 11:02:05</time>
      </trkpt>
      <trkpt lat="41.50792" lon="2.20845">
        <ele>57</ele>
        <time>2021-11-13 11:02:06</time>
      </trkpt>
      <trkpt lat="41.50786" lon="2.20839">
        <ele>57</ele>
        <time>2021-11-13 11:02:07</time>
      </trkpt>
      <trkpt lat="41.5078" lon="2.20831">
        <ele>57</ele>
        <time>2021-11-13 11:02:08</time>
      </trkpt>
      <trkpt lat="41.50773" lon="2.20825">
        <ele>56.8</ele>
        <time>2021-11-13 11:02:09</time>
      </trkpt>
      <trkpt lat="41.50765" lon="2.20819">
        <ele>56.8</ele>
        <time>2021-11-13 11:02:10</time>
      </trkpt>
      <trkpt lat="41.50758" lon="2.20814">
        <ele>57</ele>
        <time>2021-11-13 11:02:11</time>
      </trkpt>
      <trkpt lat="41.50748" lon="2.20809">
        <ele>57</ele>
        <time>2021-11-13 11:02:12</time>
      </trkpt>
      <trkpt lat="41.50742" lon="2.20806">
        <ele>57</ele>
        <time>2021-11-13 11:02:13</time>
      </trkpt>
      <trkpt lat="41.50733" lon="2.20802">
        <ele>57</ele>
        <time>2021-11-13 11:02:14</time>
      </trkpt>
      <trkpt lat="41.50725" lon="2.20799">
        <ele>57</ele>
        <time>2021-11-13 11:02:15</time>
      </trkpt>
      <trkpt lat="41.50714" lon="2.20796">
        <ele>57</ele>
        <time>2021-11-13 11:02:16</time>
      </trkpt>
      <trkpt lat="41.50706" lon="2.20793">
        <ele>57</ele>
        <time>2021-11-13 11:02:17</time>
      </trkpt>
      <trkpt lat="41.50697" lon="2.2079">
        <ele>57</ele>
        <time>2021-11-13 11:02:18</time>
      </trkpt>
      <trkpt lat="41.5069" lon="2.20788">
        <ele>57</ele>
        <time>2021-11-13 11:02:19</time>
      </trkpt>
      <trkpt lat="41.50682" lon="2.20784">
        <ele>56.8</ele>
        <time>2021-11-13 11:02:20</time>
      </trkpt>
      <trkpt lat="41.50673" lon="2.20781">
        <ele>56.8</ele>
        <time>2021-11-13 11:02:21</time>
      </trkpt>
      <trkpt lat="41.50665" lon="2.20777">
        <ele>56.8</ele>
        <time>2021-11-13 11:02:22</time>
      </trkpt>
      <trkpt lat="41.50655" lon="2.20772">
        <ele>56.8</ele>
        <time>2021-11-13 11:02:23</time>
      </trkpt>
      <trkpt lat="41.50648" lon="2.20769">
        <ele>56.6</ele>
        <time>2021-11-13 11:02:24</time>
      </trkpt>
      <trkpt lat="41.5064" lon="2.20764">
        <ele>56.6</ele>
        <time>2021-11-13 11:02:25</time>
      </trkpt>
      <trkpt lat="41.50632" lon="2.20759">
        <ele>56.6</ele>
        <time>2021-11-13 11:02:26</time>
      </trkpt>
      <trkpt lat="41.50623" lon="2.20753">
        <ele>56.4</ele>
        <time>2021-11-13 11:02:27</time>
      </trkpt>
      <trkpt lat="41.50615" lon="2.20748">
        <ele>56.4</ele>
        <time>2021-11-13 11:02:28</time>
      </trkpt>
      <trkpt lat="41.50609" lon="2.20744">
        <ele>56.6</ele>
        <time>2021-11-13 11:02:29</time>
      </trkpt>
      <trkpt lat="41.50601" lon="2.20738">
        <ele>56.4</ele>
        <time>2021-11-13 11:02:30</time>
      </trkpt>
      <trkpt lat="41.50594" lon="2.20733">
        <ele>56.6</ele>
        <time>2021-11-13 11:02:31</time>
      </trkpt>
      <trkpt lat="41.50585" lon="2.20727">
        <ele>56.4</ele>
        <time>2021-11-13 11:02:32</time>
      </trkpt>
      <trkpt lat="41.50578" lon="2.20722">
        <ele>56.4</ele>
        <time>2021-11-13 11:02:33</time>
      </trkpt>
      <trkpt lat="41.5057" lon="2.20716">
        <ele>56.4</ele>
        <time>2021-11-13 11:02:34</time>
      </trkpt>
      <trkpt lat="41.50565" lon="2.2071">
        <ele>56.4</ele>
        <time>2021-11-13 11:02:35</time>
      </trkpt>
      <trkpt lat="41.50558" lon="2.20703">
        <ele>56.6</ele>
        <time>2021-11-13 11:02:36</time>
      </trkpt>
      <trkpt lat="41.50551" lon="2.20694">
        <ele>56.2</ele>
        <time>2021-11-13 11:02:37</time>
      </trkpt>
      <trkpt lat="41.50545" lon="2.20685">
        <ele>56.2</ele>
        <time>2021-11-13 11:02:38</time>
      </trkpt>
      <trkpt lat="41.50541" lon="2.20675">
        <ele>56.2</ele>
        <time>2021-11-13 11:02:39</time>
      </trkpt>
      <trkpt lat="41.50537" lon="2.20667">
        <ele>56.2</ele>
        <time>2021-11-13 11:02:40</time>
      </trkpt>
      <trkpt lat="41.50532" lon="2.20655">
        <ele>56.2</ele>
        <time>2021-11-13 11:02:41</time>
      </trkpt>
      <trkpt lat="41.50528" lon="2.20646">
        <ele>56.2</ele>
        <time>2021-11-13 11:02:42</time>
      </trkpt>
      <trkpt lat="41.50523" lon="2.20636">
        <ele>56</ele>
        <time>2021-11-13 11:02:43</time>
      </trkpt>
      <trkpt lat="41.50518" lon="2.20627">
        <ele>56</ele>
        <time>2021-11-13 11:02:44</time>
      </trkpt>
      <trkpt lat="41.50512" lon="2.20619">
        <ele>56</ele>
        <time>2021-11-13 11:02:45</time>
      </trkpt>
      <trkpt lat="41.50508" lon="2.20611">
        <ele>56</ele>
        <time>2021-11-13 11:02:46</time>
      </trkpt>
      <trkpt lat="41.50502" lon="2.20603">
        <ele>56</ele>
        <time>2021-11-13 11:02:47</time>
      </trkpt>
      <trkpt lat="41.50496" lon="2.20592">
        <ele>56</ele>
        <time>2021-11-13 11:02:48</time>
      </trkpt>
      <trkpt lat="41.5049" lon="2.20584">
        <ele>56.2</ele>
        <time>2021-11-13 11:02:49</time>
      </trkpt>
      <trkpt lat="41.50484" lon="2.20576">
        <ele>56</ele>
        <time>2021-11-13 11:02:50</time>
      </trkpt>
      <trkpt lat="41.50479" lon="2.2057">
        <ele>56</ele>
        <time>2021-11-13 11:02:51</time>
      </trkpt>
      <trkpt lat="41.50472" lon="2.20563">
        <ele>56</ele>
        <time>2021-11-13 11:02:52</time>
      </trkpt>
      <trkpt lat="41.50465" lon="2.20556">
        <ele>56</ele>
        <time>2021-11-13 11:02:53</time>
      </trkpt>
      <trkpt lat="41.50457" lon="2.20549">
        <ele>56</ele>
        <time>2021-11-13 11:02:54</time>
      </trkpt>
      <trkpt lat="41.50451" lon="2.20544">
        <ele>56</ele>
        <time>2021-11-13 11:02:55</time>
      </trkpt>
      <trkpt lat="41.50443" lon="2.20538">
        <ele>56</ele>
        <time>2021-11-13 11:02:56</time>
      </trkpt>
      <trkpt lat="41.50436" lon="2.20534">
        <ele>56</ele>
        <time>2021-11-13 11:02:57</time>
      </trkpt>
      <trkpt lat="41.50428" lon="2.20529">
        <ele>56</ele>
        <time>2021-11-13 11:02:58</time>
      </trkpt>
      <trkpt lat="41.5042" lon="2.20526">
        <ele>56</ele>
        <time>2021-11-13 11:02:59</time>
      </trkpt>
      <trkpt lat="41.5041" lon="2.20521">
        <ele>56</ele>
        <time>2021-11-13 11:03:00</time>
      </trkpt>
      <trkpt lat="41.50404" lon="2.20518">
        <ele>56</ele>
        <time>2021-11-13 11:03:01</time>
      </trkpt>
      <trkpt lat="41.50396" lon="2.20515">
        <ele>56</ele>
        <time>2021-11-13 11:03:02</time>
      </trkpt>
      <trkpt lat="41.50388" lon="2.20513">
        <ele>56</ele>
        <time>2021-11-13 11:03:03</time>
      </trkpt>
      <trkpt lat="41.5038" lon="2.20511">
        <ele>56</ele>
        <time>2021-11-13 11:03:04</time>
      </trkpt>
      <trkpt lat="41.50372" lon="2.20508">
        <ele>56</ele>
        <time>2021-11-13 11:03:05</time>
      </trkpt>
      <trkpt lat="41.50365" lon="2.20504">
        <ele>56</ele>
        <time>2021-11-13 11:03:06</time>
      </trkpt>
      <trkpt lat="41.50358" lon="2.20497">
        <ele>56</ele>
        <time>2021-11-13 11:03:07</time>
      </trkpt>
      <trkpt lat="41.50352" lon="2.2049">
        <ele>56</ele>
        <time>2021-11-13 11:03:08</time>
      </trkpt>
      <trkpt lat="41.50345" lon="2.20485">
        <ele>55.8</ele>
        <time>2021-11-13 11:03:09</time>
      </trkpt>
      <trkpt lat="41.50337" lon="2.20481">
        <ele>55.6</ele>
        <time>2021-11-13 11:03:10</time>
      </trkpt>
      <trkpt lat="41.50329" lon="2.20479">
        <ele>55.4</ele>
        <time>2021-11-13 11:03:11</time>
      </trkpt>
      <trkpt lat="41.50321" lon="2.20477">
        <ele>55.4</ele>
        <time>2021-11-13 11:03:12</time>
      </trkpt>
      <trkpt lat="41.50314" lon="2.20473">
        <ele>55.2</ele>
        <time>2021-11-13 11:03:13</time>
      </trkpt>
      <trkpt lat="41.50306" lon="2.20468">
        <ele>55.2</ele>
        <time>2021-11-13 11:03:14</time>
      </trkpt>
      <trkpt lat="41.50299" lon="2.20462">
        <ele>55.2</ele>
        <time>2021-11-13 11:03:15</time>
      </trkpt>
      <trkpt lat="41.50291" lon="2.20457">
        <ele>55.2</ele>
        <time>2021-11-13 11:03:16</time>
      </trkpt>
      <trkpt lat="41.50283" lon="2.20453">
        <ele>55.2</ele>
        <time>2021-11-13 11:03:17</time>
      </trkpt>
      <trkpt lat="41.50275" lon="2.20449">
        <ele>55.2</ele>
        <time>2021-11-13 11:03:18</time>
      </trkpt>
      <trkpt lat="41.50267" lon="2.20445">
        <ele>55</ele>
        <time>2021-11-13 11:03:19</time>
      </trkpt>
      <trkpt lat="41.50258" lon="2.2044">
        <ele>55</ele>
        <time>2021-11-13 11:03:20</time>
      </trkpt>
      <trkpt lat="41.50249" lon="2.20436">
        <ele>55</ele>
        <time>2021-11-13 11:03:21</time>
      </trkpt>
      <trkpt lat="41.50241" lon="2.20432">
        <ele>55.2</ele>
        <time>2021-11-13 11:03:22</time>
      </trkpt>
      <trkpt lat="41.50235" lon="2.20429">
        <ele>55</ele>
        <time>2021-11-13 11:03:23</time>
      </trkpt>
      <trkpt lat="41.50226" lon="2.20425">
        <ele>55</ele>
        <time>2021-11-13 11:03:24</time>
      </trkpt>
      <trkpt lat="41.50218" lon="2.20421">
        <ele>54.8</ele>
        <time>2021-11-13 11:03:25</time>
      </trkpt>
      <trkpt lat="41.502" lon="2.20412">
        <ele>54.8</ele>
        <time>2021-11-13 11:03:26</time>
      </trkpt>
      <trkpt lat="41.50193" lon="2.20409">
        <ele>54.8</ele>
        <time>2021-11-13 11:03:27</time>
      </trkpt>
      <trkpt lat="41.50185" lon="2.20404">
        <ele>54.6</ele>
        <time>2021-11-13 11:03:28</time>
      </trkpt>
      <trkpt lat="41.50177" lon="2.204">
        <ele>54.6</ele>
        <time>2021-11-13 11:03:29</time>
      </trkpt>
      <trkpt lat="41.50177" lon="2.204">
        <ele>54.4</ele>
        <time>2021-11-13 11:03:30</time>
      </trkpt>
      <trkpt lat="41.50167" lon="2.20395">
        <ele>54.4</ele>
        <time>2021-11-13 11:03:31</time>
      </trkpt>
      <trkpt lat="41.50152" lon="2.20387">
        <ele>54.4</ele>
        <time>2021-11-13 11:03:32</time>
      </trkpt>
      <trkpt lat="41.50144" lon="2.20383">
        <ele>54.2</ele>
        <time>2021-11-13 11:03:33</time>
      </trkpt>
      <trkpt lat="41.50137" lon="2.20378">
        <ele>54.2</ele>
        <time>2021-11-13 11:03:34</time>
      </trkpt>
      <trkpt lat="41.50137" lon="2.20378">
        <ele>54.2</ele>
        <time>2021-11-13 11:03:35</time>
      </trkpt>
      <trkpt lat="41.5012" lon="2.20365">
        <ele>54</ele>
        <time>2021-11-13 11:03:36</time>
      </trkpt>
      <trkpt lat="41.50114" lon="2.20359">
        <ele>54</ele>
        <time>2021-11-13 11:03:37</time>
      </trkpt>
      <trkpt lat="41.50108" lon="2.2035">
        <ele>54</ele>
        <time>2021-11-13 11:03:38</time>
      </trkpt>
      <trkpt lat="41.50101" lon="2.20342">
        <ele>54</ele>
        <time>2021-11-13 11:03:39</time>
      </trkpt>
      <trkpt lat="41.50101" lon="2.20342">
        <ele>54</ele>
        <time>2021-11-13 11:03:40</time>
      </trkpt>
      <trkpt lat="41.50089" lon="2.20321">
        <ele>54</ele>
        <time>2021-11-13 11:03:41</time>
      </trkpt>
      <trkpt lat="41.50084" lon="2.20311">
        <ele>54</ele>
        <time>2021-11-13 11:03:42</time>
      </trkpt>
      <trkpt lat="41.50081" lon="2.20302">
        <ele>54</ele>
        <time>2021-11-13 11:03:43</time>
      </trkpt>
      <trkpt lat="41.50081" lon="2.20302">
        <ele>54</ele>
        <time>2021-11-13 11:03:44</time>
      </trkpt>
      <trkpt lat="41.50077" lon="2.20292">
        <ele>54</ele>
        <time>2021-11-13 11:03:45</time>
      </trkpt>
      <trkpt lat="41.50069" lon="2.2027">
        <ele>54</ele>
        <time>2021-11-13 11:03:46</time>
      </trkpt>
      <trkpt lat="41.50066" lon="2.20259">
        <ele>53.8</ele>
        <time>2021-11-13 11:03:47</time>
      </trkpt>
      <trkpt lat="41.50062" lon="2.20249">
        <ele>53.8</ele>
        <time>2021-11-13 11:03:48</time>
      </trkpt>
      <trkpt lat="41.50062" lon="2.20249">
        <ele>53.8</ele>
        <time>2021-11-13 11:03:49</time>
      </trkpt>
      <trkpt lat="41.50055" lon="2.20226">
        <ele>53.8</ele>
        <time>2021-11-13 11:03:50</time>
      </trkpt>
      <trkpt lat="41.50055" lon="2.20226">
        <ele>53.8</ele>
        <time>2021-11-13 11:03:51</time>
      </trkpt>
      <trkpt lat="41.50051" lon="2.20215">
        <ele>53.8</ele>
        <time>2021-11-13 11:03:52</time>
      </trkpt>
      <trkpt lat="41.50044" lon="2.20194">
        <ele>53.6</ele>
        <time>2021-11-13 11:03:53</time>
      </trkpt>
      <trkpt lat="41.50044" lon="2.20194">
        <ele>53.6</ele>
        <time>2021-11-13 11:03:54</time>
      </trkpt>
      <trkpt lat="41.50037" lon="2.20171">
        <ele>53.4</ele>
        <time>2021-11-13 11:03:55</time>
      </trkpt>
      <trkpt lat="41.50037" lon="2.20171">
        <ele>53.4</ele>
        <time>2021-11-13 11:03:56</time>
      </trkpt>
      <trkpt lat="41.50029" lon="2.20148">
        <ele>53.2</ele>
        <time>2021-11-13 11:03:57</time>
      </trkpt>
      <trkpt lat="41.50029" lon="2.20148">
        <ele>53.2</ele>
        <time>2021-11-13 11:03:58</time>
      </trkpt>
      <trkpt lat="41.50023" lon="2.20128">
        <ele>53</ele>
        <time>2021-11-13 11:03:59</time>
      </trkpt>
      <trkpt lat="41.5002" lon="2.20118">
        <ele>53</ele>
        <time>2021-11-13 11:04:00</time>
      </trkpt>
      <trkpt lat="41.5002" lon="2.20118">
        <ele>52.8</ele>
        <time>2021-11-13 11:04:01</time>
      </trkpt>
      <trkpt lat="41.50014" lon="2.20094">
        <ele>52.8</ele>
        <time>2021-11-13 11:04:02</time>
      </trkpt>
      <trkpt lat="41.5001" lon="2.20084">
        <ele>52.8</ele>
        <time>2021-11-13 11:04:03</time>
      </trkpt>
      <trkpt lat="41.50007" lon="2.20073">
        <ele>52.6</ele>
        <time>2021-11-13 11:04:04</time>
      </trkpt>
      <trkpt lat="41.50005" lon="2.20064">
        <ele>52.6</ele>
        <time>2021-11-13 11:04:05</time>
      </trkpt>
      <trkpt lat="41.50001" lon="2.20051">
        <ele>52.4</ele>
        <time>2021-11-13 11:04:06</time>
      </trkpt>
      <trkpt lat="41.49998" lon="2.20041">
        <ele>52.4</ele>
        <time>2021-11-13 11:04:07</time>
      </trkpt>
      <trkpt lat="41.49994" lon="2.2003">
        <ele>52.4</ele>
        <time>2021-11-13 11:04:08</time>
      </trkpt>
      <trkpt lat="41.49991" lon="2.20019">
        <ele>52.4</ele>
        <time>2021-11-13 11:04:09</time>
      </trkpt>
      <trkpt lat="41.49988" lon="2.20011">
        <ele>52.4</ele>
        <time>2021-11-13 11:04:10</time>
      </trkpt>
      <trkpt lat="41.49984" lon="2.2">
        <ele>52.4</ele>
        <time>2021-11-13 11:04:11</time>
      </trkpt>
      <trkpt lat="41.49984" lon="2.2">
        <ele>52.4</ele>
        <time>2021-11-13 11:04:12</time>
      </trkpt>
      <trkpt lat="41.49975" lon="2.19978">
        <ele>52.4</ele>
        <time>2021-11-13 11:04:13</time>
      </trkpt>
      <trkpt lat="41.49975" lon="2.19978">
        <ele>52.4</ele>
        <time>2021-11-13 11:04:14</time>
      </trkpt>
      <trkpt lat="41.49966" lon="2.1996">
        <ele>52.4</ele>
        <time>2021-11-13 11:04:15</time>
      </trkpt>
      <trkpt lat="41.49966" lon="2.1996">
        <ele>52.4</ele>
        <time>2021-11-13 11:04:16</time>
      </trkpt>
      <trkpt lat="41.49961" lon="2.19951">
        <ele>52.4</ele>
        <time>2021-11-13 11:04:17</time>
      </trkpt>
      <trkpt lat="41.49949" lon="2.19933">
        <ele>52.4</ele>
        <time>2021-11-13 11:04:18</time>
      </trkpt>
      <trkpt lat="41.49949" lon="2.19933">
        <ele>52.4</ele>
        <time>2021-11-13 11:04:19</time>
      </trkpt>
      <trkpt lat="41.49935" lon="2.19917">
        <ele>52.4</ele>
        <time>2021-11-13 11:04:20</time>
      </trkpt>
      <trkpt lat="41.49935" lon="2.19917">
        <ele>52.4</ele>
        <time>2021-11-13 11:04:21</time>
      </trkpt>
      <trkpt lat="41.49921" lon="2.19903">
        <ele>52.4</ele>
        <time>2021-11-13 11:04:22</time>
      </trkpt>
      <trkpt lat="41.49913" lon="2.19898">
        <ele>52.4</ele>
        <time>2021-11-13 11:04:23</time>
      </trkpt>
      <trkpt lat="41.49904" lon="2.19891">
        <ele>52.4</ele>
        <time>2021-11-13 11:04:24</time>
      </trkpt>
      <trkpt lat="41.49897" lon="2.19888">
        <ele>52.4</ele>
        <time>2021-11-13 11:04:25</time>
      </trkpt>
      <trkpt lat="41.49889" lon="2.19884">
        <ele>52.4</ele>
        <time>2021-11-13 11:04:26</time>
      </trkpt>
      <trkpt lat="41.49881" lon="2.19881">
        <ele>52.4</ele>
        <time>2021-11-13 11:04:27</time>
      </trkpt>
      <trkpt lat="41.49881" lon="2.19881">
        <ele>52.4</ele>
        <time>2021-11-13 11:04:28</time>
      </trkpt>
      <trkpt lat="41.49862" lon="2.19876">
        <ele>52.6</ele>
        <time>2021-11-13 11:04:29</time>
      </trkpt>
      <trkpt lat="41.49853" lon="2.19875">
        <ele>52.6</ele>
        <time>2021-11-13 11:04:30</time>
      </trkpt>
      <trkpt lat="41.49846" lon="2.19876">
        <ele>52.6</ele>
        <time>2021-11-13 11:04:31</time>
      </trkpt>
      <trkpt lat="41.49846" lon="2.19876">
        <ele>52.6</ele>
        <time>2021-11-13 11:04:32</time>
      </trkpt>
      <trkpt lat="41.49837" lon="2.19877">
        <ele>52.6</ele>
        <time>2021-11-13 11:04:33</time>
      </trkpt>
      <trkpt lat="41.49819" lon="2.19883">
        <ele>52.6</ele>
        <time>2021-11-13 11:04:34</time>
      </trkpt>
      <trkpt lat="41.4981" lon="2.19887">
        <ele>52.6</ele>
        <time>2021-11-13 11:04:35</time>
      </trkpt>
      <trkpt lat="41.498" lon="2.19892">
        <ele>52.6</ele>
        <time>2021-11-13 11:04:36</time>
      </trkpt>
      <trkpt lat="41.49793" lon="2.19895">
        <ele>52.6</ele>
        <time>2021-11-13 11:04:37</time>
      </trkpt>
      <trkpt lat="41.49783" lon="2.19897">
        <ele>52.6</ele>
        <time>2021-11-13 11:04:38</time>
      </trkpt>
      <trkpt lat="41.49774" lon="2.19898">
        <ele>52.4</ele>
        <time>2021-11-13 11:04:39</time>
      </trkpt>
      <trkpt lat="41.49763" lon="2.19897">
        <ele>52.4</ele>
        <time>2021-11-13 11:04:40</time>
      </trkpt>
      <trkpt lat="41.49756" lon="2.19896">
        <ele>52.4</ele>
        <time>2021-11-13 11:04:41</time>
      </trkpt>
      <trkpt lat="41.49748" lon="2.19895">
        <ele>52.4</ele>
        <time>2021-11-13 11:04:42</time>
      </trkpt>
      <trkpt lat="41.49739" lon="2.19894">
        <ele>52.2</ele>
        <time>2021-11-13 11:04:43</time>
      </trkpt>
      <trkpt lat="41.4973" lon="2.19893">
        <ele>52.2</ele>
        <time>2021-11-13 11:04:44</time>
      </trkpt>
      <trkpt lat="41.49721" lon="2.19893">
        <ele>52.2</ele>
        <time>2021-11-13 11:04:45</time>
      </trkpt>
      <trkpt lat="41.49713" lon="2.19893">
        <ele>52.2</ele>
        <time>2021-11-13 11:04:46</time>
      </trkpt>
      <trkpt lat="41.49704" lon="2.19894">
        <ele>52.2</ele>
        <time>2021-11-13 11:04:47</time>
      </trkpt>
      <trkpt lat="41.49695" lon="2.19897">
        <ele>52.2</ele>
        <time>2021-11-13 11:04:48</time>
      </trkpt>
      <trkpt lat="41.49695" lon="2.19897">
        <ele>52.2</ele>
        <time>2021-11-13 11:04:49</time>
      </trkpt>
      <trkpt lat="41.49678" lon="2.19902">
        <ele>52.2</ele>
        <time>2021-11-13 11:04:50</time>
      </trkpt>
      <trkpt lat="41.49668" lon="2.19904">
        <ele>52.2</ele>
        <time>2021-11-13 11:04:51</time>
      </trkpt>
      <trkpt lat="41.49661" lon="2.19907">
        <ele>52.2</ele>
        <time>2021-11-13 11:04:52</time>
      </trkpt>
      <trkpt lat="41.49652" lon="2.1991">
        <ele>52.2</ele>
        <time>2021-11-13 11:04:53</time>
      </trkpt>
      <trkpt lat="41.49643" lon="2.19912">
        <ele>52.2</ele>
        <time>2021-11-13 11:04:54</time>
      </trkpt>
      <trkpt lat="41.49633" lon="2.19914">
        <ele>52.2</ele>
        <time>2021-11-13 11:04:55</time>
      </trkpt>
      <trkpt lat="41.49624" lon="2.19913">
        <ele>52.2</ele>
        <time>2021-11-13 11:04:56</time>
      </trkpt>
      <trkpt lat="41.49624" lon="2.19913">
        <ele>52.2</ele>
        <time>2021-11-13 11:04:57</time>
      </trkpt>
      <trkpt lat="41.49609" lon="2.19907">
        <ele>52.2</ele>
        <time>2021-11-13 11:04:58</time>
      </trkpt>
      <trkpt lat="41.49601" lon="2.19902">
        <ele>52.2</ele>
        <time>2021-11-13 11:04:59</time>
      </trkpt>
      <trkpt lat="41.49594" lon="2.19896">
        <ele>52.2</ele>
        <time>2021-11-13 11:05:00</time>
      </trkpt>
      <trkpt lat="41.49587" lon="2.19888">
        <ele>52.2</ele>
        <time>2021-11-13 11:05:01</time>
      </trkpt>
      <trkpt lat="41.49581" lon="2.1988">
        <ele>52.2</ele>
        <time>2021-11-13 11:05:02</time>
      </trkpt>
      <trkpt lat="41.49574" lon="2.19872">
        <ele>52.2</ele>
        <time>2021-11-13 11:05:03</time>
      </trkpt>
      <trkpt lat="41.49568" lon="2.19863">
        <ele>52</ele>
        <time>2021-11-13 11:05:04</time>
      </trkpt>
      <trkpt lat="41.49568" lon="2.19863">
        <ele>52</ele>
        <time>2021-11-13 11:05:05</time>
      </trkpt>
      <trkpt lat="41.49555" lon="2.19847">
        <ele>52</ele>
        <time>2021-11-13 11:05:06</time>
      </trkpt>
      <trkpt lat="41.49548" lon="2.19837">
        <ele>51.8</ele>
        <time>2021-11-13 11:05:07</time>
      </trkpt>
      <trkpt lat="41.49543" lon="2.19831">
        <ele>51.8</ele>
        <time>2021-11-13 11:05:08</time>
      </trkpt>
      <trkpt lat="41.49536" lon="2.19823">
        <ele>51.6</ele>
        <time>2021-11-13 11:05:09</time>
      </trkpt>
      <trkpt lat="41.4953" lon="2.19814">
        <ele>51.6</ele>
        <time>2021-11-13 11:05:10</time>
      </trkpt>
      <trkpt lat="41.49522" lon="2.19804">
        <ele>51.6</ele>
        <time>2021-11-13 11:05:11</time>
      </trkpt>
      <trkpt lat="41.49515" lon="2.19796">
        <ele>51.6</ele>
        <time>2021-11-13 11:05:12</time>
      </trkpt>
      <trkpt lat="41.4951" lon="2.19789">
        <ele>51.6</ele>
        <time>2021-11-13 11:05:13</time>
      </trkpt>
      <trkpt lat="41.49504" lon="2.1978">
        <ele>51.6</ele>
        <time>2021-11-13 11:05:14</time>
      </trkpt>
      <trkpt lat="41.49497" lon="2.19772">
        <ele>51.4</ele>
        <time>2021-11-13 11:05:15</time>
      </trkpt>
      <trkpt lat="41.49488" lon="2.19761">
        <ele>51.4</ele>
        <time>2021-11-13 11:05:16</time>
      </trkpt>
      <trkpt lat="41.49482" lon="2.19753">
        <ele>51.4</ele>
        <time>2021-11-13 11:05:17</time>
      </trkpt>
      <trkpt lat="41.49475" lon="2.19744">
        <ele>51.4</ele>
        <time>2021-11-13 11:05:18</time>
      </trkpt>
      <trkpt lat="41.49468" lon="2.19735">
        <ele>51.2</ele>
        <time>2021-11-13 11:05:19</time>
      </trkpt>
      <trkpt lat="41.49463" lon="2.19728">
        <ele>51.2</ele>
        <time>2021-11-13 11:05:20</time>
      </trkpt>
      <trkpt lat="41.49463" lon="2.19728">
        <ele>51.2</ele>
        <time>2021-11-13 11:05:21</time>
      </trkpt>
      <trkpt lat="41.49447" lon="2.19709">
        <ele>51.2</ele>
        <time>2021-11-13 11:05:22</time>
      </trkpt>
      <trkpt lat="41.4944" lon="2.19701">
        <ele>51.2</ele>
        <time>2021-11-13 11:05:23</time>
      </trkpt>
      <trkpt lat="41.49434" lon="2.19695">
        <ele>51.2</ele>
        <time>2021-11-13 11:05:24</time>
      </trkpt>
      <trkpt lat="41.49425" lon="2.19686">
        <ele>51.2</ele>
        <time>2021-11-13 11:05:25</time>
      </trkpt>
      <trkpt lat="41.49417" lon="2.19679">
        <ele>51.2</ele>
        <time>2021-11-13 11:05:26</time>
      </trkpt>
      <trkpt lat="41.49409" lon="2.19673">
        <ele>51</ele>
        <time>2021-11-13 11:05:27</time>
      </trkpt>
      <trkpt lat="41.494" lon="2.19666">
        <ele>51</ele>
        <time>2021-11-13 11:05:28</time>
      </trkpt>
      <trkpt lat="41.49393" lon="2.19661">
        <ele>51</ele>
        <time>2021-11-13 11:05:29</time>
      </trkpt>
      <trkpt lat="41.49385" lon="2.19655">
        <ele>51</ele>
        <time>2021-11-13 11:05:30</time>
      </trkpt>
      <trkpt lat="41.49377" lon="2.1965">
        <ele>51</ele>
        <time>2021-11-13 11:05:31</time>
      </trkpt>
      <trkpt lat="41.49367" lon="2.19644">
        <ele>51</ele>
        <time>2021-11-13 11:05:32</time>
      </trkpt>
      <trkpt lat="41.49358" lon="2.1964">
        <ele>51</ele>
        <time>2021-11-13 11:05:33</time>
      </trkpt>
      <trkpt lat="41.49351" lon="2.19637">
        <ele>51</ele>
        <time>2021-11-13 11:05:34</time>
      </trkpt>
      <trkpt lat="41.49342" lon="2.19633">
        <ele>50.8</ele>
        <time>2021-11-13 11:05:35</time>
      </trkpt>
      <trkpt lat="41.49333" lon="2.19629">
        <ele>50.8</ele>
        <time>2021-11-13 11:05:36</time>
      </trkpt>
      <trkpt lat="41.49333" lon="2.19629">
        <ele>50.8</ele>
        <time>2021-11-13 11:05:37</time>
      </trkpt>
      <trkpt lat="41.49316" lon="2.19618">
        <ele>50.6</ele>
        <time>2021-11-13 11:05:38</time>
      </trkpt>
      <trkpt lat="41.49308" lon="2.19611">
        <ele>50.6</ele>
        <time>2021-11-13 11:05:39</time>
      </trkpt>
      <trkpt lat="41.49301" lon="2.19603">
        <ele>50.6</ele>
        <time>2021-11-13 11:05:40</time>
      </trkpt>
      <trkpt lat="41.49294" lon="2.19594">
        <ele>50.6</ele>
        <time>2021-11-13 11:05:41</time>
      </trkpt>
      <trkpt lat="41.49287" lon="2.19585">
        <ele>50.4</ele>
        <time>2021-11-13 11:05:42</time>
      </trkpt>
      <trkpt lat="41.49279" lon="2.19573">
        <ele>50.4</ele>
        <time>2021-11-13 11:05:43</time>
      </trkpt>
      <trkpt lat="41.49273" lon="2.19564">
        <ele>50.4</ele>
        <time>2021-11-13 11:05:44</time>
      </trkpt>
      <trkpt lat="41.49268" lon="2.19557">
        <ele>50.4</ele>
        <time>2021-11-13 11:05:45</time>
      </trkpt>
      <trkpt lat="41.49261" lon="2.19548">
        <ele>50.2</ele>
        <time>2021-11-13 11:05:46</time>
      </trkpt>
      <trkpt lat="41.49254" lon="2.19539">
        <ele>50.2</ele>
        <time>2021-11-13 11:05:47</time>
      </trkpt>
      <trkpt lat="41.49247" lon="2.19531">
        <ele>50.2</ele>
        <time>2021-11-13 11:05:48</time>
      </trkpt>
      <trkpt lat="41.49238" lon="2.19521">
        <ele>50.2</ele>
        <time>2021-11-13 11:05:49</time>
      </trkpt>
      <trkpt lat="41.49232" lon="2.19515">
        <ele>50.2</ele>
        <time>2021-11-13 11:05:50</time>
      </trkpt>
      <trkpt lat="41.49224" lon="2.19508">
        <ele>50</ele>
        <time>2021-11-13 11:05:51</time>
      </trkpt>
      <trkpt lat="41.49216" lon="2.19501">
        <ele>50</ele>
        <time>2021-11-13 11:05:52</time>
      </trkpt>
      <trkpt lat="41.49216" lon="2.19501">
        <ele>50</ele>
        <time>2021-11-13 11:05:53</time>
      </trkpt>
      <trkpt lat="41.49198" lon="2.19487">
        <ele>50</ele>
        <time>2021-11-13 11:05:54</time>
      </trkpt>
      <trkpt lat="41.4919" lon="2.1948">
        <ele>50</ele>
        <time>2021-11-13 11:05:55</time>
      </trkpt>
      <trkpt lat="41.49184" lon="2.19475">
        <ele>49.8</ele>
        <time>2021-11-13 11:05:56</time>
      </trkpt>
      <trkpt lat="41.49176" lon="2.19468">
        <ele>49.8</ele>
        <time>2021-11-13 11:05:57</time>
      </trkpt>
      <trkpt lat="41.49168" lon="2.19461">
        <ele>49.8</ele>
        <time>2021-11-13 11:05:58</time>
      </trkpt>
      <trkpt lat="41.49158" lon="2.19453">
        <ele>49.8</ele>
        <time>2021-11-13 11:05:59</time>
      </trkpt>
      <trkpt lat="41.49149" lon="2.19447">
        <ele>49.8</ele>
        <time>2021-11-13 11:06:00</time>
      </trkpt>
      <trkpt lat="41.49142" lon="2.19443">
        <ele>49.6</ele>
        <time>2021-11-13 11:06:01</time>
      </trkpt>
      <trkpt lat="41.49134" lon="2.19437">
        <ele>49.6</ele>
        <time>2021-11-13 11:06:02</time>
      </trkpt>
      <trkpt lat="41.49125" lon="2.19431">
        <ele>49.6</ele>
        <time>2021-11-13 11:06:03</time>
      </trkpt>
      <trkpt lat="41.49116" lon="2.19427">
        <ele>49.6</ele>
        <time>2021-11-13 11:06:04</time>
      </trkpt>
      <trkpt lat="41.49105" lon="2.19421">
        <ele>49.4</ele>
        <time>2021-11-13 11:06:05</time>
      </trkpt>
      <trkpt lat="41.49098" lon="2.19418">
        <ele>49.2</ele>
        <time>2021-11-13 11:06:06</time>
      </trkpt>
      <trkpt lat="41.49088" lon="2.19413">
        <ele>49.2</ele>
        <time>2021-11-13 11:06:07</time>
      </trkpt>
      <trkpt lat="41.49079" lon="2.19409">
        <ele>49</ele>
        <time>2021-11-13 11:06:08</time>
      </trkpt>
      <trkpt lat="41.49079" lon="2.19409">
        <ele>49</ele>
        <time>2021-11-13 11:06:09</time>
      </trkpt>
      <trkpt lat="41.49061" lon="2.19403">
        <ele>49</ele>
        <time>2021-11-13 11:06:10</time>
      </trkpt>
      <trkpt lat="41.49049" lon="2.194">
        <ele>48.8</ele>
        <time>2021-11-13 11:06:11</time>
      </trkpt>
      <trkpt lat="41.49042" lon="2.19398">
        <ele>48.8</ele>
        <time>2021-11-13 11:06:12</time>
      </trkpt>
      <trkpt lat="41.49032" lon="2.19397">
        <ele>48.8</ele>
        <time>2021-11-13 11:06:13</time>
      </trkpt>
      <trkpt lat="41.49022" lon="2.19395">
        <ele>48.8</ele>
        <time>2021-11-13 11:06:14</time>
      </trkpt>
      <trkpt lat="41.49011" lon="2.19393">
        <ele>48.6</ele>
        <time>2021-11-13 11:06:15</time>
      </trkpt>
      <trkpt lat="41.49003" lon="2.19392">
        <ele>48.6</ele>
        <time>2021-11-13 11:06:16</time>
      </trkpt>
      <trkpt lat="41.48993" lon="2.1939">
        <ele>48.6</ele>
        <time>2021-11-13 11:06:17</time>
      </trkpt>
      <trkpt lat="41.48984" lon="2.19389">
        <ele>48.6</ele>
        <time>2021-11-13 11:06:18</time>
      </trkpt>
      <trkpt lat="41.48975" lon="2.19387">
        <ele>48.6</ele>
        <time>2021-11-13 11:06:19</time>
      </trkpt>
      <trkpt lat="41.48965" lon="2.19385">
        <ele>48.6</ele>
        <time>2021-11-13 11:06:20</time>
      </trkpt>
      <trkpt lat="41.48956" lon="2.19384">
        <ele>48.6</ele>
        <time>2021-11-13 11:06:21</time>
      </trkpt>
      <trkpt lat="41.48946" lon="2.19382">
        <ele>48.6</ele>
        <time>2021-11-13 11:06:22</time>
      </trkpt>
      <trkpt lat="41.48936" lon="2.19381">
        <ele>48.6</ele>
        <time>2021-11-13 11:06:23</time>
      </trkpt>
      <trkpt lat="41.48927" lon="2.19379">
        <ele>48.6</ele>
        <time>2021-11-13 11:06:24</time>
      </trkpt>
      <trkpt lat="41.48927" lon="2.19379">
        <ele>48.6</ele>
        <time>2021-11-13 11:06:25</time>
      </trkpt>
      <trkpt lat="41.48906" lon="2.19377">
        <ele>48.6</ele>
        <time>2021-11-13 11:06:26</time>
      </trkpt>
      <trkpt lat="41.48897" lon="2.19379">
        <ele>48.6</ele>
        <time>2021-11-13 11:06:27</time>
      </trkpt>
      <trkpt lat="41.48889" lon="2.19382">
        <ele>48.6</ele>
        <time>2021-11-13 11:06:28</time>
      </trkpt>
      <trkpt lat="41.4888" lon="2.19385">
        <ele>48.4</ele>
        <time>2021-11-13 11:06:29</time>
      </trkpt>
      <trkpt lat="41.48871" lon="2.19388">
        <ele>48.4</ele>
        <time>2021-11-13 11:06:30</time>
      </trkpt>
      <trkpt lat="41.4886" lon="2.1939">
        <ele>48.4</ele>
        <time>2021-11-13 11:06:31</time>
      </trkpt>
      <trkpt lat="41.4885" lon="2.19391">
        <ele>48.4</ele>
        <time>2021-11-13 11:06:32</time>
      </trkpt>
      <trkpt lat="41.48842" lon="2.19391">
        <ele>48.4</ele>
        <time>2021-11-13 11:06:33</time>
      </trkpt>
      <trkpt lat="41.48833" lon="2.1939">
        <ele>48.4</ele>
        <time>2021-11-13 11:06:34</time>
      </trkpt>
      <trkpt lat="41.48823" lon="2.19388">
        <ele>48.4</ele>
        <time>2021-11-13 11:06:35</time>
      </trkpt>
      <trkpt lat="41.48814" lon="2.19386">
        <ele>48.2</ele>
        <time>2021-11-13 11:06:36</time>
      </trkpt>
      <trkpt lat="41.48803" lon="2.19383">
        <ele>48.2</ele>
        <time>2021-11-13 11:06:37</time>
      </trkpt>
      <trkpt lat="41.48793" lon="2.1938">
        <ele>48.2</ele>
        <time>2021-11-13 11:06:38</time>
      </trkpt>
      <trkpt lat="41.48786" lon="2.19378">
        <ele>48</ele>
        <time>2021-11-13 11:06:39</time>
      </trkpt>
      <trkpt lat="41.48776" lon="2.19375">
        <ele>48</ele>
        <time>2021-11-13 11:06:40</time>
      </trkpt>
      <trkpt lat="41.48776" lon="2.19375">
        <ele>48</ele>
        <time>2021-11-13 11:06:41</time>
      </trkpt>
      <trkpt lat="41.48755" lon="2.19368">
        <ele>48</ele>
        <time>2021-11-13 11:06:42</time>
      </trkpt>
      <trkpt lat="41.48746" lon="2.19365">
        <ele>48</ele>
        <time>2021-11-13 11:06:43</time>
      </trkpt>
      <trkpt lat="41.48738" lon="2.19363">
        <ele>48</ele>
        <time>2021-11-13 11:06:44</time>
      </trkpt>
      <trkpt lat="41.48727" lon="2.19359">
        <ele>48</ele>
        <time>2021-11-13 11:06:45</time>
      </trkpt>
      <trkpt lat="41.4872" lon="2.19357">
        <ele>48</ele>
        <time>2021-11-13 11:06:46</time>
      </trkpt>
      <trkpt lat="41.48708" lon="2.19353">
        <ele>48</ele>
        <time>2021-11-13 11:06:47</time>
      </trkpt>
      <trkpt lat="41.48698" lon="2.19351">
        <ele>48</ele>
        <time>2021-11-13 11:06:48</time>
      </trkpt>
      <trkpt lat="41.48698" lon="2.19351">
        <ele>48</ele>
        <time>2021-11-13 11:06:49</time>
      </trkpt>
      <trkpt lat="41.48678" lon="2.19345">
        <ele>48.2</ele>
        <time>2021-11-13 11:06:50</time>
      </trkpt>
      <trkpt lat="41.48668" lon="2.19341">
        <ele>48.2</ele>
        <time>2021-11-13 11:06:51</time>
      </trkpt>
      <trkpt lat="41.4866" lon="2.19339">
        <ele>48.2</ele>
        <time>2021-11-13 11:06:52</time>
      </trkpt>
      <trkpt lat="41.48648" lon="2.19333">
        <ele>48.2</ele>
        <time>2021-11-13 11:06:53</time>
      </trkpt>
      <trkpt lat="41.48638" lon="2.19328">
        <ele>48.2</ele>
        <time>2021-11-13 11:06:54</time>
      </trkpt>
      <trkpt lat="41.48629" lon="2.19322">
        <ele>48.2</ele>
        <time>2021-11-13 11:06:55</time>
      </trkpt>
      <trkpt lat="41.4862" lon="2.19316">
        <ele>48.2</ele>
        <time>2021-11-13 11:06:56</time>
      </trkpt>
      <trkpt lat="41.4862" lon="2.19316">
        <ele>48.2</ele>
        <time>2021-11-13 11:06:57</time>
      </trkpt>
      <trkpt lat="41.48602" lon="2.19303">
        <ele>48.2</ele>
        <time>2021-11-13 11:06:58</time>
      </trkpt>
      <trkpt lat="41.48592" lon="2.19298">
        <ele>48</ele>
        <time>2021-11-13 11:06:59</time>
      </trkpt>
      <trkpt lat="41.48583" lon="2.19293">
        <ele>48</ele>
        <time>2021-11-13 11:07:00</time>
      </trkpt>
      <trkpt lat="41.48573" lon="2.19289">
        <ele>48</ele>
        <time>2021-11-13 11:07:01</time>
      </trkpt>
      <trkpt lat="41.48563" lon="2.19286">
        <ele>48</ele>
        <time>2021-11-13 11:07:02</time>
      </trkpt>
      <trkpt lat="41.48553" lon="2.19282">
        <ele>48</ele>
        <time>2021-11-13 11:07:03</time>
      </trkpt>
      <trkpt lat="41.48543" lon="2.19279">
        <ele>47.8</ele>
        <time>2021-11-13 11:07:04</time>
      </trkpt>
      <trkpt lat="41.48533" lon="2.19276">
        <ele>47.8</ele>
        <time>2021-11-13 11:07:05</time>
      </trkpt>
      <trkpt lat="41.48523" lon="2.19274">
        <ele>47.8</ele>
        <time>2021-11-13 11:07:06</time>
      </trkpt>
      <trkpt lat="41.48513" lon="2.19271">
        <ele>47.8</ele>
        <time>2021-11-13 11:07:07</time>
      </trkpt>
      <trkpt lat="41.48504" lon="2.19268">
        <ele>47.8</ele>
        <time>2021-11-13 11:07:08</time>
      </trkpt>
      <trkpt lat="41.48495" lon="2.19266">
        <ele>47.8</ele>
        <time>2021-11-13 11:07:09</time>
      </trkpt>
      <trkpt lat="41.48485" lon="2.19264">
        <ele>47.8</ele>
        <time>2021-11-13 11:07:10</time>
      </trkpt>
      <trkpt lat="41.48476" lon="2.19263">
        <ele>47.6</ele>
        <time>2021-11-13 11:07:11</time>
      </trkpt>
      <trkpt lat="41.48467" lon="2.19262">
        <ele>47.6</ele>
        <time>2021-11-13 11:07:12</time>
      </trkpt>
      <trkpt lat="41.48467" lon="2.19262">
        <ele>47.6</ele>
        <time>2021-11-13 11:07:13</time>
      </trkpt>
      <trkpt lat="41.48448" lon="2.19262">
        <ele>47.6</ele>
        <time>2021-11-13 11:07:14</time>
      </trkpt>
      <trkpt lat="41.48439" lon="2.19262">
        <ele>47.4</ele>
        <time>2021-11-13 11:07:15</time>
      </trkpt>
      <trkpt lat="41.48432" lon="2.19263">
        <ele>47.4</ele>
        <time>2021-11-13 11:07:16</time>
      </trkpt>
      <trkpt lat="41.48421" lon="2.19263">
        <ele>47.4</ele>
        <time>2021-11-13 11:07:17</time>
      </trkpt>
      <trkpt lat="41.48412" lon="2.19264">
        <ele>47.4</ele>
        <time>2021-11-13 11:07:18</time>
      </trkpt>
      <trkpt lat="41.48403" lon="2.19264">
        <ele>47.4</ele>
        <time>2021-11-13 11:07:19</time>
      </trkpt>
      <trkpt lat="41.48403" lon="2.19264">
        <ele>47.2</ele>
        <time>2021-11-13 11:07:20</time>
      </trkpt>
      <trkpt lat="41.48385" lon="2.19264">
        <ele>47.2</ele>
        <time>2021-11-13 11:07:21</time>
      </trkpt>
      <trkpt lat="41.48376" lon="2.19264">
        <ele>47</ele>
        <time>2021-11-13 11:07:22</time>
      </trkpt>
      <trkpt lat="41.48367" lon="2.19264">
        <ele>47</ele>
        <time>2021-11-13 11:07:23</time>
      </trkpt>
      <trkpt lat="41.48358" lon="2.19263">
        <ele>47</ele>
        <time>2021-11-13 11:07:24</time>
      </trkpt>
      <trkpt lat="41.48349" lon="2.19263">
        <ele>46.8</ele>
        <time>2021-11-13 11:07:25</time>
      </trkpt>
      <trkpt lat="41.48339" lon="2.19262">
        <ele>46.8</ele>
        <time>2021-11-13 11:07:26</time>
      </trkpt>
      <trkpt lat="41.48332" lon="2.19261">
        <ele>46.8</ele>
        <time>2021-11-13 11:07:27</time>
      </trkpt>
      <trkpt lat="41.48323" lon="2.1926">
        <ele>46.8</ele>
        <time>2021-11-13 11:07:28</time>
      </trkpt>
      <trkpt lat="41.48311" lon="2.19258">
        <ele>46.6</ele>
        <time>2021-11-13 11:07:29</time>
      </trkpt>
      <trkpt lat="41.48302" lon="2.19256">
        <ele>46.6</ele>
        <time>2021-11-13 11:07:30</time>
      </trkpt>
      <trkpt lat="41.48293" lon="2.19253">
        <ele>46.4</ele>
        <time>2021-11-13 11:07:31</time>
      </trkpt>
      <trkpt lat="41.48285" lon="2.19249">
        <ele>46.4</ele>
        <time>2021-11-13 11:07:32</time>
      </trkpt>
      <trkpt lat="41.48278" lon="2.19246">
        <ele>46.4</ele>
        <time>2021-11-13 11:07:33</time>
      </trkpt>
      <trkpt lat="41.48278" lon="2.19246">
        <ele>46.4</ele>
        <time>2021-11-13 11:07:34</time>
      </trkpt>
      <trkpt lat="41.4826" lon="2.19239">
        <ele>46.4</ele>
        <time>2021-11-13 11:07:35</time>
      </trkpt>
      <trkpt lat="41.48251" lon="2.19238">
        <ele>46.4</ele>
        <time>2021-11-13 11:07:36</time>
      </trkpt>
      <trkpt lat="41.48244" lon="2.19237">
        <ele>46.4</ele>
        <time>2021-11-13 11:07:37</time>
      </trkpt>
      <trkpt lat="41.48236" lon="2.19236">
        <ele>46.4</ele>
        <time>2021-11-13 11:07:38</time>
      </trkpt>
      <trkpt lat="41.48228" lon="2.19234">
        <ele>46.4</ele>
        <time>2021-11-13 11:07:39</time>
      </trkpt>
      <trkpt lat="41.48217" lon="2.19232">
        <ele>46.4</ele>
        <time>2021-11-13 11:07:40</time>
      </trkpt>
      <trkpt lat="41.48209" lon="2.19231">
        <ele>46.4</ele>
        <time>2021-11-13 11:07:41</time>
      </trkpt>
      <trkpt lat="41.482" lon="2.19229">
        <ele>46.4</ele>
        <time>2021-11-13 11:07:42</time>
      </trkpt>
      <trkpt lat="41.48193" lon="2.19228">
        <ele>46.4</ele>
        <time>2021-11-13 11:07:43</time>
      </trkpt>
      <trkpt lat="41.48185" lon="2.19227">
        <ele>46.4</ele>
        <time>2021-11-13 11:07:44</time>
      </trkpt>
      <trkpt lat="41.48174" lon="2.19225">
        <ele>46.2</ele>
        <time>2021-11-13 11:07:45</time>
      </trkpt>
      <trkpt lat="41.48166" lon="2.19224">
        <ele>46.2</ele>
        <time>2021-11-13 11:07:46</time>
      </trkpt>
      <trkpt lat="41.48157" lon="2.19223">
        <ele>46.2</ele>
        <time>2021-11-13 11:07:47</time>
      </trkpt>
      <trkpt lat="41.4815" lon="2.19222">
        <ele>46.2</ele>
        <time>2021-11-13 11:07:48</time>
      </trkpt>
      <trkpt lat="41.48141" lon="2.19222">
        <ele>46.2</ele>
        <time>2021-11-13 11:07:49</time>
      </trkpt>
      <trkpt lat="41.48141" lon="2.19222">
        <ele>46.2</ele>
        <time>2021-11-13 11:07:50</time>
      </trkpt>
      <trkpt lat="41.48122" lon="2.19222">
        <ele>46.2</ele>
        <time>2021-11-13 11:07:51</time>
      </trkpt>
      <trkpt lat="41.48122" lon="2.19222">
        <ele>46.2</ele>
        <time>2021-11-13 11:07:52</time>
      </trkpt>
      <trkpt lat="41.48106" lon="2.19222">
        <ele>46.2</ele>
        <time>2021-11-13 11:07:53</time>
      </trkpt>
      <trkpt lat="41.48098" lon="2.19222">
        <ele>46.2</ele>
        <time>2021-11-13 11:07:54</time>
      </trkpt>
      <trkpt lat="41.48089" lon="2.19223">
        <ele>46.2</ele>
        <time>2021-11-13 11:07:55</time>
      </trkpt>
      <trkpt lat="41.48078" lon="2.19223">
        <ele>46.2</ele>
        <time>2021-11-13 11:07:56</time>
      </trkpt>
      <trkpt lat="41.48069" lon="2.19223">
        <ele>46.2</ele>
        <time>2021-11-13 11:07:57</time>
      </trkpt>
      <trkpt lat="41.48061" lon="2.19224">
        <ele>46.2</ele>
        <time>2021-11-13 11:07:58</time>
      </trkpt>
      <trkpt lat="41.48052" lon="2.19224">
        <ele>46.2</ele>
        <time>2021-11-13 11:07:59</time>
      </trkpt>
      <trkpt lat="41.48044" lon="2.19224">
        <ele>46.2</ele>
        <time>2021-11-13 11:08:00</time>
      </trkpt>
      <trkpt lat="41.48044" lon="2.19224">
        <ele>46.2</ele>
        <time>2021-11-13 11:08:01</time>
      </trkpt>
      <trkpt lat="41.48024" lon="2.19225">
        <ele>46.2</ele>
        <time>2021-11-13 11:08:02</time>
      </trkpt>
      <trkpt lat="41.48015" lon="2.19225">
        <ele>46</ele>
        <time>2021-11-13 11:08:03</time>
      </trkpt>
      <trkpt lat="41.48008" lon="2.19226">
        <ele>46</ele>
        <time>2021-11-13 11:08:04</time>
      </trkpt>
      <trkpt lat="41.47998" lon="2.19226">
        <ele>46</ele>
        <time>2021-11-13 11:08:05</time>
      </trkpt>
      <trkpt lat="41.47989" lon="2.19227">
        <ele>46</ele>
        <time>2021-11-13 11:08:06</time>
      </trkpt>
      <trkpt lat="41.47979" lon="2.19227">
        <ele>46</ele>
        <time>2021-11-13 11:08:07</time>
      </trkpt>
      <trkpt lat="41.4797" lon="2.19227">
        <ele>46</ele>
        <time>2021-11-13 11:08:08</time>
      </trkpt>
      <trkpt lat="41.47963" lon="2.19227">
        <ele>46</ele>
        <time>2021-11-13 11:08:09</time>
      </trkpt>
      <trkpt lat="41.47954" lon="2.19228">
        <ele>45.8</ele>
        <time>2021-11-13 11:08:10</time>
      </trkpt>
      <trkpt lat="41.47945" lon="2.19228">
        <ele>45.8</ele>
        <time>2021-11-13 11:08:11</time>
      </trkpt>
      <trkpt lat="41.47935" lon="2.19226">
        <ele>45.8</ele>
        <time>2021-11-13 11:08:12</time>
      </trkpt>
      <trkpt lat="41.47927" lon="2.19223">
        <ele>45.8</ele>
        <time>2021-11-13 11:08:13</time>
      </trkpt>
      <trkpt lat="41.47918" lon="2.19222">
        <ele>45.8</ele>
        <time>2021-11-13 11:08:14</time>
      </trkpt>
      <trkpt lat="41.47912" lon="2.19224">
        <ele>45.6</ele>
        <time>2021-11-13 11:08:15</time>
      </trkpt>
      <trkpt lat="41.47904" lon="2.19228">
        <ele>45.6</ele>
        <time>2021-11-13 11:08:16</time>
      </trkpt>
      <trkpt lat="41.47895" lon="2.19233">
        <ele>45.6</ele>
        <time>2021-11-13 11:08:17</time>
      </trkpt>
      <trkpt lat="41.47887" lon="2.19237">
        <ele>45.6</ele>
        <time>2021-11-13 11:08:18</time>
      </trkpt>
      <trkpt lat="41.4788" lon="2.19242">
        <ele>45.6</ele>
        <time>2021-11-13 11:08:19</time>
      </trkpt>
      <trkpt lat="41.47874" lon="2.19246">
        <ele>45.6</ele>
        <time>2021-11-13 11:08:20</time>
      </trkpt>
      <trkpt lat="41.47866" lon="2.19251">
        <ele>45.6</ele>
        <time>2021-11-13 11:08:21</time>
      </trkpt>
      <trkpt lat="41.47859" lon="2.19256">
        <ele>45.8</ele>
        <time>2021-11-13 11:08:22</time>
      </trkpt>
      <trkpt lat="41.47851" lon="2.19262">
        <ele>45.8</ele>
        <time>2021-11-13 11:08:23</time>
      </trkpt>
      <trkpt lat="41.47851" lon="2.19262">
        <ele>45.8</ele>
        <time>2021-11-13 11:08:24</time>
      </trkpt>
      <trkpt lat="41.47838" lon="2.19272">
        <ele>45.8</ele>
        <time>2021-11-13 11:08:25</time>
      </trkpt>
      <trkpt lat="41.4783" lon="2.19279">
        <ele>45.8</ele>
        <time>2021-11-13 11:08:26</time>
      </trkpt>
      <trkpt lat="41.47824" lon="2.19286">
        <ele>45.8</ele>
        <time>2021-11-13 11:08:27</time>
      </trkpt>
      <trkpt lat="41.47818" lon="2.19294">
        <ele>45.8</ele>
        <time>2021-11-13 11:08:28</time>
      </trkpt>
      <trkpt lat="41.47813" lon="2.19302">
        <ele>45.8</ele>
        <time>2021-11-13 11:08:29</time>
      </trkpt>
      <trkpt lat="41.47808" lon="2.1931">
        <ele>45.8</ele>
        <time>2021-11-13 11:08:30</time>
      </trkpt>
      <trkpt lat="41.47804" lon="2.1932">
        <ele>46</ele>
        <time>2021-11-13 11:08:31</time>
      </trkpt>
      <trkpt lat="41.47801" lon="2.19327">
        <ele>46</ele>
        <time>2021-11-13 11:08:32</time>
      </trkpt>
      <trkpt lat="41.47796" lon="2.19339">
        <ele>46</ele>
        <time>2021-11-13 11:08:33</time>
      </trkpt>
      <trkpt lat="41.47793" lon="2.19349">
        <ele>46</ele>
        <time>2021-11-13 11:08:34</time>
      </trkpt>
      <trkpt lat="41.47789" lon="2.19358">
        <ele>46.4</ele>
        <time>2021-11-13 11:08:35</time>
      </trkpt>
      <trkpt lat="41.47786" lon="2.19366">
        <ele>46.4</ele>
        <time>2021-11-13 11:08:36</time>
      </trkpt>
      <trkpt lat="41.47782" lon="2.19375">
        <ele>46.2</ele>
        <time>2021-11-13 11:08:37</time>
      </trkpt>
      <trkpt lat="41.47778" lon="2.19384">
        <ele>46.4</ele>
        <time>2021-11-13 11:08:38</time>
      </trkpt>
      <trkpt lat="41.47773" lon="2.19395">
        <ele>46.4</ele>
        <time>2021-11-13 11:08:39</time>
      </trkpt>
      <trkpt lat="41.47768" lon="2.19403">
        <ele>46.6</ele>
        <time>2021-11-13 11:08:40</time>
      </trkpt>
      <trkpt lat="41.47765" lon="2.19409">
        <ele>46.6</ele>
        <time>2021-11-13 11:08:41</time>
      </trkpt>
      <trkpt lat="41.47759" lon="2.19418">
        <ele>46.8</ele>
        <time>2021-11-13 11:08:42</time>
      </trkpt>
      <trkpt lat="41.47754" lon="2.19425">
        <ele>46.8</ele>
        <time>2021-11-13 11:08:43</time>
      </trkpt>
      <trkpt lat="41.47749" lon="2.19432">
        <ele>46.8</ele>
        <time>2021-11-13 11:08:44</time>
      </trkpt>
      <trkpt lat="41.47744" lon="2.19439">
        <ele>47</ele>
        <time>2021-11-13 11:08:45</time>
      </trkpt>
      <trkpt lat="41.47738" lon="2.19445">
        <ele>47.2</ele>
        <time>2021-11-13 11:08:46</time>
      </trkpt>
      <trkpt lat="41.47734" lon="2.19449">
        <ele>47.4</ele>
        <time>2021-11-13 11:08:47</time>
      </trkpt>
      <trkpt lat="41.47727" lon="2.19453">
        <ele>47.4</ele>
        <time>2021-11-13 11:08:48</time>
      </trkpt>
      <trkpt lat="41.47719" lon="2.19456">
        <ele>47.6</ele>
        <time>2021-11-13 11:08:49</time>
      </trkpt>
      <trkpt lat="41.47712" lon="2.19458">
        <ele>47.8</ele>
        <time>2021-11-13 11:08:50</time>
      </trkpt>
      <trkpt lat="41.47706" lon="2.19458">
        <ele>48</ele>
        <time>2021-11-13 11:08:51</time>
      </trkpt>
      <trkpt lat="41.477" lon="2.19457">
        <ele>48.2</ele>
        <time>2021-11-13 11:08:52</time>
      </trkpt>
      <trkpt lat="41.47693" lon="2.19456">
        <ele>48.4</ele>
        <time>2021-11-13 11:08:53</time>
      </trkpt>
      <trkpt lat="41.47686" lon="2.19455">
        <ele>48.8</ele>
        <time>2021-11-13 11:08:54</time>
      </trkpt>
      <trkpt lat="41.47677" lon="2.19453">
        <ele>49</ele>
        <time>2021-11-13 11:08:55</time>
      </trkpt>
      <trkpt lat="41.4767" lon="2.19452">
        <ele>49.2</ele>
        <time>2021-11-13 11:08:56</time>
      </trkpt>
      <trkpt lat="41.47664" lon="2.19451">
        <ele>49.2</ele>
        <time>2021-11-13 11:08:57</time>
      </trkpt>
      <trkpt lat="41.47656" lon="2.1945">
        <ele>49.4</ele>
        <time>2021-11-13 11:08:58</time>
      </trkpt>
      <trkpt lat="41.47649" lon="2.19449">
        <ele>49.4</ele>
        <time>2021-11-13 11:08:59</time>
      </trkpt>
      <trkpt lat="41.4764" lon="2.19447">
        <ele>49.6</ele>
        <time>2021-11-13 11:09:00</time>
      </trkpt>
      <trkpt lat="41.47632" lon="2.19446">
        <ele>49.6</ele>
        <time>2021-11-13 11:09:01</time>
      </trkpt>
      <trkpt lat="41.47625" lon="2.19445">
        <ele>49.6</ele>
        <time>2021-11-13 11:09:02</time>
      </trkpt>
      <trkpt lat="41.47619" lon="2.19444">
        <ele>49.6</ele>
        <time>2021-11-13 11:09:03</time>
      </trkpt>
      <trkpt lat="41.47613" lon="2.19443">
        <ele>49.8</ele>
        <time>2021-11-13 11:09:04</time>
      </trkpt>
      <trkpt lat="41.47604" lon="2.19441">
        <ele>50</ele>
        <time>2021-11-13 11:09:05</time>
      </trkpt>
      <trkpt lat="41.47597" lon="2.1944">
        <ele>50</ele>
        <time>2021-11-13 11:09:06</time>
      </trkpt>
      <trkpt lat="41.47591" lon="2.19439">
        <ele>50.4</ele>
        <time>2021-11-13 11:09:07</time>
      </trkpt>
      <trkpt lat="41.47584" lon="2.19438">
        <ele>50.4</ele>
        <time>2021-11-13 11:09:08</time>
      </trkpt>
      <trkpt lat="41.47578" lon="2.19436">
        <ele>50.8</ele>
        <time>2021-11-13 11:09:09</time>
      </trkpt>
      <trkpt lat="41.47572" lon="2.19433">
        <ele>50.8</ele>
        <time>2021-11-13 11:09:10</time>
      </trkpt>
      <trkpt lat="41.47564" lon="2.19429">
        <ele>51</ele>
        <time>2021-11-13 11:09:11</time>
      </trkpt>
      <trkpt lat="41.47558" lon="2.19424">
        <ele>51.2</ele>
        <time>2021-11-13 11:09:12</time>
      </trkpt>
      <trkpt lat="41.47552" lon="2.19419">
        <ele>51.2</ele>
        <time>2021-11-13 11:09:13</time>
      </trkpt>
      <trkpt lat="41.47547" lon="2.19414">
        <ele>51.6</ele>
        <time>2021-11-13 11:09:14</time>
      </trkpt>
      <trkpt lat="41.47542" lon="2.19408">
        <ele>51.6</ele>
        <time>2021-11-13 11:09:15</time>
      </trkpt>
      <trkpt lat="41.47538" lon="2.194">
        <ele>52</ele>
        <time>2021-11-13 11:09:16</time>
      </trkpt>
      <trkpt lat="41.47534" lon="2.19393">
        <ele>52</ele>
        <time>2021-11-13 11:09:17</time>
      </trkpt>
      <trkpt lat="41.47531" lon="2.19384">
        <ele>52.2</ele>
        <time>2021-11-13 11:09:18</time>
      </trkpt>
      <trkpt lat="41.47528" lon="2.19378">
        <ele>52.6</ele>
        <time>2021-11-13 11:09:19</time>
      </trkpt>
      <trkpt lat="41.47524" lon="2.19368">
        <ele>52.8</ele>
        <time>2021-11-13 11:09:20</time>
      </trkpt>
      <trkpt lat="41.4752" lon="2.19359">
        <ele>53</ele>
        <time>2021-11-13 11:09:21</time>
      </trkpt>
      <trkpt lat="41.47516" lon="2.19351">
        <ele>53.2</ele>
        <time>2021-11-13 11:09:22</time>
      </trkpt>
      <trkpt lat="41.47512" lon="2.19342">
        <ele>53.4</ele>
        <time>2021-11-13 11:09:23</time>
      </trkpt>
      <trkpt lat="41.47509" lon="2.19336">
        <ele>53.4</ele>
        <time>2021-11-13 11:09:24</time>
      </trkpt>
      <trkpt lat="41.47504" lon="2.19328">
        <ele>53.6</ele>
        <time>2021-11-13 11:09:25</time>
      </trkpt>
      <trkpt lat="41.47498" lon="2.19321">
        <ele>53.6</ele>
        <time>2021-11-13 11:09:26</time>
      </trkpt>
      <trkpt lat="41.47492" lon="2.19312">
        <ele>53.6</ele>
        <time>2021-11-13 11:09:27</time>
      </trkpt>
      <trkpt lat="41.47487" lon="2.19305">
        <ele>53.4</ele>
        <time>2021-11-13 11:09:28</time>
      </trkpt>
      <trkpt lat="41.47482" lon="2.19299">
        <ele>53.4</ele>
        <time>2021-11-13 11:09:29</time>
      </trkpt>
      <trkpt lat="41.47475" lon="2.19291">
        <ele>53.4</ele>
        <time>2021-11-13 11:09:30</time>
      </trkpt>
      <trkpt lat="41.47469" lon="2.19284">
        <ele>53.2</ele>
        <time>2021-11-13 11:09:31</time>
      </trkpt>
      <trkpt lat="41.47463" lon="2.19278">
        <ele>53.2</ele>
        <time>2021-11-13 11:09:32</time>
      </trkpt>
      <trkpt lat="41.47456" lon="2.19272">
        <ele>53.2</ele>
        <time>2021-11-13 11:09:33</time>
      </trkpt>
      <trkpt lat="41.4745" lon="2.19266">
        <ele>53</ele>
        <time>2021-11-13 11:09:34</time>
      </trkpt>
      <trkpt lat="41.47443" lon="2.1926">
        <ele>53</ele>
        <time>2021-11-13 11:09:35</time>
      </trkpt>
      <trkpt lat="41.47436" lon="2.19254">
        <ele>52.8</ele>
        <time>2021-11-13 11:09:36</time>
      </trkpt>
      <trkpt lat="41.47429" lon="2.19248">
        <ele>52.8</ele>
        <time>2021-11-13 11:09:37</time>
      </trkpt>
      <trkpt lat="41.47421" lon="2.19242">
        <ele>52.8</ele>
        <time>2021-11-13 11:09:38</time>
      </trkpt>
      <trkpt lat="41.47414" lon="2.19236">
        <ele>52.6</ele>
        <time>2021-11-13 11:09:39</time>
      </trkpt>
      <trkpt lat="41.47406" lon="2.19231">
        <ele>52.6</ele>
        <time>2021-11-13 11:09:40</time>
      </trkpt>
      <trkpt lat="41.47398" lon="2.19225">
        <ele>52.2</ele>
        <time>2021-11-13 11:09:41</time>
      </trkpt>
      <trkpt lat="41.47391" lon="2.19219">
        <ele>52</ele>
        <time>2021-11-13 11:09:42</time>
      </trkpt>
      <trkpt lat="41.47383" lon="2.19214">
        <ele>51.8</ele>
        <time>2021-11-13 11:09:43</time>
      </trkpt>
      <trkpt lat="41.47375" lon="2.19209">
        <ele>51.8</ele>
        <time>2021-11-13 11:09:44</time>
      </trkpt>
      <trkpt lat="41.47367" lon="2.19203">
        <ele>51.8</ele>
        <time>2021-11-13 11:09:45</time>
      </trkpt>
      <trkpt lat="41.47358" lon="2.19198">
        <ele>51.6</ele>
        <time>2021-11-13 11:09:46</time>
      </trkpt>
      <trkpt lat="41.4735" lon="2.19193">
        <ele>51.6</ele>
        <time>2021-11-13 11:09:47</time>
      </trkpt>
      <trkpt lat="41.47341" lon="2.19188">
        <ele>51.4</ele>
        <time>2021-11-13 11:09:48</time>
      </trkpt>
      <trkpt lat="41.47333" lon="2.19183">
        <ele>51.2</ele>
        <time>2021-11-13 11:09:49</time>
      </trkpt>
      <trkpt lat="41.47324" lon="2.19177">
        <ele>50.6</ele>
        <time>2021-11-13 11:09:50</time>
      </trkpt>
      <trkpt lat="41.47315" lon="2.19172">
        <ele>50.4</ele>
        <time>2021-11-13 11:09:51</time>
      </trkpt>
      <trkpt lat="41.47306" lon="2.19166">
        <ele>50.2</ele>
        <time>2021-11-13 11:09:52</time>
      </trkpt>
      <trkpt lat="41.47297" lon="2.1916">
        <ele>50</ele>
        <time>2021-11-13 11:09:53</time>
      </trkpt>
      <trkpt lat="41.47289" lon="2.19153">
        <ele>49.8</ele>
        <time>2021-11-13 11:09:54</time>
      </trkpt>
      <trkpt lat="41.4728" lon="2.19145">
        <ele>49.4</ele>
        <time>2021-11-13 11:09:55</time>
      </trkpt>
      <trkpt lat="41.47272" lon="2.19137">
        <ele>49.4</ele>
        <time>2021-11-13 11:09:56</time>
      </trkpt>
      <trkpt lat="41.47264" lon="2.19129">
        <ele>48.8</ele>
        <time>2021-11-13 11:09:57</time>
      </trkpt>
      <trkpt lat="41.47256" lon="2.1912">
        <ele>48.8</ele>
        <time>2021-11-13 11:09:58</time>
      </trkpt>
      <trkpt lat="41.47248" lon="2.19112">
        <ele>48.4</ele>
        <time>2021-11-13 11:09:59</time>
      </trkpt>
      <trkpt lat="41.4724" lon="2.19104">
        <ele>48.2</ele>
        <time>2021-11-13 11:10:00</time>
      </trkpt>
      <trkpt lat="41.47232" lon="2.19095">
        <ele>47.8</ele>
        <time>2021-11-13 11:10:01</time>
      </trkpt>
      <trkpt lat="41.47224" lon="2.19087">
        <ele>47.4</ele>
        <time>2021-11-13 11:10:02</time>
      </trkpt>
      <trkpt lat="41.47216" lon="2.19079">
        <ele>47.2</ele>
        <time>2021-11-13 11:10:03</time>
      </trkpt>
      <trkpt lat="41.47208" lon="2.19071">
        <ele>47</ele>
        <time>2021-11-13 11:10:04</time>
      </trkpt>
      <trkpt lat="41.472" lon="2.19064">
        <ele>46.8</ele>
        <time>2021-11-13 11:10:05</time>
      </trkpt>
      <trkpt lat="41.47192" lon="2.19056">
        <ele>46.8</ele>
        <time>2021-11-13 11:10:06</time>
      </trkpt>
      <trkpt lat="41.47184" lon="2.19049">
        <ele>46.6</ele>
        <time>2021-11-13 11:10:07</time>
      </trkpt>
      <trkpt lat="41.47176" lon="2.19042">
        <ele>46.4</ele>
        <time>2021-11-13 11:10:08</time>
      </trkpt>
      <trkpt lat="41.47168" lon="2.19034">
        <ele>46.4</ele>
        <time>2021-11-13 11:10:09</time>
      </trkpt>
      <trkpt lat="41.4716" lon="2.19026">
        <ele>46.2</ele>
        <time>2021-11-13 11:10:10</time>
      </trkpt>
      <trkpt lat="41.47152" lon="2.19018">
        <ele>46.2</ele>
        <time>2021-11-13 11:10:11</time>
      </trkpt>
      <trkpt lat="41.47144" lon="2.19008">
        <ele>46.2</ele>
        <time>2021-11-13 11:10:12</time>
      </trkpt>
      <trkpt lat="41.47137" lon="2.18999">
        <ele>46</ele>
        <time>2021-11-13 11:10:13</time>
      </trkpt>
      <trkpt lat="41.4713" lon="2.18989">
        <ele>46</ele>
        <time>2021-11-13 11:10:14</time>
      </trkpt>
      <trkpt lat="41.47123" lon="2.18979">
        <ele>45.8</ele>
        <time>2021-11-13 11:10:15</time>
      </trkpt>
      <trkpt lat="41.47116" lon="2.18969">
        <ele>45.8</ele>
        <time>2021-11-13 11:10:16</time>
      </trkpt>
      <trkpt lat="41.47109" lon="2.18958">
        <ele>45.6</ele>
        <time>2021-11-13 11:10:17</time>
      </trkpt>
      <trkpt lat="41.47103" lon="2.18947">
        <ele>45.6</ele>
        <time>2021-11-13 11:10:18</time>
      </trkpt>
      <trkpt lat="41.47097" lon="2.18936">
        <ele>45.4</ele>
        <time>2021-11-13 11:10:19</time>
      </trkpt>
      <trkpt lat="41.47091" lon="2.18926">
        <ele>45.2</ele>
        <time>2021-11-13 11:10:20</time>
      </trkpt>
      <trkpt lat="41.47085" lon="2.18915">
        <ele>45.2</ele>
        <time>2021-11-13 11:10:21</time>
      </trkpt>
      <trkpt lat="41.47079" lon="2.18905">
        <ele>45</ele>
        <time>2021-11-13 11:10:22</time>
      </trkpt>
      <trkpt lat="41.47071" lon="2.18897">
        <ele>45</ele>
        <time>2021-11-13 11:10:23</time>
      </trkpt>
      <trkpt lat="41.47063" lon="2.18889">
        <ele>44.8</ele>
        <time>2021-11-13 11:10:24</time>
      </trkpt>
      <trkpt lat="41.47053" lon="2.18884">
        <ele>44.8</ele>
        <time>2021-11-13 11:10:25</time>
      </trkpt>
      <trkpt lat="41.47043" lon="2.18881">
        <ele>44.4</ele>
        <time>2021-11-13 11:10:26</time>
      </trkpt>
      <trkpt lat="41.47032" lon="2.18882">
        <ele>44</ele>
        <time>2021-11-13 11:10:27</time>
      </trkpt>
      <trkpt lat="41.47022" lon="2.18885">
        <ele>43.8</ele>
        <time>2021-11-13 11:10:28</time>
      </trkpt>
      <trkpt lat="41.47012" lon="2.18889">
        <ele>43.4</ele>
        <time>2021-11-13 11:10:29</time>
      </trkpt>
      <trkpt lat="41.47012" lon="2.18889">
        <ele>43</ele>
        <time>2021-11-13 11:10:30</time>
      </trkpt>
      <trkpt lat="41.46992" lon="2.18898">
        <ele>42.6</ele>
        <time>2021-11-13 11:10:31</time>
      </trkpt>
      <trkpt lat="41.46982" lon="2.18902">
        <ele>42.4</ele>
        <time>2021-11-13 11:10:32</time>
      </trkpt>
      <trkpt lat="41.46972" lon="2.18906">
        <ele>41.6</ele>
        <time>2021-11-13 11:10:33</time>
      </trkpt>
      <trkpt lat="41.46962" lon="2.18909">
        <ele>41.2</ele>
        <time>2021-11-13 11:10:34</time>
      </trkpt>
      <trkpt lat="41.46951" lon="2.18912">
        <ele>41</ele>
        <time>2021-11-13 11:10:35</time>
      </trkpt>
      <trkpt lat="41.46941" lon="2.18915">
        <ele>40.4</ele>
        <time>2021-11-13 11:10:36</time>
      </trkpt>
      <trkpt lat="41.46931" lon="2.18917">
        <ele>40.4</ele>
        <time>2021-11-13 11:10:37</time>
      </trkpt>
      <trkpt lat="41.46921" lon="2.1892">
        <ele>40.2</ele>
        <time>2021-11-13 11:10:38</time>
      </trkpt>
      <trkpt lat="41.46912" lon="2.18922">
        <ele>40</ele>
        <time>2021-11-13 11:10:39</time>
      </trkpt>
      <trkpt lat="41.46902" lon="2.18925">
        <ele>39.6</ele>
        <time>2021-11-13 11:10:40</time>
      </trkpt>
      <trkpt lat="41.46893" lon="2.18927">
        <ele>39.6</ele>
        <time>2021-11-13 11:10:41</time>
      </trkpt>
      <trkpt lat="41.46883" lon="2.1893">
        <ele>39.4</ele>
        <time>2021-11-13 11:10:42</time>
      </trkpt>
      <trkpt lat="41.46873" lon="2.18932">
        <ele>39.2</ele>
        <time>2021-11-13 11:10:43</time>
      </trkpt>
      <trkpt lat="41.46864" lon="2.18934">
        <ele>39.2</ele>
        <time>2021-11-13 11:10:44</time>
      </trkpt>
      <trkpt lat="41.46855" lon="2.18936">
        <ele>39</ele>
        <time>2021-11-13 11:10:45</time>
      </trkpt>
      <trkpt lat="41.46845" lon="2.18939">
        <ele>38.8</ele>
        <time>2021-11-13 11:10:46</time>
      </trkpt>
      <trkpt lat="41.46836" lon="2.18941">
        <ele>38.8</ele>
        <time>2021-11-13 11:10:47</time>
      </trkpt>
      <trkpt lat="41.46828" lon="2.18944">
        <ele>38.6</ele>
        <time>2021-11-13 11:10:48</time>
      </trkpt>
      <trkpt lat="41.46819" lon="2.18946">
        <ele>38.4</ele>
        <time>2021-11-13 11:10:49</time>
      </trkpt>
      <trkpt lat="41.4681" lon="2.18948">
        <ele>38.4</ele>
        <time>2021-11-13 11:10:50</time>
      </trkpt>
      <trkpt lat="41.468" lon="2.1895">
        <ele>38.4</ele>
        <time>2021-11-13 11:10:51</time>
      </trkpt>
      <trkpt lat="41.46791" lon="2.18952">
        <ele>38.2</ele>
        <time>2021-11-13 11:10:52</time>
      </trkpt>
      <trkpt lat="41.46782" lon="2.18955">
        <ele>38.2</ele>
        <time>2021-11-13 11:10:53</time>
      </trkpt>
      <trkpt lat="41.46773" lon="2.18957">
        <ele>38.2</ele>
        <time>2021-11-13 11:10:54</time>
      </trkpt>
      <trkpt lat="41.46763" lon="2.18959">
        <ele>38.2</ele>
        <time>2021-11-13 11:10:55</time>
      </trkpt>
      <trkpt lat="41.46754" lon="2.18962">
        <ele>38</ele>
        <time>2021-11-13 11:10:56</time>
      </trkpt>
      <trkpt lat="41.46745" lon="2.18964">
        <ele>38</ele>
        <time>2021-11-13 11:10:57</time>
      </trkpt>
      <trkpt lat="41.46736" lon="2.18966">
        <ele>37.8</ele>
        <time>2021-11-13 11:10:58</time>
      </trkpt>
      <trkpt lat="41.46726" lon="2.18969">
        <ele>37.8</ele>
        <time>2021-11-13 11:10:59</time>
      </trkpt>
      <trkpt lat="41.46717" lon="2.18971">
        <ele>37.6</ele>
        <time>2021-11-13 11:11:00</time>
      </trkpt>
      <trkpt lat="41.46708" lon="2.18973">
        <ele>37.6</ele>
        <time>2021-11-13 11:11:01</time>
      </trkpt>
      <trkpt lat="41.46699" lon="2.18975">
        <ele>37.4</ele>
        <time>2021-11-13 11:11:02</time>
      </trkpt>
      <trkpt lat="41.4669" lon="2.18977">
        <ele>37.4</ele>
        <time>2021-11-13 11:11:03</time>
      </trkpt>
      <trkpt lat="41.46682" lon="2.1898">
        <ele>37.4</ele>
        <time>2021-11-13 11:11:04</time>
      </trkpt>
      <trkpt lat="41.46674" lon="2.18982">
        <ele>37.4</ele>
        <time>2021-11-13 11:11:05</time>
      </trkpt>
      <trkpt lat="41.46665" lon="2.18985">
        <ele>37.4</ele>
        <time>2021-11-13 11:11:06</time>
      </trkpt>
      <trkpt lat="41.46657" lon="2.18987">
        <ele>37.4</ele>
        <time>2021-11-13 11:11:07</time>
      </trkpt>
      <trkpt lat="41.46648" lon="2.18989">
        <ele>37.4</ele>
        <time>2021-11-13 11:11:08</time>
      </trkpt>
      <trkpt lat="41.4664" lon="2.18991">
        <ele>37.4</ele>
        <time>2021-11-13 11:11:09</time>
      </trkpt>
      <trkpt lat="41.46631" lon="2.18993">
        <ele>37.4</ele>
        <time>2021-11-13 11:11:10</time>
      </trkpt>
      <trkpt lat="41.46622" lon="2.18995">
        <ele>37.4</ele>
        <time>2021-11-13 11:11:11</time>
      </trkpt>
      <trkpt lat="41.46613" lon="2.18997">
        <ele>37.4</ele>
        <time>2021-11-13 11:11:12</time>
      </trkpt>
      <trkpt lat="41.46605" lon="2.18999">
        <ele>37.4</ele>
        <time>2021-11-13 11:11:13</time>
      </trkpt>
      <trkpt lat="41.46596" lon="2.19">
        <ele>37.4</ele>
        <time>2021-11-13 11:11:14</time>
      </trkpt>
      <trkpt lat="41.46587" lon="2.19001">
        <ele>37.4</ele>
        <time>2021-11-13 11:11:15</time>
      </trkpt>
      <trkpt lat="41.46578" lon="2.19">
        <ele>37.4</ele>
        <time>2021-11-13 11:11:16</time>
      </trkpt>
      <trkpt lat="41.46569" lon="2.18998">
        <ele>37.4</ele>
        <time>2021-11-13 11:11:17</time>
      </trkpt>
      <trkpt lat="41.4656" lon="2.18993">
        <ele>37.4</ele>
        <time>2021-11-13 11:11:18</time>
      </trkpt>
      <trkpt lat="41.46552" lon="2.18989">
        <ele>37.4</ele>
        <time>2021-11-13 11:11:19</time>
      </trkpt>
      <trkpt lat="41.46544" lon="2.18984">
        <ele>37.4</ele>
        <time>2021-11-13 11:11:20</time>
      </trkpt>
      <trkpt lat="41.46537" lon="2.18979">
        <ele>37.4</ele>
        <time>2021-11-13 11:11:21</time>
      </trkpt>
      <trkpt lat="41.46529" lon="2.18975">
        <ele>37.4</ele>
        <time>2021-11-13 11:11:22</time>
      </trkpt>
      <trkpt lat="41.46521" lon="2.18973">
        <ele>37.4</ele>
        <time>2021-11-13 11:11:23</time>
      </trkpt>
      <trkpt lat="41.46513" lon="2.18971">
        <ele>37.4</ele>
        <time>2021-11-13 11:11:24</time>
      </trkpt>
      <trkpt lat="41.46506" lon="2.18971">
        <ele>37.4</ele>
        <time>2021-11-13 11:11:25</time>
      </trkpt>
      <trkpt lat="41.46498" lon="2.18972">
        <ele>37.4</ele>
        <time>2021-11-13 11:11:26</time>
      </trkpt>
      <trkpt lat="41.4649" lon="2.18974">
        <ele>37.4</ele>
        <time>2021-11-13 11:11:27</time>
      </trkpt>
      <trkpt lat="41.46483" lon="2.18976">
        <ele>37.6</ele>
        <time>2021-11-13 11:11:28</time>
      </trkpt>
      <trkpt lat="41.46475" lon="2.18978">
        <ele>37.8</ele>
        <time>2021-11-13 11:11:29</time>
      </trkpt>
      <trkpt lat="41.46467" lon="2.18979">
        <ele>38</ele>
        <time>2021-11-13 11:11:30</time>
      </trkpt>
      <trkpt lat="41.4646" lon="2.1898">
        <ele>38.2</ele>
        <time>2021-11-13 11:11:31</time>
      </trkpt>
      <trkpt lat="41.46452" lon="2.18981">
        <ele>38.2</ele>
        <time>2021-11-13 11:11:32</time>
      </trkpt>
      <trkpt lat="41.46445" lon="2.18982">
        <ele>38.4</ele>
        <time>2021-11-13 11:11:33</time>
      </trkpt>
      <trkpt lat="41.46438" lon="2.18981">
        <ele>38.6</ele>
        <time>2021-11-13 11:11:34</time>
      </trkpt>
      <trkpt lat="41.4643" lon="2.18981">
        <ele>38.8</ele>
        <time>2021-11-13 11:11:35</time>
      </trkpt>
      <trkpt lat="41.46423" lon="2.1898">
        <ele>38.8</ele>
        <time>2021-11-13 11:11:36</time>
      </trkpt>
      <trkpt lat="41.46415" lon="2.1898">
        <ele>39.2</ele>
        <time>2021-11-13 11:11:37</time>
      </trkpt>
      <trkpt lat="41.46408" lon="2.18979">
        <ele>39.2</ele>
        <time>2021-11-13 11:11:38</time>
      </trkpt>
      <trkpt lat="41.46401" lon="2.18978">
        <ele>39.6</ele>
        <time>2021-11-13 11:11:39</time>
      </trkpt>
      <trkpt lat="41.46393" lon="2.18979">
        <ele>39.8</ele>
        <time>2021-11-13 11:11:40</time>
      </trkpt>
      <trkpt lat="41.46385" lon="2.18979">
        <ele>40</ele>
        <time>2021-11-13 11:11:41</time>
      </trkpt>
      <trkpt lat="41.46378" lon="2.18981">
        <ele>40.4</ele>
        <time>2021-11-13 11:11:42</time>
      </trkpt>
      <trkpt lat="41.4637" lon="2.18983">
        <ele>40.4</ele>
        <time>2021-11-13 11:11:43</time>
      </trkpt>
      <trkpt lat="41.46363" lon="2.18985">
        <ele>40.8</ele>
        <time>2021-11-13 11:11:44</time>
      </trkpt>
      <trkpt lat="41.46355" lon="2.18987">
        <ele>40.8</ele>
        <time>2021-11-13 11:11:45</time>
      </trkpt>
      <trkpt lat="41.46347" lon="2.18989">
        <ele>41.4</ele>
        <time>2021-11-13 11:11:46</time>
      </trkpt>
      <trkpt lat="41.4634" lon="2.18991">
        <ele>41.6</ele>
        <time>2021-11-13 11:11:47</time>
      </trkpt>
      <trkpt lat="41.46332" lon="2.18993">
        <ele>41.8</ele>
        <time>2021-11-13 11:11:48</time>
      </trkpt>
      <trkpt lat="41.46324" lon="2.18994">
        <ele>42.2</ele>
        <time>2021-11-13 11:11:49</time>
      </trkpt>
      <trkpt lat="41.46317" lon="2.18994">
        <ele>42.4</ele>
        <time>2021-11-13 11:11:50</time>
      </trkpt>
      <trkpt lat="41.46309" lon="2.18993">
        <ele>42.8</ele>
        <time>2021-11-13 11:11:51</time>
      </trkpt>
      <trkpt lat="41.46301" lon="2.18993">
        <ele>43</ele>
        <time>2021-11-13 11:11:52</time>
      </trkpt>
      <trkpt lat="41.46293" lon="2.18991">
        <ele>43.4</ele>
        <time>2021-11-13 11:11:53</time>
      </trkpt>
      <trkpt lat="41.46285" lon="2.1899">
        <ele>43.6</ele>
        <time>2021-11-13 11:11:54</time>
      </trkpt>
      <trkpt lat="41.46278" lon="2.18988">
        <ele>43.8</ele>
        <time>2021-11-13 11:11:55</time>
      </trkpt>
      <trkpt lat="41.4627" lon="2.18987">
        <ele>43.8</ele>
        <time>2021-11-13 11:11:56</time>
      </trkpt>
      <trkpt lat="41.46262" lon="2.18986">
        <ele>44</ele>
        <time>2021-11-13 11:11:57</time>
      </trkpt>
      <trkpt lat="41.46254" lon="2.18986">
        <ele>44</ele>
        <time>2021-11-13 11:11:58</time>
      </trkpt>
      <trkpt lat="41.46246" lon="2.18988">
        <ele>44</ele>
        <time>2021-11-13 11:11:59</time>
      </trkpt>
      <trkpt lat="41.46238" lon="2.1899">
        <ele>44</ele>
        <time>2021-11-13 11:12:00</time>
      </trkpt>
      <trkpt lat="41.4623" lon="2.18992">
        <ele>44</ele>
        <time>2021-11-13 11:12:01</time>
      </trkpt>
      <trkpt lat="41.46222" lon="2.18994">
        <ele>44</ele>
        <time>2021-11-13 11:12:02</time>
      </trkpt>
      <trkpt lat="41.46214" lon="2.18996">
        <ele>44</ele>
        <time>2021-11-13 11:12:03</time>
      </trkpt>
      <trkpt lat="41.46206" lon="2.18998">
        <ele>44</ele>
        <time>2021-11-13 11:12:04</time>
      </trkpt>
      <trkpt lat="41.46197" lon="2.19">
        <ele>43.8</ele>
        <time>2021-11-13 11:12:05</time>
      </trkpt>
      <trkpt lat="41.46189" lon="2.19002">
        <ele>43.6</ele>
        <time>2021-11-13 11:12:06</time>
      </trkpt>
      <trkpt lat="41.46181" lon="2.19004">
        <ele>43.6</ele>
        <time>2021-11-13 11:12:07</time>
      </trkpt>
      <trkpt lat="41.46173" lon="2.19006">
        <ele>43.6</ele>
        <time>2021-11-13 11:12:08</time>
      </trkpt>
      <trkpt lat="41.46165" lon="2.1901">
        <ele>43.2</ele>
        <time>2021-11-13 11:12:09</time>
      </trkpt>
      <trkpt lat="41.46157" lon="2.19016">
        <ele>43.2</ele>
        <time>2021-11-13 11:12:10</time>
      </trkpt>
      <trkpt lat="41.4615" lon="2.19023">
        <ele>43</ele>
        <time>2021-11-13 11:12:11</time>
      </trkpt>
      <trkpt lat="41.46144" lon="2.19031">
        <ele>43</ele>
        <time>2021-11-13 11:12:12</time>
      </trkpt>
      <trkpt lat="41.46139" lon="2.19041">
        <ele>42.8</ele>
        <time>2021-11-13 11:12:13</time>
      </trkpt>
      <trkpt lat="41.46135" lon="2.19051">
        <ele>42.6</ele>
        <time>2021-11-13 11:12:14</time>
      </trkpt>
      <trkpt lat="41.46132" lon="2.19062">
        <ele>42.4</ele>
        <time>2021-11-13 11:12:15</time>
      </trkpt>
      <trkpt lat="41.46129" lon="2.19074">
        <ele>42.2</ele>
        <time>2021-11-13 11:12:16</time>
      </trkpt>
      <trkpt lat="41.46126" lon="2.19085">
        <ele>42</ele>
        <time>2021-11-13 11:12:17</time>
      </trkpt>
      <trkpt lat="41.46121" lon="2.19095">
        <ele>42</ele>
        <time>2021-11-13 11:12:18</time>
      </trkpt>
      <trkpt lat="41.46116" lon="2.19104">
        <ele>41.8</ele>
        <time>2021-11-13 11:12:19</time>
      </trkpt>
      <trkpt lat="41.46109" lon="2.19113">
        <ele>41.6</ele>
        <time>2021-11-13 11:12:20</time>
      </trkpt>
      <trkpt lat="41.46103" lon="2.19121">
        <ele>41.4</ele>
        <time>2021-11-13 11:12:21</time>
      </trkpt>
      <trkpt lat="41.46096" lon="2.1913">
        <ele>41.2</ele>
        <time>2021-11-13 11:12:22</time>
      </trkpt>
      <trkpt lat="41.4609" lon="2.19138">
        <ele>41</ele>
        <time>2021-11-13 11:12:23</time>
      </trkpt>
      <trkpt lat="41.46083" lon="2.19147">
        <ele>40.8</ele>
        <time>2021-11-13 11:12:24</time>
      </trkpt>
      <trkpt lat="41.46076" lon="2.19156">
        <ele>40.6</ele>
        <time>2021-11-13 11:12:25</time>
      </trkpt>
      <trkpt lat="41.4607" lon="2.19165">
        <ele>40.4</ele>
        <time>2021-11-13 11:12:26</time>
      </trkpt>
      <trkpt lat="41.46064" lon="2.19173">
        <ele>40</ele>
        <time>2021-11-13 11:12:27</time>
      </trkpt>
      <trkpt lat="41.46057" lon="2.19182">
        <ele>39.8</ele>
        <time>2021-11-13 11:12:28</time>
      </trkpt>
      <trkpt lat="41.46051" lon="2.1919">
        <ele>39.2</ele>
        <time>2021-11-13 11:12:29</time>
      </trkpt>
      <trkpt lat="41.46044" lon="2.19198">
        <ele>39</ele>
        <time>2021-11-13 11:12:30</time>
      </trkpt>
      <trkpt lat="41.46038" lon="2.19206">
        <ele>38.4</ele>
        <time>2021-11-13 11:12:31</time>
      </trkpt>
      <trkpt lat="41.46032" lon="2.19214">
        <ele>38</ele>
        <time>2021-11-13 11:12:32</time>
      </trkpt>
      <trkpt lat="41.46026" lon="2.19222">
        <ele>38</ele>
        <time>2021-11-13 11:12:33</time>
      </trkpt>
      <trkpt lat="41.46019" lon="2.1923">
        <ele>37.6</ele>
        <time>2021-11-13 11:12:34</time>
      </trkpt>
      <trkpt lat="41.46012" lon="2.19238">
        <ele>37.4</ele>
        <time>2021-11-13 11:12:35</time>
      </trkpt>
      <trkpt lat="41.46005" lon="2.19246">
        <ele>37.4</ele>
        <time>2021-11-13 11:12:36</time>
      </trkpt>
      <trkpt lat="41.45999" lon="2.19254">
        <ele>37.2</ele>
        <time>2021-11-13 11:12:37</time>
      </trkpt>
      <trkpt lat="41.45992" lon="2.19262">
        <ele>37</ele>
        <time>2021-11-13 11:12:38</time>
      </trkpt>
      <trkpt lat="41.45986" lon="2.1927">
        <ele>37</ele>
        <time>2021-11-13 11:12:39</time>
      </trkpt>
      <trkpt lat="41.45979" lon="2.19279">
        <ele>37</ele>
        <time>2021-11-13 11:12:40</time>
      </trkpt>
      <trkpt lat="41.45974" lon="2.19288">
        <ele>36.8</ele>
        <time>2021-11-13 11:12:41</time>
      </trkpt>
      <trkpt lat="41.45969" lon="2.19298">
        <ele>36.8</ele>
        <time>2021-11-13 11:12:42</time>
      </trkpt>
      <trkpt lat="41.45964" lon="2.19308">
        <ele>36.6</ele>
        <time>2021-11-13 11:12:43</time>
      </trkpt>
      <trkpt lat="41.45959" lon="2.19318">
        <ele>36.4</ele>
        <time>2021-11-13 11:12:44</time>
      </trkpt>
      <trkpt lat="41.45955" lon="2.19329">
        <ele>36.4</ele>
        <time>2021-11-13 11:12:45</time>
      </trkpt>
      <trkpt lat="41.45949" lon="2.19341">
        <ele>36.4</ele>
        <time>2021-11-13 11:12:46</time>
      </trkpt>
      <trkpt lat="41.45946" lon="2.19349">
        <ele>36.2</ele>
        <time>2021-11-13 11:12:47</time>
      </trkpt>
      <trkpt lat="41.45941" lon="2.19359">
        <ele>36</ele>
        <time>2021-11-13 11:12:48</time>
      </trkpt>
      <trkpt lat="41.45936" lon="2.19369">
        <ele>36</ele>
        <time>2021-11-13 11:12:49</time>
      </trkpt>
      <trkpt lat="41.45931" lon="2.19378">
        <ele>36</ele>
        <time>2021-11-13 11:12:50</time>
      </trkpt>
      <trkpt lat="41.45926" lon="2.19387">
        <ele>36</ele>
        <time>2021-11-13 11:12:51</time>
      </trkpt>
      <trkpt lat="41.45921" lon="2.19396">
        <ele>36</ele>
        <time>2021-11-13 11:12:52</time>
      </trkpt>
      <trkpt lat="41.45917" lon="2.19405">
        <ele>36</ele>
        <time>2021-11-13 11:12:53</time>
      </trkpt>
      <trkpt lat="41.45912" lon="2.19414">
        <ele>36</ele>
        <time>2021-11-13 11:12:54</time>
      </trkpt>
      <trkpt lat="41.45908" lon="2.19423">
        <ele>36</ele>
        <time>2021-11-13 11:12:55</time>
      </trkpt>
      <trkpt lat="41.45904" lon="2.19432">
        <ele>36.2</ele>
        <time>2021-11-13 11:12:56</time>
      </trkpt>
      <trkpt lat="41.459" lon="2.1944">
        <ele>36.4</ele>
        <time>2021-11-13 11:12:57</time>
      </trkpt>
      <trkpt lat="41.45897" lon="2.19449">
        <ele>36.4</ele>
        <time>2021-11-13 11:12:58</time>
      </trkpt>
      <trkpt lat="41.45893" lon="2.19459">
        <ele>36.6</ele>
        <time>2021-11-13 11:12:59</time>
      </trkpt>
      <trkpt lat="41.45889" lon="2.19468">
        <ele>36.6</ele>
        <time>2021-11-13 11:13:00</time>
      </trkpt>
      <trkpt lat="41.45886" lon="2.19477">
        <ele>37</ele>
        <time>2021-11-13 11:13:01</time>
      </trkpt>
      <trkpt lat="41.45882" lon="2.19487">
        <ele>37</ele>
        <time>2021-11-13 11:13:02</time>
      </trkpt>
      <trkpt lat="41.45879" lon="2.19496">
        <ele>37.2</ele>
        <time>2021-11-13 11:13:03</time>
      </trkpt>
      <trkpt lat="41.45875" lon="2.19505">
        <ele>37.2</ele>
        <time>2021-11-13 11:13:04</time>
      </trkpt>
      <trkpt lat="41.45872" lon="2.19515">
        <ele>37.2</ele>
        <time>2021-11-13 11:13:05</time>
      </trkpt>
      <trkpt lat="41.45868" lon="2.19524">
        <ele>37.2</ele>
        <time>2021-11-13 11:13:06</time>
      </trkpt>
      <trkpt lat="41.45864" lon="2.19533">
        <ele>37.2</ele>
        <time>2021-11-13 11:13:07</time>
      </trkpt>
      <trkpt lat="41.45859" lon="2.1954">
        <ele>37.2</ele>
        <time>2021-11-13 11:13:08</time>
      </trkpt>
      <trkpt lat="41.45853" lon="2.19547">
        <ele>37.2</ele>
        <time>2021-11-13 11:13:09</time>
      </trkpt>
      <trkpt lat="41.45847" lon="2.19552">
        <ele>37</ele>
        <time>2021-11-13 11:13:10</time>
      </trkpt>
      <trkpt lat="41.45841" lon="2.19556">
        <ele>36.8</ele>
        <time>2021-11-13 11:13:11</time>
      </trkpt>
      <trkpt lat="41.45834" lon="2.19558">
        <ele>36.8</ele>
        <time>2021-11-13 11:13:12</time>
      </trkpt>
      <trkpt lat="41.45827" lon="2.19558">
        <ele>36.8</ele>
        <time>2021-11-13 11:13:13</time>
      </trkpt>
      <trkpt lat="41.45821" lon="2.19555">
        <ele>36.6</ele>
        <time>2021-11-13 11:13:14</time>
      </trkpt>
      <trkpt lat="41.45814" lon="2.1955">
        <ele>36.4</ele>
        <time>2021-11-13 11:13:15</time>
      </trkpt>
      <trkpt lat="41.45807" lon="2.19545">
        <ele>36.4</ele>
        <time>2021-11-13 11:13:16</time>
      </trkpt>
      <trkpt lat="41.458" lon="2.19539">
        <ele>36.2</ele>
        <time>2021-11-13 11:13:17</time>
      </trkpt>
      <trkpt lat="41.45793" lon="2.19533">
        <ele>36</ele>
        <time>2021-11-13 11:13:18</time>
      </trkpt>
      <trkpt lat="41.45784" lon="2.19527">
        <ele>35.6</ele>
        <time>2021-11-13 11:13:19</time>
      </trkpt>
      <trkpt lat="41.45776" lon="2.1952">
        <ele>35.6</ele>
        <time>2021-11-13 11:13:20</time>
      </trkpt>
      <trkpt lat="41.45768" lon="2.19514">
        <ele>35.2</ele>
        <time>2021-11-13 11:13:21</time>
      </trkpt>
      <trkpt lat="41.4576" lon="2.19508">
        <ele>34.4</ele>
        <time>2021-11-13 11:13:22</time>
      </trkpt>
      <trkpt lat="41.45752" lon="2.19502">
        <ele>34.2</ele>
        <time>2021-11-13 11:13:23</time>
      </trkpt>
      <trkpt lat="41.45744" lon="2.19496">
        <ele>33.6</ele>
        <time>2021-11-13 11:13:24</time>
      </trkpt>
      <trkpt lat="41.45736" lon="2.19491">
        <ele>33.2</ele>
        <time>2021-11-13 11:13:25</time>
      </trkpt>
      <trkpt lat="41.45728" lon="2.19485">
        <ele>32.6</ele>
        <time>2021-11-13 11:13:26</time>
      </trkpt>
      <trkpt lat="41.45721" lon="2.1948">
        <ele>32.4</ele>
        <time>2021-11-13 11:13:27</time>
      </trkpt>
      <trkpt lat="41.45714" lon="2.19474">
        <ele>32</ele>
        <time>2021-11-13 11:13:28</time>
      </trkpt>
      <trkpt lat="41.45707" lon="2.19469">
        <ele>31.6</ele>
        <time>2021-11-13 11:13:29</time>
      </trkpt>
      <trkpt lat="41.45701" lon="2.19464">
        <ele>31.4</ele>
        <time>2021-11-13 11:13:30</time>
      </trkpt>
      <trkpt lat="41.45694" lon="2.19459">
        <ele>31.2</ele>
        <time>2021-11-13 11:13:31</time>
      </trkpt>
      <trkpt lat="41.45688" lon="2.19455">
        <ele>31</ele>
        <time>2021-11-13 11:13:32</time>
      </trkpt>
      <trkpt lat="41.45681" lon="2.1945">
        <ele>30.8</ele>
        <time>2021-11-13 11:13:33</time>
      </trkpt>
      <trkpt lat="41.45674" lon="2.19446">
        <ele>30.6</ele>
        <time>2021-11-13 11:13:34</time>
      </trkpt>
      <trkpt lat="41.45667" lon="2.19444">
        <ele>30.4</ele>
        <time>2021-11-13 11:13:35</time>
      </trkpt>
      <trkpt lat="41.4566" lon="2.19443">
        <ele>30.4</ele>
        <time>2021-11-13 11:13:36</time>
      </trkpt>
      <trkpt lat="41.45653" lon="2.19445">
        <ele>30.2</ele>
        <time>2021-11-13 11:13:37</time>
      </trkpt>
      <trkpt lat="41.45646" lon="2.1945">
        <ele>30</ele>
        <time>2021-11-13 11:13:38</time>
      </trkpt>
      <trkpt lat="41.4564" lon="2.19456">
        <ele>30</ele>
        <time>2021-11-13 11:13:39</time>
      </trkpt>
      <trkpt lat="41.45635" lon="2.19464">
        <ele>30</ele>
        <time>2021-11-13 11:13:40</time>
      </trkpt>
      <trkpt lat="41.45631" lon="2.19471">
        <ele>30</ele>
        <time>2021-11-13 11:13:41</time>
      </trkpt>
      <trkpt lat="41.45626" lon="2.1948">
        <ele>30.2</ele>
        <time>2021-11-13 11:13:42</time>
      </trkpt>
      <trkpt lat="41.45622" lon="2.19489">
        <ele>30.2</ele>
        <time>2021-11-13 11:13:43</time>
      </trkpt>
      <trkpt lat="41.45618" lon="2.19498">
        <ele>30.4</ele>
        <time>2021-11-13 11:13:44</time>
      </trkpt>
      <trkpt lat="41.45618" lon="2.19498">
        <ele>30.4</ele>
        <time>2021-11-13 11:13:45</time>
      </trkpt>
      <trkpt lat="41.45609" lon="2.19515">
        <ele>30.6</ele>
        <time>2021-11-13 11:13:46</time>
      </trkpt>
      <trkpt lat="41.45605" lon="2.19523">
        <ele>30.6</ele>
        <time>2021-11-13 11:13:47</time>
      </trkpt>
      <trkpt lat="41.456" lon="2.19531">
        <ele>30.8</ele>
        <time>2021-11-13 11:13:48</time>
      </trkpt>
      <trkpt lat="41.45595" lon="2.19539">
        <ele>30.8</ele>
        <time>2021-11-13 11:13:49</time>
      </trkpt>
      <trkpt lat="41.4559" lon="2.19547">
        <ele>30.8</ele>
        <time>2021-11-13 11:13:50</time>
      </trkpt>
      <trkpt lat="41.45584" lon="2.19555">
        <ele>31</ele>
        <time>2021-11-13 11:13:51</time>
      </trkpt>
      <trkpt lat="41.45578" lon="2.19562">
        <ele>31</ele>
        <time>2021-11-13 11:13:52</time>
      </trkpt>
      <trkpt lat="41.45572" lon="2.19569">
        <ele>31</ele>
        <time>2021-11-13 11:13:53</time>
      </trkpt>
      <trkpt lat="41.45566" lon="2.19576">
        <ele>31</ele>
        <time>2021-11-13 11:13:54</time>
      </trkpt>
      <trkpt lat="41.45559" lon="2.19581">
        <ele>31.2</ele>
        <time>2021-11-13 11:13:55</time>
      </trkpt>
      <trkpt lat="41.45553" lon="2.19587">
        <ele>31.2</ele>
        <time>2021-11-13 11:13:56</time>
      </trkpt>
      <trkpt lat="41.45547" lon="2.19592">
        <ele>31.2</ele>
        <time>2021-11-13 11:13:57</time>
      </trkpt>
      <trkpt lat="41.4554" lon="2.19598">
        <ele>31.2</ele>
        <time>2021-11-13 11:13:58</time>
      </trkpt>
      <trkpt lat="41.45534" lon="2.19602">
        <ele>31.2</ele>
        <time>2021-11-13 11:13:59</time>
      </trkpt>
      <trkpt lat="41.45527" lon="2.19608">
        <ele>31.2</ele>
        <time>2021-11-13 11:14:00</time>
      </trkpt>
      <trkpt lat="41.45521" lon="2.19613">
        <ele>31.2</ele>
        <time>2021-11-13 11:14:01</time>
      </trkpt>
      <trkpt lat="41.45515" lon="2.19619">
        <ele>31.2</ele>
        <time>2021-11-13 11:14:02</time>
      </trkpt>
      <trkpt lat="41.45509" lon="2.19625">
        <ele>31.2</ele>
        <time>2021-11-13 11:14:03</time>
      </trkpt>
      <trkpt lat="41.45504" lon="2.19632">
        <ele>31.2</ele>
        <time>2021-11-13 11:14:04</time>
      </trkpt>
      <trkpt lat="41.45499" lon="2.19638">
        <ele>31.2</ele>
        <time>2021-11-13 11:14:05</time>
      </trkpt>
      <trkpt lat="41.45494" lon="2.19646">
        <ele>31.2</ele>
        <time>2021-11-13 11:14:06</time>
      </trkpt>
      <trkpt lat="41.4549" lon="2.19653">
        <ele>31.2</ele>
        <time>2021-11-13 11:14:07</time>
      </trkpt>
      <trkpt lat="41.45486" lon="2.19661">
        <ele>31.2</ele>
        <time>2021-11-13 11:14:08</time>
      </trkpt>
      <trkpt lat="41.45482" lon="2.19669">
        <ele>31.2</ele>
        <time>2021-11-13 11:14:09</time>
      </trkpt>
      <trkpt lat="41.45479" lon="2.19678">
        <ele>31.4</ele>
        <time>2021-11-13 11:14:10</time>
      </trkpt>
      <trkpt lat="41.45476" lon="2.19686">
        <ele>31.2</ele>
        <time>2021-11-13 11:14:11</time>
      </trkpt>
      <trkpt lat="41.45473" lon="2.19694">
        <ele>31.2</ele>
        <time>2021-11-13 11:14:12</time>
      </trkpt>
      <trkpt lat="41.4547" lon="2.19702">
        <ele>31.2</ele>
        <time>2021-11-13 11:14:13</time>
      </trkpt>
      <trkpt lat="41.45467" lon="2.19709">
        <ele>31.2</ele>
        <time>2021-11-13 11:14:14</time>
      </trkpt>
      <trkpt lat="41.45463" lon="2.19716">
        <ele>31.2</ele>
        <time>2021-11-13 11:14:15</time>
      </trkpt>
      <trkpt lat="41.45459" lon="2.19724">
        <ele>31.2</ele>
        <time>2021-11-13 11:14:16</time>
      </trkpt>
      <trkpt lat="41.45454" lon="2.19731">
        <ele>31.2</ele>
        <time>2021-11-13 11:14:17</time>
      </trkpt>
      <trkpt lat="41.4545" lon="2.19738">
        <ele>31.2</ele>
        <time>2021-11-13 11:14:18</time>
      </trkpt>
      <trkpt lat="41.45445" lon="2.19745">
        <ele>31.2</ele>
        <time>2021-11-13 11:14:19</time>
      </trkpt>
      <trkpt lat="41.45439" lon="2.19752">
        <ele>31.2</ele>
        <time>2021-11-13 11:14:20</time>
      </trkpt>
      <trkpt lat="41.45433" lon="2.19757">
        <ele>31.2</ele>
        <time>2021-11-13 11:14:21</time>
      </trkpt>
      <trkpt lat="41.45427" lon="2.19763">
        <ele>31.2</ele>
        <time>2021-11-13 11:14:22</time>
      </trkpt>
      <trkpt lat="41.45421" lon="2.19768">
        <ele>31.2</ele>
        <time>2021-11-13 11:14:23</time>
      </trkpt>
      <trkpt lat="41.45415" lon="2.19773">
        <ele>31.2</ele>
        <time>2021-11-13 11:14:24</time>
      </trkpt>
      <trkpt lat="41.45409" lon="2.19779">
        <ele>31.2</ele>
        <time>2021-11-13 11:14:25</time>
      </trkpt>
      <trkpt lat="41.45402" lon="2.19785">
        <ele>31.2</ele>
        <time>2021-11-13 11:14:26</time>
      </trkpt>
      <trkpt lat="41.45396" lon="2.19791">
        <ele>31</ele>
        <time>2021-11-13 11:14:27</time>
      </trkpt>
      <trkpt lat="41.45389" lon="2.19796">
        <ele>31</ele>
        <time>2021-11-13 11:14:28</time>
      </trkpt>
      <trkpt lat="41.45383" lon="2.19802">
        <ele>31</ele>
        <time>2021-11-13 11:14:29</time>
      </trkpt>
      <trkpt lat="41.45377" lon="2.19809">
        <ele>31</ele>
        <time>2021-11-13 11:14:30</time>
      </trkpt>
      <trkpt lat="41.4537" lon="2.19818">
        <ele>31</ele>
        <time>2021-11-13 11:14:31</time>
      </trkpt>
      <trkpt lat="41.45365" lon="2.19824">
        <ele>30.8</ele>
        <time>2021-11-13 11:14:32</time>
      </trkpt>
      <trkpt lat="41.45359" lon="2.19831">
        <ele>30.8</ele>
        <time>2021-11-13 11:14:33</time>
      </trkpt>
      <trkpt lat="41.45353" lon="2.19839">
        <ele>30.8</ele>
        <time>2021-11-13 11:14:34</time>
      </trkpt>
      <trkpt lat="41.45348" lon="2.19847">
        <ele>30.8</ele>
        <time>2021-11-13 11:14:35</time>
      </trkpt>
      <trkpt lat="41.45343" lon="2.19856">
        <ele>30.6</ele>
        <time>2021-11-13 11:14:36</time>
      </trkpt>
      <trkpt lat="41.45337" lon="2.19865">
        <ele>30.8</ele>
        <time>2021-11-13 11:14:37</time>
      </trkpt>
      <trkpt lat="41.45331" lon="2.19872">
        <ele>30.6</ele>
        <time>2021-11-13 11:14:38</time>
      </trkpt>
      <trkpt lat="41.45325" lon="2.1988">
        <ele>30.4</ele>
        <time>2021-11-13 11:14:39</time>
      </trkpt>
      <trkpt lat="41.45319" lon="2.19888">
        <ele>30.6</ele>
        <time>2021-11-13 11:14:40</time>
      </trkpt>
      <trkpt lat="41.45313" lon="2.19896">
        <ele>30.4</ele>
        <time>2021-11-13 11:14:41</time>
      </trkpt>
      <trkpt lat="41.45308" lon="2.19903">
        <ele>30.4</ele>
        <time>2021-11-13 11:14:42</time>
      </trkpt>
      <trkpt lat="41.45302" lon="2.19911">
        <ele>30.2</ele>
        <time>2021-11-13 11:14:43</time>
      </trkpt>
      <trkpt lat="41.45296" lon="2.19918">
        <ele>30.2</ele>
        <time>2021-11-13 11:14:44</time>
      </trkpt>
      <trkpt lat="41.4529" lon="2.19925">
        <ele>30</ele>
        <time>2021-11-13 11:14:45</time>
      </trkpt>
      <trkpt lat="41.45285" lon="2.19933">
        <ele>29.8</ele>
        <time>2021-11-13 11:14:46</time>
      </trkpt>
      <trkpt lat="41.45279" lon="2.1994">
        <ele>29.8</ele>
        <time>2021-11-13 11:14:47</time>
      </trkpt>
      <trkpt lat="41.45273" lon="2.19947">
        <ele>29.6</ele>
        <time>2021-11-13 11:14:48</time>
      </trkpt>
      <trkpt lat="41.45267" lon="2.19955">
        <ele>29.4</ele>
        <time>2021-11-13 11:14:49</time>
      </trkpt>
      <trkpt lat="41.45262" lon="2.19962">
        <ele>29.2</ele>
        <time>2021-11-13 11:14:50</time>
      </trkpt>
      <trkpt lat="41.45256" lon="2.19969">
        <ele>29.2</ele>
        <time>2021-11-13 11:14:51</time>
      </trkpt>
      <trkpt lat="41.4525" lon="2.19976">
        <ele>29</ele>
        <time>2021-11-13 11:14:52</time>
      </trkpt>
      <trkpt lat="41.45245" lon="2.19983">
        <ele>28.8</ele>
        <time>2021-11-13 11:14:53</time>
      </trkpt>
      <trkpt lat="41.4524" lon="2.1999">
        <ele>28.8</ele>
        <time>2021-11-13 11:14:54</time>
      </trkpt>
      <trkpt lat="41.45235" lon="2.19997">
        <ele>28.8</ele>
        <time>2021-11-13 11:14:55</time>
      </trkpt>
      <trkpt lat="41.4523" lon="2.20003">
        <ele>28.8</ele>
        <time>2021-11-13 11:14:56</time>
      </trkpt>
      <trkpt lat="41.45226" lon="2.20009">
        <ele>28.6</ele>
        <time>2021-11-13 11:14:57</time>
      </trkpt>
      <trkpt lat="41.45221" lon="2.20015">
        <ele>28.6</ele>
        <time>2021-11-13 11:14:58</time>
      </trkpt>
      <trkpt lat="41.45217" lon="2.2002">
        <ele>28.6</ele>
        <time>2021-11-13 11:14:59</time>
      </trkpt>
      <trkpt lat="41.45212" lon="2.20024">
        <ele>28.6</ele>
        <time>2021-11-13 11:15:00</time>
      </trkpt>
      <trkpt lat="41.45207" lon="2.20028">
        <ele>28.6</ele>
        <time>2021-11-13 11:15:01</time>
      </trkpt>
      <trkpt lat="41.45202" lon="2.20032">
        <ele>28.6</ele>
        <time>2021-11-13 11:15:02</time>
      </trkpt>
      <trkpt lat="41.45197" lon="2.20036">
        <ele>28.6</ele>
        <time>2021-11-13 11:15:03</time>
      </trkpt>
      <trkpt lat="41.45192" lon="2.2004">
        <ele>28.6</ele>
        <time>2021-11-13 11:15:04</time>
      </trkpt>
      <trkpt lat="41.45188" lon="2.20045">
        <ele>28.6</ele>
        <time>2021-11-13 11:15:05</time>
      </trkpt>
      <trkpt lat="41.45184" lon="2.2005">
        <ele>28.6</ele>
        <time>2021-11-13 11:15:06</time>
      </trkpt>
      <trkpt lat="41.4518" lon="2.20055">
        <ele>28.6</ele>
        <time>2021-11-13 11:15:07</time>
      </trkpt>
      <trkpt lat="41.45177" lon="2.2006">
        <ele>28.8</ele>
        <time>2021-11-13 11:15:08</time>
      </trkpt>
      <trkpt lat="41.45175" lon="2.20066">
        <ele>28.8</ele>
        <time>2021-11-13 11:15:09</time>
      </trkpt>
      <trkpt lat="41.45175" lon="2.20071">
        <ele>29</ele>
        <time>2021-11-13 11:15:10</time>
      </trkpt>
      <trkpt lat="41.45175" lon="2.20075">
        <ele>29.2</ele>
        <time>2021-11-13 11:15:11</time>
      </trkpt>
      <trkpt lat="41.45175" lon="2.20077">
        <ele>29.2</ele>
        <time>2021-11-13 11:15:12</time>
      </trkpt>
      <trkpt lat="41.45174" lon="2.20078">
        <ele>29.4</ele>
        <time>2021-11-13 11:15:13</time>
      </trkpt>
      <trkpt lat="41.45174" lon="2.20079">
        <ele>29.6</ele>
        <time>2021-11-13 11:15:14</time>
      </trkpt>
      <trkpt lat="41.45174" lon="2.2008">
        <ele>29.6</ele>
        <time>2021-11-13 11:15:15</time>
      </trkpt>
      <trkpt lat="41.45174" lon="2.20081">
        <ele>29.8</ele>
        <time>2021-11-13 11:15:16</time>
      </trkpt>
      <trkpt lat="41.45174" lon="2.20081">
        <ele>29.8</ele>
        <time>2021-11-13 11:15:17</time>
      </trkpt>
      <trkpt lat="41.45174" lon="2.20083">
        <ele>30</ele>
        <time>2021-11-13 11:15:18</time>
      </trkpt>
      <trkpt lat="41.45173" lon="2.20085">
        <ele>30</ele>
        <time>2021-11-13 11:15:19</time>
      </trkpt>
      <trkpt lat="41.45171" lon="2.20088">
        <ele>30</ele>
        <time>2021-11-13 11:15:20</time>
      </trkpt>
      <trkpt lat="41.45169" lon="2.2009">
        <ele>30</ele>
        <time>2021-11-13 11:15:21</time>
      </trkpt>
      <trkpt lat="41.45166" lon="2.20092">
        <ele>30</ele>
        <time>2021-11-13 11:15:22</time>
      </trkpt>
      <trkpt lat="41.45163" lon="2.20095">
        <ele>30</ele>
        <time>2021-11-13 11:15:23</time>
      </trkpt>
      <trkpt lat="41.45158" lon="2.20097">
        <ele>30</ele>
        <time>2021-11-13 11:15:24</time>
      </trkpt>
      <trkpt lat="41.45153" lon="2.20099">
        <ele>30</ele>
        <time>2021-11-13 11:15:25</time>
      </trkpt>
      <trkpt lat="41.45148" lon="2.20102">
        <ele>30</ele>
        <time>2021-11-13 11:15:26</time>
      </trkpt>
      <trkpt lat="41.45142" lon="2.20105">
        <ele>30</ele>
        <time>2021-11-13 11:15:27</time>
      </trkpt>
      <trkpt lat="41.45136" lon="2.20108">
        <ele>29.8</ele>
        <time>2021-11-13 11:15:28</time>
      </trkpt>
      <trkpt lat="41.4513" lon="2.20113">
        <ele>29.6</ele>
        <time>2021-11-13 11:15:29</time>
      </trkpt>
      <trkpt lat="41.45125" lon="2.20119">
        <ele>29.6</ele>
        <time>2021-11-13 11:15:30</time>
      </trkpt>
      <trkpt lat="41.4512" lon="2.20124">
        <ele>29.2</ele>
        <time>2021-11-13 11:15:31</time>
      </trkpt>
      <trkpt lat="41.45115" lon="2.2013">
        <ele>29</ele>
        <time>2021-11-13 11:15:32</time>
      </trkpt>
      <trkpt lat="41.4511" lon="2.20135">
        <ele>28.6</ele>
        <time>2021-11-13 11:15:33</time>
      </trkpt>
      <trkpt lat="41.45105" lon="2.20141">
        <ele>28.4</ele>
        <time>2021-11-13 11:15:34</time>
      </trkpt>
      <trkpt lat="41.45101" lon="2.20145">
        <ele>28.4</ele>
        <time>2021-11-13 11:15:35</time>
      </trkpt>
      <trkpt lat="41.45098" lon="2.20149">
        <ele>28</ele>
        <time>2021-11-13 11:15:36</time>
      </trkpt>
      <trkpt lat="41.45095" lon="2.20152">
        <ele>28</ele>
        <time>2021-11-13 11:15:37</time>
      </trkpt>
      <trkpt lat="41.45094" lon="2.20154">
        <ele>27.8</ele>
        <time>2021-11-13 11:15:38</time>
      </trkpt>
      <trkpt lat="41.45093" lon="2.20155">
        <ele>27.6</ele>
        <time>2021-11-13 11:15:39</time>
      </trkpt>
      <trkpt lat="41.45092" lon="2.20155">
        <ele>27.6</ele>
        <time>2021-11-13 11:15:40</time>
      </trkpt>
      <trkpt lat="41.45092" lon="2.20155">
        <ele>27.6</ele>
        <time>2021-11-13 11:15:41</time>
      </trkpt>
      <trkpt lat="41.45088" lon="2.20159">
        <ele>27</ele>
        <time>2021-11-13 11:15:48</time>
      </trkpt>
      <trkpt lat="41.45086" lon="2.20162">
        <ele>27</ele>
        <time>2021-11-13 11:15:49</time>
      </trkpt>
      <trkpt lat="41.45084" lon="2.20164">
        <ele>27</ele>
        <time>2021-11-13 11:15:50</time>
      </trkpt>
      <trkpt lat="41.45081" lon="2.20167">
        <ele>26.8</ele>
        <time>2021-11-13 11:15:51</time>
      </trkpt>
      <trkpt lat="41.45078" lon="2.2017">
        <ele>26.8</ele>
        <time>2021-11-13 11:15:52</time>
      </trkpt>
      <trkpt lat="41.45075" lon="2.20174">
        <ele>26.8</ele>
        <time>2021-11-13 11:15:53</time>
      </trkpt>
      <trkpt lat="41.4507" lon="2.20178">
        <ele>26.6</ele>
        <time>2021-11-13 11:15:54</time>
      </trkpt>
      <trkpt lat="41.45067" lon="2.2018">
        <ele>26.6</ele>
        <time>2021-11-13 11:15:55</time>
      </trkpt>
      <trkpt lat="41.45062" lon="2.20184">
        <ele>26.6</ele>
        <time>2021-11-13 11:15:56</time>
      </trkpt>
      <trkpt lat="41.45059" lon="2.20188">
        <ele>26.6</ele>
        <time>2021-11-13 11:15:57</time>
      </trkpt>
      <trkpt lat="41.45056" lon="2.20194">
        <ele>26.4</ele>
        <time>2021-11-13 11:15:58</time>
      </trkpt>
      <trkpt lat="41.45053" lon="2.20201">
        <ele>26.4</ele>
        <time>2021-11-13 11:15:59</time>
      </trkpt>
      <trkpt lat="41.45052" lon="2.20207">
        <ele>26.4</ele>
        <time>2021-11-13 11:16:00</time>
      </trkpt>
      <trkpt lat="41.45051" lon="2.20212">
        <ele>26.4</ele>
        <time>2021-11-13 11:16:01</time>
      </trkpt>
      <trkpt lat="41.45048" lon="2.20219">
        <ele>26.4</ele>
        <time>2021-11-13 11:16:02</time>
      </trkpt>
      <trkpt lat="41.45045" lon="2.20224">
        <ele>26.4</ele>
        <time>2021-11-13 11:16:03</time>
      </trkpt>
      <trkpt lat="41.45041" lon="2.20229">
        <ele>26.4</ele>
        <time>2021-11-13 11:16:04</time>
      </trkpt>
      <trkpt lat="41.45036" lon="2.20233">
        <ele>26.4</ele>
        <time>2021-11-13 11:16:05</time>
      </trkpt>
      <trkpt lat="41.45032" lon="2.20237">
        <ele>26.6</ele>
        <time>2021-11-13 11:16:06</time>
      </trkpt>
      <trkpt lat="41.45027" lon="2.20242">
        <ele>26.6</ele>
        <time>2021-11-13 11:16:07</time>
      </trkpt>
      <trkpt lat="41.45023" lon="2.20246">
        <ele>26.6</ele>
        <time>2021-11-13 11:16:08</time>
      </trkpt>
      <trkpt lat="41.45019" lon="2.2025">
        <ele>26.6</ele>
        <time>2021-11-13 11:16:09</time>
      </trkpt>
      <trkpt lat="41.45014" lon="2.20254">
        <ele>26.8</ele>
        <time>2021-11-13 11:16:10</time>
      </trkpt>
      <trkpt lat="41.4501" lon="2.20259">
        <ele>27</ele>
        <time>2021-11-13 11:16:11</time>
      </trkpt>
      <trkpt lat="41.45006" lon="2.20262">
        <ele>27</ele>
        <time>2021-11-13 11:16:12</time>
      </trkpt>
      <trkpt lat="41.45003" lon="2.20266">
        <ele>27.2</ele>
        <time>2021-11-13 11:16:13</time>
      </trkpt>
      <trkpt lat="41.44999" lon="2.20269">
        <ele>27.2</ele>
        <time>2021-11-13 11:16:14</time>
      </trkpt>
      <trkpt lat="41.44997" lon="2.20271">
        <ele>27.2</ele>
        <time>2021-11-13 11:16:15</time>
      </trkpt>
      <trkpt lat="41.44995" lon="2.20273">
        <ele>27.2</ele>
        <time>2021-11-13 11:16:16</time>
      </trkpt>
      <trkpt lat="41.44995" lon="2.20273">
        <ele>27.4</ele>
        <time>2021-11-13 11:16:17</time>
      </trkpt>
      <trkpt lat="41.44995" lon="2.20273">
        <ele>27.4</ele>
        <time>2021-11-13 11:16:18</time>
      </trkpt>
      <trkpt lat="41.44995" lon="2.20273">
        <ele>27.6</ele>
        <time>2021-11-13 11:16:19</time>
      </trkpt>
      <trkpt lat="41.44991" lon="2.20277">
        <ele>28.6</ele>
        <time>2021-11-13 11:16:33</time>
      </trkpt>
      <trkpt lat="41.44989" lon="2.20279">
        <ele>28.8</ele>
        <time>2021-11-13 11:16:34</time>
      </trkpt>
      <trkpt lat="41.44987" lon="2.20281">
        <ele>28.8</ele>
        <time>2021-11-13 11:16:35</time>
      </trkpt>
      <trkpt lat="41.44984" lon="2.20284">
        <ele>28.8</ele>
        <time>2021-11-13 11:16:36</time>
      </trkpt>
      <trkpt lat="41.44982" lon="2.20287">
        <ele>28.8</ele>
        <time>2021-11-13 11:16:37</time>
      </trkpt>
      <trkpt lat="41.44979" lon="2.2029">
        <ele>28.8</ele>
        <time>2021-11-13 11:16:38</time>
      </trkpt>
      <trkpt lat="41.44976" lon="2.20292">
        <ele>29</ele>
        <time>2021-11-13 11:16:39</time>
      </trkpt>
      <trkpt lat="41.44972" lon="2.20294">
        <ele>29</ele>
        <time>2021-11-13 11:16:40</time>
      </trkpt>
      <trkpt lat="41.44969" lon="2.20294">
        <ele>29</ele>
        <time>2021-11-13 11:16:41</time>
      </trkpt>
      <trkpt lat="41.44965" lon="2.20294">
        <ele>29</ele>
        <time>2021-11-13 11:16:42</time>
      </trkpt>
      <trkpt lat="41.44963" lon="2.20293">
        <ele>29</ele>
        <time>2021-11-13 11:16:43</time>
      </trkpt>
      <trkpt lat="41.4496" lon="2.20291">
        <ele>29.2</ele>
        <time>2021-11-13 11:16:44</time>
      </trkpt>
      <trkpt lat="41.44956" lon="2.20286">
        <ele>29.4</ele>
        <time>2021-11-13 11:16:45</time>
      </trkpt>
      <trkpt lat="41.44954" lon="2.20282">
        <ele>29.6</ele>
        <time>2021-11-13 11:16:46</time>
      </trkpt>
      <trkpt lat="41.44952" lon="2.20276">
        <ele>29.6</ele>
        <time>2021-11-13 11:16:47</time>
      </trkpt>
      <trkpt lat="41.4495" lon="2.20272">
        <ele>29.6</ele>
        <time>2021-11-13 11:16:48</time>
      </trkpt>
      <trkpt lat="41.44948" lon="2.20266">
        <ele>29.8</ele>
        <time>2021-11-13 11:16:49</time>
      </trkpt>
      <trkpt lat="41.44946" lon="2.20258">
        <ele>29.8</ele>
        <time>2021-11-13 11:16:50</time>
      </trkpt>
      <trkpt lat="41.44943" lon="2.20252">
        <ele>29.8</ele>
        <time>2021-11-13 11:16:51</time>
      </trkpt>
      <trkpt lat="41.44941" lon="2.20245">
        <ele>29.8</ele>
        <time>2021-11-13 11:16:52</time>
      </trkpt>
      <trkpt lat="41.4494" lon="2.20239">
        <ele>30</ele>
        <time>2021-11-13 11:16:53</time>
      </trkpt>
      <trkpt lat="41.44937" lon="2.20233">
        <ele>30</ele>
        <time>2021-11-13 11:16:54</time>
      </trkpt>
      <trkpt lat="41.44934" lon="2.20225">
        <ele>30</ele>
        <time>2021-11-13 11:16:55</time>
      </trkpt>
      <trkpt lat="41.44932" lon="2.20218">
        <ele>30</ele>
        <time>2021-11-13 11:16:56</time>
      </trkpt>
      <trkpt lat="41.4493" lon="2.20212">
        <ele>30</ele>
        <time>2021-11-13 11:16:57</time>
      </trkpt>
      <trkpt lat="41.44928" lon="2.20206">
        <ele>30</ele>
        <time>2021-11-13 11:16:58</time>
      </trkpt>
      <trkpt lat="41.44925" lon="2.202">
        <ele>30</ele>
        <time>2021-11-13 11:16:59</time>
      </trkpt>
      <trkpt lat="41.44923" lon="2.20193">
        <ele>30.2</ele>
        <time>2021-11-13 11:17:00</time>
      </trkpt>
      <trkpt lat="41.44921" lon="2.20186">
        <ele>30.2</ele>
        <time>2021-11-13 11:17:01</time>
      </trkpt>
      <trkpt lat="41.44919" lon="2.2018">
        <ele>30.2</ele>
        <time>2021-11-13 11:17:02</time>
      </trkpt>
      <trkpt lat="41.44917" lon="2.20174">
        <ele>30.2</ele>
        <time>2021-11-13 11:17:03</time>
      </trkpt>
      <trkpt lat="41.44914" lon="2.20167">
        <ele>30.4</ele>
        <time>2021-11-13 11:17:04</time>
      </trkpt>
      <trkpt lat="41.44912" lon="2.20161">
        <ele>30.6</ele>
        <time>2021-11-13 11:17:05</time>
      </trkpt>
      <trkpt lat="41.4491" lon="2.20154">
        <ele>30.8</ele>
        <time>2021-11-13 11:17:06</time>
      </trkpt>
      <trkpt lat="41.44908" lon="2.20148">
        <ele>30.8</ele>
        <time>2021-11-13 11:17:07</time>
      </trkpt>
      <trkpt lat="41.44906" lon="2.20142">
        <ele>30.8</ele>
        <time>2021-11-13 11:17:08</time>
      </trkpt>
      <trkpt lat="41.44904" lon="2.20136">
        <ele>30.8</ele>
        <time>2021-11-13 11:17:09</time>
      </trkpt>
      <trkpt lat="41.44902" lon="2.2013">
        <ele>30.8</ele>
        <time>2021-11-13 11:17:10</time>
      </trkpt>
      <trkpt lat="41.449" lon="2.20125">
        <ele>30.8</ele>
        <time>2021-11-13 11:17:11</time>
      </trkpt>
      <trkpt lat="41.44898" lon="2.20119">
        <ele>30.8</ele>
        <time>2021-11-13 11:17:12</time>
      </trkpt>
      <trkpt lat="41.44896" lon="2.20113">
        <ele>30.8</ele>
        <time>2021-11-13 11:17:13</time>
      </trkpt>
      <trkpt lat="41.44894" lon="2.20107">
        <ele>30.8</ele>
        <time>2021-11-13 11:17:14</time>
      </trkpt>
      <trkpt lat="41.44892" lon="2.20101">
        <ele>30.8</ele>
        <time>2021-11-13 11:17:15</time>
      </trkpt>
      <trkpt lat="41.44891" lon="2.20095">
        <ele>31</ele>
        <time>2021-11-13 11:17:16</time>
      </trkpt>
      <trkpt lat="41.44889" lon="2.20088">
        <ele>31</ele>
        <time>2021-11-13 11:17:17</time>
      </trkpt>
      <trkpt lat="41.44888" lon="2.20081">
        <ele>31</ele>
        <time>2021-11-13 11:17:18</time>
      </trkpt>
      <trkpt lat="41.44886" lon="2.20075">
        <ele>31</ele>
        <time>2021-11-13 11:17:19</time>
      </trkpt>
      <trkpt lat="41.44884" lon="2.20068">
        <ele>31</ele>
        <time>2021-11-13 11:17:20</time>
      </trkpt>
      <trkpt lat="41.44882" lon="2.20061">
        <ele>31.2</ele>
        <time>2021-11-13 11:17:21</time>
      </trkpt>
      <trkpt lat="41.4488" lon="2.20056">
        <ele>31.2</ele>
        <time>2021-11-13 11:17:22</time>
      </trkpt>
      <trkpt lat="41.44878" lon="2.2005">
        <ele>31.2</ele>
        <time>2021-11-13 11:17:23</time>
      </trkpt>
      <trkpt lat="41.44877" lon="2.20045">
        <ele>31.2</ele>
        <time>2021-11-13 11:17:24</time>
      </trkpt>
      <trkpt lat="41.44875" lon="2.2004">
        <ele>31.2</ele>
        <time>2021-11-13 11:17:25</time>
      </trkpt>
      <trkpt lat="41.44873" lon="2.20035">
        <ele>31.2</ele>
        <time>2021-11-13 11:17:26</time>
      </trkpt>
      <trkpt lat="41.44872" lon="2.2003">
        <ele>31.4</ele>
        <time>2021-11-13 11:17:27</time>
      </trkpt>
      <trkpt lat="41.4487" lon="2.20024">
        <ele>31.4</ele>
        <time>2021-11-13 11:17:28</time>
      </trkpt>
      <trkpt lat="41.44868" lon="2.20018">
        <ele>31.6</ele>
        <time>2021-11-13 11:17:29</time>
      </trkpt>
      <trkpt lat="41.44866" lon="2.20012">
        <ele>31.6</ele>
        <time>2021-11-13 11:17:30</time>
      </trkpt>
      <trkpt lat="41.44864" lon="2.20006">
        <ele>31.8</ele>
        <time>2021-11-13 11:17:31</time>
      </trkpt>
      <trkpt lat="41.44863" lon="2.2">
        <ele>31.8</ele>
        <time>2021-11-13 11:17:32</time>
      </trkpt>
      <trkpt lat="41.4486" lon="2.19994">
        <ele>32</ele>
        <time>2021-11-13 11:17:33</time>
      </trkpt>
      <trkpt lat="41.44858" lon="2.19986">
        <ele>32</ele>
        <time>2021-11-13 11:17:34</time>
      </trkpt>
      <trkpt lat="41.44856" lon="2.1998">
        <ele>32.2</ele>
        <time>2021-11-13 11:17:35</time>
      </trkpt>
      <trkpt lat="41.44853" lon="2.19973">
        <ele>32.2</ele>
        <time>2021-11-13 11:17:36</time>
      </trkpt>
      <trkpt lat="41.44851" lon="2.19966">
        <ele>32.4</ele>
        <time>2021-11-13 11:17:37</time>
      </trkpt>
      <trkpt lat="41.44848" lon="2.19959">
        <ele>32.4</ele>
        <time>2021-11-13 11:17:38</time>
      </trkpt>
      <trkpt lat="41.44846" lon="2.19953">
        <ele>32.6</ele>
        <time>2021-11-13 11:17:39</time>
      </trkpt>
      <trkpt lat="41.44842" lon="2.19944">
        <ele>32.8</ele>
        <time>2021-11-13 11:17:40</time>
      </trkpt>
      <trkpt lat="41.4484" lon="2.19937">
        <ele>33</ele>
        <time>2021-11-13 11:17:41</time>
      </trkpt>
      <trkpt lat="41.44838" lon="2.19932">
        <ele>33</ele>
        <time>2021-11-13 11:17:42</time>
      </trkpt>
      <trkpt lat="41.44835" lon="2.19923">
        <ele>33.2</ele>
        <time>2021-11-13 11:17:43</time>
      </trkpt>
      <trkpt lat="41.44833" lon="2.19918">
        <ele>33.4</ele>
        <time>2021-11-13 11:17:44</time>
      </trkpt>
      <trkpt lat="41.4483" lon="2.19911">
        <ele>33.6</ele>
        <time>2021-11-13 11:17:45</time>
      </trkpt>
      <trkpt lat="41.44828" lon="2.19904">
        <ele>33.6</ele>
        <time>2021-11-13 11:17:46</time>
      </trkpt>
      <trkpt lat="41.44825" lon="2.19897">
        <ele>33.6</ele>
        <time>2021-11-13 11:17:47</time>
      </trkpt>
      <trkpt lat="41.44823" lon="2.19889">
        <ele>33.8</ele>
        <time>2021-11-13 11:17:48</time>
      </trkpt>
      <trkpt lat="41.4482" lon="2.1988">
        <ele>33.8</ele>
        <time>2021-11-13 11:17:49</time>
      </trkpt>
      <trkpt lat="41.44817" lon="2.19873">
        <ele>34</ele>
        <time>2021-11-13 11:17:50</time>
      </trkpt>
      <trkpt lat="41.44815" lon="2.19867">
        <ele>34</ele>
        <time>2021-11-13 11:17:51</time>
      </trkpt>
      <trkpt lat="41.44813" lon="2.1986">
        <ele>34.4</ele>
        <time>2021-11-13 11:17:52</time>
      </trkpt>
      <trkpt lat="41.4481" lon="2.19851">
        <ele>34.6</ele>
        <time>2021-11-13 11:17:53</time>
      </trkpt>
      <trkpt lat="41.44808" lon="2.19843">
        <ele>34.8</ele>
        <time>2021-11-13 11:17:54</time>
      </trkpt>
      <trkpt lat="41.44806" lon="2.19837">
        <ele>35</ele>
        <time>2021-11-13 11:17:55</time>
      </trkpt>
      <trkpt lat="41.44803" lon="2.19829">
        <ele>35.2</ele>
        <time>2021-11-13 11:17:56</time>
      </trkpt>
      <trkpt lat="41.448" lon="2.1982">
        <ele>35.2</ele>
        <time>2021-11-13 11:17:57</time>
      </trkpt>
      <trkpt lat="41.44798" lon="2.19812">
        <ele>35.4</ele>
        <time>2021-11-13 11:17:58</time>
      </trkpt>
      <trkpt lat="41.44795" lon="2.19804">
        <ele>35.4</ele>
        <time>2021-11-13 11:17:59</time>
      </trkpt>
      <trkpt lat="41.44793" lon="2.19798">
        <ele>35.6</ele>
        <time>2021-11-13 11:18:00</time>
      </trkpt>
      <trkpt lat="41.44791" lon="2.19791">
        <ele>35.6</ele>
        <time>2021-11-13 11:18:01</time>
      </trkpt>
      <trkpt lat="41.44788" lon="2.19783">
        <ele>35.6</ele>
        <time>2021-11-13 11:18:02</time>
      </trkpt>
      <trkpt lat="41.44785" lon="2.19775">
        <ele>35.8</ele>
        <time>2021-11-13 11:18:03</time>
      </trkpt>
      <trkpt lat="41.44782" lon="2.19767">
        <ele>35.8</ele>
        <time>2021-11-13 11:18:04</time>
      </trkpt>
      <trkpt lat="41.4478" lon="2.19759">
        <ele>35.8</ele>
        <time>2021-11-13 11:18:05</time>
      </trkpt>
      <trkpt lat="41.44777" lon="2.19751">
        <ele>35.8</ele>
        <time>2021-11-13 11:18:06</time>
      </trkpt>
      <trkpt lat="41.44774" lon="2.19744">
        <ele>36</ele>
        <time>2021-11-13 11:18:07</time>
      </trkpt>
      <trkpt lat="41.44771" lon="2.19736">
        <ele>36</ele>
        <time>2021-11-13 11:18:08</time>
      </trkpt>
      <trkpt lat="41.44769" lon="2.19729">
        <ele>36</ele>
        <time>2021-11-13 11:18:09</time>
      </trkpt>
      <trkpt lat="41.44766" lon="2.19721">
        <ele>35.8</ele>
        <time>2021-11-13 11:18:10</time>
      </trkpt>
      <trkpt lat="41.44764" lon="2.19714">
        <ele>35.8</ele>
        <time>2021-11-13 11:18:11</time>
      </trkpt>
      <trkpt lat="41.44761" lon="2.19706">
        <ele>35.8</ele>
        <time>2021-11-13 11:18:12</time>
      </trkpt>
      <trkpt lat="41.44758" lon="2.19698">
        <ele>35.8</ele>
        <time>2021-11-13 11:18:13</time>
      </trkpt>
      <trkpt lat="41.44756" lon="2.19692">
        <ele>35.8</ele>
        <time>2021-11-13 11:18:14</time>
      </trkpt>
      <trkpt lat="41.44754" lon="2.19685">
        <ele>35.6</ele>
        <time>2021-11-13 11:18:15</time>
      </trkpt>
      <trkpt lat="41.44751" lon="2.19677">
        <ele>35.6</ele>
        <time>2021-11-13 11:18:16</time>
      </trkpt>
      <trkpt lat="41.44748" lon="2.1967">
        <ele>35.6</ele>
        <time>2021-11-13 11:18:17</time>
      </trkpt>
      <trkpt lat="41.44746" lon="2.19662">
        <ele>35.6</ele>
        <time>2021-11-13 11:18:18</time>
      </trkpt>
      <trkpt lat="41.44743" lon="2.19655">
        <ele>35.6</ele>
        <time>2021-11-13 11:18:19</time>
      </trkpt>
      <trkpt lat="41.4474" lon="2.19647">
        <ele>35.6</ele>
        <time>2021-11-13 11:18:20</time>
      </trkpt>
      <trkpt lat="41.44737" lon="2.19638">
        <ele>35.6</ele>
        <time>2021-11-13 11:18:21</time>
      </trkpt>
      <trkpt lat="41.44734" lon="2.19629">
        <ele>35.6</ele>
        <time>2021-11-13 11:18:22</time>
      </trkpt>
      <trkpt lat="41.44731" lon="2.19623">
        <ele>35.6</ele>
        <time>2021-11-13 11:18:23</time>
      </trkpt>
      <trkpt lat="41.44729" lon="2.19615">
        <ele>35.6</ele>
        <time>2021-11-13 11:18:24</time>
      </trkpt>
      <trkpt lat="41.44726" lon="2.19607">
        <ele>35.6</ele>
        <time>2021-11-13 11:18:25</time>
      </trkpt>
      <trkpt lat="41.44723" lon="2.19599">
        <ele>35.6</ele>
        <time>2021-11-13 11:18:26</time>
      </trkpt>
      <trkpt lat="41.4472" lon="2.19591">
        <ele>35.6</ele>
        <time>2021-11-13 11:18:27</time>
      </trkpt>
      <trkpt lat="41.44718" lon="2.19584">
        <ele>35.6</ele>
        <time>2021-11-13 11:18:28</time>
      </trkpt>
      <trkpt lat="41.44715" lon="2.19576">
        <ele>35.6</ele>
        <time>2021-11-13 11:18:29</time>
      </trkpt>
      <trkpt lat="41.44712" lon="2.19568">
        <ele>35.6</ele>
        <time>2021-11-13 11:18:30</time>
      </trkpt>
      <trkpt lat="41.44709" lon="2.19558">
        <ele>35.6</ele>
        <time>2021-11-13 11:18:31</time>
      </trkpt>
      <trkpt lat="41.44707" lon="2.19552">
        <ele>35.6</ele>
        <time>2021-11-13 11:18:32</time>
      </trkpt>
      <trkpt lat="41.44704" lon="2.19544">
        <ele>35.8</ele>
        <time>2021-11-13 11:18:33</time>
      </trkpt>
      <trkpt lat="41.44701" lon="2.19536">
        <ele>35.8</ele>
        <time>2021-11-13 11:18:34</time>
      </trkpt>
      <trkpt lat="41.44698" lon="2.19527">
        <ele>35.8</ele>
        <time>2021-11-13 11:18:35</time>
      </trkpt>
      <trkpt lat="41.44695" lon="2.19521">
        <ele>35.8</ele>
        <time>2021-11-13 11:18:36</time>
      </trkpt>
      <trkpt lat="41.44693" lon="2.19514">
        <ele>35.8</ele>
        <time>2021-11-13 11:18:37</time>
      </trkpt>
      <trkpt lat="41.4469" lon="2.19507">
        <ele>35.8</ele>
        <time>2021-11-13 11:18:38</time>
      </trkpt>
      <trkpt lat="41.44688" lon="2.195">
        <ele>35.8</ele>
        <time>2021-11-13 11:18:39</time>
      </trkpt>
      <trkpt lat="41.44685" lon="2.19492">
        <ele>35.8</ele>
        <time>2021-11-13 11:18:40</time>
      </trkpt>
      <trkpt lat="41.44683" lon="2.19487">
        <ele>35.8</ele>
        <time>2021-11-13 11:18:41</time>
      </trkpt>
      <trkpt lat="41.44681" lon="2.1948">
        <ele>35.8</ele>
        <time>2021-11-13 11:18:42</time>
      </trkpt>
      <trkpt lat="41.44679" lon="2.19474">
        <ele>36</ele>
        <time>2021-11-13 11:18:43</time>
      </trkpt>
      <trkpt lat="41.44676" lon="2.19466">
        <ele>36</ele>
        <time>2021-11-13 11:18:44</time>
      </trkpt>
      <trkpt lat="41.44674" lon="2.19461">
        <ele>36</ele>
        <time>2021-11-13 11:18:45</time>
      </trkpt>
      <trkpt lat="41.44671" lon="2.19454">
        <ele>36</ele>
        <time>2021-11-13 11:18:46</time>
      </trkpt>
      <trkpt lat="41.44669" lon="2.19447">
        <ele>36.2</ele>
        <time>2021-11-13 11:18:47</time>
      </trkpt>
      <trkpt lat="41.44666" lon="2.19439">
        <ele>36.2</ele>
        <time>2021-11-13 11:18:48</time>
      </trkpt>
      <trkpt lat="41.44662" lon="2.1943">
        <ele>36.2</ele>
        <time>2021-11-13 11:18:49</time>
      </trkpt>
      <trkpt lat="41.4466" lon="2.19424">
        <ele>36.2</ele>
        <time>2021-11-13 11:18:50</time>
      </trkpt>
      <trkpt lat="41.44657" lon="2.19417">
        <ele>36.2</ele>
        <time>2021-11-13 11:18:51</time>
      </trkpt>
      <trkpt lat="41.44654" lon="2.19409">
        <ele>36.2</ele>
        <time>2021-11-13 11:18:52</time>
      </trkpt>
      <trkpt lat="41.44652" lon="2.19402">
        <ele>36.2</ele>
        <time>2021-11-13 11:18:53</time>
      </trkpt>
      <trkpt lat="41.44649" lon="2.19395">
        <ele>36.2</ele>
        <time>2021-11-13 11:18:54</time>
      </trkpt>
      <trkpt lat="41.44647" lon="2.19387">
        <ele>36.2</ele>
        <time>2021-11-13 11:18:55</time>
      </trkpt>
      <trkpt lat="41.44644" lon="2.19379">
        <ele>36.2</ele>
        <time>2021-11-13 11:18:56</time>
      </trkpt>
      <trkpt lat="41.44642" lon="2.19371">
        <ele>36.2</ele>
        <time>2021-11-13 11:18:57</time>
      </trkpt>
      <trkpt lat="41.44639" lon="2.19364">
        <ele>36.2</ele>
        <time>2021-11-13 11:18:58</time>
      </trkpt>
      <trkpt lat="41.44637" lon="2.19357">
        <ele>36.2</ele>
        <time>2021-11-13 11:18:59</time>
      </trkpt>
      <trkpt lat="41.44634" lon="2.19349">
        <ele>36.2</ele>
        <time>2021-11-13 11:19:00</time>
      </trkpt>
      <trkpt lat="41.44631" lon="2.19341">
        <ele>36.2</ele>
        <time>2021-11-13 11:19:01</time>
      </trkpt>
      <trkpt lat="41.44629" lon="2.19334">
        <ele>36.2</ele>
        <time>2021-11-13 11:19:02</time>
      </trkpt>
      <trkpt lat="41.44626" lon="2.19326">
        <ele>36.2</ele>
        <time>2021-11-13 11:19:03</time>
      </trkpt>
      <trkpt lat="41.44623" lon="2.19318">
        <ele>36.2</ele>
        <time>2021-11-13 11:19:04</time>
      </trkpt>
      <trkpt lat="41.4462" lon="2.1931">
        <ele>36.4</ele>
        <time>2021-11-13 11:19:05</time>
      </trkpt>
      <trkpt lat="41.44617" lon="2.19302">
        <ele>36.4</ele>
        <time>2021-11-13 11:19:06</time>
      </trkpt>
      <trkpt lat="41.44615" lon="2.19295">
        <ele>36.4</ele>
        <time>2021-11-13 11:19:07</time>
      </trkpt>
      <trkpt lat="41.44612" lon="2.19287">
        <ele>36.4</ele>
        <time>2021-11-13 11:19:08</time>
      </trkpt>
      <trkpt lat="41.44609" lon="2.19279">
        <ele>36.6</ele>
        <time>2021-11-13 11:19:09</time>
      </trkpt>
      <trkpt lat="41.44607" lon="2.19271">
        <ele>36.6</ele>
        <time>2021-11-13 11:19:10</time>
      </trkpt>
      <trkpt lat="41.44604" lon="2.19263">
        <ele>36.8</ele>
        <time>2021-11-13 11:19:11</time>
      </trkpt>
      <trkpt lat="41.44602" lon="2.19255">
        <ele>36.8</ele>
        <time>2021-11-13 11:19:12</time>
      </trkpt>
      <trkpt lat="41.44599" lon="2.19248">
        <ele>36.8</ele>
        <time>2021-11-13 11:19:13</time>
      </trkpt>
      <trkpt lat="41.44596" lon="2.1924">
        <ele>37</ele>
        <time>2021-11-13 11:19:14</time>
      </trkpt>
      <trkpt lat="41.44594" lon="2.19233">
        <ele>37</ele>
        <time>2021-11-13 11:19:15</time>
      </trkpt>
      <trkpt lat="41.44591" lon="2.19226">
        <ele>37</ele>
        <time>2021-11-13 11:19:16</time>
      </trkpt>
      <trkpt lat="41.44588" lon="2.19218">
        <ele>37</ele>
        <time>2021-11-13 11:19:17</time>
      </trkpt>
      <trkpt lat="41.44586" lon="2.1921">
        <ele>37.2</ele>
        <time>2021-11-13 11:19:18</time>
      </trkpt>
      <trkpt lat="41.44583" lon="2.19202">
        <ele>37.2</ele>
        <time>2021-11-13 11:19:19</time>
      </trkpt>
      <trkpt lat="41.44581" lon="2.19195">
        <ele>37.4</ele>
        <time>2021-11-13 11:19:20</time>
      </trkpt>
      <trkpt lat="41.44578" lon="2.19188">
        <ele>37.6</ele>
        <time>2021-11-13 11:19:21</time>
      </trkpt>
      <trkpt lat="41.44576" lon="2.1918">
        <ele>37.6</ele>
        <time>2021-11-13 11:19:22</time>
      </trkpt>
      <trkpt lat="41.44573" lon="2.19173">
        <ele>37.6</ele>
        <time>2021-11-13 11:19:23</time>
      </trkpt>
      <trkpt lat="41.44571" lon="2.19166">
        <ele>37.6</ele>
        <time>2021-11-13 11:19:24</time>
      </trkpt>
      <trkpt lat="41.44568" lon="2.19158">
        <ele>37.8</ele>
        <time>2021-11-13 11:19:25</time>
      </trkpt>
      <trkpt lat="41.44564" lon="2.19151">
        <ele>37.8</ele>
        <time>2021-11-13 11:19:26</time>
      </trkpt>
      <trkpt lat="41.44561" lon="2.19144">
        <ele>37.8</ele>
        <time>2021-11-13 11:19:27</time>
      </trkpt>
      <trkpt lat="41.44558" lon="2.19136">
        <ele>38</ele>
        <time>2021-11-13 11:19:28</time>
      </trkpt>
      <trkpt lat="41.44556" lon="2.19129">
        <ele>38</ele>
        <time>2021-11-13 11:19:29</time>
      </trkpt>
      <trkpt lat="41.44553" lon="2.19121">
        <ele>38.2</ele>
        <time>2021-11-13 11:19:30</time>
      </trkpt>
      <trkpt lat="41.44551" lon="2.19114">
        <ele>38.2</ele>
        <time>2021-11-13 11:19:31</time>
      </trkpt>
      <trkpt lat="41.44548" lon="2.19106">
        <ele>38.2</ele>
        <time>2021-11-13 11:19:32</time>
      </trkpt>
      <trkpt lat="41.44545" lon="2.19098">
        <ele>38.4</ele>
        <time>2021-11-13 11:19:33</time>
      </trkpt>
      <trkpt lat="41.44543" lon="2.1909">
        <ele>38.4</ele>
        <time>2021-11-13 11:19:34</time>
      </trkpt>
      <trkpt lat="41.44541" lon="2.19082">
        <ele>38.6</ele>
        <time>2021-11-13 11:19:35</time>
      </trkpt>
      <trkpt lat="41.44538" lon="2.19075">
        <ele>38.6</ele>
        <time>2021-11-13 11:19:36</time>
      </trkpt>
      <trkpt lat="41.44535" lon="2.19067">
        <ele>38.8</ele>
        <time>2021-11-13 11:19:37</time>
      </trkpt>
      <trkpt lat="41.44532" lon="2.19059">
        <ele>38.8</ele>
        <time>2021-11-13 11:19:38</time>
      </trkpt>
      <trkpt lat="41.44529" lon="2.19051">
        <ele>39</ele>
        <time>2021-11-13 11:19:39</time>
      </trkpt>
      <trkpt lat="41.44527" lon="2.19043">
        <ele>39</ele>
        <time>2021-11-13 11:19:40</time>
      </trkpt>
      <trkpt lat="41.44525" lon="2.19035">
        <ele>39.2</ele>
        <time>2021-11-13 11:19:41</time>
      </trkpt>
      <trkpt lat="41.44523" lon="2.19026">
        <ele>39.4</ele>
        <time>2021-11-13 11:19:42</time>
      </trkpt>
      <trkpt lat="41.4452" lon="2.19019">
        <ele>39.6</ele>
        <time>2021-11-13 11:19:43</time>
      </trkpt>
      <trkpt lat="41.44517" lon="2.19011">
        <ele>39.8</ele>
        <time>2021-11-13 11:19:44</time>
      </trkpt>
      <trkpt lat="41.44515" lon="2.19003">
        <ele>39.8</ele>
        <time>2021-11-13 11:19:45</time>
      </trkpt>
      <trkpt lat="41.44512" lon="2.18995">
        <ele>40</ele>
        <time>2021-11-13 11:19:46</time>
      </trkpt>
      <trkpt lat="41.44509" lon="2.18987">
        <ele>40</ele>
        <time>2021-11-13 11:19:47</time>
      </trkpt>
      <trkpt lat="41.44506" lon="2.18979">
        <ele>40.2</ele>
        <time>2021-11-13 11:19:48</time>
      </trkpt>
      <trkpt lat="41.44504" lon="2.18972">
        <ele>40.2</ele>
        <time>2021-11-13 11:19:49</time>
      </trkpt>
      <trkpt lat="41.44501" lon="2.18964">
        <ele>40.4</ele>
        <time>2021-11-13 11:19:50</time>
      </trkpt>
      <trkpt lat="41.44498" lon="2.18956">
        <ele>40.4</ele>
        <time>2021-11-13 11:19:51</time>
      </trkpt>
      <trkpt lat="41.44495" lon="2.18949">
        <ele>40.6</ele>
        <time>2021-11-13 11:19:52</time>
      </trkpt>
      <trkpt lat="41.44493" lon="2.18942">
        <ele>40.8</ele>
        <time>2021-11-13 11:19:53</time>
      </trkpt>
      <trkpt lat="41.4449" lon="2.18935">
        <ele>41</ele>
        <time>2021-11-13 11:19:54</time>
      </trkpt>
      <trkpt lat="41.44487" lon="2.18926">
        <ele>41</ele>
        <time>2021-11-13 11:19:55</time>
      </trkpt>
      <trkpt lat="41.44486" lon="2.18921">
        <ele>41.2</ele>
        <time>2021-11-13 11:19:56</time>
      </trkpt>
      <trkpt lat="41.44484" lon="2.18915">
        <ele>41.2</ele>
        <time>2021-11-13 11:19:57</time>
      </trkpt>
      <trkpt lat="41.44482" lon="2.18909">
        <ele>41.2</ele>
        <time>2021-11-13 11:19:58</time>
      </trkpt>
      <trkpt lat="41.4448" lon="2.18903">
        <ele>41.4</ele>
        <time>2021-11-13 11:19:59</time>
      </trkpt>
      <trkpt lat="41.44478" lon="2.18897">
        <ele>41.6</ele>
        <time>2021-11-13 11:20:00</time>
      </trkpt>
      <trkpt lat="41.44477" lon="2.18892">
        <ele>41.6</ele>
        <time>2021-11-13 11:20:01</time>
      </trkpt>
      <trkpt lat="41.44475" lon="2.18888">
        <ele>42</ele>
        <time>2021-11-13 11:20:02</time>
      </trkpt>
      <trkpt lat="41.44474" lon="2.18883">
        <ele>42</ele>
        <time>2021-11-13 11:20:03</time>
      </trkpt>
      <trkpt lat="41.44472" lon="2.18879">
        <ele>42.4</ele>
        <time>2021-11-13 11:20:04</time>
      </trkpt>
      <trkpt lat="41.44472" lon="2.18876">
        <ele>42.4</ele>
        <time>2021-11-13 11:20:05</time>
      </trkpt>
      <trkpt lat="41.44471" lon="2.18874">
        <ele>42.6</ele>
        <time>2021-11-13 11:20:06</time>
      </trkpt>
      <trkpt lat="41.4447" lon="2.18871">
        <ele>42.6</ele>
        <time>2021-11-13 11:20:07</time>
      </trkpt>
      <trkpt lat="41.4447" lon="2.18869">
        <ele>42.6</ele>
        <time>2021-11-13 11:20:08</time>
      </trkpt>
      <trkpt lat="41.4447" lon="2.18865">
        <ele>43</ele>
        <time>2021-11-13 11:20:09</time>
      </trkpt>
      <trkpt lat="41.44469" lon="2.18862">
        <ele>43</ele>
        <time>2021-11-13 11:20:10</time>
      </trkpt>
      <trkpt lat="41.44468" lon="2.18858">
        <ele>43.2</ele>
        <time>2021-11-13 11:20:11</time>
      </trkpt>
      <trkpt lat="41.44467" lon="2.18853">
        <ele>43.2</ele>
        <time>2021-11-13 11:20:12</time>
      </trkpt>
      <trkpt lat="41.44465" lon="2.18849">
        <ele>43.2</ele>
        <time>2021-11-13 11:20:13</time>
      </trkpt>
      <trkpt lat="41.44462" lon="2.18844">
        <ele>43.2</ele>
        <time>2021-11-13 11:20:14</time>
      </trkpt>
      <trkpt lat="41.4446" lon="2.18839">
        <ele>43.4</ele>
        <time>2021-11-13 11:20:15</time>
      </trkpt>
      <trkpt lat="41.44458" lon="2.18834">
        <ele>43.4</ele>
        <time>2021-11-13 11:20:16</time>
      </trkpt>
      <trkpt lat="41.44456" lon="2.1883">
        <ele>43.4</ele>
        <time>2021-11-13 11:20:17</time>
      </trkpt>
      <trkpt lat="41.44455" lon="2.18827">
        <ele>43.4</ele>
        <time>2021-11-13 11:20:18</time>
      </trkpt>
      <trkpt lat="41.44454" lon="2.18825">
        <ele>43.4</ele>
        <time>2021-11-13 11:20:19</time>
      </trkpt>
      <trkpt lat="41.44453" lon="2.18824">
        <ele>43.6</ele>
        <time>2021-11-13 11:20:20</time>
      </trkpt>
      <trkpt lat="41.44452" lon="2.18822">
        <ele>43.6</ele>
        <time>2021-11-13 11:20:21</time>
      </trkpt>
      <trkpt lat="41.44451" lon="2.18819">
        <ele>43.6</ele>
        <time>2021-11-13 11:20:22</time>
      </trkpt>
      <trkpt lat="41.44449" lon="2.18815">
        <ele>43.6</ele>
        <time>2021-11-13 11:20:23</time>
      </trkpt>
      <trkpt lat="41.44447" lon="2.1881">
        <ele>43.8</ele>
        <time>2021-11-13 11:20:24</time>
      </trkpt>
      <trkpt lat="41.44446" lon="2.18805">
        <ele>44</ele>
        <time>2021-11-13 11:20:25</time>
      </trkpt>
      <trkpt lat="41.44444" lon="2.188">
        <ele>44</ele>
        <time>2021-11-13 11:20:26</time>
      </trkpt>
      <trkpt lat="41.44442" lon="2.18794">
        <ele>44</ele>
        <time>2021-11-13 11:20:27</time>
      </trkpt>
      <trkpt lat="41.4444" lon="2.18787">
        <ele>44.2</ele>
        <time>2021-11-13 11:20:28</time>
      </trkpt>
      <trkpt lat="41.44439" lon="2.18783">
        <ele>44.2</ele>
        <time>2021-11-13 11:20:29</time>
      </trkpt>
      <trkpt lat="41.44437" lon="2.18778">
        <ele>44.4</ele>
        <time>2021-11-13 11:20:30</time>
      </trkpt>
      <trkpt lat="41.44436" lon="2.18774">
        <ele>44.6</ele>
        <time>2021-11-13 11:20:31</time>
      </trkpt>
      <trkpt lat="41.44434" lon="2.18769">
        <ele>45.2</ele>
        <time>2021-11-13 11:20:32</time>
      </trkpt>
      <trkpt lat="41.44432" lon="2.18765">
        <ele>45.6</ele>
        <time>2021-11-13 11:20:33</time>
      </trkpt>
      <trkpt lat="41.44431" lon="2.1876">
        <ele>46</ele>
        <time>2021-11-13 11:20:34</time>
      </trkpt>
      <trkpt lat="41.44429" lon="2.18756">
        <ele>46.2</ele>
        <time>2021-11-13 11:20:35</time>
      </trkpt>
      <trkpt lat="41.44427" lon="2.18752">
        <ele>46.8</ele>
        <time>2021-11-13 11:20:36</time>
      </trkpt>
      <trkpt lat="41.44426" lon="2.18748">
        <ele>47</ele>
        <time>2021-11-13 11:20:37</time>
      </trkpt>
      <trkpt lat="41.44424" lon="2.18744">
        <ele>47.6</ele>
        <time>2021-11-13 11:20:38</time>
      </trkpt>
      <trkpt lat="41.44423" lon="2.1874">
        <ele>47.8</ele>
        <time>2021-11-13 11:20:39</time>
      </trkpt>
      <trkpt lat="41.44422" lon="2.18737">
        <ele>48</ele>
        <time>2021-11-13 11:20:40</time>
      </trkpt>
      <trkpt lat="41.44421" lon="2.18733">
        <ele>48.4</ele>
        <time>2021-11-13 11:20:41</time>
      </trkpt>
      <trkpt lat="41.4442" lon="2.18729">
        <ele>48.6</ele>
        <time>2021-11-13 11:20:42</time>
      </trkpt>
      <trkpt lat="41.44419" lon="2.18725">
        <ele>49.2</ele>
        <time>2021-11-13 11:20:43</time>
      </trkpt>
      <trkpt lat="41.44418" lon="2.18721">
        <ele>49.6</ele>
        <time>2021-11-13 11:20:44</time>
      </trkpt>
      <trkpt lat="41.44416" lon="2.18717">
        <ele>50.2</ele>
        <time>2021-11-13 11:20:45</time>
      </trkpt>
      <trkpt lat="41.44415" lon="2.18713">
        <ele>50.4</ele>
        <time>2021-11-13 11:20:46</time>
      </trkpt>
      <trkpt lat="41.44414" lon="2.1871">
        <ele>50.8</ele>
        <time>2021-11-13 11:20:47</time>
      </trkpt>
      <trkpt lat="41.44413" lon="2.18708">
        <ele>50.8</ele>
        <time>2021-11-13 11:20:48</time>
      </trkpt>
      <trkpt lat="41.44413" lon="2.18705">
        <ele>51.2</ele>
        <time>2021-11-13 11:20:49</time>
      </trkpt>
      <trkpt lat="41.44411" lon="2.18703">
        <ele>51.6</ele>
        <time>2021-11-13 11:20:50</time>
      </trkpt>
      <trkpt lat="41.44411" lon="2.18703">
        <ele>51.8</ele>
        <time>2021-11-13 11:20:51</time>
      </trkpt>
      <trkpt lat="41.44411" lon="2.18703">
        <ele>52</ele>
        <time>2021-11-13 11:20:52</time>
      </trkpt>
      <trkpt lat="41.44411" lon="2.18703">
        <ele>52.2</ele>
        <time>2021-11-13 11:20:53</time>
      </trkpt>
      <trkpt lat="41.4441" lon="2.18699">
        <ele>54.6</ele>
        <time>2021-11-13 11:21:31</time>
      </trkpt>
      <trkpt lat="41.44409" lon="2.18695">
        <ele>54.6</ele>
        <time>2021-11-13 11:21:32</time>
      </trkpt>
      <trkpt lat="41.44407" lon="2.18691">
        <ele>54.6</ele>
        <time>2021-11-13 11:21:33</time>
      </trkpt>
      <trkpt lat="41.44405" lon="2.18686">
        <ele>54.6</ele>
        <time>2021-11-13 11:21:34</time>
      </trkpt>
      <trkpt lat="41.44403" lon="2.18681">
        <ele>54.6</ele>
        <time>2021-11-13 11:21:35</time>
      </trkpt>
      <trkpt lat="41.44401" lon="2.18675">
        <ele>54.6</ele>
        <time>2021-11-13 11:21:36</time>
      </trkpt>
      <trkpt lat="41.44398" lon="2.1867">
        <ele>54.6</ele>
        <time>2021-11-13 11:21:37</time>
      </trkpt>
      <trkpt lat="41.44394" lon="2.18665">
        <ele>54.6</ele>
        <time>2021-11-13 11:21:38</time>
      </trkpt>
      <trkpt lat="41.4439" lon="2.18661">
        <ele>54.6</ele>
        <time>2021-11-13 11:21:39</time>
      </trkpt>
      <trkpt lat="41.44386" lon="2.18658">
        <ele>54.8</ele>
        <time>2021-11-13 11:21:40</time>
      </trkpt>
      <trkpt lat="41.44382" lon="2.18656">
        <ele>54.8</ele>
        <time>2021-11-13 11:21:41</time>
      </trkpt>
      <trkpt lat="41.44377" lon="2.18653">
        <ele>54.8</ele>
        <time>2021-11-13 11:21:42</time>
      </trkpt>
      <trkpt lat="41.44373" lon="2.18652">
        <ele>55</ele>
        <time>2021-11-13 11:21:43</time>
      </trkpt>
      <trkpt lat="41.44369" lon="2.1865">
        <ele>55</ele>
        <time>2021-11-13 11:21:44</time>
      </trkpt>
      <trkpt lat="41.44365" lon="2.18648">
        <ele>55</ele>
        <time>2021-11-13 11:21:45</time>
      </trkpt>
      <trkpt lat="41.4436" lon="2.18646">
        <ele>55</ele>
        <time>2021-11-13 11:21:46</time>
      </trkpt>
      <trkpt lat="41.44357" lon="2.18644">
        <ele>55</ele>
        <time>2021-11-13 11:21:47</time>
      </trkpt>
      <trkpt lat="41.44353" lon="2.18643">
        <ele>55.2</ele>
        <time>2021-11-13 11:21:48</time>
      </trkpt>
      <trkpt lat="41.4435" lon="2.18642">
        <ele>55.2</ele>
        <time>2021-11-13 11:21:49</time>
      </trkpt>
      <trkpt lat="41.44348" lon="2.18641">
        <ele>55.4</ele>
        <time>2021-11-13 11:21:50</time>
      </trkpt>
      <trkpt lat="41.44347" lon="2.18641">
        <ele>55.6</ele>
        <time>2021-11-13 11:21:51</time>
      </trkpt>
      <trkpt lat="41.44346" lon="2.18641">
        <ele>55.6</ele>
        <time>2021-11-13 11:21:52</time>
      </trkpt>
      <trkpt lat="41.44346" lon="2.18641">
        <ele>55.6</ele>
        <time>2021-11-13 11:21:53</time>
      </trkpt>
      <trkpt lat="41.44346" lon="2.18641">
        <ele>55.6</ele>
        <time>2021-11-13 11:21:54</time>
      </trkpt>
      <trkpt lat="41.44343" lon="2.1864">
        <ele>55.2</ele>
        <time>2021-11-13 11:22:38</time>
      </trkpt>
      <trkpt lat="41.4434" lon="2.18639">
        <ele>55</ele>
        <time>2021-11-13 11:22:39</time>
      </trkpt>
      <trkpt lat="41.44336" lon="2.18638">
        <ele>55</ele>
        <time>2021-11-13 11:22:40</time>
      </trkpt>
      <trkpt lat="41.44333" lon="2.18637">
        <ele>55</ele>
        <time>2021-11-13 11:22:41</time>
      </trkpt>
      <trkpt lat="41.44328" lon="2.18635">
        <ele>55</ele>
        <time>2021-11-13 11:22:42</time>
      </trkpt>
      <trkpt lat="41.44324" lon="2.18634">
        <ele>55</ele>
        <time>2021-11-13 11:22:43</time>
      </trkpt>
      <trkpt lat="41.4432" lon="2.18633">
        <ele>55</ele>
        <time>2021-11-13 11:22:44</time>
      </trkpt>
      <trkpt lat="41.44315" lon="2.18631">
        <ele>55</ele>
        <time>2021-11-13 11:22:45</time>
      </trkpt>
      <trkpt lat="41.4431" lon="2.18629">
        <ele>55</ele>
        <time>2021-11-13 11:22:46</time>
      </trkpt>
      <trkpt lat="41.44305" lon="2.18627">
        <ele>55</ele>
        <time>2021-11-13 11:22:47</time>
      </trkpt>
      <trkpt lat="41.443" lon="2.18625">
        <ele>55</ele>
        <time>2021-11-13 11:22:48</time>
      </trkpt>
      <trkpt lat="41.44294" lon="2.18623">
        <ele>55</ele>
        <time>2021-11-13 11:22:49</time>
      </trkpt>
      <trkpt lat="41.44288" lon="2.18621">
        <ele>55</ele>
        <time>2021-11-13 11:22:50</time>
      </trkpt>
      <trkpt lat="41.44282" lon="2.18619">
        <ele>55</ele>
        <time>2021-11-13 11:22:51</time>
      </trkpt>
      <trkpt lat="41.44275" lon="2.18617">
        <ele>55.2</ele>
        <time>2021-11-13 11:22:52</time>
      </trkpt>
      <trkpt lat="41.4427" lon="2.18616">
        <ele>55.2</ele>
        <time>2021-11-13 11:22:53</time>
      </trkpt>
      <trkpt lat="41.44263" lon="2.18614">
        <ele>55.2</ele>
        <time>2021-11-13 11:22:54</time>
      </trkpt>
      <trkpt lat="41.44255" lon="2.18612">
        <ele>55.2</ele>
        <time>2021-11-13 11:22:55</time>
      </trkpt>
      <trkpt lat="41.44249" lon="2.18611">
        <ele>55.2</ele>
        <time>2021-11-13 11:22:56</time>
      </trkpt>
      <trkpt lat="41.4424" lon="2.18608">
        <ele>55.2</ele>
        <time>2021-11-13 11:22:57</time>
      </trkpt>
      <trkpt lat="41.44234" lon="2.18607">
        <ele>55.2</ele>
        <time>2021-11-13 11:22:58</time>
      </trkpt>
      <trkpt lat="41.44227" lon="2.18605">
        <ele>55.4</ele>
        <time>2021-11-13 11:22:59</time>
      </trkpt>
      <trkpt lat="41.44218" lon="2.18602">
        <ele>55.4</ele>
        <time>2021-11-13 11:23:00</time>
      </trkpt>
      <trkpt lat="41.44212" lon="2.18601">
        <ele>55.4</ele>
        <time>2021-11-13 11:23:01</time>
      </trkpt>
      <trkpt lat="41.44205" lon="2.18599">
        <ele>55.4</ele>
        <time>2021-11-13 11:23:02</time>
      </trkpt>
      <trkpt lat="41.44198" lon="2.18597">
        <ele>55.4</ele>
        <time>2021-11-13 11:23:03</time>
      </trkpt>
      <trkpt lat="41.4419" lon="2.18594">
        <ele>55.8</ele>
        <time>2021-11-13 11:23:04</time>
      </trkpt>
      <trkpt lat="41.44183" lon="2.18592">
        <ele>55.8</ele>
        <time>2021-11-13 11:23:05</time>
      </trkpt>
      <trkpt lat="41.44175" lon="2.18589">
        <ele>55.8</ele>
        <time>2021-11-13 11:23:06</time>
      </trkpt>
      <trkpt lat="41.44167" lon="2.18587">
        <ele>55.8</ele>
        <time>2021-11-13 11:23:07</time>
      </trkpt>
      <trkpt lat="41.44159" lon="2.18585">
        <ele>56</ele>
        <time>2021-11-13 11:23:08</time>
      </trkpt>
      <trkpt lat="41.44151" lon="2.18582">
        <ele>56</ele>
        <time>2021-11-13 11:23:09</time>
      </trkpt>
      <trkpt lat="41.44143" lon="2.18579">
        <ele>56.2</ele>
        <time>2021-11-13 11:23:10</time>
      </trkpt>
      <trkpt lat="41.44135" lon="2.18577">
        <ele>56.2</ele>
        <time>2021-11-13 11:23:11</time>
      </trkpt>
      <trkpt lat="41.44127" lon="2.18574">
        <ele>56.4</ele>
        <time>2021-11-13 11:23:12</time>
      </trkpt>
      <trkpt lat="41.44119" lon="2.18571">
        <ele>56.6</ele>
        <time>2021-11-13 11:23:13</time>
      </trkpt>
      <trkpt lat="41.44112" lon="2.18569">
        <ele>56.6</ele>
        <time>2021-11-13 11:23:14</time>
      </trkpt>
      <trkpt lat="41.44102" lon="2.18566">
        <ele>56.6</ele>
        <time>2021-11-13 11:23:15</time>
      </trkpt>
      <trkpt lat="41.44096" lon="2.18564">
        <ele>56.8</ele>
        <time>2021-11-13 11:23:16</time>
      </trkpt>
      <trkpt lat="41.44089" lon="2.18562">
        <ele>56.8</ele>
        <time>2021-11-13 11:23:17</time>
      </trkpt>
      <trkpt lat="41.44081" lon="2.1856">
        <ele>56.8</ele>
        <time>2021-11-13 11:23:18</time>
      </trkpt>
      <trkpt lat="41.44074" lon="2.18557">
        <ele>57</ele>
        <time>2021-11-13 11:23:19</time>
      </trkpt>
      <trkpt lat="41.44065" lon="2.18554">
        <ele>57.2</ele>
        <time>2021-11-13 11:23:20</time>
      </trkpt>
      <trkpt lat="41.44059" lon="2.18552">
        <ele>57.2</ele>
        <time>2021-11-13 11:23:21</time>
      </trkpt>
      <trkpt lat="41.44051" lon="2.1855">
        <ele>57.6</ele>
        <time>2021-11-13 11:23:22</time>
      </trkpt>
      <trkpt lat="41.44044" lon="2.18547">
        <ele>57.8</ele>
        <time>2021-11-13 11:23:23</time>
      </trkpt>
      <trkpt lat="41.44036" lon="2.18545">
        <ele>57.8</ele>
        <time>2021-11-13 11:23:24</time>
      </trkpt>
      <trkpt lat="41.44029" lon="2.18542">
        <ele>58</ele>
        <time>2021-11-13 11:23:25</time>
      </trkpt>
      <trkpt lat="41.44022" lon="2.1854">
        <ele>58</ele>
        <time>2021-11-13 11:23:26</time>
      </trkpt>
      <trkpt lat="41.44015" lon="2.18537">
        <ele>58.2</ele>
        <time>2021-11-13 11:23:27</time>
      </trkpt>
      <trkpt lat="41.44008" lon="2.18535">
        <ele>58.2</ele>
        <time>2021-11-13 11:23:28</time>
      </trkpt>
      <trkpt lat="41.44" lon="2.18533">
        <ele>58.4</ele>
        <time>2021-11-13 11:23:29</time>
      </trkpt>
      <trkpt lat="41.43993" lon="2.18531">
        <ele>58.6</ele>
        <time>2021-11-13 11:23:30</time>
      </trkpt>
      <trkpt lat="41.43986" lon="2.18529">
        <ele>58.8</ele>
        <time>2021-11-13 11:23:31</time>
      </trkpt>
      <trkpt lat="41.43979" lon="2.18526">
        <ele>58.8</ele>
        <time>2021-11-13 11:23:32</time>
      </trkpt>
      <trkpt lat="41.43971" lon="2.18524">
        <ele>59</ele>
        <time>2021-11-13 11:23:33</time>
      </trkpt>
      <trkpt lat="41.43964" lon="2.18521">
        <ele>59.2</ele>
        <time>2021-11-13 11:23:34</time>
      </trkpt>
      <trkpt lat="41.43957" lon="2.18519">
        <ele>59.4</ele>
        <time>2021-11-13 11:23:35</time>
      </trkpt>
      <trkpt lat="41.43949" lon="2.18516">
        <ele>59.4</ele>
        <time>2021-11-13 11:23:36</time>
      </trkpt>
      <trkpt lat="41.43942" lon="2.18514">
        <ele>59.4</ele>
        <time>2021-11-13 11:23:37</time>
      </trkpt>
      <trkpt lat="41.43934" lon="2.18511">
        <ele>59.6</ele>
        <time>2021-11-13 11:23:38</time>
      </trkpt>
      <trkpt lat="41.43927" lon="2.18509">
        <ele>59.6</ele>
        <time>2021-11-13 11:23:39</time>
      </trkpt>
      <trkpt lat="41.43919" lon="2.18506">
        <ele>59.6</ele>
        <time>2021-11-13 11:23:40</time>
      </trkpt>
      <trkpt lat="41.43911" lon="2.18503">
        <ele>59.6</ele>
        <time>2021-11-13 11:23:41</time>
      </trkpt>
      <trkpt lat="41.43903" lon="2.18501">
        <ele>59.6</ele>
        <time>2021-11-13 11:23:42</time>
      </trkpt>
      <trkpt lat="41.43894" lon="2.18498">
        <ele>59.6</ele>
        <time>2021-11-13 11:23:43</time>
      </trkpt>
      <trkpt lat="41.43886" lon="2.18496">
        <ele>59.6</ele>
        <time>2021-11-13 11:23:44</time>
      </trkpt>
      <trkpt lat="41.43878" lon="2.18493">
        <ele>59.6</ele>
        <time>2021-11-13 11:23:45</time>
      </trkpt>
      <trkpt lat="41.4387" lon="2.1849">
        <ele>59.4</ele>
        <time>2021-11-13 11:23:46</time>
      </trkpt>
      <trkpt lat="41.43861" lon="2.18487">
        <ele>59.4</ele>
        <time>2021-11-13 11:23:47</time>
      </trkpt>
      <trkpt lat="41.43853" lon="2.18484">
        <ele>59.4</ele>
        <time>2021-11-13 11:23:48</time>
      </trkpt>
      <trkpt lat="41.43844" lon="2.18482">
        <ele>59.2</ele>
        <time>2021-11-13 11:23:49</time>
      </trkpt>
      <trkpt lat="41.43835" lon="2.18479">
        <ele>59.2</ele>
        <time>2021-11-13 11:23:50</time>
      </trkpt>
      <trkpt lat="41.43827" lon="2.18476">
        <ele>59.2</ele>
        <time>2021-11-13 11:23:51</time>
      </trkpt>
      <trkpt lat="41.43818" lon="2.18473">
        <ele>59.2</ele>
        <time>2021-11-13 11:23:52</time>
      </trkpt>
      <trkpt lat="41.43809" lon="2.1847">
        <ele>59.2</ele>
        <time>2021-11-13 11:23:53</time>
      </trkpt>
      <trkpt lat="41.438" lon="2.18468">
        <ele>59</ele>
        <time>2021-11-13 11:23:54</time>
      </trkpt>
      <trkpt lat="41.43791" lon="2.18465">
        <ele>59</ele>
        <time>2021-11-13 11:23:55</time>
      </trkpt>
      <trkpt lat="41.43782" lon="2.18462">
        <ele>58.8</ele>
        <time>2021-11-13 11:23:56</time>
      </trkpt>
      <trkpt lat="41.43771" lon="2.18458">
        <ele>58.8</ele>
        <time>2021-11-13 11:23:57</time>
      </trkpt>
      <trkpt lat="41.43764" lon="2.18456">
        <ele>58.6</ele>
        <time>2021-11-13 11:23:58</time>
      </trkpt>
      <trkpt lat="41.43755" lon="2.18453">
        <ele>58.6</ele>
        <time>2021-11-13 11:23:59</time>
      </trkpt>
      <trkpt lat="41.43746" lon="2.1845">
        <ele>58.6</ele>
        <time>2021-11-13 11:24:00</time>
      </trkpt>
      <trkpt lat="41.43737" lon="2.18447">
        <ele>58.4</ele>
        <time>2021-11-13 11:24:01</time>
      </trkpt>
      <trkpt lat="41.43728" lon="2.18444">
        <ele>58.4</ele>
        <time>2021-11-13 11:24:02</time>
      </trkpt>
      <trkpt lat="41.43718" lon="2.1844">
        <ele>58</ele>
        <time>2021-11-13 11:24:03</time>
      </trkpt>
      <trkpt lat="41.43709" lon="2.18438">
        <ele>58</ele>
        <time>2021-11-13 11:24:04</time>
      </trkpt>
      <trkpt lat="41.437" lon="2.18435">
        <ele>57.6</ele>
        <time>2021-11-13 11:24:05</time>
      </trkpt>
      <trkpt lat="41.4369" lon="2.18431">
        <ele>57.6</ele>
        <time>2021-11-13 11:24:06</time>
      </trkpt>
      <trkpt lat="41.43681" lon="2.18428">
        <ele>57.2</ele>
        <time>2021-11-13 11:24:07</time>
      </trkpt>
      <trkpt lat="41.43671" lon="2.18425">
        <ele>57.2</ele>
        <time>2021-11-13 11:24:08</time>
      </trkpt>
      <trkpt lat="41.43662" lon="2.18422">
        <ele>57</ele>
        <time>2021-11-13 11:24:09</time>
      </trkpt>
      <trkpt lat="41.43653" lon="2.18419">
        <ele>56.8</ele>
        <time>2021-11-13 11:24:10</time>
      </trkpt>
      <trkpt lat="41.43643" lon="2.18416">
        <ele>56.8</ele>
        <time>2021-11-13 11:24:11</time>
      </trkpt>
      <trkpt lat="41.43634" lon="2.18413">
        <ele>56.6</ele>
        <time>2021-11-13 11:24:12</time>
      </trkpt>
      <trkpt lat="41.43624" lon="2.1841">
        <ele>56.4</ele>
        <time>2021-11-13 11:24:13</time>
      </trkpt>
      <trkpt lat="41.43615" lon="2.18406">
        <ele>56</ele>
        <time>2021-11-13 11:24:14</time>
      </trkpt>
      <trkpt lat="41.43605" lon="2.18403">
        <ele>55.6</ele>
        <time>2021-11-13 11:24:15</time>
      </trkpt>
      <trkpt lat="41.43594" lon="2.18399">
        <ele>55.6</ele>
        <time>2021-11-13 11:24:16</time>
      </trkpt>
      <trkpt lat="41.43586" lon="2.18396">
        <ele>55.2</ele>
        <time>2021-11-13 11:24:17</time>
      </trkpt>
      <trkpt lat="41.43577" lon="2.18392">
        <ele>55</ele>
        <time>2021-11-13 11:24:18</time>
      </trkpt>
      <trkpt lat="41.43567" lon="2.18389">
        <ele>54.8</ele>
        <time>2021-11-13 11:24:19</time>
      </trkpt>
      <trkpt lat="41.43558" lon="2.18386">
        <ele>54.8</ele>
        <time>2021-11-13 11:24:20</time>
      </trkpt>
      <trkpt lat="41.43549" lon="2.18382">
        <ele>54.4</ele>
        <time>2021-11-13 11:24:21</time>
      </trkpt>
      <trkpt lat="41.4354" lon="2.18379">
        <ele>54.2</ele>
        <time>2021-11-13 11:24:22</time>
      </trkpt>
      <trkpt lat="41.43531" lon="2.18375">
        <ele>54</ele>
        <time>2021-11-13 11:24:23</time>
      </trkpt>
      <trkpt lat="41.43523" lon="2.18372">
        <ele>54</ele>
        <time>2021-11-13 11:24:24</time>
      </trkpt>
      <trkpt lat="41.43514" lon="2.18369">
        <ele>53.8</ele>
        <time>2021-11-13 11:24:25</time>
      </trkpt>
      <trkpt lat="41.43505" lon="2.18366">
        <ele>53.6</ele>
        <time>2021-11-13 11:24:26</time>
      </trkpt>
      <trkpt lat="41.43496" lon="2.18363">
        <ele>53.6</ele>
        <time>2021-11-13 11:24:27</time>
      </trkpt>
      <trkpt lat="41.43487" lon="2.18361">
        <ele>53.2</ele>
        <time>2021-11-13 11:24:28</time>
      </trkpt>
      <trkpt lat="41.43479" lon="2.18358">
        <ele>53.2</ele>
        <time>2021-11-13 11:24:29</time>
      </trkpt>
      <trkpt lat="41.4347" lon="2.18355">
        <ele>53</ele>
        <time>2021-11-13 11:24:30</time>
      </trkpt>
      <trkpt lat="41.43462" lon="2.18352">
        <ele>53</ele>
        <time>2021-11-13 11:24:31</time>
      </trkpt>
      <trkpt lat="41.43454" lon="2.1835">
        <ele>52.8</ele>
        <time>2021-11-13 11:24:32</time>
      </trkpt>
      <trkpt lat="41.43446" lon="2.18347">
        <ele>52.8</ele>
        <time>2021-11-13 11:24:33</time>
      </trkpt>
      <trkpt lat="41.43437" lon="2.18344">
        <ele>52.8</ele>
        <time>2021-11-13 11:24:34</time>
      </trkpt>
      <trkpt lat="41.43429" lon="2.18341">
        <ele>52.6</ele>
        <time>2021-11-13 11:24:35</time>
      </trkpt>
      <trkpt lat="41.43421" lon="2.18338">
        <ele>52.6</ele>
        <time>2021-11-13 11:24:36</time>
      </trkpt>
      <trkpt lat="41.43413" lon="2.18335">
        <ele>52.4</ele>
        <time>2021-11-13 11:24:37</time>
      </trkpt>
      <trkpt lat="41.43405" lon="2.18332">
        <ele>52.4</ele>
        <time>2021-11-13 11:24:38</time>
      </trkpt>
      <trkpt lat="41.43397" lon="2.18329">
        <ele>52.4</ele>
        <time>2021-11-13 11:24:39</time>
      </trkpt>
      <trkpt lat="41.43389" lon="2.18327">
        <ele>52.4</ele>
        <time>2021-11-13 11:24:40</time>
      </trkpt>
      <trkpt lat="41.43381" lon="2.18325">
        <ele>52.2</ele>
        <time>2021-11-13 11:24:41</time>
      </trkpt>
      <trkpt lat="41.43373" lon="2.18322">
        <ele>52.2</ele>
        <time>2021-11-13 11:24:42</time>
      </trkpt>
      <trkpt lat="41.43365" lon="2.18319">
        <ele>52.2</ele>
        <time>2021-11-13 11:24:43</time>
      </trkpt>
      <trkpt lat="41.43358" lon="2.18316">
        <ele>52</ele>
        <time>2021-11-13 11:24:44</time>
      </trkpt>
      <trkpt lat="41.4335" lon="2.18313">
        <ele>52</ele>
        <time>2021-11-13 11:24:45</time>
      </trkpt>
      <trkpt lat="41.43343" lon="2.1831">
        <ele>52</ele>
        <time>2021-11-13 11:24:46</time>
      </trkpt>
      <trkpt lat="41.43335" lon="2.18308">
        <ele>51.8</ele>
        <time>2021-11-13 11:24:47</time>
      </trkpt>
      <trkpt lat="41.43328" lon="2.18305">
        <ele>51.8</ele>
        <time>2021-11-13 11:24:48</time>
      </trkpt>
      <trkpt lat="41.43321" lon="2.18303">
        <ele>51.8</ele>
        <time>2021-11-13 11:24:49</time>
      </trkpt>
      <trkpt lat="41.43315" lon="2.183">
        <ele>51.8</ele>
        <time>2021-11-13 11:24:50</time>
      </trkpt>
      <trkpt lat="41.43308" lon="2.18298">
        <ele>51.6</ele>
        <time>2021-11-13 11:24:51</time>
      </trkpt>
      <trkpt lat="41.43301" lon="2.18295">
        <ele>51.6</ele>
        <time>2021-11-13 11:24:52</time>
      </trkpt>
      <trkpt lat="41.43294" lon="2.18293">
        <ele>51.6</ele>
        <time>2021-11-13 11:24:53</time>
      </trkpt>
      <trkpt lat="41.43288" lon="2.18291">
        <ele>51.6</ele>
        <time>2021-11-13 11:24:54</time>
      </trkpt>
      <trkpt lat="41.43281" lon="2.18289">
        <ele>51.6</ele>
        <time>2021-11-13 11:24:55</time>
      </trkpt>
      <trkpt lat="41.43274" lon="2.18287">
        <ele>51.4</ele>
        <time>2021-11-13 11:24:56</time>
      </trkpt>
      <trkpt lat="41.43268" lon="2.18284">
        <ele>51.4</ele>
        <time>2021-11-13 11:24:57</time>
      </trkpt>
      <trkpt lat="41.43261" lon="2.18282">
        <ele>51.4</ele>
        <time>2021-11-13 11:24:58</time>
      </trkpt>
      <trkpt lat="41.43254" lon="2.18279">
        <ele>51.4</ele>
        <time>2021-11-13 11:24:59</time>
      </trkpt>
      <trkpt lat="41.43247" lon="2.18277">
        <ele>51.4</ele>
        <time>2021-11-13 11:25:00</time>
      </trkpt>
      <trkpt lat="41.4324" lon="2.18274">
        <ele>51.2</ele>
        <time>2021-11-13 11:25:01</time>
      </trkpt>
      <trkpt lat="41.43233" lon="2.18272">
        <ele>51</ele>
        <time>2021-11-13 11:25:02</time>
      </trkpt>
      <trkpt lat="41.43226" lon="2.1827">
        <ele>51</ele>
        <time>2021-11-13 11:25:03</time>
      </trkpt>
      <trkpt lat="41.43219" lon="2.18267">
        <ele>50.8</ele>
        <time>2021-11-13 11:25:04</time>
      </trkpt>
      <trkpt lat="41.43212" lon="2.18265">
        <ele>50.8</ele>
        <time>2021-11-13 11:25:05</time>
      </trkpt>
      <trkpt lat="41.43205" lon="2.18263">
        <ele>50.6</ele>
        <time>2021-11-13 11:25:06</time>
      </trkpt>
      <trkpt lat="41.43197" lon="2.1826">
        <ele>50.6</ele>
        <time>2021-11-13 11:25:07</time>
      </trkpt>
      <trkpt lat="41.4319" lon="2.18258">
        <ele>50.6</ele>
        <time>2021-11-13 11:25:08</time>
      </trkpt>
      <trkpt lat="41.43183" lon="2.18255">
        <ele>50.6</ele>
        <time>2021-11-13 11:25:09</time>
      </trkpt>
      <trkpt lat="41.43175" lon="2.18253">
        <ele>50.6</ele>
        <time>2021-11-13 11:25:10</time>
      </trkpt>
      <trkpt lat="41.43167" lon="2.18251">
        <ele>50.6</ele>
        <time>2021-11-13 11:25:11</time>
      </trkpt>
      <trkpt lat="41.43159" lon="2.18249">
        <ele>50.4</ele>
        <time>2021-11-13 11:25:12</time>
      </trkpt>
      <trkpt lat="41.43151" lon="2.18248">
        <ele>50.4</ele>
        <time>2021-11-13 11:25:13</time>
      </trkpt>
      <trkpt lat="41.43143" lon="2.18247">
        <ele>50.4</ele>
        <time>2021-11-13 11:25:14</time>
      </trkpt>
      <trkpt lat="41.43134" lon="2.18247">
        <ele>50.4</ele>
        <time>2021-11-13 11:25:15</time>
      </trkpt>
      <trkpt lat="41.43125" lon="2.18247">
        <ele>50.2</ele>
        <time>2021-11-13 11:25:16</time>
      </trkpt>
      <trkpt lat="41.43116" lon="2.18248">
        <ele>50.2</ele>
        <time>2021-11-13 11:25:17</time>
      </trkpt>
      <trkpt lat="41.43106" lon="2.18249">
        <ele>50.2</ele>
        <time>2021-11-13 11:25:18</time>
      </trkpt>
      <trkpt lat="41.43095" lon="2.18252">
        <ele>50.2</ele>
        <time>2021-11-13 11:25:19</time>
      </trkpt>
      <trkpt lat="41.43088" lon="2.18254">
        <ele>50</ele>
        <time>2021-11-13 11:25:20</time>
      </trkpt>
      <trkpt lat="41.43079" lon="2.18257">
        <ele>49.8</ele>
        <time>2021-11-13 11:25:21</time>
      </trkpt>
      <trkpt lat="41.43069" lon="2.1826">
        <ele>49.8</ele>
        <time>2021-11-13 11:25:22</time>
      </trkpt>
      <trkpt lat="41.43059" lon="2.18264">
        <ele>49.8</ele>
        <time>2021-11-13 11:25:23</time>
      </trkpt>
      <trkpt lat="41.4305" lon="2.18268">
        <ele>49.8</ele>
        <time>2021-11-13 11:25:24</time>
      </trkpt>
      <trkpt lat="41.43041" lon="2.18273">
        <ele>49.6</ele>
        <time>2021-11-13 11:25:25</time>
      </trkpt>
      <trkpt lat="41.43032" lon="2.18279">
        <ele>49.6</ele>
        <time>2021-11-13 11:25:26</time>
      </trkpt>
      <trkpt lat="41.43023" lon="2.18286">
        <ele>49.6</ele>
        <time>2021-11-13 11:25:27</time>
      </trkpt>
      <trkpt lat="41.43012" lon="2.18294">
        <ele>49.6</ele>
        <time>2021-11-13 11:25:28</time>
      </trkpt>
      <trkpt lat="41.43006" lon="2.18299">
        <ele>49.4</ele>
        <time>2021-11-13 11:25:29</time>
      </trkpt>
      <trkpt lat="41.42995" lon="2.18308">
        <ele>49.2</ele>
        <time>2021-11-13 11:25:30</time>
      </trkpt>
      <trkpt lat="41.42988" lon="2.18313">
        <ele>49.4</ele>
        <time>2021-11-13 11:25:31</time>
      </trkpt>
      <trkpt lat="41.42979" lon="2.18321">
        <ele>49.4</ele>
        <time>2021-11-13 11:25:32</time>
      </trkpt>
      <trkpt lat="41.4297" lon="2.18328">
        <ele>49.4</ele>
        <time>2021-11-13 11:25:33</time>
      </trkpt>
      <trkpt lat="41.42962" lon="2.18335">
        <ele>49.4</ele>
        <time>2021-11-13 11:25:34</time>
      </trkpt>
      <trkpt lat="41.42953" lon="2.18342">
        <ele>49.4</ele>
        <time>2021-11-13 11:25:35</time>
      </trkpt>
      <trkpt lat="41.42944" lon="2.18349">
        <ele>49.4</ele>
        <time>2021-11-13 11:25:36</time>
      </trkpt>
      <trkpt lat="41.42936" lon="2.18356">
        <ele>49.4</ele>
        <time>2021-11-13 11:25:37</time>
      </trkpt>
      <trkpt lat="41.42927" lon="2.18363">
        <ele>49.4</ele>
        <time>2021-11-13 11:25:38</time>
      </trkpt>
      <trkpt lat="41.42918" lon="2.18369">
        <ele>49.6</ele>
        <time>2021-11-13 11:25:39</time>
      </trkpt>
      <trkpt lat="41.42909" lon="2.18375">
        <ele>49.6</ele>
        <time>2021-11-13 11:25:40</time>
      </trkpt>
      <trkpt lat="41.42901" lon="2.1838">
        <ele>49.6</ele>
        <time>2021-11-13 11:25:41</time>
      </trkpt>
      <trkpt lat="41.42894" lon="2.18385">
        <ele>49.6</ele>
        <time>2021-11-13 11:25:42</time>
      </trkpt>
      <trkpt lat="41.42889" lon="2.18388">
        <ele>49.6</ele>
        <time>2021-11-13 11:25:43</time>
      </trkpt>
      <trkpt lat="41.42884" lon="2.18391">
        <ele>49.6</ele>
        <time>2021-11-13 11:25:44</time>
      </trkpt>
      <trkpt lat="41.4288" lon="2.18392">
        <ele>49.6</ele>
        <time>2021-11-13 11:25:45</time>
      </trkpt>
      <trkpt lat="41.42878" lon="2.18393">
        <ele>49.6</ele>
        <time>2021-11-13 11:25:46</time>
      </trkpt>
      <trkpt lat="41.42876" lon="2.18394">
        <ele>49.6</ele>
        <time>2021-11-13 11:25:47</time>
      </trkpt>
      <trkpt lat="41.42874" lon="2.18395">
        <ele>49.6</ele>
        <time>2021-11-13 11:25:48</time>
      </trkpt>
      <trkpt lat="41.42873" lon="2.18396">
        <ele>49.6</ele>
        <time>2021-11-13 11:25:49</time>
      </trkpt>
      <trkpt lat="41.42872" lon="2.18396">
        <ele>49.6</ele>
        <time>2021-11-13 11:25:50</time>
      </trkpt>
      <trkpt lat="41.42872" lon="2.18396">
        <ele>49.6</ele>
        <time>2021-11-13 11:25:51</time>
      </trkpt>
      <trkpt lat="41.42872" lon="2.18396">
        <ele>49.6</ele>
        <time>2021-11-13 11:25:52</time>
      </trkpt>
      <trkpt lat="41.42872" lon="2.18396">
        <ele>49.4</ele>
        <time>2021-11-13 11:25:53</time>
      </trkpt>
      <trkpt lat="41.4287" lon="2.18397">
        <ele>47.8</ele>
        <time>2021-11-13 11:26:44</time>
      </trkpt>
      <trkpt lat="41.42868" lon="2.18398">
        <ele>47.8</ele>
        <time>2021-11-13 11:26:45</time>
      </trkpt>
      <trkpt lat="41.42867" lon="2.18399">
        <ele>47.8</ele>
        <time>2021-11-13 11:26:46</time>
      </trkpt>
      <trkpt lat="41.42866" lon="2.18399">
        <ele>47.8</ele>
        <time>2021-11-13 11:26:47</time>
      </trkpt>
      <trkpt lat="41.42864" lon="2.184">
        <ele>47.8</ele>
        <time>2021-11-13 11:26:48</time>
      </trkpt>
      <trkpt lat="41.42861" lon="2.18402">
        <ele>48</ele>
        <time>2021-11-13 11:26:49</time>
      </trkpt>
      <trkpt lat="41.42857" lon="2.18405">
        <ele>48</ele>
        <time>2021-11-13 11:26:50</time>
      </trkpt>
      <trkpt lat="41.42852" lon="2.18407">
        <ele>48</ele>
        <time>2021-11-13 11:26:51</time>
      </trkpt>
      <trkpt lat="41.42848" lon="2.1841">
        <ele>48</ele>
        <time>2021-11-13 11:26:52</time>
      </trkpt>
      <trkpt lat="41.42843" lon="2.18413">
        <ele>48.2</ele>
        <time>2021-11-13 11:26:53</time>
      </trkpt>
      <trkpt lat="41.42838" lon="2.18418">
        <ele>48.2</ele>
        <time>2021-11-13 11:26:54</time>
      </trkpt>
      <trkpt lat="41.42832" lon="2.18422">
        <ele>48.4</ele>
        <time>2021-11-13 11:26:55</time>
      </trkpt>
      <trkpt lat="41.42826" lon="2.18426">
        <ele>48.4</ele>
        <time>2021-11-13 11:26:56</time>
      </trkpt>
      <trkpt lat="41.4282" lon="2.1843">
        <ele>48.4</ele>
        <time>2021-11-13 11:26:57</time>
      </trkpt>
      <trkpt lat="41.42814" lon="2.18434">
        <ele>48.6</ele>
        <time>2021-11-13 11:26:58</time>
      </trkpt>
      <trkpt lat="41.42807" lon="2.18438">
        <ele>48.8</ele>
        <time>2021-11-13 11:26:59</time>
      </trkpt>
      <trkpt lat="41.42801" lon="2.18441">
        <ele>48.8</ele>
        <time>2021-11-13 11:27:00</time>
      </trkpt>
      <trkpt lat="41.42795" lon="2.18446">
        <ele>49</ele>
        <time>2021-11-13 11:27:01</time>
      </trkpt>
      <trkpt lat="41.42789" lon="2.1845">
        <ele>49</ele>
        <time>2021-11-13 11:27:02</time>
      </trkpt>
      <trkpt lat="41.42782" lon="2.18455">
        <ele>49.2</ele>
        <time>2021-11-13 11:27:03</time>
      </trkpt>
      <trkpt lat="41.42775" lon="2.18459">
        <ele>49.4</ele>
        <time>2021-11-13 11:27:04</time>
      </trkpt>
      <trkpt lat="41.42769" lon="2.18463">
        <ele>49.4</ele>
        <time>2021-11-13 11:27:05</time>
      </trkpt>
      <trkpt lat="41.42762" lon="2.18468">
        <ele>49.4</ele>
        <time>2021-11-13 11:27:06</time>
      </trkpt>
      <trkpt lat="41.42755" lon="2.18473">
        <ele>49.6</ele>
        <time>2021-11-13 11:27:07</time>
      </trkpt>
      <trkpt lat="41.42747" lon="2.18479">
        <ele>49.6</ele>
        <time>2021-11-13 11:27:08</time>
      </trkpt>
      <trkpt lat="41.42738" lon="2.18485">
        <ele>49.6</ele>
        <time>2021-11-13 11:27:09</time>
      </trkpt>
      <trkpt lat="41.4273" lon="2.1849">
        <ele>49.6</ele>
        <time>2021-11-13 11:27:10</time>
      </trkpt>
      <trkpt lat="41.42722" lon="2.18496">
        <ele>49.6</ele>
        <time>2021-11-13 11:27:11</time>
      </trkpt>
      <trkpt lat="41.42713" lon="2.18502">
        <ele>49.6</ele>
        <time>2021-11-13 11:27:12</time>
      </trkpt>
      <trkpt lat="41.42704" lon="2.18508">
        <ele>49.6</ele>
        <time>2021-11-13 11:27:13</time>
      </trkpt>
      <trkpt lat="41.42694" lon="2.18514">
        <ele>49.6</ele>
        <time>2021-11-13 11:27:14</time>
      </trkpt>
      <trkpt lat="41.42685" lon="2.18521">
        <ele>49.6</ele>
        <time>2021-11-13 11:27:15</time>
      </trkpt>
      <trkpt lat="41.42675" lon="2.18527">
        <ele>49.6</ele>
        <time>2021-11-13 11:27:16</time>
      </trkpt>
      <trkpt lat="41.42665" lon="2.18534">
        <ele>49.6</ele>
        <time>2021-11-13 11:27:17</time>
      </trkpt>
      <trkpt lat="41.42655" lon="2.18541">
        <ele>49.6</ele>
        <time>2021-11-13 11:27:18</time>
      </trkpt>
      <trkpt lat="41.42645" lon="2.18548">
        <ele>49.4</ele>
        <time>2021-11-13 11:27:19</time>
      </trkpt>
      <trkpt lat="41.42634" lon="2.18555">
        <ele>49.4</ele>
        <time>2021-11-13 11:27:20</time>
      </trkpt>
      <trkpt lat="41.42624" lon="2.18562">
        <ele>49</ele>
        <time>2021-11-13 11:27:21</time>
      </trkpt>
      <trkpt lat="41.42614" lon="2.18568">
        <ele>48.8</ele>
        <time>2021-11-13 11:27:22</time>
      </trkpt>
      <trkpt lat="41.42603" lon="2.18574">
        <ele>48.6</ele>
        <time>2021-11-13 11:27:23</time>
      </trkpt>
      <trkpt lat="41.42593" lon="2.18581">
        <ele>48.4</ele>
        <time>2021-11-13 11:27:24</time>
      </trkpt>
      <trkpt lat="41.42582" lon="2.18589">
        <ele>48.4</ele>
        <time>2021-11-13 11:27:25</time>
      </trkpt>
      <trkpt lat="41.42571" lon="2.18596">
        <ele>48.2</ele>
        <time>2021-11-13 11:27:26</time>
      </trkpt>
      <trkpt lat="41.42561" lon="2.18603">
        <ele>48.2</ele>
        <time>2021-11-13 11:27:27</time>
      </trkpt>
      <trkpt lat="41.42551" lon="2.18609">
        <ele>47.8</ele>
        <time>2021-11-13 11:27:28</time>
      </trkpt>
      <trkpt lat="41.4254" lon="2.18616">
        <ele>47.8</ele>
        <time>2021-11-13 11:27:29</time>
      </trkpt>
      <trkpt lat="41.42529" lon="2.18622">
        <ele>47.6</ele>
        <time>2021-11-13 11:27:30</time>
      </trkpt>
      <trkpt lat="41.42518" lon="2.18628">
        <ele>47.4</ele>
        <time>2021-11-13 11:27:31</time>
      </trkpt>
      <trkpt lat="41.42507" lon="2.18634">
        <ele>47.2</ele>
        <time>2021-11-13 11:27:32</time>
      </trkpt>
      <trkpt lat="41.42495" lon="2.18639">
        <ele>46.8</ele>
        <time>2021-11-13 11:27:33</time>
      </trkpt>
      <trkpt lat="41.42484" lon="2.18644">
        <ele>46.4</ele>
        <time>2021-11-13 11:27:34</time>
      </trkpt>
      <trkpt lat="41.42472" lon="2.18649">
        <ele>46.2</ele>
        <time>2021-11-13 11:27:35</time>
      </trkpt>
      <trkpt lat="41.42461" lon="2.18653">
        <ele>46</ele>
        <time>2021-11-13 11:27:36</time>
      </trkpt>
      <trkpt lat="41.42449" lon="2.18657">
        <ele>45.8</ele>
        <time>2021-11-13 11:27:37</time>
      </trkpt>
      <trkpt lat="41.42438" lon="2.18661">
        <ele>45.8</ele>
        <time>2021-11-13 11:27:38</time>
      </trkpt>
      <trkpt lat="41.42426" lon="2.18664">
        <ele>45.4</ele>
        <time>2021-11-13 11:27:39</time>
      </trkpt>
      <trkpt lat="41.42414" lon="2.18667">
        <ele>45.2</ele>
        <time>2021-11-13 11:27:40</time>
      </trkpt>
      <trkpt lat="41.42402" lon="2.1867">
        <ele>44.8</ele>
        <time>2021-11-13 11:27:41</time>
      </trkpt>
      <trkpt lat="41.42391" lon="2.18672">
        <ele>44.8</ele>
        <time>2021-11-13 11:27:42</time>
      </trkpt>
      <trkpt lat="41.42379" lon="2.18674">
        <ele>44.6</ele>
        <time>2021-11-13 11:27:43</time>
      </trkpt>
      <trkpt lat="41.42367" lon="2.18675">
        <ele>44.4</ele>
        <time>2021-11-13 11:27:44</time>
      </trkpt>
      <trkpt lat="41.42355" lon="2.18676">
        <ele>44.4</ele>
        <time>2021-11-13 11:27:45</time>
      </trkpt>
      <trkpt lat="41.42343" lon="2.18677">
        <ele>44.4</ele>
        <time>2021-11-13 11:27:46</time>
      </trkpt>
      <trkpt lat="41.42331" lon="2.18677">
        <ele>44.2</ele>
        <time>2021-11-13 11:27:47</time>
      </trkpt>
      <trkpt lat="41.42319" lon="2.18677">
        <ele>44.2</ele>
        <time>2021-11-13 11:27:48</time>
      </trkpt>
      <trkpt lat="41.42307" lon="2.18677">
        <ele>44</ele>
        <time>2021-11-13 11:27:49</time>
      </trkpt>
      <trkpt lat="41.42294" lon="2.18677">
        <ele>44</ele>
        <time>2021-11-13 11:27:50</time>
      </trkpt>
      <trkpt lat="41.42282" lon="2.18677">
        <ele>43.8</ele>
        <time>2021-11-13 11:27:51</time>
      </trkpt>
      <trkpt lat="41.4227" lon="2.18677">
        <ele>43.6</ele>
        <time>2021-11-13 11:27:52</time>
      </trkpt>
      <trkpt lat="41.42258" lon="2.18677">
        <ele>43.4</ele>
        <time>2021-11-13 11:27:53</time>
      </trkpt>
      <trkpt lat="41.42247" lon="2.18677">
        <ele>43.4</ele>
        <time>2021-11-13 11:27:54</time>
      </trkpt>
      <trkpt lat="41.42235" lon="2.18676">
        <ele>43.2</ele>
        <time>2021-11-13 11:27:55</time>
      </trkpt>
      <trkpt lat="41.42224" lon="2.18676">
        <ele>42.8</ele>
        <time>2021-11-13 11:27:56</time>
      </trkpt>
      <trkpt lat="41.42213" lon="2.18675">
        <ele>42.6</ele>
        <time>2021-11-13 11:27:57</time>
      </trkpt>
      <trkpt lat="41.42202" lon="2.18675">
        <ele>42.4</ele>
        <time>2021-11-13 11:27:58</time>
      </trkpt>
      <trkpt lat="41.4219" lon="2.18675">
        <ele>42.2</ele>
        <time>2021-11-13 11:27:59</time>
      </trkpt>
      <trkpt lat="41.42179" lon="2.18675">
        <ele>42.2</ele>
        <time>2021-11-13 11:28:00</time>
      </trkpt>
      <trkpt lat="41.42168" lon="2.18675">
        <ele>42.2</ele>
        <time>2021-11-13 11:28:01</time>
      </trkpt>
      <trkpt lat="41.42156" lon="2.18675">
        <ele>41.8</ele>
        <time>2021-11-13 11:28:02</time>
      </trkpt>
      <trkpt lat="41.42145" lon="2.18675">
        <ele>41.8</ele>
        <time>2021-11-13 11:28:03</time>
      </trkpt>
      <trkpt lat="41.42135" lon="2.18675">
        <ele>41.6</ele>
        <time>2021-11-13 11:28:04</time>
      </trkpt>
      <trkpt lat="41.42126" lon="2.18675">
        <ele>41.4</ele>
        <time>2021-11-13 11:28:05</time>
      </trkpt>
      <trkpt lat="41.42118" lon="2.18676">
        <ele>41.4</ele>
        <time>2021-11-13 11:28:06</time>
      </trkpt>
      <trkpt lat="41.42112" lon="2.18677">
        <ele>41.2</ele>
        <time>2021-11-13 11:28:07</time>
      </trkpt>
      <trkpt lat="41.42107" lon="2.18676">
        <ele>41.2</ele>
        <time>2021-11-13 11:28:08</time>
      </trkpt>
      <trkpt lat="41.42102" lon="2.18673">
        <ele>41</ele>
        <time>2021-11-13 11:28:09</time>
      </trkpt>
      <trkpt lat="41.42097" lon="2.1867">
        <ele>41</ele>
        <time>2021-11-13 11:28:10</time>
      </trkpt>
      <trkpt lat="41.42093" lon="2.18669">
        <ele>40.8</ele>
        <time>2021-11-13 11:28:11</time>
      </trkpt>
      <trkpt lat="41.42089" lon="2.18668">
        <ele>40.8</ele>
        <time>2021-11-13 11:28:12</time>
      </trkpt>
      <trkpt lat="41.42084" lon="2.18665">
        <ele>40.8</ele>
        <time>2021-11-13 11:28:13</time>
      </trkpt>
      <trkpt lat="41.4208" lon="2.18662">
        <ele>40.8</ele>
        <time>2021-11-13 11:28:14</time>
      </trkpt>
      <trkpt lat="41.42075" lon="2.1866">
        <ele>40.8</ele>
        <time>2021-11-13 11:28:15</time>
      </trkpt>
      <trkpt lat="41.42069" lon="2.18659">
        <ele>40.6</ele>
        <time>2021-11-13 11:28:16</time>
      </trkpt>
      <trkpt lat="41.42064" lon="2.18659">
        <ele>40.6</ele>
        <time>2021-11-13 11:28:17</time>
      </trkpt>
      <trkpt lat="41.42058" lon="2.18659">
        <ele>40.6</ele>
        <time>2021-11-13 11:28:18</time>
      </trkpt>
      <trkpt lat="41.42052" lon="2.18661">
        <ele>40.4</ele>
        <time>2021-11-13 11:28:19</time>
      </trkpt>
      <trkpt lat="41.42047" lon="2.18661">
        <ele>40.4</ele>
        <time>2021-11-13 11:28:20</time>
      </trkpt>
      <trkpt lat="41.42043" lon="2.1866">
        <ele>40.4</ele>
        <time>2021-11-13 11:28:21</time>
      </trkpt>
      <trkpt lat="41.42039" lon="2.18659">
        <ele>40.2</ele>
        <time>2021-11-13 11:28:22</time>
      </trkpt>
      <trkpt lat="41.42035" lon="2.18655">
        <ele>40.2</ele>
        <time>2021-11-13 11:28:23</time>
      </trkpt>
      <trkpt lat="41.4203" lon="2.18651">
        <ele>40.2</ele>
        <time>2021-11-13 11:28:24</time>
      </trkpt>
      <trkpt lat="41.42025" lon="2.18647">
        <ele>40.2</ele>
        <time>2021-11-13 11:28:25</time>
      </trkpt>
      <trkpt lat="41.4202" lon="2.18642">
        <ele>40.2</ele>
        <time>2021-11-13 11:28:26</time>
      </trkpt>
      <trkpt lat="41.42015" lon="2.18637">
        <ele>40.2</ele>
        <time>2021-11-13 11:28:27</time>
      </trkpt>
      <trkpt lat="41.4201" lon="2.18632">
        <ele>40.2</ele>
        <time>2021-11-13 11:28:28</time>
      </trkpt>
      <trkpt lat="41.42005" lon="2.18627">
        <ele>40.2</ele>
        <time>2021-11-13 11:28:29</time>
      </trkpt>
      <trkpt lat="41.42" lon="2.18622">
        <ele>40.2</ele>
        <time>2021-11-13 11:28:30</time>
      </trkpt>
      <trkpt lat="41.41995" lon="2.18616">
        <ele>40.2</ele>
        <time>2021-11-13 11:28:31</time>
      </trkpt>
      <trkpt lat="41.41991" lon="2.1861">
        <ele>40.2</ele>
        <time>2021-11-13 11:28:32</time>
      </trkpt>
      <trkpt lat="41.41987" lon="2.18604">
        <ele>40.2</ele>
        <time>2021-11-13 11:28:33</time>
      </trkpt>
      <trkpt lat="41.41982" lon="2.18598">
        <ele>40.4</ele>
        <time>2021-11-13 11:28:34</time>
      </trkpt>
      <trkpt lat="41.41978" lon="2.18592">
        <ele>40.4</ele>
        <time>2021-11-13 11:28:35</time>
      </trkpt>
      <trkpt lat="41.41973" lon="2.18586">
        <ele>40.4</ele>
        <time>2021-11-13 11:28:36</time>
      </trkpt>
      <trkpt lat="41.41968" lon="2.1858">
        <ele>40.4</ele>
        <time>2021-11-13 11:28:37</time>
      </trkpt>
      <trkpt lat="41.41963" lon="2.18574">
        <ele>40.4</ele>
        <time>2021-11-13 11:28:38</time>
      </trkpt>
      <trkpt lat="41.41958" lon="2.18569">
        <ele>40.6</ele>
        <time>2021-11-13 11:28:39</time>
      </trkpt>
      <trkpt lat="41.41954" lon="2.18562">
        <ele>40.6</ele>
        <time>2021-11-13 11:28:40</time>
      </trkpt>
      <trkpt lat="41.4195" lon="2.18555">
        <ele>40.8</ele>
        <time>2021-11-13 11:28:41</time>
      </trkpt>
      <trkpt lat="41.41945" lon="2.18548">
        <ele>40.8</ele>
        <time>2021-11-13 11:28:42</time>
      </trkpt>
      <trkpt lat="41.41942" lon="2.18541">
        <ele>40.8</ele>
        <time>2021-11-13 11:28:43</time>
      </trkpt>
      <trkpt lat="41.41937" lon="2.18535">
        <ele>41</ele>
        <time>2021-11-13 11:28:44</time>
      </trkpt>
      <trkpt lat="41.41932" lon="2.18528">
        <ele>41.2</ele>
        <time>2021-11-13 11:28:45</time>
      </trkpt>
      <trkpt lat="41.41928" lon="2.18522">
        <ele>41.2</ele>
        <time>2021-11-13 11:28:46</time>
      </trkpt>
      <trkpt lat="41.41923" lon="2.18516">
        <ele>41.4</ele>
        <time>2021-11-13 11:28:47</time>
      </trkpt>
      <trkpt lat="41.41919" lon="2.1851">
        <ele>41.4</ele>
        <time>2021-11-13 11:28:48</time>
      </trkpt>
      <trkpt lat="41.41914" lon="2.18502">
        <ele>41.6</ele>
        <time>2021-11-13 11:28:49</time>
      </trkpt>
      <trkpt lat="41.41912" lon="2.18496">
        <ele>41.6</ele>
        <time>2021-11-13 11:28:50</time>
      </trkpt>
      <trkpt lat="41.41908" lon="2.1849">
        <ele>41.6</ele>
        <time>2021-11-13 11:28:51</time>
      </trkpt>
      <trkpt lat="41.41905" lon="2.18483">
        <ele>42</ele>
        <time>2021-11-13 11:28:52</time>
      </trkpt>
      <trkpt lat="41.41901" lon="2.18476">
        <ele>42.4</ele>
        <time>2021-11-13 11:28:53</time>
      </trkpt>
      <trkpt lat="41.41896" lon="2.1847">
        <ele>42.4</ele>
        <time>2021-11-13 11:28:54</time>
      </trkpt>
      <trkpt lat="41.41891" lon="2.18465">
        <ele>42.6</ele>
        <time>2021-11-13 11:28:55</time>
      </trkpt>
      <trkpt lat="41.41886" lon="2.1846">
        <ele>42.6</ele>
        <time>2021-11-13 11:28:56</time>
      </trkpt>
      <trkpt lat="41.41881" lon="2.18454">
        <ele>42.6</ele>
        <time>2021-11-13 11:28:57</time>
      </trkpt>
      <trkpt lat="41.41876" lon="2.18448">
        <ele>42.8</ele>
        <time>2021-11-13 11:28:58</time>
      </trkpt>
      <trkpt lat="41.4187" lon="2.1844">
        <ele>43</ele>
        <time>2021-11-13 11:28:59</time>
      </trkpt>
      <trkpt lat="41.41867" lon="2.18435">
        <ele>43</ele>
        <time>2021-11-13 11:29:00</time>
      </trkpt>
      <trkpt lat="41.41863" lon="2.18428">
        <ele>43.2</ele>
        <time>2021-11-13 11:29:01</time>
      </trkpt>
      <trkpt lat="41.4186" lon="2.18422">
        <ele>43.4</ele>
        <time>2021-11-13 11:29:02</time>
      </trkpt>
      <trkpt lat="41.41856" lon="2.18415">
        <ele>43.4</ele>
        <time>2021-11-13 11:29:03</time>
      </trkpt>
      <trkpt lat="41.41853" lon="2.18408">
        <ele>43.6</ele>
        <time>2021-11-13 11:29:04</time>
      </trkpt>
      <trkpt lat="41.41848" lon="2.18399">
        <ele>43.6</ele>
        <time>2021-11-13 11:29:05</time>
      </trkpt>
      <trkpt lat="41.41845" lon="2.18392">
        <ele>43.8</ele>
        <time>2021-11-13 11:29:06</time>
      </trkpt>
      <trkpt lat="41.41842" lon="2.18385">
        <ele>43.8</ele>
        <time>2021-11-13 11:29:07</time>
      </trkpt>
      <trkpt lat="41.41837" lon="2.18378">
        <ele>43.8</ele>
        <time>2021-11-13 11:29:08</time>
      </trkpt>
      <trkpt lat="41.41832" lon="2.18372">
        <ele>44</ele>
        <time>2021-11-13 11:29:09</time>
      </trkpt>
      <trkpt lat="41.41825" lon="2.18366">
        <ele>44</ele>
        <time>2021-11-13 11:29:10</time>
      </trkpt>
      <trkpt lat="41.41816" lon="2.18361">
        <ele>44</ele>
        <time>2021-11-13 11:29:11</time>
      </trkpt>
      <trkpt lat="41.41812" lon="2.18357">
        <ele>44</ele>
        <time>2021-11-13 11:29:12</time>
      </trkpt>
      <trkpt lat="41.41808" lon="2.18352">
        <ele>44</ele>
        <time>2021-11-13 11:29:13</time>
      </trkpt>
      <trkpt lat="41.41803" lon="2.18348">
        <ele>44.2</ele>
        <time>2021-11-13 11:29:14</time>
      </trkpt>
      <trkpt lat="41.418" lon="2.18344">
        <ele>44.4</ele>
        <time>2021-11-13 11:29:15</time>
      </trkpt>
      <trkpt lat="41.41797" lon="2.18341">
        <ele>44.4</ele>
        <time>2021-11-13 11:29:16</time>
      </trkpt>
      <trkpt lat="41.41796" lon="2.18339">
        <ele>44.6</ele>
        <time>2021-11-13 11:29:17</time>
      </trkpt>
      <trkpt lat="41.41795" lon="2.18338">
        <ele>44.8</ele>
        <time>2021-11-13 11:29:18</time>
      </trkpt>
      <trkpt lat="41.41795" lon="2.18337">
        <ele>44.8</ele>
        <time>2021-11-13 11:29:19</time>
      </trkpt>
      <trkpt lat="41.41795" lon="2.18336">
        <ele>45</ele>
        <time>2021-11-13 11:29:20</time>
      </trkpt>
      <trkpt lat="41.41794" lon="2.18335">
        <ele>45</ele>
        <time>2021-11-13 11:29:21</time>
      </trkpt>
      <trkpt lat="41.41793" lon="2.18334">
        <ele>45.2</ele>
        <time>2021-11-13 11:29:22</time>
      </trkpt>
      <trkpt lat="41.41791" lon="2.18331">
        <ele>45.2</ele>
        <time>2021-11-13 11:29:23</time>
      </trkpt>
      <trkpt lat="41.41789" lon="2.18327">
        <ele>45.2</ele>
        <time>2021-11-13 11:29:24</time>
      </trkpt>
      <trkpt lat="41.41786" lon="2.18322">
        <ele>45.4</ele>
        <time>2021-11-13 11:29:25</time>
      </trkpt>
      <trkpt lat="41.41783" lon="2.18318">
        <ele>45.4</ele>
        <time>2021-11-13 11:29:26</time>
      </trkpt>
      <trkpt lat="41.41778" lon="2.18313">
        <ele>45.6</ele>
        <time>2021-11-13 11:29:27</time>
      </trkpt>
      <trkpt lat="41.41774" lon="2.18307">
        <ele>45.6</ele>
        <time>2021-11-13 11:29:28</time>
      </trkpt>
      <trkpt lat="41.41771" lon="2.18301">
        <ele>45.8</ele>
        <time>2021-11-13 11:29:29</time>
      </trkpt>
      <trkpt lat="41.41767" lon="2.18296">
        <ele>45.8</ele>
        <time>2021-11-13 11:29:30</time>
      </trkpt>
      <trkpt lat="41.41762" lon="2.1829">
        <ele>46</ele>
        <time>2021-11-13 11:29:31</time>
      </trkpt>
      <trkpt lat="41.41758" lon="2.18284">
        <ele>46</ele>
        <time>2021-11-13 11:29:32</time>
      </trkpt>
      <trkpt lat="41.41754" lon="2.18277">
        <ele>46.2</ele>
        <time>2021-11-13 11:29:33</time>
      </trkpt>
      <trkpt lat="41.4175" lon="2.18271">
        <ele>46.2</ele>
        <time>2021-11-13 11:29:34</time>
      </trkpt>
      <trkpt lat="41.41745" lon="2.18264">
        <ele>46.4</ele>
        <time>2021-11-13 11:29:35</time>
      </trkpt>
      <trkpt lat="41.41741" lon="2.18258">
        <ele>46.4</ele>
        <time>2021-11-13 11:29:36</time>
      </trkpt>
      <trkpt lat="41.41736" lon="2.18252">
        <ele>46.6</ele>
        <time>2021-11-13 11:29:37</time>
      </trkpt>
      <trkpt lat="41.41732" lon="2.18246">
        <ele>46.6</ele>
        <time>2021-11-13 11:29:38</time>
      </trkpt>
      <trkpt lat="41.41728" lon="2.18241">
        <ele>46.6</ele>
        <time>2021-11-13 11:29:39</time>
      </trkpt>
      <trkpt lat="41.41723" lon="2.18236">
        <ele>46.8</ele>
        <time>2021-11-13 11:29:40</time>
      </trkpt>
      <trkpt lat="41.41718" lon="2.1823">
        <ele>47</ele>
        <time>2021-11-13 11:29:41</time>
      </trkpt>
      <trkpt lat="41.41713" lon="2.18225">
        <ele>47.2</ele>
        <time>2021-11-13 11:29:42</time>
      </trkpt>
      <trkpt lat="41.41709" lon="2.1822">
        <ele>47.4</ele>
        <time>2021-11-13 11:29:43</time>
      </trkpt>
      <trkpt lat="41.41704" lon="2.18215">
        <ele>47.6</ele>
        <time>2021-11-13 11:29:44</time>
      </trkpt>
      <trkpt lat="41.41699" lon="2.18209">
        <ele>47.8</ele>
        <time>2021-11-13 11:29:45</time>
      </trkpt>
      <trkpt lat="41.41695" lon="2.18203">
        <ele>48</ele>
        <time>2021-11-13 11:29:46</time>
      </trkpt>
      <trkpt lat="41.41691" lon="2.18198">
        <ele>48</ele>
        <time>2021-11-13 11:29:47</time>
      </trkpt>
      <trkpt lat="41.41686" lon="2.18192">
        <ele>48.2</ele>
        <time>2021-11-13 11:29:48</time>
      </trkpt>
      <trkpt lat="41.41682" lon="2.18187">
        <ele>48.2</ele>
        <time>2021-11-13 11:29:49</time>
      </trkpt>
      <trkpt lat="41.41677" lon="2.18181">
        <ele>48.6</ele>
        <time>2021-11-13 11:29:50</time>
      </trkpt>
      <trkpt lat="41.41673" lon="2.18176">
        <ele>48.8</ele>
        <time>2021-11-13 11:29:51</time>
      </trkpt>
      <trkpt lat="41.41668" lon="2.18169">
        <ele>49</ele>
        <time>2021-11-13 11:29:52</time>
      </trkpt>
      <trkpt lat="41.41664" lon="2.18163">
        <ele>49.2</ele>
        <time>2021-11-13 11:29:53</time>
      </trkpt>
      <trkpt lat="41.4166" lon="2.18157">
        <ele>49.2</ele>
        <time>2021-11-13 11:29:54</time>
      </trkpt>
      <trkpt lat="41.41656" lon="2.18151">
        <ele>49.4</ele>
        <time>2021-11-13 11:29:55</time>
      </trkpt>
      <trkpt lat="41.41652" lon="2.18145">
        <ele>49.6</ele>
        <time>2021-11-13 11:29:56</time>
      </trkpt>
      <trkpt lat="41.41647" lon="2.18139">
        <ele>50.2</ele>
        <time>2021-11-13 11:29:57</time>
      </trkpt>
      <trkpt lat="41.41644" lon="2.18134">
        <ele>50.4</ele>
        <time>2021-11-13 11:29:58</time>
      </trkpt>
      <trkpt lat="41.41639" lon="2.18128">
        <ele>50.8</ele>
        <time>2021-11-13 11:29:59</time>
      </trkpt>
      <trkpt lat="41.41635" lon="2.18123">
        <ele>51</ele>
        <time>2021-11-13 11:30:00</time>
      </trkpt>
      <trkpt lat="41.4163" lon="2.18118">
        <ele>51.4</ele>
        <time>2021-11-13 11:30:01</time>
      </trkpt>
      <trkpt lat="41.41626" lon="2.18113">
        <ele>51.4</ele>
        <time>2021-11-13 11:30:02</time>
      </trkpt>
      <trkpt lat="41.41622" lon="2.18107">
        <ele>51.8</ele>
        <time>2021-11-13 11:30:03</time>
      </trkpt>
      <trkpt lat="41.41618" lon="2.181">
        <ele>51.8</ele>
        <time>2021-11-13 11:30:04</time>
      </trkpt>
      <trkpt lat="41.41615" lon="2.18094">
        <ele>52</ele>
        <time>2021-11-13 11:30:05</time>
      </trkpt>
      <trkpt lat="41.41611" lon="2.18087">
        <ele>52.2</ele>
        <time>2021-11-13 11:30:06</time>
      </trkpt>
      <trkpt lat="41.41608" lon="2.1808">
        <ele>52.4</ele>
        <time>2021-11-13 11:30:07</time>
      </trkpt>
      <trkpt lat="41.41603" lon="2.18073">
        <ele>52.6</ele>
        <time>2021-11-13 11:30:08</time>
      </trkpt>
      <trkpt lat="41.416" lon="2.18066">
        <ele>52.8</ele>
        <time>2021-11-13 11:30:09</time>
      </trkpt>
      <trkpt lat="41.41596" lon="2.18059">
        <ele>53</ele>
        <time>2021-11-13 11:30:10</time>
      </trkpt>
      <trkpt lat="41.41591" lon="2.18054">
        <ele>53</ele>
        <time>2021-11-13 11:30:11</time>
      </trkpt>
      <trkpt lat="41.41586" lon="2.18052">
        <ele>53.2</ele>
        <time>2021-11-13 11:30:12</time>
      </trkpt>
      <trkpt lat="41.41581" lon="2.18051">
        <ele>53.4</ele>
        <time>2021-11-13 11:30:13</time>
      </trkpt>
      <trkpt lat="41.41576" lon="2.18051">
        <ele>53.4</ele>
        <time>2021-11-13 11:30:14</time>
      </trkpt>
      <trkpt lat="41.41571" lon="2.1805">
        <ele>53.6</ele>
        <time>2021-11-13 11:30:15</time>
      </trkpt>
      <trkpt lat="41.41567" lon="2.18048">
        <ele>53.6</ele>
        <time>2021-11-13 11:30:16</time>
      </trkpt>
      <trkpt lat="41.41563" lon="2.18043">
        <ele>53.8</ele>
        <time>2021-11-13 11:30:17</time>
      </trkpt>
      <trkpt lat="41.4156" lon="2.18034">
        <ele>54</ele>
        <time>2021-11-13 11:30:18</time>
      </trkpt>
      <trkpt lat="41.41557" lon="2.18022">
        <ele>54</ele>
        <time>2021-11-13 11:30:19</time>
      </trkpt>
      <trkpt lat="41.41554" lon="2.18013">
        <ele>54.2</ele>
        <time>2021-11-13 11:30:20</time>
      </trkpt>
      <trkpt lat="41.41552" lon="2.18002">
        <ele>54.4</ele>
        <time>2021-11-13 11:30:21</time>
      </trkpt>
      <trkpt lat="41.41549" lon="2.17992">
        <ele>54.6</ele>
        <time>2021-11-13 11:30:22</time>
      </trkpt>
      <trkpt lat="41.41545" lon="2.17985">
        <ele>54.6</ele>
        <time>2021-11-13 11:30:23</time>
      </trkpt>
      <trkpt lat="41.4154" lon="2.17978">
        <ele>54.6</ele>
        <time>2021-11-13 11:30:24</time>
      </trkpt>
      <trkpt lat="41.41535" lon="2.17973">
        <ele>54.8</ele>
        <time>2021-11-13 11:30:25</time>
      </trkpt>
      <trkpt lat="41.4153" lon="2.17968">
        <ele>55</ele>
        <time>2021-11-13 11:30:26</time>
      </trkpt>
      <trkpt lat="41.41525" lon="2.17963">
        <ele>55</ele>
        <time>2021-11-13 11:30:27</time>
      </trkpt>
      <trkpt lat="41.4152" lon="2.17957">
        <ele>55.2</ele>
        <time>2021-11-13 11:30:28</time>
      </trkpt>
      <trkpt lat="41.41516" lon="2.17952">
        <ele>55.4</ele>
        <time>2021-11-13 11:30:29</time>
      </trkpt>
      <trkpt lat="41.41511" lon="2.17945">
        <ele>55.8</ele>
        <time>2021-11-13 11:30:30</time>
      </trkpt>
      <trkpt lat="41.41507" lon="2.17939">
        <ele>55.8</ele>
        <time>2021-11-13 11:30:31</time>
      </trkpt>
      <trkpt lat="41.41502" lon="2.17933">
        <ele>56</ele>
        <time>2021-11-13 11:30:32</time>
      </trkpt>
      <trkpt lat="41.41498" lon="2.17927">
        <ele>56.2</ele>
        <time>2021-11-13 11:30:33</time>
      </trkpt>
      <trkpt lat="41.41493" lon="2.1792">
        <ele>56.4</ele>
        <time>2021-11-13 11:30:34</time>
      </trkpt>
      <trkpt lat="41.41489" lon="2.17914">
        <ele>56.6</ele>
        <time>2021-11-13 11:30:35</time>
      </trkpt>
      <trkpt lat="41.41485" lon="2.17908">
        <ele>56.8</ele>
        <time>2021-11-13 11:30:36</time>
      </trkpt>
      <trkpt lat="41.41481" lon="2.17902">
        <ele>56.8</ele>
        <time>2021-11-13 11:30:37</time>
      </trkpt>
      <trkpt lat="41.41477" lon="2.17895">
        <ele>57.2</ele>
        <time>2021-11-13 11:30:38</time>
      </trkpt>
      <trkpt lat="41.41472" lon="2.1789">
        <ele>57.2</ele>
        <time>2021-11-13 11:30:39</time>
      </trkpt>
      <trkpt lat="41.41467" lon="2.17886">
        <ele>57.4</ele>
        <time>2021-11-13 11:30:40</time>
      </trkpt>
      <trkpt lat="41.41462" lon="2.17881">
        <ele>57.6</ele>
        <time>2021-11-13 11:30:41</time>
      </trkpt>
      <trkpt lat="41.41456" lon="2.17877">
        <ele>57.8</ele>
        <time>2021-11-13 11:30:42</time>
      </trkpt>
      <trkpt lat="41.41451" lon="2.17872">
        <ele>58</ele>
        <time>2021-11-13 11:30:43</time>
      </trkpt>
      <trkpt lat="41.41447" lon="2.17866">
        <ele>58.2</ele>
        <time>2021-11-13 11:30:44</time>
      </trkpt>
      <trkpt lat="41.41442" lon="2.17861">
        <ele>58.4</ele>
        <time>2021-11-13 11:30:45</time>
      </trkpt>
      <trkpt lat="41.41438" lon="2.17855">
        <ele>58.6</ele>
        <time>2021-11-13 11:30:46</time>
      </trkpt>
      <trkpt lat="41.41433" lon="2.1785">
        <ele>58.8</ele>
        <time>2021-11-13 11:30:47</time>
      </trkpt>
      <trkpt lat="41.41428" lon="2.17844">
        <ele>58.8</ele>
        <time>2021-11-13 11:30:48</time>
      </trkpt>
      <trkpt lat="41.41424" lon="2.17837">
        <ele>59</ele>
        <time>2021-11-13 11:30:49</time>
      </trkpt>
      <trkpt lat="41.41419" lon="2.17831">
        <ele>59</ele>
        <time>2021-11-13 11:30:50</time>
      </trkpt>
      <trkpt lat="41.41415" lon="2.17826">
        <ele>59.2</ele>
        <time>2021-11-13 11:30:51</time>
      </trkpt>
      <trkpt lat="41.4141" lon="2.1782">
        <ele>59.2</ele>
        <time>2021-11-13 11:30:52</time>
      </trkpt>
      <trkpt lat="41.41406" lon="2.17814">
        <ele>59.4</ele>
        <time>2021-11-13 11:30:53</time>
      </trkpt>
      <trkpt lat="41.41402" lon="2.17809">
        <ele>59.4</ele>
        <time>2021-11-13 11:30:54</time>
      </trkpt>
      <trkpt lat="41.41398" lon="2.17804">
        <ele>59.6</ele>
        <time>2021-11-13 11:30:55</time>
      </trkpt>
      <trkpt lat="41.41395" lon="2.17799">
        <ele>60</ele>
        <time>2021-11-13 11:30:56</time>
      </trkpt>
      <trkpt lat="41.41391" lon="2.17794">
        <ele>60</ele>
        <time>2021-11-13 11:30:57</time>
      </trkpt>
      <trkpt lat="41.41388" lon="2.17789">
        <ele>60.2</ele>
        <time>2021-11-13 11:30:58</time>
      </trkpt>
      <trkpt lat="41.41384" lon="2.17787">
        <ele>60.2</ele>
        <time>2021-11-13 11:30:59</time>
      </trkpt>
      <trkpt lat="41.41381" lon="2.17784">
        <ele>60.4</ele>
        <time>2021-11-13 11:31:00</time>
      </trkpt>
      <trkpt lat="41.41378" lon="2.17782">
        <ele>60.4</ele>
        <time>2021-11-13 11:31:01</time>
      </trkpt>
      <trkpt lat="41.41377" lon="2.17779">
        <ele>60.6</ele>
        <time>2021-11-13 11:31:02</time>
      </trkpt>
      <trkpt lat="41.41362" lon="2.17738">
        <ele>61.6</ele>
        <time>2021-11-13 11:31:20</time>
      </trkpt>
      <trkpt lat="41.41357" lon="2.17732">
        <ele>61.6</ele>
        <time>2021-11-13 11:31:21</time>
      </trkpt>
      <trkpt lat="41.41352" lon="2.17726">
        <ele>61.6</ele>
        <time>2021-11-13 11:31:22</time>
      </trkpt>
      <trkpt lat="41.41348" lon="2.1772">
        <ele>61.6</ele>
        <time>2021-11-13 11:31:23</time>
      </trkpt>
      <trkpt lat="41.41343" lon="2.17713">
        <ele>61.6</ele>
        <time>2021-11-13 11:31:24</time>
      </trkpt>
      <trkpt lat="41.41338" lon="2.17707">
        <ele>61.8</ele>
        <time>2021-11-13 11:31:25</time>
      </trkpt>
      <trkpt lat="41.41334" lon="2.177">
        <ele>62.2</ele>
        <time>2021-11-13 11:31:26</time>
      </trkpt>
      <trkpt lat="41.41329" lon="2.17693">
        <ele>62.2</ele>
        <time>2021-11-13 11:31:27</time>
      </trkpt>
      <trkpt lat="41.41324" lon="2.17686">
        <ele>62.2</ele>
        <time>2021-11-13 11:31:28</time>
      </trkpt>
      <trkpt lat="41.4132" lon="2.17682">
        <ele>62.2</ele>
        <time>2021-11-13 11:31:29</time>
      </trkpt>
      <trkpt lat="41.41314" lon="2.17675">
        <ele>62.4</ele>
        <time>2021-11-13 11:31:30</time>
      </trkpt>
      <trkpt lat="41.41308" lon="2.17669">
        <ele>62.4</ele>
        <time>2021-11-13 11:31:31</time>
      </trkpt>
      <trkpt lat="41.41302" lon="2.17664">
        <ele>62.4</ele>
        <time>2021-11-13 11:31:32</time>
      </trkpt>
      <trkpt lat="41.41297" lon="2.17658">
        <ele>62.6</ele>
        <time>2021-11-13 11:31:33</time>
      </trkpt>
      <trkpt lat="41.41291" lon="2.17652">
        <ele>62.6</ele>
        <time>2021-11-13 11:31:34</time>
      </trkpt>
      <trkpt lat="41.41287" lon="2.17646">
        <ele>62.8</ele>
        <time>2021-11-13 11:31:35</time>
      </trkpt>
      <trkpt lat="41.41282" lon="2.1764">
        <ele>63</ele>
        <time>2021-11-13 11:31:36</time>
      </trkpt>
      <trkpt lat="41.41277" lon="2.17633">
        <ele>63</ele>
        <time>2021-11-13 11:31:37</time>
      </trkpt>
      <trkpt lat="41.41272" lon="2.17628">
        <ele>63</ele>
        <time>2021-11-13 11:31:38</time>
      </trkpt>
      <trkpt lat="41.41267" lon="2.17621">
        <ele>63.2</ele>
        <time>2021-11-13 11:31:39</time>
      </trkpt>
      <trkpt lat="41.41262" lon="2.17615">
        <ele>63.2</ele>
        <time>2021-11-13 11:31:40</time>
      </trkpt>
      <trkpt lat="41.41258" lon="2.17609">
        <ele>63.2</ele>
        <time>2021-11-13 11:31:41</time>
      </trkpt>
      <trkpt lat="41.41253" lon="2.17603">
        <ele>63.4</ele>
        <time>2021-11-13 11:31:42</time>
      </trkpt>
      <trkpt lat="41.41247" lon="2.17597">
        <ele>63.6</ele>
        <time>2021-11-13 11:31:43</time>
      </trkpt>
      <trkpt lat="41.41243" lon="2.17592">
        <ele>63.8</ele>
        <time>2021-11-13 11:31:44</time>
      </trkpt>
      <trkpt lat="41.41239" lon="2.17585">
        <ele>63.8</ele>
        <time>2021-11-13 11:31:45</time>
      </trkpt>
      <trkpt lat="41.41234" lon="2.17579">
        <ele>64</ele>
        <time>2021-11-13 11:31:46</time>
      </trkpt>
      <trkpt lat="41.4123" lon="2.17573">
        <ele>64.2</ele>
        <time>2021-11-13 11:31:47</time>
      </trkpt>
      <trkpt lat="41.4123" lon="2.17573">
        <ele>64.6</ele>
        <time>2021-11-13 11:31:48</time>
      </trkpt>
      <trkpt lat="41.41221" lon="2.1756">
        <ele>64.6</ele>
        <time>2021-11-13 11:31:49</time>
      </trkpt>
      <trkpt lat="41.41217" lon="2.17556">
        <ele>64.6</ele>
        <time>2021-11-13 11:31:50</time>
      </trkpt>
      <trkpt lat="41.41211" lon="2.17552">
        <ele>64.8</ele>
        <time>2021-11-13 11:31:51</time>
      </trkpt>
      <trkpt lat="41.41206" lon="2.17548">
        <ele>64.8</ele>
        <time>2021-11-13 11:31:52</time>
      </trkpt>
      <trkpt lat="41.41201" lon="2.17542">
        <ele>64.8</ele>
        <time>2021-11-13 11:31:53</time>
      </trkpt>
      <trkpt lat="41.41197" lon="2.17538">
        <ele>64.8</ele>
        <time>2021-11-13 11:31:54</time>
      </trkpt>
      <trkpt lat="41.41192" lon="2.1753">
        <ele>64.8</ele>
        <time>2021-11-13 11:31:55</time>
      </trkpt>
      <trkpt lat="41.41188" lon="2.17523">
        <ele>64.8</ele>
        <time>2021-11-13 11:31:56</time>
      </trkpt>
      <trkpt lat="41.41183" lon="2.17516">
        <ele>64.8</ele>
        <time>2021-11-13 11:31:57</time>
      </trkpt>
      <trkpt lat="41.41178" lon="2.17509">
        <ele>64.8</ele>
        <time>2021-11-13 11:31:58</time>
      </trkpt>
      <trkpt lat="41.41174" lon="2.17501">
        <ele>64.6</ele>
        <time>2021-11-13 11:31:59</time>
      </trkpt>
      <trkpt lat="41.41169" lon="2.17495">
        <ele>64.6</ele>
        <time>2021-11-13 11:32:00</time>
      </trkpt>
      <trkpt lat="41.41163" lon="2.1749">
        <ele>64.6</ele>
        <time>2021-11-13 11:32:01</time>
      </trkpt>
      <trkpt lat="41.41158" lon="2.17484">
        <ele>64.6</ele>
        <time>2021-11-13 11:32:02</time>
      </trkpt>
      <trkpt lat="41.41153" lon="2.17478">
        <ele>64.6</ele>
        <time>2021-11-13 11:32:03</time>
      </trkpt>
      <trkpt lat="41.4115" lon="2.17472">
        <ele>64.6</ele>
        <time>2021-11-13 11:32:04</time>
      </trkpt>
      <trkpt lat="41.41145" lon="2.17466">
        <ele>64.6</ele>
        <time>2021-11-13 11:32:05</time>
      </trkpt>
      <trkpt lat="41.4114" lon="2.17458">
        <ele>64.6</ele>
        <time>2021-11-13 11:32:06</time>
      </trkpt>
      <trkpt lat="41.41135" lon="2.17451">
        <ele>64.6</ele>
        <time>2021-11-13 11:32:07</time>
      </trkpt>
      <trkpt lat="41.4113" lon="2.17445">
        <ele>64.6</ele>
        <time>2021-11-13 11:32:08</time>
      </trkpt>
      <trkpt lat="41.41125" lon="2.17438">
        <ele>64.6</ele>
        <time>2021-11-13 11:32:09</time>
      </trkpt>
      <trkpt lat="41.41119" lon="2.1743">
        <ele>64.4</ele>
        <time>2021-11-13 11:32:10</time>
      </trkpt>
      <trkpt lat="41.41113" lon="2.17423">
        <ele>64.4</ele>
        <time>2021-11-13 11:32:11</time>
      </trkpt>
      <trkpt lat="41.41108" lon="2.17416">
        <ele>64.2</ele>
        <time>2021-11-13 11:32:12</time>
      </trkpt>
      <trkpt lat="41.41102" lon="2.1741">
        <ele>64.2</ele>
        <time>2021-11-13 11:32:13</time>
      </trkpt>
      <trkpt lat="41.41097" lon="2.17403">
        <ele>64.2</ele>
        <time>2021-11-13 11:32:14</time>
      </trkpt>
      <trkpt lat="41.41092" lon="2.17395">
        <ele>64.2</ele>
        <time>2021-11-13 11:32:15</time>
      </trkpt>
      <trkpt lat="41.41088" lon="2.1739">
        <ele>64</ele>
        <time>2021-11-13 11:32:16</time>
      </trkpt>
      <trkpt lat="41.41082" lon="2.17381">
        <ele>64</ele>
        <time>2021-11-13 11:32:17</time>
      </trkpt>
      <trkpt lat="41.41077" lon="2.17375">
        <ele>64</ele>
        <time>2021-11-13 11:32:18</time>
      </trkpt>
      <trkpt lat="41.41073" lon="2.1737">
        <ele>64</ele>
        <time>2021-11-13 11:32:19</time>
      </trkpt>
      <trkpt lat="41.41068" lon="2.17363">
        <ele>64</ele>
        <time>2021-11-13 11:32:20</time>
      </trkpt>
      <trkpt lat="41.41064" lon="2.17356">
        <ele>64</ele>
        <time>2021-11-13 11:32:21</time>
      </trkpt>
      <trkpt lat="41.41059" lon="2.17349">
        <ele>64</ele>
        <time>2021-11-13 11:32:22</time>
      </trkpt>
      <trkpt lat="41.41055" lon="2.17342">
        <ele>64</ele>
        <time>2021-11-13 11:32:23</time>
      </trkpt>
      <trkpt lat="41.4105" lon="2.17336">
        <ele>64</ele>
        <time>2021-11-13 11:32:24</time>
      </trkpt>
      <trkpt lat="41.41044" lon="2.1733">
        <ele>64</ele>
        <time>2021-11-13 11:32:25</time>
      </trkpt>
      <trkpt lat="41.41039" lon="2.17324">
        <ele>64.2</ele>
        <time>2021-11-13 11:32:26</time>
      </trkpt>
      <trkpt lat="41.41034" lon="2.17316">
        <ele>64.4</ele>
        <time>2021-11-13 11:32:27</time>
      </trkpt>
      <trkpt lat="41.41029" lon="2.1731">
        <ele>64.4</ele>
        <time>2021-11-13 11:32:28</time>
      </trkpt>
      <trkpt lat="41.41024" lon="2.17303">
        <ele>64.4</ele>
        <time>2021-11-13 11:32:29</time>
      </trkpt>
      <trkpt lat="41.41018" lon="2.17297">
        <ele>64.6</ele>
        <time>2021-11-13 11:32:30</time>
      </trkpt>
      <trkpt lat="41.41014" lon="2.17291">
        <ele>64.6</ele>
        <time>2021-11-13 11:32:31</time>
      </trkpt>
      <trkpt lat="41.41008" lon="2.17282">
        <ele>64.8</ele>
        <time>2021-11-13 11:32:32</time>
      </trkpt>
      <trkpt lat="41.41004" lon="2.17274">
        <ele>64.6</ele>
        <time>2021-11-13 11:32:33</time>
      </trkpt>
      <trkpt lat="41.41" lon="2.17268">
        <ele>64.8</ele>
        <time>2021-11-13 11:32:34</time>
      </trkpt>
      <trkpt lat="41.40995" lon="2.17259">
        <ele>64.8</ele>
        <time>2021-11-13 11:32:35</time>
      </trkpt>
      <trkpt lat="41.4099" lon="2.17252">
        <ele>64.8</ele>
        <time>2021-11-13 11:32:36</time>
      </trkpt>
      <trkpt lat="41.40985" lon="2.17244">
        <ele>65</ele>
        <time>2021-11-13 11:32:37</time>
      </trkpt>
      <trkpt lat="41.40982" lon="2.17236">
        <ele>65</ele>
        <time>2021-11-13 11:32:38</time>
      </trkpt>
      <trkpt lat="41.40977" lon="2.17229">
        <ele>65</ele>
        <time>2021-11-13 11:32:39</time>
      </trkpt>
      <trkpt lat="41.40972" lon="2.17224">
        <ele>65</ele>
        <time>2021-11-13 11:32:40</time>
      </trkpt>
      <trkpt lat="41.40967" lon="2.17219">
        <ele>65</ele>
        <time>2021-11-13 11:32:41</time>
      </trkpt>
      <trkpt lat="41.40961" lon="2.17214">
        <ele>65.2</ele>
        <time>2021-11-13 11:32:42</time>
      </trkpt>
      <trkpt lat="41.40955" lon="2.17212">
        <ele>65.2</ele>
        <time>2021-11-13 11:32:43</time>
      </trkpt>
      <trkpt lat="41.4095" lon="2.17213">
        <ele>65.2</ele>
        <time>2021-11-13 11:32:44</time>
      </trkpt>
      <trkpt lat="41.40947" lon="2.17216">
        <ele>65.4</ele>
        <time>2021-11-13 11:32:45</time>
      </trkpt>
      <trkpt lat="41.40943" lon="2.17219">
        <ele>65.4</ele>
        <time>2021-11-13 11:32:46</time>
      </trkpt>
      <trkpt lat="41.4094" lon="2.17222">
        <ele>65.6</ele>
        <time>2021-11-13 11:32:47</time>
      </trkpt>
    </trkseg>
  </trk>
</gpx>
